<?xml version="1.0" encoding="UTF-8"?>
<gpx xmlns="http://www.topografix.com/GPX/1/1" version="1.1" creator="Nokia Sports Tracker" xmlns:xsi="http://www.w3.org/2001/XMLSchema-instance" xsi:schemaLocation="http://www.topografix.com/GPX/1/1 http://www.topografix.com/GPX/1/1/gpx.xsd">
<metadata>
<name>24.02.2010 17:00</name>
<desc>Nordic Walking on Bodo3</desc>
<author><name>Jörg U.</name></author>
<time>2010-02-24T17:05:05.31</time>
</metadata>
<trk>
<name>24.02.2010 17:00</name>
<trkseg>
<trkpt lat="48.943677" lon="8.661210">
<ele>384.5</ele>
<speed>0.8</speed>
<course>210.6</course>
<desc>Speed 0.8 km/h Distance 0.00 km</desc>
<time>2010-02-24T17:05:05.45</time>
<name>1</name>
</trkpt>
<trkpt lat="48.943660" lon="8.661195">
<ele>384.5</ele>
<speed>1.2</speed>
<course>208.6</course>
<desc>Speed 1.2 km/h Distance 0.00 km</desc>
<time>2010-02-24T17:05:07.35</time>
<name>2</name>
</trkpt>
<trkpt lat="48.943650" lon="8.661187">
<ele>384.5</ele>
<speed>2.1</speed>
<course>222.5</course>
<desc>Speed 2.1 km/h Distance 0.00 km</desc>
<time>2010-02-24T17:05:08.48</time>
<name>3</name>
</trkpt>
<trkpt lat="48.943642" lon="8.661175">
<ele>384.5</ele>
<speed>1.7</speed>
<course>198.8</course>
<desc>Speed 1.7 km/h Distance 0.00 km</desc>
<time>2010-02-24T17:05:09.42</time>
<name>4</name>
</trkpt>
<trkpt lat="48.943638" lon="8.661173">
<ele>384.5</ele>
<speed>1.4</speed>
<course>234.5</course>
<desc>Speed 1.4 km/h Distance 0.01 km</desc>
<time>2010-02-24T17:05:10.38</time>
<name>5</name>
</trkpt>
<trkpt lat="48.943613" lon="8.661120">
<ele>384.5</ele>
<speed>2.7</speed>
<course>233.4</course>
<desc>Speed 2.7 km/h Distance 0.01 km</desc>
<time>2010-02-24T17:05:11.87</time>
<name>6</name>
</trkpt>
<trkpt lat="48.943582" lon="8.661055">
<ele>384.5</ele>
<speed>6.4</speed>
<course>226.9</course>
<desc>Speed 6.4 km/h Distance 0.02 km</desc>
<time>2010-02-24T17:05:13.87</time>
<name>7</name>
</trkpt>
<trkpt lat="48.943568" lon="8.661033">
<ele>384.5</ele>
<speed>4.0</speed>
<course>236.0</course>
<desc>Speed 4.0 km/h Distance 0.02 km</desc>
<time>2010-02-24T17:05:14.87</time>
<name>8</name>
</trkpt>
<trkpt lat="48.943555" lon="8.661003">
<ele>384.5</ele>
<speed>4.9</speed>
<course>232.7</course>
<desc>Speed 4.9 km/h Distance 0.02 km</desc>
<time>2010-02-24T17:05:15.87</time>
<name>9</name>
</trkpt>
<trkpt lat="48.943545" lon="8.660983">
<ele>384.5</ele>
<speed>5.6</speed>
<course>236.9</course>
<desc>Speed 5.6 km/h Distance 0.02 km</desc>
<time>2010-02-24T17:05:16.87</time>
<name>10</name>
</trkpt>
<trkpt lat="48.943540" lon="8.660972">
<ele>384.5</ele>
<speed>1.9</speed>
<course>232.7</course>
<desc>Speed 1.9 km/h Distance 0.02 km</desc>
<time>2010-02-24T17:05:17.87</time>
<name>11</name>
</trkpt>
<trkpt lat="48.943532" lon="8.660955">
<ele>384.5</ele>
<speed>5.2</speed>
<course>226.5</course>
<desc>Speed 5.2 km/h Distance 0.02 km</desc>
<time>2010-02-24T17:05:18.87</time>
<name>12</name>
</trkpt>
<trkpt lat="48.943523" lon="8.660942">
<ele>384.5</ele>
<speed>4.0</speed>
<course>229.1</course>
<desc>Speed 4.0 km/h Distance 0.03 km</desc>
<time>2010-02-24T17:05:19.86</time>
<name>13</name>
</trkpt>
<trkpt lat="48.943517" lon="8.660930">
<ele>384.5</ele>
<speed>4.4</speed>
<course>167.4</course>
<desc>Speed 4.4 km/h Distance 0.03 km</desc>
<time>2010-02-24T17:05:20.86</time>
<name>14</name>
</trkpt>
<trkpt lat="48.943515" lon="8.660930">
<ele>384.5</ele>
<speed>1.1</speed>
<course>236.0</course>
<desc>Speed 1.1 km/h Distance 0.03 km</desc>
<time>2010-02-24T17:05:21.86</time>
<name>15</name>
</trkpt>
<trkpt lat="48.943508" lon="8.660915">
<ele>384.5</ele>
<speed>5.1</speed>
<course>226.5</course>
<desc>Speed 5.1 km/h Distance 0.03 km</desc>
<time>2010-02-24T17:05:22.86</time>
<name>16</name>
</trkpt>
<trkpt lat="48.943500" lon="8.660902">
<ele>384.5</ele>
<speed>4.5</speed>
<course>240.3</course>
<desc>Speed 4.5 km/h Distance 0.03 km</desc>
<time>2010-02-24T17:05:23.86</time>
<name>17</name>
</trkpt>
<trkpt lat="48.943495" lon="8.660888">
<ele>384.5</ele>
<speed>3.7</speed>
<course>270.0</course>
<desc>Speed 3.7 km/h Distance 0.03 km</desc>
<time>2010-02-24T17:05:24.86</time>
<name>18</name>
</trkpt>
<trkpt lat="48.943495" lon="8.660883">
<ele>384.5</ele>
<speed>1.2</speed>
<course>90.0</course>
<desc>Speed 1.2 km/h Distance 0.03 km</desc>
<time>2010-02-24T17:05:25.86</time>
<name>19</name>
</trkpt>
<trkpt lat="48.943495" lon="8.660892">
<ele>384.5</ele>
<speed>1.9</speed>
<course>227.8</course>
<desc>Speed 1.9 km/h Distance 0.03 km</desc>
<time>2010-02-24T17:05:26.86</time>
<name>20</name>
</trkpt>
<trkpt lat="48.943490" lon="8.660883">
<ele>384.5</ele>
<speed>3.3</speed>
<course>213.7</course>
<desc>Speed 3.3 km/h Distance 0.03 km</desc>
<time>2010-02-24T17:05:27.86</time>
<name>21</name>
</trkpt>
<trkpt lat="48.943483" lon="8.660877">
<ele>384.5</ele>
<speed>3.0</speed>
<course>213.2</course>
<desc>Speed 3.0 km/h Distance 0.03 km</desc>
<time>2010-02-24T17:05:28.86</time>
<name>22</name>
</trkpt>
<trkpt lat="48.943477" lon="8.660870">
<ele>384.5</ele>
<speed>2.3</speed>
<course>213.2</course>
<desc>Speed 2.3 km/h Distance 0.04 km</desc>
<time>2010-02-24T17:05:29.86</time>
<name>23</name>
</trkpt>
<trkpt lat="48.943467" lon="8.660860">
<ele>384.5</ele>
<speed>4.6</speed>
<course>219.4</course>
<desc>Speed 4.6 km/h Distance 0.04 km</desc>
<time>2010-02-24T17:05:30.86</time>
<name>24</name>
</trkpt>
<trkpt lat="48.943460" lon="8.660852">
<ele>384.5</ele>
<speed>3.3</speed>
<course>213.2</course>
<desc>Speed 3.3 km/h Distance 0.04 km</desc>
<time>2010-02-24T17:05:31.85</time>
<name>25</name>
</trkpt>
<trkpt lat="48.943452" lon="8.660843">
<ele>384.5</ele>
<speed>3.6</speed>
<course>218.1</course>
<desc>Speed 3.6 km/h Distance 0.04 km</desc>
<time>2010-02-24T17:05:32.85</time>
<name>26</name>
</trkpt>
<trkpt lat="48.943443" lon="8.660833">
<ele>384.5</ele>
<speed>4.2</speed>
<course>232.7</course>
<desc>Speed 4.2 km/h Distance 0.04 km</desc>
<time>2010-02-24T17:05:33.85</time>
<name>27</name>
</trkpt>
<trkpt lat="48.943435" lon="8.660817">
<ele>384.5</ele>
<speed>5.7</speed>
<course>225.9</course>
<desc>Speed 5.7 km/h Distance 0.04 km</desc>
<time>2010-02-24T17:05:34.85</time>
<name>28</name>
</trkpt>
<trkpt lat="48.943423" lon="8.660798">
<ele>384.5</ele>
<speed>6.8</speed>
<course>100.7</course>
<desc>Speed 6.8 km/h Distance 0.04 km</desc>
<time>2010-02-24T17:05:35.85</time>
<name>29</name>
</trkpt>
<trkpt lat="48.943422" lon="8.660812">
<ele>384.5</ele>
<speed>2.5</speed>
<course>228.9</course>
<desc>Speed 2.5 km/h Distance 0.04 km</desc>
<time>2010-02-24T17:05:36.85</time>
<name>30</name>
</trkpt>
<trkpt lat="48.943415" lon="8.660800">
<ele>384.5</ele>
<speed>4.5</speed>
<course>203.8</course>
<desc>Speed 4.5 km/h Distance 0.05 km</desc>
<time>2010-02-24T17:05:37.85</time>
<name>31</name>
</trkpt>
<trkpt lat="48.943410" lon="8.660797">
<ele>384.5</ele>
<speed>2.6</speed>
<course>146.3</course>
<desc>Speed 2.6 km/h Distance 0.05 km</desc>
<time>2010-02-24T17:05:38.85</time>
<name>32</name>
</trkpt>
<trkpt lat="48.943407" lon="8.660800">
<ele>384.5</ele>
<speed>1.3</speed>
<course>213.1</course>
<desc>Speed 1.3 km/h Distance 0.05 km</desc>
<time>2010-02-24T17:05:39.85</time>
<name>33</name>
</trkpt>
<trkpt lat="48.943395" lon="8.660788">
<ele>384.5</ele>
<speed>4.6</speed>
<course>221.2</course>
<desc>Speed 4.6 km/h Distance 0.05 km</desc>
<time>2010-02-24T17:05:40.85</time>
<name>34</name>
</trkpt>
<trkpt lat="48.943385" lon="8.660775">
<ele>384.5</ele>
<speed>4.1</speed>
<course>229.9</course>
<desc>Speed 4.1 km/h Distance 0.05 km</desc>
<time>2010-02-24T17:05:41.85</time>
<name>35</name>
</trkpt>
<trkpt lat="48.943333" lon="8.660682">
<ele>384.5</ele>
<speed>4.5</speed>
<course>232.7</course>
<desc>Speed 4.5 km/h Distance 0.06 km</desc>
<time>2010-02-24T17:05:43.85</time>
<name>36</name>
</trkpt>
<trkpt lat="48.943318" lon="8.660652">
<ele>384.5</ele>
<speed>5.6</speed>
<course>218.8</course>
<desc>Speed 5.6 km/h Distance 0.06 km</desc>
<time>2010-02-24T17:05:44.85</time>
<name>37</name>
</trkpt>
<trkpt lat="48.943303" lon="8.660633">
<ele>384.5</ele>
<speed>3.5</speed>
<course>201.5</course>
<desc>Speed 3.5 km/h Distance 0.06 km</desc>
<time>2010-02-24T17:05:45.85</time>
<name>38</name>
</trkpt>
<trkpt lat="48.943295" lon="8.660628">
<ele>384.5</ele>
<speed>2.1</speed>
<course>161.2</course>
<desc>Speed 2.1 km/h Distance 0.06 km</desc>
<time>2010-02-24T17:05:46.85</time>
<name>39</name>
</trkpt>
<trkpt lat="48.943288" lon="8.660632">
<ele>384.5</ele>
<speed>1.4</speed>
<course>180.0</course>
<desc>Speed 1.4 km/h Distance 0.06 km</desc>
<time>2010-02-24T17:05:47.85</time>
<name>40</name>
</trkpt>
<trkpt lat="48.943285" lon="8.660632">
<ele>384.5</ele>
<speed>1.3</speed>
<course>37.2</course>
<desc>Speed 1.3 km/h Distance 0.07 km</desc>
<time>2010-02-24T17:05:48.85</time>
<name>41</name>
</trkpt>
<trkpt lat="48.943287" lon="8.660633">
<ele>384.5</ele>
<speed>0.9</speed>
<course>213.7</course>
<desc>Speed 0.9 km/h Distance 0.07 km</desc>
<time>2010-02-24T17:05:49.84</time>
<name>42</name>
</trkpt>
<trkpt lat="48.943283" lon="8.660630">
<ele>384.5</ele>
<speed>0.9</speed>
<course>217.2</course>
<desc>Speed 0.9 km/h Distance 0.07 km</desc>
<time>2010-02-24T17:05:50.84</time>
<name>43</name>
</trkpt>
<trkpt lat="48.943282" lon="8.660628">
<ele>384.5</ele>
<speed>0.3</speed>
<course>117.4</course>
<desc>Speed 0.3 km/h Distance 0.07 km</desc>
<time>2010-02-24T17:05:51.84</time>
<name>44</name>
</trkpt>
<trkpt lat="48.943280" lon="8.660633">
<ele>384.5</ele>
<speed>0.3</speed>
<course>127.3</course>
<desc>Speed 0.3 km/h Distance 0.07 km</desc>
<time>2010-02-24T17:05:52.84</time>
<name>45</name>
</trkpt>
<trkpt lat="48.943273" lon="8.660647">
<ele>384.5</ele>
<speed>0.7</speed>
<course>83.3</course>
<desc>Speed 0.7 km/h Distance 0.07 km</desc>
<time>2010-02-24T17:05:53.84</time>
<name>46</name>
</trkpt>
<trkpt lat="48.943278" lon="8.660712">
<ele>384.5</ele>
<speed>7.9</speed>
<course>90.0</course>
<desc>Speed 7.9 km/h Distance 0.07 km</desc>
<time>2010-02-24T17:05:55.84</time>
<name>47</name>
</trkpt>
<trkpt lat="48.943278" lon="8.660720">
<ele>384.5</ele>
<speed>7.9</speed>
<course>52.6</course>
<desc>Speed 7.9 km/h Distance 0.07 km</desc>
<time>2010-02-24T17:05:56.84</time>
<name>48</name>
</trkpt>
<trkpt lat="48.943283" lon="8.660730">
<ele>384.5</ele>
<speed>7.9</speed>
<course>75.8</course>
<desc>Speed 7.9 km/h Distance 0.07 km</desc>
<time>2010-02-24T17:05:57.84</time>
<name>49</name>
</trkpt>
<trkpt lat="48.943285" lon="8.660740">
<ele>384.5</ele>
<speed>7.9</speed>
<course>146.8</course>
<desc>Speed 7.9 km/h Distance 0.07 km</desc>
<time>2010-02-24T17:05:58.84</time>
<name>50</name>
</trkpt>
<trkpt lat="48.943280" lon="8.660745">
<ele>384.5</ele>
<speed>0.8</speed>
<course>126.1</course>
<desc>Speed 0.8 km/h Distance 0.08 km</desc>
<time>2010-02-24T17:05:59.84</time>
<name>51</name>
</trkpt>
<trkpt lat="48.943278" lon="8.660748">
<ele>384.5</ele>
<speed>0.8</speed>
<course>139.1</course>
<desc>Speed 0.8 km/h Distance 0.08 km</desc>
<time>2010-02-24T17:06:00.84</time>
<name>52</name>
</trkpt>
<trkpt lat="48.943273" lon="8.660755">
<ele>384.5</ele>
<speed>0.7</speed>
<course>146.8</course>
<desc>Speed 0.7 km/h Distance 0.08 km</desc>
<time>2010-02-24T17:06:01.84</time>
<name>53</name>
</trkpt>
<trkpt lat="48.943267" lon="8.660762">
<ele>384.5</ele>
<speed>0.3</speed>
<course>146.3</course>
<desc>Speed 0.3 km/h Distance 0.08 km</desc>
<time>2010-02-24T17:06:02.84</time>
<name>54</name>
</trkpt>
<trkpt lat="48.943260" lon="8.660768">
<ele>384.5</ele>
<speed>0.6</speed>
<course>167.4</course>
<desc>Speed 0.6 km/h Distance 0.08 km</desc>
<time>2010-02-24T17:06:03.84</time>
<name>55</name>
</trkpt>
<trkpt lat="48.943255" lon="8.660770">
<ele>384.5</ele>
<speed>0.6</speed>
<course>192.6</course>
<desc>Speed 0.6 km/h Distance 0.08 km</desc>
<time>2010-02-24T17:06:04.84</time>
<name>56</name>
</trkpt>
<trkpt lat="48.943250" lon="8.660768">
<ele>384.5</ele>
<speed>1.4</speed>
<course>213.7</course>
<desc>Speed 1.4 km/h Distance 0.08 km</desc>
<time>2010-02-24T17:06:05.84</time>
<name>57</name>
</trkpt>
<trkpt lat="48.943247" lon="8.660765">
<ele>384.5</ele>
<speed>0.9</speed>
<course>146.8</course>
<desc>Speed 0.9 km/h Distance 0.08 km</desc>
<time>2010-02-24T17:06:06.84</time>
<name>58</name>
</trkpt>
<trkpt lat="48.943242" lon="8.660770">
<ele>384.5</ele>
<speed>2.7</speed>
<course>192.6</course>
<desc>Speed 2.7 km/h Distance 0.08 km</desc>
<time>2010-02-24T17:06:07.84</time>
<name>59</name>
</trkpt>
<trkpt lat="48.943238" lon="8.660768">
<ele>384.5</ele>
<speed>1.9</speed>
<course>246.4</course>
<desc>Speed 1.9 km/h Distance 0.08 km</desc>
<time>2010-02-24T17:06:08.84</time>
<name>60</name>
</trkpt>
<trkpt lat="48.943235" lon="8.660757">
<ele>384.5</ele>
<speed>1.8</speed>
<course>255.0</course>
<desc>Speed 1.8 km/h Distance 0.08 km</desc>
<time>2010-02-24T17:06:09.85</time>
<name>61</name>
</trkpt>
<trkpt lat="48.943230" lon="8.660728">
<ele>384.5</ele>
<speed>3.9</speed>
<course>253.1</course>
<desc>Speed 3.9 km/h Distance 0.08 km</desc>
<time>2010-02-24T17:06:10.99</time>
<name>62</name>
</trkpt>
<trkpt lat="48.943225" lon="8.660703">
<ele>384.5</ele>
<speed>5.8</speed>
<course>259.5</course>
<desc>Speed 5.8 km/h Distance 0.09 km</desc>
<time>2010-02-24T17:06:12.83</time>
<name>63</name>
</trkpt>
<trkpt lat="48.943217" lon="8.660635">
<ele>384.5</ele>
<speed>3.3</speed>
<course>243.1</course>
<desc>Speed 3.3 km/h Distance 0.09 km</desc>
<time>2010-02-24T17:06:14.83</time>
<name>64</name>
</trkpt>
<trkpt lat="48.943210" lon="8.660615">
<ele>384.5</ele>
<speed>2.7</speed>
<course>238.6</course>
<desc>Speed 2.7 km/h Distance 0.09 km</desc>
<time>2010-02-24T17:06:15.83</time>
<name>65</name>
</trkpt>
<trkpt lat="48.943203" lon="8.660598">
<ele>384.5</ele>
<speed>3.3</speed>
<course>228.7</course>
<desc>Speed 3.3 km/h Distance 0.09 km</desc>
<time>2010-02-24T17:06:16.83</time>
<name>66</name>
</trkpt>
<trkpt lat="48.943197" lon="8.660587">
<ele>384.5</ele>
<speed>4.2</speed>
<course>224.6</course>
<desc>Speed 4.2 km/h Distance 0.10 km</desc>
<time>2010-02-24T17:06:17.86</time>
<name>67</name>
</trkpt>
<trkpt lat="48.943187" lon="8.660572">
<ele>384.5</ele>
<speed>3.5</speed>
<course>230.7</course>
<desc>Speed 3.5 km/h Distance 0.10 km</desc>
<time>2010-02-24T17:06:18.85</time>
<name>68</name>
</trkpt>
<trkpt lat="48.943175" lon="8.660550">
<ele>384.5</ele>
<speed>3.7</speed>
<course>231.1</course>
<desc>Speed 3.7 km/h Distance 0.10 km</desc>
<time>2010-02-24T17:06:19.85</time>
<name>69</name>
</trkpt>
<trkpt lat="48.943160" lon="8.660522">
<ele>384.5</ele>
<speed>5.4</speed>
<course>230.7</course>
<desc>Speed 5.4 km/h Distance 0.10 km</desc>
<time>2010-02-24T17:06:20.85</time>
<name>70</name>
</trkpt>
<trkpt lat="48.943148" lon="8.660500">
<ele>384.5</ele>
<speed>4.8</speed>
<course>232.7</course>
<desc>Speed 4.8 km/h Distance 0.10 km</desc>
<time>2010-02-24T17:06:21.85</time>
<name>71</name>
</trkpt>
<trkpt lat="48.943142" lon="8.660487">
<ele>384.5</ele>
<speed>3.5</speed>
<course>241.0</course>
<desc>Speed 3.5 km/h Distance 0.10 km</desc>
<time>2010-02-24T17:06:22.85</time>
<name>72</name>
</trkpt>
<trkpt lat="48.943135" lon="8.660468">
<ele>384.5</ele>
<speed>5.1</speed>
<course>236.7</course>
<desc>Speed 5.1 km/h Distance 0.11 km</desc>
<time>2010-02-24T17:06:23.84</time>
<name>73</name>
</trkpt>
<trkpt lat="48.943130" lon="8.660457">
<ele>384.5</ele>
<speed>4.4</speed>
<course>226.4</course>
<desc>Speed 4.4 km/h Distance 0.11 km</desc>
<time>2010-02-24T17:06:24.84</time>
<name>74</name>
</trkpt>
<trkpt lat="48.943122" lon="8.660443">
<ele>384.5</ele>
<speed>4.9</speed>
<course>220.5</course>
<desc>Speed 4.9 km/h Distance 0.11 km</desc>
<time>2010-02-24T17:06:25.98</time>
<name>75</name>
</trkpt>
<trkpt lat="48.943105" lon="8.660422">
<ele>384.5</ele>
<speed>5.9</speed>
<course>224.5</course>
<desc>Speed 5.9 km/h Distance 0.11 km</desc>
<time>2010-02-24T17:06:27.84</time>
<name>76</name>
</trkpt>
<trkpt lat="48.943098" lon="8.660412">
<ele>384.5</ele>
<speed>5.1</speed>
<course>243.0</course>
<desc>Speed 5.1 km/h Distance 0.11 km</desc>
<time>2010-02-24T17:06:28.84</time>
<name>77</name>
</trkpt>
<trkpt lat="48.943095" lon="8.660402">
<ele>384.5</ele>
<speed>5.3</speed>
<course>217.2</course>
<desc>Speed 5.3 km/h Distance 0.11 km</desc>
<time>2010-02-24T17:06:29.84</time>
<name>78</name>
</trkpt>
<trkpt lat="48.943093" lon="8.660400">
<ele>384.5</ele>
<speed>2.5</speed>
<course>240.3</course>
<desc>Speed 2.5 km/h Distance 0.11 km</desc>
<time>2010-02-24T17:06:30.84</time>
<name>79</name>
</trkpt>
<trkpt lat="48.943088" lon="8.660387">
<ele>384.5</ele>
<speed>4.6</speed>
<course>240.3</course>
<desc>Speed 4.6 km/h Distance 0.11 km</desc>
<time>2010-02-24T17:06:31.84</time>
<name>80</name>
</trkpt>
<trkpt lat="48.943083" lon="8.660373">
<ele>384.5</ele>
<speed>4.4</speed>
<course>219.7</course>
<desc>Speed 4.4 km/h Distance 0.12 km</desc>
<time>2010-02-24T17:06:32.84</time>
<name>81</name>
</trkpt>
<trkpt lat="48.943077" lon="8.660365">
<ele>384.5</ele>
<speed>4.4</speed>
<course>218.4</course>
<desc>Speed 4.4 km/h Distance 0.12 km</desc>
<time>2010-02-24T17:06:33.84</time>
<name>82</name>
</trkpt>
<trkpt lat="48.943068" lon="8.660355">
<ele>384.5</ele>
<speed>5.3</speed>
<course>232.8</course>
<desc>Speed 5.3 km/h Distance 0.12 km</desc>
<time>2010-02-24T17:06:34.84</time>
<name>83</name>
</trkpt>
<trkpt lat="48.943063" lon="8.660345">
<ele>384.5</ele>
<speed>4.1</speed>
<course>219.4</course>
<desc>Speed 4.1 km/h Distance 0.12 km</desc>
<time>2010-02-24T17:06:35.84</time>
<name>84</name>
</trkpt>
<trkpt lat="48.943057" lon="8.660337">
<ele>384.5</ele>
<speed>4.8</speed>
<course>236.9</course>
<desc>Speed 4.8 km/h Distance 0.12 km</desc>
<time>2010-02-24T17:06:36.84</time>
<name>85</name>
</trkpt>
<trkpt lat="48.943052" lon="8.660325">
<ele>384.5</ele>
<speed>4.3</speed>
<course>226.6</course>
<desc>Speed 4.3 km/h Distance 0.12 km</desc>
<time>2010-02-24T17:06:37.84</time>
<name>86</name>
</trkpt>
<trkpt lat="48.943043" lon="8.660312">
<ele>384.5</ele>
<speed>4.8</speed>
<course>213.5</course>
<desc>Speed 4.8 km/h Distance 0.12 km</desc>
<time>2010-02-24T17:06:38.84</time>
<name>87</name>
</trkpt>
<trkpt lat="48.943035" lon="8.660303">
<ele>384.5</ele>
<speed>4.2</speed>
<course>213.2</course>
<desc>Speed 4.2 km/h Distance 0.12 km</desc>
<time>2010-02-24T17:06:39.84</time>
<name>88</name>
</trkpt>
<trkpt lat="48.943025" lon="8.660293">
<ele>384.5</ele>
<speed>5.3</speed>
<course>214.1</course>
<desc>Speed 5.3 km/h Distance 0.12 km</desc>
<time>2010-02-24T17:06:40.84</time>
<name>89</name>
</trkpt>
<trkpt lat="48.943020" lon="8.660288">
<ele>384.5</ele>
<speed>3.3</speed>
<course>222.6</course>
<desc>Speed 3.3 km/h Distance 0.12 km</desc>
<time>2010-02-24T17:06:41.83</time>
<name>90</name>
</trkpt>
<trkpt lat="48.943012" lon="8.660277">
<ele>384.5</ele>
<speed>4.9</speed>
<course>224.5</course>
<desc>Speed 4.9 km/h Distance 0.13 km</desc>
<time>2010-02-24T17:06:42.83</time>
<name>91</name>
</trkpt>
<trkpt lat="48.943005" lon="8.660267">
<ele>384.5</ele>
<speed>4.8</speed>
<course>192.6</course>
<desc>Speed 4.8 km/h Distance 0.13 km</desc>
<time>2010-02-24T17:06:43.83</time>
<name>92</name>
</trkpt>
<trkpt lat="48.943000" lon="8.660265">
<ele>384.5</ele>
<speed>3.1</speed>
<course>218.1</course>
<desc>Speed 3.1 km/h Distance 0.13 km</desc>
<time>2010-02-24T17:06:44.84</time>
<name>93</name>
</trkpt>
<trkpt lat="48.942992" lon="8.660255">
<ele>384.5</ele>
<speed>4.5</speed>
<course>208.6</course>
<desc>Speed 4.5 km/h Distance 0.13 km</desc>
<time>2010-02-24T17:06:45.83</time>
<name>94</name>
</trkpt>
<trkpt lat="48.942982" lon="8.660247">
<ele>384.5</ele>
<speed>4.5</speed>
<course>213.2</course>
<desc>Speed 4.5 km/h Distance 0.13 km</desc>
<time>2010-02-24T17:06:46.83</time>
<name>95</name>
</trkpt>
<trkpt lat="48.942973" lon="8.660238">
<ele>384.5</ele>
<speed>4.2</speed>
<course>209.4</course>
<desc>Speed 4.2 km/h Distance 0.13 km</desc>
<time>2010-02-24T17:06:47.83</time>
<name>96</name>
</trkpt>
<trkpt lat="48.942962" lon="8.660228">
<ele>384.5</ele>
<speed>5.4</speed>
<course>218.1</course>
<desc>Speed 5.4 km/h Distance 0.13 km</desc>
<time>2010-02-24T17:06:48.83</time>
<name>97</name>
</trkpt>
<trkpt lat="48.942953" lon="8.660218">
<ele>384.5</ele>
<speed>4.0</speed>
<course>209.2</course>
<desc>Speed 4.0 km/h Distance 0.13 km</desc>
<time>2010-02-24T17:06:49.83</time>
<name>98</name>
</trkpt>
<trkpt lat="48.942942" lon="8.660208">
<ele>384.5</ele>
<speed>4.6</speed>
<course>213.2</course>
<desc>Speed 4.6 km/h Distance 0.14 km</desc>
<time>2010-02-24T17:06:50.83</time>
<name>99</name>
</trkpt>
<trkpt lat="48.942935" lon="8.660202">
<ele>384.5</ele>
<speed>3.1</speed>
<course>220.9</course>
<desc>Speed 3.1 km/h Distance 0.14 km</desc>
<time>2010-02-24T17:06:51.83</time>
<name>100</name>
</trkpt>
<trkpt lat="48.942930" lon="8.660195">
<ele>384.5</ele>
<speed>3.0</speed>
<course>219.4</course>
<desc>Speed 3.0 km/h Distance 0.14 km</desc>
<time>2010-02-24T17:06:52.83</time>
<name>101</name>
</trkpt>
<trkpt lat="48.942923" lon="8.660187">
<ele>384.5</ele>
<speed>3.2</speed>
<course>212.9</course>
<desc>Speed 3.2 km/h Distance 0.14 km</desc>
<time>2010-02-24T17:06:53.82</time>
<name>102</name>
</trkpt>
<trkpt lat="48.942915" lon="8.660178">
<ele>384.5</ele>
<speed>4.0</speed>
<course>193.8</course>
<desc>Speed 4.0 km/h Distance 0.14 km</desc>
<time>2010-02-24T17:06:54.82</time>
<name>103</name>
</trkpt>
<trkpt lat="48.942907" lon="8.660175">
<ele>384.5</ele>
<speed>3.3</speed>
<course>167.4</course>
<desc>Speed 3.3 km/h Distance 0.14 km</desc>
<time>2010-02-24T17:06:55.83</time>
<name>104</name>
</trkpt>
<trkpt lat="48.942903" lon="8.660175">
<ele>384.5</ele>
<speed>1.1</speed>
<course>224.6</course>
<desc>Speed 1.1 km/h Distance 0.14 km</desc>
<time>2010-02-24T17:06:56.83</time>
<name>105</name>
</trkpt>
<trkpt lat="48.942820" lon="8.660050">
<ele>384.5</ele>
<speed>5.6</speed>
<course>218.1</course>
<desc>Speed 5.6 km/h Distance 0.15 km</desc>
<time>2010-02-24T17:06:59.82</time>
<name>106</name>
</trkpt>
<trkpt lat="48.942812" lon="8.660040">
<ele>384.5</ele>
<speed>4.3</speed>
<course>196.8</course>
<desc>Speed 4.3 km/h Distance 0.15 km</desc>
<time>2010-02-24T17:07:00.82</time>
<name>107</name>
</trkpt>
<trkpt lat="48.942790" lon="8.660030">
<ele>384.5</ele>
<speed>8.5</speed>
<course>206.0</course>
<desc>Speed 8.5 km/h Distance 0.16 km</desc>
<time>2010-02-24T17:07:01.82</time>
<name>108</name>
</trkpt>
<trkpt lat="48.942777" lon="8.660020">
<ele>384.5</ele>
<speed>6.1</speed>
<course>164.4</course>
<desc>Speed 6.1 km/h Distance 0.16 km</desc>
<time>2010-02-24T17:07:02.82</time>
<name>109</name>
</trkpt>
<trkpt lat="48.942753" lon="8.660030">
<ele>384.5</ele>
<speed>9.3</speed>
<course>202.6</course>
<desc>Speed 9.3 km/h Distance 0.16 km</desc>
<time>2010-02-24T17:07:03.82</time>
<name>110</name>
</trkpt>
<trkpt lat="48.942735" lon="8.660018">
<ele>384.5</ele>
<speed>8.4</speed>
<course>210.0</course>
<desc>Speed 8.4 km/h Distance 0.16 km</desc>
<time>2010-02-24T17:07:04.82</time>
<name>111</name>
</trkpt>
<trkpt lat="48.942722" lon="8.660007">
<ele>384.5</ele>
<speed>4.5</speed>
<course>236.9</course>
<desc>Speed 4.5 km/h Distance 0.17 km</desc>
<time>2010-02-24T17:07:05.82</time>
<name>112</name>
</trkpt>
<trkpt lat="48.942717" lon="8.659995">
<ele>384.5</ele>
<speed>3.8</speed>
<course>225.1</course>
<desc>Speed 3.8 km/h Distance 0.17 km</desc>
<time>2010-02-24T17:07:06.82</time>
<name>113</name>
</trkpt>
<trkpt lat="48.942660" lon="8.659908">
<ele>384.5</ele>
<speed>11.5</speed>
<course>216.6</course>
<desc>Speed 11.5 km/h Distance 0.18 km</desc>
<time>2010-02-24T17:07:08.82</time>
<name>114</name>
</trkpt>
<trkpt lat="48.942647" lon="8.659893">
<ele>384.5</ele>
<speed>4.6</speed>
<course>205.2</course>
<desc>Speed 4.6 km/h Distance 0.18 km</desc>
<time>2010-02-24T17:07:10.82</time>
<name>115</name>
</trkpt>
<trkpt lat="48.942635" lon="8.659885">
<ele>384.5</ele>
<speed>5.9</speed>
<course>180.0</course>
<desc>Speed 5.9 km/h Distance 0.18 km</desc>
<time>2010-02-24T17:07:11.82</time>
<name>116</name>
</trkpt>
<trkpt lat="48.942630" lon="8.659885">
<ele>384.5</ele>
<speed>2.8</speed>
<course>165.1</course>
<desc>Speed 2.8 km/h Distance 0.18 km</desc>
<time>2010-02-24T17:07:12.81</time>
<name>117</name>
</trkpt>
<trkpt lat="48.942622" lon="8.659888">
<ele>384.5</ele>
<speed>4.5</speed>
<course>208.6</course>
<desc>Speed 4.5 km/h Distance 0.18 km</desc>
<time>2010-02-24T17:07:13.81</time>
<name>118</name>
</trkpt>
<trkpt lat="48.942612" lon="8.659880">
<ele>384.5</ele>
<speed>5.3</speed>
<course>150.8</course>
<desc>Speed 5.3 km/h Distance 0.18 km</desc>
<time>2010-02-24T17:07:14.82</time>
<name>119</name>
</trkpt>
<trkpt lat="48.942610" lon="8.659882">
<ele>384.5</ele>
<speed>2.4</speed>
<course>180.0</course>
<desc>Speed 2.4 km/h Distance 0.18 km</desc>
<time>2010-02-24T17:07:15.82</time>
<name>120</name>
</trkpt>
<trkpt lat="48.942603" lon="8.659882">
<ele>384.5</ele>
<speed>2.7</speed>
<course>213.7</course>
<desc>Speed 2.7 km/h Distance 0.18 km</desc>
<time>2010-02-24T17:07:16.90</time>
<name>121</name>
</trkpt>
<trkpt lat="48.942597" lon="8.659875">
<ele>384.5</ele>
<speed>3.3</speed>
<course>198.8</course>
<desc>Speed 3.3 km/h Distance 0.18 km</desc>
<time>2010-02-24T17:07:17.81</time>
<name>122</name>
</trkpt>
<trkpt lat="48.942593" lon="8.659873">
<ele>384.5</ele>
<speed>1.7</speed>
<course>213.7</course>
<desc>Speed 1.7 km/h Distance 0.18 km</desc>
<time>2010-02-24T17:07:18.81</time>
<name>123</name>
</trkpt>
<trkpt lat="48.942587" lon="8.659867">
<ele>384.5</ele>
<speed>4.5</speed>
<course>80.4</course>
<desc>Speed 4.5 km/h Distance 0.18 km</desc>
<time>2010-02-24T17:07:19.81</time>
<name>124</name>
</trkpt>
<trkpt lat="48.942590" lon="8.659897">
<ele>384.5</ele>
<speed>7.8</speed>
<course>178.8</course>
<desc>Speed 7.8 km/h Distance 0.19 km</desc>
<time>2010-02-24T17:07:20.81</time>
<name>125</name>
</trkpt>
<trkpt lat="48.942583" lon="8.659897">
<ele>384.5</ele>
<speed>2.3</speed>
<course>175.0</course>
<desc>Speed 2.3 km/h Distance 0.19 km</desc>
<time>2010-02-24T17:07:21.82</time>
<name>126</name>
</trkpt>
<trkpt lat="48.942575" lon="8.659898">
<ele>384.5</ele>
<speed>2.6</speed>
<course>188.1</course>
<desc>Speed 2.6 km/h Distance 0.19 km</desc>
<time>2010-02-24T17:07:22.81</time>
<name>127</name>
</trkpt>
<trkpt lat="48.942570" lon="8.659897">
<ele>384.5</ele>
<speed>2.0</speed>
<course>200.6</course>
<desc>Speed 2.0 km/h Distance 0.19 km</desc>
<time>2010-02-24T17:07:23.81</time>
<name>128</name>
</trkpt>
<trkpt lat="48.942558" lon="8.659890">
<ele>384.5</ele>
<speed>4.1</speed>
<course>213.3</course>
<desc>Speed 4.1 km/h Distance 0.19 km</desc>
<time>2010-02-24T17:07:24.81</time>
<name>129</name>
</trkpt>
<trkpt lat="48.942547" lon="8.659878">
<ele>384.5</ele>
<speed>4.8</speed>
<course>218.1</course>
<desc>Speed 4.8 km/h Distance 0.19 km</desc>
<time>2010-02-24T17:07:25.81</time>
<name>130</name>
</trkpt>
<trkpt lat="48.942538" lon="8.659868">
<ele>384.5</ele>
<speed>3.3</speed>
<course>209.4</course>
<desc>Speed 3.3 km/h Distance 0.19 km</desc>
<time>2010-02-24T17:07:26.81</time>
<name>131</name>
</trkpt>
<trkpt lat="48.942527" lon="8.659858">
<ele>384.5</ele>
<speed>3.5</speed>
<course>217.5</course>
<desc>Speed 3.5 km/h Distance 0.19 km</desc>
<time>2010-02-24T17:07:27.81</time>
<name>132</name>
</trkpt>
<trkpt lat="48.942517" lon="8.659847">
<ele>384.5</ele>
<speed>2.4</speed>
<course>240.3</course>
<desc>Speed 2.4 km/h Distance 0.20 km</desc>
<time>2010-02-24T17:07:28.91</time>
<name>133</name>
</trkpt>
<trkpt lat="48.942512" lon="8.659833">
<ele>384.5</ele>
<speed>3.4</speed>
<course>213.7</course>
<desc>Speed 3.4 km/h Distance 0.20 km</desc>
<time>2010-02-24T17:07:29.81</time>
<name>134</name>
</trkpt>
<trkpt lat="48.942505" lon="8.659827">
<ele>384.5</ele>
<speed>2.6</speed>
<course>213.2</course>
<desc>Speed 2.6 km/h Distance 0.20 km</desc>
<time>2010-02-24T17:07:30.81</time>
<name>135</name>
</trkpt>
<trkpt lat="48.942497" lon="8.659818">
<ele>384.5</ele>
<speed>3.0</speed>
<course>213.2</course>
<desc>Speed 3.0 km/h Distance 0.20 km</desc>
<time>2010-02-24T17:07:31.81</time>
<name>136</name>
</trkpt>
<trkpt lat="48.942490" lon="8.659812">
<ele>384.5</ele>
<speed>1.9</speed>
<course>206.4</course>
<desc>Speed 1.9 km/h Distance 0.20 km</desc>
<time>2010-02-24T17:07:32.81</time>
<name>137</name>
</trkpt>
<trkpt lat="48.942483" lon="8.659807">
<ele>384.5</ele>
<speed>0.9</speed>
<course>192.6</course>
<desc>Speed 0.9 km/h Distance 0.20 km</desc>
<time>2010-02-24T17:07:33.81</time>
<name>138</name>
</trkpt>
<trkpt lat="48.942473" lon="8.659803">
<ele>384.5</ele>
<speed>2.2</speed>
<course>207.2</course>
<desc>Speed 2.2 km/h Distance 0.20 km</desc>
<time>2010-02-24T17:07:34.81</time>
<name>139</name>
</trkpt>
<trkpt lat="48.942458" lon="8.659792">
<ele>384.5</ele>
<speed>3.7</speed>
<course>194.9</course>
<desc>Speed 3.7 km/h Distance 0.20 km</desc>
<time>2010-02-24T17:07:35.80</time>
<name>140</name>
</trkpt>
<trkpt lat="48.942450" lon="8.659788">
<ele>384.5</ele>
<speed>3.1</speed>
<course>217.5</course>
<desc>Speed 3.1 km/h Distance 0.20 km</desc>
<time>2010-02-24T17:07:36.80</time>
<name>141</name>
</trkpt>
<trkpt lat="48.942440" lon="8.659777">
<ele>384.5</ele>
<speed>4.1</speed>
<course>203.7</course>
<desc>Speed 4.1 km/h Distance 0.21 km</desc>
<time>2010-02-24T17:07:37.80</time>
<name>142</name>
</trkpt>
<trkpt lat="48.942425" lon="8.659767">
<ele>384.5</ele>
<speed>4.9</speed>
<course>209.6</course>
<desc>Speed 4.9 km/h Distance 0.21 km</desc>
<time>2010-02-24T17:07:38.80</time>
<name>143</name>
</trkpt>
<trkpt lat="48.942413" lon="8.659757">
<ele>384.5</ele>
<speed>3.2</speed>
<course>220.0</course>
<desc>Speed 3.2 km/h Distance 0.21 km</desc>
<time>2010-02-24T17:07:39.80</time>
<name>144</name>
</trkpt>
<trkpt lat="48.942407" lon="8.659748">
<ele>384.5</ele>
<speed>3.1</speed>
<course>226.6</course>
<desc>Speed 3.1 km/h Distance 0.21 km</desc>
<time>2010-02-24T17:07:40.80</time>
<name>145</name>
</trkpt>
<trkpt lat="48.942398" lon="8.659735">
<ele>384.5</ele>
<speed>4.7</speed>
<course>203.8</course>
<desc>Speed 4.7 km/h Distance 0.21 km</desc>
<time>2010-02-24T17:07:41.80</time>
<name>146</name>
</trkpt>
<trkpt lat="48.942388" lon="8.659728">
<ele>384.5</ele>
<speed>3.9</speed>
<course>213.2</course>
<desc>Speed 3.9 km/h Distance 0.21 km</desc>
<time>2010-02-24T17:07:42.80</time>
<name>147</name>
</trkpt>
<trkpt lat="48.942380" lon="8.659720">
<ele>384.5</ele>
<speed>3.1</speed>
<course>208.6</course>
<desc>Speed 3.1 km/h Distance 0.21 km</desc>
<time>2010-02-24T17:07:43.80</time>
<name>148</name>
</trkpt>
<trkpt lat="48.942370" lon="8.659712">
<ele>384.5</ele>
<speed>3.5</speed>
<course>219.7</course>
<desc>Speed 3.5 km/h Distance 0.22 km</desc>
<time>2010-02-24T17:07:44.80</time>
<name>149</name>
</trkpt>
<trkpt lat="48.942363" lon="8.659703">
<ele>384.5</ele>
<speed>1.6</speed>
<course>249.5</course>
<desc>Speed 1.6 km/h Distance 0.22 km</desc>
<time>2010-02-24T17:07:45.80</time>
<name>150</name>
</trkpt>
<trkpt lat="48.942362" lon="8.659697">
<ele>384.5</ele>
<speed>1.7</speed>
<course>213.2</course>
<desc>Speed 1.7 km/h Distance 0.22 km</desc>
<time>2010-02-24T17:07:46.80</time>
<name>151</name>
</trkpt>
<trkpt lat="48.942353" lon="8.659688">
<ele>384.5</ele>
<speed>3.4</speed>
<course>213.2</course>
<desc>Speed 3.4 km/h Distance 0.22 km</desc>
<time>2010-02-24T17:07:47.80</time>
<name>152</name>
</trkpt>
<trkpt lat="48.942345" lon="8.659680">
<ele>384.5</ele>
<speed>4.0</speed>
<course>209.4</course>
<desc>Speed 4.0 km/h Distance 0.22 km</desc>
<time>2010-02-24T17:07:48.80</time>
<name>153</name>
</trkpt>
<trkpt lat="48.942333" lon="8.659670">
<ele>384.5</ele>
<speed>3.9</speed>
<course>203.8</course>
<desc>Speed 3.9 km/h Distance 0.22 km</desc>
<time>2010-02-24T17:07:49.79</time>
<name>154</name>
</trkpt>
<trkpt lat="48.942323" lon="8.659663">
<ele>384.5</ele>
<speed>3.3</speed>
<course>198.1</course>
<desc>Speed 3.3 km/h Distance 0.22 km</desc>
<time>2010-02-24T17:07:50.79</time>
<name>155</name>
</trkpt>
<trkpt lat="48.942307" lon="8.659655">
<ele>384.5</ele>
<speed>4.2</speed>
<course>203.8</course>
<desc>Speed 4.2 km/h Distance 0.22 km</desc>
<time>2010-02-24T17:07:51.80</time>
<name>156</name>
</trkpt>
<trkpt lat="48.942297" lon="8.659648">
<ele>384.5</ele>
<speed>3.2</speed>
<course>180.0</course>
<desc>Speed 3.2 km/h Distance 0.23 km</desc>
<time>2010-02-24T17:07:52.80</time>
<name>157</name>
</trkpt>
<trkpt lat="48.942287" lon="8.659648">
<ele>384.5</ele>
<speed>2.9</speed>
<course>190.4</course>
<desc>Speed 2.9 km/h Distance 0.23 km</desc>
<time>2010-02-24T17:07:53.80</time>
<name>158</name>
</trkpt>
<trkpt lat="48.942275" lon="8.659645">
<ele>384.5</ele>
<speed>3.6</speed>
<course>202.3</course>
<desc>Speed 3.6 km/h Distance 0.23 km</desc>
<time>2010-02-24T17:07:54.80</time>
<name>159</name>
</trkpt>
<trkpt lat="48.942262" lon="8.659637">
<ele>384.5</ele>
<speed>4.0</speed>
<course>191.2</course>
<desc>Speed 4.0 km/h Distance 0.23 km</desc>
<time>2010-02-24T17:07:55.80</time>
<name>160</name>
</trkpt>
<trkpt lat="48.942245" lon="8.659632">
<ele>384.5</ele>
<speed>3.7</speed>
<course>188.8</course>
<desc>Speed 3.7 km/h Distance 0.23 km</desc>
<time>2010-02-24T17:07:56.80</time>
<name>161</name>
</trkpt>
<trkpt lat="48.942225" lon="8.659627">
<ele>384.5</ele>
<speed>4.2</speed>
<course>190.2</course>
<desc>Speed 4.2 km/h Distance 0.23 km</desc>
<time>2010-02-24T17:07:57.80</time>
<name>162</name>
</trkpt>
<trkpt lat="48.942207" lon="8.659622">
<ele>384.5</ele>
<speed>4.5</speed>
<course>205.2</course>
<desc>Speed 4.5 km/h Distance 0.24 km</desc>
<time>2010-02-24T17:07:58.80</time>
<name>163</name>
</trkpt>
<trkpt lat="48.942195" lon="8.659613">
<ele>384.5</ele>
<speed>4.1</speed>
<course>193.5</course>
<desc>Speed 4.1 km/h Distance 0.24 km</desc>
<time>2010-02-24T17:07:59.80</time>
<name>164</name>
</trkpt>
<trkpt lat="48.942182" lon="8.659608">
<ele>384.5</ele>
<speed>4.5</speed>
<course>183.8</course>
<desc>Speed 4.5 km/h Distance 0.24 km</desc>
<time>2010-02-24T17:08:00.79</time>
<name>165</name>
</trkpt>
<trkpt lat="48.942167" lon="8.659607">
<ele>384.5</ele>
<speed>4.0</speed>
<course>177.8</course>
<desc>Speed 4.0 km/h Distance 0.24 km</desc>
<time>2010-02-24T17:08:01.79</time>
<name>166</name>
</trkpt>
<trkpt lat="48.942155" lon="8.659607">
<ele>384.5</ele>
<speed>3.5</speed>
<course>146.8</course>
<desc>Speed 3.5 km/h Distance 0.24 km</desc>
<time>2010-02-24T17:08:02.79</time>
<name>167</name>
</trkpt>
<trkpt lat="48.942150" lon="8.659612">
<ele>384.5</ele>
<speed>1.6</speed>
<course>146.8</course>
<desc>Speed 1.6 km/h Distance 0.24 km</desc>
<time>2010-02-24T17:08:03.80</time>
<name>168</name>
</trkpt>
<trkpt lat="48.942150" lon="8.659612">
<ele>384.5</ele>
<speed>0.6</speed>
<course>146.8</course>
<desc>Speed 0.6 km/h Distance 0.24 km</desc>
<time>2010-02-24T17:08:04.80</time>
<name>169</name>
</trkpt>
<trkpt lat="48.942150" lon="8.659612">
<ele>384.5</ele>
<speed>0.4</speed>
<course>147.7</course>
<desc>Speed 0.4 km/h Distance 0.24 km</desc>
<time>2010-02-24T17:08:05.79</time>
<name>170</name>
</trkpt>
<trkpt lat="48.942145" lon="8.659617">
<ele>384.5</ele>
<speed>1.9</speed>
<course>213.2</course>
<desc>Speed 1.9 km/h Distance 0.24 km</desc>
<time>2010-02-24T17:08:06.79</time>
<name>171</name>
</trkpt>
<trkpt lat="48.942138" lon="8.659610">
<ele>384.5</ele>
<speed>4.0</speed>
<course>167.4</course>
<desc>Speed 4.0 km/h Distance 0.24 km</desc>
<time>2010-02-24T17:08:07.79</time>
<name>172</name>
</trkpt>
<trkpt lat="48.942135" lon="8.659612">
<ele>384.5</ele>
<speed>1.5</speed>
<course>192.6</course>
<desc>Speed 1.5 km/h Distance 0.24 km</desc>
<time>2010-02-24T17:08:08.79</time>
<name>173</name>
</trkpt>
<trkpt lat="48.942130" lon="8.659610">
<ele>384.5</ele>
<speed>2.3</speed>
<course>127.0</course>
<desc>Speed 2.3 km/h Distance 0.24 km</desc>
<time>2010-02-24T17:08:09.80</time>
<name>174</name>
</trkpt>
<trkpt lat="48.942127" lon="8.659617">
<ele>384.5</ele>
<speed>1.0</speed>
<course>146.8</course>
<desc>Speed 1.0 km/h Distance 0.25 km</desc>
<time>2010-02-24T17:08:10.79</time>
<name>175</name>
</trkpt>
<trkpt lat="48.942122" lon="8.659622">
<ele>384.5</ele>
<speed>1.4</speed>
<course>175.6</course>
<desc>Speed 1.4 km/h Distance 0.25 km</desc>
<time>2010-02-24T17:08:11.79</time>
<name>176</name>
</trkpt>
<trkpt lat="48.942112" lon="8.659622">
<ele>384.5</ele>
<speed>1.9</speed>
<course>203.8</course>
<desc>Speed 1.9 km/h Distance 0.25 km</desc>
<time>2010-02-24T17:08:12.79</time>
<name>177</name>
</trkpt>
<trkpt lat="48.942102" lon="8.659615">
<ele>384.5</ele>
<speed>3.5</speed>
<course>161.8</course>
<desc>Speed 3.5 km/h Distance 0.25 km</desc>
<time>2010-02-24T17:08:13.79</time>
<name>178</name>
</trkpt>
<trkpt lat="48.942092" lon="8.659620">
<ele>384.5</ele>
<speed>3.3</speed>
<course>189.0</course>
<desc>Speed 3.3 km/h Distance 0.25 km</desc>
<time>2010-02-24T17:08:14.79</time>
<name>179</name>
</trkpt>
<trkpt lat="48.942078" lon="8.659617">
<ele>384.5</ele>
<speed>4.3</speed>
<course>189.0</course>
<desc>Speed 4.3 km/h Distance 0.25 km</desc>
<time>2010-02-24T17:08:15.79</time>
<name>180</name>
</trkpt>
<trkpt lat="48.942065" lon="8.659613">
<ele>384.5</ele>
<speed>3.9</speed>
<course>171.9</course>
<desc>Speed 3.9 km/h Distance 0.25 km</desc>
<time>2010-02-24T17:08:16.79</time>
<name>181</name>
</trkpt>
<trkpt lat="48.942050" lon="8.659617">
<ele>384.5</ele>
<speed>3.7</speed>
<course>188.1</course>
<desc>Speed 3.7 km/h Distance 0.25 km</desc>
<time>2010-02-24T17:08:17.79</time>
<name>182</name>
</trkpt>
<trkpt lat="48.942035" lon="8.659613">
<ele>384.5</ele>
<speed>2.9</speed>
<course>195.5</course>
<desc>Speed 2.9 km/h Distance 0.26 km</desc>
<time>2010-02-24T17:08:18.79</time>
<name>183</name>
</trkpt>
<trkpt lat="48.942023" lon="8.659608">
<ele>384.5</ele>
<speed>2.8</speed>
<course>191.2</course>
<desc>Speed 2.8 km/h Distance 0.26 km</desc>
<time>2010-02-24T17:08:19.79</time>
<name>184</name>
</trkpt>
<trkpt lat="48.942012" lon="8.659605">
<ele>384.5</ele>
<speed>3.3</speed>
<course>189.0</course>
<desc>Speed 3.3 km/h Distance 0.26 km</desc>
<time>2010-02-24T17:08:20.79</time>
<name>185</name>
</trkpt>
<trkpt lat="48.941998" lon="8.659602">
<ele>384.5</ele>
<speed>3.4</speed>
<course>173.5</course>
<desc>Speed 3.4 km/h Distance 0.26 km</desc>
<time>2010-02-24T17:08:21.79</time>
<name>186</name>
</trkpt>
<trkpt lat="48.941980" lon="8.659605">
<ele>384.5</ele>
<speed>4.5</speed>
<course>175.3</course>
<desc>Speed 4.5 km/h Distance 0.26 km</desc>
<time>2010-02-24T17:08:22.79</time>
<name>187</name>
</trkpt>
<trkpt lat="48.941968" lon="8.659607">
<ele>384.5</ele>
<speed>3.0</speed>
<course>151.4</course>
<desc>Speed 3.0 km/h Distance 0.26 km</desc>
<time>2010-02-24T17:08:23.79</time>
<name>188</name>
</trkpt>
<trkpt lat="48.941958" lon="8.659615">
<ele>384.5</ele>
<speed>2.2</speed>
<course>207.5</course>
<desc>Speed 2.2 km/h Distance 0.26 km</desc>
<time>2010-02-24T17:08:24.79</time>
<name>189</name>
</trkpt>
<trkpt lat="48.941950" lon="8.659608">
<ele>384.5</ele>
<speed>3.0</speed>
<course>173.4</course>
<desc>Speed 3.0 km/h Distance 0.27 km</desc>
<time>2010-02-24T17:08:25.78</time>
<name>190</name>
</trkpt>
<trkpt lat="48.941940" lon="8.659610">
<ele>384.5</ele>
<speed>2.2</speed>
<course>170.4</course>
<desc>Speed 2.2 km/h Distance 0.27 km</desc>
<time>2010-02-24T17:08:26.78</time>
<name>191</name>
</trkpt>
<trkpt lat="48.941932" lon="8.659612">
<ele>384.5</ele>
<speed>2.4</speed>
<course>177.8</course>
<desc>Speed 2.4 km/h Distance 0.27 km</desc>
<time>2010-02-24T17:08:27.79</time>
<name>192</name>
</trkpt>
<trkpt lat="48.941920" lon="8.659612">
<ele>384.5</ele>
<speed>2.3</speed>
<course>183.8</course>
<desc>Speed 2.3 km/h Distance 0.27 km</desc>
<time>2010-02-24T17:08:29.78</time>
<name>193</name>
</trkpt>
<trkpt lat="48.941905" lon="8.659610">
<ele>384.5</ele>
<speed>3.0</speed>
<course>188.1</course>
<desc>Speed 3.0 km/h Distance 0.27 km</desc>
<time>2010-02-24T17:08:30.78</time>
<name>194</name>
</trkpt>
<trkpt lat="48.941890" lon="8.659607">
<ele>384.5</ele>
<speed>2.8</speed>
<course>175.6</course>
<desc>Speed 2.8 km/h Distance 0.27 km</desc>
<time>2010-02-24T17:08:31.79</time>
<name>195</name>
</trkpt>
<trkpt lat="48.941880" lon="8.659608">
<ele>384.5</ele>
<speed>1.8</speed>
<course>164.5</course>
<desc>Speed 1.8 km/h Distance 0.27 km</desc>
<time>2010-02-24T17:08:32.79</time>
<name>196</name>
</trkpt>
<trkpt lat="48.941868" lon="8.659613">
<ele>384.5</ele>
<speed>2.3</speed>
<course>198.2</course>
<desc>Speed 2.3 km/h Distance 0.27 km</desc>
<time>2010-02-24T17:08:33.79</time>
<name>197</name>
</trkpt>
<trkpt lat="48.941858" lon="8.659608">
<ele>384.5</ele>
<speed>2.2</speed>
<course>201.5</course>
<desc>Speed 2.2 km/h Distance 0.28 km</desc>
<time>2010-02-24T17:08:34.79</time>
<name>198</name>
</trkpt>
<trkpt lat="48.941850" lon="8.659603">
<ele>384.5</ele>
<speed>2.0</speed>
<course>167.4</course>
<desc>Speed 2.0 km/h Distance 0.28 km</desc>
<time>2010-02-24T17:08:35.79</time>
<name>199</name>
</trkpt>
<trkpt lat="48.941848" lon="8.659603">
<ele>384.5</ele>
<speed>0.4</speed>
<course>190.4</course>
<desc>Speed 0.4 km/h Distance 0.28 km</desc>
<time>2010-02-24T17:08:36.78</time>
<name>200</name>
</trkpt>
<trkpt lat="48.941837" lon="8.659600">
<ele>384.5</ele>
<speed>3.2</speed>
<course>171.2</course>
<desc>Speed 3.2 km/h Distance 0.28 km</desc>
<time>2010-02-24T17:08:37.78</time>
<name>201</name>
</trkpt>
<trkpt lat="48.941817" lon="8.659605">
<ele>384.5</ele>
<speed>5.3</speed>
<course>189.0</course>
<desc>Speed 5.3 km/h Distance 0.28 km</desc>
<time>2010-02-24T17:08:38.78</time>
<name>202</name>
</trkpt>
<trkpt lat="48.941803" lon="8.659602">
<ele>384.5</ele>
<speed>3.9</speed>
<course>149.6</course>
<desc>Speed 3.9 km/h Distance 0.28 km</desc>
<time>2010-02-24T17:08:39.79</time>
<name>203</name>
</trkpt>
<trkpt lat="48.941788" lon="8.659615">
<ele>384.5</ele>
<speed>4.8</speed>
<course>177.2</course>
<desc>Speed 4.8 km/h Distance 0.28 km</desc>
<time>2010-02-24T17:08:40.79</time>
<name>204</name>
</trkpt>
<trkpt lat="48.941772" lon="8.659615">
<ele>384.5</ele>
<speed>3.2</speed>
<course>186.3</course>
<desc>Speed 3.2 km/h Distance 0.29 km</desc>
<time>2010-02-24T17:08:41.79</time>
<name>205</name>
</trkpt>
<trkpt lat="48.941760" lon="8.659613">
<ele>384.5</ele>
<speed>3.2</speed>
<course>187.4</course>
<desc>Speed 3.2 km/h Distance 0.29 km</desc>
<time>2010-02-24T17:08:42.78</time>
<name>206</name>
</trkpt>
<trkpt lat="48.941753" lon="8.659612">
<ele>384.5</ele>
<speed>2.5</speed>
<course>198.2</course>
<desc>Speed 2.5 km/h Distance 0.29 km</desc>
<time>2010-02-24T17:08:43.78</time>
<name>207</name>
</trkpt>
<trkpt lat="48.941743" lon="8.659607">
<ele>384.5</ele>
<speed>3.2</speed>
<course>196.0</course>
<desc>Speed 3.2 km/h Distance 0.29 km</desc>
<time>2010-02-24T17:08:44.78</time>
<name>208</name>
</trkpt>
<trkpt lat="48.941732" lon="8.659602">
<ele>384.5</ele>
<speed>3.1</speed>
<course>201.5</course>
<desc>Speed 3.1 km/h Distance 0.29 km</desc>
<time>2010-02-24T17:08:45.78</time>
<name>209</name>
</trkpt>
<trkpt lat="48.941723" lon="8.659597">
<ele>384.5</ele>
<speed>3.6</speed>
<course>172.3</course>
<desc>Speed 3.6 km/h Distance 0.29 km</desc>
<time>2010-02-24T17:08:46.78</time>
<name>210</name>
</trkpt>
<trkpt lat="48.941715" lon="8.659598">
<ele>384.5</ele>
<speed>2.6</speed>
<course>165.1</course>
<desc>Speed 2.6 km/h Distance 0.29 km</desc>
<time>2010-02-24T17:08:47.78</time>
<name>211</name>
</trkpt>
<trkpt lat="48.941707" lon="8.659602">
<ele>384.5</ele>
<speed>2.8</speed>
<course>196.0</course>
<desc>Speed 2.8 km/h Distance 0.29 km</desc>
<time>2010-02-24T17:08:48.78</time>
<name>212</name>
</trkpt>
<trkpt lat="48.941695" lon="8.659597">
<ele>384.5</ele>
<speed>3.0</speed>
<course>175.0</course>
<desc>Speed 3.0 km/h Distance 0.29 km</desc>
<time>2010-02-24T17:08:49.78</time>
<name>213</name>
</trkpt>
<trkpt lat="48.941687" lon="8.659598">
<ele>384.5</ele>
<speed>1.9</speed>
<course>185.0</course>
<desc>Speed 1.9 km/h Distance 0.30 km</desc>
<time>2010-02-24T17:08:50.78</time>
<name>214</name>
</trkpt>
<trkpt lat="48.941678" lon="8.659597">
<ele>384.5</ele>
<speed>2.7</speed>
<course>178.8</course>
<desc>Speed 2.7 km/h Distance 0.30 km</desc>
<time>2010-02-24T17:08:51.78</time>
<name>215</name>
</trkpt>
<trkpt lat="48.941665" lon="8.659598">
<ele>384.5</ele>
<speed>2.6</speed>
<course>162.4</course>
<desc>Speed 2.6 km/h Distance 0.30 km</desc>
<time>2010-02-24T17:08:52.78</time>
<name>216</name>
</trkpt>
<trkpt lat="48.941655" lon="8.659603">
<ele>384.5</ele>
<speed>1.4</speed>
<course>167.8</course>
<desc>Speed 1.4 km/h Distance 0.30 km</desc>
<time>2010-02-24T17:08:53.78</time>
<name>217</name>
</trkpt>
<trkpt lat="48.941640" lon="8.659608">
<ele>384.5</ele>
<speed>3.1</speed>
<course>185.3</course>
<desc>Speed 3.1 km/h Distance 0.30 km</desc>
<time>2010-02-24T17:08:54.78</time>
<name>218</name>
</trkpt>
<trkpt lat="48.941627" lon="8.659607">
<ele>384.5</ele>
<speed>2.5</speed>
<course>180.0</course>
<desc>Speed 2.5 km/h Distance 0.30 km</desc>
<time>2010-02-24T17:08:55.78</time>
<name>219</name>
</trkpt>
<trkpt lat="48.941612" lon="8.659607">
<ele>384.5</ele>
<speed>2.2</speed>
<course>170.3</course>
<desc>Speed 2.2 km/h Distance 0.30 km</desc>
<time>2010-02-24T17:08:56.78</time>
<name>220</name>
</trkpt>
<trkpt lat="48.941598" lon="8.659610">
<ele>384.5</ele>
<speed>3.8</speed>
<course>153.6</course>
<desc>Speed 3.8 km/h Distance 0.31 km</desc>
<time>2010-02-24T17:08:57.78</time>
<name>221</name>
</trkpt>
<trkpt lat="48.941592" lon="8.659615">
<ele>384.5</ele>
<speed>1.9</speed>
<course>158.5</course>
<desc>Speed 1.9 km/h Distance 0.31 km</desc>
<time>2010-02-24T17:08:58.78</time>
<name>222</name>
</trkpt>
<trkpt lat="48.941583" lon="8.659620">
<ele>384.5</ele>
<speed>2.8</speed>
<course>151.4</course>
<desc>Speed 2.8 km/h Distance 0.31 km</desc>
<time>2010-02-24T17:08:59.77</time>
<name>223</name>
</trkpt>
<trkpt lat="48.941573" lon="8.659628">
<ele>384.5</ele>
<speed>2.2</speed>
<course>176.5</course>
<desc>Speed 2.2 km/h Distance 0.31 km</desc>
<time>2010-02-24T17:09:00.78</time>
<name>224</name>
</trkpt>
<trkpt lat="48.941538" lon="8.659632">
<ele>384.5</ele>
<speed>3.2</speed>
<course>186.6</course>
<desc>Speed 3.2 km/h Distance 0.31 km</desc>
<time>2010-02-24T17:09:02.78</time>
<name>225</name>
</trkpt>
<trkpt lat="48.941528" lon="8.659630">
<ele>384.5</ele>
<speed>3.2</speed>
<course>175.6</course>
<desc>Speed 3.2 km/h Distance 0.31 km</desc>
<time>2010-02-24T17:09:03.78</time>
<name>226</name>
</trkpt>
<trkpt lat="48.941518" lon="8.659630">
<ele>384.5</ele>
<speed>2.7</speed>
<course>178.8</course>
<desc>Speed 2.7 km/h Distance 0.31 km</desc>
<time>2010-02-24T17:09:04.77</time>
<name>227</name>
</trkpt>
<trkpt lat="48.941505" lon="8.659630">
<ele>384.5</ele>
<speed>3.6</speed>
<course>187.7</course>
<desc>Speed 3.6 km/h Distance 0.32 km</desc>
<time>2010-02-24T17:09:05.77</time>
<name>228</name>
</trkpt>
<trkpt lat="48.941497" lon="8.659628">
<ele>384.5</ele>
<speed>2.7</speed>
<course>184.7</course>
<desc>Speed 2.7 km/h Distance 0.32 km</desc>
<time>2010-02-24T17:09:06.77</time>
<name>229</name>
</trkpt>
<trkpt lat="48.941485" lon="8.659627">
<ele>384.5</ele>
<speed>2.7</speed>
<course>192.2</course>
<desc>Speed 2.7 km/h Distance 0.32 km</desc>
<time>2010-02-24T17:09:07.77</time>
<name>230</name>
</trkpt>
<trkpt lat="48.941470" lon="8.659622">
<ele>384.5</ele>
<speed>3.6</speed>
<course>175.6</course>
<desc>Speed 3.6 km/h Distance 0.32 km</desc>
<time>2010-02-24T17:09:08.77</time>
<name>231</name>
</trkpt>
<trkpt lat="48.941460" lon="8.659623">
<ele>384.5</ele>
<speed>2.2</speed>
<course>187.7</course>
<desc>Speed 2.2 km/h Distance 0.32 km</desc>
<time>2010-02-24T17:09:09.77</time>
<name>232</name>
</trkpt>
<trkpt lat="48.941452" lon="8.659622">
<ele>384.5</ele>
<speed>2.6</speed>
<course>184.7</course>
<desc>Speed 2.6 km/h Distance 0.32 km</desc>
<time>2010-02-24T17:09:10.78</time>
<name>233</name>
</trkpt>
<trkpt lat="48.941440" lon="8.659620">
<ele>384.5</ele>
<speed>2.4</speed>
<course>194.9</course>
<desc>Speed 2.4 km/h Distance 0.32 km</desc>
<time>2010-02-24T17:09:11.77</time>
<name>234</name>
</trkpt>
<trkpt lat="48.941428" lon="8.659615">
<ele>384.5</ele>
<speed>2.3</speed>
<course>194.9</course>
<desc>Speed 2.3 km/h Distance 0.33 km</desc>
<time>2010-02-24T17:09:12.77</time>
<name>235</name>
</trkpt>
<trkpt lat="48.941420" lon="8.659612">
<ele>384.5</ele>
<speed>2.2</speed>
<course>203.8</course>
<desc>Speed 2.2 km/h Distance 0.33 km</desc>
<time>2010-02-24T17:09:13.77</time>
<name>236</name>
</trkpt>
<trkpt lat="48.941410" lon="8.659605">
<ele>384.5</ele>
<speed>2.1</speed>
<course>202.3</course>
<desc>Speed 2.1 km/h Distance 0.33 km</desc>
<time>2010-02-24T17:09:14.77</time>
<name>237</name>
</trkpt>
<trkpt lat="48.941397" lon="8.659597">
<ele>384.5</ele>
<speed>3.0</speed>
<course>198.2</course>
<desc>Speed 3.0 km/h Distance 0.33 km</desc>
<time>2010-02-24T17:09:15.77</time>
<name>238</name>
</trkpt>
<trkpt lat="48.941387" lon="8.659592">
<ele>384.5</ele>
<speed>1.2</speed>
<course>176.2</course>
<desc>Speed 1.2 km/h Distance 0.33 km</desc>
<time>2010-02-24T17:09:16.77</time>
<name>239</name>
</trkpt>
<trkpt lat="48.941372" lon="8.659592">
<ele>384.5</ele>
<speed>2.6</speed>
<course>175.5</course>
<desc>Speed 2.6 km/h Distance 0.33 km</desc>
<time>2010-02-24T17:09:17.77</time>
<name>240</name>
</trkpt>
<trkpt lat="48.941353" lon="8.659593">
<ele>384.5</ele>
<speed>1.7</speed>
<course>183.7</course>
<desc>Speed 1.7 km/h Distance 0.33 km</desc>
<time>2010-02-24T17:09:18.77</time>
<name>241</name>
</trkpt>
<trkpt lat="48.941303" lon="8.659588">
<ele>384.5</ele>
<speed>2.7</speed>
<course>161.2</course>
<desc>Speed 2.7 km/h Distance 0.34 km</desc>
<time>2010-02-24T17:09:20.77</time>
<name>242</name>
</trkpt>
<trkpt lat="48.941297" lon="8.659592">
<ele>384.5</ele>
<speed>1.9</speed>
<course>198.8</course>
<desc>Speed 1.9 km/h Distance 0.34 km</desc>
<time>2010-02-24T17:09:21.77</time>
<name>243</name>
</trkpt>
<trkpt lat="48.941290" lon="8.659588">
<ele>384.5</ele>
<speed>1.8</speed>
<course>205.6</course>
<desc>Speed 1.8 km/h Distance 0.34 km</desc>
<time>2010-02-24T17:09:22.77</time>
<name>244</name>
</trkpt>
<trkpt lat="48.941283" lon="8.659583">
<ele>384.5</ele>
<speed>1.3</speed>
<course>167.4</course>
<desc>Speed 1.3 km/h Distance 0.34 km</desc>
<time>2010-02-24T17:09:23.77</time>
<name>245</name>
</trkpt>
<trkpt lat="48.941278" lon="8.659585">
<ele>384.5</ele>
<speed>1.7</speed>
<course>210.1</course>
<desc>Speed 1.7 km/h Distance 0.34 km</desc>
<time>2010-02-24T17:09:24.77</time>
<name>246</name>
</trkpt>
<trkpt lat="48.941265" lon="8.659573">
<ele>384.5</ele>
<speed>4.5</speed>
<course>201.5</course>
<desc>Speed 4.5 km/h Distance 0.34 km</desc>
<time>2010-02-24T17:09:25.77</time>
<name>247</name>
</trkpt>
<trkpt lat="48.941257" lon="8.659568">
<ele>384.5</ele>
<speed>1.7</speed>
<course>185.0</course>
<desc>Speed 1.7 km/h Distance 0.34 km</desc>
<time>2010-02-24T17:09:26.77</time>
<name>248</name>
</trkpt>
<trkpt lat="48.941248" lon="8.659567">
<ele>384.5</ele>
<speed>2.6</speed>
<course>192.6</course>
<desc>Speed 2.6 km/h Distance 0.35 km</desc>
<time>2010-02-24T17:09:27.77</time>
<name>249</name>
</trkpt>
<trkpt lat="48.941247" lon="8.659565">
<ele>384.5</ele>
<speed>0.7</speed>
<course>172.6</course>
<desc>Speed 0.7 km/h Distance 0.35 km</desc>
<time>2010-02-24T17:09:28.77</time>
<name>250</name>
</trkpt>
<trkpt lat="48.941240" lon="8.659567">
<ele>384.5</ele>
<speed>1.5</speed>
<course>198.2</course>
<desc>Speed 1.5 km/h Distance 0.35 km</desc>
<time>2010-02-24T17:09:29.77</time>
<name>251</name>
</trkpt>
<trkpt lat="48.941230" lon="8.659562">
<ele>384.5</ele>
<speed>2.4</speed>
<course>202.3</course>
<desc>Speed 2.4 km/h Distance 0.35 km</desc>
<time>2010-02-24T17:09:30.77</time>
<name>252</name>
</trkpt>
<trkpt lat="48.941217" lon="8.659553">
<ele>384.5</ele>
<speed>3.1</speed>
<course>175.6</course>
<desc>Speed 3.1 km/h Distance 0.35 km</desc>
<time>2010-02-24T17:09:31.77</time>
<name>253</name>
</trkpt>
<trkpt lat="48.941207" lon="8.659555">
<ele>384.5</ele>
<speed>2.2</speed>
<course>188.1</course>
<desc>Speed 2.2 km/h Distance 0.35 km</desc>
<time>2010-02-24T17:09:32.77</time>
<name>254</name>
</trkpt>
<trkpt lat="48.941192" lon="8.659552">
<ele>384.5</ele>
<speed>2.5</speed>
<course>183.8</course>
<desc>Speed 2.5 km/h Distance 0.35 km</desc>
<time>2010-02-24T17:09:33.77</time>
<name>255</name>
</trkpt>
<trkpt lat="48.941177" lon="8.659550">
<ele>384.5</ele>
<speed>2.2</speed>
<course>177.2</course>
<desc>Speed 2.2 km/h Distance 0.35 km</desc>
<time>2010-02-24T17:09:34.77</time>
<name>256</name>
</trkpt>
<trkpt lat="48.941160" lon="8.659550">
<ele>384.5</ele>
<speed>1.7</speed>
<course>180.0</course>
<desc>Speed 1.7 km/h Distance 0.36 km</desc>
<time>2010-02-24T17:09:35.76</time>
<name>257</name>
</trkpt>
<trkpt lat="48.941138" lon="8.659550">
<ele>384.5</ele>
<speed>2.2</speed>
<course>198.2</course>
<desc>Speed 2.2 km/h Distance 0.36 km</desc>
<time>2010-02-24T17:09:36.76</time>
<name>258</name>
</trkpt>
<trkpt lat="48.941128" lon="8.659545">
<ele>384.5</ele>
<speed>1.6</speed>
<course>224.5</course>
<desc>Speed 1.6 km/h Distance 0.36 km</desc>
<time>2010-02-24T17:09:37.76</time>
<name>259</name>
</trkpt>
<trkpt lat="48.941122" lon="8.659535">
<ele>384.5</ele>
<speed>2.3</speed>
<course>213.2</course>
<desc>Speed 2.3 km/h Distance 0.36 km</desc>
<time>2010-02-24T17:09:38.77</time>
<name>260</name>
</trkpt>
<trkpt lat="48.941112" lon="8.659525">
<ele>384.5</ele>
<speed>3.2</speed>
<course>217.5</course>
<desc>Speed 3.2 km/h Distance 0.36 km</desc>
<time>2010-02-24T17:09:39.77</time>
<name>261</name>
</trkpt>
<trkpt lat="48.941102" lon="8.659513">
<ele>384.5</ele>
<speed>3.6</speed>
<course>210.4</course>
<desc>Speed 3.6 km/h Distance 0.36 km</desc>
<time>2010-02-24T17:09:40.76</time>
<name>262</name>
</trkpt>
<trkpt lat="48.941087" lon="8.659500">
<ele>384.5</ele>
<speed>3.8</speed>
<course>226.9</course>
<desc>Speed 3.8 km/h Distance 0.37 km</desc>
<time>2010-02-24T17:09:41.77</time>
<name>263</name>
</trkpt>
<trkpt lat="48.941073" lon="8.659478">
<ele>384.5</ele>
<speed>5.9</speed>
<course>235.0</course>
<desc>Speed 5.9 km/h Distance 0.37 km</desc>
<time>2010-02-24T17:09:42.77</time>
<name>264</name>
</trkpt>
<trkpt lat="48.941063" lon="8.659457">
<ele>384.5</ele>
<speed>3.7</speed>
<course>226.4</course>
<desc>Speed 3.7 km/h Distance 0.37 km</desc>
<time>2010-02-24T17:09:43.77</time>
<name>265</name>
</trkpt>
<trkpt lat="48.941055" lon="8.659443">
<ele>384.5</ele>
<speed>4.2</speed>
<course>213.2</course>
<desc>Speed 4.2 km/h Distance 0.37 km</desc>
<time>2010-02-24T17:09:44.76</time>
<name>266</name>
</trkpt>
<trkpt lat="48.941045" lon="8.659433">
<ele>384.5</ele>
<speed>3.9</speed>
<course>236.9</course>
<desc>Speed 3.9 km/h Distance 0.37 km</desc>
<time>2010-02-24T17:09:45.76</time>
<name>267</name>
</trkpt>
<trkpt lat="48.941040" lon="8.659422">
<ele>384.5</ele>
<speed>2.3</speed>
<course>232.7</course>
<desc>Speed 2.3 km/h Distance 0.37 km</desc>
<time>2010-02-24T17:09:46.77</time>
<name>268</name>
</trkpt>
<trkpt lat="48.941032" lon="8.659405">
<ele>384.5</ele>
<speed>3.6</speed>
<course>243.1</course>
<desc>Speed 3.6 km/h Distance 0.37 km</desc>
<time>2010-02-24T17:09:47.76</time>
<name>269</name>
</trkpt>
<trkpt lat="48.941023" lon="8.659380">
<ele>384.5</ele>
<speed>4.5</speed>
<course>246.5</course>
<desc>Speed 4.5 km/h Distance 0.38 km</desc>
<time>2010-02-24T17:09:48.76</time>
<name>270</name>
</trkpt>
<trkpt lat="48.941017" lon="8.659357">
<ele>384.5</ele>
<speed>3.6</speed>
<course>251.3</course>
<desc>Speed 3.6 km/h Distance 0.38 km</desc>
<time>2010-02-24T17:09:49.76</time>
<name>271</name>
</trkpt>
<trkpt lat="48.941010" lon="8.659327">
<ele>384.5</ele>
<speed>3.8</speed>
<course>244.3</course>
<desc>Speed 3.8 km/h Distance 0.38 km</desc>
<time>2010-02-24T17:09:50.76</time>
<name>272</name>
</trkpt>
<trkpt lat="48.941000" lon="8.659295">
<ele>384.5</ele>
<speed>3.7</speed>
<course>251.9</course>
<desc>Speed 3.7 km/h Distance 0.38 km</desc>
<time>2010-02-24T17:09:51.76</time>
<name>273</name>
</trkpt>
<trkpt lat="48.940995" lon="8.659272">
<ele>384.5</ele>
<speed>4.1</speed>
<course>260.4</course>
<desc>Speed 4.1 km/h Distance 0.39 km</desc>
<time>2010-02-24T17:09:52.76</time>
<name>274</name>
</trkpt>
<trkpt lat="48.940993" lon="8.659257">
<ele>384.5</ele>
<speed>2.9</speed>
<course>258.5</course>
<desc>Speed 2.9 km/h Distance 0.39 km</desc>
<time>2010-02-24T17:09:53.76</time>
<name>275</name>
</trkpt>
<trkpt lat="48.940990" lon="8.659232">
<ele>384.5</ele>
<speed>4.5</speed>
<course>249.2</course>
<desc>Speed 4.5 km/h Distance 0.39 km</desc>
<time>2010-02-24T17:09:54.76</time>
<name>276</name>
</trkpt>
<trkpt lat="48.940983" lon="8.659205">
<ele>384.5</ele>
<speed>4.4</speed>
<course>255.8</course>
<desc>Speed 4.4 km/h Distance 0.39 km</desc>
<time>2010-02-24T17:09:55.77</time>
<name>277</name>
</trkpt>
<trkpt lat="48.940980" lon="8.659185">
<ele>384.5</ele>
<speed>4.0</speed>
<course>270.0</course>
<desc>Speed 4.0 km/h Distance 0.39 km</desc>
<time>2010-02-24T17:09:56.76</time>
<name>278</name>
</trkpt>
<trkpt lat="48.940980" lon="8.659168">
<ele>384.5</ele>
<speed>2.8</speed>
<course>259.8</course>
<desc>Speed 2.8 km/h Distance 0.39 km</desc>
<time>2010-02-24T17:09:57.76</time>
<name>279</name>
</trkpt>
<trkpt lat="48.940977" lon="8.659140">
<ele>384.5</ele>
<speed>4.9</speed>
<course>277.2</course>
<desc>Speed 4.9 km/h Distance 0.40 km</desc>
<time>2010-02-24T17:09:58.76</time>
<name>280</name>
</trkpt>
<trkpt lat="48.940978" lon="8.659120">
<ele>384.5</ele>
<speed>4.7</speed>
<course>257.7</course>
<desc>Speed 4.7 km/h Distance 0.40 km</desc>
<time>2010-02-24T17:09:59.76</time>
<name>281</name>
</trkpt>
<trkpt lat="48.940975" lon="8.659097">
<ele>384.5</ele>
<speed>4.9</speed>
<course>253.1</course>
<desc>Speed 4.9 km/h Distance 0.40 km</desc>
<time>2010-02-24T17:10:00.76</time>
<name>282</name>
</trkpt>
<trkpt lat="48.940970" lon="8.659072">
<ele>384.5</ele>
<speed>5.2</speed>
<course>256.8</course>
<desc>Speed 5.2 km/h Distance 0.40 km</desc>
<time>2010-02-24T17:10:01.76</time>
<name>283</name>
</trkpt>
<trkpt lat="48.940967" lon="8.659050">
<ele>384.5</ele>
<speed>4.5</speed>
<course>321.7</course>
<desc>Speed 4.5 km/h Distance 0.40 km</desc>
<time>2010-02-24T17:10:02.76</time>
<name>284</name>
</trkpt>
<trkpt lat="48.940983" lon="8.659030">
<ele>384.5</ele>
<speed>7.9</speed>
<course>211.2</course>
<desc>Speed 7.9 km/h Distance 0.40 km</desc>
<time>2010-02-24T17:10:03.76</time>
<name>285</name>
</trkpt>
<trkpt lat="48.940962" lon="8.659010">
<ele>384.5</ele>
<speed>10.1</speed>
<course>235.3</course>
<desc>Speed 10.1 km/h Distance 0.41 km</desc>
<time>2010-02-24T17:10:04.76</time>
<name>286</name>
</trkpt>
<trkpt lat="48.940953" lon="8.658992">
<ele>384.5</ele>
<speed>5.2</speed>
<course>260.4</course>
<desc>Speed 5.2 km/h Distance 0.41 km</desc>
<time>2010-02-24T17:10:05.76</time>
<name>287</name>
</trkpt>
<trkpt lat="48.940952" lon="8.658977">
<ele>384.5</ele>
<speed>2.8</speed>
<course>247.5</course>
<desc>Speed 2.8 km/h Distance 0.41 km</desc>
<time>2010-02-24T17:10:06.76</time>
<name>288</name>
</trkpt>
<trkpt lat="48.940947" lon="8.658958">
<ele>384.5</ele>
<speed>3.7</speed>
<course>240.3</course>
<desc>Speed 3.7 km/h Distance 0.41 km</desc>
<time>2010-02-24T17:10:07.76</time>
<name>289</name>
</trkpt>
<trkpt lat="48.940937" lon="8.658932">
<ele>384.5</ele>
<speed>6.3</speed>
<course>236.3</course>
<desc>Speed 6.3 km/h Distance 0.41 km</desc>
<time>2010-02-24T17:10:08.76</time>
<name>290</name>
</trkpt>
<trkpt lat="48.940925" lon="8.658905">
<ele>384.5</ele>
<speed>5.5</speed>
<course>232.7</course>
<desc>Speed 5.5 km/h Distance 0.42 km</desc>
<time>2010-02-24T17:10:09.76</time>
<name>291</name>
</trkpt>
<trkpt lat="48.940918" lon="8.658892">
<ele>384.5</ele>
<speed>3.3</speed>
<course>246.5</course>
<desc>Speed 3.3 km/h Distance 0.42 km</desc>
<time>2010-02-24T17:10:10.77</time>
<name>292</name>
</trkpt>
<trkpt lat="48.940915" lon="8.658880">
<ele>384.5</ele>
<speed>3.1</speed>
<course>233.0</course>
<desc>Speed 3.1 km/h Distance 0.42 km</desc>
<time>2010-02-24T17:10:11.75</time>
<name>293</name>
</trkpt>
<trkpt lat="48.940912" lon="8.658873">
<ele>384.5</ele>
<speed>2.1</speed>
<course>203.8</course>
<desc>Speed 2.1 km/h Distance 0.42 km</desc>
<time>2010-02-24T17:10:12.75</time>
<name>294</name>
</trkpt>
<trkpt lat="48.940907" lon="8.658870">
<ele>384.5</ele>
<speed>2.0</speed>
<course>198.8</course>
<desc>Speed 2.0 km/h Distance 0.42 km</desc>
<time>2010-02-24T17:10:13.75</time>
<name>295</name>
</trkpt>
<trkpt lat="48.940900" lon="8.658867">
<ele>384.5</ele>
<speed>2.1</speed>
<course>180.0</course>
<desc>Speed 2.1 km/h Distance 0.42 km</desc>
<time>2010-02-24T17:10:14.75</time>
<name>296</name>
</trkpt>
<trkpt lat="48.940895" lon="8.658867">
<ele>384.5</ele>
<speed>1.5</speed>
<course>187.4</course>
<desc>Speed 1.5 km/h Distance 0.42 km</desc>
<time>2010-02-24T17:10:15.76</time>
<name>297</name>
</trkpt>
<trkpt lat="48.940888" lon="8.658865">
<ele>384.5</ele>
<speed>1.3</speed>
<course>213.2</course>
<desc>Speed 1.3 km/h Distance 0.42 km</desc>
<time>2010-02-24T17:10:16.76</time>
<name>298</name>
</trkpt>
<trkpt lat="48.940880" lon="8.658857">
<ele>384.5</ele>
<speed>2.3</speed>
<course>195.5</course>
<desc>Speed 2.3 km/h Distance 0.42 km</desc>
<time>2010-02-24T17:10:17.76</time>
<name>299</name>
</trkpt>
<trkpt lat="48.940868" lon="8.658852">
<ele>384.5</ele>
<speed>1.8</speed>
<course>207.7</course>
<desc>Speed 1.8 km/h Distance 0.42 km</desc>
<time>2010-02-24T17:10:18.75</time>
<name>300</name>
</trkpt>
<trkpt lat="48.940852" lon="8.658838">
<ele>384.5</ele>
<speed>3.4</speed>
<course>213.2</course>
<desc>Speed 3.4 km/h Distance 0.43 km</desc>
<time>2010-02-24T17:10:19.76</time>
<name>301</name>
</trkpt>
<trkpt lat="48.940842" lon="8.658828">
<ele>384.5</ele>
<speed>3.3</speed>
<course>208.6</course>
<desc>Speed 3.3 km/h Distance 0.43 km</desc>
<time>2010-02-24T17:10:20.75</time>
<name>302</name>
</trkpt>
<trkpt lat="48.940832" lon="8.658820">
<ele>384.5</ele>
<speed>3.0</speed>
<course>203.8</course>
<desc>Speed 3.0 km/h Distance 0.43 km</desc>
<time>2010-02-24T17:10:21.75</time>
<name>303</name>
</trkpt>
<trkpt lat="48.940822" lon="8.658813">
<ele>384.5</ele>
<speed>3.0</speed>
<course>187.4</course>
<desc>Speed 3.0 km/h Distance 0.43 km</desc>
<time>2010-02-24T17:10:22.75</time>
<name>304</name>
</trkpt>
<trkpt lat="48.940815" lon="8.658812">
<ele>384.5</ele>
<speed>2.2</speed>
<course>189.6</course>
<desc>Speed 2.2 km/h Distance 0.43 km</desc>
<time>2010-02-24T17:10:23.75</time>
<name>305</name>
</trkpt>
<trkpt lat="48.940807" lon="8.658810">
<ele>384.5</ele>
<speed>2.8</speed>
<course>207.9</course>
<desc>Speed 2.8 km/h Distance 0.43 km</desc>
<time>2010-02-24T17:10:24.75</time>
<name>306</name>
</trkpt>
<trkpt lat="48.940798" lon="8.658803">
<ele>384.5</ele>
<speed>2.1</speed>
<course>218.1</course>
<desc>Speed 2.1 km/h Distance 0.43 km</desc>
<time>2010-02-24T17:10:25.75</time>
<name>307</name>
</trkpt>
<trkpt lat="48.940790" lon="8.658793">
<ele>384.5</ele>
<speed>3.2</speed>
<course>217.3</course>
<desc>Speed 3.2 km/h Distance 0.43 km</desc>
<time>2010-02-24T17:10:26.75</time>
<name>308</name>
</trkpt>
<trkpt lat="48.940780" lon="8.658782">
<ele>384.5</ele>
<speed>4.4</speed>
<course>213.2</course>
<desc>Speed 4.4 km/h Distance 0.43 km</desc>
<time>2010-02-24T17:10:27.76</time>
<name>309</name>
</trkpt>
<trkpt lat="48.940773" lon="8.658775">
<ele>384.5</ele>
<speed>1.3</speed>
<course>203.8</course>
<desc>Speed 1.3 km/h Distance 0.44 km</desc>
<time>2010-02-24T17:10:28.75</time>
<name>310</name>
</trkpt>
<trkpt lat="48.940768" lon="8.658772">
<ele>384.5</ele>
<speed>0.6</speed>
<course>214.1</course>
<desc>Speed 0.6 km/h Distance 0.44 km</desc>
<time>2010-02-24T17:10:29.75</time>
<name>311</name>
</trkpt>
<trkpt lat="48.940763" lon="8.658767">
<ele>384.5</ele>
<speed>1.7</speed>
<course>214.1</course>
<desc>Speed 1.7 km/h Distance 0.44 km</desc>
<time>2010-02-24T17:10:30.75</time>
<name>312</name>
</trkpt>
<trkpt lat="48.940758" lon="8.658762">
<ele>384.5</ele>
<speed>1.7</speed>
<course>189.6</course>
<desc>Speed 1.7 km/h Distance 0.44 km</desc>
<time>2010-02-24T17:10:31.75</time>
<name>313</name>
</trkpt>
<trkpt lat="48.940750" lon="8.658760">
<ele>384.5</ele>
<speed>2.4</speed>
<course>205.2</course>
<desc>Speed 2.4 km/h Distance 0.44 km</desc>
<time>2010-02-24T17:10:32.75</time>
<name>314</name>
</trkpt>
<trkpt lat="48.940738" lon="8.658752">
<ele>384.5</ele>
<speed>3.4</speed>
<course>203.5</course>
<desc>Speed 3.4 km/h Distance 0.44 km</desc>
<time>2010-02-24T17:10:33.75</time>
<name>315</name>
</trkpt>
<trkpt lat="48.940723" lon="8.658742">
<ele>384.5</ele>
<speed>4.6</speed>
<course>213.3</course>
<desc>Speed 4.6 km/h Distance 0.44 km</desc>
<time>2010-02-24T17:10:34.75</time>
<name>316</name>
</trkpt>
<trkpt lat="48.940707" lon="8.658725">
<ele>384.5</ele>
<speed>4.0</speed>
<course>213.2</course>
<desc>Speed 4.0 km/h Distance 0.44 km</desc>
<time>2010-02-24T17:10:35.75</time>
<name>317</name>
</trkpt>
<trkpt lat="48.940697" lon="8.658715">
<ele>384.5</ele>
<speed>3.6</speed>
<course>221.2</course>
<desc>Speed 3.6 km/h Distance 0.45 km</desc>
<time>2010-02-24T17:10:36.75</time>
<name>318</name>
</trkpt>
<trkpt lat="48.940682" lon="8.658695">
<ele>384.5</ele>
<speed>4.8</speed>
<course>226.4</course>
<desc>Speed 4.8 km/h Distance 0.45 km</desc>
<time>2010-02-24T17:10:37.75</time>
<name>319</name>
</trkpt>
<trkpt lat="48.940673" lon="8.658682">
<ele>384.5</ele>
<speed>4.2</speed>
<course>213.3</course>
<desc>Speed 4.2 km/h Distance 0.45 km</desc>
<time>2010-02-24T17:10:38.75</time>
<name>320</name>
</trkpt>
<trkpt lat="48.940662" lon="8.658670">
<ele>384.5</ele>
<speed>4.1</speed>
<course>217.5</course>
<desc>Speed 4.1 km/h Distance 0.45 km</desc>
<time>2010-02-24T17:10:39.75</time>
<name>321</name>
</trkpt>
<trkpt lat="48.940652" lon="8.658658">
<ele>384.5</ele>
<speed>4.2</speed>
<course>209.8</course>
<desc>Speed 4.2 km/h Distance 0.45 km</desc>
<time>2010-02-24T17:10:40.75</time>
<name>322</name>
</trkpt>
<trkpt lat="48.940638" lon="8.658647">
<ele>384.5</ele>
<speed>4.5</speed>
<course>219.4</course>
<desc>Speed 4.5 km/h Distance 0.45 km</desc>
<time>2010-02-24T17:10:41.75</time>
<name>323</name>
</trkpt>
<trkpt lat="48.940625" lon="8.658630">
<ele>384.5</ele>
<speed>5.5</speed>
<course>224.7</course>
<desc>Speed 5.5 km/h Distance 0.46 km</desc>
<time>2010-02-24T17:10:42.75</time>
<name>324</name>
</trkpt>
<trkpt lat="48.940612" lon="8.658610">
<ele>384.5</ele>
<speed>4.9</speed>
<course>230.6</course>
<desc>Speed 4.9 km/h Distance 0.46 km</desc>
<time>2010-02-24T17:10:43.75</time>
<name>325</name>
</trkpt>
<trkpt lat="48.940600" lon="8.658588">
<ele>384.5</ele>
<speed>3.6</speed>
<course>223.2</course>
<desc>Speed 3.6 km/h Distance 0.46 km</desc>
<time>2010-02-24T17:10:44.75</time>
<name>326</name>
</trkpt>
<trkpt lat="48.940588" lon="8.658572">
<ele>384.5</ele>
<speed>4.4</speed>
<course>225.9</course>
<desc>Speed 4.4 km/h Distance 0.46 km</desc>
<time>2010-02-24T17:10:45.75</time>
<name>327</name>
</trkpt>
<trkpt lat="48.940577" lon="8.658553">
<ele>384.5</ele>
<speed>4.1</speed>
<course>223.5</course>
<desc>Speed 4.1 km/h Distance 0.46 km</desc>
<time>2010-02-24T17:10:46.75</time>
<name>328</name>
</trkpt>
<trkpt lat="48.940562" lon="8.658532">
<ele>384.5</ele>
<speed>4.8</speed>
<course>232.7</course>
<desc>Speed 4.8 km/h Distance 0.47 km</desc>
<time>2010-02-24T17:10:47.75</time>
<name>329</name>
</trkpt>
<trkpt lat="48.940550" lon="8.658508">
<ele>384.5</ele>
<speed>3.5</speed>
<course>232.7</course>
<desc>Speed 3.5 km/h Distance 0.47 km</desc>
<time>2010-02-24T17:10:48.75</time>
<name>330</name>
</trkpt>
<trkpt lat="48.940542" lon="8.658492">
<ele>384.5</ele>
<speed>4.0</speed>
<course>229.7</course>
<desc>Speed 4.0 km/h Distance 0.47 km</desc>
<time>2010-02-24T17:10:49.75</time>
<name>331</name>
</trkpt>
<trkpt lat="48.940533" lon="8.658477">
<ele>384.5</ele>
<speed>4.4</speed>
<course>226.4</course>
<desc>Speed 4.4 km/h Distance 0.47 km</desc>
<time>2010-02-24T17:10:50.74</time>
<name>332</name>
</trkpt>
<trkpt lat="48.940525" lon="8.658463">
<ele>384.5</ele>
<speed>4.1</speed>
<course>216.9</course>
<desc>Speed 4.1 km/h Distance 0.47 km</desc>
<time>2010-02-24T17:10:51.74</time>
<name>333</name>
</trkpt>
<trkpt lat="48.940513" lon="8.658450">
<ele>384.5</ele>
<speed>3.8</speed>
<course>216.6</course>
<desc>Speed 3.8 km/h Distance 0.47 km</desc>
<time>2010-02-24T17:10:52.75</time>
<name>334</name>
</trkpt>
<trkpt lat="48.940500" lon="8.658435">
<ele>384.5</ele>
<speed>4.2</speed>
<course>207.9</course>
<desc>Speed 4.2 km/h Distance 0.48 km</desc>
<time>2010-02-24T17:10:53.74</time>
<name>335</name>
</trkpt>
<trkpt lat="48.940492" lon="8.658428">
<ele>384.5</ele>
<speed>3.1</speed>
<course>213.2</course>
<desc>Speed 3.1 km/h Distance 0.48 km</desc>
<time>2010-02-24T17:10:54.74</time>
<name>336</name>
</trkpt>
<trkpt lat="48.940482" lon="8.658418">
<ele>384.5</ele>
<speed>4.0</speed>
<course>209.8</course>
<desc>Speed 4.0 km/h Distance 0.48 km</desc>
<time>2010-02-24T17:10:55.75</time>
<name>337</name>
</trkpt>
<trkpt lat="48.940468" lon="8.658407">
<ele>384.5</ele>
<speed>4.2</speed>
<course>206.4</course>
<desc>Speed 4.2 km/h Distance 0.48 km</desc>
<time>2010-02-24T17:10:56.74</time>
<name>338</name>
</trkpt>
<trkpt lat="48.940462" lon="8.658402">
<ele>384.5</ele>
<speed>2.5</speed>
<course>213.7</course>
<desc>Speed 2.5 km/h Distance 0.48 km</desc>
<time>2010-02-24T17:10:57.75</time>
<name>339</name>
</trkpt>
<trkpt lat="48.940455" lon="8.658395">
<ele>384.5</ele>
<speed>2.6</speed>
<course>227.4</course>
<desc>Speed 2.6 km/h Distance 0.48 km</desc>
<time>2010-02-24T17:10:58.74</time>
<name>340</name>
</trkpt>
<trkpt lat="48.940450" lon="8.658387">
<ele>384.5</ele>
<speed>2.3</speed>
<course>192.6</course>
<desc>Speed 2.3 km/h Distance 0.48 km</desc>
<time>2010-02-24T17:10:59.74</time>
<name>341</name>
</trkpt>
<trkpt lat="48.940447" lon="8.658385">
<ele>384.5</ele>
<speed>0.4</speed>
<course>192.6</course>
<desc>Speed 0.4 km/h Distance 0.48 km</desc>
<time>2010-02-24T17:11:00.74</time>
<name>342</name>
</trkpt>
<trkpt lat="48.940447" lon="8.658385">
<ele>384.5</ele>
<speed>0.1</speed>
<course>167.4</course>
<desc>Speed 0.1 km/h Distance 0.48 km</desc>
<time>2010-02-24T17:11:01.74</time>
<name>343</name>
</trkpt>
<trkpt lat="48.940445" lon="8.658385">
<ele>384.5</ele>
<speed>0.1</speed>
<course>167.4</course>
<desc>Speed 0.1 km/h Distance 0.48 km</desc>
<time>2010-02-24T17:11:02.74</time>
<name>344</name>
</trkpt>
<trkpt lat="48.940445" lon="8.658385">
<ele>384.5</ele>
<speed>0.2</speed>
<course>142.8</course>
<desc>Speed 0.2 km/h Distance 0.48 km</desc>
<time>2010-02-24T17:11:03.74</time>
<name>345</name>
</trkpt>
<trkpt lat="48.940443" lon="8.658387">
<ele>384.5</ele>
<speed>0.1</speed>
<course>167.4</course>
<desc>Speed 0.1 km/h Distance 0.48 km</desc>
<time>2010-02-24T17:11:04.74</time>
<name>346</name>
</trkpt>
<trkpt lat="48.940442" lon="8.658387">
<ele>384.5</ele>
<speed>0.2</speed>
<course>90.0</course>
<desc>Speed 0.2 km/h Distance 0.48 km</desc>
<time>2010-02-24T17:11:05.74</time>
<name>347</name>
</trkpt>
<trkpt lat="48.940442" lon="8.658388">
<ele>384.5</ele>
<speed>0.1</speed>
<course>90.0</course>
<desc>Speed 0.1 km/h Distance 0.48 km</desc>
<time>2010-02-24T17:11:06.74</time>
<name>348</name>
</trkpt>
<trkpt lat="48.940442" lon="8.658390">
<ele>384.5</ele>
<speed>0.3</speed>
<course>90.0</course>
<desc>Speed 0.3 km/h Distance 0.48 km</desc>
<time>2010-02-24T17:11:07.74</time>
<name>349</name>
</trkpt>
<trkpt lat="48.940442" lon="8.658390">
<ele>384.5</ele>
<speed>0.3</speed>
<course>167.4</course>
<desc>Speed 0.3 km/h Distance 0.48 km</desc>
<time>2010-02-24T17:11:08.74</time>
<name>350</name>
</trkpt>
<trkpt lat="48.940440" lon="8.658390">
<ele>384.5</ele>
<speed>0.3</speed>
<course>167.4</course>
<desc>Speed 0.3 km/h Distance 0.48 km</desc>
<time>2010-02-24T17:11:09.74</time>
<name>351</name>
</trkpt>
<trkpt lat="48.940440" lon="8.658390">
<ele>384.5</ele>
<speed>0.3</speed>
<course>150.8</course>
<desc>Speed 0.3 km/h Distance 0.48 km</desc>
<time>2010-02-24T17:11:10.75</time>
<name>352</name>
</trkpt>
<trkpt lat="48.940438" lon="8.658392">
<ele>384.5</ele>
<speed>0.3</speed>
<course>150.8</course>
<desc>Speed 0.3 km/h Distance 0.48 km</desc>
<time>2010-02-24T17:11:11.74</time>
<name>353</name>
</trkpt>
<trkpt lat="48.940438" lon="8.658392">
<ele>384.5</ele>
<speed>0.1</speed>
<course>12.6</course>
<desc>Speed 0.1 km/h Distance 0.48 km</desc>
<time>2010-02-24T17:11:12.74</time>
<name>354</name>
</trkpt>
<trkpt lat="48.940440" lon="8.658392">
<ele>384.5</ele>
<speed>0.0</speed>
<course>12.6</course>
<desc>Speed 0.0 km/h Distance 0.48 km</desc>
<time>2010-02-24T17:11:13.74</time>
<name>355</name>
</trkpt>
<trkpt lat="48.940440" lon="8.658392">
<ele>384.5</ele>
<speed>0.1</speed>
<course>12.6</course>
<desc>Speed 0.1 km/h Distance 0.48 km</desc>
<time>2010-02-24T17:11:14.74</time>
<name>356</name>
</trkpt>
<trkpt lat="48.940440" lon="8.658392">
<ele>384.5</ele>
<speed>0.5</speed>
<course>90.0</course>
<desc>Speed 0.5 km/h Distance 0.48 km</desc>
<time>2010-02-24T17:11:15.74</time>
<name>357</name>
</trkpt>
<trkpt lat="48.940440" lon="8.658393">
<ele>384.5</ele>
<speed>0.3</speed>
<course>90.0</course>
<desc>Speed 0.3 km/h Distance 0.48 km</desc>
<time>2010-02-24T17:11:16.74</time>
<name>358</name>
</trkpt>
<trkpt lat="48.940440" lon="8.658393">
<ele>384.5</ele>
<speed>0.3</speed>
<course>90.0</course>
<desc>Speed 0.3 km/h Distance 0.48 km</desc>
<time>2010-02-24T17:11:17.74</time>
<name>359</name>
</trkpt>
<trkpt lat="48.940440" lon="8.658393">
<ele>384.5</ele>
<speed>0.1</speed>
<course>90.0</course>
<desc>Speed 0.1 km/h Distance 0.48 km</desc>
<time>2010-02-24T17:11:18.74</time>
<name>360</name>
</trkpt>
<trkpt lat="48.940440" lon="8.658393">
<ele>384.5</ele>
<speed>0.1</speed>
<course>90.0</course>
<desc>Speed 0.1 km/h Distance 0.48 km</desc>
<time>2010-02-24T17:11:19.74</time>
<name>361</name>
</trkpt>
<trkpt lat="48.940440" lon="8.658393">
<ele>384.5</ele>
<speed>0.1</speed>
<course>90.0</course>
<desc>Speed 0.1 km/h Distance 0.48 km</desc>
<time>2010-02-24T17:11:20.74</time>
<name>362</name>
</trkpt>
<trkpt lat="48.940440" lon="8.658393">
<ele>384.5</ele>
<speed>0.1</speed>
<course>90.0</course>
<desc>Speed 0.1 km/h Distance 0.48 km</desc>
<time>2010-02-24T17:11:21.74</time>
<name>363</name>
</trkpt>
<trkpt lat="48.940440" lon="8.658393">
<ele>384.5</ele>
<speed>0.1</speed>
<course>90.0</course>
<desc>Speed 0.1 km/h Distance 0.48 km</desc>
<time>2010-02-24T17:11:22.74</time>
<name>364</name>
</trkpt>
<trkpt lat="48.940440" lon="8.658393">
<ele>384.5</ele>
<speed>0.1</speed>
<course>37.2</course>
<desc>Speed 0.1 km/h Distance 0.48 km</desc>
<time>2010-02-24T17:11:23.74</time>
<name>365</name>
</trkpt>
<trkpt lat="48.940442" lon="8.658395">
<ele>384.5</ele>
<speed>0.6</speed>
<course>270.0</course>
<desc>Speed 0.6 km/h Distance 0.48 km</desc>
<time>2010-02-24T17:11:24.75</time>
<name>366</name>
</trkpt>
<trkpt lat="48.940442" lon="8.658393">
<ele>384.5</ele>
<speed>0.2</speed>
<course>270.0</course>
<desc>Speed 0.2 km/h Distance 0.48 km</desc>
<time>2010-02-24T17:11:25.75</time>
<name>367</name>
</trkpt>
<trkpt lat="48.940442" lon="8.658393">
<ele>384.5</ele>
<speed>0.4</speed>
<course>270.0</course>
<desc>Speed 0.4 km/h Distance 0.48 km</desc>
<time>2010-02-24T17:11:26.75</time>
<name>368</name>
</trkpt>
<trkpt lat="48.940442" lon="8.658393">
<ele>384.5</ele>
<speed>0.4</speed>
<course>270.0</course>
<desc>Speed 0.4 km/h Distance 0.48 km</desc>
<time>2010-02-24T17:11:27.75</time>
<name>369</name>
</trkpt>
<trkpt lat="48.940442" lon="8.658393">
<ele>384.5</ele>
<speed>1.2</speed>
<course>213.4</course>
<desc>Speed 1.2 km/h Distance 0.48 km</desc>
<time>2010-02-24T17:11:28.74</time>
<name>370</name>
</trkpt>
<trkpt lat="48.940432" lon="8.658383">
<ele>384.5</ele>
<speed>3.0</speed>
<course>206.4</course>
<desc>Speed 3.0 km/h Distance 0.49 km</desc>
<time>2010-02-24T17:11:29.74</time>
<name>371</name>
</trkpt>
<trkpt lat="48.940425" lon="8.658378">
<ele>384.5</ele>
<speed>2.7</speed>
<course>66.6</course>
<desc>Speed 2.7 km/h Distance 0.49 km</desc>
<time>2010-02-24T17:11:30.75</time>
<name>372</name>
</trkpt>
<trkpt lat="48.940428" lon="8.658390">
<ele>384.0</ele>
<speed>1.7</speed>
<course>306.1</course>
<desc>Speed 1.7 km/h Distance 0.49 km</desc>
<time>2010-02-24T17:11:31.75</time>
<name>373</name>
</trkpt>
<trkpt lat="48.940430" lon="8.658387">
<ele>384.0</ele>
<speed>0.2</speed>
<course>8.1</course>
<desc>Speed 0.2 km/h Distance 0.49 km</desc>
<time>2010-02-24T17:11:32.75</time>
<name>374</name>
</trkpt>
<trkpt lat="48.940435" lon="8.658388">
<ele>384.0</ele>
<speed>0.3</speed>
<course>12.6</course>
<desc>Speed 0.3 km/h Distance 0.49 km</desc>
<time>2010-02-24T17:11:33.75</time>
<name>375</name>
</trkpt>
<trkpt lat="48.940437" lon="8.658388">
<ele>383.5</ele>
<speed>0.5</speed>
<course>53.5</course>
<desc>Speed 0.5 km/h Distance 0.49 km</desc>
<time>2010-02-24T17:11:34.75</time>
<name>376</name>
</trkpt>
<trkpt lat="48.940440" lon="8.658395">
<ele>383.5</ele>
<speed>0.7</speed>
<course>53.0</course>
<desc>Speed 0.7 km/h Distance 0.49 km</desc>
<time>2010-02-24T17:11:35.75</time>
<name>377</name>
</trkpt>
<trkpt lat="48.940443" lon="8.658402">
<ele>383.0</ele>
<speed>0.5</speed>
<course>53.0</course>
<desc>Speed 0.5 km/h Distance 0.49 km</desc>
<time>2010-02-24T17:11:36.75</time>
<name>378</name>
</trkpt>
<trkpt lat="48.940447" lon="8.658408">
<ele>383.0</ele>
<speed>0.1</speed>
<course>62.6</course>
<desc>Speed 0.1 km/h Distance 0.49 km</desc>
<time>2010-02-24T17:11:37.75</time>
<name>379</name>
</trkpt>
<trkpt lat="48.940448" lon="8.658413">
<ele>383.0</ele>
<speed>0.3</speed>
<course>90.0</course>
<desc>Speed 0.3 km/h Distance 0.49 km</desc>
<time>2010-02-24T17:11:38.75</time>
<name>380</name>
</trkpt>
<trkpt lat="48.940448" lon="8.658415">
<ele>382.5</ele>
<speed>0.1</speed>
<course>90.0</course>
<desc>Speed 0.1 km/h Distance 0.49 km</desc>
<time>2010-02-24T17:11:39.75</time>
<name>381</name>
</trkpt>
<trkpt lat="48.940448" lon="8.658417">
<ele>382.5</ele>
<speed>0.1</speed>
<course>90.0</course>
<desc>Speed 0.1 km/h Distance 0.49 km</desc>
<time>2010-02-24T17:11:40.75</time>
<name>382</name>
</trkpt>
<trkpt lat="48.940448" lon="8.658418">
<ele>382.5</ele>
<speed>0.2</speed>
<course>90.0</course>
<desc>Speed 0.2 km/h Distance 0.49 km</desc>
<time>2010-02-24T17:11:41.75</time>
<name>383</name>
</trkpt>
<trkpt lat="48.940448" lon="8.658420">
<ele>382.0</ele>
<speed>0.2</speed>
<course>90.0</course>
<desc>Speed 0.2 km/h Distance 0.49 km</desc>
<time>2010-02-24T17:11:42.75</time>
<name>384</name>
</trkpt>
<trkpt lat="48.940448" lon="8.658422">
<ele>382.0</ele>
<speed>0.1</speed>
<course>90.0</course>
<desc>Speed 0.1 km/h Distance 0.49 km</desc>
<time>2010-02-24T17:11:43.74</time>
<name>385</name>
</trkpt>
<trkpt lat="48.940448" lon="8.658422">
<ele>382.0</ele>
<speed>0.2</speed>
<course>297.4</course>
<desc>Speed 0.2 km/h Distance 0.49 km</desc>
<time>2010-02-24T17:11:44.74</time>
<name>386</name>
</trkpt>
<trkpt lat="48.940450" lon="8.658417">
<ele>381.5</ele>
<speed>1.2</speed>
<course>192.6</course>
<desc>Speed 1.2 km/h Distance 0.49 km</desc>
<time>2010-02-24T17:11:45.74</time>
<name>387</name>
</trkpt>
<trkpt lat="48.940447" lon="8.658415">
<ele>381.0</ele>
<speed>0.2</speed>
<course>12.6</course>
<desc>Speed 0.2 km/h Distance 0.49 km</desc>
<time>2010-02-24T17:11:46.74</time>
<name>388</name>
</trkpt>
<trkpt lat="48.940448" lon="8.658415">
<ele>381.0</ele>
<speed>0.2</speed>
<course>12.6</course>
<desc>Speed 0.2 km/h Distance 0.49 km</desc>
<time>2010-02-24T17:11:47.74</time>
<name>389</name>
</trkpt>
<trkpt lat="48.940448" lon="8.658415">
<ele>380.5</ele>
<speed>0.1</speed>
<course>12.6</course>
<desc>Speed 0.1 km/h Distance 0.49 km</desc>
<time>2010-02-24T17:11:48.74</time>
<name>390</name>
</trkpt>
<trkpt lat="48.940448" lon="8.658415">
<ele>380.5</ele>
<speed>0.1</speed>
<course>142.8</course>
<desc>Speed 0.1 km/h Distance 0.49 km</desc>
<time>2010-02-24T17:11:49.74</time>
<name>391</name>
</trkpt>
<trkpt lat="48.940447" lon="8.658417">
<ele>380.5</ele>
<speed>0.1</speed>
<course>167.4</course>
<desc>Speed 0.1 km/h Distance 0.49 km</desc>
<time>2010-02-24T17:11:50.74</time>
<name>392</name>
</trkpt>
<trkpt lat="48.940443" lon="8.658418">
<ele>380.0</ele>
<speed>0.2</speed>
<course>167.4</course>
<desc>Speed 0.2 km/h Distance 0.49 km</desc>
<time>2010-02-24T17:11:51.74</time>
<name>393</name>
</trkpt>
<trkpt lat="48.940443" lon="8.658418">
<ele>380.0</ele>
<speed>0.2</speed>
<course>142.8</course>
<desc>Speed 0.2 km/h Distance 0.49 km</desc>
<time>2010-02-24T17:11:52.74</time>
<name>394</name>
</trkpt>
<trkpt lat="48.940442" lon="8.658420">
<ele>379.5</ele>
<speed>0.2</speed>
<course>90.0</course>
<desc>Speed 0.2 km/h Distance 0.49 km</desc>
<time>2010-02-24T17:11:53.74</time>
<name>395</name>
</trkpt>
<trkpt lat="48.940442" lon="8.658422">
<ele>379.5</ele>
<speed>0.1</speed>
<course>90.0</course>
<desc>Speed 0.1 km/h Distance 0.49 km</desc>
<time>2010-02-24T17:11:54.74</time>
<name>396</name>
</trkpt>
<trkpt lat="48.940442" lon="8.658422">
<ele>379.5</ele>
<speed>0.3</speed>
<course>90.0</course>
<desc>Speed 0.3 km/h Distance 0.49 km</desc>
<time>2010-02-24T17:11:55.74</time>
<name>397</name>
</trkpt>
<trkpt lat="48.940442" lon="8.658422">
<ele>379.5</ele>
<speed>0.3</speed>
<course>90.0</course>
<desc>Speed 0.3 km/h Distance 0.49 km</desc>
<time>2010-02-24T17:11:56.74</time>
<name>398</name>
</trkpt>
<trkpt lat="48.940442" lon="8.658422">
<ele>379.0</ele>
<speed>0.3</speed>
<course>90.0</course>
<desc>Speed 0.3 km/h Distance 0.49 km</desc>
<time>2010-02-24T17:11:57.74</time>
<name>399</name>
</trkpt>
<trkpt lat="48.940442" lon="8.658422">
<ele>379.0</ele>
<speed>0.2</speed>
<course>90.0</course>
<desc>Speed 0.2 km/h Distance 0.49 km</desc>
<time>2010-02-24T17:11:58.76</time>
<name>400</name>
</trkpt>
<trkpt lat="48.940442" lon="8.658422">
<ele>379.0</ele>
<speed>0.2</speed>
<course>251.3</course>
<desc>Speed 0.2 km/h Distance 0.49 km</desc>
<time>2010-02-24T17:11:59.74</time>
<name>401</name>
</trkpt>
<trkpt lat="48.940438" lon="8.658407">
<ele>379.0</ele>
<speed>4.0</speed>
<course>251.3</course>
<desc>Speed 4.0 km/h Distance 0.49 km</desc>
<time>2010-02-24T17:12:00.74</time>
<name>402</name>
</trkpt>
<trkpt lat="48.940438" lon="8.658407">
<ele>379.0</ele>
<speed>0.4</speed>
<course>251.3</course>
<desc>Speed 0.4 km/h Distance 0.49 km</desc>
<time>2010-02-24T17:12:01.76</time>
<name>403</name>
</trkpt>
<trkpt lat="48.940438" lon="8.658407">
<ele>379.0</ele>
<speed>0.2</speed>
<course>142.8</course>
<desc>Speed 0.2 km/h Distance 0.49 km</desc>
<time>2010-02-24T17:12:02.73</time>
<name>404</name>
</trkpt>
<trkpt lat="48.940437" lon="8.658408">
<ele>378.5</ele>
<speed>0.4</speed>
<course>142.8</course>
<desc>Speed 0.4 km/h Distance 0.49 km</desc>
<time>2010-02-24T17:12:03.73</time>
<name>405</name>
</trkpt>
<trkpt lat="48.940437" lon="8.658408">
<ele>378.5</ele>
<speed>0.4</speed>
<course>232.8</course>
<desc>Speed 0.4 km/h Distance 0.49 km</desc>
<time>2010-02-24T17:12:04.76</time>
<name>406</name>
</trkpt>
<trkpt lat="48.940430" lon="8.658395">
<ele>377.5</ele>
<speed>3.3</speed>
<course>104.1</course>
<desc>Speed 3.3 km/h Distance 0.50 km</desc>
<time>2010-02-24T17:12:05.73</time>
<name>407</name>
</trkpt>
<trkpt lat="48.940428" lon="8.658405">
<ele>377.0</ele>
<speed>3.1</speed>
<course>167.4</course>
<desc>Speed 3.1 km/h Distance 0.50 km</desc>
<time>2010-02-24T17:12:06.73</time>
<name>408</name>
</trkpt>
<trkpt lat="48.940427" lon="8.658405">
<ele>377.0</ele>
<speed>0.5</speed>
<course>167.4</course>
<desc>Speed 0.5 km/h Distance 0.50 km</desc>
<time>2010-02-24T17:12:07.74</time>
<name>409</name>
</trkpt>
<trkpt lat="48.940427" lon="8.658405">
<ele>376.5</ele>
<speed>0.7</speed>
<course>12.6</course>
<desc>Speed 0.7 km/h Distance 0.50 km</desc>
<time>2010-02-24T17:12:08.76</time>
<name>410</name>
</trkpt>
<trkpt lat="48.940430" lon="8.658405">
<ele>376.5</ele>
<speed>0.4</speed>
<course>12.6</course>
<desc>Speed 0.4 km/h Distance 0.50 km</desc>
<time>2010-02-24T17:12:09.75</time>
<name>411</name>
</trkpt>
<trkpt lat="48.940430" lon="8.658405">
<ele>376.5</ele>
<speed>0.1</speed>
<course>12.6</course>
<desc>Speed 0.1 km/h Distance 0.50 km</desc>
<time>2010-02-24T17:12:10.74</time>
<name>412</name>
</trkpt>
<trkpt lat="48.940430" lon="8.658405">
<ele>376.0</ele>
<speed>0.6</speed>
<course>37.2</course>
<desc>Speed 0.6 km/h Distance 0.50 km</desc>
<time>2010-02-24T17:12:11.76</time>
<name>413</name>
</trkpt>
<trkpt lat="48.940432" lon="8.658407">
<ele>375.5</ele>
<speed>0.3</speed>
<course>37.2</course>
<desc>Speed 0.3 km/h Distance 0.50 km</desc>
<time>2010-02-24T17:12:12.73</time>
<name>414</name>
</trkpt>
<trkpt lat="48.940432" lon="8.658407">
<ele>375.5</ele>
<speed>0.1</speed>
<course>37.2</course>
<desc>Speed 0.1 km/h Distance 0.50 km</desc>
<time>2010-02-24T17:12:13.74</time>
<name>415</name>
</trkpt>
<trkpt lat="48.940432" lon="8.658407">
<ele>375.0</ele>
<speed>0.4</speed>
<course>217.2</course>
<desc>Speed 0.4 km/h Distance 0.50 km</desc>
<time>2010-02-24T17:12:14.74</time>
<name>416</name>
</trkpt>
<trkpt lat="48.940430" lon="8.658405">
<ele>374.5</ele>
<speed>0.8</speed>
<course>227.8</course>
<desc>Speed 0.8 km/h Distance 0.50 km</desc>
<time>2010-02-24T17:12:15.74</time>
<name>417</name>
</trkpt>
<trkpt lat="48.940425" lon="8.658397">
<ele>374.5</ele>
<speed>2.8</speed>
<course>171.9</course>
<desc>Speed 2.8 km/h Distance 0.50 km</desc>
<time>2010-02-24T17:12:16.74</time>
<name>418</name>
</trkpt>
<trkpt lat="48.940420" lon="8.658397">
<ele>374.5</ele>
<speed>2.4</speed>
<course>171.9</course>
<desc>Speed 2.4 km/h Distance 0.50 km</desc>
<time>2010-02-24T17:12:17.73</time>
<name>419</name>
</trkpt>
<trkpt lat="48.940420" lon="8.658397">
<ele>373.5</ele>
<speed>0.8</speed>
<course>171.9</course>
<desc>Speed 0.8 km/h Distance 0.50 km</desc>
<time>2010-02-24T17:12:18.73</time>
<name>420</name>
</trkpt>
<trkpt lat="48.940420" lon="8.658397">
<ele>373.0</ele>
<speed>0.2</speed>
<course>171.9</course>
<desc>Speed 0.2 km/h Distance 0.50 km</desc>
<time>2010-02-24T17:12:19.74</time>
<name>421</name>
</trkpt>
<trkpt lat="48.940420" lon="8.658397">
<ele>372.5</ele>
<speed>0.1</speed>
<course>116.6</course>
<desc>Speed 0.1 km/h Distance 0.50 km</desc>
<time>2010-02-24T17:12:20.74</time>
<name>422</name>
</trkpt>
<trkpt lat="48.940418" lon="8.658402">
<ele>371.0</ele>
<speed>2.2</speed>
<course>249.1</course>
<desc>Speed 2.2 km/h Distance 0.50 km</desc>
<time>2010-02-24T17:12:21.74</time>
<name>423</name>
</trkpt>
<trkpt lat="48.940417" lon="8.658395">
<ele>369.0</ele>
<speed>2.2</speed>
<course>219.4</course>
<desc>Speed 2.2 km/h Distance 0.50 km</desc>
<time>2010-02-24T17:12:22.74</time>
<name>424</name>
</trkpt>
<trkpt lat="48.940410" lon="8.658387">
<ele>368.0</ele>
<speed>4.0</speed>
<course>246.5</course>
<desc>Speed 4.0 km/h Distance 0.50 km</desc>
<time>2010-02-24T17:12:23.74</time>
<name>425</name>
</trkpt>
<trkpt lat="48.940407" lon="8.658375">
<ele>366.5</ele>
<speed>4.1</speed>
<course>249.1</course>
<desc>Speed 4.1 km/h Distance 0.50 km</desc>
<time>2010-02-24T17:12:24.74</time>
<name>426</name>
</trkpt>
<trkpt lat="48.940403" lon="8.658362">
<ele>365.5</ele>
<speed>4.7</speed>
<course>224.5</course>
<desc>Speed 4.7 km/h Distance 0.50 km</desc>
<time>2010-02-24T17:12:25.74</time>
<name>427</name>
</trkpt>
<trkpt lat="48.940400" lon="8.658357">
<ele>364.5</ele>
<speed>4.7</speed>
<course>217.2</course>
<desc>Speed 4.7 km/h Distance 0.50 km</desc>
<time>2010-02-24T17:12:26.74</time>
<name>428</name>
</trkpt>
<trkpt lat="48.940398" lon="8.658355">
<ele>364.0</ele>
<speed>4.7</speed>
<course>270.0</course>
<desc>Speed 4.7 km/h Distance 0.50 km</desc>
<time>2010-02-24T17:12:27.74</time>
<name>429</name>
</trkpt>
<trkpt lat="48.940398" lon="8.658353">
<ele>363.0</ele>
<speed>4.0</speed>
<course>270.0</course>
<desc>Speed 4.0 km/h Distance 0.50 km</desc>
<time>2010-02-24T17:12:28.74</time>
<name>430</name>
</trkpt>
<trkpt lat="48.940398" lon="8.658352">
<ele>362.0</ele>
<speed>4.4</speed>
<course>124.3</course>
<desc>Speed 4.4 km/h Distance 0.50 km</desc>
<time>2010-02-24T17:12:29.74</time>
<name>431</name>
</trkpt>
<trkpt lat="48.940397" lon="8.658355">
<ele>362.0</ele>
<speed>4.6</speed>
<course>221.2</course>
<desc>Speed 4.6 km/h Distance 0.50 km</desc>
<time>2010-02-24T17:12:30.74</time>
<name>432</name>
</trkpt>
<trkpt lat="48.940387" lon="8.658342">
<ele>362.0</ele>
<speed>4.7</speed>
<course>221.2</course>
<desc>Speed 4.7 km/h Distance 0.51 km</desc>
<time>2010-02-24T17:12:31.74</time>
<name>433</name>
</trkpt>
<trkpt lat="48.940377" lon="8.658328">
<ele>362.0</ele>
<speed>5.0</speed>
<course>209.4</course>
<desc>Speed 5.0 km/h Distance 0.51 km</desc>
<time>2010-02-24T17:12:32.73</time>
<name>434</name>
</trkpt>
<trkpt lat="48.940365" lon="8.658318">
<ele>361.5</ele>
<speed>5.3</speed>
<course>200.6</course>
<desc>Speed 5.3 km/h Distance 0.51 km</desc>
<time>2010-02-24T17:12:33.74</time>
<name>435</name>
</trkpt>
<trkpt lat="48.940353" lon="8.658312">
<ele>361.0</ele>
<speed>5.1</speed>
<course>198.2</course>
<desc>Speed 5.1 km/h Distance 0.51 km</desc>
<time>2010-02-24T17:12:34.73</time>
<name>436</name>
</trkpt>
<trkpt lat="48.940343" lon="8.658307">
<ele>360.0</ele>
<speed>5.0</speed>
<course>201.5</course>
<desc>Speed 5.0 km/h Distance 0.51 km</desc>
<time>2010-02-24T17:12:35.73</time>
<name>437</name>
</trkpt>
<trkpt lat="48.940335" lon="8.658302">
<ele>359.5</ele>
<speed>4.9</speed>
<course>172.6</course>
<desc>Speed 4.9 km/h Distance 0.51 km</desc>
<time>2010-02-24T17:12:36.73</time>
<name>438</name>
</trkpt>
<trkpt lat="48.940328" lon="8.658303">
<ele>359.5</ele>
<speed>4.7</speed>
<course>201.5</course>
<desc>Speed 4.7 km/h Distance 0.51 km</desc>
<time>2010-02-24T17:12:37.73</time>
<name>439</name>
</trkpt>
<trkpt lat="48.940320" lon="8.658298">
<ele>359.5</ele>
<speed>4.2</speed>
<course>175.6</course>
<desc>Speed 4.2 km/h Distance 0.51 km</desc>
<time>2010-02-24T17:12:38.74</time>
<name>440</name>
</trkpt>
<trkpt lat="48.940310" lon="8.658298">
<ele>359.5</ele>
<speed>4.4</speed>
<course>219.4</course>
<desc>Speed 4.4 km/h Distance 0.52 km</desc>
<time>2010-02-24T17:12:39.73</time>
<name>441</name>
</trkpt>
<trkpt lat="48.940303" lon="8.658290">
<ele>359.5</ele>
<speed>3.6</speed>
<course>167.4</course>
<desc>Speed 3.6 km/h Distance 0.52 km</desc>
<time>2010-02-24T17:12:40.73</time>
<name>442</name>
</trkpt>
<trkpt lat="48.940298" lon="8.658292">
<ele>359.0</ele>
<speed>1.8</speed>
<course>212.3</course>
<desc>Speed 1.8 km/h Distance 0.52 km</desc>
<time>2010-02-24T17:12:41.73</time>
<name>443</name>
</trkpt>
<trkpt lat="48.940293" lon="8.658287">
<ele>359.0</ele>
<speed>2.2</speed>
<course>252.9</course>
<desc>Speed 2.2 km/h Distance 0.52 km</desc>
<time>2010-02-24T17:12:42.73</time>
<name>444</name>
</trkpt>
<trkpt lat="48.940292" lon="8.658278">
<ele>359.0</ele>
<speed>3.4</speed>
<course>222.6</course>
<desc>Speed 3.4 km/h Distance 0.52 km</desc>
<time>2010-02-24T17:12:43.73</time>
<name>445</name>
</trkpt>
<trkpt lat="48.940283" lon="8.658267">
<ele>359.0</ele>
<speed>4.3</speed>
<course>192.6</course>
<desc>Speed 4.3 km/h Distance 0.52 km</desc>
<time>2010-02-24T17:12:44.73</time>
<name>446</name>
</trkpt>
<trkpt lat="48.940278" lon="8.658265">
<ele>358.5</ele>
<speed>4.5</speed>
<course>146.3</course>
<desc>Speed 4.5 km/h Distance 0.52 km</desc>
<time>2010-02-24T17:12:45.73</time>
<name>447</name>
</trkpt>
<trkpt lat="48.940275" lon="8.658268">
<ele>358.0</ele>
<speed>3.8</speed>
<course>209.4</course>
<desc>Speed 3.8 km/h Distance 0.52 km</desc>
<time>2010-02-24T17:12:46.73</time>
<name>448</name>
</trkpt>
<trkpt lat="48.940263" lon="8.658258">
<ele>358.0</ele>
<speed>4.8</speed>
<course>213.2</course>
<desc>Speed 4.8 km/h Distance 0.52 km</desc>
<time>2010-02-24T17:12:47.73</time>
<name>449</name>
</trkpt>
<trkpt lat="48.940255" lon="8.658250">
<ele>358.0</ele>
<speed>4.7</speed>
<course>207.9</course>
<desc>Speed 4.7 km/h Distance 0.52 km</desc>
<time>2010-02-24T17:12:48.73</time>
<name>450</name>
</trkpt>
<trkpt lat="48.940247" lon="8.658243">
<ele>357.0</ele>
<speed>4.5</speed>
<course>206.4</course>
<desc>Speed 4.5 km/h Distance 0.52 km</desc>
<time>2010-02-24T17:12:49.73</time>
<name>451</name>
</trkpt>
<trkpt lat="48.940240" lon="8.658238">
<ele>356.5</ele>
<speed>4.5</speed>
<course>206.4</course>
<desc>Speed 4.5 km/h Distance 0.52 km</desc>
<time>2010-02-24T17:12:50.73</time>
<name>452</name>
</trkpt>
<trkpt lat="48.940233" lon="8.658233">
<ele>355.5</ele>
<speed>4.3</speed>
<course>219.4</course>
<desc>Speed 4.3 km/h Distance 0.53 km</desc>
<time>2010-02-24T17:12:51.73</time>
<name>453</name>
</trkpt>
<trkpt lat="48.940227" lon="8.658225">
<ele>354.0</ele>
<speed>4.9</speed>
<course>201.5</course>
<desc>Speed 4.9 km/h Distance 0.53 km</desc>
<time>2010-02-24T17:12:52.73</time>
<name>454</name>
</trkpt>
<trkpt lat="48.940218" lon="8.658220">
<ele>353.0</ele>
<speed>3.7</speed>
<course>222.6</course>
<desc>Speed 3.7 km/h Distance 0.53 km</desc>
<time>2010-02-24T17:12:53.73</time>
<name>455</name>
</trkpt>
<trkpt lat="48.940210" lon="8.658208">
<ele>353.0</ele>
<speed>4.3</speed>
<course>218.6</course>
<desc>Speed 4.3 km/h Distance 0.53 km</desc>
<time>2010-02-24T17:12:54.73</time>
<name>456</name>
</trkpt>
<trkpt lat="48.940202" lon="8.658198">
<ele>353.5</ele>
<speed>4.2</speed>
<course>219.4</course>
<desc>Speed 4.2 km/h Distance 0.53 km</desc>
<time>2010-02-24T17:12:55.73</time>
<name>457</name>
</trkpt>
<trkpt lat="48.940195" lon="8.658190">
<ele>353.0</ele>
<speed>4.3</speed>
<course>221.4</course>
<desc>Speed 4.3 km/h Distance 0.53 km</desc>
<time>2010-02-24T17:12:56.73</time>
<name>458</name>
</trkpt>
<trkpt lat="48.940190" lon="8.658183">
<ele>352.5</ele>
<speed>2.6</speed>
<course>270.0</course>
<desc>Speed 2.6 km/h Distance 0.53 km</desc>
<time>2010-02-24T17:12:57.73</time>
<name>459</name>
</trkpt>
<trkpt lat="48.940190" lon="8.658177">
<ele>352.5</ele>
<speed>1.9</speed>
<course>238.6</course>
<desc>Speed 1.9 km/h Distance 0.53 km</desc>
<time>2010-02-24T17:12:58.73</time>
<name>460</name>
</trkpt>
<trkpt lat="48.940187" lon="8.658168">
<ele>352.0</ele>
<speed>2.6</speed>
<course>224.5</course>
<desc>Speed 2.6 km/h Distance 0.53 km</desc>
<time>2010-02-24T17:12:59.73</time>
<name>461</name>
</trkpt>
<trkpt lat="48.940180" lon="8.658158">
<ele>351.0</ele>
<speed>3.3</speed>
<course>207.9</course>
<desc>Speed 3.3 km/h Distance 0.53 km</desc>
<time>2010-02-24T17:13:00.73</time>
<name>462</name>
</trkpt>
<trkpt lat="48.940172" lon="8.658152">
<ele>351.0</ele>
<speed>4.4</speed>
<course>224.5</course>
<desc>Speed 4.4 km/h Distance 0.54 km</desc>
<time>2010-02-24T17:13:01.73</time>
<name>463</name>
</trkpt>
<trkpt lat="48.940165" lon="8.658142">
<ele>350.5</ele>
<speed>4.2</speed>
<course>224.5</course>
<desc>Speed 4.2 km/h Distance 0.54 km</desc>
<time>2010-02-24T17:13:02.72</time>
<name>464</name>
</trkpt>
<trkpt lat="48.940162" lon="8.658137">
<ele>349.0</ele>
<speed>3.0</speed>
<course>213.2</course>
<desc>Speed 3.0 km/h Distance 0.54 km</desc>
<time>2010-02-24T17:13:03.73</time>
<name>465</name>
</trkpt>
<trkpt lat="48.940152" lon="8.658127">
<ele>348.5</ele>
<speed>4.6</speed>
<course>213.2</course>
<desc>Speed 4.6 km/h Distance 0.54 km</desc>
<time>2010-02-24T17:13:04.72</time>
<name>466</name>
</trkpt>
<trkpt lat="48.940143" lon="8.658118">
<ele>347.0</ele>
<speed>4.3</speed>
<course>207.9</course>
<desc>Speed 4.3 km/h Distance 0.54 km</desc>
<time>2010-02-24T17:13:05.72</time>
<name>467</name>
</trkpt>
<trkpt lat="48.940135" lon="8.658112">
<ele>346.5</ele>
<speed>4.2</speed>
<course>213.2</course>
<desc>Speed 4.2 km/h Distance 0.54 km</desc>
<time>2010-02-24T17:13:06.73</time>
<name>468</name>
</trkpt>
<trkpt lat="48.940128" lon="8.658105">
<ele>345.0</ele>
<speed>4.3</speed>
<course>190.4</course>
<desc>Speed 4.3 km/h Distance 0.54 km</desc>
<time>2010-02-24T17:13:07.72</time>
<name>469</name>
</trkpt>
<trkpt lat="48.940117" lon="8.658102">
<ele>344.5</ele>
<speed>4.5</speed>
<course>213.5</course>
<desc>Speed 4.5 km/h Distance 0.54 km</desc>
<time>2010-02-24T17:13:08.72</time>
<name>470</name>
</trkpt>
<trkpt lat="48.940108" lon="8.658093">
<ele>344.0</ele>
<speed>4.3</speed>
<course>206.4</course>
<desc>Speed 4.3 km/h Distance 0.54 km</desc>
<time>2010-02-24T17:13:09.72</time>
<name>471</name>
</trkpt>
<trkpt lat="48.940102" lon="8.658088">
<ele>342.5</ele>
<speed>3.7</speed>
<course>146.8</course>
<desc>Speed 3.7 km/h Distance 0.54 km</desc>
<time>2010-02-24T17:13:10.73</time>
<name>472</name>
</trkpt>
<trkpt lat="48.940092" lon="8.658098">
<ele>341.5</ele>
<speed>3.9</speed>
<course>157.4</course>
<desc>Speed 3.9 km/h Distance 0.55 km</desc>
<time>2010-02-24T17:13:11.72</time>
<name>473</name>
</trkpt>
<trkpt lat="48.940078" lon="8.658107">
<ele>339.5</ele>
<speed>4.8</speed>
<course>161.8</course>
<desc>Speed 4.8 km/h Distance 0.55 km</desc>
<time>2010-02-24T17:13:12.72</time>
<name>474</name>
</trkpt>
<trkpt lat="48.940068" lon="8.658112">
<ele>338.0</ele>
<speed>1.8</speed>
<course>142.8</course>
<desc>Speed 1.8 km/h Distance 0.55 km</desc>
<time>2010-02-24T17:13:13.72</time>
<name>475</name>
</trkpt>
<trkpt lat="48.940067" lon="8.658113">
<ele>337.5</ele>
<speed>0.9</speed>
<course>213.7</course>
<desc>Speed 0.9 km/h Distance 0.55 km</desc>
<time>2010-02-24T17:13:14.72</time>
<name>476</name>
</trkpt>
<trkpt lat="48.940060" lon="8.658107">
<ele>337.5</ele>
<speed>3.3</speed>
<course>237.1</course>
<desc>Speed 3.3 km/h Distance 0.55 km</desc>
<time>2010-02-24T17:13:15.72</time>
<name>477</name>
</trkpt>
<trkpt lat="48.940055" lon="8.658095">
<ele>337.5</ele>
<speed>3.7</speed>
<course>259.3</course>
<desc>Speed 3.7 km/h Distance 0.55 km</desc>
<time>2010-02-24T17:13:16.72</time>
<name>478</name>
</trkpt>
<trkpt lat="48.940053" lon="8.658082">
<ele>337.5</ele>
<speed>4.0</speed>
<course>233.0</course>
<desc>Speed 4.0 km/h Distance 0.55 km</desc>
<time>2010-02-24T17:13:17.72</time>
<name>479</name>
</trkpt>
<trkpt lat="48.940050" lon="8.658075">
<ele>337.0</ele>
<speed>2.8</speed>
<course>259.2</course>
<desc>Speed 2.8 km/h Distance 0.55 km</desc>
<time>2010-02-24T17:13:18.71</time>
<name>480</name>
</trkpt>
<trkpt lat="48.940048" lon="8.658062">
<ele>336.5</ele>
<speed>3.2</speed>
<course>259.3</course>
<desc>Speed 3.2 km/h Distance 0.55 km</desc>
<time>2010-02-24T17:13:19.72</time>
<name>481</name>
</trkpt>
<trkpt lat="48.940047" lon="8.658048">
<ele>335.0</ele>
<speed>4.0</speed>
<course>232.8</course>
<desc>Speed 4.0 km/h Distance 0.55 km</desc>
<time>2010-02-24T17:13:20.72</time>
<name>482</name>
</trkpt>
<trkpt lat="48.940042" lon="8.658038">
<ele>334.5</ele>
<speed>4.0</speed>
<course>207.9</course>
<desc>Speed 4.0 km/h Distance 0.56 km</desc>
<time>2010-02-24T17:13:21.71</time>
<name>483</name>
</trkpt>
<trkpt lat="48.940033" lon="8.658032">
<ele>334.5</ele>
<speed>3.9</speed>
<course>203.8</course>
<desc>Speed 3.9 km/h Distance 0.56 km</desc>
<time>2010-02-24T17:13:22.71</time>
<name>484</name>
</trkpt>
<trkpt lat="48.940023" lon="8.658025">
<ele>333.5</ele>
<speed>4.1</speed>
<course>207.9</course>
<desc>Speed 4.1 km/h Distance 0.56 km</desc>
<time>2010-02-24T17:13:23.72</time>
<name>485</name>
</trkpt>
<trkpt lat="48.940015" lon="8.658018">
<ele>333.0</ele>
<speed>4.2</speed>
<course>213.2</course>
<desc>Speed 4.2 km/h Distance 0.56 km</desc>
<time>2010-02-24T17:13:24.72</time>
<name>486</name>
</trkpt>
<trkpt lat="48.940005" lon="8.658008">
<ele>332.5</ele>
<speed>4.5</speed>
<course>227.8</course>
<desc>Speed 4.5 km/h Distance 0.56 km</desc>
<time>2010-02-24T17:13:25.72</time>
<name>487</name>
</trkpt>
<trkpt lat="48.940000" lon="8.658000">
<ele>331.5</ele>
<speed>3.2</speed>
<course>227.4</course>
<desc>Speed 3.2 km/h Distance 0.56 km</desc>
<time>2010-02-24T17:13:26.72</time>
<name>488</name>
</trkpt>
<trkpt lat="48.939995" lon="8.657992">
<ele>331.0</ele>
<speed>3.1</speed>
<course>220.9</course>
<desc>Speed 3.1 km/h Distance 0.56 km</desc>
<time>2010-02-24T17:13:27.72</time>
<name>489</name>
</trkpt>
<trkpt lat="48.939990" lon="8.657985">
<ele>330.0</ele>
<speed>3.5</speed>
<course>231.9</course>
<desc>Speed 3.5 km/h Distance 0.56 km</desc>
<time>2010-02-24T17:13:28.72</time>
<name>490</name>
</trkpt>
<trkpt lat="48.939987" lon="8.657978">
<ele>330.5</ele>
<speed>2.4</speed>
<course>334.5</course>
<desc>Speed 2.4 km/h Distance 0.56 km</desc>
<time>2010-02-24T17:13:29.71</time>
<name>491</name>
</trkpt>
<trkpt lat="48.940005" lon="8.657965">
<ele>331.5</ele>
<speed>7.6</speed>
<course>270.0</course>
<desc>Speed 7.6 km/h Distance 0.56 km</desc>
<time>2010-02-24T17:13:30.71</time>
<name>492</name>
</trkpt>
<trkpt lat="48.940005" lon="8.657962">
<ele>330.5</ele>
<speed>0.8</speed>
<course>37.2</course>
<desc>Speed 0.8 km/h Distance 0.57 km</desc>
<time>2010-02-24T17:13:31.72</time>
<name>493</name>
</trkpt>
<trkpt lat="48.940007" lon="8.657963">
<ele>330.5</ele>
<speed>0.4</speed>
<course>167.4</course>
<desc>Speed 0.4 km/h Distance 0.57 km</desc>
<time>2010-02-24T17:13:32.72</time>
<name>494</name>
</trkpt>
<trkpt lat="48.940002" lon="8.657965">
<ele>330.5</ele>
<speed>1.7</speed>
<course>233.0</course>
<desc>Speed 1.7 km/h Distance 0.57 km</desc>
<time>2010-02-24T17:13:33.72</time>
<name>495</name>
</trkpt>
<trkpt lat="48.939998" lon="8.657958">
<ele>330.5</ele>
<speed>2.8</speed>
<course>198.8</course>
<desc>Speed 2.8 km/h Distance 0.57 km</desc>
<time>2010-02-24T17:13:34.72</time>
<name>496</name>
</trkpt>
<trkpt lat="48.939992" lon="8.657955">
<ele>330.0</ele>
<speed>3.8</speed>
<course>194.9</course>
<desc>Speed 3.8 km/h Distance 0.57 km</desc>
<time>2010-02-24T17:13:35.72</time>
<name>497</name>
</trkpt>
<trkpt lat="48.939983" lon="8.657952">
<ele>329.5</ele>
<speed>3.9</speed>
<course>172.6</course>
<desc>Speed 3.9 km/h Distance 0.57 km</desc>
<time>2010-02-24T17:13:36.72</time>
<name>498</name>
</trkpt>
<trkpt lat="48.939977" lon="8.657953">
<ele>328.5</ele>
<speed>3.4</speed>
<course>213.7</course>
<desc>Speed 3.4 km/h Distance 0.57 km</desc>
<time>2010-02-24T17:13:37.72</time>
<name>499</name>
</trkpt>
<trkpt lat="48.939973" lon="8.657950">
<ele>328.0</ele>
<speed>2.8</speed>
<course>255.8</course>
<desc>Speed 2.8 km/h Distance 0.57 km</desc>
<time>2010-02-24T17:13:38.72</time>
<name>500</name>
</trkpt>
<trkpt lat="48.939972" lon="8.657940">
<ele>328.0</ele>
<speed>3.1</speed>
<course>270.0</course>
<desc>Speed 3.1 km/h Distance 0.57 km</desc>
<time>2010-02-24T17:13:39.72</time>
<name>501</name>
</trkpt>
<trkpt lat="48.939972" lon="8.657930">
<ele>328.5</ele>
<speed>2.8</speed>
<course>252.9</course>
<desc>Speed 2.8 km/h Distance 0.57 km</desc>
<time>2010-02-24T17:13:40.72</time>
<name>502</name>
</trkpt>
<trkpt lat="48.939970" lon="8.657922">
<ele>328.0</ele>
<speed>2.4</speed>
<course>270.0</course>
<desc>Speed 2.4 km/h Distance 0.57 km</desc>
<time>2010-02-24T17:13:41.72</time>
<name>503</name>
</trkpt>
<trkpt lat="48.939970" lon="8.657915">
<ele>327.0</ele>
<speed>1.6</speed>
<course>185.0</course>
<desc>Speed 1.6 km/h Distance 0.57 km</desc>
<time>2010-02-24T17:13:42.71</time>
<name>504</name>
</trkpt>
<trkpt lat="48.939962" lon="8.657913">
<ele>327.0</ele>
<speed>3.2</speed>
<course>219.7</course>
<desc>Speed 3.2 km/h Distance 0.57 km</desc>
<time>2010-02-24T17:13:43.72</time>
<name>505</name>
</trkpt>
<trkpt lat="48.939955" lon="8.657905">
<ele>326.5</ele>
<speed>3.9</speed>
<course>219.4</course>
<desc>Speed 3.9 km/h Distance 0.57 km</desc>
<time>2010-02-24T17:13:44.71</time>
<name>506</name>
</trkpt>
<trkpt lat="48.939948" lon="8.657897">
<ele>325.0</ele>
<speed>4.0</speed>
<course>249.1</course>
<desc>Speed 4.0 km/h Distance 0.58 km</desc>
<time>2010-02-24T17:13:45.71</time>
<name>507</name>
</trkpt>
<trkpt lat="48.939947" lon="8.657890">
<ele>324.0</ele>
<speed>2.6</speed>
<course>232.4</course>
<desc>Speed 2.6 km/h Distance 0.58 km</desc>
<time>2010-02-24T17:13:46.71</time>
<name>508</name>
</trkpt>
<trkpt lat="48.939942" lon="8.657880">
<ele>323.5</ele>
<speed>3.7</speed>
<course>229.1</course>
<desc>Speed 3.7 km/h Distance 0.58 km</desc>
<time>2010-02-24T17:13:47.72</time>
<name>509</name>
</trkpt>
<trkpt lat="48.939935" lon="8.657868">
<ele>323.0</ele>
<speed>3.8</speed>
<course>224.5</course>
<desc>Speed 3.8 km/h Distance 0.58 km</desc>
<time>2010-02-24T17:13:48.71</time>
<name>510</name>
</trkpt>
<trkpt lat="48.939928" lon="8.657858">
<ele>323.0</ele>
<speed>3.9</speed>
<course>217.5</course>
<desc>Speed 3.9 km/h Distance 0.58 km</desc>
<time>2010-02-24T17:13:49.71</time>
<name>511</name>
</trkpt>
<trkpt lat="48.939918" lon="8.657847">
<ele>323.0</ele>
<speed>3.9</speed>
<course>197.0</course>
<desc>Speed 3.9 km/h Distance 0.58 km</desc>
<time>2010-02-24T17:13:50.71</time>
<name>512</name>
</trkpt>
<trkpt lat="48.939908" lon="8.657842">
<ele>322.0</ele>
<speed>3.1</speed>
<course>192.6</course>
<desc>Speed 3.1 km/h Distance 0.58 km</desc>
<time>2010-02-24T17:13:51.71</time>
<name>513</name>
</trkpt>
<trkpt lat="48.939898" lon="8.657838">
<ele>321.0</ele>
<speed>3.4</speed>
<course>196.0</course>
<desc>Speed 3.4 km/h Distance 0.58 km</desc>
<time>2010-02-24T17:13:52.71</time>
<name>514</name>
</trkpt>
<trkpt lat="48.939887" lon="8.657833">
<ele>320.5</ele>
<speed>4.0</speed>
<course>203.8</course>
<desc>Speed 4.0 km/h Distance 0.58 km</desc>
<time>2010-02-24T17:13:53.71</time>
<name>515</name>
</trkpt>
<trkpt lat="48.939877" lon="8.657827">
<ele>319.5</ele>
<speed>3.7</speed>
<course>205.2</course>
<desc>Speed 3.7 km/h Distance 0.58 km</desc>
<time>2010-02-24T17:13:54.71</time>
<name>516</name>
</trkpt>
<trkpt lat="48.939865" lon="8.657818">
<ele>318.5</ele>
<speed>4.1</speed>
<course>196.0</course>
<desc>Speed 4.1 km/h Distance 0.59 km</desc>
<time>2010-02-24T17:13:55.71</time>
<name>517</name>
</trkpt>
<trkpt lat="48.939853" lon="8.657813">
<ele>317.5</ele>
<speed>3.7</speed>
<course>207.9</course>
<desc>Speed 3.7 km/h Distance 0.59 km</desc>
<time>2010-02-24T17:13:56.71</time>
<name>518</name>
</trkpt>
<trkpt lat="48.939845" lon="8.657807">
<ele>317.5</ele>
<speed>3.4</speed>
<course>207.9</course>
<desc>Speed 3.4 km/h Distance 0.59 km</desc>
<time>2010-02-24T17:13:57.71</time>
<name>519</name>
</trkpt>
<trkpt lat="48.939837" lon="8.657800">
<ele>316.5</ele>
<speed>3.9</speed>
<course>201.5</course>
<desc>Speed 3.9 km/h Distance 0.59 km</desc>
<time>2010-02-24T17:13:58.71</time>
<name>520</name>
</trkpt>
<trkpt lat="48.939828" lon="8.657795">
<ele>316.0</ele>
<speed>3.2</speed>
<course>213.7</course>
<desc>Speed 3.2 km/h Distance 0.59 km</desc>
<time>2010-02-24T17:13:59.71</time>
<name>521</name>
</trkpt>
<trkpt lat="48.939822" lon="8.657788">
<ele>315.5</ele>
<speed>3.1</speed>
<course>224.5</course>
<desc>Speed 3.1 km/h Distance 0.59 km</desc>
<time>2010-02-24T17:14:00.71</time>
<name>522</name>
</trkpt>
<trkpt lat="48.939815" lon="8.657778">
<ele>315.5</ele>
<speed>3.6</speed>
<course>213.2</course>
<desc>Speed 3.6 km/h Distance 0.59 km</desc>
<time>2010-02-24T17:14:01.71</time>
<name>523</name>
</trkpt>
<trkpt lat="48.939807" lon="8.657770">
<ele>315.5</ele>
<speed>3.6</speed>
<course>218.1</course>
<desc>Speed 3.6 km/h Distance 0.59 km</desc>
<time>2010-02-24T17:14:02.71</time>
<name>524</name>
</trkpt>
<trkpt lat="48.939798" lon="8.657760">
<ele>315.5</ele>
<speed>3.7</speed>
<course>222.6</course>
<desc>Speed 3.7 km/h Distance 0.60 km</desc>
<time>2010-02-24T17:14:03.71</time>
<name>525</name>
</trkpt>
<trkpt lat="48.939790" lon="8.657748">
<ele>316.5</ele>
<speed>4.2</speed>
<course>213.2</course>
<desc>Speed 4.2 km/h Distance 0.60 km</desc>
<time>2010-02-24T17:14:04.71</time>
<name>526</name>
</trkpt>
<trkpt lat="48.939782" lon="8.657740">
<ele>316.5</ele>
<speed>3.4</speed>
<course>213.4</course>
<desc>Speed 3.4 km/h Distance 0.60 km</desc>
<time>2010-02-24T17:14:05.71</time>
<name>527</name>
</trkpt>
<trkpt lat="48.939772" lon="8.657730">
<ele>317.0</ele>
<speed>4.1</speed>
<course>213.4</course>
<desc>Speed 4.1 km/h Distance 0.60 km</desc>
<time>2010-02-24T17:14:06.71</time>
<name>528</name>
</trkpt>
<trkpt lat="48.939760" lon="8.657718">
<ele>316.5</ele>
<speed>4.1</speed>
<course>213.2</course>
<desc>Speed 4.1 km/h Distance 0.60 km</desc>
<time>2010-02-24T17:14:07.71</time>
<name>529</name>
</trkpt>
<trkpt lat="48.939750" lon="8.657708">
<ele>316.5</ele>
<speed>4.3</speed>
<course>221.3</course>
<desc>Speed 4.3 km/h Distance 0.60 km</desc>
<time>2010-02-24T17:14:08.71</time>
<name>530</name>
</trkpt>
<trkpt lat="48.939740" lon="8.657695">
<ele>316.5</ele>
<speed>4.4</speed>
<course>217.5</course>
<desc>Speed 4.4 km/h Distance 0.60 km</desc>
<time>2010-02-24T17:14:09.71</time>
<name>531</name>
</trkpt>
<trkpt lat="48.939730" lon="8.657683">
<ele>316.5</ele>
<speed>4.2</speed>
<course>213.4</course>
<desc>Speed 4.2 km/h Distance 0.60 km</desc>
<time>2010-02-24T17:14:10.71</time>
<name>532</name>
</trkpt>
<trkpt lat="48.939720" lon="8.657673">
<ele>316.5</ele>
<speed>4.1</speed>
<course>192.6</course>
<desc>Speed 4.1 km/h Distance 0.61 km</desc>
<time>2010-02-24T17:14:11.71</time>
<name>533</name>
</trkpt>
<trkpt lat="48.939710" lon="8.657670">
<ele>315.0</ele>
<speed>3.6</speed>
<course>196.0</course>
<desc>Speed 3.6 km/h Distance 0.61 km</desc>
<time>2010-02-24T17:14:12.71</time>
<name>534</name>
</trkpt>
<trkpt lat="48.939698" lon="8.657665">
<ele>315.0</ele>
<speed>3.8</speed>
<course>208.6</course>
<desc>Speed 3.8 km/h Distance 0.61 km</desc>
<time>2010-02-24T17:14:13.71</time>
<name>535</name>
</trkpt>
<trkpt lat="48.939688" lon="8.657657">
<ele>314.5</ele>
<speed>4.0</speed>
<course>217.3</course>
<desc>Speed 4.0 km/h Distance 0.61 km</desc>
<time>2010-02-24T17:14:14.71</time>
<name>536</name>
</trkpt>
<trkpt lat="48.939678" lon="8.657645">
<ele>313.5</ele>
<speed>4.1</speed>
<course>224.5</course>
<desc>Speed 4.1 km/h Distance 0.61 km</desc>
<time>2010-02-24T17:14:15.70</time>
<name>537</name>
</trkpt>
<trkpt lat="48.939668" lon="8.657630">
<ele>313.0</ele>
<speed>4.4</speed>
<course>229.1</course>
<desc>Speed 4.4 km/h Distance 0.61 km</desc>
<time>2010-02-24T17:14:16.70</time>
<name>538</name>
</trkpt>
<trkpt lat="48.939662" lon="8.657618">
<ele>312.5</ele>
<speed>4.1</speed>
<course>213.2</course>
<desc>Speed 4.1 km/h Distance 0.61 km</desc>
<time>2010-02-24T17:14:17.71</time>
<name>539</name>
</trkpt>
<trkpt lat="48.939653" lon="8.657610">
<ele>312.0</ele>
<speed>3.0</speed>
<course>194.9</course>
<desc>Speed 3.0 km/h Distance 0.61 km</desc>
<time>2010-02-24T17:14:18.70</time>
<name>540</name>
</trkpt>
<trkpt lat="48.939645" lon="8.657607">
<ele>311.5</ele>
<speed>3.7</speed>
<course>213.5</course>
<desc>Speed 3.7 km/h Distance 0.62 km</desc>
<time>2010-02-24T17:14:19.70</time>
<name>541</name>
</trkpt>
<trkpt lat="48.939637" lon="8.657598">
<ele>311.0</ele>
<speed>3.7</speed>
<course>213.2</course>
<desc>Speed 3.7 km/h Distance 0.62 km</desc>
<time>2010-02-24T17:14:20.70</time>
<name>542</name>
</trkpt>
<trkpt lat="48.939628" lon="8.657590">
<ele>310.0</ele>
<speed>3.7</speed>
<course>224.5</course>
<desc>Speed 3.7 km/h Distance 0.62 km</desc>
<time>2010-02-24T17:14:21.70</time>
<name>543</name>
</trkpt>
<trkpt lat="48.939618" lon="8.657575">
<ele>310.0</ele>
<speed>4.8</speed>
<course>218.1</course>
<desc>Speed 4.8 km/h Distance 0.62 km</desc>
<time>2010-02-24T17:14:22.70</time>
<name>544</name>
</trkpt>
<trkpt lat="48.939610" lon="8.657565">
<ele>309.5</ele>
<speed>4.3</speed>
<course>213.2</course>
<desc>Speed 4.3 km/h Distance 0.62 km</desc>
<time>2010-02-24T17:14:23.70</time>
<name>545</name>
</trkpt>
<trkpt lat="48.939600" lon="8.657555">
<ele>309.0</ele>
<speed>4.5</speed>
<course>213.2</course>
<desc>Speed 4.5 km/h Distance 0.62 km</desc>
<time>2010-02-24T17:14:24.70</time>
<name>546</name>
</trkpt>
<trkpt lat="48.939592" lon="8.657547">
<ele>308.5</ele>
<speed>4.3</speed>
<course>203.8</course>
<desc>Speed 4.3 km/h Distance 0.62 km</desc>
<time>2010-02-24T17:14:25.70</time>
<name>547</name>
</trkpt>
<trkpt lat="48.939582" lon="8.657540">
<ele>308.5</ele>
<speed>4.1</speed>
<course>205.2</course>
<desc>Speed 4.1 km/h Distance 0.62 km</desc>
<time>2010-02-24T17:14:26.70</time>
<name>548</name>
</trkpt>
<trkpt lat="48.939570" lon="8.657532">
<ele>308.0</ele>
<speed>4.6</speed>
<course>203.8</course>
<desc>Speed 4.6 km/h Distance 0.63 km</desc>
<time>2010-02-24T17:14:27.70</time>
<name>549</name>
</trkpt>
<trkpt lat="48.939560" lon="8.657525">
<ele>308.0</ele>
<speed>4.5</speed>
<course>203.4</course>
<desc>Speed 4.5 km/h Distance 0.63 km</desc>
<time>2010-02-24T17:14:28.70</time>
<name>550</name>
</trkpt>
<trkpt lat="48.939550" lon="8.657518">
<ele>307.0</ele>
<speed>4.1</speed>
<course>203.8</course>
<desc>Speed 4.1 km/h Distance 0.63 km</desc>
<time>2010-02-24T17:14:29.70</time>
<name>551</name>
</trkpt>
<trkpt lat="48.939540" lon="8.657512">
<ele>307.0</ele>
<speed>3.9</speed>
<course>213.4</course>
<desc>Speed 3.9 km/h Distance 0.63 km</desc>
<time>2010-02-24T17:14:30.70</time>
<name>552</name>
</trkpt>
<trkpt lat="48.939530" lon="8.657502">
<ele>307.0</ele>
<speed>4.1</speed>
<course>200.8</course>
<desc>Speed 4.1 km/h Distance 0.63 km</desc>
<time>2010-02-24T17:14:31.70</time>
<name>553</name>
</trkpt>
<trkpt lat="48.939522" lon="8.657497">
<ele>306.5</ele>
<speed>3.7</speed>
<course>187.4</course>
<desc>Speed 3.7 km/h Distance 0.63 km</desc>
<time>2010-02-24T17:14:32.70</time>
<name>554</name>
</trkpt>
<trkpt lat="48.939515" lon="8.657495">
<ele>306.0</ele>
<speed>3.1</speed>
<course>180.0</course>
<desc>Speed 3.1 km/h Distance 0.63 km</desc>
<time>2010-02-24T17:14:33.70</time>
<name>555</name>
</trkpt>
<trkpt lat="48.939505" lon="8.657495">
<ele>306.5</ele>
<speed>3.3</speed>
<course>255.6</course>
<desc>Speed 3.3 km/h Distance 0.63 km</desc>
<time>2010-02-24T17:14:34.70</time>
<name>556</name>
</trkpt>
<trkpt lat="48.939503" lon="8.657485">
<ele>306.5</ele>
<speed>2.8</speed>
<course>259.3</course>
<desc>Speed 2.8 km/h Distance 0.63 km</desc>
<time>2010-02-24T17:14:35.70</time>
<name>557</name>
</trkpt>
<trkpt lat="48.939502" lon="8.657472">
<ele>306.5</ele>
<speed>3.4</speed>
<course>240.3</course>
<desc>Speed 3.4 km/h Distance 0.64 km</desc>
<time>2010-02-24T17:14:36.70</time>
<name>558</name>
</trkpt>
<trkpt lat="48.939497" lon="8.657458">
<ele>306.5</ele>
<speed>3.6</speed>
<course>90.0</course>
<desc>Speed 3.6 km/h Distance 0.64 km</desc>
<time>2010-02-24T17:14:37.70</time>
<name>559</name>
</trkpt>
<trkpt lat="48.939497" lon="8.657460">
<ele>305.0</ele>
<speed>0.9</speed>
<course>243.1</course>
<desc>Speed 0.9 km/h Distance 0.64 km</desc>
<time>2010-02-24T17:14:38.70</time>
<name>560</name>
</trkpt>
<trkpt lat="48.939490" lon="8.657440">
<ele>306.0</ele>
<speed>5.7</speed>
<course>171.9</course>
<desc>Speed 5.7 km/h Distance 0.64 km</desc>
<time>2010-02-24T17:14:39.70</time>
<name>561</name>
</trkpt>
<trkpt lat="48.939485" lon="8.657440">
<ele>306.0</ele>
<speed>2.4</speed>
<course>308.1</course>
<desc>Speed 2.4 km/h Distance 0.64 km</desc>
<time>2010-02-24T17:14:40.70</time>
<name>562</name>
</trkpt>
<trkpt lat="48.939487" lon="8.657437">
<ele>306.0</ele>
<speed>1.1</speed>
<course>308.1</course>
<desc>Speed 1.1 km/h Distance 0.64 km</desc>
<time>2010-02-24T17:14:41.70</time>
<name>563</name>
</trkpt>
<trkpt lat="48.939487" lon="8.657437">
<ele>306.0</ele>
<speed>0.3</speed>
<course>347.4</course>
<desc>Speed 0.3 km/h Distance 0.64 km</desc>
<time>2010-02-24T17:14:42.69</time>
<name>564</name>
</trkpt>
<trkpt lat="48.939488" lon="8.657435">
<ele>306.5</ele>
<speed>0.1</speed>
<course>341.2</course>
<desc>Speed 0.1 km/h Distance 0.64 km</desc>
<time>2010-02-24T17:14:43.70</time>
<name>565</name>
</trkpt>
<trkpt lat="48.939492" lon="8.657433">
<ele>306.5</ele>
<speed>0.2</speed>
<course>341.2</course>
<desc>Speed 0.2 km/h Distance 0.64 km</desc>
<time>2010-02-24T17:14:44.69</time>
<name>566</name>
</trkpt>
<trkpt lat="48.939495" lon="8.657432">
<ele>306.5</ele>
<speed>0.1</speed>
<course>12.6</course>
<desc>Speed 0.1 km/h Distance 0.64 km</desc>
<time>2010-02-24T17:14:45.69</time>
<name>567</name>
</trkpt>
<trkpt lat="48.939497" lon="8.657432">
<ele>306.5</ele>
<speed>0.2</speed>
<course>330.8</course>
<desc>Speed 0.2 km/h Distance 0.64 km</desc>
<time>2010-02-24T17:14:46.69</time>
<name>568</name>
</trkpt>
<trkpt lat="48.939498" lon="8.657430">
<ele>306.5</ele>
<speed>0.1</speed>
<course>322.8</course>
<desc>Speed 0.1 km/h Distance 0.64 km</desc>
<time>2010-02-24T17:14:47.69</time>
<name>569</name>
</trkpt>
<trkpt lat="48.939500" lon="8.657428">
<ele>306.0</ele>
<speed>0.2</speed>
<course>322.8</course>
<desc>Speed 0.2 km/h Distance 0.64 km</desc>
<time>2010-02-24T17:14:48.69</time>
<name>570</name>
</trkpt>
<trkpt lat="48.939500" lon="8.657428">
<ele>306.0</ele>
<speed>0.2</speed>
<course>322.8</course>
<desc>Speed 0.2 km/h Distance 0.64 km</desc>
<time>2010-02-24T17:14:49.72</time>
<name>571</name>
</trkpt>
<trkpt lat="48.939500" lon="8.657428">
<ele>306.0</ele>
<speed>0.1</speed>
<course>322.8</course>
<desc>Speed 0.1 km/h Distance 0.64 km</desc>
<time>2010-02-24T17:14:50.69</time>
<name>572</name>
</trkpt>
<trkpt lat="48.939500" lon="8.657428">
<ele>306.0</ele>
<speed>0.6</speed>
<course>157.8</course>
<desc>Speed 0.6 km/h Distance 0.64 km</desc>
<time>2010-02-24T17:14:51.69</time>
<name>573</name>
</trkpt>
<trkpt lat="48.939495" lon="8.657432">
<ele>306.0</ele>
<speed>1.9</speed>
<course>200.8</course>
<desc>Speed 1.9 km/h Distance 0.64 km</desc>
<time>2010-02-24T17:14:52.72</time>
<name>574</name>
</trkpt>
<trkpt lat="48.939487" lon="8.657427">
<ele>306.0</ele>
<speed>3.2</speed>
<course>208.6</course>
<desc>Speed 3.2 km/h Distance 0.64 km</desc>
<time>2010-02-24T17:14:53.69</time>
<name>575</name>
</trkpt>
<trkpt lat="48.939477" lon="8.657418">
<ele>306.0</ele>
<speed>4.1</speed>
<course>218.1</course>
<desc>Speed 4.1 km/h Distance 0.64 km</desc>
<time>2010-02-24T17:14:54.69</time>
<name>576</name>
</trkpt>
<trkpt lat="48.939468" lon="8.657408">
<ele>306.0</ele>
<speed>3.8</speed>
<course>227.6</course>
<desc>Speed 3.8 km/h Distance 0.64 km</desc>
<time>2010-02-24T17:14:55.70</time>
<name>577</name>
</trkpt>
<trkpt lat="48.939458" lon="8.657392">
<ele>306.0</ele>
<speed>4.7</speed>
<course>224.5</course>
<desc>Speed 4.7 km/h Distance 0.65 km</desc>
<time>2010-02-24T17:14:56.70</time>
<name>578</name>
</trkpt>
<trkpt lat="48.939452" lon="8.657382">
<ele>305.5</ele>
<speed>3.9</speed>
<course>245.5</course>
<desc>Speed 3.9 km/h Distance 0.65 km</desc>
<time>2010-02-24T17:14:57.69</time>
<name>579</name>
</trkpt>
<trkpt lat="48.939447" lon="8.657365">
<ele>305.5</ele>
<speed>4.4</speed>
<course>228.9</course>
<desc>Speed 4.4 km/h Distance 0.65 km</desc>
<time>2010-02-24T17:14:58.69</time>
<name>580</name>
</trkpt>
<trkpt lat="48.939440" lon="8.657353">
<ele>305.0</ele>
<speed>4.0</speed>
<course>229.8</course>
<desc>Speed 4.0 km/h Distance 0.65 km</desc>
<time>2010-02-24T17:14:59.69</time>
<name>581</name>
</trkpt>
<trkpt lat="48.939432" lon="8.657338">
<ele>305.5</ele>
<speed>4.7</speed>
<course>226.6</course>
<desc>Speed 4.7 km/h Distance 0.65 km</desc>
<time>2010-02-24T17:15:00.69</time>
<name>582</name>
</trkpt>
<trkpt lat="48.939423" lon="8.657325">
<ele>305.5</ele>
<speed>4.1</speed>
<course>218.1</course>
<desc>Speed 4.1 km/h Distance 0.65 km</desc>
<time>2010-02-24T17:15:01.69</time>
<name>583</name>
</trkpt>
<trkpt lat="48.939415" lon="8.657315">
<ele>305.5</ele>
<speed>4.1</speed>
<course>226.4</course>
<desc>Speed 4.1 km/h Distance 0.65 km</desc>
<time>2010-02-24T17:15:02.69</time>
<name>584</name>
</trkpt>
<trkpt lat="48.939407" lon="8.657302">
<ele>305.5</ele>
<speed>4.4</speed>
<course>226.4</course>
<desc>Speed 4.4 km/h Distance 0.66 km</desc>
<time>2010-02-24T17:15:03.69</time>
<name>585</name>
</trkpt>
<trkpt lat="48.939398" lon="8.657288">
<ele>305.5</ele>
<speed>4.2</speed>
<course>226.4</course>
<desc>Speed 4.2 km/h Distance 0.66 km</desc>
<time>2010-02-24T17:15:04.69</time>
<name>586</name>
</trkpt>
<trkpt lat="48.939390" lon="8.657275">
<ele>305.5</ele>
<speed>4.0</speed>
<course>222.6</course>
<desc>Speed 4.0 km/h Distance 0.66 km</desc>
<time>2010-02-24T17:15:05.69</time>
<name>587</name>
</trkpt>
<trkpt lat="48.939382" lon="8.657263">
<ele>305.5</ele>
<speed>4.1</speed>
<course>221.2</course>
<desc>Speed 4.1 km/h Distance 0.66 km</desc>
<time>2010-02-24T17:15:06.69</time>
<name>588</name>
</trkpt>
<trkpt lat="48.939372" lon="8.657250">
<ele>305.5</ele>
<speed>4.1</speed>
<course>221.2</course>
<desc>Speed 4.1 km/h Distance 0.66 km</desc>
<time>2010-02-24T17:15:07.69</time>
<name>589</name>
</trkpt>
<trkpt lat="48.939362" lon="8.657237">
<ele>306.5</ele>
<speed>4.3</speed>
<course>203.8</course>
<desc>Speed 4.3 km/h Distance 0.66 km</desc>
<time>2010-02-24T17:15:08.69</time>
<name>590</name>
</trkpt>
<trkpt lat="48.939352" lon="8.657230">
<ele>306.5</ele>
<speed>3.6</speed>
<course>220.9</course>
<desc>Speed 3.6 km/h Distance 0.66 km</desc>
<time>2010-02-24T17:15:09.69</time>
<name>591</name>
</trkpt>
<trkpt lat="48.939347" lon="8.657223">
<ele>306.5</ele>
<speed>2.2</speed>
<course>225.5</course>
<desc>Speed 2.2 km/h Distance 0.66 km</desc>
<time>2010-02-24T17:15:10.70</time>
<name>592</name>
</trkpt>
<trkpt lat="48.939343" lon="8.657218">
<ele>306.5</ele>
<speed>1.2</speed>
<course>142.8</course>
<desc>Speed 1.2 km/h Distance 0.66 km</desc>
<time>2010-02-24T17:15:11.69</time>
<name>593</name>
</trkpt>
<trkpt lat="48.939342" lon="8.657220">
<ele>306.0</ele>
<speed>0.4</speed>
<course>142.8</course>
<desc>Speed 0.4 km/h Distance 0.66 km</desc>
<time>2010-02-24T17:15:12.69</time>
<name>594</name>
</trkpt>
<trkpt lat="48.939342" lon="8.657220">
<ele>305.5</ele>
<speed>0.4</speed>
<course>146.3</course>
<desc>Speed 0.4 km/h Distance 0.66 km</desc>
<time>2010-02-24T17:15:13.69</time>
<name>595</name>
</trkpt>
<trkpt lat="48.939338" lon="8.657223">
<ele>305.5</ele>
<speed>1.8</speed>
<course>206.4</course>
<desc>Speed 1.8 km/h Distance 0.67 km</desc>
<time>2010-02-24T17:15:14.68</time>
<name>596</name>
</trkpt>
<trkpt lat="48.939332" lon="8.657218">
<ele>305.5</ele>
<speed>2.9</speed>
<course>219.4</course>
<desc>Speed 2.9 km/h Distance 0.67 km</desc>
<time>2010-02-24T17:15:15.69</time>
<name>597</name>
</trkpt>
<trkpt lat="48.939325" lon="8.657210">
<ele>305.5</ele>
<speed>3.7</speed>
<course>236.7</course>
<desc>Speed 3.7 km/h Distance 0.67 km</desc>
<time>2010-02-24T17:15:16.69</time>
<name>598</name>
</trkpt>
<trkpt lat="48.939320" lon="8.657198">
<ele>305.5</ele>
<speed>3.8</speed>
<course>238.6</course>
<desc>Speed 3.8 km/h Distance 0.67 km</desc>
<time>2010-02-24T17:15:17.68</time>
<name>599</name>
</trkpt>
<trkpt lat="48.939317" lon="8.657190">
<ele>304.0</ele>
<speed>2.4</speed>
<course>240.3</course>
<desc>Speed 2.4 km/h Distance 0.67 km</desc>
<time>2010-02-24T17:15:18.69</time>
<name>600</name>
</trkpt>
<trkpt lat="48.939312" lon="8.657177">
<ele>304.0</ele>
<speed>3.7</speed>
<course>229.1</course>
<desc>Speed 3.7 km/h Distance 0.67 km</desc>
<time>2010-02-24T17:15:19.69</time>
<name>601</name>
</trkpt>
<trkpt lat="48.939305" lon="8.657165">
<ele>304.0</ele>
<speed>3.5</speed>
<course>229.1</course>
<desc>Speed 3.5 km/h Distance 0.67 km</desc>
<time>2010-02-24T17:15:20.69</time>
<name>602</name>
</trkpt>
<trkpt lat="48.939298" lon="8.657153">
<ele>304.0</ele>
<speed>3.7</speed>
<course>229.1</course>
<desc>Speed 3.7 km/h Distance 0.67 km</desc>
<time>2010-02-24T17:15:21.69</time>
<name>603</name>
</trkpt>
<trkpt lat="48.939292" lon="8.657142">
<ele>303.5</ele>
<speed>3.1</speed>
<course>236.7</course>
<desc>Speed 3.1 km/h Distance 0.67 km</desc>
<time>2010-02-24T17:15:22.69</time>
<name>604</name>
</trkpt>
<trkpt lat="48.939287" lon="8.657130">
<ele>303.0</ele>
<speed>3.4</speed>
<course>227.1</course>
<desc>Speed 3.4 km/h Distance 0.67 km</desc>
<time>2010-02-24T17:15:23.69</time>
<name>605</name>
</trkpt>
<trkpt lat="48.939282" lon="8.657122">
<ele>303.0</ele>
<speed>3.2</speed>
<course>213.2</course>
<desc>Speed 3.2 km/h Distance 0.68 km</desc>
<time>2010-02-24T17:15:24.69</time>
<name>606</name>
</trkpt>
<trkpt lat="48.939272" lon="8.657112">
<ele>303.0</ele>
<speed>3.8</speed>
<course>218.1</course>
<desc>Speed 3.8 km/h Distance 0.68 km</desc>
<time>2010-02-24T17:15:25.69</time>
<name>607</name>
</trkpt>
<trkpt lat="48.939263" lon="8.657102">
<ele>302.5</ele>
<speed>3.9</speed>
<course>208.6</course>
<desc>Speed 3.9 km/h Distance 0.68 km</desc>
<time>2010-02-24T17:15:26.68</time>
<name>608</name>
</trkpt>
<trkpt lat="48.939253" lon="8.657093">
<ele>302.0</ele>
<speed>3.9</speed>
<course>205.6</course>
<desc>Speed 3.9 km/h Distance 0.68 km</desc>
<time>2010-02-24T17:15:27.68</time>
<name>609</name>
</trkpt>
<trkpt lat="48.939247" lon="8.657088">
<ele>301.0</ele>
<speed>2.4</speed>
<course>219.4</course>
<desc>Speed 2.4 km/h Distance 0.68 km</desc>
<time>2010-02-24T17:15:28.68</time>
<name>610</name>
</trkpt>
<trkpt lat="48.939240" lon="8.657080">
<ele>300.5</ele>
<speed>3.3</speed>
<course>203.8</course>
<desc>Speed 3.3 km/h Distance 0.68 km</desc>
<time>2010-02-24T17:15:29.68</time>
<name>611</name>
</trkpt>
<trkpt lat="48.939230" lon="8.657073">
<ele>300.0</ele>
<speed>3.7</speed>
<course>213.2</course>
<desc>Speed 3.7 km/h Distance 0.68 km</desc>
<time>2010-02-24T17:15:30.69</time>
<name>612</name>
</trkpt>
<trkpt lat="48.939220" lon="8.657063">
<ele>300.5</ele>
<speed>3.7</speed>
<course>207.9</course>
<desc>Speed 3.7 km/h Distance 0.68 km</desc>
<time>2010-02-24T17:15:31.68</time>
<name>613</name>
</trkpt>
<trkpt lat="48.939212" lon="8.657057">
<ele>300.5</ele>
<speed>3.7</speed>
<course>200.8</course>
<desc>Speed 3.7 km/h Distance 0.68 km</desc>
<time>2010-02-24T17:15:32.68</time>
<name>614</name>
</trkpt>
<trkpt lat="48.939203" lon="8.657052">
<ele>299.5</ele>
<speed>3.4</speed>
<course>197.6</course>
<desc>Speed 3.4 km/h Distance 0.69 km</desc>
<time>2010-02-24T17:15:33.68</time>
<name>615</name>
</trkpt>
<trkpt lat="48.939193" lon="8.657047">
<ele>298.5</ele>
<speed>3.6</speed>
<course>208.6</course>
<desc>Speed 3.6 km/h Distance 0.69 km</desc>
<time>2010-02-24T17:15:34.68</time>
<name>616</name>
</trkpt>
<trkpt lat="48.939183" lon="8.657038">
<ele>298.0</ele>
<speed>4.1</speed>
<course>213.5</course>
<desc>Speed 4.1 km/h Distance 0.69 km</desc>
<time>2010-02-24T17:15:35.68</time>
<name>617</name>
</trkpt>
<trkpt lat="48.939175" lon="8.657030">
<ele>297.5</ele>
<speed>4.0</speed>
<course>218.1</course>
<desc>Speed 4.0 km/h Distance 0.69 km</desc>
<time>2010-02-24T17:15:36.68</time>
<name>618</name>
</trkpt>
<trkpt lat="48.939167" lon="8.657020">
<ele>297.0</ele>
<speed>4.1</speed>
<course>213.8</course>
<desc>Speed 4.1 km/h Distance 0.69 km</desc>
<time>2010-02-24T17:15:37.68</time>
<name>619</name>
</trkpt>
<trkpt lat="48.939158" lon="8.657012">
<ele>296.0</ele>
<speed>3.7</speed>
<course>207.9</course>
<desc>Speed 3.7 km/h Distance 0.69 km</desc>
<time>2010-02-24T17:15:38.68</time>
<name>620</name>
</trkpt>
<trkpt lat="48.939150" lon="8.657005">
<ele>295.0</ele>
<speed>3.1</speed>
<course>213.7</course>
<desc>Speed 3.1 km/h Distance 0.69 km</desc>
<time>2010-02-24T17:15:39.68</time>
<name>621</name>
</trkpt>
<trkpt lat="48.939143" lon="8.656998">
<ele>294.0</ele>
<speed>3.2</speed>
<course>213.2</course>
<desc>Speed 3.2 km/h Distance 0.69 km</desc>
<time>2010-02-24T17:15:40.68</time>
<name>622</name>
</trkpt>
<trkpt lat="48.939133" lon="8.656988">
<ele>293.5</ele>
<speed>4.1</speed>
<course>213.2</course>
<desc>Speed 4.1 km/h Distance 0.69 km</desc>
<time>2010-02-24T17:15:41.68</time>
<name>623</name>
</trkpt>
<trkpt lat="48.939125" lon="8.656980">
<ele>293.0</ele>
<speed>4.2</speed>
<course>221.2</course>
<desc>Speed 4.2 km/h Distance 0.70 km</desc>
<time>2010-02-24T17:15:42.68</time>
<name>624</name>
</trkpt>
<trkpt lat="48.939115" lon="8.656967">
<ele>293.5</ele>
<speed>4.9</speed>
<course>226.5</course>
<desc>Speed 4.9 km/h Distance 0.70 km</desc>
<time>2010-02-24T17:15:43.68</time>
<name>625</name>
</trkpt>
<trkpt lat="48.939107" lon="8.656953">
<ele>293.5</ele>
<speed>4.8</speed>
<course>229.7</course>
<desc>Speed 4.8 km/h Distance 0.70 km</desc>
<time>2010-02-24T17:15:44.68</time>
<name>626</name>
</trkpt>
<trkpt lat="48.939098" lon="8.656938">
<ele>293.0</ele>
<speed>4.8</speed>
<course>228.9</course>
<desc>Speed 4.8 km/h Distance 0.70 km</desc>
<time>2010-02-24T17:15:45.68</time>
<name>627</name>
</trkpt>
<trkpt lat="48.939092" lon="8.656927">
<ele>292.5</ele>
<speed>4.3</speed>
<course>222.6</course>
<desc>Speed 4.3 km/h Distance 0.70 km</desc>
<time>2010-02-24T17:15:46.68</time>
<name>628</name>
</trkpt>
<trkpt lat="48.939083" lon="8.656915">
<ele>292.5</ele>
<speed>3.9</speed>
<course>227.1</course>
<desc>Speed 3.9 km/h Distance 0.70 km</desc>
<time>2010-02-24T17:15:47.68</time>
<name>629</name>
</trkpt>
<trkpt lat="48.939078" lon="8.656907">
<ele>292.0</ele>
<speed>3.0</speed>
<course>226.5</course>
<desc>Speed 3.0 km/h Distance 0.70 km</desc>
<time>2010-02-24T17:15:48.68</time>
<name>630</name>
</trkpt>
<trkpt lat="48.939070" lon="8.656893">
<ele>292.0</ele>
<speed>4.6</speed>
<course>232.7</course>
<desc>Speed 4.6 km/h Distance 0.70 km</desc>
<time>2010-02-24T17:15:49.68</time>
<name>631</name>
</trkpt>
<trkpt lat="48.939063" lon="8.656880">
<ele>292.0</ele>
<speed>4.0</speed>
<course>224.5</course>
<desc>Speed 4.0 km/h Distance 0.71 km</desc>
<time>2010-02-24T17:15:50.68</time>
<name>632</name>
</trkpt>
<trkpt lat="48.939057" lon="8.656870">
<ele>292.0</ele>
<speed>3.5</speed>
<course>237.1</course>
<desc>Speed 3.5 km/h Distance 0.71 km</desc>
<time>2010-02-24T17:15:51.68</time>
<name>633</name>
</trkpt>
<trkpt lat="48.939052" lon="8.656858">
<ele>292.0</ele>
<speed>3.5</speed>
<course>227.8</course>
<desc>Speed 3.5 km/h Distance 0.71 km</desc>
<time>2010-02-24T17:15:52.68</time>
<name>634</name>
</trkpt>
<trkpt lat="48.939047" lon="8.656850">
<ele>291.5</ele>
<speed>3.0</speed>
<course>243.4</course>
<desc>Speed 3.0 km/h Distance 0.71 km</desc>
<time>2010-02-24T17:15:53.68</time>
<name>635</name>
</trkpt>
<trkpt lat="48.939045" lon="8.656845">
<ele>289.5</ele>
<speed>1.8</speed>
<course>233.5</course>
<desc>Speed 1.8 km/h Distance 0.71 km</desc>
<time>2010-02-24T17:15:54.68</time>
<name>636</name>
</trkpt>
<trkpt lat="48.939042" lon="8.656838">
<ele>288.5</ele>
<speed>2.1</speed>
<course>240.3</course>
<desc>Speed 2.1 km/h Distance 0.71 km</desc>
<time>2010-02-24T17:15:55.68</time>
<name>637</name>
</trkpt>
<trkpt lat="48.939037" lon="8.656825">
<ele>288.0</ele>
<speed>3.9</speed>
<course>252.9</course>
<desc>Speed 3.9 km/h Distance 0.71 km</desc>
<time>2010-02-24T17:15:56.68</time>
<name>638</name>
</trkpt>
<trkpt lat="48.939035" lon="8.656817">
<ele>287.0</ele>
<speed>2.2</speed>
<course>249.1</course>
<desc>Speed 2.2 km/h Distance 0.71 km</desc>
<time>2010-02-24T17:15:57.68</time>
<name>639</name>
</trkpt>
<trkpt lat="48.939033" lon="8.656810">
<ele>285.5</ele>
<speed>1.8</speed>
<course>243.2</course>
<desc>Speed 1.8 km/h Distance 0.71 km</desc>
<time>2010-02-24T17:15:58.68</time>
<name>640</name>
</trkpt>
<trkpt lat="48.939030" lon="8.656800">
<ele>284.5</ele>
<speed>2.9</speed>
<course>237.1</course>
<desc>Speed 2.9 km/h Distance 0.71 km</desc>
<time>2010-02-24T17:15:59.68</time>
<name>641</name>
</trkpt>
<trkpt lat="48.939025" lon="8.656788">
<ele>283.0</ele>
<speed>3.4</speed>
<course>249.2</course>
<desc>Speed 3.4 km/h Distance 0.71 km</desc>
<time>2010-02-24T17:16:00.68</time>
<name>642</name>
</trkpt>
<trkpt lat="48.939022" lon="8.656775">
<ele>283.5</ele>
<speed>3.9</speed>
<course>227.8</course>
<desc>Speed 3.9 km/h Distance 0.71 km</desc>
<time>2010-02-24T17:16:01.67</time>
<name>643</name>
</trkpt>
<trkpt lat="48.939017" lon="8.656767">
<ele>283.0</ele>
<speed>2.7</speed>
<course>238.6</course>
<desc>Speed 2.7 km/h Distance 0.72 km</desc>
<time>2010-02-24T17:16:02.67</time>
<name>644</name>
</trkpt>
<trkpt lat="48.939013" lon="8.656758">
<ele>283.0</ele>
<speed>2.9</speed>
<course>224.5</course>
<desc>Speed 2.9 km/h Distance 0.72 km</desc>
<time>2010-02-24T17:16:03.68</time>
<name>645</name>
</trkpt>
<trkpt lat="48.939007" lon="8.656748">
<ele>283.0</ele>
<speed>3.5</speed>
<course>202.2</course>
<desc>Speed 3.5 km/h Distance 0.72 km</desc>
<time>2010-02-24T17:16:04.67</time>
<name>646</name>
</trkpt>
<trkpt lat="48.939002" lon="8.656745">
<ele>282.0</ele>
<speed>2.1</speed>
<course>219.4</course>
<desc>Speed 2.1 km/h Distance 0.72 km</desc>
<time>2010-02-24T17:16:05.67</time>
<name>647</name>
</trkpt>
<trkpt lat="48.938995" lon="8.656737">
<ele>281.5</ele>
<speed>3.3</speed>
<course>238.6</course>
<desc>Speed 3.3 km/h Distance 0.72 km</desc>
<time>2010-02-24T17:16:06.67</time>
<name>648</name>
</trkpt>
<trkpt lat="48.938988" lon="8.656720">
<ele>282.5</ele>
<speed>5.0</speed>
<course>211.6</course>
<desc>Speed 5.0 km/h Distance 0.72 km</desc>
<time>2010-02-24T17:16:07.67</time>
<name>649</name>
</trkpt>
<trkpt lat="48.938985" lon="8.656717">
<ele>281.5</ele>
<speed>1.7</speed>
<course>221.4</course>
<desc>Speed 1.7 km/h Distance 0.72 km</desc>
<time>2010-02-24T17:16:08.67</time>
<name>650</name>
</trkpt>
<trkpt lat="48.938980" lon="8.656710">
<ele>280.0</ele>
<speed>2.4</speed>
<course>167.4</course>
<desc>Speed 2.4 km/h Distance 0.72 km</desc>
<time>2010-02-24T17:16:09.67</time>
<name>651</name>
</trkpt>
<trkpt lat="48.938977" lon="8.656712">
<ele>279.5</ele>
<speed>1.0</speed>
<course>212.3</course>
<desc>Speed 1.0 km/h Distance 0.72 km</desc>
<time>2010-02-24T17:16:10.70</time>
<name>652</name>
</trkpt>
<trkpt lat="48.938972" lon="8.656707">
<ele>279.0</ele>
<speed>2.0</speed>
<course>249.1</course>
<desc>Speed 2.0 km/h Distance 0.72 km</desc>
<time>2010-02-24T17:16:11.67</time>
<name>653</name>
</trkpt>
<trkpt lat="48.938968" lon="8.656693">
<ele>279.0</ele>
<speed>4.2</speed>
<course>227.8</course>
<desc>Speed 4.2 km/h Distance 0.72 km</desc>
<time>2010-02-24T17:16:12.67</time>
<name>654</name>
</trkpt>
<trkpt lat="48.938963" lon="8.656685">
<ele>278.0</ele>
<speed>2.5</speed>
<course>233.0</course>
<desc>Speed 2.5 km/h Distance 0.72 km</desc>
<time>2010-02-24T17:16:13.67</time>
<name>655</name>
</trkpt>
<trkpt lat="48.938960" lon="8.656678">
<ele>277.5</ele>
<speed>2.7</speed>
<course>219.4</course>
<desc>Speed 2.7 km/h Distance 0.73 km</desc>
<time>2010-02-24T17:16:14.67</time>
<name>656</name>
</trkpt>
<trkpt lat="48.938953" lon="8.656670">
<ele>277.5</ele>
<speed>3.3</speed>
<course>223.5</course>
<desc>Speed 3.3 km/h Distance 0.73 km</desc>
<time>2010-02-24T17:16:15.67</time>
<name>657</name>
</trkpt>
<trkpt lat="48.938950" lon="8.656665">
<ele>276.5</ele>
<speed>2.2</speed>
<course>227.1</course>
<desc>Speed 2.2 km/h Distance 0.73 km</desc>
<time>2010-02-24T17:16:16.67</time>
<name>658</name>
</trkpt>
<trkpt lat="48.938945" lon="8.656657">
<ele>276.0</ele>
<speed>2.7</speed>
<course>220.9</course>
<desc>Speed 2.7 km/h Distance 0.73 km</desc>
<time>2010-02-24T17:16:17.67</time>
<name>659</name>
</trkpt>
<trkpt lat="48.938940" lon="8.656650">
<ele>275.5</ele>
<speed>2.4</speed>
<course>221.9</course>
<desc>Speed 2.4 km/h Distance 0.73 km</desc>
<time>2010-02-24T17:16:18.67</time>
<name>660</name>
</trkpt>
<trkpt lat="48.938935" lon="8.656643">
<ele>275.0</ele>
<speed>2.6</speed>
<course>238.6</course>
<desc>Speed 2.6 km/h Distance 0.73 km</desc>
<time>2010-02-24T17:16:19.67</time>
<name>661</name>
</trkpt>
<trkpt lat="48.938932" lon="8.656635">
<ele>274.0</ele>
<speed>2.7</speed>
<course>213.2</course>
<desc>Speed 2.7 km/h Distance 0.73 km</desc>
<time>2010-02-24T17:16:20.67</time>
<name>662</name>
</trkpt>
<trkpt lat="48.938923" lon="8.656627">
<ele>274.0</ele>
<speed>3.5</speed>
<course>236.9</course>
<desc>Speed 3.5 km/h Distance 0.73 km</desc>
<time>2010-02-24T17:16:21.67</time>
<name>663</name>
</trkpt>
<trkpt lat="48.938918" lon="8.656615">
<ele>274.0</ele>
<speed>3.1</speed>
<course>240.3</course>
<desc>Speed 3.1 km/h Distance 0.73 km</desc>
<time>2010-02-24T17:16:22.67</time>
<name>664</name>
</trkpt>
<trkpt lat="48.938913" lon="8.656602">
<ele>274.5</ele>
<speed>4.0</speed>
<course>232.4</course>
<desc>Speed 4.0 km/h Distance 0.73 km</desc>
<time>2010-02-24T17:16:23.67</time>
<name>665</name>
</trkpt>
<trkpt lat="48.938908" lon="8.656592">
<ele>275.0</ele>
<speed>2.9</speed>
<course>232.4</course>
<desc>Speed 2.9 km/h Distance 0.73 km</desc>
<time>2010-02-24T17:16:24.67</time>
<name>666</name>
</trkpt>
<trkpt lat="48.938903" lon="8.656582">
<ele>275.5</ele>
<speed>2.7</speed>
<course>245.5</course>
<desc>Speed 2.7 km/h Distance 0.73 km</desc>
<time>2010-02-24T17:16:25.67</time>
<name>667</name>
</trkpt>
<trkpt lat="48.938898" lon="8.656565">
<ele>276.0</ele>
<speed>3.7</speed>
<course>241.0</course>
<desc>Speed 3.7 km/h Distance 0.74 km</desc>
<time>2010-02-24T17:16:26.67</time>
<name>668</name>
</trkpt>
<trkpt lat="48.938892" lon="8.656547">
<ele>277.5</ele>
<speed>3.9</speed>
<course>232.8</course>
<desc>Speed 3.9 km/h Distance 0.74 km</desc>
<time>2010-02-24T17:16:27.67</time>
<name>669</name>
</trkpt>
<trkpt lat="48.938887" lon="8.656537">
<ele>278.5</ele>
<speed>0.6</speed>
<course>249.5</course>
<desc>Speed 0.6 km/h Distance 0.74 km</desc>
<time>2010-02-24T17:16:28.67</time>
<name>670</name>
</trkpt>
<trkpt lat="48.938885" lon="8.656530">
<ele>277.5</ele>
<speed>1.7</speed>
<course>233.0</course>
<desc>Speed 1.7 km/h Distance 0.74 km</desc>
<time>2010-02-24T17:16:29.67</time>
<name>671</name>
</trkpt>
<trkpt lat="48.938882" lon="8.656523">
<ele>277.0</ele>
<speed>1.7</speed>
<course>227.4</course>
<desc>Speed 1.7 km/h Distance 0.74 km</desc>
<time>2010-02-24T17:16:30.67</time>
<name>672</name>
</trkpt>
<trkpt lat="48.938877" lon="8.656515">
<ele>276.0</ele>
<speed>1.4</speed>
<course>221.9</course>
<desc>Speed 1.4 km/h Distance 0.74 km</desc>
<time>2010-02-24T17:16:31.67</time>
<name>673</name>
</trkpt>
<trkpt lat="48.938872" lon="8.656508">
<ele>276.0</ele>
<speed>1.9</speed>
<course>229.8</course>
<desc>Speed 1.9 km/h Distance 0.74 km</desc>
<time>2010-02-24T17:16:32.67</time>
<name>674</name>
</trkpt>
<trkpt lat="48.938863" lon="8.656493">
<ele>277.0</ele>
<speed>3.3</speed>
<course>255.8</course>
<desc>Speed 3.3 km/h Distance 0.74 km</desc>
<time>2010-02-24T17:16:33.67</time>
<name>675</name>
</trkpt>
<trkpt lat="48.938862" lon="8.656483">
<ele>276.5</ele>
<speed>2.6</speed>
<course>239.6</course>
<desc>Speed 2.6 km/h Distance 0.74 km</desc>
<time>2010-02-24T17:16:34.67</time>
<name>676</name>
</trkpt>
<trkpt lat="48.938853" lon="8.656462">
<ele>277.0</ele>
<speed>3.8</speed>
<course>224.5</course>
<desc>Speed 3.8 km/h Distance 0.75 km</desc>
<time>2010-02-24T17:16:35.67</time>
<name>677</name>
</trkpt>
<trkpt lat="48.938847" lon="8.656452">
<ele>276.5</ele>
<speed>3.4</speed>
<course>229.1</course>
<desc>Speed 3.4 km/h Distance 0.75 km</desc>
<time>2010-02-24T17:16:36.69</time>
<name>678</name>
</trkpt>
<trkpt lat="48.938840" lon="8.656440">
<ele>276.5</ele>
<speed>3.3</speed>
<course>219.4</course>
<desc>Speed 3.3 km/h Distance 0.75 km</desc>
<time>2010-02-24T17:16:37.66</time>
<name>679</name>
</trkpt>
<trkpt lat="48.938833" lon="8.656432">
<ele>275.5</ele>
<speed>1.9</speed>
<course>227.4</course>
<desc>Speed 1.9 km/h Distance 0.75 km</desc>
<time>2010-02-24T17:16:38.66</time>
<name>680</name>
</trkpt>
<trkpt lat="48.938828" lon="8.656423">
<ele>275.0</ele>
<speed>2.6</speed>
<course>235.4</course>
<desc>Speed 2.6 km/h Distance 0.75 km</desc>
<time>2010-02-24T17:16:39.66</time>
<name>681</name>
</trkpt>
<trkpt lat="48.938820" lon="8.656405">
<ele>275.0</ele>
<speed>3.6</speed>
<course>224.5</course>
<desc>Speed 3.6 km/h Distance 0.75 km</desc>
<time>2010-02-24T17:16:40.66</time>
<name>682</name>
</trkpt>
<trkpt lat="48.938817" lon="8.656400">
<ele>275.0</ele>
<speed>0.9</speed>
<course>232.7</course>
<desc>Speed 0.9 km/h Distance 0.75 km</desc>
<time>2010-02-24T17:16:41.66</time>
<name>683</name>
</trkpt>
<trkpt lat="48.938810" lon="8.656387">
<ele>275.5</ele>
<speed>3.2</speed>
<course>229.7</course>
<desc>Speed 3.2 km/h Distance 0.75 km</desc>
<time>2010-02-24T17:16:42.66</time>
<name>684</name>
</trkpt>
<trkpt lat="48.938802" lon="8.656372">
<ele>275.5</ele>
<speed>3.2</speed>
<course>229.7</course>
<desc>Speed 3.2 km/h Distance 0.75 km</desc>
<time>2010-02-24T17:16:43.66</time>
<name>685</name>
</trkpt>
<trkpt lat="48.938793" lon="8.656357">
<ele>275.0</ele>
<speed>3.7</speed>
<course>228.9</course>
<desc>Speed 3.7 km/h Distance 0.76 km</desc>
<time>2010-02-24T17:16:44.66</time>
<name>686</name>
</trkpt>
<trkpt lat="48.938787" lon="8.656345">
<ele>275.5</ele>
<speed>3.1</speed>
<course>200.1</course>
<desc>Speed 3.1 km/h Distance 0.76 km</desc>
<time>2010-02-24T17:16:45.66</time>
<name>687</name>
</trkpt>
<trkpt lat="48.938778" lon="8.656340">
<ele>274.5</ele>
<speed>2.4</speed>
<course>205.6</course>
<desc>Speed 2.4 km/h Distance 0.76 km</desc>
<time>2010-02-24T17:16:46.66</time>
<name>688</name>
</trkpt>
<trkpt lat="48.938772" lon="8.656335">
<ele>274.0</ele>
<speed>1.8</speed>
<course>202.2</course>
<desc>Speed 1.8 km/h Distance 0.76 km</desc>
<time>2010-02-24T17:16:47.66</time>
<name>689</name>
</trkpt>
<trkpt lat="48.938767" lon="8.656332">
<ele>273.5</ele>
<speed>1.5</speed>
<course>217.3</course>
<desc>Speed 1.5 km/h Distance 0.76 km</desc>
<time>2010-02-24T17:16:48.68</time>
<name>690</name>
</trkpt>
<trkpt lat="48.938757" lon="8.656320">
<ele>274.0</ele>
<speed>3.7</speed>
<course>221.2</course>
<desc>Speed 3.7 km/h Distance 0.76 km</desc>
<time>2010-02-24T17:16:49.66</time>
<name>691</name>
</trkpt>
<trkpt lat="48.938747" lon="8.656307">
<ele>274.0</ele>
<speed>2.9</speed>
<course>220.2</course>
<desc>Speed 2.9 km/h Distance 0.76 km</desc>
<time>2010-02-24T17:16:50.66</time>
<name>692</name>
</trkpt>
<trkpt lat="48.938735" lon="8.656292">
<ele>274.0</ele>
<speed>3.1</speed>
<course>235.3</course>
<desc>Speed 3.1 km/h Distance 0.76 km</desc>
<time>2010-02-24T17:16:51.69</time>
<name>693</name>
</trkpt>
<trkpt lat="48.938727" lon="8.656273">
<ele>275.0</ele>
<speed>4.9</speed>
<course>226.4</course>
<desc>Speed 4.9 km/h Distance 0.77 km</desc>
<time>2010-02-24T17:16:52.66</time>
<name>694</name>
</trkpt>
<trkpt lat="48.938718" lon="8.656260">
<ele>275.0</ele>
<speed>3.7</speed>
<course>236.3</course>
<desc>Speed 3.7 km/h Distance 0.77 km</desc>
<time>2010-02-24T17:16:53.66</time>
<name>695</name>
</trkpt>
<trkpt lat="48.938707" lon="8.656233">
<ele>276.5</ele>
<speed>4.2</speed>
<course>223.3</course>
<desc>Speed 4.2 km/h Distance 0.77 km</desc>
<time>2010-02-24T17:16:54.66</time>
<name>696</name>
</trkpt>
<trkpt lat="48.938695" lon="8.656217">
<ele>276.5</ele>
<speed>4.4</speed>
<course>221.9</course>
<desc>Speed 4.4 km/h Distance 0.77 km</desc>
<time>2010-02-24T17:16:55.66</time>
<name>697</name>
</trkpt>
<trkpt lat="48.938690" lon="8.656210">
<ele>275.5</ele>
<speed>1.6</speed>
<course>224.6</course>
<desc>Speed 1.6 km/h Distance 0.77 km</desc>
<time>2010-02-24T17:16:56.66</time>
<name>698</name>
</trkpt>
<trkpt lat="48.938680" lon="8.656195">
<ele>276.5</ele>
<speed>3.6</speed>
<course>223.6</course>
<desc>Speed 3.6 km/h Distance 0.77 km</desc>
<time>2010-02-24T17:16:57.66</time>
<name>699</name>
</trkpt>
<trkpt lat="48.938665" lon="8.656173">
<ele>277.0</ele>
<speed>3.4</speed>
<course>230.3</course>
<desc>Speed 3.4 km/h Distance 0.78 km</desc>
<time>2010-02-24T17:16:58.66</time>
<name>700</name>
</trkpt>
<trkpt lat="48.938655" lon="8.656155">
<ele>278.5</ele>
<speed>2.5</speed>
<course>216.9</course>
<desc>Speed 2.5 km/h Distance 0.78 km</desc>
<time>2010-02-24T17:16:59.66</time>
<name>701</name>
</trkpt>
<trkpt lat="48.938643" lon="8.656142">
<ele>278.0</ele>
<speed>4.8</speed>
<course>213.2</course>
<desc>Speed 4.8 km/h Distance 0.78 km</desc>
<time>2010-02-24T17:17:00.66</time>
<name>702</name>
</trkpt>
<trkpt lat="48.938633" lon="8.656132">
<ele>277.5</ele>
<speed>3.6</speed>
<course>219.4</course>
<desc>Speed 3.6 km/h Distance 0.78 km</desc>
<time>2010-02-24T17:17:01.66</time>
<name>703</name>
</trkpt>
<trkpt lat="48.938627" lon="8.656123">
<ele>277.0</ele>
<speed>2.7</speed>
<course>222.6</course>
<desc>Speed 2.7 km/h Distance 0.78 km</desc>
<time>2010-02-24T17:17:02.66</time>
<name>704</name>
</trkpt>
<trkpt lat="48.938618" lon="8.656112">
<ele>277.0</ele>
<speed>3.4</speed>
<course>207.9</course>
<desc>Speed 3.4 km/h Distance 0.78 km</desc>
<time>2010-02-24T17:17:03.66</time>
<name>705</name>
</trkpt>
<trkpt lat="48.938610" lon="8.656105">
<ele>276.0</ele>
<speed>2.0</speed>
<course>224.5</course>
<desc>Speed 2.0 km/h Distance 0.78 km</desc>
<time>2010-02-24T17:17:04.66</time>
<name>706</name>
</trkpt>
<trkpt lat="48.938603" lon="8.656095">
<ele>276.0</ele>
<speed>3.4</speed>
<course>224.5</course>
<desc>Speed 3.4 km/h Distance 0.78 km</desc>
<time>2010-02-24T17:17:05.66</time>
<name>707</name>
</trkpt>
<trkpt lat="48.938597" lon="8.656085">
<ele>276.5</ele>
<speed>2.9</speed>
<course>207.9</course>
<desc>Speed 2.9 km/h Distance 0.79 km</desc>
<time>2010-02-24T17:17:06.66</time>
<name>708</name>
</trkpt>
<trkpt lat="48.938588" lon="8.656078">
<ele>276.0</ele>
<speed>2.8</speed>
<course>213.2</course>
<desc>Speed 2.8 km/h Distance 0.79 km</desc>
<time>2010-02-24T17:17:07.66</time>
<name>709</name>
</trkpt>
<trkpt lat="48.938580" lon="8.656070">
<ele>275.5</ele>
<speed>3.6</speed>
<course>194.9</course>
<desc>Speed 3.6 km/h Distance 0.79 km</desc>
<time>2010-02-24T17:17:08.66</time>
<name>710</name>
</trkpt>
<trkpt lat="48.938572" lon="8.656067">
<ele>275.0</ele>
<speed>2.5</speed>
<course>213.7</course>
<desc>Speed 2.5 km/h Distance 0.79 km</desc>
<time>2010-02-24T17:17:09.66</time>
<name>711</name>
</trkpt>
<trkpt lat="48.938565" lon="8.656060">
<ele>275.0</ele>
<speed>2.8</speed>
<course>224.5</course>
<desc>Speed 2.8 km/h Distance 0.79 km</desc>
<time>2010-02-24T17:17:10.66</time>
<name>712</name>
</trkpt>
<trkpt lat="48.938558" lon="8.656050">
<ele>274.0</ele>
<speed>3.0</speed>
<course>226.6</course>
<desc>Speed 3.0 km/h Distance 0.79 km</desc>
<time>2010-02-24T17:17:11.66</time>
<name>713</name>
</trkpt>
<trkpt lat="48.938550" lon="8.656037">
<ele>273.5</ele>
<speed>4.0</speed>
<course>207.9</course>
<desc>Speed 4.0 km/h Distance 0.79 km</desc>
<time>2010-02-24T17:17:12.66</time>
<name>714</name>
</trkpt>
<trkpt lat="48.938542" lon="8.656030">
<ele>272.5</ele>
<speed>2.9</speed>
<course>213.2</course>
<desc>Speed 2.9 km/h Distance 0.79 km</desc>
<time>2010-02-24T17:17:13.66</time>
<name>715</name>
</trkpt>
<trkpt lat="48.938532" lon="8.656020">
<ele>271.5</ele>
<speed>2.4</speed>
<course>235.3</course>
<desc>Speed 2.4 km/h Distance 0.79 km</desc>
<time>2010-02-24T17:17:14.68</time>
<name>716</name>
</trkpt>
<trkpt lat="48.938523" lon="8.656002">
<ele>271.5</ele>
<speed>3.4</speed>
<course>221.2</course>
<desc>Speed 3.4 km/h Distance 0.80 km</desc>
<time>2010-02-24T17:17:15.65</time>
<name>717</name>
</trkpt>
<trkpt lat="48.938513" lon="8.655988">
<ele>271.0</ele>
<speed>3.4</speed>
<course>237.0</course>
<desc>Speed 3.4 km/h Distance 0.80 km</desc>
<time>2010-02-24T17:17:16.65</time>
<name>718</name>
</trkpt>
<trkpt lat="48.938475" lon="8.655898">
<ele>278.0</ele>
<speed>3.9</speed>
<course>235.3</course>
<desc>Speed 3.9 km/h Distance 0.80 km</desc>
<time>2010-02-24T17:17:18.65</time>
<name>719</name>
</trkpt>
<trkpt lat="48.938425" lon="8.655788">
<ele>286.5</ele>
<speed>4.2</speed>
<course>234.5</course>
<desc>Speed 4.2 km/h Distance 0.81 km</desc>
<time>2010-02-24T17:17:20.66</time>
<name>720</name>
</trkpt>
<trkpt lat="48.938388" lon="8.655710">
<ele>293.5</ele>
<speed>4.0</speed>
<course>235.6</course>
<desc>Speed 4.0 km/h Distance 0.82 km</desc>
<time>2010-02-24T17:17:22.65</time>
<name>721</name>
</trkpt>
<trkpt lat="48.938373" lon="8.655677">
<ele>296.0</ele>
<speed>3.6</speed>
<course>238.4</course>
<desc>Speed 3.6 km/h Distance 0.82 km</desc>
<time>2010-02-24T17:17:23.66</time>
<name>722</name>
</trkpt>
<trkpt lat="48.938342" lon="8.655598">
<ele>300.5</ele>
<speed>2.9</speed>
<course>224.5</course>
<desc>Speed 2.9 km/h Distance 0.83 km</desc>
<time>2010-02-24T17:17:25.65</time>
<name>723</name>
</trkpt>
<trkpt lat="48.938335" lon="8.655588">
<ele>300.0</ele>
<speed>3.1</speed>
<course>235.9</course>
<desc>Speed 3.1 km/h Distance 0.83 km</desc>
<time>2010-02-24T17:17:26.65</time>
<name>724</name>
</trkpt>
<trkpt lat="48.938328" lon="8.655573">
<ele>299.5</ele>
<speed>3.9</speed>
<course>232.7</course>
<desc>Speed 3.9 km/h Distance 0.83 km</desc>
<time>2010-02-24T17:17:27.65</time>
<name>725</name>
</trkpt>
<trkpt lat="48.938320" lon="8.655557">
<ele>299.5</ele>
<speed>3.8</speed>
<course>246.5</course>
<desc>Speed 3.8 km/h Distance 0.84 km</desc>
<time>2010-02-24T17:17:28.65</time>
<name>726</name>
</trkpt>
<trkpt lat="48.938317" lon="8.655545">
<ele>298.5</ele>
<speed>2.7</speed>
<course>247.4</course>
<desc>Speed 2.7 km/h Distance 0.84 km</desc>
<time>2010-02-24T17:17:29.65</time>
<name>727</name>
</trkpt>
<trkpt lat="48.938312" lon="8.655527">
<ele>298.5</ele>
<speed>4.4</speed>
<course>243.0</course>
<desc>Speed 4.4 km/h Distance 0.84 km</desc>
<time>2010-02-24T17:17:30.65</time>
<name>728</name>
</trkpt>
<trkpt lat="48.938308" lon="8.655517">
<ele>299.0</ele>
<speed>2.2</speed>
<course>233.0</course>
<desc>Speed 2.2 km/h Distance 0.84 km</desc>
<time>2010-02-24T17:17:31.65</time>
<name>729</name>
</trkpt>
<trkpt lat="48.938305" lon="8.655510">
<ele>299.0</ele>
<speed>2.2</speed>
<course>213.7</course>
<desc>Speed 2.2 km/h Distance 0.84 km</desc>
<time>2010-02-24T17:17:32.65</time>
<name>730</name>
</trkpt>
<trkpt lat="48.938298" lon="8.655503">
<ele>299.5</ele>
<speed>2.6</speed>
<course>231.9</course>
<desc>Speed 2.6 km/h Distance 0.84 km</desc>
<time>2010-02-24T17:17:33.65</time>
<name>731</name>
</trkpt>
<trkpt lat="48.938297" lon="8.655500">
<ele>299.5</ele>
<speed>0.8</speed>
<course>167.4</course>
<desc>Speed 0.8 km/h Distance 0.84 km</desc>
<time>2010-02-24T17:17:34.65</time>
<name>732</name>
</trkpt>
<trkpt lat="48.938295" lon="8.655500">
<ele>299.5</ele>
<speed>0.5</speed>
<course>231.9</course>
<desc>Speed 0.5 km/h Distance 0.84 km</desc>
<time>2010-02-24T17:17:35.65</time>
<name>733</name>
</trkpt>
<trkpt lat="48.938293" lon="8.655497">
<ele>300.0</ele>
<speed>0.5</speed>
<course>231.9</course>
<desc>Speed 0.5 km/h Distance 0.84 km</desc>
<time>2010-02-24T17:17:36.65</time>
<name>734</name>
</trkpt>
<trkpt lat="48.938293" lon="8.655497">
<ele>300.0</ele>
<speed>0.1</speed>
<course>231.9</course>
<desc>Speed 0.1 km/h Distance 0.84 km</desc>
<time>2010-02-24T17:17:37.65</time>
<name>735</name>
</trkpt>
<trkpt lat="48.938293" lon="8.655497">
<ele>300.0</ele>
<speed>0.1</speed>
<course>231.9</course>
<desc>Speed 0.1 km/h Distance 0.84 km</desc>
<time>2010-02-24T17:17:38.65</time>
<name>736</name>
</trkpt>
<trkpt lat="48.938293" lon="8.655495">
<ele>300.0</ele>
<speed>0.5</speed>
<course>231.9</course>
<desc>Speed 0.5 km/h Distance 0.84 km</desc>
<time>2010-02-24T17:17:39.65</time>
<name>737</name>
</trkpt>
<trkpt lat="48.938293" lon="8.655493">
<ele>300.0</ele>
<speed>0.0</speed>
<course>231.9</course>
<desc>Speed 0.0 km/h Distance 0.84 km</desc>
<time>2010-02-24T17:17:40.65</time>
<name>738</name>
</trkpt>
<trkpt lat="48.938292" lon="8.655490">
<ele>300.0</ele>
<speed>0.0</speed>
<course>232.8</course>
<desc>Speed 0.0 km/h Distance 0.84 km</desc>
<time>2010-02-24T17:17:41.65</time>
<name>739</name>
</trkpt>
<trkpt lat="48.938287" lon="8.655480">
<ele>301.0</ele>
<speed>1.7</speed>
<course>270.0</course>
<desc>Speed 1.7 km/h Distance 0.84 km</desc>
<time>2010-02-24T17:17:42.64</time>
<name>740</name>
</trkpt>
<trkpt lat="48.938287" lon="8.655478">
<ele>300.5</ele>
<speed>0.5</speed>
<course>270.0</course>
<desc>Speed 0.5 km/h Distance 0.84 km</desc>
<time>2010-02-24T17:17:43.65</time>
<name>741</name>
</trkpt>
<trkpt lat="48.938287" lon="8.655475">
<ele>300.5</ele>
<speed>0.4</speed>
<course>254.5</course>
<desc>Speed 0.4 km/h Distance 0.84 km</desc>
<time>2010-02-24T17:17:44.64</time>
<name>742</name>
</trkpt>
<trkpt lat="48.938283" lon="8.655457">
<ele>301.5</ele>
<speed>0.7</speed>
<course>223.5</course>
<desc>Speed 0.7 km/h Distance 0.84 km</desc>
<time>2010-02-24T17:17:45.64</time>
<name>743</name>
</trkpt>
<trkpt lat="48.938280" lon="8.655452">
<ele>302.0</ele>
<speed>0.8</speed>
<course>223.5</course>
<desc>Speed 0.8 km/h Distance 0.84 km</desc>
<time>2010-02-24T17:17:46.64</time>
<name>744</name>
</trkpt>
<trkpt lat="48.938280" lon="8.655450">
<ele>302.0</ele>
<speed>0.3</speed>
<course>223.5</course>
<desc>Speed 0.3 km/h Distance 0.84 km</desc>
<time>2010-02-24T17:17:47.64</time>
<name>745</name>
</trkpt>
<trkpt lat="48.938277" lon="8.655445">
<ele>302.5</ele>
<speed>0.2</speed>
<course>270.0</course>
<desc>Speed 0.2 km/h Distance 0.85 km</desc>
<time>2010-02-24T17:17:48.64</time>
<name>746</name>
</trkpt>
<trkpt lat="48.938277" lon="8.655442">
<ele>302.5</ele>
<speed>0.1</speed>
<course>270.0</course>
<desc>Speed 0.1 km/h Distance 0.85 km</desc>
<time>2010-02-24T17:17:49.65</time>
<name>747</name>
</trkpt>
<trkpt lat="48.938277" lon="8.655440">
<ele>302.5</ele>
<speed>0.5</speed>
<course>180.0</course>
<desc>Speed 0.5 km/h Distance 0.85 km</desc>
<time>2010-02-24T17:17:50.64</time>
<name>748</name>
</trkpt>
<trkpt lat="48.938275" lon="8.655440">
<ele>302.5</ele>
<speed>0.3</speed>
<course>0.0</course>
<desc>Speed 0.3 km/h Distance 0.85 km</desc>
<time>2010-02-24T17:17:51.64</time>
<name>749</name>
</trkpt>
<trkpt lat="48.938277" lon="8.655440">
<ele>303.5</ele>
<speed>0.1</speed>
<course>231.9</course>
<desc>Speed 0.1 km/h Distance 0.85 km</desc>
<time>2010-02-24T17:17:52.64</time>
<name>750</name>
</trkpt>
<trkpt lat="48.938275" lon="8.655437">
<ele>303.5</ele>
<speed>0.0</speed>
<course>233.9</course>
<desc>Speed 0.0 km/h Distance 0.85 km</desc>
<time>2010-02-24T17:17:53.64</time>
<name>751</name>
</trkpt>
<trkpt lat="48.938273" lon="8.655433">
<ele>304.0</ele>
<speed>0.1</speed>
<course>243.4</course>
<desc>Speed 0.1 km/h Distance 0.85 km</desc>
<time>2010-02-24T17:17:54.64</time>
<name>752</name>
</trkpt>
<trkpt lat="48.938272" lon="8.655428">
<ele>304.5</ele>
<speed>0.3</speed>
<course>233.9</course>
<desc>Speed 0.3 km/h Distance 0.85 km</desc>
<time>2010-02-24T17:17:55.64</time>
<name>753</name>
</trkpt>
<trkpt lat="48.938270" lon="8.655425">
<ele>304.5</ele>
<speed>0.3</speed>
<course>12.6</course>
<desc>Speed 0.3 km/h Distance 0.85 km</desc>
<time>2010-02-24T17:17:56.64</time>
<name>754</name>
</trkpt>
<trkpt lat="48.938272" lon="8.655425">
<ele>304.5</ele>
<speed>0.2</speed>
<course>90.0</course>
<desc>Speed 0.2 km/h Distance 0.85 km</desc>
<time>2010-02-24T17:17:57.64</time>
<name>755</name>
</trkpt>
<trkpt lat="48.938272" lon="8.655427">
<ele>304.5</ele>
<speed>0.8</speed>
<course>270.0</course>
<desc>Speed 0.8 km/h Distance 0.85 km</desc>
<time>2010-02-24T17:17:58.64</time>
<name>756</name>
</trkpt>
<trkpt lat="48.938272" lon="8.655420">
<ele>304.5</ele>
<speed>1.4</speed>
<course>243.2</course>
<desc>Speed 1.4 km/h Distance 0.85 km</desc>
<time>2010-02-24T17:17:59.64</time>
<name>757</name>
</trkpt>
<trkpt lat="48.938268" lon="8.655410">
<ele>305.5</ele>
<speed>0.1</speed>
<course>270.0</course>
<desc>Speed 0.1 km/h Distance 0.85 km</desc>
<time>2010-02-24T17:18:00.64</time>
<name>758</name>
</trkpt>
<trkpt lat="48.938268" lon="8.655405">
<ele>306.0</ele>
<speed>0.3</speed>
<course>270.0</course>
<desc>Speed 0.3 km/h Distance 0.85 km</desc>
<time>2010-02-24T17:18:01.64</time>
<name>759</name>
</trkpt>
<trkpt lat="48.938268" lon="8.655405">
<ele>306.5</ele>
<speed>0.1</speed>
<course>270.0</course>
<desc>Speed 0.1 km/h Distance 0.85 km</desc>
<time>2010-02-24T17:18:02.64</time>
<name>760</name>
</trkpt>
<trkpt lat="48.938268" lon="8.655405">
<ele>307.0</ele>
<speed>0.3</speed>
<course>270.0</course>
<desc>Speed 0.3 km/h Distance 0.85 km</desc>
<time>2010-02-24T17:18:03.67</time>
<name>761</name>
</trkpt>
<trkpt lat="48.938268" lon="8.655405">
<ele>307.5</ele>
<speed>0.2</speed>
<course>12.6</course>
<desc>Speed 0.2 km/h Distance 0.85 km</desc>
<time>2010-02-24T17:18:04.64</time>
<name>762</name>
</trkpt>
<trkpt lat="48.938270" lon="8.655405">
<ele>307.5</ele>
<speed>0.2</speed>
<course>12.6</course>
<desc>Speed 0.2 km/h Distance 0.85 km</desc>
<time>2010-02-24T17:18:05.64</time>
<name>763</name>
</trkpt>
<trkpt lat="48.938270" lon="8.655405">
<ele>307.5</ele>
<speed>0.1</speed>
<course>12.6</course>
<desc>Speed 0.1 km/h Distance 0.85 km</desc>
<time>2010-02-24T17:18:06.63</time>
<name>764</name>
</trkpt>
<trkpt lat="48.938270" lon="8.655405">
<ele>307.5</ele>
<speed>0.1</speed>
<course>12.6</course>
<desc>Speed 0.1 km/h Distance 0.85 km</desc>
<time>2010-02-24T17:18:07.63</time>
<name>765</name>
</trkpt>
<trkpt lat="48.938270" lon="8.655405">
<ele>307.5</ele>
<speed>0.3</speed>
<course>12.6</course>
<desc>Speed 0.3 km/h Distance 0.85 km</desc>
<time>2010-02-24T17:18:08.63</time>
<name>766</name>
</trkpt>
<trkpt lat="48.938270" lon="8.655405">
<ele>307.5</ele>
<speed>0.1</speed>
<course>12.6</course>
<desc>Speed 0.1 km/h Distance 0.85 km</desc>
<time>2010-02-24T17:18:09.63</time>
<name>767</name>
</trkpt>
<trkpt lat="48.938270" lon="8.655405">
<ele>307.5</ele>
<speed>0.3</speed>
<course>12.6</course>
<desc>Speed 0.3 km/h Distance 0.85 km</desc>
<time>2010-02-24T17:18:10.66</time>
<name>768</name>
</trkpt>
<trkpt lat="48.938270" lon="8.655405">
<ele>307.5</ele>
<speed>0.4</speed>
<course>167.4</course>
<desc>Speed 0.4 km/h Distance 0.85 km</desc>
<time>2010-02-24T17:18:11.63</time>
<name>769</name>
</trkpt>
<trkpt lat="48.938268" lon="8.655405">
<ele>307.5</ele>
<speed>0.3</speed>
<course>90.0</course>
<desc>Speed 0.3 km/h Distance 0.85 km</desc>
<time>2010-02-24T17:18:12.65</time>
<name>770</name>
</trkpt>
<trkpt lat="48.938268" lon="8.655407">
<ele>308.0</ele>
<speed>0.7</speed>
<course>270.0</course>
<desc>Speed 0.7 km/h Distance 0.85 km</desc>
<time>2010-02-24T17:18:13.63</time>
<name>771</name>
</trkpt>
<trkpt lat="48.938268" lon="8.655403">
<ele>308.5</ele>
<speed>0.2</speed>
<course>90.0</course>
<desc>Speed 0.2 km/h Distance 0.85 km</desc>
<time>2010-02-24T17:18:14.63</time>
<name>772</name>
</trkpt>
<trkpt lat="48.938268" lon="8.655405">
<ele>308.5</ele>
<speed>0.3</speed>
<course>270.0</course>
<desc>Speed 0.3 km/h Distance 0.85 km</desc>
<time>2010-02-24T17:18:15.65</time>
<name>773</name>
</trkpt>
<trkpt lat="48.938268" lon="8.655403">
<ele>309.0</ele>
<speed>0.3</speed>
<course>270.0</course>
<desc>Speed 0.3 km/h Distance 0.85 km</desc>
<time>2010-02-24T17:18:16.63</time>
<name>774</name>
</trkpt>
<trkpt lat="48.938268" lon="8.655403">
<ele>309.5</ele>
<speed>0.3</speed>
<course>270.0</course>
<desc>Speed 0.3 km/h Distance 0.85 km</desc>
<time>2010-02-24T17:18:17.63</time>
<name>775</name>
</trkpt>
<trkpt lat="48.938268" lon="8.655403">
<ele>309.5</ele>
<speed>0.1</speed>
<course>167.4</course>
<desc>Speed 0.1 km/h Distance 0.85 km</desc>
<time>2010-02-24T17:18:18.63</time>
<name>776</name>
</trkpt>
<trkpt lat="48.938267" lon="8.655403">
<ele>309.5</ele>
<speed>0.2</speed>
<course>12.6</course>
<desc>Speed 0.2 km/h Distance 0.85 km</desc>
<time>2010-02-24T17:18:19.63</time>
<name>777</name>
</trkpt>
<trkpt lat="48.938268" lon="8.655403">
<ele>309.5</ele>
<speed>0.2</speed>
<course>12.6</course>
<desc>Speed 0.2 km/h Distance 0.85 km</desc>
<time>2010-02-24T17:18:20.63</time>
<name>778</name>
</trkpt>
<trkpt lat="48.938268" lon="8.655403">
<ele>309.5</ele>
<speed>0.1</speed>
<course>12.6</course>
<desc>Speed 0.1 km/h Distance 0.85 km</desc>
<time>2010-02-24T17:18:21.63</time>
<name>779</name>
</trkpt>
<trkpt lat="48.938268" lon="8.655403">
<ele>309.5</ele>
<speed>0.1</speed>
<course>243.0</course>
<desc>Speed 0.1 km/h Distance 0.85 km</desc>
<time>2010-02-24T17:18:22.63</time>
<name>780</name>
</trkpt>
<trkpt lat="48.938265" lon="8.655393">
<ele>310.0</ele>
<speed>0.2</speed>
<course>243.0</course>
<desc>Speed 0.2 km/h Distance 0.85 km</desc>
<time>2010-02-24T17:18:23.63</time>
<name>781</name>
</trkpt>
<trkpt lat="48.938265" lon="8.655393">
<ele>310.0</ele>
<speed>0.1</speed>
<course>243.0</course>
<desc>Speed 0.1 km/h Distance 0.85 km</desc>
<time>2010-02-24T17:18:24.63</time>
<name>782</name>
</trkpt>
<trkpt lat="48.938265" lon="8.655393">
<ele>309.5</ele>
<speed>0.2</speed>
<course>270.0</course>
<desc>Speed 0.2 km/h Distance 0.85 km</desc>
<time>2010-02-24T17:18:25.63</time>
<name>783</name>
</trkpt>
<trkpt lat="48.938265" lon="8.655392">
<ele>309.5</ele>
<speed>0.2</speed>
<course>90.0</course>
<desc>Speed 0.2 km/h Distance 0.85 km</desc>
<time>2010-02-24T17:18:26.63</time>
<name>784</name>
</trkpt>
<trkpt lat="48.938265" lon="8.655393">
<ele>309.5</ele>
<speed>0.3</speed>
<course>270.0</course>
<desc>Speed 0.3 km/h Distance 0.85 km</desc>
<time>2010-02-24T17:18:27.63</time>
<name>785</name>
</trkpt>
<trkpt lat="48.938265" lon="8.655392">
<ele>309.5</ele>
<speed>0.4</speed>
<course>270.0</course>
<desc>Speed 0.4 km/h Distance 0.85 km</desc>
<time>2010-02-24T17:18:28.63</time>
<name>786</name>
</trkpt>
<trkpt lat="48.938265" lon="8.655392">
<ele>309.5</ele>
<speed>0.4</speed>
<course>167.4</course>
<desc>Speed 0.4 km/h Distance 0.85 km</desc>
<time>2010-02-24T17:18:29.63</time>
<name>787</name>
</trkpt>
<trkpt lat="48.938263" lon="8.655392">
<ele>309.5</ele>
<speed>0.3</speed>
<course>167.4</course>
<desc>Speed 0.3 km/h Distance 0.85 km</desc>
<time>2010-02-24T17:18:30.63</time>
<name>788</name>
</trkpt>
<trkpt lat="48.938263" lon="8.655392">
<ele>309.5</ele>
<speed>0.3</speed>
<course>167.4</course>
<desc>Speed 0.3 km/h Distance 0.85 km</desc>
<time>2010-02-24T17:18:31.63</time>
<name>789</name>
</trkpt>
<trkpt lat="48.938263" lon="8.655392">
<ele>309.5</ele>
<speed>0.3</speed>
<course>270.0</course>
<desc>Speed 0.3 km/h Distance 0.85 km</desc>
<time>2010-02-24T17:18:32.63</time>
<name>790</name>
</trkpt>
<trkpt lat="48.938263" lon="8.655390">
<ele>309.5</ele>
<speed>0.2</speed>
<course>209.2</course>
<desc>Speed 0.2 km/h Distance 0.85 km</desc>
<time>2010-02-24T17:18:33.62</time>
<name>791</name>
</trkpt>
<trkpt lat="48.938262" lon="8.655388">
<ele>309.5</ele>
<speed>0.2</speed>
<course>209.2</course>
<desc>Speed 0.2 km/h Distance 0.85 km</desc>
<time>2010-02-24T17:18:34.62</time>
<name>792</name>
</trkpt>
<trkpt lat="48.938262" lon="8.655388">
<ele>309.5</ele>
<speed>0.2</speed>
<course>270.0</course>
<desc>Speed 0.2 km/h Distance 0.85 km</desc>
<time>2010-02-24T17:18:35.63</time>
<name>793</name>
</trkpt>
<trkpt lat="48.938262" lon="8.655387">
<ele>309.5</ele>
<speed>0.2</speed>
<course>12.6</course>
<desc>Speed 0.2 km/h Distance 0.85 km</desc>
<time>2010-02-24T17:18:36.63</time>
<name>794</name>
</trkpt>
<trkpt lat="48.938263" lon="8.655387">
<ele>309.5</ele>
<speed>0.2</speed>
<course>12.6</course>
<desc>Speed 0.2 km/h Distance 0.85 km</desc>
<time>2010-02-24T17:18:37.62</time>
<name>795</name>
</trkpt>
<trkpt lat="48.938263" lon="8.655387">
<ele>309.5</ele>
<speed>0.2</speed>
<course>12.6</course>
<desc>Speed 0.2 km/h Distance 0.85 km</desc>
<time>2010-02-24T17:18:38.62</time>
<name>796</name>
</trkpt>
<trkpt lat="48.938263" lon="8.655387">
<ele>309.0</ele>
<speed>0.0</speed>
<course>12.6</course>
<desc>Speed 0.0 km/h Distance 0.85 km</desc>
<time>2010-02-24T17:18:39.62</time>
<name>797</name>
</trkpt>
<trkpt lat="48.938263" lon="8.655387">
<ele>309.0</ele>
<speed>0.1</speed>
<course>209.2</course>
<desc>Speed 0.1 km/h Distance 0.85 km</desc>
<time>2010-02-24T17:18:40.63</time>
<name>798</name>
</trkpt>
<trkpt lat="48.938262" lon="8.655385">
<ele>309.0</ele>
<speed>0.3</speed>
<course>209.2</course>
<desc>Speed 0.3 km/h Distance 0.85 km</desc>
<time>2010-02-24T17:18:41.62</time>
<name>799</name>
</trkpt>
<trkpt lat="48.938262" lon="8.655385">
<ele>309.0</ele>
<speed>0.2</speed>
<course>209.2</course>
<desc>Speed 0.2 km/h Distance 0.85 km</desc>
<time>2010-02-24T17:18:42.62</time>
<name>800</name>
</trkpt>
<trkpt lat="48.938262" lon="8.655385">
<ele>309.0</ele>
<speed>0.3</speed>
<course>209.2</course>
<desc>Speed 0.3 km/h Distance 0.85 km</desc>
<time>2010-02-24T17:18:43.62</time>
<name>801</name>
</trkpt>
<trkpt lat="48.938262" lon="8.655385">
<ele>309.0</ele>
<speed>0.2</speed>
<course>270.0</course>
<desc>Speed 0.2 km/h Distance 0.85 km</desc>
<time>2010-02-24T17:18:44.62</time>
<name>802</name>
</trkpt>
<trkpt lat="48.938262" lon="8.655383">
<ele>309.0</ele>
<speed>0.2</speed>
<course>270.0</course>
<desc>Speed 0.2 km/h Distance 0.85 km</desc>
<time>2010-02-24T17:18:45.62</time>
<name>803</name>
</trkpt>
<trkpt lat="48.938262" lon="8.655383">
<ele>309.0</ele>
<speed>0.1</speed>
<course>231.9</course>
<desc>Speed 0.1 km/h Distance 0.85 km</desc>
<time>2010-02-24T17:18:46.62</time>
<name>804</name>
</trkpt>
<trkpt lat="48.938260" lon="8.655380">
<ele>309.0</ele>
<speed>0.9</speed>
<course>249.1</course>
<desc>Speed 0.9 km/h Distance 0.85 km</desc>
<time>2010-02-24T17:18:47.62</time>
<name>805</name>
</trkpt>
<trkpt lat="48.938258" lon="8.655373">
<ele>308.5</ele>
<speed>1.5</speed>
<course>270.0</course>
<desc>Speed 1.5 km/h Distance 0.85 km</desc>
<time>2010-02-24T17:18:48.62</time>
<name>806</name>
</trkpt>
<trkpt lat="48.938258" lon="8.655362">
<ele>308.0</ele>
<speed>2.7</speed>
<course>238.7</course>
<desc>Speed 2.7 km/h Distance 0.85 km</desc>
<time>2010-02-24T17:18:49.62</time>
<name>807</name>
</trkpt>
<trkpt lat="48.938248" lon="8.655337">
<ele>309.0</ele>
<speed>2.9</speed>
<course>253.1</course>
<desc>Speed 2.9 km/h Distance 0.86 km</desc>
<time>2010-02-24T17:18:50.62</time>
<name>808</name>
</trkpt>
<trkpt lat="48.938245" lon="8.655320">
<ele>309.5</ele>
<speed>4.1</speed>
<course>249.1</course>
<desc>Speed 4.1 km/h Distance 0.86 km</desc>
<time>2010-02-24T17:18:51.62</time>
<name>809</name>
</trkpt>
<trkpt lat="48.938242" lon="8.655307">
<ele>309.5</ele>
<speed>3.6</speed>
<course>249.1</course>
<desc>Speed 3.6 km/h Distance 0.86 km</desc>
<time>2010-02-24T17:18:52.62</time>
<name>810</name>
</trkpt>
<trkpt lat="48.938240" lon="8.655300">
<ele>309.0</ele>
<speed>2.0</speed>
<course>243.0</course>
<desc>Speed 2.0 km/h Distance 0.86 km</desc>
<time>2010-02-24T17:18:53.62</time>
<name>811</name>
</trkpt>
<trkpt lat="48.938237" lon="8.655290">
<ele>308.5</ele>
<speed>2.8</speed>
<course>259.3</course>
<desc>Speed 2.8 km/h Distance 0.86 km</desc>
<time>2010-02-24T17:18:54.62</time>
<name>812</name>
</trkpt>
<trkpt lat="48.938235" lon="8.655277">
<ele>308.5</ele>
<speed>3.3</speed>
<course>246.5</course>
<desc>Speed 3.3 km/h Distance 0.86 km</desc>
<time>2010-02-24T17:18:55.62</time>
<name>813</name>
</trkpt>
<trkpt lat="48.938232" lon="8.655265">
<ele>309.0</ele>
<speed>3.5</speed>
<course>246.5</course>
<desc>Speed 3.5 km/h Distance 0.86 km</desc>
<time>2010-02-24T17:18:56.62</time>
<name>814</name>
</trkpt>
<trkpt lat="48.938225" lon="8.655242">
<ele>310.0</ele>
<speed>3.1</speed>
<course>260.4</course>
<desc>Speed 3.1 km/h Distance 0.86 km</desc>
<time>2010-02-24T17:18:57.62</time>
<name>815</name>
</trkpt>
<trkpt lat="48.938223" lon="8.655227">
<ele>310.5</ele>
<speed>4.1</speed>
<course>257.7</course>
<desc>Speed 4.1 km/h Distance 0.87 km</desc>
<time>2010-02-24T17:18:58.62</time>
<name>816</name>
</trkpt>
<trkpt lat="48.938220" lon="8.655203">
<ele>311.5</ele>
<speed>4.4</speed>
<course>253.1</course>
<desc>Speed 4.4 km/h Distance 0.87 km</desc>
<time>2010-02-24T17:18:59.62</time>
<name>817</name>
</trkpt>
<trkpt lat="48.938217" lon="8.655187">
<ele>312.0</ele>
<speed>2.6</speed>
<course>251.3</course>
<desc>Speed 2.6 km/h Distance 0.87 km</desc>
<time>2010-02-24T17:19:00.62</time>
<name>818</name>
</trkpt>
<trkpt lat="48.938213" lon="8.655172">
<ele>312.0</ele>
<speed>3.7</speed>
<course>259.3</course>
<desc>Speed 3.7 km/h Distance 0.87 km</desc>
<time>2010-02-24T17:19:01.62</time>
<name>819</name>
</trkpt>
<trkpt lat="48.938212" lon="8.655158">
<ele>312.5</ele>
<speed>3.3</speed>
<course>257.8</course>
<desc>Speed 3.3 km/h Distance 0.87 km</desc>
<time>2010-02-24T17:19:02.62</time>
<name>820</name>
</trkpt>
<trkpt lat="48.938210" lon="8.655147">
<ele>311.5</ele>
<speed>2.8</speed>
<course>296.6</course>
<desc>Speed 2.8 km/h Distance 0.87 km</desc>
<time>2010-02-24T17:19:03.61</time>
<name>821</name>
</trkpt>
<trkpt lat="48.938212" lon="8.655142">
<ele>311.0</ele>
<speed>1.4</speed>
<course>261.4</course>
<desc>Speed 1.4 km/h Distance 0.87 km</desc>
<time>2010-02-24T17:19:04.62</time>
<name>822</name>
</trkpt>
<trkpt lat="48.938210" lon="8.655125">
<ele>310.5</ele>
<speed>3.1</speed>
<course>260.4</course>
<desc>Speed 3.1 km/h Distance 0.87 km</desc>
<time>2010-02-24T17:19:05.62</time>
<name>823</name>
</trkpt>
<trkpt lat="48.938208" lon="8.655110">
<ele>310.0</ele>
<speed>3.7</speed>
<course>278.6</course>
<desc>Speed 3.7 km/h Distance 0.87 km</desc>
<time>2010-02-24T17:19:06.62</time>
<name>824</name>
</trkpt>
<trkpt lat="48.938210" lon="8.655093">
<ele>309.5</ele>
<speed>3.9</speed>
<course>261.4</course>
<desc>Speed 3.9 km/h Distance 0.88 km</desc>
<time>2010-02-24T17:19:07.61</time>
<name>825</name>
</trkpt>
<trkpt lat="48.938208" lon="8.655077">
<ele>309.0</ele>
<speed>4.3</speed>
<course>261.3</course>
<desc>Speed 4.3 km/h Distance 0.88 km</desc>
<time>2010-02-24T17:19:08.61</time>
<name>826</name>
</trkpt>
<trkpt lat="48.938207" lon="8.655060">
<ele>308.5</ele>
<speed>3.9</speed>
<course>270.0</course>
<desc>Speed 3.9 km/h Distance 0.88 km</desc>
<time>2010-02-24T17:19:09.61</time>
<name>827</name>
</trkpt>
<trkpt lat="48.938207" lon="8.655045">
<ele>308.5</ele>
<speed>3.5</speed>
<course>261.3</course>
<desc>Speed 3.5 km/h Distance 0.88 km</desc>
<time>2010-02-24T17:19:10.62</time>
<name>828</name>
</trkpt>
<trkpt lat="48.938205" lon="8.655028">
<ele>308.0</ele>
<speed>3.9</speed>
<course>257.7</course>
<desc>Speed 3.9 km/h Distance 0.88 km</desc>
<time>2010-02-24T17:19:11.61</time>
<name>829</name>
</trkpt>
<trkpt lat="48.938203" lon="8.655017">
<ele>307.0</ele>
<speed>2.7</speed>
<course>259.2</course>
<desc>Speed 2.7 km/h Distance 0.88 km</desc>
<time>2010-02-24T17:19:12.61</time>
<name>830</name>
</trkpt>
<trkpt lat="48.938202" lon="8.655003">
<ele>306.5</ele>
<speed>3.5</speed>
<course>261.3</course>
<desc>Speed 3.5 km/h Distance 0.88 km</desc>
<time>2010-02-24T17:19:13.61</time>
<name>831</name>
</trkpt>
<trkpt lat="48.938200" lon="8.654987">
<ele>306.5</ele>
<speed>4.1</speed>
<course>261.3</course>
<desc>Speed 4.1 km/h Distance 0.88 km</desc>
<time>2010-02-24T17:19:14.61</time>
<name>832</name>
</trkpt>
<trkpt lat="48.938198" lon="8.654970">
<ele>307.0</ele>
<speed>4.4</speed>
<course>270.0</course>
<desc>Speed 4.4 km/h Distance 0.88 km</desc>
<time>2010-02-24T17:19:15.61</time>
<name>833</name>
</trkpt>
<trkpt lat="48.938198" lon="8.654953">
<ele>307.0</ele>
<speed>4.0</speed>
<course>260.4</course>
<desc>Speed 4.0 km/h Distance 0.89 km</desc>
<time>2010-02-24T17:19:16.61</time>
<name>834</name>
</trkpt>
<trkpt lat="48.938197" lon="8.654938">
<ele>307.0</ele>
<speed>3.3</speed>
<course>260.4</course>
<desc>Speed 3.3 km/h Distance 0.89 km</desc>
<time>2010-02-24T17:19:17.61</time>
<name>835</name>
</trkpt>
<trkpt lat="48.938195" lon="8.654923">
<ele>306.5</ele>
<speed>3.7</speed>
<course>270.0</course>
<desc>Speed 3.7 km/h Distance 0.89 km</desc>
<time>2010-02-24T17:19:18.61</time>
<name>836</name>
</trkpt>
<trkpt lat="48.938195" lon="8.654907">
<ele>306.5</ele>
<speed>4.0</speed>
<course>251.4</course>
<desc>Speed 4.0 km/h Distance 0.89 km</desc>
<time>2010-02-24T17:19:19.61</time>
<name>837</name>
</trkpt>
<trkpt lat="48.938192" lon="8.654892">
<ele>307.0</ele>
<speed>3.7</speed>
<course>253.1</course>
<desc>Speed 3.7 km/h Distance 0.89 km</desc>
<time>2010-02-24T17:19:20.61</time>
<name>838</name>
</trkpt>
<trkpt lat="48.938188" lon="8.654875">
<ele>307.5</ele>
<speed>4.3</speed>
<course>261.3</course>
<desc>Speed 4.3 km/h Distance 0.89 km</desc>
<time>2010-02-24T17:19:21.61</time>
<name>839</name>
</trkpt>
<trkpt lat="48.938187" lon="8.654858">
<ele>307.5</ele>
<speed>3.6</speed>
<course>251.3</course>
<desc>Speed 3.6 km/h Distance 0.89 km</desc>
<time>2010-02-24T17:19:22.61</time>
<name>840</name>
</trkpt>
<trkpt lat="48.938183" lon="8.654843">
<ele>308.0</ele>
<speed>3.9</speed>
<course>260.4</course>
<desc>Speed 3.9 km/h Distance 0.89 km</desc>
<time>2010-02-24T17:19:23.61</time>
<name>841</name>
</trkpt>
<trkpt lat="48.938182" lon="8.654828">
<ele>308.5</ele>
<speed>3.9</speed>
<course>260.4</course>
<desc>Speed 3.9 km/h Distance 0.90 km</desc>
<time>2010-02-24T17:19:24.61</time>
<name>842</name>
</trkpt>
<trkpt lat="48.938180" lon="8.654813">
<ele>308.0</ele>
<speed>3.6</speed>
<course>258.5</course>
<desc>Speed 3.6 km/h Distance 0.90 km</desc>
<time>2010-02-24T17:19:25.61</time>
<name>843</name>
</trkpt>
<trkpt lat="48.938177" lon="8.654788">
<ele>308.5</ele>
<speed>4.1</speed>
<course>270.0</course>
<desc>Speed 4.1 km/h Distance 0.90 km</desc>
<time>2010-02-24T17:19:26.61</time>
<name>844</name>
</trkpt>
<trkpt lat="48.938177" lon="8.654772">
<ele>308.0</ele>
<speed>4.0</speed>
<course>270.0</course>
<desc>Speed 4.0 km/h Distance 0.90 km</desc>
<time>2010-02-24T17:19:27.61</time>
<name>845</name>
</trkpt>
<trkpt lat="48.938177" lon="8.654755">
<ele>308.0</ele>
<speed>4.0</speed>
<course>262.1</course>
<desc>Speed 4.0 km/h Distance 0.90 km</desc>
<time>2010-02-24T17:19:28.61</time>
<name>846</name>
</trkpt>
<trkpt lat="48.938175" lon="8.654737">
<ele>308.5</ele>
<speed>4.6</speed>
<course>270.0</course>
<desc>Speed 4.6 km/h Distance 0.90 km</desc>
<time>2010-02-24T17:19:29.61</time>
<name>847</name>
</trkpt>
<trkpt lat="48.938175" lon="8.654722">
<ele>308.0</ele>
<speed>3.7</speed>
<course>257.7</course>
<desc>Speed 3.7 km/h Distance 0.90 km</desc>
<time>2010-02-24T17:19:30.61</time>
<name>848</name>
</trkpt>
<trkpt lat="48.938173" lon="8.654710">
<ele>307.0</ele>
<speed>3.3</speed>
<course>282.3</course>
<desc>Speed 3.3 km/h Distance 0.90 km</desc>
<time>2010-02-24T17:19:31.61</time>
<name>849</name>
</trkpt>
<trkpt lat="48.938175" lon="8.654698">
<ele>306.5</ele>
<speed>3.2</speed>
<course>270.0</course>
<desc>Speed 3.2 km/h Distance 0.90 km</desc>
<time>2010-02-24T17:19:32.61</time>
<name>850</name>
</trkpt>
<trkpt lat="48.938175" lon="8.654687">
<ele>305.5</ele>
<speed>3.1</speed>
<course>260.4</course>
<desc>Speed 3.1 km/h Distance 0.91 km</desc>
<time>2010-02-24T17:19:33.61</time>
<name>851</name>
</trkpt>
<trkpt lat="48.938173" lon="8.654672">
<ele>305.0</ele>
<speed>3.6</speed>
<course>270.0</course>
<desc>Speed 3.6 km/h Distance 0.91 km</desc>
<time>2010-02-24T17:19:34.61</time>
<name>852</name>
</trkpt>
<trkpt lat="48.938173" lon="8.654662">
<ele>304.5</ele>
<speed>2.7</speed>
<course>270.0</course>
<desc>Speed 2.7 km/h Distance 0.91 km</desc>
<time>2010-02-24T17:19:35.61</time>
<name>853</name>
</trkpt>
<trkpt lat="48.938173" lon="8.654648">
<ele>304.5</ele>
<speed>3.1</speed>
<course>254.5</course>
<desc>Speed 3.1 km/h Distance 0.91 km</desc>
<time>2010-02-24T17:19:36.61</time>
<name>854</name>
</trkpt>
<trkpt lat="48.938170" lon="8.654630">
<ele>305.5</ele>
<speed>4.8</speed>
<course>262.8</course>
<desc>Speed 4.8 km/h Distance 0.91 km</desc>
<time>2010-02-24T17:19:37.61</time>
<name>855</name>
</trkpt>
<trkpt lat="48.938168" lon="8.654610">
<ele>306.5</ele>
<speed>5.0</speed>
<course>261.3</course>
<desc>Speed 5.0 km/h Distance 0.91 km</desc>
<time>2010-02-24T17:19:38.61</time>
<name>856</name>
</trkpt>
<trkpt lat="48.938167" lon="8.654593">
<ele>306.5</ele>
<speed>4.0</speed>
<course>253.1</course>
<desc>Speed 4.0 km/h Distance 0.91 km</desc>
<time>2010-02-24T17:19:39.61</time>
<name>857</name>
</trkpt>
<trkpt lat="48.938163" lon="8.654577">
<ele>306.5</ele>
<speed>4.3</speed>
<course>254.5</course>
<desc>Speed 4.3 km/h Distance 0.91 km</desc>
<time>2010-02-24T17:19:40.60</time>
<name>858</name>
</trkpt>
<trkpt lat="48.938160" lon="8.654558">
<ele>307.0</ele>
<speed>4.6</speed>
<course>254.5</course>
<desc>Speed 4.6 km/h Distance 0.92 km</desc>
<time>2010-02-24T17:19:41.61</time>
<name>859</name>
</trkpt>
<trkpt lat="48.938157" lon="8.654540">
<ele>307.5</ele>
<speed>4.6</speed>
<course>261.3</course>
<desc>Speed 4.6 km/h Distance 0.92 km</desc>
<time>2010-02-24T17:19:42.60</time>
<name>860</name>
</trkpt>
<trkpt lat="48.938155" lon="8.654523">
<ele>307.5</ele>
<speed>4.5</speed>
<course>262.8</course>
<desc>Speed 4.5 km/h Distance 0.92 km</desc>
<time>2010-02-24T17:19:43.61</time>
<name>861</name>
</trkpt>
<trkpt lat="48.938153" lon="8.654503">
<ele>308.0</ele>
<speed>4.8</speed>
<course>270.0</course>
<desc>Speed 4.8 km/h Distance 0.92 km</desc>
<time>2010-02-24T17:19:44.60</time>
<name>862</name>
</trkpt>
<trkpt lat="48.938153" lon="8.654485">
<ele>308.0</ele>
<speed>4.6</speed>
<course>262.1</course>
<desc>Speed 4.6 km/h Distance 0.92 km</desc>
<time>2010-02-24T17:19:45.61</time>
<name>863</name>
</trkpt>
<trkpt lat="48.938152" lon="8.654467">
<ele>308.5</ele>
<speed>4.8</speed>
<course>270.0</course>
<desc>Speed 4.8 km/h Distance 0.92 km</desc>
<time>2010-02-24T17:19:46.60</time>
<name>864</name>
</trkpt>
<trkpt lat="48.938152" lon="8.654450">
<ele>308.5</ele>
<speed>4.2</speed>
<course>261.3</course>
<desc>Speed 4.2 km/h Distance 0.92 km</desc>
<time>2010-02-24T17:19:47.60</time>
<name>865</name>
</trkpt>
<trkpt lat="48.938150" lon="8.654433">
<ele>308.0</ele>
<speed>3.7</speed>
<course>253.1</course>
<desc>Speed 3.7 km/h Distance 0.92 km</desc>
<time>2010-02-24T17:19:48.60</time>
<name>866</name>
</trkpt>
<trkpt lat="48.938147" lon="8.654417">
<ele>308.5</ele>
<speed>4.5</speed>
<course>251.3</course>
<desc>Speed 4.5 km/h Distance 0.93 km</desc>
<time>2010-02-24T17:19:49.60</time>
<name>867</name>
</trkpt>
<trkpt lat="48.938143" lon="8.654402">
<ele>308.5</ele>
<speed>4.0</speed>
<course>261.3</course>
<desc>Speed 4.0 km/h Distance 0.93 km</desc>
<time>2010-02-24T17:19:50.60</time>
<name>868</name>
</trkpt>
<trkpt lat="48.938142" lon="8.654385">
<ele>309.5</ele>
<speed>4.4</speed>
<course>261.3</course>
<desc>Speed 4.4 km/h Distance 0.93 km</desc>
<time>2010-02-24T17:19:51.60</time>
<name>869</name>
</trkpt>
<trkpt lat="48.938140" lon="8.654368">
<ele>309.5</ele>
<speed>4.1</speed>
<course>261.3</course>
<desc>Speed 4.1 km/h Distance 0.93 km</desc>
<time>2010-02-24T17:19:52.60</time>
<name>870</name>
</trkpt>
<trkpt lat="48.938138" lon="8.654352">
<ele>309.5</ele>
<speed>3.7</speed>
<course>261.3</course>
<desc>Speed 3.7 km/h Distance 0.93 km</desc>
<time>2010-02-24T17:19:53.60</time>
<name>871</name>
</trkpt>
<trkpt lat="48.938137" lon="8.654335">
<ele>309.5</ele>
<speed>4.1</speed>
<course>262.1</course>
<desc>Speed 4.1 km/h Distance 0.93 km</desc>
<time>2010-02-24T17:19:54.60</time>
<name>872</name>
</trkpt>
<trkpt lat="48.938135" lon="8.654317">
<ele>309.5</ele>
<speed>4.0</speed>
<course>261.3</course>
<desc>Speed 4.0 km/h Distance 0.93 km</desc>
<time>2010-02-24T17:19:55.60</time>
<name>873</name>
</trkpt>
<trkpt lat="48.938133" lon="8.654300">
<ele>310.0</ele>
<speed>4.5</speed>
<course>254.5</course>
<desc>Speed 4.5 km/h Distance 0.93 km</desc>
<time>2010-02-24T17:19:56.60</time>
<name>874</name>
</trkpt>
<trkpt lat="48.938130" lon="8.654282">
<ele>310.5</ele>
<speed>4.5</speed>
<course>262.8</course>
<desc>Speed 4.5 km/h Distance 0.94 km</desc>
<time>2010-02-24T17:19:57.60</time>
<name>875</name>
</trkpt>
<trkpt lat="48.938128" lon="8.654262">
<ele>311.0</ele>
<speed>5.0</speed>
<course>262.1</course>
<desc>Speed 5.0 km/h Distance 0.94 km</desc>
<time>2010-02-24T17:19:58.60</time>
<name>876</name>
</trkpt>
<trkpt lat="48.938127" lon="8.654243">
<ele>311.5</ele>
<speed>4.5</speed>
<course>270.0</course>
<desc>Speed 4.5 km/h Distance 0.94 km</desc>
<time>2010-02-24T17:19:59.60</time>
<name>877</name>
</trkpt>
<trkpt lat="48.938127" lon="8.654225">
<ele>311.0</ele>
<speed>4.0</speed>
<course>262.1</course>
<desc>Speed 4.0 km/h Distance 0.94 km</desc>
<time>2010-02-24T17:20:00.60</time>
<name>878</name>
</trkpt>
<trkpt lat="48.938125" lon="8.654207">
<ele>311.5</ele>
<speed>4.2</speed>
<course>261.4</course>
<desc>Speed 4.2 km/h Distance 0.94 km</desc>
<time>2010-02-24T17:20:01.60</time>
<name>879</name>
</trkpt>
<trkpt lat="48.938123" lon="8.654190">
<ele>311.5</ele>
<speed>4.0</speed>
<course>262.8</course>
<desc>Speed 4.0 km/h Distance 0.94 km</desc>
<time>2010-02-24T17:20:02.60</time>
<name>880</name>
</trkpt>
<trkpt lat="48.938122" lon="8.654170">
<ele>311.5</ele>
<speed>4.5</speed>
<course>262.1</course>
<desc>Speed 4.5 km/h Distance 0.94 km</desc>
<time>2010-02-24T17:20:03.60</time>
<name>881</name>
</trkpt>
<trkpt lat="48.938120" lon="8.654152">
<ele>311.0</ele>
<speed>4.6</speed>
<course>253.1</course>
<desc>Speed 4.6 km/h Distance 0.95 km</desc>
<time>2010-02-24T17:20:04.60</time>
<name>882</name>
</trkpt>
<trkpt lat="48.938117" lon="8.654135">
<ele>311.5</ele>
<speed>4.3</speed>
<course>262.1</course>
<desc>Speed 4.3 km/h Distance 0.95 km</desc>
<time>2010-02-24T17:20:05.60</time>
<name>883</name>
</trkpt>
<trkpt lat="48.938115" lon="8.654117">
<ele>311.5</ele>
<speed>4.7</speed>
<course>263.3</course>
<desc>Speed 4.7 km/h Distance 0.95 km</desc>
<time>2010-02-24T17:20:06.60</time>
<name>884</name>
</trkpt>
<trkpt lat="48.938113" lon="8.654095">
<ele>311.5</ele>
<speed>5.0</speed>
<course>263.3</course>
<desc>Speed 5.0 km/h Distance 0.95 km</desc>
<time>2010-02-24T17:20:07.60</time>
<name>885</name>
</trkpt>
<trkpt lat="48.938112" lon="8.654073">
<ele>312.0</ele>
<speed>5.4</speed>
<course>270.0</course>
<desc>Speed 5.4 km/h Distance 0.95 km</desc>
<time>2010-02-24T17:20:08.60</time>
<name>886</name>
</trkpt>
<trkpt lat="48.938112" lon="8.654052">
<ele>312.0</ele>
<speed>4.8</speed>
<course>262.8</course>
<desc>Speed 4.8 km/h Distance 0.95 km</desc>
<time>2010-02-24T17:20:09.60</time>
<name>887</name>
</trkpt>
<trkpt lat="48.938110" lon="8.654032">
<ele>312.5</ele>
<speed>4.7</speed>
<course>270.0</course>
<desc>Speed 4.7 km/h Distance 0.95 km</desc>
<time>2010-02-24T17:20:10.61</time>
<name>888</name>
</trkpt>
<trkpt lat="48.938110" lon="8.654013">
<ele>312.5</ele>
<speed>4.5</speed>
<course>262.1</course>
<desc>Speed 4.5 km/h Distance 0.96 km</desc>
<time>2010-02-24T17:20:11.60</time>
<name>889</name>
</trkpt>
<trkpt lat="48.938108" lon="8.653995">
<ele>312.5</ele>
<speed>4.4</speed>
<course>255.8</course>
<desc>Speed 4.4 km/h Distance 0.96 km</desc>
<time>2010-02-24T17:20:12.60</time>
<name>890</name>
</trkpt>
<trkpt lat="48.938105" lon="8.653975">
<ele>312.5</ele>
<speed>4.6</speed>
<course>262.8</course>
<desc>Speed 4.6 km/h Distance 0.96 km</desc>
<time>2010-02-24T17:20:13.60</time>
<name>891</name>
</trkpt>
<trkpt lat="48.938103" lon="8.653955">
<ele>312.5</ele>
<speed>4.8</speed>
<course>255.8</course>
<desc>Speed 4.8 km/h Distance 0.96 km</desc>
<time>2010-02-24T17:20:14.60</time>
<name>892</name>
</trkpt>
<trkpt lat="48.938100" lon="8.653935">
<ele>312.0</ele>
<speed>4.4</speed>
<course>261.3</course>
<desc>Speed 4.4 km/h Distance 0.96 km</desc>
<time>2010-02-24T17:20:15.60</time>
<name>893</name>
</trkpt>
<trkpt lat="48.938098" lon="8.653918">
<ele>312.0</ele>
<speed>4.0</speed>
<course>270.0</course>
<desc>Speed 4.0 km/h Distance 0.96 km</desc>
<time>2010-02-24T17:20:16.60</time>
<name>894</name>
</trkpt>
<trkpt lat="48.938098" lon="8.653898">
<ele>312.0</ele>
<speed>4.4</speed>
<course>262.1</course>
<desc>Speed 4.4 km/h Distance 0.96 km</desc>
<time>2010-02-24T17:20:17.60</time>
<name>895</name>
</trkpt>
<trkpt lat="48.938097" lon="8.653880">
<ele>312.0</ele>
<speed>4.6</speed>
<course>270.0</course>
<desc>Speed 4.6 km/h Distance 0.97 km</desc>
<time>2010-02-24T17:20:18.60</time>
<name>896</name>
</trkpt>
<trkpt lat="48.938097" lon="8.653863">
<ele>312.0</ele>
<speed>4.4</speed>
<course>270.0</course>
<desc>Speed 4.4 km/h Distance 0.97 km</desc>
<time>2010-02-24T17:20:19.60</time>
<name>897</name>
</trkpt>
<trkpt lat="48.938097" lon="8.653847">
<ele>311.5</ele>
<speed>3.6</speed>
<course>279.6</course>
<desc>Speed 3.6 km/h Distance 0.97 km</desc>
<time>2010-02-24T17:20:20.60</time>
<name>898</name>
</trkpt>
<trkpt lat="48.938098" lon="8.653832">
<ele>311.5</ele>
<speed>4.2</speed>
<course>270.0</course>
<desc>Speed 4.2 km/h Distance 0.97 km</desc>
<time>2010-02-24T17:20:21.60</time>
<name>899</name>
</trkpt>
<trkpt lat="48.938098" lon="8.653812">
<ele>312.0</ele>
<speed>5.0</speed>
<course>270.0</course>
<desc>Speed 5.0 km/h Distance 0.97 km</desc>
<time>2010-02-24T17:20:22.60</time>
<name>900</name>
</trkpt>
<trkpt lat="48.938098" lon="8.653797">
<ele>311.0</ele>
<speed>3.7</speed>
<course>270.0</course>
<desc>Speed 3.7 km/h Distance 0.97 km</desc>
<time>2010-02-24T17:20:23.60</time>
<name>901</name>
</trkpt>
<trkpt lat="48.938098" lon="8.653780">
<ele>311.0</ele>
<speed>4.1</speed>
<course>270.0</course>
<desc>Speed 4.1 km/h Distance 0.97 km</desc>
<time>2010-02-24T17:20:24.60</time>
<name>902</name>
</trkpt>
<trkpt lat="48.938098" lon="8.653767">
<ele>310.5</ele>
<speed>3.3</speed>
<course>261.3</course>
<desc>Speed 3.3 km/h Distance 0.97 km</desc>
<time>2010-02-24T17:20:25.60</time>
<name>903</name>
</trkpt>
<trkpt lat="48.938097" lon="8.653750">
<ele>310.5</ele>
<speed>4.0</speed>
<course>270.0</course>
<desc>Speed 4.0 km/h Distance 0.97 km</desc>
<time>2010-02-24T17:20:26.60</time>
<name>904</name>
</trkpt>
<trkpt lat="48.938097" lon="8.653742">
<ele>310.0</ele>
<speed>2.0</speed>
<course>242.6</course>
<desc>Speed 2.0 km/h Distance 0.98 km</desc>
<time>2010-02-24T17:20:27.60</time>
<name>905</name>
</trkpt>
<trkpt lat="48.938095" lon="8.653737">
<ele>311.5</ele>
<speed>1.4</speed>
<course>242.6</course>
<desc>Speed 1.4 km/h Distance 0.98 km</desc>
<time>2010-02-24T17:20:28.60</time>
<name>906</name>
</trkpt>
<trkpt lat="48.938095" lon="8.653737">
<ele>311.0</ele>
<speed>0.3</speed>
<course>322.8</course>
<desc>Speed 0.3 km/h Distance 0.98 km</desc>
<time>2010-02-24T17:20:29.60</time>
<name>907</name>
</trkpt>
<trkpt lat="48.938097" lon="8.653735">
<ele>311.0</ele>
<speed>0.4</speed>
<course>322.8</course>
<desc>Speed 0.4 km/h Distance 0.98 km</desc>
<time>2010-02-24T17:20:30.60</time>
<name>908</name>
</trkpt>
<trkpt lat="48.938097" lon="8.653735">
<ele>311.0</ele>
<speed>0.6</speed>
<course>312.6</course>
<desc>Speed 0.6 km/h Distance 0.98 km</desc>
<time>2010-02-24T17:20:31.60</time>
<name>909</name>
</trkpt>
<trkpt lat="48.938102" lon="8.653727">
<ele>310.5</ele>
<speed>2.5</speed>
<course>286.9</course>
<desc>Speed 2.5 km/h Distance 0.98 km</desc>
<time>2010-02-24T17:20:32.60</time>
<name>910</name>
</trkpt>
<trkpt lat="48.938105" lon="8.653710">
<ele>310.5</ele>
<speed>4.1</speed>
<course>270.0</course>
<desc>Speed 4.1 km/h Distance 0.98 km</desc>
<time>2010-02-24T17:20:33.60</time>
<name>911</name>
</trkpt>
<trkpt lat="48.938105" lon="8.653695">
<ele>310.0</ele>
<speed>3.3</speed>
<course>260.4</course>
<desc>Speed 3.3 km/h Distance 0.98 km</desc>
<time>2010-02-24T17:20:34.60</time>
<name>912</name>
</trkpt>
<trkpt lat="48.938103" lon="8.653680">
<ele>310.5</ele>
<speed>3.9</speed>
<course>251.3</course>
<desc>Speed 3.9 km/h Distance 0.98 km</desc>
<time>2010-02-24T17:20:35.60</time>
<name>913</name>
</trkpt>
<trkpt lat="48.938100" lon="8.653665">
<ele>310.5</ele>
<speed>3.9</speed>
<course>270.0</course>
<desc>Speed 3.9 km/h Distance 0.98 km</desc>
<time>2010-02-24T17:20:36.60</time>
<name>914</name>
</trkpt>
<trkpt lat="48.938100" lon="8.653647">
<ele>310.5</ele>
<speed>3.9</speed>
<course>251.3</course>
<desc>Speed 3.9 km/h Distance 0.98 km</desc>
<time>2010-02-24T17:20:37.60</time>
<name>915</name>
</trkpt>
<trkpt lat="48.938097" lon="8.653632">
<ele>310.0</ele>
<speed>4.1</speed>
<course>251.9</course>
<desc>Speed 4.1 km/h Distance 0.98 km</desc>
<time>2010-02-24T17:20:38.60</time>
<name>916</name>
</trkpt>
<trkpt lat="48.938092" lon="8.653608">
<ele>311.0</ele>
<speed>4.6</speed>
<course>260.4</course>
<desc>Speed 4.6 km/h Distance 0.99 km</desc>
<time>2010-02-24T17:20:39.60</time>
<name>917</name>
</trkpt>
<trkpt lat="48.938090" lon="8.653593">
<ele>310.5</ele>
<speed>3.7</speed>
<course>270.0</course>
<desc>Speed 3.7 km/h Distance 0.99 km</desc>
<time>2010-02-24T17:20:40.60</time>
<name>918</name>
</trkpt>
<trkpt lat="48.938090" lon="8.653575">
<ele>310.0</ele>
<speed>4.2</speed>
<course>261.4</course>
<desc>Speed 4.2 km/h Distance 0.99 km</desc>
<time>2010-02-24T17:20:41.60</time>
<name>919</name>
</trkpt>
<trkpt lat="48.938088" lon="8.653558">
<ele>310.0</ele>
<speed>3.6</speed>
<course>260.4</course>
<desc>Speed 3.6 km/h Distance 0.99 km</desc>
<time>2010-02-24T17:20:42.60</time>
<name>920</name>
</trkpt>
<trkpt lat="48.938087" lon="8.653543">
<ele>310.0</ele>
<speed>3.7</speed>
<course>259.3</course>
<desc>Speed 3.7 km/h Distance 0.99 km</desc>
<time>2010-02-24T17:20:43.60</time>
<name>921</name>
</trkpt>
<trkpt lat="48.938085" lon="8.653530">
<ele>309.5</ele>
<speed>3.6</speed>
<course>259.2</course>
<desc>Speed 3.6 km/h Distance 0.99 km</desc>
<time>2010-02-24T17:20:44.60</time>
<name>922</name>
</trkpt>
<trkpt lat="48.938083" lon="8.653517">
<ele>309.5</ele>
<speed>3.8</speed>
<course>270.0</course>
<desc>Speed 3.8 km/h Distance 0.99 km</desc>
<time>2010-02-24T17:20:45.60</time>
<name>923</name>
</trkpt>
<trkpt lat="48.938083" lon="8.653500">
<ele>310.0</ele>
<speed>4.1</speed>
<course>260.4</course>
<desc>Speed 4.1 km/h Distance 0.99 km</desc>
<time>2010-02-24T17:20:46.60</time>
<name>924</name>
</trkpt>
<trkpt lat="48.938082" lon="8.653485">
<ele>310.0</ele>
<speed>3.9</speed>
<course>260.4</course>
<desc>Speed 3.9 km/h Distance 1.00 km</desc>
<time>2010-02-24T17:20:47.60</time>
<name>925</name>
</trkpt>
<trkpt lat="48.938080" lon="8.653470">
<ele>310.5</ele>
<speed>4.0</speed>
<course>253.1</course>
<desc>Speed 4.0 km/h Distance 1.00 km</desc>
<time>2010-02-24T17:20:48.60</time>
<name>926</name>
</trkpt>
<trkpt lat="48.938077" lon="8.653453">
<ele>311.0</ele>
<speed>4.5</speed>
<course>260.4</course>
<desc>Speed 4.5 km/h Distance 1.00 km</desc>
<time>2010-02-24T17:20:49.60</time>
<name>927</name>
</trkpt>
<trkpt lat="48.938075" lon="8.653438">
<ele>312.0</ele>
<speed>4.1</speed>
<course>250.6</course>
<desc>Speed 4.1 km/h Distance 1.00 km</desc>
<time>2010-02-24T17:20:50.60</time>
<name>928</name>
</trkpt>
<trkpt lat="48.938070" lon="8.653417">
<ele>313.5</ele>
<speed>3.7</speed>
<course>254.1</course>
<desc>Speed 3.7 km/h Distance 1.00 km</desc>
<time>2010-02-24T17:20:51.60</time>
<name>929</name>
</trkpt>
<trkpt lat="48.938065" lon="8.653390">
<ele>315.5</ele>
<speed>4.5</speed>
<course>251.3</course>
<desc>Speed 4.5 km/h Distance 1.00 km</desc>
<time>2010-02-24T17:20:52.60</time>
<name>930</name>
</trkpt>
<trkpt lat="48.938058" lon="8.653360">
<ele>318.0</ele>
<speed>4.8</speed>
<course>270.0</course>
<desc>Speed 4.8 km/h Distance 1.00 km</desc>
<time>2010-02-24T17:20:53.60</time>
<name>931</name>
</trkpt>
<trkpt lat="48.938058" lon="8.653342">
<ele>318.0</ele>
<speed>4.6</speed>
<course>252.4</course>
<desc>Speed 4.6 km/h Distance 1.01 km</desc>
<time>2010-02-24T17:20:54.60</time>
<name>932</name>
</trkpt>
<trkpt lat="48.938050" lon="8.653302">
<ele>320.5</ele>
<speed>4.8</speed>
<course>270.0</course>
<desc>Speed 4.8 km/h Distance 1.01 km</desc>
<time>2010-02-24T17:20:55.60</time>
<name>933</name>
</trkpt>
<trkpt lat="48.938050" lon="8.653285">
<ele>320.0</ele>
<speed>4.2</speed>
<course>278.7</course>
<desc>Speed 4.2 km/h Distance 1.01 km</desc>
<time>2010-02-24T17:20:56.60</time>
<name>934</name>
</trkpt>
<trkpt lat="48.938052" lon="8.653268">
<ele>320.0</ele>
<speed>4.2</speed>
<course>270.0</course>
<desc>Speed 4.2 km/h Distance 1.01 km</desc>
<time>2010-02-24T17:20:57.60</time>
<name>935</name>
</trkpt>
<trkpt lat="48.938052" lon="8.653252">
<ele>320.0</ele>
<speed>4.5</speed>
<course>279.6</course>
<desc>Speed 4.5 km/h Distance 1.01 km</desc>
<time>2010-02-24T17:20:58.60</time>
<name>936</name>
</trkpt>
<trkpt lat="48.938053" lon="8.653237">
<ele>320.0</ele>
<speed>4.3</speed>
<course>279.6</course>
<desc>Speed 4.3 km/h Distance 1.01 km</desc>
<time>2010-02-24T17:20:59.60</time>
<name>937</name>
</trkpt>
<trkpt lat="48.938055" lon="8.653222">
<ele>319.5</ele>
<speed>4.2</speed>
<course>279.6</course>
<desc>Speed 4.2 km/h Distance 1.01 km</desc>
<time>2010-02-24T17:21:00.60</time>
<name>938</name>
</trkpt>
<trkpt lat="48.938057" lon="8.653207">
<ele>319.0</ele>
<speed>3.5</speed>
<course>270.0</course>
<desc>Speed 3.5 km/h Distance 1.02 km</desc>
<time>2010-02-24T17:21:01.60</time>
<name>939</name>
</trkpt>
<trkpt lat="48.938057" lon="8.653193">
<ele>318.5</ele>
<speed>3.5</speed>
<course>282.3</course>
<desc>Speed 3.5 km/h Distance 1.02 km</desc>
<time>2010-02-24T17:21:02.60</time>
<name>940</name>
</trkpt>
<trkpt lat="48.938058" lon="8.653182">
<ele>318.0</ele>
<speed>3.0</speed>
<course>278.7</course>
<desc>Speed 3.0 km/h Distance 1.02 km</desc>
<time>2010-02-24T17:21:03.60</time>
<name>941</name>
</trkpt>
<trkpt lat="48.938060" lon="8.653165">
<ele>317.5</ele>
<speed>3.6</speed>
<course>299.7</course>
<desc>Speed 3.6 km/h Distance 1.02 km</desc>
<time>2010-02-24T17:21:04.60</time>
<name>942</name>
</trkpt>
<trkpt lat="48.938065" lon="8.653152">
<ele>317.0</ele>
<speed>3.6</speed>
<course>286.9</course>
<desc>Speed 3.6 km/h Distance 1.02 km</desc>
<time>2010-02-24T17:21:05.60</time>
<name>943</name>
</trkpt>
<trkpt lat="48.938068" lon="8.653135">
<ele>316.5</ele>
<speed>3.9</speed>
<course>286.9</course>
<desc>Speed 3.9 km/h Distance 1.02 km</desc>
<time>2010-02-24T17:21:06.60</time>
<name>944</name>
</trkpt>
<trkpt lat="48.938072" lon="8.653118">
<ele>316.5</ele>
<speed>4.0</speed>
<course>286.9</course>
<desc>Speed 4.0 km/h Distance 1.02 km</desc>
<time>2010-02-24T17:21:07.60</time>
<name>945</name>
</trkpt>
<trkpt lat="48.938075" lon="8.653102">
<ele>317.0</ele>
<speed>4.2</speed>
<course>299.7</course>
<desc>Speed 4.2 km/h Distance 1.02 km</desc>
<time>2010-02-24T17:21:08.60</time>
<name>946</name>
</trkpt>
<trkpt lat="48.938080" lon="8.653088">
<ele>316.5</ele>
<speed>3.2</speed>
<course>326.8</course>
<desc>Speed 3.2 km/h Distance 1.03 km</desc>
<time>2010-02-24T17:21:09.60</time>
<name>947</name>
</trkpt>
<trkpt lat="48.938088" lon="8.653080">
<ele>315.5</ele>
<speed>3.3</speed>
<course>276.7</course>
<desc>Speed 3.3 km/h Distance 1.03 km</desc>
<time>2010-02-24T17:21:10.60</time>
<name>948</name>
</trkpt>
<trkpt lat="48.938090" lon="8.653058">
<ele>316.0</ele>
<speed>5.0</speed>
<course>326.3</course>
<desc>Speed 5.0 km/h Distance 1.03 km</desc>
<time>2010-02-24T17:21:11.60</time>
<name>949</name>
</trkpt>
<trkpt lat="48.938097" lon="8.653052">
<ele>314.0</ele>
<speed>2.7</speed>
<course>285.5</course>
<desc>Speed 2.7 km/h Distance 1.03 km</desc>
<time>2010-02-24T17:21:12.60</time>
<name>950</name>
</trkpt>
<trkpt lat="48.938100" lon="8.653033">
<ele>314.5</ele>
<speed>4.6</speed>
<course>276.7</course>
<desc>Speed 4.6 km/h Distance 1.03 km</desc>
<time>2010-02-24T17:21:13.60</time>
<name>951</name>
</trkpt>
<trkpt lat="48.938102" lon="8.653012">
<ele>315.0</ele>
<speed>5.0</speed>
<course>286.9</course>
<desc>Speed 5.0 km/h Distance 1.03 km</desc>
<time>2010-02-24T17:21:14.60</time>
<name>952</name>
</trkpt>
<trkpt lat="48.938105" lon="8.652995">
<ele>315.5</ele>
<speed>4.4</speed>
<course>292.5</course>
<desc>Speed 4.4 km/h Distance 1.03 km</desc>
<time>2010-02-24T17:21:15.60</time>
<name>953</name>
</trkpt>
<trkpt lat="48.938110" lon="8.652977">
<ele>316.5</ele>
<speed>4.3</speed>
<course>290.8</course>
<desc>Speed 4.3 km/h Distance 1.03 km</desc>
<time>2010-02-24T17:21:16.60</time>
<name>954</name>
</trkpt>
<trkpt lat="48.938115" lon="8.652957">
<ele>317.0</ele>
<speed>4.1</speed>
<course>284.2</course>
<desc>Speed 4.1 km/h Distance 1.04 km</desc>
<time>2010-02-24T17:21:17.60</time>
<name>955</name>
</trkpt>
<trkpt lat="48.938118" lon="8.652937">
<ele>317.5</ele>
<speed>3.9</speed>
<course>292.5</course>
<desc>Speed 3.9 km/h Distance 1.04 km</desc>
<time>2010-02-24T17:21:18.60</time>
<name>956</name>
</trkpt>
<trkpt lat="48.938123" lon="8.652918">
<ele>318.0</ele>
<speed>4.4</speed>
<course>285.5</course>
<desc>Speed 4.4 km/h Distance 1.04 km</desc>
<time>2010-02-24T17:21:19.60</time>
<name>957</name>
</trkpt>
<trkpt lat="48.938127" lon="8.652900">
<ele>318.0</ele>
<speed>4.1</speed>
<course>285.5</course>
<desc>Speed 4.1 km/h Distance 1.04 km</desc>
<time>2010-02-24T17:21:20.60</time>
<name>958</name>
</trkpt>
<trkpt lat="48.938130" lon="8.652882">
<ele>318.0</ele>
<speed>3.9</speed>
<course>284.3</course>
<desc>Speed 3.9 km/h Distance 1.04 km</desc>
<time>2010-02-24T17:21:21.60</time>
<name>959</name>
</trkpt>
<trkpt lat="48.938133" lon="8.652862">
<ele>319.0</ele>
<speed>4.4</speed>
<course>285.5</course>
<desc>Speed 4.4 km/h Distance 1.04 km</desc>
<time>2010-02-24T17:21:22.60</time>
<name>960</name>
</trkpt>
<trkpt lat="48.938137" lon="8.652843">
<ele>319.0</ele>
<speed>4.5</speed>
<course>279.6</course>
<desc>Speed 4.5 km/h Distance 1.04 km</desc>
<time>2010-02-24T17:21:23.60</time>
<name>961</name>
</trkpt>
<trkpt lat="48.938138" lon="8.652828">
<ele>319.5</ele>
<speed>4.0</speed>
<course>285.4</course>
<desc>Speed 4.0 km/h Distance 1.05 km</desc>
<time>2010-02-24T17:21:24.60</time>
<name>962</name>
</trkpt>
<trkpt lat="48.938142" lon="8.652810">
<ele>320.0</ele>
<speed>4.2</speed>
<course>277.9</course>
<desc>Speed 4.2 km/h Distance 1.05 km</desc>
<time>2010-02-24T17:21:25.60</time>
<name>963</name>
</trkpt>
<trkpt lat="48.938143" lon="8.652792">
<ele>320.5</ele>
<speed>4.6</speed>
<course>290.8</course>
<desc>Speed 4.6 km/h Distance 1.05 km</desc>
<time>2010-02-24T17:21:26.60</time>
<name>964</name>
</trkpt>
<trkpt lat="48.938148" lon="8.652772">
<ele>321.5</ele>
<speed>4.5</speed>
<course>332.5</course>
<desc>Speed 4.5 km/h Distance 1.05 km</desc>
<time>2010-02-24T17:21:27.60</time>
<name>965</name>
</trkpt>
<trkpt lat="48.938157" lon="8.652765">
<ele>320.5</ele>
<speed>3.3</speed>
<course>326.8</course>
<desc>Speed 3.3 km/h Distance 1.05 km</desc>
<time>2010-02-24T17:21:28.60</time>
<name>966</name>
</trkpt>
<trkpt lat="48.938165" lon="8.652757">
<ele>319.5</ele>
<speed>3.2</speed>
<course>303.1</course>
<desc>Speed 3.2 km/h Distance 1.05 km</desc>
<time>2010-02-24T17:21:29.60</time>
<name>967</name>
</trkpt>
<trkpt lat="48.938170" lon="8.652745">
<ele>319.0</ele>
<speed>2.7</speed>
<course>321.9</course>
<desc>Speed 2.7 km/h Distance 1.05 km</desc>
<time>2010-02-24T17:21:30.60</time>
<name>968</name>
</trkpt>
<trkpt lat="48.938178" lon="8.652735">
<ele>318.0</ele>
<speed>3.5</speed>
<course>312.2</course>
<desc>Speed 3.5 km/h Distance 1.05 km</desc>
<time>2010-02-24T17:21:31.60</time>
<name>969</name>
</trkpt>
<trkpt lat="48.938183" lon="8.652727">
<ele>317.5</ele>
<speed>2.7</speed>
<course>312.6</course>
<desc>Speed 2.7 km/h Distance 1.06 km</desc>
<time>2010-02-24T17:21:32.60</time>
<name>970</name>
</trkpt>
<trkpt lat="48.938188" lon="8.652718">
<ele>317.0</ele>
<speed>2.4</speed>
<course>320.6</course>
<desc>Speed 2.4 km/h Distance 1.06 km</desc>
<time>2010-02-24T17:21:33.60</time>
<name>971</name>
</trkpt>
<trkpt lat="48.938195" lon="8.652710">
<ele>315.5</ele>
<speed>3.0</speed>
<course>318.6</course>
<desc>Speed 3.0 km/h Distance 1.06 km</desc>
<time>2010-02-24T17:21:34.60</time>
<name>972</name>
</trkpt>
<trkpt lat="48.938200" lon="8.652703">
<ele>314.0</ele>
<speed>2.3</speed>
<course>320.6</course>
<desc>Speed 2.3 km/h Distance 1.06 km</desc>
<time>2010-02-24T17:21:35.60</time>
<name>973</name>
</trkpt>
<trkpt lat="48.938207" lon="8.652695">
<ele>313.5</ele>
<speed>2.5</speed>
<course>307.2</course>
<desc>Speed 2.5 km/h Distance 1.06 km</desc>
<time>2010-02-24T17:21:36.60</time>
<name>974</name>
</trkpt>
<trkpt lat="48.938212" lon="8.652685">
<ele>313.5</ele>
<speed>2.6</speed>
<course>326.8</course>
<desc>Speed 2.6 km/h Distance 1.06 km</desc>
<time>2010-02-24T17:21:37.60</time>
<name>975</name>
</trkpt>
<trkpt lat="48.938220" lon="8.652677">
<ele>312.5</ele>
<speed>2.4</speed>
<course>294.5</course>
<desc>Speed 2.4 km/h Distance 1.06 km</desc>
<time>2010-02-24T17:21:38.60</time>
<name>976</name>
</trkpt>
<trkpt lat="48.938225" lon="8.652660">
<ele>313.5</ele>
<speed>3.5</speed>
<course>355.3</course>
<desc>Speed 3.5 km/h Distance 1.06 km</desc>
<time>2010-02-24T17:21:39.60</time>
<name>977</name>
</trkpt>
<trkpt lat="48.938237" lon="8.652658">
<ele>312.0</ele>
<speed>2.9</speed>
<course>303.1</course>
<desc>Speed 2.9 km/h Distance 1.06 km</desc>
<time>2010-02-24T17:21:40.60</time>
<name>978</name>
</trkpt>
<trkpt lat="48.938242" lon="8.652647">
<ele>312.0</ele>
<speed>2.9</speed>
<course>320.6</course>
<desc>Speed 2.9 km/h Distance 1.06 km</desc>
<time>2010-02-24T17:21:41.60</time>
<name>979</name>
</trkpt>
<trkpt lat="48.938248" lon="8.652638">
<ele>311.0</ele>
<speed>3.0</speed>
<course>336.2</course>
<desc>Speed 3.0 km/h Distance 1.07 km</desc>
<time>2010-02-24T17:21:42.60</time>
<name>980</name>
</trkpt>
<trkpt lat="48.938258" lon="8.652632">
<ele>310.0</ele>
<speed>3.0</speed>
<course>307.4</course>
<desc>Speed 3.0 km/h Distance 1.07 km</desc>
<time>2010-02-24T17:21:43.60</time>
<name>981</name>
</trkpt>
<trkpt lat="48.938263" lon="8.652622">
<ele>309.5</ele>
<speed>2.9</speed>
<course>307.3</course>
<desc>Speed 2.9 km/h Distance 1.07 km</desc>
<time>2010-02-24T17:21:44.60</time>
<name>982</name>
</trkpt>
<trkpt lat="48.938270" lon="8.652608">
<ele>309.0</ele>
<speed>2.7</speed>
<course>307.4</course>
<desc>Speed 2.7 km/h Distance 1.07 km</desc>
<time>2010-02-24T17:21:45.60</time>
<name>983</name>
</trkpt>
<trkpt lat="48.938275" lon="8.652598">
<ele>308.5</ele>
<speed>2.2</speed>
<course>303.3</course>
<desc>Speed 2.2 km/h Distance 1.07 km</desc>
<time>2010-02-24T17:21:46.60</time>
<name>984</name>
</trkpt>
<trkpt lat="48.938280" lon="8.652587">
<ele>308.0</ele>
<speed>2.8</speed>
<course>297.0</course>
<desc>Speed 2.8 km/h Distance 1.07 km</desc>
<time>2010-02-24T17:21:47.60</time>
<name>985</name>
</trkpt>
<trkpt lat="48.938283" lon="8.652577">
<ele>307.0</ele>
<speed>2.7</speed>
<course>277.9</course>
<desc>Speed 2.7 km/h Distance 1.07 km</desc>
<time>2010-02-24T17:21:48.60</time>
<name>986</name>
</trkpt>
<trkpt lat="48.938285" lon="8.652558">
<ele>307.0</ele>
<speed>2.9</speed>
<course>270.0</course>
<desc>Speed 2.9 km/h Distance 1.07 km</desc>
<time>2010-02-24T17:21:49.60</time>
<name>987</name>
</trkpt>
<trkpt lat="48.938285" lon="8.652538">
<ele>307.0</ele>
<speed>2.9</speed>
<course>279.6</course>
<desc>Speed 2.9 km/h Distance 1.07 km</desc>
<time>2010-02-24T17:21:50.60</time>
<name>988</name>
</trkpt>
<trkpt lat="48.938287" lon="8.652523">
<ele>306.5</ele>
<speed>3.8</speed>
<course>270.0</course>
<desc>Speed 3.8 km/h Distance 1.08 km</desc>
<time>2010-02-24T17:21:51.60</time>
<name>989</name>
</trkpt>
<trkpt lat="48.938287" lon="8.652507">
<ele>307.0</ele>
<speed>4.2</speed>
<course>261.4</course>
<desc>Speed 4.2 km/h Distance 1.08 km</desc>
<time>2010-02-24T17:21:52.60</time>
<name>990</name>
</trkpt>
<trkpt lat="48.938285" lon="8.652490">
<ele>307.5</ele>
<speed>4.0</speed>
<course>247.9</course>
<desc>Speed 4.0 km/h Distance 1.08 km</desc>
<time>2010-02-24T17:21:53.60</time>
<name>991</name>
</trkpt>
<trkpt lat="48.938265" lon="8.652415">
<ele>314.0</ele>
<speed>2.2</speed>
<course>284.1</course>
<desc>Speed 2.2 km/h Distance 1.08 km</desc>
<time>2010-02-24T17:21:55.60</time>
<name>992</name>
</trkpt>
<trkpt lat="48.938267" lon="8.652405">
<ele>314.0</ele>
<speed>1.5</speed>
<course>270.0</course>
<desc>Speed 1.5 km/h Distance 1.08 km</desc>
<time>2010-02-24T17:21:56.60</time>
<name>993</name>
</trkpt>
<trkpt lat="48.938267" lon="8.652397">
<ele>314.5</ele>
<speed>0.6</speed>
<course>250.2</course>
<desc>Speed 0.6 km/h Distance 1.09 km</desc>
<time>2010-02-24T17:21:57.60</time>
<name>994</name>
</trkpt>
<trkpt lat="48.938252" lon="8.652333">
<ele>322.0</ele>
<speed>0.4</speed>
<course>259.3</course>
<desc>Speed 0.4 km/h Distance 1.09 km</desc>
<time>2010-02-24T17:21:59.60</time>
<name>995</name>
</trkpt>
<trkpt lat="48.938250" lon="8.652320">
<ele>323.0</ele>
<speed>0.4</speed>
<course>231.9</course>
<desc>Speed 0.4 km/h Distance 1.09 km</desc>
<time>2010-02-24T17:22:00.60</time>
<name>996</name>
</trkpt>
<trkpt lat="48.938248" lon="8.652317">
<ele>323.5</ele>
<speed>0.3</speed>
<course>270.0</course>
<desc>Speed 0.3 km/h Distance 1.09 km</desc>
<time>2010-02-24T17:22:01.60</time>
<name>997</name>
</trkpt>
<trkpt lat="48.938248" lon="8.652312">
<ele>324.0</ele>
<speed>0.1</speed>
<course>224.5</course>
<desc>Speed 0.1 km/h Distance 1.09 km</desc>
<time>2010-02-24T17:22:02.60</time>
<name>998</name>
</trkpt>
<trkpt lat="48.938245" lon="8.652307">
<ele>324.5</ele>
<speed>0.2</speed>
<course>238.6</course>
<desc>Speed 0.2 km/h Distance 1.09 km</desc>
<time>2010-02-24T17:22:03.60</time>
<name>999</name>
</trkpt>
<trkpt lat="48.938242" lon="8.652298">
<ele>325.5</ele>
<speed>0.5</speed>
<course>252.9</course>
<desc>Speed 0.5 km/h Distance 1.09 km</desc>
<time>2010-02-24T17:22:04.60</time>
<name>1000</name>
</trkpt>
<trkpt lat="48.938240" lon="8.652290">
<ele>326.5</ele>
<speed>0.1</speed>
<course>243.0</course>
<desc>Speed 0.1 km/h Distance 1.09 km</desc>
<time>2010-02-24T17:22:05.60</time>
<name>1001</name>
</trkpt>
<trkpt lat="48.938237" lon="8.652280">
<ele>327.5</ele>
<speed>0.2</speed>
<course>224.5</course>
<desc>Speed 0.2 km/h Distance 1.09 km</desc>
<time>2010-02-24T17:22:06.60</time>
<name>1002</name>
</trkpt>
<trkpt lat="48.938233" lon="8.652275">
<ele>328.0</ele>
<speed>0.1</speed>
<course>270.0</course>
<desc>Speed 0.1 km/h Distance 1.10 km</desc>
<time>2010-02-24T17:22:07.60</time>
<name>1003</name>
</trkpt>
<trkpt lat="48.938233" lon="8.652272">
<ele>328.5</ele>
<speed>0.2</speed>
<course>231.9</course>
<desc>Speed 0.2 km/h Distance 1.10 km</desc>
<time>2010-02-24T17:22:08.60</time>
<name>1004</name>
</trkpt>
<trkpt lat="48.938232" lon="8.652268">
<ele>329.0</ele>
<speed>0.2</speed>
<course>242.6</course>
<desc>Speed 0.2 km/h Distance 1.10 km</desc>
<time>2010-02-24T17:22:09.60</time>
<name>1005</name>
</trkpt>
<trkpt lat="48.938230" lon="8.652263">
<ele>329.5</ele>
<speed>0.1</speed>
<course>209.2</course>
<desc>Speed 0.1 km/h Distance 1.10 km</desc>
<time>2010-02-24T17:22:10.60</time>
<name>1006</name>
</trkpt>
<trkpt lat="48.938228" lon="8.652262">
<ele>329.5</ele>
<speed>0.1</speed>
<course>270.0</course>
<desc>Speed 0.1 km/h Distance 1.10 km</desc>
<time>2010-02-24T17:22:11.60</time>
<name>1007</name>
</trkpt>
<trkpt lat="48.938228" lon="8.652260">
<ele>330.0</ele>
<speed>0.0</speed>
<course>231.9</course>
<desc>Speed 0.0 km/h Distance 1.10 km</desc>
<time>2010-02-24T17:22:12.60</time>
<name>1008</name>
</trkpt>
<trkpt lat="48.938227" lon="8.652257">
<ele>330.0</ele>
<speed>0.1</speed>
<course>270.0</course>
<desc>Speed 0.1 km/h Distance 1.10 km</desc>
<time>2010-02-24T17:22:13.60</time>
<name>1009</name>
</trkpt>
<trkpt lat="48.938227" lon="8.652255">
<ele>330.5</ele>
<speed>0.1</speed>
<course>217.2</course>
<desc>Speed 0.1 km/h Distance 1.10 km</desc>
<time>2010-02-24T17:22:14.60</time>
<name>1010</name>
</trkpt>
<trkpt lat="48.938225" lon="8.652253">
<ele>330.5</ele>
<speed>0.1</speed>
<course>270.0</course>
<desc>Speed 0.1 km/h Distance 1.10 km</desc>
<time>2010-02-24T17:22:15.60</time>
<name>1011</name>
</trkpt>
<trkpt lat="48.938225" lon="8.652252">
<ele>330.5</ele>
<speed>0.0</speed>
<course>270.0</course>
<desc>Speed 0.0 km/h Distance 1.10 km</desc>
<time>2010-02-24T17:22:16.60</time>
<name>1012</name>
</trkpt>
<trkpt lat="48.938225" lon="8.652252">
<ele>331.0</ele>
<speed>0.1</speed>
<course>270.0</course>
<desc>Speed 0.1 km/h Distance 1.10 km</desc>
<time>2010-02-24T17:22:17.60</time>
<name>1013</name>
</trkpt>
<trkpt lat="48.938225" lon="8.652250">
<ele>331.0</ele>
<speed>0.1</speed>
<course>270.0</course>
<desc>Speed 0.1 km/h Distance 1.10 km</desc>
<time>2010-02-24T17:22:18.60</time>
<name>1014</name>
</trkpt>
<trkpt lat="48.938225" lon="8.652250">
<ele>331.0</ele>
<speed>0.1</speed>
<course>217.2</course>
<desc>Speed 0.1 km/h Distance 1.10 km</desc>
<time>2010-02-24T17:22:19.60</time>
<name>1015</name>
</trkpt>
<trkpt lat="48.938223" lon="8.652248">
<ele>331.0</ele>
<speed>0.2</speed>
<course>217.2</course>
<desc>Speed 0.2 km/h Distance 1.10 km</desc>
<time>2010-02-24T17:22:20.60</time>
<name>1016</name>
</trkpt>
<trkpt lat="48.938223" lon="8.652248">
<ele>331.0</ele>
<speed>0.3</speed>
<course>270.0</course>
<desc>Speed 0.3 km/h Distance 1.10 km</desc>
<time>2010-02-24T17:22:21.60</time>
<name>1017</name>
</trkpt>
<trkpt lat="48.938223" lon="8.652247">
<ele>331.0</ele>
<speed>0.1</speed>
<course>270.0</course>
<desc>Speed 0.1 km/h Distance 1.10 km</desc>
<time>2010-02-24T17:22:22.60</time>
<name>1018</name>
</trkpt>
<trkpt lat="48.938223" lon="8.652247">
<ele>331.5</ele>
<speed>0.1</speed>
<course>270.0</course>
<desc>Speed 0.1 km/h Distance 1.10 km</desc>
<time>2010-02-24T17:22:23.60</time>
<name>1019</name>
</trkpt>
<trkpt lat="48.938223" lon="8.652245">
<ele>331.5</ele>
<speed>0.2</speed>
<course>167.4</course>
<desc>Speed 0.2 km/h Distance 1.10 km</desc>
<time>2010-02-24T17:22:24.60</time>
<name>1020</name>
</trkpt>
<trkpt lat="48.938222" lon="8.652245">
<ele>331.5</ele>
<speed>0.1</speed>
<course>270.0</course>
<desc>Speed 0.1 km/h Distance 1.10 km</desc>
<time>2010-02-24T17:22:25.60</time>
<name>1021</name>
</trkpt>
<trkpt lat="48.938222" lon="8.652243">
<ele>331.5</ele>
<speed>0.1</speed>
<course>270.0</course>
<desc>Speed 0.1 km/h Distance 1.10 km</desc>
<time>2010-02-24T17:22:26.60</time>
<name>1022</name>
</trkpt>
<trkpt lat="48.938222" lon="8.652243">
<ele>331.5</ele>
<speed>0.3</speed>
<course>270.0</course>
<desc>Speed 0.3 km/h Distance 1.10 km</desc>
<time>2010-02-24T17:22:27.60</time>
<name>1023</name>
</trkpt>
<trkpt lat="48.938222" lon="8.652242">
<ele>331.5</ele>
<speed>0.1</speed>
<course>167.4</course>
<desc>Speed 0.1 km/h Distance 1.10 km</desc>
<time>2010-02-24T17:22:28.60</time>
<name>1024</name>
</trkpt>
<trkpt lat="48.938220" lon="8.652242">
<ele>331.5</ele>
<speed>0.0</speed>
<course>270.0</course>
<desc>Speed 0.0 km/h Distance 1.10 km</desc>
<time>2010-02-24T17:22:29.60</time>
<name>1025</name>
</trkpt>
<trkpt lat="48.938220" lon="8.652240">
<ele>332.0</ele>
<speed>0.1</speed>
<course>270.0</course>
<desc>Speed 0.1 km/h Distance 1.10 km</desc>
<time>2010-02-24T17:22:30.60</time>
<name>1026</name>
</trkpt>
<trkpt lat="48.938220" lon="8.652238">
<ele>332.5</ele>
<speed>0.1</speed>
<course>209.2</course>
<desc>Speed 0.1 km/h Distance 1.10 km</desc>
<time>2010-02-24T17:22:31.60</time>
<name>1027</name>
</trkpt>
<trkpt lat="48.938218" lon="8.652237">
<ele>333.0</ele>
<speed>0.2</speed>
<course>209.2</course>
<desc>Speed 0.2 km/h Distance 1.10 km</desc>
<time>2010-02-24T17:22:32.60</time>
<name>1028</name>
</trkpt>
<trkpt lat="48.938218" lon="8.652237">
<ele>333.0</ele>
<speed>0.1</speed>
<course>209.2</course>
<desc>Speed 0.1 km/h Distance 1.10 km</desc>
<time>2010-02-24T17:22:33.60</time>
<name>1029</name>
</trkpt>
<trkpt lat="48.938218" lon="8.652237">
<ele>333.0</ele>
<speed>0.1</speed>
<course>180.0</course>
<desc>Speed 0.1 km/h Distance 1.10 km</desc>
<time>2010-02-24T17:22:34.60</time>
<name>1030</name>
</trkpt>
<trkpt lat="48.938215" lon="8.652237">
<ele>333.0</ele>
<speed>0.9</speed>
<course>180.0</course>
<desc>Speed 0.9 km/h Distance 1.10 km</desc>
<time>2010-02-24T17:22:35.60</time>
<name>1031</name>
</trkpt>
<trkpt lat="48.938215" lon="8.652235">
<ele>333.5</ele>
<speed>0.5</speed>
<course>180.0</course>
<desc>Speed 0.5 km/h Distance 1.10 km</desc>
<time>2010-02-24T17:22:36.60</time>
<name>1032</name>
</trkpt>
<trkpt lat="48.938212" lon="8.652235">
<ele>334.0</ele>
<speed>1.0</speed>
<course>270.0</course>
<desc>Speed 1.0 km/h Distance 1.10 km</desc>
<time>2010-02-24T17:22:37.60</time>
<name>1033</name>
</trkpt>
<trkpt lat="48.938212" lon="8.652233">
<ele>334.0</ele>
<speed>0.2</speed>
<course>322.8</course>
<desc>Speed 0.2 km/h Distance 1.10 km</desc>
<time>2010-02-24T17:22:38.60</time>
<name>1034</name>
</trkpt>
<trkpt lat="48.938213" lon="8.652232">
<ele>334.0</ele>
<speed>1.0</speed>
<course>270.0</course>
<desc>Speed 1.0 km/h Distance 1.10 km</desc>
<time>2010-02-24T17:22:39.60</time>
<name>1035</name>
</trkpt>
<trkpt lat="48.938213" lon="8.652230">
<ele>334.0</ele>
<speed>0.3</speed>
<course>12.6</course>
<desc>Speed 0.3 km/h Distance 1.10 km</desc>
<time>2010-02-24T17:22:40.60</time>
<name>1036</name>
</trkpt>
<trkpt lat="48.938215" lon="8.652230">
<ele>334.0</ele>
<speed>0.6</speed>
<course>12.6</course>
<desc>Speed 0.6 km/h Distance 1.10 km</desc>
<time>2010-02-24T17:22:41.60</time>
<name>1037</name>
</trkpt>
<trkpt lat="48.938215" lon="8.652228">
<ele>334.0</ele>
<speed>0.5</speed>
<course>0.0</course>
<desc>Speed 0.5 km/h Distance 1.10 km</desc>
<time>2010-02-24T17:22:42.60</time>
<name>1038</name>
</trkpt>
<trkpt lat="48.938218" lon="8.652228">
<ele>334.0</ele>
<speed>0.8</speed>
<course>0.0</course>
<desc>Speed 0.8 km/h Distance 1.10 km</desc>
<time>2010-02-24T17:22:43.60</time>
<name>1039</name>
</trkpt>
<trkpt lat="48.938218" lon="8.652228">
<ele>334.0</ele>
<speed>0.4</speed>
<course>330.8</course>
<desc>Speed 0.4 km/h Distance 1.10 km</desc>
<time>2010-02-24T17:22:44.60</time>
<name>1040</name>
</trkpt>
<trkpt lat="48.938220" lon="8.652227">
<ele>334.0</ele>
<speed>0.3</speed>
<course>167.4</course>
<desc>Speed 0.3 km/h Distance 1.10 km</desc>
<time>2010-02-24T17:22:45.60</time>
<name>1041</name>
</trkpt>
<trkpt lat="48.938218" lon="8.652227">
<ele>334.0</ele>
<speed>0.0</speed>
<course>167.4</course>
<desc>Speed 0.0 km/h Distance 1.10 km</desc>
<time>2010-02-24T17:22:46.60</time>
<name>1042</name>
</trkpt>
<trkpt lat="48.938218" lon="8.652227">
<ele>334.0</ele>
<speed>0.4</speed>
<course>167.4</course>
<desc>Speed 0.4 km/h Distance 1.10 km</desc>
<time>2010-02-24T17:22:47.60</time>
<name>1043</name>
</trkpt>
<trkpt lat="48.938218" lon="8.652227">
<ele>334.0</ele>
<speed>0.2</speed>
<course>297.4</course>
<desc>Speed 0.2 km/h Distance 1.10 km</desc>
<time>2010-02-24T17:22:48.60</time>
<name>1044</name>
</trkpt>
<trkpt lat="48.938220" lon="8.652222">
<ele>333.5</ele>
<speed>1.0</speed>
<course>297.4</course>
<desc>Speed 1.0 km/h Distance 1.10 km</desc>
<time>2010-02-24T17:22:49.60</time>
<name>1045</name>
</trkpt>
<trkpt lat="48.938220" lon="8.652222">
<ele>333.5</ele>
<speed>0.4</speed>
<course>322.8</course>
<desc>Speed 0.4 km/h Distance 1.10 km</desc>
<time>2010-02-24T17:22:50.60</time>
<name>1046</name>
</trkpt>
<trkpt lat="48.938222" lon="8.652220">
<ele>333.5</ele>
<speed>0.3</speed>
<course>322.8</course>
<desc>Speed 0.3 km/h Distance 1.10 km</desc>
<time>2010-02-24T17:22:51.60</time>
<name>1047</name>
</trkpt>
<trkpt lat="48.938222" lon="8.652220">
<ele>333.5</ele>
<speed>0.3</speed>
<course>322.8</course>
<desc>Speed 0.3 km/h Distance 1.10 km</desc>
<time>2010-02-24T17:22:52.60</time>
<name>1048</name>
</trkpt>
<trkpt lat="48.938223" lon="8.652218">
<ele>333.5</ele>
<speed>0.2</speed>
<course>322.8</course>
<desc>Speed 0.2 km/h Distance 1.10 km</desc>
<time>2010-02-24T17:22:53.60</time>
<name>1049</name>
</trkpt>
<trkpt lat="48.938225" lon="8.652217">
<ele>333.5</ele>
<speed>0.1</speed>
<course>322.8</course>
<desc>Speed 0.1 km/h Distance 1.10 km</desc>
<time>2010-02-24T17:22:54.60</time>
<name>1050</name>
</trkpt>
<trkpt lat="48.938225" lon="8.652217">
<ele>333.5</ele>
<speed>0.2</speed>
<course>322.8</course>
<desc>Speed 0.2 km/h Distance 1.10 km</desc>
<time>2010-02-24T17:22:55.60</time>
<name>1051</name>
</trkpt>
<trkpt lat="48.938225" lon="8.652217">
<ele>333.5</ele>
<speed>0.2</speed>
<course>322.8</course>
<desc>Speed 0.2 km/h Distance 1.10 km</desc>
<time>2010-02-24T17:22:56.60</time>
<name>1052</name>
</trkpt>
<trkpt lat="48.938225" lon="8.652217">
<ele>333.5</ele>
<speed>0.2</speed>
<course>322.8</course>
<desc>Speed 0.2 km/h Distance 1.10 km</desc>
<time>2010-02-24T17:22:57.60</time>
<name>1053</name>
</trkpt>
<trkpt lat="48.938225" lon="8.652217">
<ele>333.5</ele>
<speed>0.1</speed>
<course>322.8</course>
<desc>Speed 0.1 km/h Distance 1.10 km</desc>
<time>2010-02-24T17:22:58.60</time>
<name>1054</name>
</trkpt>
<trkpt lat="48.938225" lon="8.652217">
<ele>333.5</ele>
<speed>0.1</speed>
<course>322.8</course>
<desc>Speed 0.1 km/h Distance 1.10 km</desc>
<time>2010-02-24T17:22:59.60</time>
<name>1055</name>
</trkpt>
<trkpt lat="48.938225" lon="8.652217">
<ele>333.5</ele>
<speed>0.6</speed>
<course>306.1</course>
<desc>Speed 0.6 km/h Distance 1.10 km</desc>
<time>2010-02-24T17:23:00.60</time>
<name>1056</name>
</trkpt>
<trkpt lat="48.938227" lon="8.652213">
<ele>334.0</ele>
<speed>0.3</speed>
<course>322.8</course>
<desc>Speed 0.3 km/h Distance 1.10 km</desc>
<time>2010-02-24T17:23:01.60</time>
<name>1057</name>
</trkpt>
<trkpt lat="48.938228" lon="8.652212">
<ele>334.0</ele>
<speed>1.0</speed>
<course>318.1</course>
<desc>Speed 1.0 km/h Distance 1.10 km</desc>
<time>2010-02-24T17:23:02.60</time>
<name>1058</name>
</trkpt>
<trkpt lat="48.938233" lon="8.652205">
<ele>334.0</ele>
<speed>1.3</speed>
<course>334.6</course>
<desc>Speed 1.3 km/h Distance 1.10 km</desc>
<time>2010-02-24T17:23:03.60</time>
<name>1059</name>
</trkpt>
<trkpt lat="48.938238" lon="8.652202">
<ele>334.0</ele>
<speed>0.9</speed>
<course>308.1</course>
<desc>Speed 0.9 km/h Distance 1.10 km</desc>
<time>2010-02-24T17:23:04.60</time>
<name>1060</name>
</trkpt>
<trkpt lat="48.938240" lon="8.652198">
<ele>334.0</ele>
<speed>0.5</speed>
<course>308.1</course>
<desc>Speed 0.5 km/h Distance 1.10 km</desc>
<time>2010-02-24T17:23:05.60</time>
<name>1061</name>
</trkpt>
<trkpt lat="48.938242" lon="8.652195">
<ele>334.0</ele>
<speed>0.2</speed>
<course>347.4</course>
<desc>Speed 0.2 km/h Distance 1.10 km</desc>
<time>2010-02-24T17:23:06.60</time>
<name>1062</name>
</trkpt>
<trkpt lat="48.938245" lon="8.652193">
<ele>334.0</ele>
<speed>0.1</speed>
<course>270.0</course>
<desc>Speed 0.1 km/h Distance 1.11 km</desc>
<time>2010-02-24T17:23:07.60</time>
<name>1063</name>
</trkpt>
<trkpt lat="48.938245" lon="8.652192">
<ele>334.0</ele>
<speed>0.2</speed>
<course>270.0</course>
<desc>Speed 0.2 km/h Distance 1.11 km</desc>
<time>2010-02-24T17:23:08.60</time>
<name>1064</name>
</trkpt>
<trkpt lat="48.938245" lon="8.652190">
<ele>334.0</ele>
<speed>0.1</speed>
<course>270.0</course>
<desc>Speed 0.1 km/h Distance 1.11 km</desc>
<time>2010-02-24T17:23:09.61</time>
<name>1065</name>
</trkpt>
<trkpt lat="48.938245" lon="8.652190">
<ele>334.0</ele>
<speed>0.3</speed>
<course>270.0</course>
<desc>Speed 0.3 km/h Distance 1.11 km</desc>
<time>2010-02-24T17:23:10.61</time>
<name>1066</name>
</trkpt>
<trkpt lat="48.938245" lon="8.652190">
<ele>334.0</ele>
<speed>0.2</speed>
<course>270.0</course>
<desc>Speed 0.2 km/h Distance 1.11 km</desc>
<time>2010-02-24T17:23:11.61</time>
<name>1067</name>
</trkpt>
<trkpt lat="48.938245" lon="8.652190">
<ele>334.0</ele>
<speed>0.3</speed>
<course>270.0</course>
<desc>Speed 0.3 km/h Distance 1.11 km</desc>
<time>2010-02-24T17:23:12.61</time>
<name>1068</name>
</trkpt>
<trkpt lat="48.938245" lon="8.652190">
<ele>334.0</ele>
<speed>0.3</speed>
<course>270.0</course>
<desc>Speed 0.3 km/h Distance 1.11 km</desc>
<time>2010-02-24T17:23:13.61</time>
<name>1069</name>
</trkpt>
<trkpt lat="48.938245" lon="8.652188">
<ele>334.0</ele>
<speed>0.1</speed>
<course>270.0</course>
<desc>Speed 0.1 km/h Distance 1.11 km</desc>
<time>2010-02-24T17:23:14.61</time>
<name>1070</name>
</trkpt>
<trkpt lat="48.938245" lon="8.652188">
<ele>334.0</ele>
<speed>0.2</speed>
<course>297.4</course>
<desc>Speed 0.2 km/h Distance 1.11 km</desc>
<time>2010-02-24T17:23:15.61</time>
<name>1071</name>
</trkpt>
<trkpt lat="48.938247" lon="8.652183">
<ele>334.0</ele>
<speed>0.9</speed>
<course>297.4</course>
<desc>Speed 0.9 km/h Distance 1.11 km</desc>
<time>2010-02-24T17:23:16.61</time>
<name>1072</name>
</trkpt>
<trkpt lat="48.938248" lon="8.652178">
<ele>333.5</ele>
<speed>1.0</speed>
<course>270.0</course>
<desc>Speed 1.0 km/h Distance 1.11 km</desc>
<time>2010-02-24T17:23:17.61</time>
<name>1073</name>
</trkpt>
<trkpt lat="48.938248" lon="8.652175">
<ele>333.0</ele>
<speed>0.2</speed>
<course>308.1</course>
<desc>Speed 0.2 km/h Distance 1.11 km</desc>
<time>2010-02-24T17:23:18.61</time>
<name>1074</name>
</trkpt>
<trkpt lat="48.938250" lon="8.652172">
<ele>332.5</ele>
<speed>0.1</speed>
<course>270.0</course>
<desc>Speed 0.1 km/h Distance 1.11 km</desc>
<time>2010-02-24T17:23:19.61</time>
<name>1075</name>
</trkpt>
<trkpt lat="48.938250" lon="8.652170">
<ele>332.5</ele>
<speed>0.1</speed>
<course>0.0</course>
<desc>Speed 0.1 km/h Distance 1.11 km</desc>
<time>2010-02-24T17:23:20.61</time>
<name>1076</name>
</trkpt>
<trkpt lat="48.938253" lon="8.652170">
<ele>332.0</ele>
<speed>0.2</speed>
<course>270.0</course>
<desc>Speed 0.2 km/h Distance 1.11 km</desc>
<time>2010-02-24T17:23:21.61</time>
<name>1077</name>
</trkpt>
<trkpt lat="48.938253" lon="8.652168">
<ele>332.0</ele>
<speed>0.3</speed>
<course>270.0</course>
<desc>Speed 0.3 km/h Distance 1.11 km</desc>
<time>2010-02-24T17:23:22.61</time>
<name>1078</name>
</trkpt>
<trkpt lat="48.938253" lon="8.652168">
<ele>332.0</ele>
<speed>0.5</speed>
<course>180.0</course>
<desc>Speed 0.5 km/h Distance 1.11 km</desc>
<time>2010-02-24T17:23:23.61</time>
<name>1079</name>
</trkpt>
<trkpt lat="48.938250" lon="8.652168">
<ele>331.5</ele>
<speed>1.3</speed>
<course>142.8</course>
<desc>Speed 1.3 km/h Distance 1.11 km</desc>
<time>2010-02-24T17:23:24.61</time>
<name>1080</name>
</trkpt>
<trkpt lat="48.938248" lon="8.652170">
<ele>331.5</ele>
<speed>1.2</speed>
<course>217.2</course>
<desc>Speed 1.2 km/h Distance 1.11 km</desc>
<time>2010-02-24T17:23:25.61</time>
<name>1081</name>
</trkpt>
<trkpt lat="48.938247" lon="8.652168">
<ele>331.5</ele>
<speed>0.7</speed>
<course>270.0</course>
<desc>Speed 0.7 km/h Distance 1.11 km</desc>
<time>2010-02-24T17:23:26.61</time>
<name>1082</name>
</trkpt>
<trkpt lat="48.938247" lon="8.652167">
<ele>331.0</ele>
<speed>0.3</speed>
<course>282.3</course>
<desc>Speed 0.3 km/h Distance 1.11 km</desc>
<time>2010-02-24T17:23:27.61</time>
<name>1083</name>
</trkpt>
<trkpt lat="48.938248" lon="8.652155">
<ele>331.0</ele>
<speed>3.1</speed>
<course>262.1</course>
<desc>Speed 3.1 km/h Distance 1.11 km</desc>
<time>2010-02-24T17:23:28.61</time>
<name>1084</name>
</trkpt>
<trkpt lat="48.938247" lon="8.652137">
<ele>330.5</ele>
<speed>4.0</speed>
<course>270.0</course>
<desc>Speed 4.0 km/h Distance 1.11 km</desc>
<time>2010-02-24T17:23:29.61</time>
<name>1085</name>
</trkpt>
<trkpt lat="48.938247" lon="8.652118">
<ele>330.5</ele>
<speed>4.4</speed>
<course>262.1</course>
<desc>Speed 4.4 km/h Distance 1.11 km</desc>
<time>2010-02-24T17:23:30.61</time>
<name>1086</name>
</trkpt>
<trkpt lat="48.938245" lon="8.652100">
<ele>331.0</ele>
<speed>4.1</speed>
<course>277.9</course>
<desc>Speed 4.1 km/h Distance 1.11 km</desc>
<time>2010-02-24T17:23:31.61</time>
<name>1087</name>
</trkpt>
<trkpt lat="48.938247" lon="8.652082">
<ele>331.0</ele>
<speed>4.4</speed>
<course>264.2</course>
<desc>Speed 4.4 km/h Distance 1.11 km</desc>
<time>2010-02-24T17:23:32.61</time>
<name>1088</name>
</trkpt>
<trkpt lat="48.938245" lon="8.652057">
<ele>331.0</ele>
<speed>4.2</speed>
<course>278.7</course>
<desc>Speed 4.2 km/h Distance 1.12 km</desc>
<time>2010-02-24T17:23:33.61</time>
<name>1089</name>
</trkpt>
<trkpt lat="48.938247" lon="8.652040">
<ele>331.0</ele>
<speed>4.2</speed>
<course>277.2</course>
<desc>Speed 4.2 km/h Distance 1.12 km</desc>
<time>2010-02-24T17:23:34.61</time>
<name>1090</name>
</trkpt>
<trkpt lat="48.938248" lon="8.652020">
<ele>331.0</ele>
<speed>4.3</speed>
<course>270.0</course>
<desc>Speed 4.3 km/h Distance 1.12 km</desc>
<time>2010-02-24T17:23:35.61</time>
<name>1091</name>
</trkpt>
<trkpt lat="48.938248" lon="8.652000">
<ele>331.5</ele>
<speed>4.8</speed>
<course>284.2</course>
<desc>Speed 4.8 km/h Distance 1.12 km</desc>
<time>2010-02-24T17:23:36.61</time>
<name>1092</name>
</trkpt>
<trkpt lat="48.938252" lon="8.651980">
<ele>331.5</ele>
<speed>4.3</speed>
<course>270.0</course>
<desc>Speed 4.3 km/h Distance 1.12 km</desc>
<time>2010-02-24T17:23:37.61</time>
<name>1093</name>
</trkpt>
<trkpt lat="48.938252" lon="8.651962">
<ele>331.0</ele>
<speed>4.6</speed>
<course>262.1</course>
<desc>Speed 4.6 km/h Distance 1.12 km</desc>
<time>2010-02-24T17:23:38.61</time>
<name>1094</name>
</trkpt>
<trkpt lat="48.938250" lon="8.651943">
<ele>331.0</ele>
<speed>4.3</speed>
<course>262.1</course>
<desc>Speed 4.3 km/h Distance 1.12 km</desc>
<time>2010-02-24T17:23:39.61</time>
<name>1095</name>
</trkpt>
<trkpt lat="48.938248" lon="8.651925">
<ele>330.5</ele>
<speed>4.4</speed>
<course>262.1</course>
<desc>Speed 4.4 km/h Distance 1.13 km</desc>
<time>2010-02-24T17:23:40.61</time>
<name>1096</name>
</trkpt>
<trkpt lat="48.938247" lon="8.651907">
<ele>330.5</ele>
<speed>4.4</speed>
<course>261.3</course>
<desc>Speed 4.4 km/h Distance 1.13 km</desc>
<time>2010-02-24T17:23:41.61</time>
<name>1097</name>
</trkpt>
<trkpt lat="48.938245" lon="8.651890">
<ele>330.0</ele>
<speed>4.4</speed>
<course>253.1</course>
<desc>Speed 4.4 km/h Distance 1.13 km</desc>
<time>2010-02-24T17:23:42.61</time>
<name>1098</name>
</trkpt>
<trkpt lat="48.938242" lon="8.651873">
<ele>330.0</ele>
<speed>4.5</speed>
<course>245.5</course>
<desc>Speed 4.5 km/h Distance 1.13 km</desc>
<time>2010-02-24T17:23:43.61</time>
<name>1099</name>
</trkpt>
<trkpt lat="48.938237" lon="8.651857">
<ele>330.0</ele>
<speed>4.6</speed>
<course>241.5</course>
<desc>Speed 4.6 km/h Distance 1.13 km</desc>
<time>2010-02-24T17:23:44.61</time>
<name>1100</name>
</trkpt>
<trkpt lat="48.938228" lon="8.651833">
<ele>331.0</ele>
<speed>4.6</speed>
<course>254.5</course>
<desc>Speed 4.6 km/h Distance 1.13 km</desc>
<time>2010-02-24T17:23:45.61</time>
<name>1101</name>
</trkpt>
<trkpt lat="48.938225" lon="8.651815">
<ele>331.0</ele>
<speed>4.4</speed>
<course>255.8</course>
<desc>Speed 4.4 km/h Distance 1.13 km</desc>
<time>2010-02-24T17:23:46.61</time>
<name>1102</name>
</trkpt>
<trkpt lat="48.938222" lon="8.651795">
<ele>331.0</ele>
<speed>4.7</speed>
<course>243.1</course>
<desc>Speed 4.7 km/h Distance 1.14 km</desc>
<time>2010-02-24T17:23:47.61</time>
<name>1103</name>
</trkpt>
<trkpt lat="48.938215" lon="8.651775">
<ele>331.0</ele>
<speed>4.9</speed>
<course>238.7</course>
<desc>Speed 4.9 km/h Distance 1.14 km</desc>
<time>2010-02-24T17:23:48.61</time>
<name>1104</name>
</trkpt>
<trkpt lat="48.938208" lon="8.651758">
<ele>331.0</ele>
<speed>5.0</speed>
<course>247.4</course>
<desc>Speed 5.0 km/h Distance 1.14 km</desc>
<time>2010-02-24T17:23:49.61</time>
<name>1105</name>
</trkpt>
<trkpt lat="48.938203" lon="8.651740">
<ele>330.5</ele>
<speed>4.6</speed>
<course>249.2</course>
<desc>Speed 4.6 km/h Distance 1.14 km</desc>
<time>2010-02-24T17:23:50.61</time>
<name>1106</name>
</trkpt>
<trkpt lat="48.938200" lon="8.651727">
<ele>330.0</ele>
<speed>3.9</speed>
<course>254.5</course>
<desc>Speed 3.9 km/h Distance 1.14 km</desc>
<time>2010-02-24T17:23:51.61</time>
<name>1107</name>
</trkpt>
<trkpt lat="48.938197" lon="8.651708">
<ele>330.0</ele>
<speed>3.9</speed>
<course>254.5</course>
<desc>Speed 3.9 km/h Distance 1.14 km</desc>
<time>2010-02-24T17:23:52.61</time>
<name>1108</name>
</trkpt>
<trkpt lat="48.938193" lon="8.651690">
<ele>330.5</ele>
<speed>4.6</speed>
<course>254.5</course>
<desc>Speed 4.6 km/h Distance 1.14 km</desc>
<time>2010-02-24T17:23:53.61</time>
<name>1109</name>
</trkpt>
<trkpt lat="48.938190" lon="8.651672">
<ele>330.0</ele>
<speed>3.7</speed>
<course>251.3</course>
<desc>Speed 3.7 km/h Distance 1.15 km</desc>
<time>2010-02-24T17:23:54.61</time>
<name>1110</name>
</trkpt>
<trkpt lat="48.938187" lon="8.651657">
<ele>329.5</ele>
<speed>3.2</speed>
<course>260.4</course>
<desc>Speed 3.2 km/h Distance 1.15 km</desc>
<time>2010-02-24T17:23:55.61</time>
<name>1111</name>
</trkpt>
<trkpt lat="48.938185" lon="8.651642">
<ele>329.0</ele>
<speed>3.5</speed>
<course>270.0</course>
<desc>Speed 3.5 km/h Distance 1.15 km</desc>
<time>2010-02-24T17:23:56.61</time>
<name>1112</name>
</trkpt>
<trkpt lat="48.938185" lon="8.651633">
<ele>328.0</ele>
<speed>2.2</speed>
<course>249.2</course>
<desc>Speed 2.2 km/h Distance 1.15 km</desc>
<time>2010-02-24T17:23:57.61</time>
<name>1113</name>
</trkpt>
<trkpt lat="48.938182" lon="8.651620">
<ele>327.0</ele>
<speed>3.5</speed>
<course>253.1</course>
<desc>Speed 3.5 km/h Distance 1.15 km</desc>
<time>2010-02-24T17:23:58.61</time>
<name>1114</name>
</trkpt>
<trkpt lat="48.938178" lon="8.651603">
<ele>327.0</ele>
<speed>4.5</speed>
<course>243.1</course>
<desc>Speed 4.5 km/h Distance 1.15 km</desc>
<time>2010-02-24T17:23:59.61</time>
<name>1115</name>
</trkpt>
<trkpt lat="48.938173" lon="8.651588">
<ele>326.0</ele>
<speed>3.9</speed>
<course>249.1</course>
<desc>Speed 3.9 km/h Distance 1.15 km</desc>
<time>2010-02-24T17:24:00.61</time>
<name>1116</name>
</trkpt>
<trkpt lat="48.938170" lon="8.651575">
<ele>326.0</ele>
<speed>3.6</speed>
<course>240.3</course>
<desc>Speed 3.6 km/h Distance 1.15 km</desc>
<time>2010-02-24T17:24:01.61</time>
<name>1117</name>
</trkpt>
<trkpt lat="48.938165" lon="8.651562">
<ele>325.5</ele>
<speed>3.8</speed>
<course>249.2</course>
<desc>Speed 3.8 km/h Distance 1.15 km</desc>
<time>2010-02-24T17:24:02.61</time>
<name>1118</name>
</trkpt>
<trkpt lat="48.938162" lon="8.651548">
<ele>325.0</ele>
<speed>4.1</speed>
<course>235.9</course>
<desc>Speed 4.1 km/h Distance 1.16 km</desc>
<time>2010-02-24T17:24:03.61</time>
<name>1119</name>
</trkpt>
<trkpt lat="48.938155" lon="8.651533">
<ele>325.0</ele>
<speed>4.4</speed>
<course>217.3</course>
<desc>Speed 4.4 km/h Distance 1.16 km</desc>
<time>2010-02-24T17:24:04.61</time>
<name>1120</name>
</trkpt>
<trkpt lat="48.938145" lon="8.651522">
<ele>324.5</ele>
<speed>5.1</speed>
<course>236.7</course>
<desc>Speed 5.1 km/h Distance 1.16 km</desc>
<time>2010-02-24T17:24:05.61</time>
<name>1121</name>
</trkpt>
<trkpt lat="48.938140" lon="8.651510">
<ele>323.5</ele>
<speed>3.8</speed>
<course>240.3</course>
<desc>Speed 3.8 km/h Distance 1.16 km</desc>
<time>2010-02-24T17:24:06.61</time>
<name>1122</name>
</trkpt>
<trkpt lat="48.938135" lon="8.651497">
<ele>323.5</ele>
<speed>4.0</speed>
<course>243.0</course>
<desc>Speed 4.0 km/h Distance 1.16 km</desc>
<time>2010-02-24T17:24:07.61</time>
<name>1123</name>
</trkpt>
<trkpt lat="48.938132" lon="8.651487">
<ele>322.5</ele>
<speed>3.1</speed>
<course>238.6</course>
<desc>Speed 3.1 km/h Distance 1.16 km</desc>
<time>2010-02-24T17:24:08.61</time>
<name>1124</name>
</trkpt>
<trkpt lat="48.938125" lon="8.651470">
<ele>323.0</ele>
<speed>5.0</speed>
<course>236.7</course>
<desc>Speed 5.0 km/h Distance 1.16 km</desc>
<time>2010-02-24T17:24:09.61</time>
<name>1125</name>
</trkpt>
<trkpt lat="48.938120" lon="8.651458">
<ele>322.0</ele>
<speed>3.7</speed>
<course>240.3</course>
<desc>Speed 3.7 km/h Distance 1.16 km</desc>
<time>2010-02-24T17:24:10.61</time>
<name>1126</name>
</trkpt>
<trkpt lat="48.938115" lon="8.651445">
<ele>321.5</ele>
<speed>3.9</speed>
<course>250.6</course>
<desc>Speed 3.9 km/h Distance 1.16 km</desc>
<time>2010-02-24T17:24:11.61</time>
<name>1127</name>
</trkpt>
<trkpt lat="48.938110" lon="8.651423">
<ele>322.0</ele>
<speed>3.7</speed>
<course>243.1</course>
<desc>Speed 3.7 km/h Distance 1.17 km</desc>
<time>2010-02-24T17:24:12.61</time>
<name>1128</name>
</trkpt>
<trkpt lat="48.938105" lon="8.651408">
<ele>322.0</ele>
<speed>3.5</speed>
<course>270.0</course>
<desc>Speed 3.5 km/h Distance 1.17 km</desc>
<time>2010-02-24T17:24:13.61</time>
<name>1129</name>
</trkpt>
<trkpt lat="48.938105" lon="8.651397">
<ele>321.5</ele>
<speed>3.0</speed>
<course>253.3</course>
<desc>Speed 3.0 km/h Distance 1.17 km</desc>
<time>2010-02-24T17:24:14.61</time>
<name>1130</name>
</trkpt>
<trkpt lat="48.938103" lon="8.651388">
<ele>321.0</ele>
<speed>2.3</speed>
<course>249.1</course>
<desc>Speed 2.3 km/h Distance 1.17 km</desc>
<time>2010-02-24T17:24:15.61</time>
<name>1131</name>
</trkpt>
<trkpt lat="48.938102" lon="8.651382">
<ele>321.0</ele>
<speed>1.5</speed>
<course>217.2</course>
<desc>Speed 1.5 km/h Distance 1.17 km</desc>
<time>2010-02-24T17:24:16.61</time>
<name>1132</name>
</trkpt>
<trkpt lat="48.938100" lon="8.651380">
<ele>321.5</ele>
<speed>1.0</speed>
<course>233.0</course>
<desc>Speed 1.0 km/h Distance 1.17 km</desc>
<time>2010-02-24T17:24:17.61</time>
<name>1133</name>
</trkpt>
<trkpt lat="48.938097" lon="8.651373">
<ele>321.5</ele>
<speed>1.5</speed>
<course>270.0</course>
<desc>Speed 1.5 km/h Distance 1.17 km</desc>
<time>2010-02-24T17:24:18.61</time>
<name>1134</name>
</trkpt>
<trkpt lat="48.938097" lon="8.651363">
<ele>321.0</ele>
<speed>2.1</speed>
<course>270.0</course>
<desc>Speed 2.1 km/h Distance 1.17 km</desc>
<time>2010-02-24T17:24:19.61</time>
<name>1135</name>
</trkpt>
<trkpt lat="48.938097" lon="8.651357">
<ele>321.0</ele>
<speed>1.2</speed>
<course>233.0</course>
<desc>Speed 1.2 km/h Distance 1.17 km</desc>
<time>2010-02-24T17:24:20.61</time>
<name>1136</name>
</trkpt>
<trkpt lat="48.938093" lon="8.651350">
<ele>322.0</ele>
<speed>0.2</speed>
<course>233.0</course>
<desc>Speed 0.2 km/h Distance 1.17 km</desc>
<time>2010-02-24T17:24:21.61</time>
<name>1137</name>
</trkpt>
<trkpt lat="48.938093" lon="8.651350">
<ele>322.0</ele>
<speed>0.3</speed>
<course>270.0</course>
<desc>Speed 0.3 km/h Distance 1.17 km</desc>
<time>2010-02-24T17:24:22.61</time>
<name>1138</name>
</trkpt>
<trkpt lat="48.938093" lon="8.651348">
<ele>322.0</ele>
<speed>0.1</speed>
<course>270.0</course>
<desc>Speed 0.1 km/h Distance 1.17 km</desc>
<time>2010-02-24T17:24:23.61</time>
<name>1139</name>
</trkpt>
<trkpt lat="48.938093" lon="8.651348">
<ele>322.0</ele>
<speed>0.2</speed>
<course>198.8</course>
<desc>Speed 0.2 km/h Distance 1.17 km</desc>
<time>2010-02-24T17:24:24.61</time>
<name>1140</name>
</trkpt>
<trkpt lat="48.938090" lon="8.651347">
<ele>321.5</ele>
<speed>1.1</speed>
<course>233.0</course>
<desc>Speed 1.1 km/h Distance 1.17 km</desc>
<time>2010-02-24T17:24:25.61</time>
<name>1141</name>
</trkpt>
<trkpt lat="48.938087" lon="8.651340">
<ele>321.5</ele>
<speed>2.2</speed>
<course>221.4</course>
<desc>Speed 2.2 km/h Distance 1.17 km</desc>
<time>2010-02-24T17:24:26.61</time>
<name>1142</name>
</trkpt>
<trkpt lat="48.938082" lon="8.651333">
<ele>320.5</ele>
<speed>2.3</speed>
<course>232.6</course>
<desc>Speed 2.3 km/h Distance 1.17 km</desc>
<time>2010-02-24T17:24:27.61</time>
<name>1143</name>
</trkpt>
<trkpt lat="48.938077" lon="8.651323">
<ele>320.0</ele>
<speed>3.3</speed>
<course>213.2</course>
<desc>Speed 3.3 km/h Distance 1.18 km</desc>
<time>2010-02-24T17:24:28.61</time>
<name>1144</name>
</trkpt>
<trkpt lat="48.938068" lon="8.651315">
<ele>320.0</ele>
<speed>3.9</speed>
<course>255.8</course>
<desc>Speed 3.9 km/h Distance 1.18 km</desc>
<time>2010-02-24T17:24:29.61</time>
<name>1145</name>
</trkpt>
<trkpt lat="48.938067" lon="8.651305">
<ele>319.5</ele>
<speed>2.8</speed>
<course>270.0</course>
<desc>Speed 2.8 km/h Distance 1.18 km</desc>
<time>2010-02-24T17:24:30.61</time>
<name>1146</name>
</trkpt>
<trkpt lat="48.938067" lon="8.651293">
<ele>318.5</ele>
<speed>3.0</speed>
<course>270.0</course>
<desc>Speed 3.0 km/h Distance 1.18 km</desc>
<time>2010-02-24T17:24:31.61</time>
<name>1147</name>
</trkpt>
<trkpt lat="48.938067" lon="8.651280">
<ele>318.0</ele>
<speed>2.9</speed>
<course>260.4</course>
<desc>Speed 2.9 km/h Distance 1.18 km</desc>
<time>2010-02-24T17:24:32.61</time>
<name>1148</name>
</trkpt>
<trkpt lat="48.938065" lon="8.651265">
<ele>318.5</ele>
<speed>3.6</speed>
<course>297.4</course>
<desc>Speed 3.6 km/h Distance 1.18 km</desc>
<time>2010-02-24T17:24:33.61</time>
<name>1149</name>
</trkpt>
<trkpt lat="48.938067" lon="8.651260">
<ele>318.5</ele>
<speed>0.9</speed>
<course>270.0</course>
<desc>Speed 0.9 km/h Distance 1.18 km</desc>
<time>2010-02-24T17:24:34.61</time>
<name>1150</name>
</trkpt>
<trkpt lat="48.938067" lon="8.651257">
<ele>319.0</ele>
<speed>0.8</speed>
<course>194.9</course>
<desc>Speed 0.8 km/h Distance 1.18 km</desc>
<time>2010-02-24T17:24:35.61</time>
<name>1151</name>
</trkpt>
<trkpt lat="48.938058" lon="8.651253">
<ele>319.0</ele>
<speed>3.0</speed>
<course>194.9</course>
<desc>Speed 3.0 km/h Distance 1.18 km</desc>
<time>2010-02-24T17:24:36.61</time>
<name>1152</name>
</trkpt>
<trkpt lat="48.938058" lon="8.651253">
<ele>319.0</ele>
<speed>0.5</speed>
<course>243.0</course>
<desc>Speed 0.5 km/h Distance 1.18 km</desc>
<time>2010-02-24T17:24:37.61</time>
<name>1153</name>
</trkpt>
<trkpt lat="48.938055" lon="8.651243">
<ele>318.5</ele>
<speed>2.4</speed>
<course>257.7</course>
<desc>Speed 2.4 km/h Distance 1.18 km</desc>
<time>2010-02-24T17:24:38.61</time>
<name>1154</name>
</trkpt>
<trkpt lat="48.938053" lon="8.651232">
<ele>318.5</ele>
<speed>2.6</speed>
<course>243.0</course>
<desc>Speed 2.6 km/h Distance 1.18 km</desc>
<time>2010-02-24T17:24:39.61</time>
<name>1155</name>
</trkpt>
<trkpt lat="48.938050" lon="8.651222">
<ele>319.0</ele>
<speed>2.3</speed>
<course>270.0</course>
<desc>Speed 2.3 km/h Distance 1.18 km</desc>
<time>2010-02-24T17:24:40.61</time>
<name>1156</name>
</trkpt>
<trkpt lat="48.938050" lon="8.651220">
<ele>319.0</ele>
<speed>0.0</speed>
<course>192.6</course>
<desc>Speed 0.0 km/h Distance 1.18 km</desc>
<time>2010-02-24T17:24:41.61</time>
<name>1157</name>
</trkpt>
<trkpt lat="48.938047" lon="8.651218">
<ele>319.5</ele>
<speed>0.7</speed>
<course>270.0</course>
<desc>Speed 0.7 km/h Distance 1.18 km</desc>
<time>2010-02-24T17:24:42.61</time>
<name>1158</name>
</trkpt>
<trkpt lat="48.938047" lon="8.651217">
<ele>319.5</ele>
<speed>0.4</speed>
<course>51.9</course>
<desc>Speed 0.4 km/h Distance 1.18 km</desc>
<time>2010-02-24T17:24:43.61</time>
<name>1159</name>
</trkpt>
<trkpt lat="48.938048" lon="8.651220">
<ele>318.0</ele>
<speed>2.0</speed>
<course>235.3</course>
<desc>Speed 2.0 km/h Distance 1.19 km</desc>
<time>2010-02-24T17:24:44.61</time>
<name>1160</name>
</trkpt>
<trkpt lat="48.938040" lon="8.651202">
<ele>320.0</ele>
<speed>5.0</speed>
<course>224.5</course>
<desc>Speed 5.0 km/h Distance 1.19 km</desc>
<time>2010-02-24T17:24:45.61</time>
<name>1161</name>
</trkpt>
<trkpt lat="48.938037" lon="8.651197">
<ele>319.5</ele>
<speed>1.6</speed>
<course>239.2</course>
<desc>Speed 1.6 km/h Distance 1.19 km</desc>
<time>2010-02-24T17:24:46.61</time>
<name>1162</name>
</trkpt>
<trkpt lat="48.938033" lon="8.651188">
<ele>319.5</ele>
<speed>2.2</speed>
<course>243.0</course>
<desc>Speed 2.2 km/h Distance 1.19 km</desc>
<time>2010-02-24T17:24:47.61</time>
<name>1163</name>
</trkpt>
<trkpt lat="48.938030" lon="8.651178">
<ele>319.0</ele>
<speed>2.8</speed>
<course>227.8</course>
<desc>Speed 2.8 km/h Distance 1.19 km</desc>
<time>2010-02-24T17:24:48.61</time>
<name>1164</name>
</trkpt>
<trkpt lat="48.938025" lon="8.651170">
<ele>318.5</ele>
<speed>2.2</speed>
<course>249.1</course>
<desc>Speed 2.2 km/h Distance 1.19 km</desc>
<time>2010-02-24T17:24:49.61</time>
<name>1165</name>
</trkpt>
<trkpt lat="48.938023" lon="8.651163">
<ele>316.5</ele>
<speed>1.8</speed>
<course>255.6</course>
<desc>Speed 1.8 km/h Distance 1.19 km</desc>
<time>2010-02-24T17:24:50.61</time>
<name>1166</name>
</trkpt>
<trkpt lat="48.938022" lon="8.651153">
<ele>315.5</ele>
<speed>2.1</speed>
<course>232.7</course>
<desc>Speed 2.1 km/h Distance 1.19 km</desc>
<time>2010-02-24T17:24:51.61</time>
<name>1167</name>
</trkpt>
<trkpt lat="48.938013" lon="8.651137">
<ele>315.5</ele>
<speed>4.2</speed>
<course>235.9</course>
<desc>Speed 4.2 km/h Distance 1.19 km</desc>
<time>2010-02-24T17:24:52.61</time>
<name>1168</name>
</trkpt>
<trkpt lat="48.938007" lon="8.651122">
<ele>314.5</ele>
<speed>4.2</speed>
<course>235.9</course>
<desc>Speed 4.2 km/h Distance 1.19 km</desc>
<time>2010-02-24T17:24:53.61</time>
<name>1169</name>
</trkpt>
<trkpt lat="48.938000" lon="8.651107">
<ele>314.5</ele>
<speed>3.9</speed>
<course>236.9</course>
<desc>Speed 3.9 km/h Distance 1.20 km</desc>
<time>2010-02-24T17:24:54.61</time>
<name>1170</name>
</trkpt>
<trkpt lat="48.937995" lon="8.651095">
<ele>314.5</ele>
<speed>2.8</speed>
<course>236.9</course>
<desc>Speed 2.8 km/h Distance 1.20 km</desc>
<time>2010-02-24T17:24:55.61</time>
<name>1171</name>
</trkpt>
<trkpt lat="48.937990" lon="8.651083">
<ele>313.5</ele>
<speed>2.6</speed>
<course>243.2</course>
<desc>Speed 2.6 km/h Distance 1.20 km</desc>
<time>2010-02-24T17:24:56.61</time>
<name>1172</name>
</trkpt>
<trkpt lat="48.937987" lon="8.651073">
<ele>313.0</ele>
<speed>2.8</speed>
<course>255.6</course>
<desc>Speed 2.8 km/h Distance 1.20 km</desc>
<time>2010-02-24T17:24:57.61</time>
<name>1173</name>
</trkpt>
<trkpt lat="48.937985" lon="8.651063">
<ele>312.5</ele>
<speed>1.9</speed>
<course>251.3</course>
<desc>Speed 1.9 km/h Distance 1.20 km</desc>
<time>2010-02-24T17:24:58.61</time>
<name>1174</name>
</trkpt>
<trkpt lat="48.937982" lon="8.651048">
<ele>313.0</ele>
<speed>3.6</speed>
<course>232.8</course>
<desc>Speed 3.6 km/h Distance 1.20 km</desc>
<time>2010-02-24T17:24:59.61</time>
<name>1175</name>
</trkpt>
<trkpt lat="48.937975" lon="8.651035">
<ele>312.5</ele>
<speed>3.3</speed>
<course>246.5</course>
<desc>Speed 3.3 km/h Distance 1.20 km</desc>
<time>2010-02-24T17:25:00.61</time>
<name>1176</name>
</trkpt>
<trkpt lat="48.937972" lon="8.651023">
<ele>312.0</ele>
<speed>3.2</speed>
<course>239.6</course>
<desc>Speed 3.2 km/h Distance 1.20 km</desc>
<time>2010-02-24T17:25:01.61</time>
<name>1177</name>
</trkpt>
<trkpt lat="48.937963" lon="8.651002">
<ele>312.5</ele>
<speed>4.5</speed>
<course>245.5</course>
<desc>Speed 4.5 km/h Distance 1.20 km</desc>
<time>2010-02-24T17:25:02.61</time>
<name>1178</name>
</trkpt>
<trkpt lat="48.937958" lon="8.650985">
<ele>312.0</ele>
<speed>4.3</speed>
<course>235.9</course>
<desc>Speed 4.3 km/h Distance 1.21 km</desc>
<time>2010-02-24T17:25:03.61</time>
<name>1179</name>
</trkpt>
<trkpt lat="48.937952" lon="8.650970">
<ele>312.0</ele>
<speed>3.9</speed>
<course>243.2</course>
<desc>Speed 3.9 km/h Distance 1.21 km</desc>
<time>2010-02-24T17:25:04.61</time>
<name>1180</name>
</trkpt>
<trkpt lat="48.937948" lon="8.650960">
<ele>312.0</ele>
<speed>2.0</speed>
<course>251.3</course>
<desc>Speed 2.0 km/h Distance 1.21 km</desc>
<time>2010-02-24T17:25:05.61</time>
<name>1181</name>
</trkpt>
<trkpt lat="48.937945" lon="8.650945">
<ele>312.5</ele>
<speed>3.6</speed>
<course>240.3</course>
<desc>Speed 3.6 km/h Distance 1.21 km</desc>
<time>2010-02-24T17:25:06.61</time>
<name>1182</name>
</trkpt>
<trkpt lat="48.937940" lon="8.650932">
<ele>312.5</ele>
<speed>3.5</speed>
<course>240.3</course>
<desc>Speed 3.5 km/h Distance 1.21 km</desc>
<time>2010-02-24T17:25:07.61</time>
<name>1183</name>
</trkpt>
<trkpt lat="48.937935" lon="8.650918">
<ele>312.0</ele>
<speed>3.5</speed>
<course>240.3</course>
<desc>Speed 3.5 km/h Distance 1.21 km</desc>
<time>2010-02-24T17:25:08.61</time>
<name>1184</name>
</trkpt>
<trkpt lat="48.937930" lon="8.650905">
<ele>311.0</ele>
<speed>2.7</speed>
<course>243.1</course>
<desc>Speed 2.7 km/h Distance 1.21 km</desc>
<time>2010-02-24T17:25:09.61</time>
<name>1185</name>
</trkpt>
<trkpt lat="48.937925" lon="8.650890">
<ele>310.5</ele>
<speed>3.2</speed>
<course>245.5</course>
<desc>Speed 3.2 km/h Distance 1.21 km</desc>
<time>2010-02-24T17:25:10.61</time>
<name>1186</name>
</trkpt>
<trkpt lat="48.937920" lon="8.650873">
<ele>311.0</ele>
<speed>4.4</speed>
<course>245.4</course>
<desc>Speed 4.4 km/h Distance 1.21 km</desc>
<time>2010-02-24T17:25:11.61</time>
<name>1187</name>
</trkpt>
<trkpt lat="48.937915" lon="8.650857">
<ele>311.5</ele>
<speed>4.3</speed>
<course>251.3</course>
<desc>Speed 4.3 km/h Distance 1.22 km</desc>
<time>2010-02-24T17:25:12.61</time>
<name>1188</name>
</trkpt>
<trkpt lat="48.937912" lon="8.650842">
<ele>311.5</ele>
<speed>3.5</speed>
<course>243.2</course>
<desc>Speed 3.5 km/h Distance 1.22 km</desc>
<time>2010-02-24T17:25:13.61</time>
<name>1189</name>
</trkpt>
<trkpt lat="48.937905" lon="8.650822">
<ele>311.5</ele>
<speed>4.7</speed>
<course>255.8</course>
<desc>Speed 4.7 km/h Distance 1.22 km</desc>
<time>2010-02-24T17:25:14.61</time>
<name>1190</name>
</trkpt>
<trkpt lat="48.937903" lon="8.650812">
<ele>310.5</ele>
<speed>2.4</speed>
<course>240.3</course>
<desc>Speed 2.4 km/h Distance 1.22 km</desc>
<time>2010-02-24T17:25:15.61</time>
<name>1191</name>
</trkpt>
<trkpt lat="48.937898" lon="8.650798">
<ele>310.5</ele>
<speed>3.5</speed>
<course>251.3</course>
<desc>Speed 3.5 km/h Distance 1.22 km</desc>
<time>2010-02-24T17:25:16.61</time>
<name>1192</name>
</trkpt>
<trkpt lat="48.937895" lon="8.650783">
<ele>310.5</ele>
<speed>3.5</speed>
<course>232.6</course>
<desc>Speed 3.5 km/h Distance 1.22 km</desc>
<time>2010-02-24T17:25:17.61</time>
<name>1193</name>
</trkpt>
<trkpt lat="48.937890" lon="8.650773">
<ele>310.5</ele>
<speed>2.8</speed>
<course>239.6</course>
<desc>Speed 2.8 km/h Distance 1.22 km</desc>
<time>2010-02-24T17:25:18.61</time>
<name>1194</name>
</trkpt>
<trkpt lat="48.937882" lon="8.650752">
<ele>311.0</ele>
<speed>4.0</speed>
<course>247.1</course>
<desc>Speed 4.0 km/h Distance 1.22 km</desc>
<time>2010-02-24T17:25:19.61</time>
<name>1195</name>
</trkpt>
<trkpt lat="48.937873" lon="8.650722">
<ele>312.5</ele>
<speed>4.1</speed>
<course>245.4</course>
<desc>Speed 4.1 km/h Distance 1.23 km</desc>
<time>2010-02-24T17:25:20.61</time>
<name>1196</name>
</trkpt>
<trkpt lat="48.937868" lon="8.650705">
<ele>312.5</ele>
<speed>3.9</speed>
<course>245.4</course>
<desc>Speed 3.9 km/h Distance 1.23 km</desc>
<time>2010-02-24T17:25:21.61</time>
<name>1197</name>
</trkpt>
<trkpt lat="48.937863" lon="8.650688">
<ele>312.0</ele>
<speed>3.7</speed>
<course>243.1</course>
<desc>Speed 3.7 km/h Distance 1.23 km</desc>
<time>2010-02-24T17:25:22.61</time>
<name>1198</name>
</trkpt>
<trkpt lat="48.937858" lon="8.650673">
<ele>312.0</ele>
<speed>4.2</speed>
<course>251.3</course>
<desc>Speed 4.2 km/h Distance 1.23 km</desc>
<time>2010-02-24T17:25:23.61</time>
<name>1199</name>
</trkpt>
<trkpt lat="48.937855" lon="8.650658">
<ele>312.0</ele>
<speed>3.7</speed>
<course>232.6</course>
<desc>Speed 3.7 km/h Distance 1.23 km</desc>
<time>2010-02-24T17:25:24.61</time>
<name>1200</name>
</trkpt>
<trkpt lat="48.937850" lon="8.650648">
<ele>312.0</ele>
<speed>3.1</speed>
<course>240.3</course>
<desc>Speed 3.1 km/h Distance 1.23 km</desc>
<time>2010-02-24T17:25:25.61</time>
<name>1201</name>
</trkpt>
<trkpt lat="48.937845" lon="8.650635">
<ele>312.5</ele>
<speed>3.6</speed>
<course>243.1</course>
<desc>Speed 3.6 km/h Distance 1.23 km</desc>
<time>2010-02-24T17:25:26.61</time>
<name>1202</name>
</trkpt>
<trkpt lat="48.937840" lon="8.650620">
<ele>313.0</ele>
<speed>3.8</speed>
<course>245.5</course>
<desc>Speed 3.8 km/h Distance 1.24 km</desc>
<time>2010-02-24T17:25:27.61</time>
<name>1203</name>
</trkpt>
<trkpt lat="48.937835" lon="8.650603">
<ele>313.0</ele>
<speed>4.1</speed>
<course>235.9</course>
<desc>Speed 4.1 km/h Distance 1.24 km</desc>
<time>2010-02-24T17:25:28.61</time>
<name>1204</name>
</trkpt>
<trkpt lat="48.937828" lon="8.650588">
<ele>313.0</ele>
<speed>4.2</speed>
<course>232.7</course>
<desc>Speed 4.2 km/h Distance 1.24 km</desc>
<time>2010-02-24T17:25:29.61</time>
<name>1205</name>
</trkpt>
<trkpt lat="48.937822" lon="8.650575">
<ele>313.5</ele>
<speed>3.6</speed>
<course>254.5</course>
<desc>Speed 3.6 km/h Distance 1.24 km</desc>
<time>2010-02-24T17:25:30.61</time>
<name>1206</name>
</trkpt>
<trkpt lat="48.937818" lon="8.650557">
<ele>313.0</ele>
<speed>3.6</speed>
<course>240.2</course>
<desc>Speed 3.6 km/h Distance 1.24 km</desc>
<time>2010-02-24T17:25:31.61</time>
<name>1207</name>
</trkpt>
<trkpt lat="48.937813" lon="8.650543">
<ele>313.0</ele>
<speed>3.4</speed>
<course>245.4</course>
<desc>Speed 3.4 km/h Distance 1.24 km</desc>
<time>2010-02-24T17:25:32.61</time>
<name>1208</name>
</trkpt>
<trkpt lat="48.937808" lon="8.650527">
<ele>313.0</ele>
<speed>4.0</speed>
<course>240.3</course>
<desc>Speed 4.0 km/h Distance 1.24 km</desc>
<time>2010-02-24T17:25:33.61</time>
<name>1209</name>
</trkpt>
<trkpt lat="48.937803" lon="8.650513">
<ele>313.5</ele>
<speed>3.6</speed>
<course>243.1</course>
<desc>Speed 3.6 km/h Distance 1.24 km</desc>
<time>2010-02-24T17:25:34.61</time>
<name>1210</name>
</trkpt>
<trkpt lat="48.937797" lon="8.650493">
<ele>313.0</ele>
<speed>4.3</speed>
<course>229.7</course>
<desc>Speed 4.3 km/h Distance 1.25 km</desc>
<time>2010-02-24T17:25:35.61</time>
<name>1211</name>
</trkpt>
<trkpt lat="48.937788" lon="8.650478">
<ele>313.5</ele>
<speed>4.8</speed>
<course>240.3</course>
<desc>Speed 4.8 km/h Distance 1.25 km</desc>
<time>2010-02-24T17:25:36.61</time>
<name>1212</name>
</trkpt>
<trkpt lat="48.937783" lon="8.650465">
<ele>313.5</ele>
<speed>4.0</speed>
<course>238.7</course>
<desc>Speed 4.0 km/h Distance 1.25 km</desc>
<time>2010-02-24T17:25:37.61</time>
<name>1213</name>
</trkpt>
<trkpt lat="48.937777" lon="8.650448">
<ele>313.0</ele>
<speed>4.0</speed>
<course>243.1</course>
<desc>Speed 4.0 km/h Distance 1.25 km</desc>
<time>2010-02-24T17:25:38.61</time>
<name>1214</name>
</trkpt>
<trkpt lat="48.937772" lon="8.650433">
<ele>313.0</ele>
<speed>4.0</speed>
<course>232.7</course>
<desc>Speed 4.0 km/h Distance 1.25 km</desc>
<time>2010-02-24T17:25:39.61</time>
<name>1215</name>
</trkpt>
<trkpt lat="48.937765" lon="8.650420">
<ele>312.5</ele>
<speed>3.5</speed>
<course>240.3</course>
<desc>Speed 3.5 km/h Distance 1.25 km</desc>
<time>2010-02-24T17:25:40.61</time>
<name>1216</name>
</trkpt>
<trkpt lat="48.937760" lon="8.650407">
<ele>312.0</ele>
<speed>3.6</speed>
<course>232.7</course>
<desc>Speed 3.6 km/h Distance 1.25 km</desc>
<time>2010-02-24T17:25:41.61</time>
<name>1217</name>
</trkpt>
<trkpt lat="48.937753" lon="8.650393">
<ele>312.0</ele>
<speed>4.0</speed>
<course>241.0</course>
<desc>Speed 4.0 km/h Distance 1.25 km</desc>
<time>2010-02-24T17:25:42.61</time>
<name>1218</name>
</trkpt>
<trkpt lat="48.937747" lon="8.650375">
<ele>312.0</ele>
<speed>4.4</speed>
<course>245.4</course>
<desc>Speed 4.4 km/h Distance 1.26 km</desc>
<time>2010-02-24T17:25:43.61</time>
<name>1219</name>
</trkpt>
<trkpt lat="48.937742" lon="8.650358">
<ele>312.0</ele>
<speed>4.6</speed>
<course>232.7</course>
<desc>Speed 4.6 km/h Distance 1.26 km</desc>
<time>2010-02-24T17:25:44.61</time>
<name>1220</name>
</trkpt>
<trkpt lat="48.937733" lon="8.650342">
<ele>312.0</ele>
<speed>4.5</speed>
<course>243.1</course>
<desc>Speed 4.5 km/h Distance 1.26 km</desc>
<time>2010-02-24T17:25:45.61</time>
<name>1221</name>
</trkpt>
<trkpt lat="48.937728" lon="8.650327">
<ele>312.0</ele>
<speed>4.5</speed>
<course>226.6</course>
<desc>Speed 4.5 km/h Distance 1.26 km</desc>
<time>2010-02-24T17:25:46.61</time>
<name>1222</name>
</trkpt>
<trkpt lat="48.937720" lon="8.650313">
<ele>312.0</ele>
<speed>4.0</speed>
<course>235.9</course>
<desc>Speed 4.0 km/h Distance 1.26 km</desc>
<time>2010-02-24T17:25:47.61</time>
<name>1223</name>
</trkpt>
<trkpt lat="48.937713" lon="8.650298">
<ele>311.5</ele>
<speed>4.2</speed>
<course>235.9</course>
<desc>Speed 4.2 km/h Distance 1.26 km</desc>
<time>2010-02-24T17:25:48.61</time>
<name>1224</name>
</trkpt>
<trkpt lat="48.937707" lon="8.650283">
<ele>312.0</ele>
<speed>4.4</speed>
<course>238.7</course>
<desc>Speed 4.4 km/h Distance 1.26 km</desc>
<time>2010-02-24T17:25:49.61</time>
<name>1225</name>
</trkpt>
<trkpt lat="48.937700" lon="8.650267">
<ele>312.0</ele>
<speed>4.7</speed>
<course>236.9</course>
<desc>Speed 4.7 km/h Distance 1.27 km</desc>
<time>2010-02-24T17:25:50.61</time>
<name>1226</name>
</trkpt>
<trkpt lat="48.937695" lon="8.650255">
<ele>312.0</ele>
<speed>3.6</speed>
<course>238.3</course>
<desc>Speed 3.6 km/h Distance 1.27 km</desc>
<time>2010-02-24T17:25:51.61</time>
<name>1227</name>
</trkpt>
<trkpt lat="48.937648" lon="8.650140">
<ele>324.5</ele>
<speed>2.4</speed>
<course>243.1</course>
<desc>Speed 2.4 km/h Distance 1.28 km</desc>
<time>2010-02-24T17:25:53.61</time>
<name>1228</name>
</trkpt>
<trkpt lat="48.937627" lon="8.650075">
<ele>331.0</ele>
<speed>3.4</speed>
<course>226.5</course>
<desc>Speed 3.4 km/h Distance 1.28 km</desc>
<time>2010-02-24T17:25:55.61</time>
<name>1229</name>
</trkpt>
<trkpt lat="48.937618" lon="8.650062">
<ele>331.0</ele>
<speed>4.4</speed>
<course>236.0</course>
<desc>Speed 4.4 km/h Distance 1.28 km</desc>
<time>2010-02-24T17:25:56.61</time>
<name>1230</name>
</trkpt>
<trkpt lat="48.937612" lon="8.650047">
<ele>330.5</ele>
<speed>4.5</speed>
<course>236.9</course>
<desc>Speed 4.5 km/h Distance 1.28 km</desc>
<time>2010-02-24T17:25:57.61</time>
<name>1231</name>
</trkpt>
<trkpt lat="48.937607" lon="8.650035">
<ele>330.5</ele>
<speed>3.6</speed>
<course>235.9</course>
<desc>Speed 3.6 km/h Distance 1.29 km</desc>
<time>2010-02-24T17:25:58.61</time>
<name>1232</name>
</trkpt>
<trkpt lat="48.937593" lon="8.650005">
<ele>331.5</ele>
<speed>4.1</speed>
<course>253.1</course>
<desc>Speed 4.1 km/h Distance 1.29 km</desc>
<time>2010-02-24T17:25:59.61</time>
<name>1233</name>
</trkpt>
<trkpt lat="48.937590" lon="8.649988">
<ele>331.5</ele>
<speed>3.7</speed>
<course>251.4</course>
<desc>Speed 3.7 km/h Distance 1.29 km</desc>
<time>2010-02-24T17:26:00.61</time>
<name>1234</name>
</trkpt>
<trkpt lat="48.937587" lon="8.649973">
<ele>331.0</ele>
<speed>3.9</speed>
<course>262.1</course>
<desc>Speed 3.9 km/h Distance 1.29 km</desc>
<time>2010-02-24T17:26:01.61</time>
<name>1235</name>
</trkpt>
<trkpt lat="48.937585" lon="8.649955">
<ele>331.0</ele>
<speed>4.4</speed>
<course>253.1</course>
<desc>Speed 4.4 km/h Distance 1.29 km</desc>
<time>2010-02-24T17:26:02.61</time>
<name>1236</name>
</trkpt>
<trkpt lat="48.937582" lon="8.649938">
<ele>330.5</ele>
<speed>4.1</speed>
<course>236.9</course>
<desc>Speed 4.1 km/h Distance 1.29 km</desc>
<time>2010-02-24T17:26:03.61</time>
<name>1237</name>
</trkpt>
<trkpt lat="48.937577" lon="8.649927">
<ele>330.0</ele>
<speed>3.5</speed>
<course>232.8</course>
<desc>Speed 3.5 km/h Distance 1.29 km</desc>
<time>2010-02-24T17:26:04.61</time>
<name>1238</name>
</trkpt>
<trkpt lat="48.937572" lon="8.649917">
<ele>329.5</ele>
<speed>2.8</speed>
<course>246.2</course>
<desc>Speed 2.8 km/h Distance 1.30 km</desc>
<time>2010-02-24T17:26:05.61</time>
<name>1239</name>
</trkpt>
<trkpt lat="48.937557" lon="8.649865">
<ele>338.0</ele>
<speed>0.7</speed>
<course>219.4</course>
<desc>Speed 0.7 km/h Distance 1.30 km</desc>
<time>2010-02-24T17:26:07.61</time>
<name>1240</name>
</trkpt>
<trkpt lat="48.937550" lon="8.649857">
<ele>339.0</ele>
<speed>2.0</speed>
<course>236.7</course>
<desc>Speed 2.0 km/h Distance 1.30 km</desc>
<time>2010-02-24T17:26:08.61</time>
<name>1241</name>
</trkpt>
<trkpt lat="48.937545" lon="8.649845">
<ele>339.0</ele>
<speed>3.5</speed>
<course>240.3</course>
<desc>Speed 3.5 km/h Distance 1.30 km</desc>
<time>2010-02-24T17:26:09.61</time>
<name>1242</name>
</trkpt>
<trkpt lat="48.937540" lon="8.649832">
<ele>338.5</ele>
<speed>3.6</speed>
<course>240.3</course>
<desc>Speed 3.6 km/h Distance 1.30 km</desc>
<time>2010-02-24T17:26:10.61</time>
<name>1243</name>
</trkpt>
<trkpt lat="48.937535" lon="8.649818">
<ele>338.5</ele>
<speed>3.4</speed>
<course>227.1</course>
<desc>Speed 3.4 km/h Distance 1.30 km</desc>
<time>2010-02-24T17:26:11.61</time>
<name>1244</name>
</trkpt>
<trkpt lat="48.937530" lon="8.649810">
<ele>338.5</ele>
<speed>3.2</speed>
<course>223.1</course>
<desc>Speed 3.2 km/h Distance 1.30 km</desc>
<time>2010-02-24T17:26:12.61</time>
<name>1245</name>
</trkpt>
<trkpt lat="48.937518" lon="8.649793">
<ele>338.5</ele>
<speed>3.6</speed>
<course>232.8</course>
<desc>Speed 3.6 km/h Distance 1.31 km</desc>
<time>2010-02-24T17:26:13.61</time>
<name>1246</name>
</trkpt>
<trkpt lat="48.937513" lon="8.649783">
<ele>338.0</ele>
<speed>3.4</speed>
<course>229.1</course>
<desc>Speed 3.4 km/h Distance 1.31 km</desc>
<time>2010-02-24T17:26:14.61</time>
<name>1247</name>
</trkpt>
<trkpt lat="48.937507" lon="8.649772">
<ele>338.0</ele>
<speed>3.4</speed>
<course>229.7</course>
<desc>Speed 3.4 km/h Distance 1.31 km</desc>
<time>2010-02-24T17:26:15.61</time>
<name>1248</name>
</trkpt>
<trkpt lat="48.937498" lon="8.649757">
<ele>338.0</ele>
<speed>4.4</speed>
<course>232.7</course>
<desc>Speed 4.4 km/h Distance 1.31 km</desc>
<time>2010-02-24T17:26:16.61</time>
<name>1249</name>
</trkpt>
<trkpt lat="48.937492" lon="8.649743">
<ele>338.0</ele>
<speed>4.1</speed>
<course>232.6</course>
<desc>Speed 4.1 km/h Distance 1.31 km</desc>
<time>2010-02-24T17:26:17.61</time>
<name>1250</name>
</trkpt>
<trkpt lat="48.937487" lon="8.649733">
<ele>337.5</ele>
<speed>3.6</speed>
<course>236.7</course>
<desc>Speed 3.6 km/h Distance 1.31 km</desc>
<time>2010-02-24T17:26:18.61</time>
<name>1251</name>
</trkpt>
<trkpt lat="48.937482" lon="8.649722">
<ele>337.5</ele>
<speed>3.2</speed>
<course>224.3</course>
<desc>Speed 3.2 km/h Distance 1.31 km</desc>
<time>2010-02-24T17:26:19.61</time>
<name>1252</name>
</trkpt>
<trkpt lat="48.937475" lon="8.649712">
<ele>337.0</ele>
<speed>3.1</speed>
<course>237.6</course>
<desc>Speed 3.1 km/h Distance 1.31 km</desc>
<time>2010-02-24T17:26:20.61</time>
<name>1253</name>
</trkpt>
<trkpt lat="48.937467" lon="8.649692">
<ele>338.0</ele>
<speed>4.1</speed>
<course>228.4</course>
<desc>Speed 4.1 km/h Distance 1.32 km</desc>
<time>2010-02-24T17:26:21.61</time>
<name>1254</name>
</trkpt>
<trkpt lat="48.937455" lon="8.649672">
<ele>338.5</ele>
<speed>4.1</speed>
<course>232.7</course>
<desc>Speed 4.1 km/h Distance 1.32 km</desc>
<time>2010-02-24T17:26:22.61</time>
<name>1255</name>
</trkpt>
<trkpt lat="48.937448" lon="8.649658">
<ele>338.5</ele>
<speed>4.1</speed>
<course>232.7</course>
<desc>Speed 4.1 km/h Distance 1.32 km</desc>
<time>2010-02-24T17:26:23.61</time>
<name>1256</name>
</trkpt>
<trkpt lat="48.937442" lon="8.649645">
<ele>338.0</ele>
<speed>4.1</speed>
<course>225.9</course>
<desc>Speed 4.1 km/h Distance 1.32 km</desc>
<time>2010-02-24T17:26:24.61</time>
<name>1257</name>
</trkpt>
<trkpt lat="48.937430" lon="8.649627">
<ele>338.5</ele>
<speed>4.4</speed>
<course>232.7</course>
<desc>Speed 4.4 km/h Distance 1.32 km</desc>
<time>2010-02-24T17:26:25.61</time>
<name>1258</name>
</trkpt>
<trkpt lat="48.937420" lon="8.649607">
<ele>339.5</ele>
<speed>4.5</speed>
<course>232.7</course>
<desc>Speed 4.5 km/h Distance 1.32 km</desc>
<time>2010-02-24T17:26:26.61</time>
<name>1259</name>
</trkpt>
<trkpt lat="48.937410" lon="8.649587">
<ele>340.0</ele>
<speed>3.4</speed>
<course>243.0</course>
<desc>Speed 3.4 km/h Distance 1.33 km</desc>
<time>2010-02-24T17:26:27.61</time>
<name>1260</name>
</trkpt>
<trkpt lat="48.937407" lon="8.649577">
<ele>340.0</ele>
<speed>2.6</speed>
<course>243.2</course>
<desc>Speed 2.6 km/h Distance 1.33 km</desc>
<time>2010-02-24T17:26:28.61</time>
<name>1261</name>
</trkpt>
<trkpt lat="48.937403" lon="8.649567">
<ele>340.0</ele>
<speed>2.6</speed>
<course>227.8</course>
<desc>Speed 2.6 km/h Distance 1.33 km</desc>
<time>2010-02-24T17:26:29.61</time>
<name>1262</name>
</trkpt>
<trkpt lat="48.937398" lon="8.649558">
<ele>340.0</ele>
<speed>3.0</speed>
<course>235.9</course>
<desc>Speed 3.0 km/h Distance 1.33 km</desc>
<time>2010-02-24T17:26:30.61</time>
<name>1263</name>
</trkpt>
<trkpt lat="48.937392" lon="8.649543">
<ele>340.5</ele>
<speed>2.6</speed>
<course>240.3</course>
<desc>Speed 2.6 km/h Distance 1.33 km</desc>
<time>2010-02-24T17:26:31.61</time>
<name>1264</name>
</trkpt>
<trkpt lat="48.937387" lon="8.649530">
<ele>340.5</ele>
<speed>3.7</speed>
<course>232.7</course>
<desc>Speed 3.7 km/h Distance 1.33 km</desc>
<time>2010-02-24T17:26:32.61</time>
<name>1265</name>
</trkpt>
<trkpt lat="48.937378" lon="8.649513">
<ele>341.0</ele>
<speed>3.1</speed>
<course>219.4</course>
<desc>Speed 3.1 km/h Distance 1.33 km</desc>
<time>2010-02-24T17:26:33.61</time>
<name>1266</name>
</trkpt>
<trkpt lat="48.937372" lon="8.649505">
<ele>341.5</ele>
<speed>2.6</speed>
<course>219.4</course>
<desc>Speed 2.6 km/h Distance 1.33 km</desc>
<time>2010-02-24T17:26:34.61</time>
<name>1267</name>
</trkpt>
<trkpt lat="48.937358" lon="8.649488">
<ele>342.0</ele>
<speed>4.4</speed>
<course>224.6</course>
<desc>Speed 4.4 km/h Distance 1.33 km</desc>
<time>2010-02-24T17:26:35.61</time>
<name>1268</name>
</trkpt>
<trkpt lat="48.937345" lon="8.649468">
<ele>343.0</ele>
<speed>4.8</speed>
<course>230.3</course>
<desc>Speed 4.8 km/h Distance 1.34 km</desc>
<time>2010-02-24T17:26:36.61</time>
<name>1269</name>
</trkpt>
<trkpt lat="48.937335" lon="8.649450">
<ele>343.5</ele>
<speed>4.5</speed>
<course>226.4</course>
<desc>Speed 4.5 km/h Distance 1.34 km</desc>
<time>2010-02-24T17:26:37.61</time>
<name>1270</name>
</trkpt>
<trkpt lat="48.937327" lon="8.649437">
<ele>344.0</ele>
<speed>3.7</speed>
<course>226.4</course>
<desc>Speed 3.7 km/h Distance 1.34 km</desc>
<time>2010-02-24T17:26:38.61</time>
<name>1271</name>
</trkpt>
<trkpt lat="48.937318" lon="8.649423">
<ele>344.0</ele>
<speed>3.9</speed>
<course>226.6</course>
<desc>Speed 3.9 km/h Distance 1.34 km</desc>
<time>2010-02-24T17:26:39.61</time>
<name>1272</name>
</trkpt>
<trkpt lat="48.937310" lon="8.649410">
<ele>344.5</ele>
<speed>4.4</speed>
<course>222.6</course>
<desc>Speed 4.4 km/h Distance 1.34 km</desc>
<time>2010-02-24T17:26:40.61</time>
<name>1273</name>
</trkpt>
<trkpt lat="48.937302" lon="8.649398">
<ele>344.5</ele>
<speed>4.0</speed>
<course>226.5</course>
<desc>Speed 4.0 km/h Distance 1.34 km</desc>
<time>2010-02-24T17:26:41.61</time>
<name>1274</name>
</trkpt>
<trkpt lat="48.937293" lon="8.649385">
<ele>345.0</ele>
<speed>4.0</speed>
<course>232.7</course>
<desc>Speed 4.0 km/h Distance 1.35 km</desc>
<time>2010-02-24T17:26:42.61</time>
<name>1275</name>
</trkpt>
<trkpt lat="48.937287" lon="8.649372">
<ele>345.5</ele>
<speed>4.2</speed>
<course>229.1</course>
<desc>Speed 4.2 km/h Distance 1.35 km</desc>
<time>2010-02-24T17:26:43.61</time>
<name>1276</name>
</trkpt>
<trkpt lat="48.937280" lon="8.649360">
<ele>345.5</ele>
<speed>4.1</speed>
<course>218.4</course>
<desc>Speed 4.1 km/h Distance 1.35 km</desc>
<time>2010-02-24T17:26:44.61</time>
<name>1277</name>
</trkpt>
<trkpt lat="48.937272" lon="8.649350">
<ele>345.5</ele>
<speed>3.6</speed>
<course>253.1</course>
<desc>Speed 3.6 km/h Distance 1.35 km</desc>
<time>2010-02-24T17:26:45.61</time>
<name>1278</name>
</trkpt>
<trkpt lat="48.937270" lon="8.649342">
<ele>346.0</ele>
<speed>2.3</speed>
<course>253.1</course>
<desc>Speed 2.3 km/h Distance 1.35 km</desc>
<time>2010-02-24T17:26:46.61</time>
<name>1279</name>
</trkpt>
<trkpt lat="48.937270" lon="8.649342">
<ele>346.0</ele>
<speed>0.4</speed>
<course>51.9</course>
<desc>Speed 0.4 km/h Distance 1.35 km</desc>
<time>2010-02-24T17:26:47.61</time>
<name>1280</name>
</trkpt>
<trkpt lat="48.937272" lon="8.649345">
<ele>346.0</ele>
<speed>1.3</speed>
<course>43.5</course>
<desc>Speed 1.3 km/h Distance 1.35 km</desc>
<time>2010-02-24T17:26:48.61</time>
<name>1281</name>
</trkpt>
<trkpt lat="48.937275" lon="8.649350">
<ele>346.5</ele>
<speed>2.3</speed>
<course>12.6</course>
<desc>Speed 2.3 km/h Distance 1.35 km</desc>
<time>2010-02-24T17:26:49.61</time>
<name>1282</name>
</trkpt>
<trkpt lat="48.937278" lon="8.649352">
<ele>347.5</ele>
<speed>1.7</speed>
<course>217.2</course>
<desc>Speed 1.7 km/h Distance 1.35 km</desc>
<time>2010-02-24T17:26:50.61</time>
<name>1283</name>
</trkpt>
<trkpt lat="48.937277" lon="8.649350">
<ele>347.5</ele>
<speed>0.7</speed>
<course>167.4</course>
<desc>Speed 0.7 km/h Distance 1.35 km</desc>
<time>2010-02-24T17:26:51.61</time>
<name>1284</name>
</trkpt>
<trkpt lat="48.937273" lon="8.649350">
<ele>348.0</ele>
<speed>0.9</speed>
<course>231.9</course>
<desc>Speed 0.9 km/h Distance 1.35 km</desc>
<time>2010-02-24T17:26:52.61</time>
<name>1285</name>
</trkpt>
<trkpt lat="48.937272" lon="8.649347">
<ele>348.5</ele>
<speed>0.2</speed>
<course>308.1</course>
<desc>Speed 0.2 km/h Distance 1.35 km</desc>
<time>2010-02-24T17:26:53.61</time>
<name>1286</name>
</trkpt>
<trkpt lat="48.937273" lon="8.649343">
<ele>348.5</ele>
<speed>1.0</speed>
<course>301.1</course>
<desc>Speed 1.0 km/h Distance 1.35 km</desc>
<time>2010-02-24T17:26:54.61</time>
<name>1287</name>
</trkpt>
<trkpt lat="48.937277" lon="8.649335">
<ele>349.0</ele>
<speed>1.8</speed>
<course>270.0</course>
<desc>Speed 1.8 km/h Distance 1.35 km</desc>
<time>2010-02-24T17:26:55.61</time>
<name>1288</name>
</trkpt>
<trkpt lat="48.937277" lon="8.649333">
<ele>349.0</ele>
<speed>0.3</speed>
<course>167.4</course>
<desc>Speed 0.3 km/h Distance 1.35 km</desc>
<time>2010-02-24T17:26:56.61</time>
<name>1289</name>
</trkpt>
<trkpt lat="48.937273" lon="8.649333">
<ele>348.5</ele>
<speed>1.7</speed>
<course>242.6</course>
<desc>Speed 1.7 km/h Distance 1.35 km</desc>
<time>2010-02-24T17:26:57.61</time>
<name>1290</name>
</trkpt>
<trkpt lat="48.937272" lon="8.649328">
<ele>348.0</ele>
<speed>1.9</speed>
<course>330.8</course>
<desc>Speed 1.9 km/h Distance 1.35 km</desc>
<time>2010-02-24T17:26:58.61</time>
<name>1291</name>
</trkpt>
<trkpt lat="48.937273" lon="8.649327">
<ele>348.0</ele>
<speed>0.5</speed>
<course>330.8</course>
<desc>Speed 0.5 km/h Distance 1.35 km</desc>
<time>2010-02-24T17:26:59.61</time>
<name>1292</name>
</trkpt>
<trkpt lat="48.937273" lon="8.649327">
<ele>347.5</ele>
<speed>0.1</speed>
<course>330.8</course>
<desc>Speed 0.1 km/h Distance 1.35 km</desc>
<time>2010-02-24T17:27:00.61</time>
<name>1293</name>
</trkpt>
<trkpt lat="48.937273" lon="8.649327">
<ele>347.5</ele>
<speed>0.1</speed>
<course>270.0</course>
<desc>Speed 0.1 km/h Distance 1.35 km</desc>
<time>2010-02-24T17:27:01.61</time>
<name>1294</name>
</trkpt>
<trkpt lat="48.937273" lon="8.649325">
<ele>347.5</ele>
<speed>0.2</speed>
<course>270.0</course>
<desc>Speed 0.2 km/h Distance 1.35 km</desc>
<time>2010-02-24T17:27:02.61</time>
<name>1295</name>
</trkpt>
<trkpt lat="48.937273" lon="8.649325">
<ele>347.5</ele>
<speed>0.2</speed>
<course>330.8</course>
<desc>Speed 0.2 km/h Distance 1.35 km</desc>
<time>2010-02-24T17:27:03.61</time>
<name>1296</name>
</trkpt>
<trkpt lat="48.937275" lon="8.649323">
<ele>347.5</ele>
<speed>0.1</speed>
<course>330.8</course>
<desc>Speed 0.1 km/h Distance 1.35 km</desc>
<time>2010-02-24T17:27:04.61</time>
<name>1297</name>
</trkpt>
<trkpt lat="48.937275" lon="8.649323">
<ele>347.0</ele>
<speed>0.1</speed>
<course>330.8</course>
<desc>Speed 0.1 km/h Distance 1.35 km</desc>
<time>2010-02-24T17:27:05.61</time>
<name>1298</name>
</trkpt>
<trkpt lat="48.937275" lon="8.649323">
<ele>347.0</ele>
<speed>0.1</speed>
<course>330.8</course>
<desc>Speed 0.1 km/h Distance 1.35 km</desc>
<time>2010-02-24T17:27:06.61</time>
<name>1299</name>
</trkpt>
<trkpt lat="48.937275" lon="8.649323">
<ele>347.0</ele>
<speed>0.2</speed>
<course>330.8</course>
<desc>Speed 0.2 km/h Distance 1.35 km</desc>
<time>2010-02-24T17:27:07.61</time>
<name>1300</name>
</trkpt>
<trkpt lat="48.937275" lon="8.649323">
<ele>347.0</ele>
<speed>0.1</speed>
<course>270.0</course>
<desc>Speed 0.1 km/h Distance 1.35 km</desc>
<time>2010-02-24T17:27:08.61</time>
<name>1301</name>
</trkpt>
<trkpt lat="48.937275" lon="8.649322">
<ele>346.5</ele>
<speed>0.1</speed>
<course>270.0</course>
<desc>Speed 0.1 km/h Distance 1.35 km</desc>
<time>2010-02-24T17:27:09.61</time>
<name>1302</name>
</trkpt>
<trkpt lat="48.937275" lon="8.649322">
<ele>346.5</ele>
<speed>0.0</speed>
<course>12.6</course>
<desc>Speed 0.0 km/h Distance 1.35 km</desc>
<time>2010-02-24T17:27:10.61</time>
<name>1303</name>
</trkpt>
<trkpt lat="48.937277" lon="8.649322">
<ele>346.5</ele>
<speed>0.1</speed>
<course>12.6</course>
<desc>Speed 0.1 km/h Distance 1.35 km</desc>
<time>2010-02-24T17:27:11.61</time>
<name>1304</name>
</trkpt>
<trkpt lat="48.937277" lon="8.649322">
<ele>346.5</ele>
<speed>0.3</speed>
<course>213.2</course>
<desc>Speed 0.3 km/h Distance 1.35 km</desc>
<time>2010-02-24T17:27:12.61</time>
<name>1305</name>
</trkpt>
<trkpt lat="48.937272" lon="8.649317">
<ele>346.0</ele>
<speed>2.3</speed>
<course>213.2</course>
<desc>Speed 2.3 km/h Distance 1.35 km</desc>
<time>2010-02-24T17:27:13.61</time>
<name>1306</name>
</trkpt>
<trkpt lat="48.937265" lon="8.649310">
<ele>346.0</ele>
<speed>2.8</speed>
<course>231.9</course>
<desc>Speed 2.8 km/h Distance 1.36 km</desc>
<time>2010-02-24T17:27:14.61</time>
<name>1307</name>
</trkpt>
<trkpt lat="48.937263" lon="8.649307">
<ele>346.0</ele>
<speed>1.0</speed>
<course>217.2</course>
<desc>Speed 1.0 km/h Distance 1.36 km</desc>
<time>2010-02-24T17:27:15.61</time>
<name>1308</name>
</trkpt>
<trkpt lat="48.937262" lon="8.649305">
<ele>346.0</ele>
<speed>0.6</speed>
<course>217.2</course>
<desc>Speed 0.6 km/h Distance 1.36 km</desc>
<time>2010-02-24T17:27:16.61</time>
<name>1309</name>
</trkpt>
<trkpt lat="48.937262" lon="8.649305">
<ele>346.0</ele>
<speed>0.1</speed>
<course>217.2</course>
<desc>Speed 0.1 km/h Distance 1.36 km</desc>
<time>2010-02-24T17:27:17.61</time>
<name>1310</name>
</trkpt>
<trkpt lat="48.937262" lon="8.649305">
<ele>346.0</ele>
<speed>0.2</speed>
<course>217.2</course>
<desc>Speed 0.2 km/h Distance 1.36 km</desc>
<time>2010-02-24T17:27:18.61</time>
<name>1311</name>
</trkpt>
<trkpt lat="48.937262" lon="8.649305">
<ele>346.0</ele>
<speed>0.3</speed>
<course>270.0</course>
<desc>Speed 0.3 km/h Distance 1.36 km</desc>
<time>2010-02-24T17:27:19.61</time>
<name>1312</name>
</trkpt>
<trkpt lat="48.937262" lon="8.649303">
<ele>346.0</ele>
<speed>0.4</speed>
<course>270.0</course>
<desc>Speed 0.4 km/h Distance 1.36 km</desc>
<time>2010-02-24T17:27:20.61</time>
<name>1313</name>
</trkpt>
<trkpt lat="48.937262" lon="8.649303">
<ele>345.5</ele>
<speed>0.3</speed>
<course>12.6</course>
<desc>Speed 0.3 km/h Distance 1.36 km</desc>
<time>2010-02-24T17:27:21.61</time>
<name>1314</name>
</trkpt>
<trkpt lat="48.937263" lon="8.649303">
<ele>345.5</ele>
<speed>0.7</speed>
<course>217.2</course>
<desc>Speed 0.7 km/h Distance 1.36 km</desc>
<time>2010-02-24T17:27:22.61</time>
<name>1315</name>
</trkpt>
<trkpt lat="48.937262" lon="8.649302">
<ele>345.5</ele>
<speed>0.4</speed>
<course>217.2</course>
<desc>Speed 0.4 km/h Distance 1.36 km</desc>
<time>2010-02-24T17:27:23.61</time>
<name>1316</name>
</trkpt>
<trkpt lat="48.937262" lon="8.649302">
<ele>345.5</ele>
<speed>0.2</speed>
<course>213.7</course>
<desc>Speed 0.2 km/h Distance 1.36 km</desc>
<time>2010-02-24T17:27:24.61</time>
<name>1317</name>
</trkpt>
<trkpt lat="48.937258" lon="8.649298">
<ele>346.0</ele>
<speed>0.9</speed>
<course>218.1</course>
<desc>Speed 0.9 km/h Distance 1.36 km</desc>
<time>2010-02-24T17:27:25.61</time>
<name>1318</name>
</trkpt>
<trkpt lat="48.937250" lon="8.649288">
<ele>346.0</ele>
<speed>3.4</speed>
<course>219.4</course>
<desc>Speed 3.4 km/h Distance 1.36 km</desc>
<time>2010-02-24T17:27:26.61</time>
<name>1319</name>
</trkpt>
<trkpt lat="48.937237" lon="8.649272">
<ele>346.5</ele>
<speed>5.5</speed>
<course>216.9</course>
<desc>Speed 5.5 km/h Distance 1.36 km</desc>
<time>2010-02-24T17:27:27.61</time>
<name>1320</name>
</trkpt>
<trkpt lat="48.937225" lon="8.649258">
<ele>347.0</ele>
<speed>5.2</speed>
<course>227.6</course>
<desc>Speed 5.2 km/h Distance 1.36 km</desc>
<time>2010-02-24T17:27:28.61</time>
<name>1321</name>
</trkpt>
<trkpt lat="48.937215" lon="8.649242">
<ele>347.5</ele>
<speed>4.9</speed>
<course>253.3</course>
<desc>Speed 4.9 km/h Distance 1.36 km</desc>
<time>2010-02-24T17:27:29.61</time>
<name>1322</name>
</trkpt>
<trkpt lat="48.937213" lon="8.649233">
<ele>347.5</ele>
<speed>2.0</speed>
<course>242.6</course>
<desc>Speed 2.0 km/h Distance 1.36 km</desc>
<time>2010-02-24T17:27:30.61</time>
<name>1323</name>
</trkpt>
<trkpt lat="48.937212" lon="8.649228">
<ele>347.5</ele>
<speed>1.4</speed>
<course>242.6</course>
<desc>Speed 1.4 km/h Distance 1.36 km</desc>
<time>2010-02-24T17:27:31.61</time>
<name>1324</name>
</trkpt>
<trkpt lat="48.937212" lon="8.649228">
<ele>347.5</ele>
<speed>0.7</speed>
<course>167.4</course>
<desc>Speed 0.7 km/h Distance 1.36 km</desc>
<time>2010-02-24T17:27:32.61</time>
<name>1325</name>
</trkpt>
<trkpt lat="48.937210" lon="8.649228">
<ele>347.5</ele>
<speed>0.4</speed>
<course>180.0</course>
<desc>Speed 0.4 km/h Distance 1.36 km</desc>
<time>2010-02-24T17:27:33.61</time>
<name>1326</name>
</trkpt>
<trkpt lat="48.937208" lon="8.649228">
<ele>347.5</ele>
<speed>0.8</speed>
<course>224.5</course>
<desc>Speed 0.8 km/h Distance 1.37 km</desc>
<time>2010-02-24T17:27:34.61</time>
<name>1327</name>
</trkpt>
<trkpt lat="48.937205" lon="8.649223">
<ele>347.5</ele>
<speed>1.7</speed>
<course>150.8</course>
<desc>Speed 1.7 km/h Distance 1.37 km</desc>
<time>2010-02-24T17:27:35.61</time>
<name>1328</name>
</trkpt>
<trkpt lat="48.937203" lon="8.649225">
<ele>347.5</ele>
<speed>0.3</speed>
<course>142.8</course>
<desc>Speed 0.3 km/h Distance 1.37 km</desc>
<time>2010-02-24T17:27:36.61</time>
<name>1329</name>
</trkpt>
<trkpt lat="48.937202" lon="8.649227">
<ele>347.5</ele>
<speed>0.5</speed>
<course>142.8</course>
<desc>Speed 0.5 km/h Distance 1.37 km</desc>
<time>2010-02-24T17:27:37.61</time>
<name>1330</name>
</trkpt>
<trkpt lat="48.937202" lon="8.649227">
<ele>347.5</ele>
<speed>0.7</speed>
<course>270.0</course>
<desc>Speed 0.7 km/h Distance 1.37 km</desc>
<time>2010-02-24T17:27:38.61</time>
<name>1331</name>
</trkpt>
<trkpt lat="48.937202" lon="8.649225">
<ele>347.5</ele>
<speed>0.3</speed>
<course>205.4</course>
<desc>Speed 0.3 km/h Distance 1.37 km</desc>
<time>2010-02-24T17:27:39.61</time>
<name>1332</name>
</trkpt>
<trkpt lat="48.937197" lon="8.649222">
<ele>347.5</ele>
<speed>1.4</speed>
<course>209.4</course>
<desc>Speed 1.4 km/h Distance 1.37 km</desc>
<time>2010-02-24T17:27:40.61</time>
<name>1333</name>
</trkpt>
<trkpt lat="48.937185" lon="8.649212">
<ele>348.0</ele>
<speed>4.3</speed>
<course>209.8</course>
<desc>Speed 4.3 km/h Distance 1.37 km</desc>
<time>2010-02-24T17:27:41.61</time>
<name>1334</name>
</trkpt>
<trkpt lat="48.937172" lon="8.649200">
<ele>348.0</ele>
<speed>5.3</speed>
<course>224.5</course>
<desc>Speed 5.3 km/h Distance 1.37 km</desc>
<time>2010-02-24T17:27:42.61</time>
<name>1335</name>
</trkpt>
<trkpt lat="48.937162" lon="8.649185">
<ele>348.5</ele>
<speed>5.0</speed>
<course>224.5</course>
<desc>Speed 5.0 km/h Distance 1.37 km</desc>
<time>2010-02-24T17:27:43.61</time>
<name>1336</name>
</trkpt>
<trkpt lat="48.937152" lon="8.649170">
<ele>349.0</ele>
<speed>4.9</speed>
<course>227.5</course>
<desc>Speed 4.9 km/h Distance 1.37 km</desc>
<time>2010-02-24T17:27:44.61</time>
<name>1337</name>
</trkpt>
<trkpt lat="48.937142" lon="8.649153">
<ele>349.0</ele>
<speed>5.0</speed>
<course>224.5</course>
<desc>Speed 5.0 km/h Distance 1.37 km</desc>
<time>2010-02-24T17:27:45.61</time>
<name>1338</name>
</trkpt>
<trkpt lat="48.937132" lon="8.649138">
<ele>349.0</ele>
<speed>5.1</speed>
<course>223.3</course>
<desc>Speed 5.1 km/h Distance 1.38 km</desc>
<time>2010-02-24T17:27:46.61</time>
<name>1339</name>
</trkpt>
<trkpt lat="48.937120" lon="8.649122">
<ele>349.5</ele>
<speed>5.1</speed>
<course>226.4</course>
<desc>Speed 5.1 km/h Distance 1.38 km</desc>
<time>2010-02-24T17:27:47.61</time>
<name>1340</name>
</trkpt>
<trkpt lat="48.937112" lon="8.649108">
<ele>349.5</ele>
<speed>4.8</speed>
<course>226.4</course>
<desc>Speed 4.8 km/h Distance 1.38 km</desc>
<time>2010-02-24T17:27:48.61</time>
<name>1341</name>
</trkpt>
<trkpt lat="48.937103" lon="8.649095">
<ele>349.0</ele>
<speed>4.7</speed>
<course>229.8</course>
<desc>Speed 4.7 km/h Distance 1.38 km</desc>
<time>2010-02-24T17:27:49.61</time>
<name>1342</name>
</trkpt>
<trkpt lat="48.937095" lon="8.649080">
<ele>349.0</ele>
<speed>5.1</speed>
<course>224.6</course>
<desc>Speed 5.1 km/h Distance 1.38 km</desc>
<time>2010-02-24T17:27:50.61</time>
<name>1343</name>
</trkpt>
<trkpt lat="48.937085" lon="8.649065">
<ele>349.0</ele>
<speed>5.4</speed>
<course>217.5</course>
<desc>Speed 5.4 km/h Distance 1.38 km</desc>
<time>2010-02-24T17:27:51.61</time>
<name>1344</name>
</trkpt>
<trkpt lat="48.937075" lon="8.649053">
<ele>349.5</ele>
<speed>4.5</speed>
<course>221.2</course>
<desc>Speed 4.5 km/h Distance 1.39 km</desc>
<time>2010-02-24T17:27:52.61</time>
<name>1345</name>
</trkpt>
<trkpt lat="48.937065" lon="8.649040">
<ele>350.0</ele>
<speed>5.0</speed>
<course>218.1</course>
<desc>Speed 5.0 km/h Distance 1.39 km</desc>
<time>2010-02-24T17:27:53.61</time>
<name>1346</name>
</trkpt>
<trkpt lat="48.937057" lon="8.649030">
<ele>350.0</ele>
<speed>4.5</speed>
<course>218.1</course>
<desc>Speed 4.5 km/h Distance 1.39 km</desc>
<time>2010-02-24T17:27:54.61</time>
<name>1347</name>
</trkpt>
<trkpt lat="48.937048" lon="8.649020">
<ele>349.5</ele>
<speed>3.9</speed>
<course>213.2</course>
<desc>Speed 3.9 km/h Distance 1.39 km</desc>
<time>2010-02-24T17:27:55.61</time>
<name>1348</name>
</trkpt>
<trkpt lat="48.937038" lon="8.649010">
<ele>349.5</ele>
<speed>4.7</speed>
<course>220.2</course>
<desc>Speed 4.7 km/h Distance 1.39 km</desc>
<time>2010-02-24T17:27:56.61</time>
<name>1349</name>
</trkpt>
<trkpt lat="48.937027" lon="8.648995">
<ele>350.0</ele>
<speed>5.6</speed>
<course>216.9</course>
<desc>Speed 5.6 km/h Distance 1.39 km</desc>
<time>2010-02-24T17:27:57.61</time>
<name>1350</name>
</trkpt>
<trkpt lat="48.937015" lon="8.648982">
<ele>350.0</ele>
<speed>5.5</speed>
<course>216.9</course>
<desc>Speed 5.5 km/h Distance 1.39 km</desc>
<time>2010-02-24T17:27:58.61</time>
<name>1351</name>
</trkpt>
<trkpt lat="48.937003" lon="8.648968">
<ele>350.5</ele>
<speed>5.4</speed>
<course>217.0</course>
<desc>Speed 5.4 km/h Distance 1.40 km</desc>
<time>2010-02-24T17:27:59.61</time>
<name>1352</name>
</trkpt>
<trkpt lat="48.936992" lon="8.648955">
<ele>350.5</ele>
<speed>5.4</speed>
<course>213.4</course>
<desc>Speed 5.4 km/h Distance 1.40 km</desc>
<time>2010-02-24T17:28:00.61</time>
<name>1353</name>
</trkpt>
<trkpt lat="48.936978" lon="8.648942">
<ele>350.5</ele>
<speed>5.5</speed>
<course>217.2</course>
<desc>Speed 5.5 km/h Distance 1.40 km</desc>
<time>2010-02-24T17:28:01.61</time>
<name>1354</name>
</trkpt>
<trkpt lat="48.936967" lon="8.648928">
<ele>351.0</ele>
<speed>5.4</speed>
<course>221.3</course>
<desc>Speed 5.4 km/h Distance 1.40 km</desc>
<time>2010-02-24T17:28:02.61</time>
<name>1355</name>
</trkpt>
<trkpt lat="48.936957" lon="8.648915">
<ele>351.5</ele>
<speed>5.1</speed>
<course>213.3</course>
<desc>Speed 5.1 km/h Distance 1.40 km</desc>
<time>2010-02-24T17:28:03.61</time>
<name>1356</name>
</trkpt>
<trkpt lat="48.936945" lon="8.648903">
<ele>351.5</ele>
<speed>5.2</speed>
<course>216.9</course>
<desc>Speed 5.2 km/h Distance 1.40 km</desc>
<time>2010-02-24T17:28:04.61</time>
<name>1357</name>
</trkpt>
<trkpt lat="48.936933" lon="8.648890">
<ele>351.5</ele>
<speed>5.0</speed>
<course>217.5</course>
<desc>Speed 5.0 km/h Distance 1.41 km</desc>
<time>2010-02-24T17:28:05.61</time>
<name>1358</name>
</trkpt>
<trkpt lat="48.936923" lon="8.648878">
<ele>352.0</ele>
<speed>5.1</speed>
<course>217.2</course>
<desc>Speed 5.1 km/h Distance 1.41 km</desc>
<time>2010-02-24T17:28:06.61</time>
<name>1359</name>
</trkpt>
<trkpt lat="48.936912" lon="8.648865">
<ele>352.0</ele>
<speed>5.2</speed>
<course>224.5</course>
<desc>Speed 5.2 km/h Distance 1.41 km</desc>
<time>2010-02-24T17:28:07.61</time>
<name>1360</name>
</trkpt>
<trkpt lat="48.936902" lon="8.648850">
<ele>352.5</ele>
<speed>5.3</speed>
<course>232.7</course>
<desc>Speed 5.3 km/h Distance 1.41 km</desc>
<time>2010-02-24T17:28:08.61</time>
<name>1361</name>
</trkpt>
<trkpt lat="48.936893" lon="8.648833">
<ele>353.0</ele>
<speed>5.5</speed>
<course>221.3</course>
<desc>Speed 5.5 km/h Distance 1.41 km</desc>
<time>2010-02-24T17:28:09.61</time>
<name>1362</name>
</trkpt>
<trkpt lat="48.936883" lon="8.648820">
<ele>353.0</ele>
<speed>5.2</speed>
<course>221.2</course>
<desc>Speed 5.2 km/h Distance 1.41 km</desc>
<time>2010-02-24T17:28:10.61</time>
<name>1363</name>
</trkpt>
<trkpt lat="48.936873" lon="8.648807">
<ele>353.0</ele>
<speed>5.0</speed>
<course>221.3</course>
<desc>Speed 5.0 km/h Distance 1.41 km</desc>
<time>2010-02-24T17:28:11.61</time>
<name>1364</name>
</trkpt>
<trkpt lat="48.936863" lon="8.648793">
<ele>353.0</ele>
<speed>5.2</speed>
<course>221.2</course>
<desc>Speed 5.2 km/h Distance 1.42 km</desc>
<time>2010-02-24T17:28:12.61</time>
<name>1365</name>
</trkpt>
<trkpt lat="48.936853" lon="8.648780">
<ele>353.0</ele>
<speed>5.2</speed>
<course>221.2</course>
<desc>Speed 5.2 km/h Distance 1.42 km</desc>
<time>2010-02-24T17:28:13.61</time>
<name>1366</name>
</trkpt>
<trkpt lat="48.936843" lon="8.648767">
<ele>353.0</ele>
<speed>5.1</speed>
<course>217.5</course>
<desc>Speed 5.1 km/h Distance 1.42 km</desc>
<time>2010-02-24T17:28:14.61</time>
<name>1367</name>
</trkpt>
<trkpt lat="48.936833" lon="8.648755">
<ele>353.0</ele>
<speed>5.1</speed>
<course>221.2</course>
<desc>Speed 5.1 km/h Distance 1.42 km</desc>
<time>2010-02-24T17:28:15.61</time>
<name>1368</name>
</trkpt>
<trkpt lat="48.936823" lon="8.648742">
<ele>353.0</ele>
<speed>4.9</speed>
<course>224.6</course>
<desc>Speed 4.9 km/h Distance 1.42 km</desc>
<time>2010-02-24T17:28:16.61</time>
<name>1369</name>
</trkpt>
<trkpt lat="48.936813" lon="8.648727">
<ele>353.0</ele>
<speed>5.0</speed>
<course>229.7</course>
<desc>Speed 5.0 km/h Distance 1.42 km</desc>
<time>2010-02-24T17:28:17.61</time>
<name>1370</name>
</trkpt>
<trkpt lat="48.936805" lon="8.648712">
<ele>353.0</ele>
<speed>4.9</speed>
<course>224.7</course>
<desc>Speed 4.9 km/h Distance 1.42 km</desc>
<time>2010-02-24T17:28:18.61</time>
<name>1371</name>
</trkpt>
<trkpt lat="48.936795" lon="8.648697">
<ele>353.5</ele>
<speed>4.8</speed>
<course>224.7</course>
<desc>Speed 4.8 km/h Distance 1.43 km</desc>
<time>2010-02-24T17:28:19.61</time>
<name>1372</name>
</trkpt>
<trkpt lat="48.936785" lon="8.648682">
<ele>353.5</ele>
<speed>4.5</speed>
<course>238.7</course>
<desc>Speed 4.5 km/h Distance 1.43 km</desc>
<time>2010-02-24T17:28:20.61</time>
<name>1373</name>
</trkpt>
<trkpt lat="48.936778" lon="8.648665">
<ele>354.0</ele>
<speed>4.6</speed>
<course>224.5</course>
<desc>Speed 4.6 km/h Distance 1.43 km</desc>
<time>2010-02-24T17:28:21.61</time>
<name>1374</name>
</trkpt>
<trkpt lat="48.936768" lon="8.648650">
<ele>354.0</ele>
<speed>4.7</speed>
<course>221.2</course>
<desc>Speed 4.7 km/h Distance 1.43 km</desc>
<time>2010-02-24T17:28:22.61</time>
<name>1375</name>
</trkpt>
<trkpt lat="48.936758" lon="8.648637">
<ele>354.0</ele>
<speed>4.5</speed>
<course>218.4</course>
<desc>Speed 4.5 km/h Distance 1.43 km</desc>
<time>2010-02-24T17:28:23.61</time>
<name>1376</name>
</trkpt>
<trkpt lat="48.936750" lon="8.648627">
<ele>354.0</ele>
<speed>3.7</speed>
<course>236.7</course>
<desc>Speed 3.7 km/h Distance 1.43 km</desc>
<time>2010-02-24T17:28:24.61</time>
<name>1377</name>
</trkpt>
<trkpt lat="48.936745" lon="8.648615">
<ele>354.5</ele>
<speed>3.7</speed>
<course>226.6</course>
<desc>Speed 3.7 km/h Distance 1.43 km</desc>
<time>2010-02-24T17:28:25.61</time>
<name>1378</name>
</trkpt>
<trkpt lat="48.936737" lon="8.648602">
<ele>354.5</ele>
<speed>3.9</speed>
<course>218.1</course>
<desc>Speed 3.9 km/h Distance 1.44 km</desc>
<time>2010-02-24T17:28:26.61</time>
<name>1379</name>
</trkpt>
<trkpt lat="48.936728" lon="8.648592">
<ele>355.0</ele>
<speed>4.0</speed>
<course>224.5</course>
<desc>Speed 4.0 km/h Distance 1.44 km</desc>
<time>2010-02-24T17:28:27.61</time>
<name>1380</name>
</trkpt>
<trkpt lat="48.936722" lon="8.648582">
<ele>355.0</ele>
<speed>4.1</speed>
<course>222.6</course>
<desc>Speed 4.1 km/h Distance 1.44 km</desc>
<time>2010-02-24T17:28:28.61</time>
<name>1381</name>
</trkpt>
<trkpt lat="48.936713" lon="8.648570">
<ele>355.0</ele>
<speed>4.1</speed>
<course>222.6</course>
<desc>Speed 4.1 km/h Distance 1.44 km</desc>
<time>2010-02-24T17:28:29.61</time>
<name>1382</name>
</trkpt>
<trkpt lat="48.936705" lon="8.648558">
<ele>355.0</ele>
<speed>4.1</speed>
<course>222.6</course>
<desc>Speed 4.1 km/h Distance 1.44 km</desc>
<time>2010-02-24T17:28:30.61</time>
<name>1383</name>
</trkpt>
<trkpt lat="48.936697" lon="8.648547">
<ele>355.5</ele>
<speed>4.4</speed>
<course>222.5</course>
<desc>Speed 4.4 km/h Distance 1.44 km</desc>
<time>2010-02-24T17:28:31.61</time>
<name>1384</name>
</trkpt>
<trkpt lat="48.936688" lon="8.648535">
<ele>355.5</ele>
<speed>4.2</speed>
<course>224.5</course>
<desc>Speed 4.2 km/h Distance 1.44 km</desc>
<time>2010-02-24T17:28:32.61</time>
<name>1385</name>
</trkpt>
<trkpt lat="48.936682" lon="8.648525">
<ele>355.5</ele>
<speed>4.2</speed>
<course>222.6</course>
<desc>Speed 4.2 km/h Distance 1.44 km</desc>
<time>2010-02-24T17:28:33.61</time>
<name>1386</name>
</trkpt>
<trkpt lat="48.936673" lon="8.648513">
<ele>355.5</ele>
<speed>4.2</speed>
<course>222.6</course>
<desc>Speed 4.2 km/h Distance 1.45 km</desc>
<time>2010-02-24T17:28:34.61</time>
<name>1387</name>
</trkpt>
<trkpt lat="48.936665" lon="8.648502">
<ele>355.5</ele>
<speed>4.2</speed>
<course>217.5</course>
<desc>Speed 4.2 km/h Distance 1.45 km</desc>
<time>2010-02-24T17:28:35.61</time>
<name>1388</name>
</trkpt>
<trkpt lat="48.936655" lon="8.648490">
<ele>355.5</ele>
<speed>4.6</speed>
<course>217.5</course>
<desc>Speed 4.6 km/h Distance 1.45 km</desc>
<time>2010-02-24T17:28:36.61</time>
<name>1389</name>
</trkpt>
<trkpt lat="48.936645" lon="8.648478">
<ele>355.5</ele>
<speed>4.5</speed>
<course>222.6</course>
<desc>Speed 4.5 km/h Distance 1.45 km</desc>
<time>2010-02-24T17:28:37.61</time>
<name>1390</name>
</trkpt>
<trkpt lat="48.936637" lon="8.648467">
<ele>355.5</ele>
<speed>4.0</speed>
<course>213.2</course>
<desc>Speed 4.0 km/h Distance 1.45 km</desc>
<time>2010-02-24T17:28:38.61</time>
<name>1391</name>
</trkpt>
<trkpt lat="48.936628" lon="8.648458">
<ele>355.0</ele>
<speed>3.7</speed>
<course>222.6</course>
<desc>Speed 3.7 km/h Distance 1.45 km</desc>
<time>2010-02-24T17:28:39.61</time>
<name>1392</name>
</trkpt>
<trkpt lat="48.936620" lon="8.648447">
<ele>354.5</ele>
<speed>4.4</speed>
<course>218.1</course>
<desc>Speed 4.4 km/h Distance 1.45 km</desc>
<time>2010-02-24T17:28:40.61</time>
<name>1393</name>
</trkpt>
<trkpt lat="48.936612" lon="8.648437">
<ele>354.5</ele>
<speed>4.1</speed>
<course>226.6</course>
<desc>Speed 4.1 km/h Distance 1.45 km</desc>
<time>2010-02-24T17:28:41.61</time>
<name>1394</name>
</trkpt>
<trkpt lat="48.936603" lon="8.648423">
<ele>354.5</ele>
<speed>4.7</speed>
<course>218.4</course>
<desc>Speed 4.7 km/h Distance 1.46 km</desc>
<time>2010-02-24T17:28:42.61</time>
<name>1395</name>
</trkpt>
<trkpt lat="48.936595" lon="8.648413">
<ele>354.5</ele>
<speed>4.2</speed>
<course>226.4</course>
<desc>Speed 4.2 km/h Distance 1.46 km</desc>
<time>2010-02-24T17:28:43.61</time>
<name>1396</name>
</trkpt>
<trkpt lat="48.936587" lon="8.648400">
<ele>354.5</ele>
<speed>4.7</speed>
<course>222.6</course>
<desc>Speed 4.7 km/h Distance 1.46 km</desc>
<time>2010-02-24T17:28:44.61</time>
<name>1397</name>
</trkpt>
<trkpt lat="48.936578" lon="8.648388">
<ele>354.5</ele>
<speed>4.6</speed>
<course>222.6</course>
<desc>Speed 4.6 km/h Distance 1.46 km</desc>
<time>2010-02-24T17:28:45.61</time>
<name>1398</name>
</trkpt>
<trkpt lat="48.936570" lon="8.648377">
<ele>354.5</ele>
<speed>4.5</speed>
<course>222.6</course>
<desc>Speed 4.5 km/h Distance 1.46 km</desc>
<time>2010-02-24T17:28:46.61</time>
<name>1399</name>
</trkpt>
<trkpt lat="48.936562" lon="8.648365">
<ele>354.5</ele>
<speed>4.7</speed>
<course>217.5</course>
<desc>Speed 4.7 km/h Distance 1.46 km</desc>
<time>2010-02-24T17:28:47.61</time>
<name>1400</name>
</trkpt>
<trkpt lat="48.936552" lon="8.648353">
<ele>354.5</ele>
<speed>4.8</speed>
<course>213.4</course>
<desc>Speed 4.8 km/h Distance 1.46 km</desc>
<time>2010-02-24T17:28:48.61</time>
<name>1401</name>
</trkpt>
<trkpt lat="48.936540" lon="8.648342">
<ele>355.0</ele>
<speed>4.9</speed>
<course>218.4</course>
<desc>Speed 4.9 km/h Distance 1.46 km</desc>
<time>2010-02-24T17:28:49.61</time>
<name>1402</name>
</trkpt>
<trkpt lat="48.936532" lon="8.648332">
<ele>355.0</ele>
<speed>4.5</speed>
<course>213.5</course>
<desc>Speed 4.5 km/h Distance 1.47 km</desc>
<time>2010-02-24T17:28:50.61</time>
<name>1403</name>
</trkpt>
<trkpt lat="48.936523" lon="8.648323">
<ele>355.0</ele>
<speed>3.6</speed>
<course>207.9</course>
<desc>Speed 3.6 km/h Distance 1.47 km</desc>
<time>2010-02-24T17:28:51.61</time>
<name>1404</name>
</trkpt>
<trkpt lat="48.936515" lon="8.648317">
<ele>355.5</ele>
<speed>3.3</speed>
<course>219.4</course>
<desc>Speed 3.3 km/h Distance 1.47 km</desc>
<time>2010-02-24T17:28:52.61</time>
<name>1405</name>
</trkpt>
<trkpt lat="48.936508" lon="8.648308">
<ele>355.5</ele>
<speed>3.0</speed>
<course>203.8</course>
<desc>Speed 3.0 km/h Distance 1.47 km</desc>
<time>2010-02-24T17:28:53.61</time>
<name>1406</name>
</trkpt>
<trkpt lat="48.936498" lon="8.648302">
<ele>355.5</ele>
<speed>3.5</speed>
<course>217.5</course>
<desc>Speed 3.5 km/h Distance 1.47 km</desc>
<time>2010-02-24T17:28:54.61</time>
<name>1407</name>
</trkpt>
<trkpt lat="48.936488" lon="8.648290">
<ele>355.5</ele>
<speed>4.1</speed>
<course>217.5</course>
<desc>Speed 4.1 km/h Distance 1.47 km</desc>
<time>2010-02-24T17:28:55.61</time>
<name>1408</name>
</trkpt>
<trkpt lat="48.936478" lon="8.648278">
<ele>355.5</ele>
<speed>4.7</speed>
<course>222.5</course>
<desc>Speed 4.7 km/h Distance 1.47 km</desc>
<time>2010-02-24T17:28:56.61</time>
<name>1409</name>
</trkpt>
<trkpt lat="48.936470" lon="8.648267">
<ele>355.5</ele>
<speed>4.8</speed>
<course>213.3</course>
<desc>Speed 4.8 km/h Distance 1.47 km</desc>
<time>2010-02-24T17:28:57.61</time>
<name>1410</name>
</trkpt>
<trkpt lat="48.936458" lon="8.648255">
<ele>355.5</ele>
<speed>5.0</speed>
<course>226.5</course>
<desc>Speed 5.0 km/h Distance 1.48 km</desc>
<time>2010-02-24T17:28:58.61</time>
<name>1411</name>
</trkpt>
<trkpt lat="48.936450" lon="8.648242">
<ele>355.5</ele>
<speed>4.7</speed>
<course>217.5</course>
<desc>Speed 4.7 km/h Distance 1.48 km</desc>
<time>2010-02-24T17:28:59.61</time>
<name>1412</name>
</trkpt>
<trkpt lat="48.936440" lon="8.648230">
<ele>355.5</ele>
<speed>4.4</speed>
<course>217.3</course>
<desc>Speed 4.4 km/h Distance 1.48 km</desc>
<time>2010-02-24T17:29:00.61</time>
<name>1413</name>
</trkpt>
<trkpt lat="48.936430" lon="8.648218">
<ele>355.5</ele>
<speed>4.2</speed>
<course>213.2</course>
<desc>Speed 4.2 km/h Distance 1.48 km</desc>
<time>2010-02-24T17:29:01.61</time>
<name>1414</name>
</trkpt>
<trkpt lat="48.936420" lon="8.648208">
<ele>355.5</ele>
<speed>4.6</speed>
<course>217.5</course>
<desc>Speed 4.6 km/h Distance 1.48 km</desc>
<time>2010-02-24T17:29:02.61</time>
<name>1415</name>
</trkpt>
<trkpt lat="48.936410" lon="8.648197">
<ele>355.5</ele>
<speed>4.5</speed>
<course>226.5</course>
<desc>Speed 4.5 km/h Distance 1.48 km</desc>
<time>2010-02-24T17:29:03.61</time>
<name>1416</name>
</trkpt>
<trkpt lat="48.936402" lon="8.648183">
<ele>355.5</ele>
<speed>4.7</speed>
<course>226.4</course>
<desc>Speed 4.7 km/h Distance 1.48 km</desc>
<time>2010-02-24T17:29:04.61</time>
<name>1417</name>
</trkpt>
<trkpt lat="48.936393" lon="8.648170">
<ele>355.5</ele>
<speed>4.8</speed>
<course>222.6</course>
<desc>Speed 4.8 km/h Distance 1.49 km</desc>
<time>2010-02-24T17:29:05.61</time>
<name>1418</name>
</trkpt>
<trkpt lat="48.936385" lon="8.648158">
<ele>355.5</ele>
<speed>4.5</speed>
<course>229.1</course>
<desc>Speed 4.5 km/h Distance 1.49 km</desc>
<time>2010-02-24T17:29:06.61</time>
<name>1419</name>
</trkpt>
<trkpt lat="48.936378" lon="8.648147">
<ele>355.5</ele>
<speed>4.6</speed>
<course>226.5</course>
<desc>Speed 4.6 km/h Distance 1.49 km</desc>
<time>2010-02-24T17:29:07.61</time>
<name>1420</name>
</trkpt>
<trkpt lat="48.936370" lon="8.648133">
<ele>355.5</ele>
<speed>4.5</speed>
<course>226.5</course>
<desc>Speed 4.5 km/h Distance 1.49 km</desc>
<time>2010-02-24T17:29:08.61</time>
<name>1421</name>
</trkpt>
<trkpt lat="48.936362" lon="8.648120">
<ele>356.0</ele>
<speed>4.6</speed>
<course>232.7</course>
<desc>Speed 4.6 km/h Distance 1.49 km</desc>
<time>2010-02-24T17:29:09.61</time>
<name>1422</name>
</trkpt>
<trkpt lat="48.936355" lon="8.648107">
<ele>356.0</ele>
<speed>4.2</speed>
<course>243.1</course>
<desc>Speed 4.2 km/h Distance 1.49 km</desc>
<time>2010-02-24T17:29:10.61</time>
<name>1423</name>
</trkpt>
<trkpt lat="48.936350" lon="8.648092">
<ele>356.0</ele>
<speed>4.3</speed>
<course>238.7</course>
<desc>Speed 4.3 km/h Distance 1.49 km</desc>
<time>2010-02-24T17:29:11.61</time>
<name>1424</name>
</trkpt>
<trkpt lat="48.936343" lon="8.648075">
<ele>356.0</ele>
<speed>4.5</speed>
<course>236.9</course>
<desc>Speed 4.5 km/h Distance 1.49 km</desc>
<time>2010-02-24T17:29:12.61</time>
<name>1425</name>
</trkpt>
<trkpt lat="48.936338" lon="8.648063">
<ele>356.0</ele>
<speed>4.0</speed>
<course>217.5</course>
<desc>Speed 4.0 km/h Distance 1.50 km</desc>
<time>2010-02-24T17:29:13.61</time>
<name>1426</name>
</trkpt>
<trkpt lat="48.936328" lon="8.648052">
<ele>356.5</ele>
<speed>4.6</speed>
<course>227.8</course>
<desc>Speed 4.6 km/h Distance 1.50 km</desc>
<time>2010-02-24T17:29:14.61</time>
<name>1427</name>
</trkpt>
<trkpt lat="48.936323" lon="8.648043">
<ele>356.0</ele>
<speed>3.3</speed>
<course>207.9</course>
<desc>Speed 3.3 km/h Distance 1.50 km</desc>
<time>2010-02-24T17:29:15.61</time>
<name>1428</name>
</trkpt>
<trkpt lat="48.936315" lon="8.648037">
<ele>356.5</ele>
<speed>3.5</speed>
<course>213.2</course>
<desc>Speed 3.5 km/h Distance 1.50 km</desc>
<time>2010-02-24T17:29:16.61</time>
<name>1429</name>
</trkpt>
<trkpt lat="48.936307" lon="8.648028">
<ele>356.5</ele>
<speed>3.7</speed>
<course>229.1</course>
<desc>Speed 3.7 km/h Distance 1.50 km</desc>
<time>2010-02-24T17:29:17.61</time>
<name>1430</name>
</trkpt>
<trkpt lat="48.936300" lon="8.648017">
<ele>356.0</ele>
<speed>4.5</speed>
<course>222.6</course>
<desc>Speed 4.5 km/h Distance 1.50 km</desc>
<time>2010-02-24T17:29:18.61</time>
<name>1431</name>
</trkpt>
<trkpt lat="48.936292" lon="8.648005">
<ele>356.0</ele>
<speed>4.2</speed>
<course>238.7</course>
<desc>Speed 4.2 km/h Distance 1.50 km</desc>
<time>2010-02-24T17:29:19.61</time>
<name>1432</name>
</trkpt>
<trkpt lat="48.936285" lon="8.647988">
<ele>355.5</ele>
<speed>4.6</speed>
<course>228.9</course>
<desc>Speed 4.6 km/h Distance 1.50 km</desc>
<time>2010-02-24T17:29:20.61</time>
<name>1433</name>
</trkpt>
<trkpt lat="48.936278" lon="8.647977">
<ele>355.0</ele>
<speed>3.9</speed>
<course>226.4</course>
<desc>Speed 3.9 km/h Distance 1.50 km</desc>
<time>2010-02-24T17:29:21.61</time>
<name>1434</name>
</trkpt>
<trkpt lat="48.936270" lon="8.647963">
<ele>354.5</ele>
<speed>4.4</speed>
<course>222.5</course>
<desc>Speed 4.4 km/h Distance 1.51 km</desc>
<time>2010-02-24T17:29:22.61</time>
<name>1435</name>
</trkpt>
<trkpt lat="48.936262" lon="8.647952">
<ele>354.0</ele>
<speed>4.0</speed>
<course>232.8</course>
<desc>Speed 4.0 km/h Distance 1.51 km</desc>
<time>2010-02-24T17:29:23.61</time>
<name>1436</name>
</trkpt>
<trkpt lat="48.936257" lon="8.647942">
<ele>353.5</ele>
<speed>3.8</speed>
<course>224.5</course>
<desc>Speed 3.8 km/h Distance 1.51 km</desc>
<time>2010-02-24T17:29:24.61</time>
<name>1437</name>
</trkpt>
<trkpt lat="48.936250" lon="8.647932">
<ele>353.5</ele>
<speed>3.2</speed>
<course>228.9</course>
<desc>Speed 3.2 km/h Distance 1.51 km</desc>
<time>2010-02-24T17:29:25.61</time>
<name>1438</name>
</trkpt>
<trkpt lat="48.936243" lon="8.647920">
<ele>353.0</ele>
<speed>3.9</speed>
<course>213.2</course>
<desc>Speed 3.9 km/h Distance 1.51 km</desc>
<time>2010-02-24T17:29:26.61</time>
<name>1439</name>
</trkpt>
<trkpt lat="48.936235" lon="8.647912">
<ele>352.5</ele>
<speed>3.4</speed>
<course>227.8</course>
<desc>Speed 3.4 km/h Distance 1.51 km</desc>
<time>2010-02-24T17:29:27.61</time>
<name>1440</name>
</trkpt>
<trkpt lat="48.936230" lon="8.647903">
<ele>351.5</ele>
<speed>2.9</speed>
<course>219.4</course>
<desc>Speed 2.9 km/h Distance 1.51 km</desc>
<time>2010-02-24T17:29:28.61</time>
<name>1441</name>
</trkpt>
<trkpt lat="48.936223" lon="8.647895">
<ele>350.5</ele>
<speed>2.7</speed>
<course>222.5</course>
<desc>Speed 2.7 km/h Distance 1.51 km</desc>
<time>2010-02-24T17:29:29.61</time>
<name>1442</name>
</trkpt>
<trkpt lat="48.936215" lon="8.647883">
<ele>350.0</ele>
<speed>3.6</speed>
<course>218.1</course>
<desc>Speed 3.6 km/h Distance 1.51 km</desc>
<time>2010-02-24T17:29:30.61</time>
<name>1443</name>
</trkpt>
<trkpt lat="48.936207" lon="8.647873">
<ele>350.0</ele>
<speed>4.2</speed>
<course>197.6</course>
<desc>Speed 4.2 km/h Distance 1.52 km</desc>
<time>2010-02-24T17:29:31.61</time>
<name>1444</name>
</trkpt>
<trkpt lat="48.936197" lon="8.647868">
<ele>349.5</ele>
<speed>3.6</speed>
<course>219.4</course>
<desc>Speed 3.6 km/h Distance 1.52 km</desc>
<time>2010-02-24T17:29:32.61</time>
<name>1445</name>
</trkpt>
<trkpt lat="48.936190" lon="8.647860">
<ele>349.5</ele>
<speed>3.4</speed>
<course>218.1</course>
<desc>Speed 3.4 km/h Distance 1.52 km</desc>
<time>2010-02-24T17:29:33.61</time>
<name>1446</name>
</trkpt>
<trkpt lat="48.936182" lon="8.647850">
<ele>349.5</ele>
<speed>4.2</speed>
<course>226.5</course>
<desc>Speed 4.2 km/h Distance 1.52 km</desc>
<time>2010-02-24T17:29:34.61</time>
<name>1447</name>
</trkpt>
<trkpt lat="48.936173" lon="8.647837">
<ele>349.5</ele>
<speed>4.5</speed>
<course>218.1</course>
<desc>Speed 4.5 km/h Distance 1.52 km</desc>
<time>2010-02-24T17:29:35.61</time>
<name>1448</name>
</trkpt>
<trkpt lat="48.936165" lon="8.647827">
<ele>349.5</ele>
<speed>4.2</speed>
<course>213.2</course>
<desc>Speed 4.2 km/h Distance 1.52 km</desc>
<time>2010-02-24T17:29:36.61</time>
<name>1449</name>
</trkpt>
<trkpt lat="48.936158" lon="8.647820">
<ele>348.5</ele>
<speed>2.9</speed>
<course>206.4</course>
<desc>Speed 2.9 km/h Distance 1.52 km</desc>
<time>2010-02-24T17:29:37.61</time>
<name>1450</name>
</trkpt>
<trkpt lat="48.936152" lon="8.647815">
<ele>348.0</ele>
<speed>2.7</speed>
<course>206.4</course>
<desc>Speed 2.7 km/h Distance 1.52 km</desc>
<time>2010-02-24T17:29:38.61</time>
<name>1451</name>
</trkpt>
<trkpt lat="48.936145" lon="8.647810">
<ele>347.0</ele>
<speed>2.9</speed>
<course>224.5</course>
<desc>Speed 2.9 km/h Distance 1.52 km</desc>
<time>2010-02-24T17:29:39.61</time>
<name>1452</name>
</trkpt>
<trkpt lat="48.936138" lon="8.647800">
<ele>346.5</ele>
<speed>3.5</speed>
<course>212.6</course>
<desc>Speed 3.5 km/h Distance 1.53 km</desc>
<time>2010-02-24T17:29:40.61</time>
<name>1453</name>
</trkpt>
<trkpt lat="48.936132" lon="8.647793">
<ele>345.5</ele>
<speed>2.8</speed>
<course>229.1</course>
<desc>Speed 2.8 km/h Distance 1.53 km</desc>
<time>2010-02-24T17:29:41.61</time>
<name>1454</name>
</trkpt>
<trkpt lat="48.936125" lon="8.647782">
<ele>345.0</ele>
<speed>3.9</speed>
<course>233.0</course>
<desc>Speed 3.9 km/h Distance 1.53 km</desc>
<time>2010-02-24T17:29:42.61</time>
<name>1455</name>
</trkpt>
<trkpt lat="48.936122" lon="8.647775">
<ele>344.0</ele>
<speed>2.3</speed>
<course>218.4</course>
<desc>Speed 2.3 km/h Distance 1.53 km</desc>
<time>2010-02-24T17:29:43.61</time>
<name>1456</name>
</trkpt>
<trkpt lat="48.936113" lon="8.647765">
<ele>343.0</ele>
<speed>3.7</speed>
<course>218.1</course>
<desc>Speed 3.7 km/h Distance 1.53 km</desc>
<time>2010-02-24T17:29:44.61</time>
<name>1457</name>
</trkpt>
<trkpt lat="48.936105" lon="8.647755">
<ele>343.0</ele>
<speed>4.3</speed>
<course>213.2</course>
<desc>Speed 4.3 km/h Distance 1.53 km</desc>
<time>2010-02-24T17:29:45.61</time>
<name>1458</name>
</trkpt>
<trkpt lat="48.936097" lon="8.647747">
<ele>342.0</ele>
<speed>3.2</speed>
<course>213.2</course>
<desc>Speed 3.2 km/h Distance 1.53 km</desc>
<time>2010-02-24T17:29:46.61</time>
<name>1459</name>
</trkpt>
<trkpt lat="48.936088" lon="8.647738">
<ele>341.5</ele>
<speed>3.8</speed>
<course>213.4</course>
<desc>Speed 3.8 km/h Distance 1.53 km</desc>
<time>2010-02-24T17:29:47.61</time>
<name>1460</name>
</trkpt>
<trkpt lat="48.936078" lon="8.647728">
<ele>341.0</ele>
<speed>4.0</speed>
<course>222.6</course>
<desc>Speed 4.0 km/h Distance 1.53 km</desc>
<time>2010-02-24T17:29:48.61</time>
<name>1461</name>
</trkpt>
<trkpt lat="48.936070" lon="8.647717">
<ele>340.5</ele>
<speed>4.1</speed>
<course>217.5</course>
<desc>Speed 4.1 km/h Distance 1.53 km</desc>
<time>2010-02-24T17:29:49.61</time>
<name>1462</name>
</trkpt>
<trkpt lat="48.936060" lon="8.647705">
<ele>341.0</ele>
<speed>4.7</speed>
<course>205.2</course>
<desc>Speed 4.7 km/h Distance 1.54 km</desc>
<time>2010-02-24T17:29:50.61</time>
<name>1463</name>
</trkpt>
<trkpt lat="48.936048" lon="8.647697">
<ele>340.0</ele>
<speed>5.1</speed>
<course>226.4</course>
<desc>Speed 5.1 km/h Distance 1.54 km</desc>
<time>2010-02-24T17:29:51.61</time>
<name>1464</name>
</trkpt>
<trkpt lat="48.936040" lon="8.647683">
<ele>339.5</ele>
<speed>4.7</speed>
<course>221.2</course>
<desc>Speed 4.7 km/h Distance 1.54 km</desc>
<time>2010-02-24T17:29:52.61</time>
<name>1465</name>
</trkpt>
<trkpt lat="48.936030" lon="8.647670">
<ele>339.5</ele>
<speed>5.2</speed>
<course>226.4</course>
<desc>Speed 5.2 km/h Distance 1.54 km</desc>
<time>2010-02-24T17:29:53.61</time>
<name>1466</name>
</trkpt>
<trkpt lat="48.936022" lon="8.647657">
<ele>339.0</ele>
<speed>4.8</speed>
<course>217.2</course>
<desc>Speed 4.8 km/h Distance 1.54 km</desc>
<time>2010-02-24T17:29:54.61</time>
<name>1467</name>
</trkpt>
<trkpt lat="48.936012" lon="8.647645">
<ele>339.0</ele>
<speed>5.0</speed>
<course>221.3</course>
<desc>Speed 5.0 km/h Distance 1.54 km</desc>
<time>2010-02-24T17:29:55.61</time>
<name>1468</name>
</trkpt>
<trkpt lat="48.936002" lon="8.647632">
<ele>339.0</ele>
<speed>4.9</speed>
<course>217.5</course>
<desc>Speed 4.9 km/h Distance 1.54 km</desc>
<time>2010-02-24T17:29:56.61</time>
<name>1469</name>
</trkpt>
<trkpt lat="48.935992" lon="8.647620">
<ele>339.0</ele>
<speed>4.7</speed>
<course>213.1</course>
<desc>Speed 4.7 km/h Distance 1.55 km</desc>
<time>2010-02-24T17:29:57.61</time>
<name>1470</name>
</trkpt>
<trkpt lat="48.935980" lon="8.647608">
<ele>339.0</ele>
<speed>4.7</speed>
<course>222.6</course>
<desc>Speed 4.7 km/h Distance 1.55 km</desc>
<time>2010-02-24T17:29:58.61</time>
<name>1471</name>
</trkpt>
<trkpt lat="48.935972" lon="8.647597">
<ele>338.5</ele>
<speed>4.6</speed>
<course>221.2</course>
<desc>Speed 4.6 km/h Distance 1.55 km</desc>
<time>2010-02-24T17:29:59.61</time>
<name>1472</name>
</trkpt>
<trkpt lat="48.935962" lon="8.647583">
<ele>338.5</ele>
<speed>4.8</speed>
<course>219.5</course>
<desc>Speed 4.8 km/h Distance 1.55 km</desc>
<time>2010-02-24T17:30:00.61</time>
<name>1473</name>
</trkpt>
<trkpt lat="48.935948" lon="8.647567">
<ele>339.5</ele>
<speed>5.0</speed>
<course>217.5</course>
<desc>Speed 5.0 km/h Distance 1.55 km</desc>
<time>2010-02-24T17:30:01.61</time>
<name>1474</name>
</trkpt>
<trkpt lat="48.935938" lon="8.647555">
<ele>339.0</ele>
<speed>4.7</speed>
<course>213.2</course>
<desc>Speed 4.7 km/h Distance 1.55 km</desc>
<time>2010-02-24T17:30:02.61</time>
<name>1475</name>
</trkpt>
<trkpt lat="48.935928" lon="8.647545">
<ele>339.0</ele>
<speed>4.5</speed>
<course>218.4</course>
<desc>Speed 4.5 km/h Distance 1.56 km</desc>
<time>2010-02-24T17:30:03.61</time>
<name>1476</name>
</trkpt>
<trkpt lat="48.935920" lon="8.647535">
<ele>339.0</ele>
<speed>3.5</speed>
<course>230.4</course>
<desc>Speed 3.5 km/h Distance 1.56 km</desc>
<time>2010-02-24T17:30:04.61</time>
<name>1477</name>
</trkpt>
<trkpt lat="48.935910" lon="8.647517">
<ele>340.5</ele>
<speed>4.5</speed>
<course>222.6</course>
<desc>Speed 4.5 km/h Distance 1.56 km</desc>
<time>2010-02-24T17:30:05.61</time>
<name>1478</name>
</trkpt>
<trkpt lat="48.935902" lon="8.647505">
<ele>340.0</ele>
<speed>4.2</speed>
<course>218.1</course>
<desc>Speed 4.2 km/h Distance 1.56 km</desc>
<time>2010-02-24T17:30:06.61</time>
<name>1479</name>
</trkpt>
<trkpt lat="48.935893" lon="8.647495">
<ele>339.5</ele>
<speed>3.6</speed>
<course>226.5</course>
<desc>Speed 3.6 km/h Distance 1.56 km</desc>
<time>2010-02-24T17:30:07.61</time>
<name>1480</name>
</trkpt>
<trkpt lat="48.935885" lon="8.647482">
<ele>338.5</ele>
<speed>3.9</speed>
<course>227.8</course>
<desc>Speed 3.9 km/h Distance 1.56 km</desc>
<time>2010-02-24T17:30:08.61</time>
<name>1481</name>
</trkpt>
<trkpt lat="48.935880" lon="8.647473">
<ele>337.5</ele>
<speed>3.1</speed>
<course>227.8</course>
<desc>Speed 3.1 km/h Distance 1.56 km</desc>
<time>2010-02-24T17:30:09.61</time>
<name>1482</name>
</trkpt>
<trkpt lat="48.935875" lon="8.647465">
<ele>336.5</ele>
<speed>2.7</speed>
<course>224.5</course>
<desc>Speed 2.7 km/h Distance 1.56 km</desc>
<time>2010-02-24T17:30:10.61</time>
<name>1483</name>
</trkpt>
<trkpt lat="48.935868" lon="8.647455">
<ele>335.5</ele>
<speed>3.5</speed>
<course>227.8</course>
<desc>Speed 3.5 km/h Distance 1.56 km</desc>
<time>2010-02-24T17:30:11.61</time>
<name>1484</name>
</trkpt>
<trkpt lat="48.935863" lon="8.647447">
<ele>334.5</ele>
<speed>2.7</speed>
<course>227.8</course>
<desc>Speed 2.7 km/h Distance 1.57 km</desc>
<time>2010-02-24T17:30:12.61</time>
<name>1485</name>
</trkpt>
<trkpt lat="48.935858" lon="8.647438">
<ele>334.0</ele>
<speed>2.6</speed>
<course>227.4</course>
<desc>Speed 2.6 km/h Distance 1.57 km</desc>
<time>2010-02-24T17:30:13.61</time>
<name>1486</name>
</trkpt>
<trkpt lat="48.935853" lon="8.647430">
<ele>333.5</ele>
<speed>2.8</speed>
<course>207.9</course>
<desc>Speed 2.8 km/h Distance 1.57 km</desc>
<time>2010-02-24T17:30:14.61</time>
<name>1487</name>
</trkpt>
<trkpt lat="48.935845" lon="8.647423">
<ele>333.5</ele>
<speed>3.9</speed>
<course>219.7</course>
<desc>Speed 3.9 km/h Distance 1.57 km</desc>
<time>2010-02-24T17:30:15.61</time>
<name>1488</name>
</trkpt>
<trkpt lat="48.935838" lon="8.647415">
<ele>333.5</ele>
<speed>3.3</speed>
<course>243.4</course>
<desc>Speed 3.3 km/h Distance 1.57 km</desc>
<time>2010-02-24T17:30:16.61</time>
<name>1489</name>
</trkpt>
<trkpt lat="48.935835" lon="8.647405">
<ele>333.0</ele>
<speed>2.5</speed>
<course>227.8</course>
<desc>Speed 2.5 km/h Distance 1.57 km</desc>
<time>2010-02-24T17:30:17.61</time>
<name>1490</name>
</trkpt>
<trkpt lat="48.935830" lon="8.647397">
<ele>332.5</ele>
<speed>2.6</speed>
<course>218.1</course>
<desc>Speed 2.6 km/h Distance 1.57 km</desc>
<time>2010-02-24T17:30:18.61</time>
<name>1491</name>
</trkpt>
<trkpt lat="48.935822" lon="8.647387">
<ele>332.0</ele>
<speed>3.3</speed>
<course>219.4</course>
<desc>Speed 3.3 km/h Distance 1.57 km</desc>
<time>2010-02-24T17:30:19.61</time>
<name>1492</name>
</trkpt>
<trkpt lat="48.935815" lon="8.647378">
<ele>331.5</ele>
<speed>2.4</speed>
<course>219.4</course>
<desc>Speed 2.4 km/h Distance 1.57 km</desc>
<time>2010-02-24T17:30:20.61</time>
<name>1493</name>
</trkpt>
<trkpt lat="48.935808" lon="8.647370">
<ele>330.5</ele>
<speed>2.0</speed>
<course>205.6</course>
<desc>Speed 2.0 km/h Distance 1.57 km</desc>
<time>2010-02-24T17:30:21.61</time>
<name>1494</name>
</trkpt>
<trkpt lat="48.935802" lon="8.647365">
<ele>330.0</ele>
<speed>2.6</speed>
<course>227.8</course>
<desc>Speed 2.6 km/h Distance 1.57 km</desc>
<time>2010-02-24T17:30:22.61</time>
<name>1495</name>
</trkpt>
<trkpt lat="48.935797" lon="8.647357">
<ele>329.0</ele>
<speed>2.5</speed>
<course>246.5</course>
<desc>Speed 2.5 km/h Distance 1.58 km</desc>
<time>2010-02-24T17:30:23.61</time>
<name>1496</name>
</trkpt>
<trkpt lat="48.935793" lon="8.647345">
<ele>328.5</ele>
<speed>3.0</speed>
<course>255.8</course>
<desc>Speed 3.0 km/h Distance 1.58 km</desc>
<time>2010-02-24T17:30:24.61</time>
<name>1497</name>
</trkpt>
<trkpt lat="48.935792" lon="8.647335">
<ele>328.5</ele>
<speed>2.7</speed>
<course>302.9</course>
<desc>Speed 2.7 km/h Distance 1.58 km</desc>
<time>2010-02-24T17:30:25.61</time>
<name>1498</name>
</trkpt>
<trkpt lat="48.935797" lon="8.647323">
<ele>328.5</ele>
<speed>3.3</speed>
<course>326.8</course>
<desc>Speed 3.3 km/h Distance 1.58 km</desc>
<time>2010-02-24T17:30:26.61</time>
<name>1499</name>
</trkpt>
<trkpt lat="48.935805" lon="8.647315">
<ele>328.0</ele>
<speed>4.2</speed>
<course>342.5</course>
<desc>Speed 4.2 km/h Distance 1.58 km</desc>
<time>2010-02-24T17:30:27.61</time>
<name>1500</name>
</trkpt>
<trkpt lat="48.935812" lon="8.647312">
<ele>328.0</ele>
<speed>3.3</speed>
<course>326.8</course>
<desc>Speed 3.3 km/h Distance 1.58 km</desc>
<time>2010-02-24T17:30:28.61</time>
<name>1501</name>
</trkpt>
<trkpt lat="48.935817" lon="8.647307">
<ele>328.0</ele>
<speed>2.3</speed>
<course>270.0</course>
<desc>Speed 2.3 km/h Distance 1.58 km</desc>
<time>2010-02-24T17:30:29.61</time>
<name>1502</name>
</trkpt>
<trkpt lat="48.935817" lon="8.647290">
<ele>329.5</ele>
<speed>2.2</speed>
<course>246.5</course>
<desc>Speed 2.2 km/h Distance 1.58 km</desc>
<time>2010-02-24T17:30:30.61</time>
<name>1503</name>
</trkpt>
<trkpt lat="48.935813" lon="8.647278">
<ele>331.0</ele>
<speed>0.3</speed>
<course>213.3</course>
<desc>Speed 0.3 km/h Distance 1.58 km</desc>
<time>2010-02-24T17:30:31.61</time>
<name>1504</name>
</trkpt>
<trkpt lat="48.935798" lon="8.647263">
<ele>333.0</ele>
<speed>3.6</speed>
<course>207.9</course>
<desc>Speed 3.6 km/h Distance 1.58 km</desc>
<time>2010-02-24T17:30:32.61</time>
<name>1505</name>
</trkpt>
<trkpt lat="48.935790" lon="8.647257">
<ele>333.0</ele>
<speed>3.6</speed>
<course>201.5</course>
<desc>Speed 3.6 km/h Distance 1.59 km</desc>
<time>2010-02-24T17:30:33.61</time>
<name>1506</name>
</trkpt>
<trkpt lat="48.935782" lon="8.647252">
<ele>332.5</ele>
<speed>3.3</speed>
<course>198.2</course>
<desc>Speed 3.3 km/h Distance 1.59 km</desc>
<time>2010-02-24T17:30:34.61</time>
<name>1507</name>
</trkpt>
<trkpt lat="48.935772" lon="8.647247">
<ele>333.5</ele>
<speed>3.3</speed>
<course>217.5</course>
<desc>Speed 3.3 km/h Distance 1.59 km</desc>
<time>2010-02-24T17:30:35.61</time>
<name>1508</name>
</trkpt>
<trkpt lat="48.935762" lon="8.647235">
<ele>334.5</ele>
<speed>3.2</speed>
<course>188.1</course>
<desc>Speed 3.2 km/h Distance 1.59 km</desc>
<time>2010-02-24T17:30:36.61</time>
<name>1509</name>
</trkpt>
<trkpt lat="48.935752" lon="8.647233">
<ele>334.0</ele>
<speed>3.8</speed>
<course>190.4</course>
<desc>Speed 3.8 km/h Distance 1.59 km</desc>
<time>2010-02-24T17:30:37.61</time>
<name>1510</name>
</trkpt>
<trkpt lat="48.935740" lon="8.647230">
<ele>334.0</ele>
<speed>4.1</speed>
<course>203.8</course>
<desc>Speed 4.1 km/h Distance 1.59 km</desc>
<time>2010-02-24T17:30:38.61</time>
<name>1511</name>
</trkpt>
<trkpt lat="48.935730" lon="8.647223">
<ele>333.0</ele>
<speed>4.4</speed>
<course>208.6</course>
<desc>Speed 4.4 km/h Distance 1.59 km</desc>
<time>2010-02-24T17:30:39.61</time>
<name>1512</name>
</trkpt>
<trkpt lat="48.935720" lon="8.647215">
<ele>332.5</ele>
<speed>4.0</speed>
<course>218.1</course>
<desc>Speed 4.0 km/h Distance 1.59 km</desc>
<time>2010-02-24T17:30:40.61</time>
<name>1513</name>
</trkpt>
<trkpt lat="48.935712" lon="8.647205">
<ele>332.5</ele>
<speed>3.9</speed>
<course>221.4</course>
<desc>Speed 3.9 km/h Distance 1.60 km</desc>
<time>2010-02-24T17:30:41.61</time>
<name>1514</name>
</trkpt>
<trkpt lat="48.935707" lon="8.647198">
<ele>331.5</ele>
<speed>2.3</speed>
<course>206.4</course>
<desc>Speed 2.3 km/h Distance 1.60 km</desc>
<time>2010-02-24T17:30:42.61</time>
<name>1515</name>
</trkpt>
<trkpt lat="48.935700" lon="8.647193">
<ele>331.5</ele>
<speed>2.5</speed>
<course>238.6</course>
<desc>Speed 2.5 km/h Distance 1.60 km</desc>
<time>2010-02-24T17:30:43.61</time>
<name>1516</name>
</trkpt>
<trkpt lat="48.935697" lon="8.647185">
<ele>331.0</ele>
<speed>2.2</speed>
<course>213.2</course>
<desc>Speed 2.2 km/h Distance 1.60 km</desc>
<time>2010-02-24T17:30:44.61</time>
<name>1517</name>
</trkpt>
<trkpt lat="48.935688" lon="8.647177">
<ele>330.0</ele>
<speed>3.5</speed>
<course>213.2</course>
<desc>Speed 3.5 km/h Distance 1.60 km</desc>
<time>2010-02-24T17:30:45.61</time>
<name>1518</name>
</trkpt>
<trkpt lat="48.935680" lon="8.647168">
<ele>330.0</ele>
<speed>3.4</speed>
<course>221.4</course>
<desc>Speed 3.4 km/h Distance 1.60 km</desc>
<time>2010-02-24T17:30:46.61</time>
<name>1519</name>
</trkpt>
<trkpt lat="48.935675" lon="8.647162">
<ele>329.5</ele>
<speed>2.3</speed>
<course>213.2</course>
<desc>Speed 2.3 km/h Distance 1.60 km</desc>
<time>2010-02-24T17:30:47.61</time>
<name>1520</name>
</trkpt>
<trkpt lat="48.935665" lon="8.647152">
<ele>329.5</ele>
<speed>3.7</speed>
<course>229.4</course>
<desc>Speed 3.7 km/h Distance 1.60 km</desc>
<time>2010-02-24T17:30:48.61</time>
<name>1521</name>
</trkpt>
<trkpt lat="48.935650" lon="8.647125">
<ele>333.0</ele>
<speed>3.0</speed>
<course>171.9</course>
<desc>Speed 3.0 km/h Distance 1.60 km</desc>
<time>2010-02-24T17:30:49.61</time>
<name>1522</name>
</trkpt>
<trkpt lat="48.935645" lon="8.647127">
<ele>333.0</ele>
<speed>1.8</speed>
<course>171.9</course>
<desc>Speed 1.8 km/h Distance 1.61 km</desc>
<time>2010-02-24T17:30:50.61</time>
<name>1523</name>
</trkpt>
<trkpt lat="48.935640" lon="8.647127">
<ele>333.0</ele>
<speed>2.3</speed>
<course>202.2</course>
<desc>Speed 2.3 km/h Distance 1.61 km</desc>
<time>2010-02-24T17:30:51.61</time>
<name>1524</name>
</trkpt>
<trkpt lat="48.935635" lon="8.647123">
<ele>333.0</ele>
<speed>1.5</speed>
<course>243.4</course>
<desc>Speed 1.5 km/h Distance 1.61 km</desc>
<time>2010-02-24T17:30:52.61</time>
<name>1525</name>
</trkpt>
<trkpt lat="48.935633" lon="8.647118">
<ele>332.5</ele>
<speed>1.4</speed>
<course>150.8</course>
<desc>Speed 1.4 km/h Distance 1.61 km</desc>
<time>2010-02-24T17:30:53.61</time>
<name>1526</name>
</trkpt>
<trkpt lat="48.935632" lon="8.647118">
<ele>332.5</ele>
<speed>0.5</speed>
<course>224.5</course>
<desc>Speed 0.5 km/h Distance 1.61 km</desc>
<time>2010-02-24T17:30:54.61</time>
<name>1527</name>
</trkpt>
<trkpt lat="48.935628" lon="8.647113">
<ele>331.5</ele>
<speed>2.1</speed>
<course>238.6</course>
<desc>Speed 2.1 km/h Distance 1.61 km</desc>
<time>2010-02-24T17:30:55.61</time>
<name>1528</name>
</trkpt>
<trkpt lat="48.935625" lon="8.647105">
<ele>330.0</ele>
<speed>2.1</speed>
<course>229.8</course>
<desc>Speed 2.1 km/h Distance 1.61 km</desc>
<time>2010-02-24T17:30:56.61</time>
<name>1529</name>
</trkpt>
<trkpt lat="48.935617" lon="8.647090">
<ele>330.0</ele>
<speed>4.7</speed>
<course>219.4</course>
<desc>Speed 4.7 km/h Distance 1.61 km</desc>
<time>2010-02-24T17:30:57.61</time>
<name>1530</name>
</trkpt>
<trkpt lat="48.935610" lon="8.647082">
<ele>330.0</ele>
<speed>3.0</speed>
<course>227.8</course>
<desc>Speed 3.0 km/h Distance 1.61 km</desc>
<time>2010-02-24T17:30:58.61</time>
<name>1531</name>
</trkpt>
<trkpt lat="48.935605" lon="8.647073">
<ele>329.5</ele>
<speed>3.3</speed>
<course>224.5</course>
<desc>Speed 3.3 km/h Distance 1.61 km</desc>
<time>2010-02-24T17:30:59.61</time>
<name>1532</name>
</trkpt>
<trkpt lat="48.935598" lon="8.647063">
<ele>328.5</ele>
<speed>2.8</speed>
<course>233.0</course>
<desc>Speed 2.8 km/h Distance 1.61 km</desc>
<time>2010-02-24T17:31:00.61</time>
<name>1533</name>
</trkpt>
<trkpt lat="48.935595" lon="8.647057">
<ele>327.0</ele>
<speed>1.9</speed>
<course>224.5</course>
<desc>Speed 1.9 km/h Distance 1.61 km</desc>
<time>2010-02-24T17:31:01.61</time>
<name>1534</name>
</trkpt>
<trkpt lat="48.935588" lon="8.647047">
<ele>326.0</ele>
<speed>3.2</speed>
<course>232.4</course>
<desc>Speed 3.2 km/h Distance 1.61 km</desc>
<time>2010-02-24T17:31:02.61</time>
<name>1535</name>
</trkpt>
<trkpt lat="48.935585" lon="8.647040">
<ele>326.0</ele>
<speed>2.3</speed>
<course>246.5</course>
<desc>Speed 2.3 km/h Distance 1.61 km</desc>
<time>2010-02-24T17:31:03.61</time>
<name>1536</name>
</trkpt>
<trkpt lat="48.935582" lon="8.647028">
<ele>325.5</ele>
<speed>3.1</speed>
<course>232.8</course>
<desc>Speed 3.1 km/h Distance 1.62 km</desc>
<time>2010-02-24T17:31:04.61</time>
<name>1537</name>
</trkpt>
<trkpt lat="48.935577" lon="8.647018">
<ele>324.5</ele>
<speed>2.8</speed>
<course>207.9</course>
<desc>Speed 2.8 km/h Distance 1.62 km</desc>
<time>2010-02-24T17:31:05.61</time>
<name>1538</name>
</trkpt>
<trkpt lat="48.935568" lon="8.647012">
<ele>323.5</ele>
<speed>2.1</speed>
<course>222.6</course>
<desc>Speed 2.1 km/h Distance 1.62 km</desc>
<time>2010-02-24T17:31:06.61</time>
<name>1539</name>
</trkpt>
<trkpt lat="48.935560" lon="8.647000">
<ele>323.0</ele>
<speed>3.5</speed>
<course>232.8</course>
<desc>Speed 3.5 km/h Distance 1.62 km</desc>
<time>2010-02-24T17:31:07.61</time>
<name>1540</name>
</trkpt>
<trkpt lat="48.935555" lon="8.646990">
<ele>322.5</ele>
<speed>2.9</speed>
<course>240.2</course>
<desc>Speed 2.9 km/h Distance 1.62 km</desc>
<time>2010-02-24T17:31:08.61</time>
<name>1541</name>
</trkpt>
<trkpt lat="48.935550" lon="8.646977">
<ele>321.5</ele>
<speed>3.1</speed>
<course>255.6</course>
<desc>Speed 3.1 km/h Distance 1.62 km</desc>
<time>2010-02-24T17:31:09.61</time>
<name>1542</name>
</trkpt>
<trkpt lat="48.935548" lon="8.646967">
<ele>319.5</ele>
<speed>2.0</speed>
<course>249.1</course>
<desc>Speed 2.0 km/h Distance 1.62 km</desc>
<time>2010-02-24T17:31:10.61</time>
<name>1543</name>
</trkpt>
<trkpt lat="48.935545" lon="8.646953">
<ele>318.0</ele>
<speed>3.1</speed>
<course>246.4</course>
<desc>Speed 3.1 km/h Distance 1.62 km</desc>
<time>2010-02-24T17:31:11.61</time>
<name>1544</name>
</trkpt>
<trkpt lat="48.935542" lon="8.646942">
<ele>316.5</ele>
<speed>3.2</speed>
<course>255.6</course>
<desc>Speed 3.2 km/h Distance 1.62 km</desc>
<time>2010-02-24T17:31:12.61</time>
<name>1545</name>
</trkpt>
<trkpt lat="48.935540" lon="8.646932">
<ele>315.0</ele>
<speed>2.4</speed>
<course>255.8</course>
<desc>Speed 2.4 km/h Distance 1.62 km</desc>
<time>2010-02-24T17:31:13.61</time>
<name>1546</name>
</trkpt>
<trkpt lat="48.935538" lon="8.646922">
<ele>314.5</ele>
<speed>2.9</speed>
<course>236.7</course>
<desc>Speed 2.9 km/h Distance 1.63 km</desc>
<time>2010-02-24T17:31:14.61</time>
<name>1547</name>
</trkpt>
<trkpt lat="48.935533" lon="8.646910">
<ele>314.5</ele>
<speed>2.6</speed>
<course>251.3</course>
<desc>Speed 2.6 km/h Distance 1.63 km</desc>
<time>2010-02-24T17:31:15.61</time>
<name>1548</name>
</trkpt>
<trkpt lat="48.935530" lon="8.646895">
<ele>314.5</ele>
<speed>4.0</speed>
<course>260.4</course>
<desc>Speed 4.0 km/h Distance 1.63 km</desc>
<time>2010-02-24T17:31:16.61</time>
<name>1549</name>
</trkpt>
<trkpt lat="48.935528" lon="8.646880">
<ele>314.0</ele>
<speed>4.0</speed>
<course>262.1</course>
<desc>Speed 4.0 km/h Distance 1.63 km</desc>
<time>2010-02-24T17:31:17.61</time>
<name>1550</name>
</trkpt>
<trkpt lat="48.935527" lon="8.646862">
<ele>314.0</ele>
<speed>4.5</speed>
<course>260.4</course>
<desc>Speed 4.5 km/h Distance 1.63 km</desc>
<time>2010-02-24T17:31:18.61</time>
<name>1551</name>
</trkpt>
<trkpt lat="48.935525" lon="8.646847">
<ele>314.0</ele>
<speed>4.2</speed>
<course>238.7</course>
<desc>Speed 4.2 km/h Distance 1.63 km</desc>
<time>2010-02-24T17:31:19.61</time>
<name>1552</name>
</trkpt>
<trkpt lat="48.935518" lon="8.646830">
<ele>314.0</ele>
<speed>4.1</speed>
<course>251.4</course>
<desc>Speed 4.1 km/h Distance 1.63 km</desc>
<time>2010-02-24T17:31:20.61</time>
<name>1553</name>
</trkpt>
<trkpt lat="48.935515" lon="8.646815">
<ele>314.0</ele>
<speed>3.7</speed>
<course>232.7</course>
<desc>Speed 3.7 km/h Distance 1.63 km</desc>
<time>2010-02-24T17:31:21.61</time>
<name>1554</name>
</trkpt>
<trkpt lat="48.935508" lon="8.646802">
<ele>314.0</ele>
<speed>3.2</speed>
<course>229.7</course>
<desc>Speed 3.2 km/h Distance 1.63 km</desc>
<time>2010-02-24T17:31:22.61</time>
<name>1555</name>
</trkpt>
<trkpt lat="48.935500" lon="8.646787">
<ele>314.5</ele>
<speed>3.4</speed>
<course>226.4</course>
<desc>Speed 3.4 km/h Distance 1.64 km</desc>
<time>2010-02-24T17:31:23.61</time>
<name>1556</name>
</trkpt>
<trkpt lat="48.935492" lon="8.646773">
<ele>315.0</ele>
<speed>3.7</speed>
<course>259.2</course>
<desc>Speed 3.7 km/h Distance 1.64 km</desc>
<time>2010-02-24T17:31:24.61</time>
<name>1557</name>
</trkpt>
<trkpt lat="48.935490" lon="8.646760">
<ele>315.0</ele>
<speed>3.4</speed>
<course>270.0</course>
<desc>Speed 3.4 km/h Distance 1.64 km</desc>
<time>2010-02-24T17:31:25.61</time>
<name>1558</name>
</trkpt>
<trkpt lat="48.935490" lon="8.646745">
<ele>314.5</ele>
<speed>3.8</speed>
<course>261.3</course>
<desc>Speed 3.8 km/h Distance 1.64 km</desc>
<time>2010-02-24T17:31:26.61</time>
<name>1559</name>
</trkpt>
<trkpt lat="48.935488" lon="8.646728">
<ele>315.0</ele>
<speed>4.4</speed>
<course>253.1</course>
<desc>Speed 4.4 km/h Distance 1.64 km</desc>
<time>2010-02-24T17:31:27.61</time>
<name>1560</name>
</trkpt>
<trkpt lat="48.935485" lon="8.646712">
<ele>315.0</ele>
<speed>4.0</speed>
<course>251.3</course>
<desc>Speed 4.0 km/h Distance 1.64 km</desc>
<time>2010-02-24T17:31:28.61</time>
<name>1561</name>
</trkpt>
<trkpt lat="48.935482" lon="8.646697">
<ele>315.5</ele>
<speed>4.1</speed>
<course>252.9</course>
<desc>Speed 4.1 km/h Distance 1.64 km</desc>
<time>2010-02-24T17:31:29.61</time>
<name>1562</name>
</trkpt>
<trkpt lat="48.935480" lon="8.646688">
<ele>315.0</ele>
<speed>2.0</speed>
<course>270.0</course>
<desc>Speed 2.0 km/h Distance 1.64 km</desc>
<time>2010-02-24T17:31:30.61</time>
<name>1563</name>
</trkpt>
<trkpt lat="48.935480" lon="8.646682">
<ele>314.5</ele>
<speed>1.7</speed>
<course>284.4</course>
<desc>Speed 1.7 km/h Distance 1.64 km</desc>
<time>2010-02-24T17:31:31.61</time>
<name>1564</name>
</trkpt>
<trkpt lat="48.935482" lon="8.646672">
<ele>314.0</ele>
<speed>2.9</speed>
<course>260.4</course>
<desc>Speed 2.9 km/h Distance 1.65 km</desc>
<time>2010-02-24T17:31:32.61</time>
<name>1565</name>
</trkpt>
<trkpt lat="48.935480" lon="8.646657">
<ele>314.0</ele>
<speed>4.0</speed>
<course>279.6</course>
<desc>Speed 4.0 km/h Distance 1.65 km</desc>
<time>2010-02-24T17:31:33.61</time>
<name>1566</name>
</trkpt>
<trkpt lat="48.935482" lon="8.646642">
<ele>313.5</ele>
<speed>3.9</speed>
<course>293.6</course>
<desc>Speed 3.9 km/h Distance 1.65 km</desc>
<time>2010-02-24T17:31:34.61</time>
<name>1567</name>
</trkpt>
<trkpt lat="48.935485" lon="8.646630">
<ele>313.0</ele>
<speed>3.4</speed>
<course>280.7</course>
<desc>Speed 3.4 km/h Distance 1.65 km</desc>
<time>2010-02-24T17:31:35.61</time>
<name>1568</name>
</trkpt>
<trkpt lat="48.935487" lon="8.646617">
<ele>312.5</ele>
<speed>3.4</speed>
<course>280.7</course>
<desc>Speed 3.4 km/h Distance 1.65 km</desc>
<time>2010-02-24T17:31:36.61</time>
<name>1569</name>
</trkpt>
<trkpt lat="48.935488" lon="8.646603">
<ele>312.5</ele>
<speed>3.7</speed>
<course>312.2</course>
<desc>Speed 3.7 km/h Distance 1.65 km</desc>
<time>2010-02-24T17:31:37.61</time>
<name>1570</name>
</trkpt>
<trkpt lat="48.935493" lon="8.646595">
<ele>311.0</ele>
<speed>3.5</speed>
<course>262.8</course>
<desc>Speed 3.5 km/h Distance 1.65 km</desc>
<time>2010-02-24T17:31:38.61</time>
<name>1571</name>
</trkpt>
<trkpt lat="48.935492" lon="8.646575">
<ele>312.0</ele>
<speed>5.1</speed>
<course>270.0</course>
<desc>Speed 5.1 km/h Distance 1.65 km</desc>
<time>2010-02-24T17:31:39.61</time>
<name>1572</name>
</trkpt>
<trkpt lat="48.935492" lon="8.646558">
<ele>312.0</ele>
<speed>4.2</speed>
<course>270.0</course>
<desc>Speed 4.2 km/h Distance 1.65 km</desc>
<time>2010-02-24T17:31:40.61</time>
<name>1573</name>
</trkpt>
<trkpt lat="48.935492" lon="8.646543">
<ele>312.0</ele>
<speed>3.5</speed>
<course>280.7</course>
<desc>Speed 3.5 km/h Distance 1.65 km</desc>
<time>2010-02-24T17:31:41.61</time>
<name>1574</name>
</trkpt>
<trkpt lat="48.935493" lon="8.646530">
<ele>312.5</ele>
<speed>3.6</speed>
<course>270.0</course>
<desc>Speed 3.6 km/h Distance 1.66 km</desc>
<time>2010-02-24T17:31:42.61</time>
<name>1575</name>
</trkpt>
<trkpt lat="48.935493" lon="8.646522">
<ele>312.0</ele>
<speed>2.3</speed>
<course>233.9</course>
<desc>Speed 2.3 km/h Distance 1.66 km</desc>
<time>2010-02-24T17:31:43.61</time>
<name>1576</name>
</trkpt>
<trkpt lat="48.935492" lon="8.646518">
<ele>312.5</ele>
<speed>0.2</speed>
<course>270.0</course>
<desc>Speed 0.2 km/h Distance 1.66 km</desc>
<time>2010-02-24T17:31:44.61</time>
<name>1577</name>
</trkpt>
<trkpt lat="48.935492" lon="8.646515">
<ele>312.5</ele>
<speed>0.9</speed>
<course>297.0</course>
<desc>Speed 0.9 km/h Distance 1.66 km</desc>
<time>2010-02-24T17:31:45.61</time>
<name>1578</name>
</trkpt>
<trkpt lat="48.935495" lon="8.646505">
<ele>312.0</ele>
<speed>3.2</speed>
<course>270.0</course>
<desc>Speed 3.2 km/h Distance 1.66 km</desc>
<time>2010-02-24T17:31:46.61</time>
<name>1579</name>
</trkpt>
<trkpt lat="48.935495" lon="8.646497">
<ele>312.0</ele>
<speed>2.1</speed>
<course>242.6</course>
<desc>Speed 2.1 km/h Distance 1.66 km</desc>
<time>2010-02-24T17:31:47.61</time>
<name>1580</name>
</trkpt>
<trkpt lat="48.935493" lon="8.646492">
<ele>312.0</ele>
<speed>1.2</speed>
<course>242.6</course>
<desc>Speed 1.2 km/h Distance 1.66 km</desc>
<time>2010-02-24T17:31:48.61</time>
<name>1581</name>
</trkpt>
<trkpt lat="48.935493" lon="8.646492">
<ele>312.0</ele>
<speed>0.4</speed>
<course>242.6</course>
<desc>Speed 0.4 km/h Distance 1.66 km</desc>
<time>2010-02-24T17:31:49.61</time>
<name>1582</name>
</trkpt>
<trkpt lat="48.935493" lon="8.646492">
<ele>312.0</ele>
<speed>0.5</speed>
<course>330.8</course>
<desc>Speed 0.5 km/h Distance 1.66 km</desc>
<time>2010-02-24T17:31:50.61</time>
<name>1583</name>
</trkpt>
<trkpt lat="48.935495" lon="8.646490">
<ele>311.5</ele>
<speed>1.3</speed>
<course>286.9</course>
<desc>Speed 1.3 km/h Distance 1.66 km</desc>
<time>2010-02-24T17:31:51.61</time>
<name>1584</name>
</trkpt>
<trkpt lat="48.935497" lon="8.646482">
<ele>311.0</ele>
<speed>2.2</speed>
<course>307.0</course>
<desc>Speed 2.2 km/h Distance 1.66 km</desc>
<time>2010-02-24T17:31:52.61</time>
<name>1585</name>
</trkpt>
<trkpt lat="48.935500" lon="8.646475">
<ele>310.5</ele>
<speed>2.5</speed>
<course>287.0</course>
<desc>Speed 2.5 km/h Distance 1.66 km</desc>
<time>2010-02-24T17:31:53.61</time>
<name>1586</name>
</trkpt>
<trkpt lat="48.935503" lon="8.646458">
<ele>309.5</ele>
<speed>3.2</speed>
<course>284.2</course>
<desc>Speed 3.2 km/h Distance 1.66 km</desc>
<time>2010-02-24T17:31:54.61</time>
<name>1587</name>
</trkpt>
<trkpt lat="48.935505" lon="8.646448">
<ele>309.5</ele>
<speed>3.0</speed>
<course>279.6</course>
<desc>Speed 3.0 km/h Distance 1.66 km</desc>
<time>2010-02-24T17:31:55.61</time>
<name>1588</name>
</trkpt>
<trkpt lat="48.935507" lon="8.646433">
<ele>309.0</ele>
<speed>3.6</speed>
<course>282.3</course>
<desc>Speed 3.6 km/h Distance 1.66 km</desc>
<time>2010-02-24T17:31:56.61</time>
<name>1589</name>
</trkpt>
<trkpt lat="48.935508" lon="8.646422">
<ele>309.0</ele>
<speed>3.2</speed>
<course>282.3</course>
<desc>Speed 3.2 km/h Distance 1.66 km</desc>
<time>2010-02-24T17:31:57.61</time>
<name>1590</name>
</trkpt>
<trkpt lat="48.935510" lon="8.646410">
<ele>309.0</ele>
<speed>2.8</speed>
<course>0.0</course>
<desc>Speed 2.8 km/h Distance 1.67 km</desc>
<time>2010-02-24T17:31:58.61</time>
<name>1591</name>
</trkpt>
<trkpt lat="48.935513" lon="8.646410">
<ele>308.0</ele>
<speed>1.6</speed>
<course>301.4</course>
<desc>Speed 1.6 km/h Distance 1.67 km</desc>
<time>2010-02-24T17:31:59.61</time>
<name>1592</name>
</trkpt>
<trkpt lat="48.935517" lon="8.646402">
<ele>307.5</ele>
<speed>2.4</speed>
<course>293.5</course>
<desc>Speed 2.4 km/h Distance 1.67 km</desc>
<time>2010-02-24T17:32:00.61</time>
<name>1593</name>
</trkpt>
<trkpt lat="48.935520" lon="8.646390">
<ele>306.5</ele>
<speed>2.7</speed>
<course>282.2</course>
<desc>Speed 2.7 km/h Distance 1.67 km</desc>
<time>2010-02-24T17:32:01.61</time>
<name>1594</name>
</trkpt>
<trkpt lat="48.935522" lon="8.646378">
<ele>306.0</ele>
<speed>2.6</speed>
<course>270.0</course>
<desc>Speed 2.6 km/h Distance 1.67 km</desc>
<time>2010-02-24T17:32:02.61</time>
<name>1595</name>
</trkpt>
<trkpt lat="48.935522" lon="8.646367">
<ele>306.0</ele>
<speed>2.4</speed>
<course>280.7</course>
<desc>Speed 2.4 km/h Distance 1.67 km</desc>
<time>2010-02-24T17:32:03.61</time>
<name>1596</name>
</trkpt>
<trkpt lat="48.935523" lon="8.646353">
<ele>305.5</ele>
<speed>3.0</speed>
<course>270.0</course>
<desc>Speed 3.0 km/h Distance 1.67 km</desc>
<time>2010-02-24T17:32:04.61</time>
<name>1597</name>
</trkpt>
<trkpt lat="48.935523" lon="8.646340">
<ele>306.0</ele>
<speed>3.1</speed>
<course>279.6</course>
<desc>Speed 3.1 km/h Distance 1.67 km</desc>
<time>2010-02-24T17:32:05.61</time>
<name>1598</name>
</trkpt>
<trkpt lat="48.935525" lon="8.646325">
<ele>305.5</ele>
<speed>3.2</speed>
<course>261.3</course>
<desc>Speed 3.2 km/h Distance 1.67 km</desc>
<time>2010-02-24T17:32:06.61</time>
<name>1599</name>
</trkpt>
<trkpt lat="48.935523" lon="8.646308">
<ele>305.5</ele>
<speed>3.9</speed>
<course>259.3</course>
<desc>Speed 3.9 km/h Distance 1.67 km</desc>
<time>2010-02-24T17:32:07.61</time>
<name>1600</name>
</trkpt>
<trkpt lat="48.935522" lon="8.646295">
<ele>304.5</ele>
<speed>3.2</speed>
<course>249.3</course>
<desc>Speed 3.2 km/h Distance 1.67 km</desc>
<time>2010-02-24T17:32:08.61</time>
<name>1601</name>
</trkpt>
<trkpt lat="48.935518" lon="8.646282">
<ele>305.0</ele>
<speed>3.2</speed>
<course>257.7</course>
<desc>Speed 3.2 km/h Distance 1.68 km</desc>
<time>2010-02-24T17:32:09.61</time>
<name>1602</name>
</trkpt>
<trkpt lat="48.935517" lon="8.646270">
<ele>304.0</ele>
<speed>2.4</speed>
<course>252.9</course>
<desc>Speed 2.4 km/h Distance 1.68 km</desc>
<time>2010-02-24T17:32:10.61</time>
<name>1603</name>
</trkpt>
<trkpt lat="48.935515" lon="8.646262">
<ele>303.5</ele>
<speed>2.2</speed>
<course>224.5</course>
<desc>Speed 2.2 km/h Distance 1.68 km</desc>
<time>2010-02-24T17:32:11.61</time>
<name>1604</name>
</trkpt>
<trkpt lat="48.935508" lon="8.646252">
<ele>303.5</ele>
<speed>3.3</speed>
<course>232.4</course>
<desc>Speed 3.3 km/h Distance 1.68 km</desc>
<time>2010-02-24T17:32:12.61</time>
<name>1605</name>
</trkpt>
<trkpt lat="48.935503" lon="8.646242">
<ele>304.0</ele>
<speed>3.4</speed>
<course>246.4</course>
<desc>Speed 3.4 km/h Distance 1.68 km</desc>
<time>2010-02-24T17:32:13.61</time>
<name>1606</name>
</trkpt>
<trkpt lat="48.935500" lon="8.646230">
<ele>304.0</ele>
<speed>3.4</speed>
<course>251.3</course>
<desc>Speed 3.4 km/h Distance 1.68 km</desc>
<time>2010-02-24T17:32:14.61</time>
<name>1607</name>
</trkpt>
<trkpt lat="48.935497" lon="8.646215">
<ele>304.0</ele>
<speed>3.9</speed>
<course>251.4</course>
<desc>Speed 3.9 km/h Distance 1.68 km</desc>
<time>2010-02-24T17:32:15.61</time>
<name>1608</name>
</trkpt>
<trkpt lat="48.935493" lon="8.646200">
<ele>304.0</ele>
<speed>3.7</speed>
<course>270.0</course>
<desc>Speed 3.7 km/h Distance 1.68 km</desc>
<time>2010-02-24T17:32:16.61</time>
<name>1609</name>
</trkpt>
<trkpt lat="48.935493" lon="8.646193">
<ele>303.0</ele>
<speed>1.4</speed>
<course>270.0</course>
<desc>Speed 1.4 km/h Distance 1.68 km</desc>
<time>2010-02-24T17:32:17.61</time>
<name>1610</name>
</trkpt>
<trkpt lat="48.935493" lon="8.646190">
<ele>301.5</ele>
<speed>0.8</speed>
<course>249.5</course>
<desc>Speed 0.8 km/h Distance 1.68 km</desc>
<time>2010-02-24T17:32:18.61</time>
<name>1611</name>
</trkpt>
<trkpt lat="48.935492" lon="8.646183">
<ele>300.5</ele>
<speed>1.5</speed>
<course>238.6</course>
<desc>Speed 1.5 km/h Distance 1.68 km</desc>
<time>2010-02-24T17:32:19.61</time>
<name>1612</name>
</trkpt>
<trkpt lat="48.935488" lon="8.646175">
<ele>299.5</ele>
<speed>2.5</speed>
<course>203.0</course>
<desc>Speed 2.5 km/h Distance 1.68 km</desc>
<time>2010-02-24T17:32:20.61</time>
<name>1613</name>
</trkpt>
<trkpt lat="48.935485" lon="8.646173">
<ele>297.5</ele>
<speed>1.4</speed>
<course>243.0</course>
<desc>Speed 1.4 km/h Distance 1.68 km</desc>
<time>2010-02-24T17:32:21.61</time>
<name>1614</name>
</trkpt>
<trkpt lat="48.935482" lon="8.646163">
<ele>295.5</ele>
<speed>1.7</speed>
<course>220.9</course>
<desc>Speed 1.7 km/h Distance 1.69 km</desc>
<time>2010-02-24T17:32:22.61</time>
<name>1615</name>
</trkpt>
<trkpt lat="48.935477" lon="8.646157">
<ele>295.0</ele>
<speed>2.4</speed>
<course>216.5</course>
<desc>Speed 2.4 km/h Distance 1.69 km</desc>
<time>2010-02-24T17:32:23.61</time>
<name>1616</name>
</trkpt>
<trkpt lat="48.935463" lon="8.646142">
<ele>295.5</ele>
<speed>3.2</speed>
<course>246.5</course>
<desc>Speed 3.2 km/h Distance 1.69 km</desc>
<time>2010-02-24T17:32:24.61</time>
<name>1617</name>
</trkpt>
<trkpt lat="48.935460" lon="8.646130">
<ele>295.5</ele>
<speed>3.1</speed>
<course>243.0</course>
<desc>Speed 3.1 km/h Distance 1.69 km</desc>
<time>2010-02-24T17:32:25.61</time>
<name>1618</name>
</trkpt>
<trkpt lat="48.935457" lon="8.646120">
<ele>295.5</ele>
<speed>2.9</speed>
<course>240.3</course>
<desc>Speed 2.9 km/h Distance 1.69 km</desc>
<time>2010-02-24T17:32:26.61</time>
<name>1619</name>
</trkpt>
<trkpt lat="48.935452" lon="8.646107">
<ele>295.5</ele>
<speed>3.7</speed>
<course>236.9</course>
<desc>Speed 3.7 km/h Distance 1.69 km</desc>
<time>2010-02-24T17:32:27.61</time>
<name>1620</name>
</trkpt>
<trkpt lat="48.935447" lon="8.646095">
<ele>295.5</ele>
<speed>3.0</speed>
<course>232.8</course>
<desc>Speed 3.0 km/h Distance 1.69 km</desc>
<time>2010-02-24T17:32:28.61</time>
<name>1621</name>
</trkpt>
<trkpt lat="48.935442" lon="8.646085">
<ele>296.0</ele>
<speed>3.1</speed>
<course>231.2</course>
<desc>Speed 3.1 km/h Distance 1.69 km</desc>
<time>2010-02-24T17:32:29.61</time>
<name>1622</name>
</trkpt>
<trkpt lat="48.935410" lon="8.646025">
<ele>302.0</ele>
<speed>2.7</speed>
<course>208.6</course>
<desc>Speed 2.7 km/h Distance 1.70 km</desc>
<time>2010-02-24T17:32:31.61</time>
<name>1623</name>
</trkpt>
<trkpt lat="48.935400" lon="8.646017">
<ele>302.0</ele>
<speed>3.1</speed>
<course>232.7</course>
<desc>Speed 3.1 km/h Distance 1.70 km</desc>
<time>2010-02-24T17:32:32.61</time>
<name>1624</name>
</trkpt>
<trkpt lat="48.935393" lon="8.646003">
<ele>302.0</ele>
<speed>4.1</speed>
<course>236.7</course>
<desc>Speed 4.1 km/h Distance 1.70 km</desc>
<time>2010-02-24T17:32:33.61</time>
<name>1625</name>
</trkpt>
<trkpt lat="48.935388" lon="8.645992">
<ele>302.0</ele>
<speed>3.2</speed>
<course>221.4</course>
<desc>Speed 3.2 km/h Distance 1.70 km</desc>
<time>2010-02-24T17:32:34.61</time>
<name>1626</name>
</trkpt>
<trkpt lat="48.935383" lon="8.645985">
<ele>302.0</ele>
<speed>2.5</speed>
<course>236.7</course>
<desc>Speed 2.5 km/h Distance 1.70 km</desc>
<time>2010-02-24T17:32:35.61</time>
<name>1627</name>
</trkpt>
<trkpt lat="48.935378" lon="8.645973">
<ele>301.5</ele>
<speed>1.8</speed>
<course>219.4</course>
<desc>Speed 1.8 km/h Distance 1.70 km</desc>
<time>2010-02-24T17:32:36.61</time>
<name>1628</name>
</trkpt>
<trkpt lat="48.935372" lon="8.645965">
<ele>302.0</ele>
<speed>3.2</speed>
<course>238.6</course>
<desc>Speed 3.2 km/h Distance 1.70 km</desc>
<time>2010-02-24T17:32:37.61</time>
<name>1629</name>
</trkpt>
<trkpt lat="48.935368" lon="8.645957">
<ele>302.0</ele>
<speed>3.0</speed>
<course>237.6</course>
<desc>Speed 3.0 km/h Distance 1.71 km</desc>
<time>2010-02-24T17:32:38.61</time>
<name>1630</name>
</trkpt>
<trkpt lat="48.935360" lon="8.645937">
<ele>301.5</ele>
<speed>3.2</speed>
<course>236.0</course>
<desc>Speed 3.2 km/h Distance 1.71 km</desc>
<time>2010-02-24T17:32:39.61</time>
<name>1631</name>
</trkpt>
<trkpt lat="48.935353" lon="8.645922">
<ele>301.0</ele>
<speed>3.3</speed>
<course>246.5</course>
<desc>Speed 3.3 km/h Distance 1.71 km</desc>
<time>2010-02-24T17:32:40.61</time>
<name>1632</name>
</trkpt>
<trkpt lat="48.935350" lon="8.645910">
<ele>301.0</ele>
<speed>2.8</speed>
<course>232.8</course>
<desc>Speed 2.8 km/h Distance 1.71 km</desc>
<time>2010-02-24T17:32:41.61</time>
<name>1633</name>
</trkpt>
<trkpt lat="48.935343" lon="8.645897">
<ele>300.5</ele>
<speed>2.7</speed>
<course>240.3</course>
<desc>Speed 2.7 km/h Distance 1.71 km</desc>
<time>2010-02-24T17:32:42.61</time>
<name>1634</name>
</trkpt>
<trkpt lat="48.935338" lon="8.645883">
<ele>301.0</ele>
<speed>3.2</speed>
<course>243.1</course>
<desc>Speed 3.2 km/h Distance 1.71 km</desc>
<time>2010-02-24T17:32:43.61</time>
<name>1635</name>
</trkpt>
<trkpt lat="48.935332" lon="8.645863">
<ele>300.5</ele>
<speed>3.4</speed>
<course>230.3</course>
<desc>Speed 3.4 km/h Distance 1.71 km</desc>
<time>2010-02-24T17:32:44.61</time>
<name>1636</name>
</trkpt>
<trkpt lat="48.935322" lon="8.645845">
<ele>300.5</ele>
<speed>3.3</speed>
<course>229.1</course>
<desc>Speed 3.3 km/h Distance 1.72 km</desc>
<time>2010-02-24T17:32:45.61</time>
<name>1637</name>
</trkpt>
<trkpt lat="48.935315" lon="8.645833">
<ele>301.0</ele>
<speed>3.5</speed>
<course>330.8</course>
<desc>Speed 3.5 km/h Distance 1.72 km</desc>
<time>2010-02-24T17:32:46.61</time>
<name>1638</name>
</trkpt>
<trkpt lat="48.935317" lon="8.645832">
<ele>301.0</ele>
<speed>0.5</speed>
<course>330.8</course>
<desc>Speed 0.5 km/h Distance 1.72 km</desc>
<time>2010-02-24T17:32:47.61</time>
<name>1639</name>
</trkpt>
<trkpt lat="48.935317" lon="8.645832">
<ele>301.5</ele>
<speed>0.2</speed>
<course>221.4</course>
<desc>Speed 0.2 km/h Distance 1.72 km</desc>
<time>2010-02-24T17:32:48.61</time>
<name>1640</name>
</trkpt>
<trkpt lat="48.935312" lon="8.645825">
<ele>301.5</ele>
<speed>1.6</speed>
<course>220.9</course>
<desc>Speed 1.6 km/h Distance 1.72 km</desc>
<time>2010-02-24T17:32:49.61</time>
<name>1641</name>
</trkpt>
<trkpt lat="48.935307" lon="8.645818">
<ele>301.0</ele>
<speed>2.5</speed>
<course>219.7</course>
<desc>Speed 2.5 km/h Distance 1.72 km</desc>
<time>2010-02-24T17:32:50.61</time>
<name>1642</name>
</trkpt>
<trkpt lat="48.935300" lon="8.645810">
<ele>301.5</ele>
<speed>3.4</speed>
<course>224.5</course>
<desc>Speed 3.4 km/h Distance 1.72 km</desc>
<time>2010-02-24T17:32:51.61</time>
<name>1643</name>
</trkpt>
<trkpt lat="48.935293" lon="8.645800">
<ele>301.5</ele>
<speed>3.6</speed>
<course>229.1</course>
<desc>Speed 3.6 km/h Distance 1.72 km</desc>
<time>2010-02-24T17:32:52.61</time>
<name>1644</name>
</trkpt>
<trkpt lat="48.935287" lon="8.645788">
<ele>301.5</ele>
<speed>3.3</speed>
<course>229.1</course>
<desc>Speed 3.3 km/h Distance 1.72 km</desc>
<time>2010-02-24T17:32:53.61</time>
<name>1645</name>
</trkpt>
<trkpt lat="48.935280" lon="8.645777">
<ele>301.5</ele>
<speed>3.7</speed>
<course>224.5</course>
<desc>Speed 3.7 km/h Distance 1.72 km</desc>
<time>2010-02-24T17:32:54.61</time>
<name>1646</name>
</trkpt>
<trkpt lat="48.935273" lon="8.645767">
<ele>302.0</ele>
<speed>3.3</speed>
<course>224.5</course>
<desc>Speed 3.3 km/h Distance 1.72 km</desc>
<time>2010-02-24T17:32:55.61</time>
<name>1647</name>
</trkpt>
<trkpt lat="48.935267" lon="8.645757">
<ele>302.0</ele>
<speed>3.5</speed>
<course>222.5</course>
<desc>Speed 3.5 km/h Distance 1.72 km</desc>
<time>2010-02-24T17:32:56.61</time>
<name>1648</name>
</trkpt>
<trkpt lat="48.935258" lon="8.645745">
<ele>302.0</ele>
<speed>3.9</speed>
<course>219.4</course>
<desc>Speed 3.9 km/h Distance 1.73 km</desc>
<time>2010-02-24T17:32:57.61</time>
<name>1649</name>
</trkpt>
<trkpt lat="48.935252" lon="8.645737">
<ele>302.5</ele>
<speed>3.3</speed>
<course>219.4</course>
<desc>Speed 3.3 km/h Distance 1.73 km</desc>
<time>2010-02-24T17:32:58.61</time>
<name>1650</name>
</trkpt>
<trkpt lat="48.935245" lon="8.645728">
<ele>303.0</ele>
<speed>3.5</speed>
<course>213.2</course>
<desc>Speed 3.5 km/h Distance 1.73 km</desc>
<time>2010-02-24T17:32:59.61</time>
<name>1651</name>
</trkpt>
<trkpt lat="48.935237" lon="8.645720">
<ele>303.0</ele>
<speed>3.7</speed>
<course>207.5</course>
<desc>Speed 3.7 km/h Distance 1.73 km</desc>
<time>2010-02-24T17:33:00.61</time>
<name>1652</name>
</trkpt>
<trkpt lat="48.935228" lon="8.645713">
<ele>302.5</ele>
<speed>3.5</speed>
<course>213.2</course>
<desc>Speed 3.5 km/h Distance 1.73 km</desc>
<time>2010-02-24T17:33:01.61</time>
<name>1653</name>
</trkpt>
<trkpt lat="48.935220" lon="8.645705">
<ele>302.5</ele>
<speed>4.1</speed>
<course>217.5</course>
<desc>Speed 4.1 km/h Distance 1.73 km</desc>
<time>2010-02-24T17:33:02.61</time>
<name>1654</name>
</trkpt>
<trkpt lat="48.935210" lon="8.645693">
<ele>303.0</ele>
<speed>4.0</speed>
<course>220.2</course>
<desc>Speed 4.0 km/h Distance 1.73 km</desc>
<time>2010-02-24T17:33:03.61</time>
<name>1655</name>
</trkpt>
<trkpt lat="48.935198" lon="8.645678">
<ele>303.5</ele>
<speed>4.5</speed>
<course>208.6</course>
<desc>Speed 4.5 km/h Distance 1.73 km</desc>
<time>2010-02-24T17:33:04.61</time>
<name>1656</name>
</trkpt>
<trkpt lat="48.935188" lon="8.645670">
<ele>303.5</ele>
<speed>4.3</speed>
<course>213.2</course>
<desc>Speed 4.3 km/h Distance 1.74 km</desc>
<time>2010-02-24T17:33:05.61</time>
<name>1657</name>
</trkpt>
<trkpt lat="48.935178" lon="8.645660">
<ele>303.5</ele>
<speed>4.5</speed>
<course>229.1</course>
<desc>Speed 4.5 km/h Distance 1.74 km</desc>
<time>2010-02-24T17:33:06.61</time>
<name>1658</name>
</trkpt>
<trkpt lat="48.935172" lon="8.645648">
<ele>303.5</ele>
<speed>4.1</speed>
<course>217.0</course>
<desc>Speed 4.1 km/h Distance 1.74 km</desc>
<time>2010-02-24T17:33:07.61</time>
<name>1659</name>
</trkpt>
<trkpt lat="48.935160" lon="8.645635">
<ele>304.0</ele>
<speed>4.2</speed>
<course>213.4</course>
<desc>Speed 4.2 km/h Distance 1.74 km</desc>
<time>2010-02-24T17:33:08.61</time>
<name>1660</name>
</trkpt>
<trkpt lat="48.935148" lon="8.645623">
<ele>304.0</ele>
<speed>4.4</speed>
<course>209.2</course>
<desc>Speed 4.4 km/h Distance 1.74 km</desc>
<time>2010-02-24T17:33:09.61</time>
<name>1661</name>
</trkpt>
<trkpt lat="48.935137" lon="8.645613">
<ele>304.0</ele>
<speed>4.4</speed>
<course>222.5</course>
<desc>Speed 4.4 km/h Distance 1.74 km</desc>
<time>2010-02-24T17:33:10.61</time>
<name>1662</name>
</trkpt>
<trkpt lat="48.935128" lon="8.645602">
<ele>304.0</ele>
<speed>4.3</speed>
<course>232.7</course>
<desc>Speed 4.3 km/h Distance 1.74 km</desc>
<time>2010-02-24T17:33:11.61</time>
<name>1663</name>
</trkpt>
<trkpt lat="48.935118" lon="8.645582">
<ele>304.0</ele>
<speed>5.0</speed>
<course>235.9</course>
<desc>Speed 5.0 km/h Distance 1.75 km</desc>
<time>2010-02-24T17:33:12.61</time>
<name>1664</name>
</trkpt>
<trkpt lat="48.935112" lon="8.645567">
<ele>304.0</ele>
<speed>4.6</speed>
<course>224.5</course>
<desc>Speed 4.6 km/h Distance 1.75 km</desc>
<time>2010-02-24T17:33:13.61</time>
<name>1665</name>
</trkpt>
<trkpt lat="48.935105" lon="8.645557">
<ele>304.0</ele>
<speed>3.8</speed>
<course>203.3</course>
<desc>Speed 3.8 km/h Distance 1.75 km</desc>
<time>2010-02-24T17:33:14.61</time>
<name>1666</name>
</trkpt>
<trkpt lat="48.935090" lon="8.645547">
<ele>304.0</ele>
<speed>4.2</speed>
<course>220.2</course>
<desc>Speed 4.2 km/h Distance 1.75 km</desc>
<time>2010-02-24T17:33:15.61</time>
<name>1667</name>
</trkpt>
<trkpt lat="48.935078" lon="8.645532">
<ele>304.5</ele>
<speed>3.8</speed>
<course>210.3</course>
<desc>Speed 3.8 km/h Distance 1.75 km</desc>
<time>2010-02-24T17:33:16.61</time>
<name>1668</name>
</trkpt>
<trkpt lat="48.935063" lon="8.645518">
<ele>305.0</ele>
<speed>4.3</speed>
<course>220.2</course>
<desc>Speed 4.3 km/h Distance 1.75 km</desc>
<time>2010-02-24T17:33:17.61</time>
<name>1669</name>
</trkpt>
<trkpt lat="48.935052" lon="8.645503">
<ele>305.5</ele>
<speed>4.7</speed>
<course>229.7</course>
<desc>Speed 4.7 km/h Distance 1.75 km</desc>
<time>2010-02-24T17:33:18.61</time>
<name>1670</name>
</trkpt>
<trkpt lat="48.935043" lon="8.645488">
<ele>305.5</ele>
<speed>4.1</speed>
<course>232.7</course>
<desc>Speed 4.1 km/h Distance 1.76 km</desc>
<time>2010-02-24T17:33:19.61</time>
<name>1671</name>
</trkpt>
<trkpt lat="48.935037" lon="8.645475">
<ele>305.5</ele>
<speed>3.8</speed>
<course>227.6</course>
<desc>Speed 3.8 km/h Distance 1.76 km</desc>
<time>2010-02-24T17:33:20.61</time>
<name>1672</name>
</trkpt>
<trkpt lat="48.935007" lon="8.645425">
<ele>309.0</ele>
<speed>4.0</speed>
<course>227.8</course>
<desc>Speed 4.0 km/h Distance 1.76 km</desc>
<time>2010-02-24T17:33:22.61</time>
<name>1673</name>
</trkpt>
<trkpt lat="48.935002" lon="8.645417">
<ele>309.0</ele>
<speed>2.8</speed>
<course>232.7</course>
<desc>Speed 2.8 km/h Distance 1.76 km</desc>
<time>2010-02-24T17:33:23.61</time>
<name>1674</name>
</trkpt>
<trkpt lat="48.934995" lon="8.645403">
<ele>307.5</ele>
<speed>2.6</speed>
<course>229.9</course>
<desc>Speed 2.6 km/h Distance 1.76 km</desc>
<time>2010-02-24T17:33:24.61</time>
<name>1675</name>
</trkpt>
<trkpt lat="48.934987" lon="8.645388">
<ele>306.5</ele>
<speed>3.1</speed>
<course>221.4</course>
<desc>Speed 3.1 km/h Distance 1.77 km</desc>
<time>2010-02-24T17:33:25.61</time>
<name>1676</name>
</trkpt>
<trkpt lat="48.934977" lon="8.645375">
<ele>306.0</ele>
<speed>3.4</speed>
<course>216.0</course>
<desc>Speed 3.4 km/h Distance 1.77 km</desc>
<time>2010-02-24T17:33:26.61</time>
<name>1677</name>
</trkpt>
<trkpt lat="48.934962" lon="8.645358">
<ele>306.5</ele>
<speed>4.7</speed>
<course>217.3</course>
<desc>Speed 4.7 km/h Distance 1.77 km</desc>
<time>2010-02-24T17:33:27.61</time>
<name>1678</name>
</trkpt>
<trkpt lat="48.934952" lon="8.645347">
<ele>306.5</ele>
<speed>4.3</speed>
<course>209.2</course>
<desc>Speed 4.3 km/h Distance 1.77 km</desc>
<time>2010-02-24T17:33:28.61</time>
<name>1679</name>
</trkpt>
<trkpt lat="48.934940" lon="8.645337">
<ele>307.0</ele>
<speed>4.6</speed>
<course>213.2</course>
<desc>Speed 4.6 km/h Distance 1.77 km</desc>
<time>2010-02-24T17:33:29.61</time>
<name>1680</name>
</trkpt>
<trkpt lat="48.934930" lon="8.645327">
<ele>307.0</ele>
<speed>4.4</speed>
<course>213.3</course>
<desc>Speed 4.4 km/h Distance 1.77 km</desc>
<time>2010-02-24T17:33:30.61</time>
<name>1681</name>
</trkpt>
<trkpt lat="48.934910" lon="8.645307">
<ele>309.0</ele>
<speed>4.9</speed>
<course>219.4</course>
<desc>Speed 4.9 km/h Distance 1.78 km</desc>
<time>2010-02-24T17:33:31.61</time>
<name>1682</name>
</trkpt>
<trkpt lat="48.934890" lon="8.645282">
<ele>311.0</ele>
<speed>4.0</speed>
<course>218.8</course>
<desc>Speed 4.0 km/h Distance 1.78 km</desc>
<time>2010-02-24T17:33:32.61</time>
<name>1683</name>
</trkpt>
<trkpt lat="48.934860" lon="8.645245">
<ele>314.0</ele>
<speed>3.6</speed>
<course>229.9</course>
<desc>Speed 3.6 km/h Distance 1.78 km</desc>
<time>2010-02-24T17:33:34.61</time>
<name>1684</name>
</trkpt>
<trkpt lat="48.934852" lon="8.645230">
<ele>313.5</ele>
<speed>3.1</speed>
<course>203.8</course>
<desc>Speed 3.1 km/h Distance 1.78 km</desc>
<time>2010-02-24T17:33:35.61</time>
<name>1685</name>
</trkpt>
<trkpt lat="48.934842" lon="8.645223">
<ele>314.0</ele>
<speed>2.3</speed>
<course>226.4</course>
<desc>Speed 2.3 km/h Distance 1.79 km</desc>
<time>2010-02-24T17:33:36.61</time>
<name>1686</name>
</trkpt>
<trkpt lat="48.934800" lon="8.645157">
<ele>323.0</ele>
<speed>3.0</speed>
<course>208.9</course>
<desc>Speed 3.0 km/h Distance 1.79 km</desc>
<time>2010-02-24T17:33:38.61</time>
<name>1687</name>
</trkpt>
<trkpt lat="48.934790" lon="8.645148">
<ele>323.5</ele>
<speed>4.3</speed>
<course>218.4</course>
<desc>Speed 4.3 km/h Distance 1.79 km</desc>
<time>2010-02-24T17:33:39.61</time>
<name>1688</name>
</trkpt>
<trkpt lat="48.934782" lon="8.645138">
<ele>322.5</ele>
<speed>3.5</speed>
<course>213.2</course>
<desc>Speed 3.5 km/h Distance 1.80 km</desc>
<time>2010-02-24T17:33:40.61</time>
<name>1689</name>
</trkpt>
<trkpt lat="48.934773" lon="8.645130">
<ele>321.5</ele>
<speed>2.9</speed>
<course>192.6</course>
<desc>Speed 2.9 km/h Distance 1.80 km</desc>
<time>2010-02-24T17:33:41.61</time>
<name>1690</name>
</trkpt>
<trkpt lat="48.934763" lon="8.645127">
<ele>321.0</ele>
<speed>3.5</speed>
<course>186.6</course>
<desc>Speed 3.5 km/h Distance 1.80 km</desc>
<time>2010-02-24T17:33:42.61</time>
<name>1691</name>
</trkpt>
<trkpt lat="48.934753" lon="8.645125">
<ele>321.5</ele>
<speed>3.2</speed>
<course>212.6</course>
<desc>Speed 3.2 km/h Distance 1.80 km</desc>
<time>2010-02-24T17:33:43.61</time>
<name>1692</name>
</trkpt>
<trkpt lat="48.934747" lon="8.645118">
<ele>321.0</ele>
<speed>3.2</speed>
<course>217.5</course>
<desc>Speed 3.2 km/h Distance 1.80 km</desc>
<time>2010-02-24T17:33:44.61</time>
<name>1693</name>
</trkpt>
<trkpt lat="48.934737" lon="8.645107">
<ele>321.0</ele>
<speed>3.7</speed>
<course>207.9</course>
<desc>Speed 3.7 km/h Distance 1.80 km</desc>
<time>2010-02-24T17:33:45.61</time>
<name>1694</name>
</trkpt>
<trkpt lat="48.934728" lon="8.645100">
<ele>321.0</ele>
<speed>3.2</speed>
<course>198.8</course>
<desc>Speed 3.2 km/h Distance 1.80 km</desc>
<time>2010-02-24T17:33:46.61</time>
<name>1695</name>
</trkpt>
<trkpt lat="48.934722" lon="8.645097">
<ele>320.0</ele>
<speed>3.0</speed>
<course>196.0</course>
<desc>Speed 3.0 km/h Distance 1.80 km</desc>
<time>2010-02-24T17:33:47.61</time>
<name>1696</name>
</trkpt>
<trkpt lat="48.934710" lon="8.645092">
<ele>320.0</ele>
<speed>3.0</speed>
<course>205.2</course>
<desc>Speed 3.0 km/h Distance 1.80 km</desc>
<time>2010-02-24T17:33:48.61</time>
<name>1697</name>
</trkpt>
<trkpt lat="48.934698" lon="8.645083">
<ele>320.0</ele>
<speed>3.7</speed>
<course>205.2</course>
<desc>Speed 3.7 km/h Distance 1.81 km</desc>
<time>2010-02-24T17:33:49.61</time>
<name>1698</name>
</trkpt>
<trkpt lat="48.934687" lon="8.645075">
<ele>320.0</ele>
<speed>4.1</speed>
<course>203.8</course>
<desc>Speed 4.1 km/h Distance 1.81 km</desc>
<time>2010-02-24T17:33:50.61</time>
<name>1699</name>
</trkpt>
<trkpt lat="48.934677" lon="8.645068">
<ele>320.0</ele>
<speed>4.5</speed>
<course>201.5</course>
<desc>Speed 4.5 km/h Distance 1.81 km</desc>
<time>2010-02-24T17:33:51.61</time>
<name>1700</name>
</trkpt>
<trkpt lat="48.934660" lon="8.645058">
<ele>320.5</ele>
<speed>4.2</speed>
<course>206.9</course>
<desc>Speed 4.2 km/h Distance 1.81 km</desc>
<time>2010-02-24T17:33:52.61</time>
<name>1701</name>
</trkpt>
<trkpt lat="48.934645" lon="8.645047">
<ele>321.5</ele>
<speed>4.4</speed>
<course>223.6</course>
<desc>Speed 4.4 km/h Distance 1.81 km</desc>
<time>2010-02-24T17:33:53.61</time>
<name>1702</name>
</trkpt>
<trkpt lat="48.934593" lon="8.644972">
<ele>330.5</ele>
<speed>4.0</speed>
<course>227.0</course>
<desc>Speed 4.0 km/h Distance 1.82 km</desc>
<time>2010-02-24T17:33:55.61</time>
<name>1703</name>
</trkpt>
<trkpt lat="48.934548" lon="8.644898">
<ele>339.5</ele>
<speed>3.1</speed>
<course>208.0</course>
<desc>Speed 3.1 km/h Distance 1.83 km</desc>
<time>2010-02-24T17:33:57.61</time>
<name>1704</name>
</trkpt>
<trkpt lat="48.934513" lon="8.644870">
<ele>344.0</ele>
<speed>2.3</speed>
<course>200.1</course>
<desc>Speed 2.3 km/h Distance 1.83 km</desc>
<time>2010-02-24T17:33:59.61</time>
<name>1705</name>
</trkpt>
<trkpt lat="48.934505" lon="8.644865">
<ele>345.5</ele>
<speed>1.4</speed>
<course>218.1</course>
<desc>Speed 1.4 km/h Distance 1.83 km</desc>
<time>2010-02-24T17:34:00.61</time>
<name>1706</name>
</trkpt>
<trkpt lat="48.934497" lon="8.644855">
<ele>347.0</ele>
<speed>0.3</speed>
<course>218.1</course>
<desc>Speed 0.3 km/h Distance 1.83 km</desc>
<time>2010-02-24T17:34:01.61</time>
<name>1707</name>
</trkpt>
<trkpt lat="48.934497" lon="8.644855">
<ele>347.0</ele>
<speed>0.2</speed>
<course>218.1</course>
<desc>Speed 0.2 km/h Distance 1.83 km</desc>
<time>2010-02-24T17:34:02.61</time>
<name>1708</name>
</trkpt>
<trkpt lat="48.934497" lon="8.644855">
<ele>346.5</ele>
<speed>0.4</speed>
<course>224.5</course>
<desc>Speed 0.4 km/h Distance 1.83 km</desc>
<time>2010-02-24T17:34:03.61</time>
<name>1709</name>
</trkpt>
<trkpt lat="48.934490" lon="8.644845">
<ele>347.5</ele>
<speed>2.7</speed>
<course>246.5</course>
<desc>Speed 2.7 km/h Distance 1.84 km</desc>
<time>2010-02-24T17:34:04.61</time>
<name>1710</name>
</trkpt>
<trkpt lat="48.934487" lon="8.644833">
<ele>347.0</ele>
<speed>3.7</speed>
<course>219.4</course>
<desc>Speed 3.7 km/h Distance 1.84 km</desc>
<time>2010-02-24T17:34:05.61</time>
<name>1711</name>
</trkpt>
<trkpt lat="48.934480" lon="8.644825">
<ele>346.5</ele>
<speed>3.3</speed>
<course>183.9</course>
<desc>Speed 3.3 km/h Distance 1.84 km</desc>
<time>2010-02-24T17:34:06.61</time>
<name>1712</name>
</trkpt>
<trkpt lat="48.934467" lon="8.644823">
<ele>347.0</ele>
<speed>4.7</speed>
<course>175.3</course>
<desc>Speed 4.7 km/h Distance 1.84 km</desc>
<time>2010-02-24T17:34:07.61</time>
<name>1713</name>
</trkpt>
<trkpt lat="48.934455" lon="8.644823">
<ele>346.5</ele>
<speed>4.5</speed>
<course>177.8</course>
<desc>Speed 4.5 km/h Distance 1.84 km</desc>
<time>2010-02-24T17:34:08.61</time>
<name>1714</name>
</trkpt>
<trkpt lat="48.934443" lon="8.644823">
<ele>346.5</ele>
<speed>4.8</speed>
<course>175.3</course>
<desc>Speed 4.8 km/h Distance 1.84 km</desc>
<time>2010-02-24T17:34:09.61</time>
<name>1715</name>
</trkpt>
<trkpt lat="48.934432" lon="8.644823">
<ele>345.5</ele>
<speed>4.6</speed>
<course>175.3</course>
<desc>Speed 4.6 km/h Distance 1.84 km</desc>
<time>2010-02-24T17:34:10.61</time>
<name>1716</name>
</trkpt>
<trkpt lat="48.934420" lon="8.644825">
<ele>345.0</ele>
<speed>4.3</speed>
<course>184.4</course>
<desc>Speed 4.3 km/h Distance 1.84 km</desc>
<time>2010-02-24T17:34:11.61</time>
<name>1717</name>
</trkpt>
<trkpt lat="48.934410" lon="8.644823">
<ele>344.5</ele>
<speed>3.7</speed>
<course>201.5</course>
<desc>Speed 3.7 km/h Distance 1.84 km</desc>
<time>2010-02-24T17:34:12.61</time>
<name>1718</name>
</trkpt>
<trkpt lat="48.934402" lon="8.644818">
<ele>344.0</ele>
<speed>3.6</speed>
<course>194.9</course>
<desc>Speed 3.6 km/h Distance 1.85 km</desc>
<time>2010-02-24T17:34:13.61</time>
<name>1719</name>
</trkpt>
<trkpt lat="48.934393" lon="8.644815">
<ele>343.5</ele>
<speed>3.3</speed>
<course>201.5</course>
<desc>Speed 3.3 km/h Distance 1.85 km</desc>
<time>2010-02-24T17:34:14.61</time>
<name>1720</name>
</trkpt>
<trkpt lat="48.934385" lon="8.644810">
<ele>343.5</ele>
<speed>2.9</speed>
<course>220.9</course>
<desc>Speed 2.9 km/h Distance 1.85 km</desc>
<time>2010-02-24T17:34:15.61</time>
<name>1721</name>
</trkpt>
<trkpt lat="48.934380" lon="8.644803">
<ele>343.5</ele>
<speed>2.3</speed>
<course>213.7</course>
<desc>Speed 2.3 km/h Distance 1.85 km</desc>
<time>2010-02-24T17:34:16.61</time>
<name>1722</name>
</trkpt>
<trkpt lat="48.934377" lon="8.644800">
<ele>343.5</ele>
<speed>1.2</speed>
<course>167.4</course>
<desc>Speed 1.2 km/h Distance 1.85 km</desc>
<time>2010-02-24T17:34:17.61</time>
<name>1723</name>
</trkpt>
<trkpt lat="48.934375" lon="8.644800">
<ele>343.5</ele>
<speed>0.1</speed>
<course>167.4</course>
<desc>Speed 0.1 km/h Distance 1.85 km</desc>
<time>2010-02-24T17:34:18.61</time>
<name>1724</name>
</trkpt>
<trkpt lat="48.934375" lon="8.644800">
<ele>343.5</ele>
<speed>0.6</speed>
<course>116.6</course>
<desc>Speed 0.6 km/h Distance 1.85 km</desc>
<time>2010-02-24T17:34:19.61</time>
<name>1725</name>
</trkpt>
<trkpt lat="48.934373" lon="8.644805">
<ele>343.5</ele>
<speed>1.7</speed>
<course>187.7</course>
<desc>Speed 1.7 km/h Distance 1.85 km</desc>
<time>2010-02-24T17:34:20.61</time>
<name>1726</name>
</trkpt>
<trkpt lat="48.934365" lon="8.644803">
<ele>344.5</ele>
<speed>2.0</speed>
<course>117.4</course>
<desc>Speed 2.0 km/h Distance 1.85 km</desc>
<time>2010-02-24T17:34:21.61</time>
<name>1727</name>
</trkpt>
<trkpt lat="48.934363" lon="8.644808">
<ele>344.5</ele>
<speed>1.7</speed>
<course>142.8</course>
<desc>Speed 1.7 km/h Distance 1.85 km</desc>
<time>2010-02-24T17:34:22.61</time>
<name>1728</name>
</trkpt>
<trkpt lat="48.934362" lon="8.644810">
<ele>344.5</ele>
<speed>1.0</speed>
<course>90.0</course>
<desc>Speed 1.0 km/h Distance 1.85 km</desc>
<time>2010-02-24T17:34:23.61</time>
<name>1729</name>
</trkpt>
<trkpt lat="48.934362" lon="8.644812">
<ele>344.5</ele>
<speed>0.9</speed>
<course>209.2</course>
<desc>Speed 0.9 km/h Distance 1.85 km</desc>
<time>2010-02-24T17:34:24.61</time>
<name>1730</name>
</trkpt>
<trkpt lat="48.934360" lon="8.644810">
<ele>345.0</ele>
<speed>0.8</speed>
<course>209.2</course>
<desc>Speed 0.8 km/h Distance 1.85 km</desc>
<time>2010-02-24T17:34:25.61</time>
<name>1731</name>
</trkpt>
<trkpt lat="48.934360" lon="8.644810">
<ele>345.0</ele>
<speed>0.4</speed>
<course>167.4</course>
<desc>Speed 0.4 km/h Distance 1.85 km</desc>
<time>2010-02-24T17:34:26.61</time>
<name>1732</name>
</trkpt>
<trkpt lat="48.934358" lon="8.644810">
<ele>345.0</ele>
<speed>0.1</speed>
<course>167.4</course>
<desc>Speed 0.1 km/h Distance 1.85 km</desc>
<time>2010-02-24T17:34:27.61</time>
<name>1733</name>
</trkpt>
<trkpt lat="48.934358" lon="8.644810">
<ele>345.5</ele>
<speed>0.4</speed>
<course>37.2</course>
<desc>Speed 0.4 km/h Distance 1.85 km</desc>
<time>2010-02-24T17:34:28.61</time>
<name>1734</name>
</trkpt>
<trkpt lat="48.934360" lon="8.644812">
<ele>345.5</ele>
<speed>1.2</speed>
<course>110.9</course>
<desc>Speed 1.2 km/h Distance 1.85 km</desc>
<time>2010-02-24T17:34:29.61</time>
<name>1735</name>
</trkpt>
<trkpt lat="48.934358" lon="8.644818">
<ele>346.0</ele>
<speed>2.3</speed>
<course>104.1</course>
<desc>Speed 2.3 km/h Distance 1.85 km</desc>
<time>2010-02-24T17:34:30.61</time>
<name>1736</name>
</trkpt>
<trkpt lat="48.934357" lon="8.644828">
<ele>345.5</ele>
<speed>3.3</speed>
<course>90.0</course>
<desc>Speed 3.3 km/h Distance 1.85 km</desc>
<time>2010-02-24T17:34:31.61</time>
<name>1737</name>
</trkpt>
<trkpt lat="48.934357" lon="8.644838">
<ele>346.0</ele>
<speed>3.4</speed>
<course>90.0</course>
<desc>Speed 3.4 km/h Distance 1.85 km</desc>
<time>2010-02-24T17:34:32.61</time>
<name>1738</name>
</trkpt>
<trkpt lat="48.934357" lon="8.644848">
<ele>346.5</ele>
<speed>3.5</speed>
<course>90.0</course>
<desc>Speed 3.5 km/h Distance 1.85 km</desc>
<time>2010-02-24T17:34:33.61</time>
<name>1739</name>
</trkpt>
<trkpt lat="48.934357" lon="8.644857">
<ele>346.5</ele>
<speed>3.2</speed>
<course>75.9</course>
<desc>Speed 3.2 km/h Distance 1.86 km</desc>
<time>2010-02-24T17:34:34.61</time>
<name>1740</name>
</trkpt>
<trkpt lat="48.934358" lon="8.644867">
<ele>346.5</ele>
<speed>3.2</speed>
<course>90.0</course>
<desc>Speed 3.2 km/h Distance 1.86 km</desc>
<time>2010-02-24T17:34:35.61</time>
<name>1741</name>
</trkpt>
<trkpt lat="48.934358" lon="8.644880">
<ele>347.0</ele>
<speed>4.3</speed>
<course>104.1</course>
<desc>Speed 4.3 km/h Distance 1.86 km</desc>
<time>2010-02-24T17:34:36.61</time>
<name>1742</name>
</trkpt>
<trkpt lat="48.934357" lon="8.644890">
<ele>348.0</ele>
<speed>4.1</speed>
<course>73.3</course>
<desc>Speed 4.1 km/h Distance 1.86 km</desc>
<time>2010-02-24T17:34:37.61</time>
<name>1743</name>
</trkpt>
<trkpt lat="48.934358" lon="8.644898">
<ele>349.0</ele>
<speed>3.9</speed>
<course>102.2</course>
<desc>Speed 3.9 km/h Distance 1.86 km</desc>
<time>2010-02-24T17:34:38.61</time>
<name>1744</name>
</trkpt>
<trkpt lat="48.934357" lon="8.644910">
<ele>350.0</ele>
<speed>4.4</speed>
<course>104.1</course>
<desc>Speed 4.4 km/h Distance 1.86 km</desc>
<time>2010-02-24T17:34:39.61</time>
<name>1745</name>
</trkpt>
<trkpt lat="48.934355" lon="8.644920">
<ele>351.0</ele>
<speed>4.0</speed>
<course>106.7</course>
<desc>Speed 4.0 km/h Distance 1.86 km</desc>
<time>2010-02-24T17:34:40.61</time>
<name>1746</name>
</trkpt>
<trkpt lat="48.934353" lon="8.644928">
<ele>351.5</ele>
<speed>3.4</speed>
<course>90.0</course>
<desc>Speed 3.4 km/h Distance 1.86 km</desc>
<time>2010-02-24T17:34:41.61</time>
<name>1747</name>
</trkpt>
<trkpt lat="48.934353" lon="8.644942">
<ele>351.5</ele>
<speed>3.9</speed>
<course>79.3</course>
<desc>Speed 3.9 km/h Distance 1.86 km</desc>
<time>2010-02-24T17:34:42.61</time>
<name>1748</name>
</trkpt>
<trkpt lat="48.934355" lon="8.644955">
<ele>351.5</ele>
<speed>3.9</speed>
<course>110.8</course>
<desc>Speed 3.9 km/h Distance 1.86 km</desc>
<time>2010-02-24T17:34:43.61</time>
<name>1749</name>
</trkpt>
<trkpt lat="48.934352" lon="8.644968">
<ele>351.0</ele>
<speed>3.7</speed>
<course>100.8</course>
<desc>Speed 3.7 km/h Distance 1.86 km</desc>
<time>2010-02-24T17:34:44.61</time>
<name>1750</name>
</trkpt>
<trkpt lat="48.934350" lon="8.644982">
<ele>351.0</ele>
<speed>3.7</speed>
<course>90.0</course>
<desc>Speed 3.7 km/h Distance 1.86 km</desc>
<time>2010-02-24T17:34:45.61</time>
<name>1751</name>
</trkpt>
<trkpt lat="48.934350" lon="8.644995">
<ele>351.0</ele>
<speed>4.1</speed>
<course>90.0</course>
<desc>Speed 4.1 km/h Distance 1.87 km</desc>
<time>2010-02-24T17:34:46.61</time>
<name>1752</name>
</trkpt>
<trkpt lat="48.934350" lon="8.645008">
<ele>351.0</ele>
<speed>3.6</speed>
<course>66.4</course>
<desc>Speed 3.6 km/h Distance 1.87 km</desc>
<time>2010-02-24T17:34:47.61</time>
<name>1753</name>
</trkpt>
<trkpt lat="48.934353" lon="8.645020">
<ele>351.0</ele>
<speed>3.7</speed>
<course>56.7</course>
<desc>Speed 3.7 km/h Distance 1.87 km</desc>
<time>2010-02-24T17:34:48.61</time>
<name>1754</name>
</trkpt>
<trkpt lat="48.934358" lon="8.645032">
<ele>351.0</ele>
<speed>3.7</speed>
<course>57.1</course>
<desc>Speed 3.7 km/h Distance 1.87 km</desc>
<time>2010-02-24T17:34:49.61</time>
<name>1755</name>
</trkpt>
<trkpt lat="48.934363" lon="8.645043">
<ele>350.5</ele>
<speed>3.3</speed>
<course>75.6</course>
<desc>Speed 3.3 km/h Distance 1.87 km</desc>
<time>2010-02-24T17:34:50.61</time>
<name>1756</name>
</trkpt>
<trkpt lat="48.934365" lon="8.645053">
<ele>350.5</ele>
<speed>2.6</speed>
<course>75.6</course>
<desc>Speed 2.6 km/h Distance 1.87 km</desc>
<time>2010-02-24T17:34:51.61</time>
<name>1757</name>
</trkpt>
<trkpt lat="48.934367" lon="8.645063">
<ele>350.0</ele>
<speed>2.6</speed>
<course>102.3</course>
<desc>Speed 2.6 km/h Distance 1.87 km</desc>
<time>2010-02-24T17:34:52.61</time>
<name>1758</name>
</trkpt>
<trkpt lat="48.934365" lon="8.645075">
<ele>350.0</ele>
<speed>3.1</speed>
<course>113.5</course>
<desc>Speed 3.1 km/h Distance 1.87 km</desc>
<time>2010-02-24T17:34:53.61</time>
<name>1759</name>
</trkpt>
<trkpt lat="48.934362" lon="8.645087">
<ele>350.0</ele>
<speed>3.3</speed>
<course>113.5</course>
<desc>Speed 3.3 km/h Distance 1.87 km</desc>
<time>2010-02-24T17:34:54.61</time>
<name>1760</name>
</trkpt>
<trkpt lat="48.934358" lon="8.645098">
<ele>350.0</ele>
<speed>3.3</speed>
<course>102.2</course>
<desc>Speed 3.3 km/h Distance 1.87 km</desc>
<time>2010-02-24T17:34:55.61</time>
<name>1761</name>
</trkpt>
<trkpt lat="48.934357" lon="8.645110">
<ele>350.0</ele>
<speed>2.8</speed>
<course>113.5</course>
<desc>Speed 2.8 km/h Distance 1.87 km</desc>
<time>2010-02-24T17:34:56.61</time>
<name>1762</name>
</trkpt>
<trkpt lat="48.934353" lon="8.645122">
<ele>350.5</ele>
<speed>3.1</speed>
<course>90.0</course>
<desc>Speed 3.1 km/h Distance 1.88 km</desc>
<time>2010-02-24T17:34:57.61</time>
<name>1763</name>
</trkpt>
<trkpt lat="48.934353" lon="8.645132">
<ele>350.5</ele>
<speed>2.6</speed>
<course>110.9</course>
<desc>Speed 2.6 km/h Distance 1.88 km</desc>
<time>2010-02-24T17:34:58.61</time>
<name>1764</name>
</trkpt>
<trkpt lat="48.934352" lon="8.645138">
<ele>350.0</ele>
<speed>1.9</speed>
<course>102.3</course>
<desc>Speed 1.9 km/h Distance 1.88 km</desc>
<time>2010-02-24T17:34:59.61</time>
<name>1765</name>
</trkpt>
<trkpt lat="48.934350" lon="8.645150">
<ele>350.5</ele>
<speed>3.2</speed>
<course>114.6</course>
<desc>Speed 3.2 km/h Distance 1.88 km</desc>
<time>2010-02-24T17:35:00.61</time>
<name>1766</name>
</trkpt>
<trkpt lat="48.934345" lon="8.645167">
<ele>350.5</ele>
<speed>3.8</speed>
<course>102.3</course>
<desc>Speed 3.8 km/h Distance 1.88 km</desc>
<time>2010-02-24T17:35:01.61</time>
<name>1767</name>
</trkpt>
<trkpt lat="48.934343" lon="8.645178">
<ele>350.5</ele>
<speed>3.0</speed>
<course>100.8</course>
<desc>Speed 3.0 km/h Distance 1.88 km</desc>
<time>2010-02-24T17:35:02.61</time>
<name>1768</name>
</trkpt>
<trkpt lat="48.934342" lon="8.645192">
<ele>350.5</ele>
<speed>3.5</speed>
<course>90.0</course>
<desc>Speed 3.5 km/h Distance 1.88 km</desc>
<time>2010-02-24T17:35:03.61</time>
<name>1769</name>
</trkpt>
<trkpt lat="48.934342" lon="8.645202">
<ele>351.0</ele>
<speed>2.9</speed>
<course>110.9</course>
<desc>Speed 2.9 km/h Distance 1.88 km</desc>
<time>2010-02-24T17:35:04.61</time>
<name>1770</name>
</trkpt>
<trkpt lat="48.934338" lon="8.645215">
<ele>351.0</ele>
<speed>3.6</speed>
<course>108.7</course>
<desc>Speed 3.6 km/h Distance 1.88 km</desc>
<time>2010-02-24T17:35:05.61</time>
<name>1771</name>
</trkpt>
<trkpt lat="48.934335" lon="8.645230">
<ele>351.0</ele>
<speed>3.6</speed>
<course>100.7</course>
<desc>Speed 3.6 km/h Distance 1.88 km</desc>
<time>2010-02-24T17:35:06.61</time>
<name>1772</name>
</trkpt>
<trkpt lat="48.934333" lon="8.645243">
<ele>351.0</ele>
<speed>3.7</speed>
<course>108.7</course>
<desc>Speed 3.7 km/h Distance 1.88 km</desc>
<time>2010-02-24T17:35:07.61</time>
<name>1773</name>
</trkpt>
<trkpt lat="48.934330" lon="8.645258">
<ele>351.0</ele>
<speed>3.7</speed>
<course>119.7</course>
<desc>Speed 3.7 km/h Distance 1.89 km</desc>
<time>2010-02-24T17:35:08.61</time>
<name>1774</name>
</trkpt>
<trkpt lat="48.934325" lon="8.645272">
<ele>351.0</ele>
<speed>4.0</speed>
<course>119.7</course>
<desc>Speed 4.0 km/h Distance 1.89 km</desc>
<time>2010-02-24T17:35:09.61</time>
<name>1775</name>
</trkpt>
<trkpt lat="48.934320" lon="8.645285">
<ele>351.0</ele>
<speed>4.0</speed>
<course>108.7</course>
<desc>Speed 4.0 km/h Distance 1.89 km</desc>
<time>2010-02-24T17:35:10.61</time>
<name>1776</name>
</trkpt>
<trkpt lat="48.934317" lon="8.645300">
<ele>351.0</ele>
<speed>3.7</speed>
<course>123.1</course>
<desc>Speed 3.7 km/h Distance 1.89 km</desc>
<time>2010-02-24T17:35:11.61</time>
<name>1777</name>
</trkpt>
<trkpt lat="48.934312" lon="8.645312">
<ele>351.0</ele>
<speed>3.7</speed>
<course>135.5</course>
<desc>Speed 3.7 km/h Distance 1.89 km</desc>
<time>2010-02-24T17:35:12.61</time>
<name>1778</name>
</trkpt>
<trkpt lat="48.934305" lon="8.645322">
<ele>351.0</ele>
<speed>3.6</speed>
<course>152.1</course>
<desc>Speed 3.6 km/h Distance 1.89 km</desc>
<time>2010-02-24T17:35:13.61</time>
<name>1779</name>
</trkpt>
<trkpt lat="48.934297" lon="8.645328">
<ele>351.0</ele>
<speed>3.0</speed>
<course>326.3</course>
<desc>Speed 3.0 km/h Distance 1.89 km</desc>
<time>2010-02-24T17:35:14.61</time>
<name>1780</name>
</trkpt>
<trkpt lat="48.934300" lon="8.645325">
<ele>351.0</ele>
<speed>1.7</speed>
<course>270.0</course>
<desc>Speed 1.7 km/h Distance 1.89 km</desc>
<time>2010-02-24T17:35:15.61</time>
<name>1781</name>
</trkpt>
<trkpt lat="48.934300" lon="8.645323">
<ele>351.0</ele>
<speed>0.3</speed>
<course>90.0</course>
<desc>Speed 0.3 km/h Distance 1.89 km</desc>
<time>2010-02-24T17:35:16.61</time>
<name>1782</name>
</trkpt>
<trkpt lat="48.934300" lon="8.645325">
<ele>351.0</ele>
<speed>0.1</speed>
<course>18.8</course>
<desc>Speed 0.1 km/h Distance 1.89 km</desc>
<time>2010-02-24T17:35:17.61</time>
<name>1783</name>
</trkpt>
<trkpt lat="48.934303" lon="8.645327">
<ele>351.0</ele>
<speed>1.4</speed>
<course>98.7</course>
<desc>Speed 1.4 km/h Distance 1.89 km</desc>
<time>2010-02-24T17:35:18.61</time>
<name>1784</name>
</trkpt>
<trkpt lat="48.934302" lon="8.645343">
<ele>351.5</ele>
<speed>3.1</speed>
<course>98.7</course>
<desc>Speed 3.1 km/h Distance 1.89 km</desc>
<time>2010-02-24T17:35:19.61</time>
<name>1785</name>
</trkpt>
<trkpt lat="48.934300" lon="8.645360">
<ele>351.5</ele>
<speed>3.2</speed>
<course>90.0</course>
<desc>Speed 3.2 km/h Distance 1.90 km</desc>
<time>2010-02-24T17:35:20.61</time>
<name>1786</name>
</trkpt>
<trkpt lat="48.934300" lon="8.645373">
<ele>351.0</ele>
<speed>3.5</speed>
<course>108.6</course>
<desc>Speed 3.5 km/h Distance 1.90 km</desc>
<time>2010-02-24T17:35:21.61</time>
<name>1787</name>
</trkpt>
<trkpt lat="48.934297" lon="8.645388">
<ele>351.0</ele>
<speed>3.6</speed>
<course>116.9</course>
<desc>Speed 3.6 km/h Distance 1.90 km</desc>
<time>2010-02-24T17:35:22.61</time>
<name>1788</name>
</trkpt>
<trkpt lat="48.934292" lon="8.645403">
<ele>351.5</ele>
<speed>3.9</speed>
<course>124.1</course>
<desc>Speed 3.9 km/h Distance 1.90 km</desc>
<time>2010-02-24T17:35:23.61</time>
<name>1789</name>
</trkpt>
<trkpt lat="48.934285" lon="8.645418">
<ele>351.0</ele>
<speed>3.9</speed>
<course>119.0</course>
<desc>Speed 3.9 km/h Distance 1.90 km</desc>
<time>2010-02-24T17:35:24.61</time>
<name>1790</name>
</trkpt>
<trkpt lat="48.934278" lon="8.645437">
<ele>351.5</ele>
<speed>4.1</speed>
<course>116.9</course>
<desc>Speed 4.1 km/h Distance 1.90 km</desc>
<time>2010-02-24T17:35:25.61</time>
<name>1791</name>
</trkpt>
<trkpt lat="48.934272" lon="8.645457">
<ele>351.5</ele>
<speed>4.0</speed>
<course>114.6</course>
<desc>Speed 4.0 km/h Distance 1.90 km</desc>
<time>2010-02-24T17:35:26.61</time>
<name>1792</name>
</trkpt>
<trkpt lat="48.934267" lon="8.645473">
<ele>351.0</ele>
<speed>3.6</speed>
<course>99.6</course>
<desc>Speed 3.6 km/h Distance 1.91 km</desc>
<time>2010-02-24T17:35:27.61</time>
<name>1793</name>
</trkpt>
<trkpt lat="48.934265" lon="8.645488">
<ele>351.0</ele>
<speed>3.7</speed>
<course>99.6</course>
<desc>Speed 3.7 km/h Distance 1.91 km</desc>
<time>2010-02-24T17:35:28.61</time>
<name>1794</name>
</trkpt>
<trkpt lat="48.934263" lon="8.645503">
<ele>351.0</ele>
<speed>3.7</speed>
<course>106.9</course>
<desc>Speed 3.7 km/h Distance 1.91 km</desc>
<time>2010-02-24T17:35:29.61</time>
<name>1795</name>
</trkpt>
<trkpt lat="48.934260" lon="8.645520">
<ele>351.0</ele>
<speed>4.1</speed>
<course>108.7</course>
<desc>Speed 4.1 km/h Distance 1.91 km</desc>
<time>2010-02-24T17:35:30.61</time>
<name>1796</name>
</trkpt>
<trkpt lat="48.934257" lon="8.645535">
<ele>351.5</ele>
<speed>4.3</speed>
<course>110.8</course>
<desc>Speed 4.3 km/h Distance 1.91 km</desc>
<time>2010-02-24T17:35:31.61</time>
<name>1797</name>
</trkpt>
<trkpt lat="48.934253" lon="8.645548">
<ele>351.5</ele>
<speed>3.2</speed>
<course>108.7</course>
<desc>Speed 3.2 km/h Distance 1.91 km</desc>
<time>2010-02-24T17:35:32.61</time>
<name>1798</name>
</trkpt>
<trkpt lat="48.934250" lon="8.645563">
<ele>351.5</ele>
<speed>3.9</speed>
<course>116.9</course>
<desc>Speed 3.9 km/h Distance 1.91 km</desc>
<time>2010-02-24T17:35:33.61</time>
<name>1799</name>
</trkpt>
<trkpt lat="48.934245" lon="8.645578">
<ele>351.5</ele>
<speed>3.4</speed>
<course>99.6</course>
<desc>Speed 3.4 km/h Distance 1.91 km</desc>
<time>2010-02-24T17:35:34.61</time>
<name>1800</name>
</trkpt>
<trkpt lat="48.934243" lon="8.645593">
<ele>351.5</ele>
<speed>3.0</speed>
<course>121.4</course>
<desc>Speed 3.0 km/h Distance 1.91 km</desc>
<time>2010-02-24T17:35:35.61</time>
<name>1801</name>
</trkpt>
<trkpt lat="48.934237" lon="8.645610">
<ele>351.5</ele>
<speed>4.5</speed>
<course>108.7</course>
<desc>Speed 4.5 km/h Distance 1.92 km</desc>
<time>2010-02-24T17:35:36.61</time>
<name>1802</name>
</trkpt>
<trkpt lat="48.934233" lon="8.645625">
<ele>351.5</ele>
<speed>3.0</speed>
<course>116.9</course>
<desc>Speed 3.0 km/h Distance 1.92 km</desc>
<time>2010-02-24T17:35:37.61</time>
<name>1803</name>
</trkpt>
<trkpt lat="48.934228" lon="8.645640">
<ele>351.5</ele>
<speed>4.2</speed>
<course>112.5</course>
<desc>Speed 4.2 km/h Distance 1.92 km</desc>
<time>2010-02-24T17:35:38.61</time>
<name>1804</name>
</trkpt>
<trkpt lat="48.934223" lon="8.645658">
<ele>351.5</ele>
<speed>4.5</speed>
<course>100.7</course>
<desc>Speed 4.5 km/h Distance 1.92 km</desc>
<time>2010-02-24T17:35:39.61</time>
<name>1805</name>
</trkpt>
<trkpt lat="48.934222" lon="8.645672">
<ele>352.0</ele>
<speed>3.7</speed>
<course>105.5</course>
<desc>Speed 3.7 km/h Distance 1.92 km</desc>
<time>2010-02-24T17:35:40.61</time>
<name>1806</name>
</trkpt>
<trkpt lat="48.934218" lon="8.645690">
<ele>352.5</ele>
<speed>4.5</speed>
<course>106.9</course>
<desc>Speed 4.5 km/h Distance 1.92 km</desc>
<time>2010-02-24T17:35:41.61</time>
<name>1807</name>
</trkpt>
<trkpt lat="48.934215" lon="8.645707">
<ele>352.5</ele>
<speed>4.3</speed>
<course>107.0</course>
<desc>Speed 4.3 km/h Distance 1.92 km</desc>
<time>2010-02-24T17:35:42.61</time>
<name>1808</name>
</trkpt>
<trkpt lat="48.934212" lon="8.645723">
<ele>352.5</ele>
<speed>4.3</speed>
<course>116.9</course>
<desc>Speed 4.3 km/h Distance 1.92 km</desc>
<time>2010-02-24T17:35:43.61</time>
<name>1809</name>
</trkpt>
<trkpt lat="48.934207" lon="8.645738">
<ele>353.0</ele>
<speed>3.5</speed>
<course>121.3</course>
<desc>Speed 3.5 km/h Distance 1.93 km</desc>
<time>2010-02-24T17:35:44.61</time>
<name>1810</name>
</trkpt>
<trkpt lat="48.934200" lon="8.645755">
<ele>353.0</ele>
<speed>4.2</speed>
<course>114.6</course>
<desc>Speed 4.2 km/h Distance 1.93 km</desc>
<time>2010-02-24T17:35:45.61</time>
<name>1811</name>
</trkpt>
<trkpt lat="48.934195" lon="8.645772">
<ele>353.0</ele>
<speed>4.1</speed>
<course>119.7</course>
<desc>Speed 4.1 km/h Distance 1.93 km</desc>
<time>2010-02-24T17:35:46.61</time>
<name>1812</name>
</trkpt>
<trkpt lat="48.934190" lon="8.645785">
<ele>353.0</ele>
<speed>3.0</speed>
<course>110.8</course>
<desc>Speed 3.0 km/h Distance 1.93 km</desc>
<time>2010-02-24T17:35:47.61</time>
<name>1813</name>
</trkpt>
<trkpt lat="48.934187" lon="8.645798">
<ele>353.0</ele>
<speed>2.7</speed>
<course>113.5</course>
<desc>Speed 2.7 km/h Distance 1.93 km</desc>
<time>2010-02-24T17:35:48.61</time>
<name>1814</name>
</trkpt>
<trkpt lat="48.934183" lon="8.645810">
<ele>353.5</ele>
<speed>3.0</speed>
<course>110.9</course>
<desc>Speed 3.0 km/h Distance 1.93 km</desc>
<time>2010-02-24T17:35:49.61</time>
<name>1815</name>
</trkpt>
<trkpt lat="48.934180" lon="8.645823">
<ele>353.5</ele>
<speed>3.1</speed>
<course>110.8</course>
<desc>Speed 3.1 km/h Distance 1.93 km</desc>
<time>2010-02-24T17:35:50.61</time>
<name>1816</name>
</trkpt>
<trkpt lat="48.934177" lon="8.645837">
<ele>354.0</ele>
<speed>3.3</speed>
<course>108.7</course>
<desc>Speed 3.3 km/h Distance 1.93 km</desc>
<time>2010-02-24T17:35:51.61</time>
<name>1817</name>
</trkpt>
<trkpt lat="48.934173" lon="8.645852">
<ele>354.0</ele>
<speed>3.2</speed>
<course>124.1</course>
<desc>Speed 3.2 km/h Distance 1.93 km</desc>
<time>2010-02-24T17:35:52.61</time>
<name>1818</name>
</trkpt>
<trkpt lat="48.934167" lon="8.645867">
<ele>354.5</ele>
<speed>3.5</speed>
<course>100.7</course>
<desc>Speed 3.5 km/h Distance 1.94 km</desc>
<time>2010-02-24T17:35:53.61</time>
<name>1819</name>
</trkpt>
<trkpt lat="48.934165" lon="8.645880">
<ele>354.5</ele>
<speed>3.3</speed>
<course>100.8</course>
<desc>Speed 3.3 km/h Distance 1.94 km</desc>
<time>2010-02-24T17:35:54.61</time>
<name>1820</name>
</trkpt>
<trkpt lat="48.934163" lon="8.645893">
<ele>354.5</ele>
<speed>3.0</speed>
<course>108.7</course>
<desc>Speed 3.0 km/h Distance 1.94 km</desc>
<time>2010-02-24T17:35:55.61</time>
<name>1821</name>
</trkpt>
<trkpt lat="48.934160" lon="8.645908">
<ele>354.5</ele>
<speed>3.5</speed>
<course>119.0</course>
<desc>Speed 3.5 km/h Distance 1.94 km</desc>
<time>2010-02-24T17:35:56.61</time>
<name>1822</name>
</trkpt>
<trkpt lat="48.934153" lon="8.645927">
<ele>355.0</ele>
<speed>4.1</speed>
<course>110.9</course>
<desc>Speed 4.1 km/h Distance 1.94 km</desc>
<time>2010-02-24T17:35:57.61</time>
<name>1823</name>
</trkpt>
<trkpt lat="48.934150" lon="8.645940">
<ele>355.0</ele>
<speed>3.8</speed>
<course>108.7</course>
<desc>Speed 3.8 km/h Distance 1.94 km</desc>
<time>2010-02-24T17:35:58.61</time>
<name>1824</name>
</trkpt>
<trkpt lat="48.934147" lon="8.645955">
<ele>355.0</ele>
<speed>3.6</speed>
<course>108.7</course>
<desc>Speed 3.6 km/h Distance 1.94 km</desc>
<time>2010-02-24T17:35:59.61</time>
<name>1825</name>
</trkpt>
<trkpt lat="48.934143" lon="8.645970">
<ele>355.0</ele>
<speed>3.2</speed>
<course>108.6</course>
<desc>Speed 3.2 km/h Distance 1.94 km</desc>
<time>2010-02-24T17:36:00.61</time>
<name>1826</name>
</trkpt>
<trkpt lat="48.934140" lon="8.645985">
<ele>355.0</ele>
<speed>3.3</speed>
<course>102.3</course>
<desc>Speed 3.3 km/h Distance 1.95 km</desc>
<time>2010-02-24T17:36:01.61</time>
<name>1827</name>
</trkpt>
<trkpt lat="48.934138" lon="8.645997">
<ele>355.0</ele>
<speed>3.1</speed>
<course>113.5</course>
<desc>Speed 3.1 km/h Distance 1.95 km</desc>
<time>2010-02-24T17:36:02.61</time>
<name>1828</name>
</trkpt>
<trkpt lat="48.934135" lon="8.646008">
<ele>354.5</ele>
<speed>2.6</speed>
<course>119.7</course>
<desc>Speed 2.6 km/h Distance 1.95 km</desc>
<time>2010-02-24T17:36:03.61</time>
<name>1829</name>
</trkpt>
<trkpt lat="48.934130" lon="8.646022">
<ele>355.0</ele>
<speed>3.3</speed>
<course>110.8</course>
<desc>Speed 3.3 km/h Distance 1.95 km</desc>
<time>2010-02-24T17:36:04.61</time>
<name>1830</name>
</trkpt>
<trkpt lat="48.934127" lon="8.646035">
<ele>355.0</ele>
<speed>3.7</speed>
<course>99.6</course>
<desc>Speed 3.7 km/h Distance 1.95 km</desc>
<time>2010-02-24T17:36:05.61</time>
<name>1831</name>
</trkpt>
<trkpt lat="48.934125" lon="8.646050">
<ele>355.0</ele>
<speed>3.4</speed>
<course>108.7</course>
<desc>Speed 3.4 km/h Distance 1.95 km</desc>
<time>2010-02-24T17:36:06.61</time>
<name>1832</name>
</trkpt>
<trkpt lat="48.934122" lon="8.646065">
<ele>355.5</ele>
<speed>4.0</speed>
<course>108.7</course>
<desc>Speed 4.0 km/h Distance 1.95 km</desc>
<time>2010-02-24T17:36:07.61</time>
<name>1833</name>
</trkpt>
<trkpt lat="48.934118" lon="8.646080">
<ele>355.5</ele>
<speed>4.0</speed>
<course>119.7</course>
<desc>Speed 4.0 km/h Distance 1.95 km</desc>
<time>2010-02-24T17:36:08.61</time>
<name>1834</name>
</trkpt>
<trkpt lat="48.934113" lon="8.646093">
<ele>355.5</ele>
<speed>3.3</speed>
<course>140.6</course>
<desc>Speed 3.3 km/h Distance 1.95 km</desc>
<time>2010-02-24T17:36:09.61</time>
<name>1835</name>
</trkpt>
<trkpt lat="48.934107" lon="8.646102">
<ele>356.0</ele>
<speed>2.7</speed>
<course>147.7</course>
<desc>Speed 2.7 km/h Distance 1.95 km</desc>
<time>2010-02-24T17:36:10.61</time>
<name>1836</name>
</trkpt>
<trkpt lat="48.934102" lon="8.646107">
<ele>356.0</ele>
<speed>1.8</speed>
<course>117.4</course>
<desc>Speed 1.8 km/h Distance 1.96 km</desc>
<time>2010-02-24T17:36:11.61</time>
<name>1837</name>
</trkpt>
<trkpt lat="48.934100" lon="8.646112">
<ele>356.5</ele>
<speed>1.0</speed>
<course>146.3</course>
<desc>Speed 1.0 km/h Distance 1.96 km</desc>
<time>2010-02-24T17:36:12.61</time>
<name>1838</name>
</trkpt>
<trkpt lat="48.934097" lon="8.646115">
<ele>356.5</ele>
<speed>0.8</speed>
<course>128.1</course>
<desc>Speed 0.8 km/h Distance 1.96 km</desc>
<time>2010-02-24T17:36:13.61</time>
<name>1839</name>
</trkpt>
<trkpt lat="48.934095" lon="8.646118">
<ele>356.5</ele>
<speed>0.1</speed>
<course>90.0</course>
<desc>Speed 0.1 km/h Distance 1.96 km</desc>
<time>2010-02-24T17:36:14.61</time>
<name>1840</name>
</trkpt>
<trkpt lat="48.934095" lon="8.646120">
<ele>356.5</ele>
<speed>0.2</speed>
<course>90.0</course>
<desc>Speed 0.2 km/h Distance 1.96 km</desc>
<time>2010-02-24T17:36:15.61</time>
<name>1841</name>
</trkpt>
<trkpt lat="48.934095" lon="8.646120">
<ele>356.5</ele>
<speed>0.3</speed>
<course>90.0</course>
<desc>Speed 0.3 km/h Distance 1.96 km</desc>
<time>2010-02-24T17:36:16.61</time>
<name>1842</name>
</trkpt>
<trkpt lat="48.934095" lon="8.646120">
<ele>356.5</ele>
<speed>0.6</speed>
<course>12.6</course>
<desc>Speed 0.6 km/h Distance 1.96 km</desc>
<time>2010-02-24T17:36:17.61</time>
<name>1843</name>
</trkpt>
<trkpt lat="48.934097" lon="8.646120">
<ele>357.0</ele>
<speed>0.8</speed>
<course>90.0</course>
<desc>Speed 0.8 km/h Distance 1.96 km</desc>
<time>2010-02-24T17:36:18.61</time>
<name>1844</name>
</trkpt>
<trkpt lat="48.934097" lon="8.646122">
<ele>357.0</ele>
<speed>0.5</speed>
<course>122.9</course>
<desc>Speed 0.5 km/h Distance 1.96 km</desc>
<time>2010-02-24T17:36:19.61</time>
<name>1845</name>
</trkpt>
<trkpt lat="48.934092" lon="8.646133">
<ele>356.5</ele>
<speed>3.7</speed>
<course>106.9</course>
<desc>Speed 3.7 km/h Distance 1.96 km</desc>
<time>2010-02-24T17:36:20.61</time>
<name>1846</name>
</trkpt>
<trkpt lat="48.934088" lon="8.646150">
<ele>356.5</ele>
<speed>4.0</speed>
<course>99.6</course>
<desc>Speed 4.0 km/h Distance 1.96 km</desc>
<time>2010-02-24T17:36:21.61</time>
<name>1847</name>
</trkpt>
<trkpt lat="48.934087" lon="8.646165">
<ele>357.0</ele>
<speed>3.9</speed>
<course>108.7</course>
<desc>Speed 3.9 km/h Distance 1.96 km</desc>
<time>2010-02-24T17:36:22.61</time>
<name>1848</name>
</trkpt>
<trkpt lat="48.934083" lon="8.646180">
<ele>357.0</ele>
<speed>3.9</speed>
<course>119.7</course>
<desc>Speed 3.9 km/h Distance 1.96 km</desc>
<time>2010-02-24T17:36:23.61</time>
<name>1849</name>
</trkpt>
<trkpt lat="48.934078" lon="8.646193">
<ele>357.0</ele>
<speed>4.0</speed>
<course>127.3</course>
<desc>Speed 4.0 km/h Distance 1.96 km</desc>
<time>2010-02-24T17:36:24.61</time>
<name>1850</name>
</trkpt>
<trkpt lat="48.934072" lon="8.646207">
<ele>357.0</ele>
<speed>4.0</speed>
<course>124.0</course>
<desc>Speed 4.0 km/h Distance 1.96 km</desc>
<time>2010-02-24T17:36:25.61</time>
<name>1851</name>
</trkpt>
<trkpt lat="48.934065" lon="8.646222">
<ele>357.5</ele>
<speed>4.2</speed>
<course>121.4</course>
<desc>Speed 4.2 km/h Distance 1.97 km</desc>
<time>2010-02-24T17:36:26.61</time>
<name>1852</name>
</trkpt>
<trkpt lat="48.934062" lon="8.646230">
<ele>357.5</ele>
<speed>1.6</speed>
<course>90.0</course>
<desc>Speed 1.6 km/h Distance 1.97 km</desc>
<time>2010-02-24T17:36:27.61</time>
<name>1853</name>
</trkpt>
<trkpt lat="48.934062" lon="8.646233">
<ele>357.5</ele>
<speed>0.1</speed>
<course>90.0</course>
<desc>Speed 0.1 km/h Distance 1.97 km</desc>
<time>2010-02-24T17:36:28.61</time>
<name>1854</name>
</trkpt>
<trkpt lat="48.934062" lon="8.646233">
<ele>357.5</ele>
<speed>0.1</speed>
<course>90.0</course>
<desc>Speed 0.1 km/h Distance 1.97 km</desc>
<time>2010-02-24T17:36:29.61</time>
<name>1855</name>
</trkpt>
<trkpt lat="48.934062" lon="8.646235">
<ele>357.5</ele>
<speed>0.7</speed>
<course>127.4</course>
<desc>Speed 0.7 km/h Distance 1.97 km</desc>
<time>2010-02-24T17:36:30.61</time>
<name>1856</name>
</trkpt>
<trkpt lat="48.934057" lon="8.646245">
<ele>358.0</ele>
<speed>2.7</speed>
<course>135.5</course>
<desc>Speed 2.7 km/h Distance 1.97 km</desc>
<time>2010-02-24T17:36:31.61</time>
<name>1857</name>
</trkpt>
<trkpt lat="48.934053" lon="8.646250">
<ele>358.0</ele>
<speed>1.6</speed>
<course>135.5</course>
<desc>Speed 1.6 km/h Distance 1.97 km</desc>
<time>2010-02-24T17:36:32.61</time>
<name>1858</name>
</trkpt>
<trkpt lat="48.934053" lon="8.646250">
<ele>358.0</ele>
<speed>0.4</speed>
<course>142.8</course>
<desc>Speed 0.4 km/h Distance 1.97 km</desc>
<time>2010-02-24T17:36:33.61</time>
<name>1859</name>
</trkpt>
<trkpt lat="48.934052" lon="8.646252">
<ele>358.0</ele>
<speed>0.6</speed>
<course>128.1</course>
<desc>Speed 0.6 km/h Distance 1.97 km</desc>
<time>2010-02-24T17:36:34.61</time>
<name>1860</name>
</trkpt>
<trkpt lat="48.934050" lon="8.646255">
<ele>358.0</ele>
<speed>0.8</speed>
<course>135.5</course>
<desc>Speed 0.8 km/h Distance 1.97 km</desc>
<time>2010-02-24T17:36:35.61</time>
<name>1861</name>
</trkpt>
<trkpt lat="48.934047" lon="8.646260">
<ele>358.0</ele>
<speed>0.8</speed>
<course>104.1</course>
<desc>Speed 0.8 km/h Distance 1.97 km</desc>
<time>2010-02-24T17:36:36.61</time>
<name>1862</name>
</trkpt>
<trkpt lat="48.934045" lon="8.646270">
<ele>358.0</ele>
<speed>1.9</speed>
<course>121.3</course>
<desc>Speed 1.9 km/h Distance 1.97 km</desc>
<time>2010-02-24T17:36:37.61</time>
<name>1863</name>
</trkpt>
<trkpt lat="48.934038" lon="8.646287">
<ele>358.0</ele>
<speed>3.7</speed>
<course>142.1</course>
<desc>Speed 3.7 km/h Distance 1.97 km</desc>
<time>2010-02-24T17:36:38.61</time>
<name>1864</name>
</trkpt>
<trkpt lat="48.934030" lon="8.646297">
<ele>358.0</ele>
<speed>2.4</speed>
<course>104.4</course>
<desc>Speed 2.4 km/h Distance 1.97 km</desc>
<time>2010-02-24T17:36:39.61</time>
<name>1865</name>
</trkpt>
<trkpt lat="48.934028" lon="8.646307">
<ele>357.5</ele>
<speed>2.1</speed>
<course>123.3</course>
<desc>Speed 2.1 km/h Distance 1.97 km</desc>
<time>2010-02-24T17:36:40.61</time>
<name>1866</name>
</trkpt>
<trkpt lat="48.934023" lon="8.646318">
<ele>357.5</ele>
<speed>3.0</speed>
<course>116.9</course>
<desc>Speed 3.0 km/h Distance 1.97 km</desc>
<time>2010-02-24T17:36:41.61</time>
<name>1867</name>
</trkpt>
<trkpt lat="48.934018" lon="8.646333">
<ele>357.5</ele>
<speed>3.3</speed>
<course>110.8</course>
<desc>Speed 3.3 km/h Distance 1.98 km</desc>
<time>2010-02-24T17:36:42.61</time>
<name>1868</name>
</trkpt>
<trkpt lat="48.934015" lon="8.646347">
<ele>357.5</ele>
<speed>3.5</speed>
<course>110.9</course>
<desc>Speed 3.5 km/h Distance 1.98 km</desc>
<time>2010-02-24T17:36:43.61</time>
<name>1869</name>
</trkpt>
<trkpt lat="48.934012" lon="8.646360">
<ele>357.5</ele>
<speed>3.6</speed>
<course>119.7</course>
<desc>Speed 3.6 km/h Distance 1.98 km</desc>
<time>2010-02-24T17:36:44.61</time>
<name>1870</name>
</trkpt>
<trkpt lat="48.934007" lon="8.646373">
<ele>357.5</ele>
<speed>3.4</speed>
<course>130.9</course>
<desc>Speed 3.4 km/h Distance 1.98 km</desc>
<time>2010-02-24T17:36:45.61</time>
<name>1871</name>
</trkpt>
<trkpt lat="48.934000" lon="8.646385">
<ele>358.0</ele>
<speed>3.7</speed>
<course>133.6</course>
<desc>Speed 3.7 km/h Distance 1.98 km</desc>
<time>2010-02-24T17:36:46.61</time>
<name>1872</name>
</trkpt>
<trkpt lat="48.933992" lon="8.646398">
<ele>358.0</ele>
<speed>4.0</speed>
<course>108.7</course>
<desc>Speed 4.0 km/h Distance 1.98 km</desc>
<time>2010-02-24T17:36:47.61</time>
<name>1873</name>
</trkpt>
<trkpt lat="48.933988" lon="8.646413">
<ele>358.0</ele>
<speed>3.7</speed>
<course>108.7</course>
<desc>Speed 3.7 km/h Distance 1.98 km</desc>
<time>2010-02-24T17:36:48.61</time>
<name>1874</name>
</trkpt>
<trkpt lat="48.933985" lon="8.646428">
<ele>358.0</ele>
<speed>3.6</speed>
<course>130.3</course>
<desc>Speed 3.6 km/h Distance 1.98 km</desc>
<time>2010-02-24T17:36:49.61</time>
<name>1875</name>
</trkpt>
<trkpt lat="48.933977" lon="8.646443">
<ele>358.5</ele>
<speed>3.9</speed>
<course>121.4</course>
<desc>Speed 3.9 km/h Distance 1.98 km</desc>
<time>2010-02-24T17:36:50.61</time>
<name>1876</name>
</trkpt>
<trkpt lat="48.933970" lon="8.646460">
<ele>358.5</ele>
<speed>3.8</speed>
<course>114.5</course>
<desc>Speed 3.8 km/h Distance 1.99 km</desc>
<time>2010-02-24T17:36:51.61</time>
<name>1877</name>
</trkpt>
<trkpt lat="48.933965" lon="8.646477">
<ele>359.0</ele>
<speed>3.9</speed>
<course>108.7</course>
<desc>Speed 3.9 km/h Distance 1.99 km</desc>
<time>2010-02-24T17:36:52.61</time>
<name>1878</name>
</trkpt>
<trkpt lat="48.933962" lon="8.646492">
<ele>358.5</ele>
<speed>3.4</speed>
<course>108.7</course>
<desc>Speed 3.4 km/h Distance 1.99 km</desc>
<time>2010-02-24T17:36:53.61</time>
<name>1879</name>
</trkpt>
<trkpt lat="48.933958" lon="8.646507">
<ele>358.5</ele>
<speed>3.4</speed>
<course>116.9</course>
<desc>Speed 3.4 km/h Distance 1.99 km</desc>
<time>2010-02-24T17:36:54.61</time>
<name>1880</name>
</trkpt>
<trkpt lat="48.933953" lon="8.646522">
<ele>358.5</ele>
<speed>3.3</speed>
<course>130.1</course>
<desc>Speed 3.3 km/h Distance 1.99 km</desc>
<time>2010-02-24T17:36:55.61</time>
<name>1881</name>
</trkpt>
<trkpt lat="48.933945" lon="8.646537">
<ele>359.0</ele>
<speed>4.6</speed>
<course>124.1</course>
<desc>Speed 4.6 km/h Distance 1.99 km</desc>
<time>2010-02-24T17:36:56.61</time>
<name>1882</name>
</trkpt>
<trkpt lat="48.933938" lon="8.646552">
<ele>359.0</ele>
<speed>4.1</speed>
<course>107.0</course>
<desc>Speed 4.1 km/h Distance 1.99 km</desc>
<time>2010-02-24T17:36:57.61</time>
<name>1883</name>
</trkpt>
<trkpt lat="48.933935" lon="8.646568">
<ele>359.5</ele>
<speed>3.9</speed>
<course>112.5</course>
<desc>Speed 3.9 km/h Distance 2.00 km</desc>
<time>2010-02-24T17:36:58.61</time>
<name>1884</name>
</trkpt>
<trkpt lat="48.933930" lon="8.646587">
<ele>359.5</ele>
<speed>4.4</speed>
<course>116.9</course>
<desc>Speed 4.4 km/h Distance 2.00 km</desc>
<time>2010-02-24T17:36:59.61</time>
<name>1885</name>
</trkpt>
<trkpt lat="48.933923" lon="8.646607">
<ele>360.0</ele>
<speed>4.5</speed>
<course>106.9</course>
<desc>Speed 4.5 km/h Distance 2.00 km</desc>
<time>2010-02-24T17:37:00.61</time>
<name>1886</name>
</trkpt>
<trkpt lat="48.933920" lon="8.646623">
<ele>360.0</ele>
<speed>4.3</speed>
<course>107.0</course>
<desc>Speed 4.3 km/h Distance 2.00 km</desc>
<time>2010-02-24T17:37:01.61</time>
<name>1887</name>
</trkpt>
<trkpt lat="48.933917" lon="8.646640">
<ele>360.5</ele>
<speed>4.1</speed>
<course>114.5</course>
<desc>Speed 4.1 km/h Distance 2.00 km</desc>
<time>2010-02-24T17:37:02.61</time>
<name>1888</name>
</trkpt>
<trkpt lat="48.933912" lon="8.646657">
<ele>361.0</ele>
<speed>3.9</speed>
<course>124.1</course>
<desc>Speed 3.9 km/h Distance 2.00 km</desc>
<time>2010-02-24T17:37:03.61</time>
<name>1889</name>
</trkpt>
<trkpt lat="48.933905" lon="8.646672">
<ele>361.0</ele>
<speed>4.1</speed>
<course>127.2</course>
<desc>Speed 4.1 km/h Distance 2.00 km</desc>
<time>2010-02-24T17:37:04.61</time>
<name>1890</name>
</trkpt>
<trkpt lat="48.933900" lon="8.646682">
<ele>361.0</ele>
<speed>3.1</speed>
<course>119.7</course>
<desc>Speed 3.1 km/h Distance 2.00 km</desc>
<time>2010-02-24T17:37:05.61</time>
<name>1891</name>
</trkpt>
<trkpt lat="48.933895" lon="8.646695">
<ele>361.0</ele>
<speed>3.2</speed>
<course>100.7</course>
<desc>Speed 3.2 km/h Distance 2.01 km</desc>
<time>2010-02-24T17:37:06.61</time>
<name>1892</name>
</trkpt>
<trkpt lat="48.933893" lon="8.646708">
<ele>361.0</ele>
<speed>2.8</speed>
<course>137.4</course>
<desc>Speed 2.8 km/h Distance 2.01 km</desc>
<time>2010-02-24T17:37:07.61</time>
<name>1893</name>
</trkpt>
<trkpt lat="48.933885" lon="8.646720">
<ele>361.0</ele>
<speed>3.4</speed>
<course>127.3</course>
<desc>Speed 3.4 km/h Distance 2.01 km</desc>
<time>2010-02-24T17:37:08.61</time>
<name>1894</name>
</trkpt>
<trkpt lat="48.933878" lon="8.646733">
<ele>361.5</ele>
<speed>3.5</speed>
<course>113.5</course>
<desc>Speed 3.5 km/h Distance 2.01 km</desc>
<time>2010-02-24T17:37:09.61</time>
<name>1895</name>
</trkpt>
<trkpt lat="48.933875" lon="8.646745">
<ele>361.5</ele>
<speed>3.0</speed>
<course>113.5</course>
<desc>Speed 3.0 km/h Distance 2.01 km</desc>
<time>2010-02-24T17:37:10.61</time>
<name>1896</name>
</trkpt>
<trkpt lat="48.933872" lon="8.646757">
<ele>361.5</ele>
<speed>3.0</speed>
<course>119.7</course>
<desc>Speed 3.0 km/h Distance 2.01 km</desc>
<time>2010-02-24T17:37:11.61</time>
<name>1897</name>
</trkpt>
<trkpt lat="48.933867" lon="8.646770">
<ele>361.5</ele>
<speed>3.3</speed>
<course>127.3</course>
<desc>Speed 3.3 km/h Distance 2.01 km</desc>
<time>2010-02-24T17:37:12.61</time>
<name>1898</name>
</trkpt>
<trkpt lat="48.933858" lon="8.646787">
<ele>361.5</ele>
<speed>4.2</speed>
<course>114.5</course>
<desc>Speed 4.2 km/h Distance 2.01 km</desc>
<time>2010-02-24T17:37:13.61</time>
<name>1899</name>
</trkpt>
<trkpt lat="48.933853" lon="8.646803">
<ele>362.0</ele>
<speed>4.1</speed>
<course>108.7</course>
<desc>Speed 4.1 km/h Distance 2.01 km</desc>
<time>2010-02-24T17:37:14.61</time>
<name>1900</name>
</trkpt>
<trkpt lat="48.933850" lon="8.646818">
<ele>362.0</ele>
<speed>3.3</speed>
<course>119.0</course>
<desc>Speed 3.3 km/h Distance 2.02 km</desc>
<time>2010-02-24T17:37:15.61</time>
<name>1901</name>
</trkpt>
<trkpt lat="48.933843" lon="8.646837">
<ele>362.5</ele>
<speed>4.2</speed>
<course>116.9</course>
<desc>Speed 4.2 km/h Distance 2.02 km</desc>
<time>2010-02-24T17:37:16.61</time>
<name>1902</name>
</trkpt>
<trkpt lat="48.933838" lon="8.646852">
<ele>362.5</ele>
<speed>3.7</speed>
<course>127.3</course>
<desc>Speed 3.7 km/h Distance 2.02 km</desc>
<time>2010-02-24T17:37:17.61</time>
<name>1903</name>
</trkpt>
<trkpt lat="48.933832" lon="8.646865">
<ele>363.0</ele>
<speed>4.1</speed>
<course>121.3</course>
<desc>Speed 4.1 km/h Distance 2.02 km</desc>
<time>2010-02-24T17:37:18.61</time>
<name>1904</name>
</trkpt>
<trkpt lat="48.933825" lon="8.646882">
<ele>363.0</ele>
<speed>4.5</speed>
<course>123.1</course>
<desc>Speed 4.5 km/h Distance 2.02 km</desc>
<time>2010-02-24T17:37:19.61</time>
<name>1905</name>
</trkpt>
<trkpt lat="48.933820" lon="8.646893">
<ele>363.0</ele>
<speed>3.9</speed>
<course>117.0</course>
<desc>Speed 3.9 km/h Distance 2.02 km</desc>
<time>2010-02-24T17:37:20.61</time>
<name>1906</name>
</trkpt>
<trkpt lat="48.933817" lon="8.646903">
<ele>363.0</ele>
<speed>2.9</speed>
<course>99.6</course>
<desc>Speed 2.9 km/h Distance 2.02 km</desc>
<time>2010-02-24T17:37:21.61</time>
<name>1907</name>
</trkpt>
<trkpt lat="48.933815" lon="8.646918">
<ele>363.0</ele>
<speed>3.4</speed>
<course>116.9</course>
<desc>Speed 3.4 km/h Distance 2.02 km</desc>
<time>2010-02-24T17:37:22.61</time>
<name>1908</name>
</trkpt>
<trkpt lat="48.933810" lon="8.646933">
<ele>363.0</ele>
<speed>3.7</speed>
<course>127.2</course>
<desc>Speed 3.7 km/h Distance 2.03 km</desc>
<time>2010-02-24T17:37:23.61</time>
<name>1909</name>
</trkpt>
<trkpt lat="48.933805" lon="8.646943">
<ele>363.0</ele>
<speed>3.6</speed>
<course>124.0</course>
<desc>Speed 3.6 km/h Distance 2.03 km</desc>
<time>2010-02-24T17:37:24.61</time>
<name>1910</name>
</trkpt>
<trkpt lat="48.933798" lon="8.646958">
<ele>363.0</ele>
<speed>3.4</speed>
<course>132.2</course>
<desc>Speed 3.4 km/h Distance 2.03 km</desc>
<time>2010-02-24T17:37:25.61</time>
<name>1911</name>
</trkpt>
<trkpt lat="48.933793" lon="8.646967">
<ele>362.5</ele>
<speed>2.5</speed>
<course>127.3</course>
<desc>Speed 2.5 km/h Distance 2.03 km</desc>
<time>2010-02-24T17:37:26.61</time>
<name>1912</name>
</trkpt>
<trkpt lat="48.933787" lon="8.646980">
<ele>362.5</ele>
<speed>3.1</speed>
<course>116.9</course>
<desc>Speed 3.1 km/h Distance 2.03 km</desc>
<time>2010-02-24T17:37:27.61</time>
<name>1913</name>
</trkpt>
<trkpt lat="48.933782" lon="8.646995">
<ele>362.5</ele>
<speed>2.7</speed>
<course>104.1</course>
<desc>Speed 2.7 km/h Distance 2.03 km</desc>
<time>2010-02-24T17:37:28.61</time>
<name>1914</name>
</trkpt>
<trkpt lat="48.933780" lon="8.647005">
<ele>363.0</ele>
<speed>2.3</speed>
<course>133.5</course>
<desc>Speed 2.3 km/h Distance 2.03 km</desc>
<time>2010-02-24T17:37:29.61</time>
<name>1915</name>
</trkpt>
<trkpt lat="48.933772" lon="8.647018">
<ele>363.5</ele>
<speed>4.3</speed>
<course>141.4</course>
<desc>Speed 4.3 km/h Distance 2.03 km</desc>
<time>2010-02-24T17:37:30.61</time>
<name>1916</name>
</trkpt>
<trkpt lat="48.933763" lon="8.647028">
<ele>363.5</ele>
<speed>3.3</speed>
<course>138.1</course>
<desc>Speed 3.3 km/h Distance 2.03 km</desc>
<time>2010-02-24T17:37:31.61</time>
<name>1917</name>
</trkpt>
<trkpt lat="48.933758" lon="8.647035">
<ele>364.0</ele>
<speed>2.2</speed>
<course>123.1</course>
<desc>Speed 2.2 km/h Distance 2.04 km</desc>
<time>2010-02-24T17:37:32.61</time>
<name>1918</name>
</trkpt>
<trkpt lat="48.933753" lon="8.647047">
<ele>364.5</ele>
<speed>2.1</speed>
<course>90.0</course>
<desc>Speed 2.1 km/h Distance 2.04 km</desc>
<time>2010-02-24T17:37:33.61</time>
<name>1919</name>
</trkpt>
<trkpt lat="48.933753" lon="8.647058">
<ele>364.5</ele>
<speed>2.4</speed>
<course>90.0</course>
<desc>Speed 2.4 km/h Distance 2.04 km</desc>
<time>2010-02-24T17:37:34.61</time>
<name>1920</name>
</trkpt>
<trkpt lat="48.933753" lon="8.647068">
<ele>364.0</ele>
<speed>2.4</speed>
<course>135.5</course>
<desc>Speed 2.4 km/h Distance 2.04 km</desc>
<time>2010-02-24T17:37:35.61</time>
<name>1921</name>
</trkpt>
<trkpt lat="48.933747" lon="8.647078">
<ele>364.0</ele>
<speed>3.0</speed>
<course>104.1</course>
<desc>Speed 3.0 km/h Distance 2.04 km</desc>
<time>2010-02-24T17:37:36.61</time>
<name>1922</name>
</trkpt>
<trkpt lat="48.933745" lon="8.647088">
<ele>364.0</ele>
<speed>2.5</speed>
<course>135.5</course>
<desc>Speed 2.5 km/h Distance 2.04 km</desc>
<time>2010-02-24T17:37:37.61</time>
<name>1923</name>
</trkpt>
<trkpt lat="48.933742" lon="8.647093">
<ele>364.0</ele>
<speed>1.6</speed>
<course>90.0</course>
<desc>Speed 1.6 km/h Distance 2.04 km</desc>
<time>2010-02-24T17:37:38.61</time>
<name>1924</name>
</trkpt>
<trkpt lat="48.933742" lon="8.647095">
<ele>364.0</ele>
<speed>0.5</speed>
<course>142.8</course>
<desc>Speed 0.5 km/h Distance 2.04 km</desc>
<time>2010-02-24T17:37:39.61</time>
<name>1925</name>
</trkpt>
<trkpt lat="48.933740" lon="8.647097">
<ele>364.5</ele>
<speed>0.3</speed>
<course>142.8</course>
<desc>Speed 0.3 km/h Distance 2.04 km</desc>
<time>2010-02-24T17:37:40.61</time>
<name>1926</name>
</trkpt>
<trkpt lat="48.933738" lon="8.647098">
<ele>364.5</ele>
<speed>0.4</speed>
<course>37.2</course>
<desc>Speed 0.4 km/h Distance 2.04 km</desc>
<time>2010-02-24T17:37:41.61</time>
<name>1927</name>
</trkpt>
<trkpt lat="48.933740" lon="8.647100">
<ele>364.5</ele>
<speed>0.2</speed>
<course>37.2</course>
<desc>Speed 0.2 km/h Distance 2.04 km</desc>
<time>2010-02-24T17:37:42.61</time>
<name>1928</name>
</trkpt>
<trkpt lat="48.933740" lon="8.647100">
<ele>365.0</ele>
<speed>0.1</speed>
<course>37.2</course>
<desc>Speed 0.1 km/h Distance 2.04 km</desc>
<time>2010-02-24T17:37:43.61</time>
<name>1929</name>
</trkpt>
<trkpt lat="48.933740" lon="8.647100">
<ele>365.0</ele>
<speed>0.3</speed>
<course>90.0</course>
<desc>Speed 0.3 km/h Distance 2.04 km</desc>
<time>2010-02-24T17:37:44.61</time>
<name>1930</name>
</trkpt>
<trkpt lat="48.933740" lon="8.647102">
<ele>365.0</ele>
<speed>0.1</speed>
<course>90.0</course>
<desc>Speed 0.1 km/h Distance 2.04 km</desc>
<time>2010-02-24T17:37:45.61</time>
<name>1931</name>
</trkpt>
<trkpt lat="48.933740" lon="8.647102">
<ele>365.0</ele>
<speed>0.2</speed>
<course>90.0</course>
<desc>Speed 0.2 km/h Distance 2.04 km</desc>
<time>2010-02-24T17:37:46.61</time>
<name>1932</name>
</trkpt>
<trkpt lat="48.933740" lon="8.647102">
<ele>365.0</ele>
<speed>0.2</speed>
<course>90.0</course>
<desc>Speed 0.2 km/h Distance 2.04 km</desc>
<time>2010-02-24T17:37:47.61</time>
<name>1933</name>
</trkpt>
<trkpt lat="48.933740" lon="8.647103">
<ele>365.0</ele>
<speed>0.2</speed>
<course>90.0</course>
<desc>Speed 0.2 km/h Distance 2.04 km</desc>
<time>2010-02-24T17:37:48.61</time>
<name>1934</name>
</trkpt>
<trkpt lat="48.933740" lon="8.647103">
<ele>365.0</ele>
<speed>0.1</speed>
<course>117.4</course>
<desc>Speed 0.1 km/h Distance 2.04 km</desc>
<time>2010-02-24T17:37:49.61</time>
<name>1935</name>
</trkpt>
<trkpt lat="48.933738" lon="8.647108">
<ele>365.0</ele>
<speed>1.1</speed>
<course>106.9</course>
<desc>Speed 1.1 km/h Distance 2.04 km</desc>
<time>2010-02-24T17:37:50.61</time>
<name>1936</name>
</trkpt>
<trkpt lat="48.933737" lon="8.647117">
<ele>365.0</ele>
<speed>2.3</speed>
<course>110.9</course>
<desc>Speed 2.3 km/h Distance 2.04 km</desc>
<time>2010-02-24T17:37:51.61</time>
<name>1937</name>
</trkpt>
<trkpt lat="48.933733" lon="8.647130">
<ele>365.0</ele>
<speed>3.1</speed>
<course>116.9</course>
<desc>Speed 3.1 km/h Distance 2.04 km</desc>
<time>2010-02-24T17:37:52.61</time>
<name>1938</name>
</trkpt>
<trkpt lat="48.933728" lon="8.647145">
<ele>364.5</ele>
<speed>4.2</speed>
<course>121.4</course>
<desc>Speed 4.2 km/h Distance 2.04 km</desc>
<time>2010-02-24T17:37:53.61</time>
<name>1939</name>
</trkpt>
<trkpt lat="48.933722" lon="8.647162">
<ele>364.5</ele>
<speed>4.7</speed>
<course>127.3</course>
<desc>Speed 4.7 km/h Distance 2.05 km</desc>
<time>2010-02-24T17:37:54.61</time>
<name>1940</name>
</trkpt>
<trkpt lat="48.933715" lon="8.647175">
<ele>364.5</ele>
<speed>4.6</speed>
<course>130.3</course>
<desc>Speed 4.6 km/h Distance 2.05 km</desc>
<time>2010-02-24T17:37:55.61</time>
<name>1941</name>
</trkpt>
<trkpt lat="48.933707" lon="8.647190">
<ele>364.5</ele>
<speed>4.6</speed>
<course>127.3</course>
<desc>Speed 4.6 km/h Distance 2.05 km</desc>
<time>2010-02-24T17:37:56.61</time>
<name>1942</name>
</trkpt>
<trkpt lat="48.933700" lon="8.647203">
<ele>365.0</ele>
<speed>4.5</speed>
<course>119.8</course>
<desc>Speed 4.5 km/h Distance 2.05 km</desc>
<time>2010-02-24T17:37:57.61</time>
<name>1943</name>
</trkpt>
<trkpt lat="48.933695" lon="8.647217">
<ele>365.5</ele>
<speed>3.7</speed>
<course>116.9</course>
<desc>Speed 3.7 km/h Distance 2.05 km</desc>
<time>2010-02-24T17:37:58.61</time>
<name>1944</name>
</trkpt>
<trkpt lat="48.933690" lon="8.647232">
<ele>365.5</ele>
<speed>4.0</speed>
<course>113.5</course>
<desc>Speed 4.0 km/h Distance 2.05 km</desc>
<time>2010-02-24T17:37:59.61</time>
<name>1945</name>
</trkpt>
<trkpt lat="48.933687" lon="8.647243">
<ele>366.0</ele>
<speed>1.3</speed>
<course>128.1</course>
<desc>Speed 1.3 km/h Distance 2.05 km</desc>
<time>2010-02-24T17:38:00.61</time>
<name>1946</name>
</trkpt>
<trkpt lat="48.933685" lon="8.647247">
<ele>366.0</ele>
<speed>0.5</speed>
<course>146.3</course>
<desc>Speed 0.5 km/h Distance 2.05 km</desc>
<time>2010-02-24T17:38:01.61</time>
<name>1947</name>
</trkpt>
<trkpt lat="48.933682" lon="8.647250">
<ele>366.5</ele>
<speed>0.6</speed>
<course>128.1</course>
<desc>Speed 0.6 km/h Distance 2.05 km</desc>
<time>2010-02-24T17:38:02.61</time>
<name>1948</name>
</trkpt>
<trkpt lat="48.933680" lon="8.647253">
<ele>366.5</ele>
<speed>0.3</speed>
<course>90.0</course>
<desc>Speed 0.3 km/h Distance 2.05 km</desc>
<time>2010-02-24T17:38:03.61</time>
<name>1949</name>
</trkpt>
<trkpt lat="48.933680" lon="8.647258">
<ele>367.0</ele>
<speed>1.1</speed>
<course>146.3</course>
<desc>Speed 1.1 km/h Distance 2.05 km</desc>
<time>2010-02-24T17:38:04.61</time>
<name>1950</name>
</trkpt>
<trkpt lat="48.933673" lon="8.647265">
<ele>367.5</ele>
<speed>1.6</speed>
<course>117.0</course>
<desc>Speed 1.6 km/h Distance 2.06 km</desc>
<time>2010-02-24T17:38:05.61</time>
<name>1951</name>
</trkpt>
<trkpt lat="48.933670" lon="8.647275">
<ele>367.5</ele>
<speed>2.0</speed>
<course>122.9</course>
<desc>Speed 2.0 km/h Distance 2.06 km</desc>
<time>2010-02-24T17:38:06.61</time>
<name>1952</name>
</trkpt>
<trkpt lat="48.933665" lon="8.647287">
<ele>367.5</ele>
<speed>2.7</speed>
<course>100.8</course>
<desc>Speed 2.7 km/h Distance 2.06 km</desc>
<time>2010-02-24T17:38:07.61</time>
<name>1953</name>
</trkpt>
<trkpt lat="48.933663" lon="8.647300">
<ele>368.0</ele>
<speed>3.2</speed>
<course>100.7</course>
<desc>Speed 3.2 km/h Distance 2.06 km</desc>
<time>2010-02-24T17:38:08.61</time>
<name>1954</name>
</trkpt>
<trkpt lat="48.933662" lon="8.647313">
<ele>368.0</ele>
<speed>3.1</speed>
<course>113.5</course>
<desc>Speed 3.1 km/h Distance 2.06 km</desc>
<time>2010-02-24T17:38:09.61</time>
<name>1955</name>
</trkpt>
<trkpt lat="48.933658" lon="8.647325">
<ele>368.0</ele>
<speed>3.2</speed>
<course>90.0</course>
<desc>Speed 3.2 km/h Distance 2.06 km</desc>
<time>2010-02-24T17:38:10.61</time>
<name>1956</name>
</trkpt>
<trkpt lat="48.933658" lon="8.647335">
<ele>368.0</ele>
<speed>2.7</speed>
<course>110.9</course>
<desc>Speed 2.7 km/h Distance 2.06 km</desc>
<time>2010-02-24T17:38:11.61</time>
<name>1957</name>
</trkpt>
<trkpt lat="48.933655" lon="8.647348">
<ele>368.0</ele>
<speed>3.7</speed>
<course>116.9</course>
<desc>Speed 3.7 km/h Distance 2.06 km</desc>
<time>2010-02-24T17:38:12.61</time>
<name>1958</name>
</trkpt>
<trkpt lat="48.933650" lon="8.647363">
<ele>368.5</ele>
<speed>3.9</speed>
<course>119.8</course>
<desc>Speed 3.9 km/h Distance 2.06 km</desc>
<time>2010-02-24T17:38:13.61</time>
<name>1959</name>
</trkpt>
<trkpt lat="48.933645" lon="8.647377">
<ele>368.5</ele>
<speed>4.2</speed>
<course>116.9</course>
<desc>Speed 4.2 km/h Distance 2.06 km</desc>
<time>2010-02-24T17:38:14.61</time>
<name>1960</name>
</trkpt>
<trkpt lat="48.933640" lon="8.647392">
<ele>368.5</ele>
<speed>4.1</speed>
<course>123.3</course>
<desc>Speed 4.1 km/h Distance 2.07 km</desc>
<time>2010-02-24T17:38:15.61</time>
<name>1961</name>
</trkpt>
<trkpt lat="48.933635" lon="8.647403">
<ele>368.0</ele>
<speed>3.6</speed>
<course>113.5</course>
<desc>Speed 3.6 km/h Distance 2.07 km</desc>
<time>2010-02-24T17:38:16.61</time>
<name>1962</name>
</trkpt>
<trkpt lat="48.933632" lon="8.647415">
<ele>368.0</ele>
<speed>3.4</speed>
<course>110.8</course>
<desc>Speed 3.4 km/h Distance 2.07 km</desc>
<time>2010-02-24T17:38:17.61</time>
<name>1963</name>
</trkpt>
<trkpt lat="48.933628" lon="8.647428">
<ele>368.0</ele>
<speed>3.1</speed>
<course>108.7</course>
<desc>Speed 3.1 km/h Distance 2.07 km</desc>
<time>2010-02-24T17:38:18.61</time>
<name>1964</name>
</trkpt>
<trkpt lat="48.933625" lon="8.647443">
<ele>368.0</ele>
<speed>4.0</speed>
<course>124.1</course>
<desc>Speed 4.0 km/h Distance 2.07 km</desc>
<time>2010-02-24T17:38:19.61</time>
<name>1965</name>
</trkpt>
<trkpt lat="48.933618" lon="8.647458">
<ele>368.0</ele>
<speed>3.6</speed>
<course>113.5</course>
<desc>Speed 3.6 km/h Distance 2.07 km</desc>
<time>2010-02-24T17:38:20.61</time>
<name>1966</name>
</trkpt>
<trkpt lat="48.933615" lon="8.647470">
<ele>368.0</ele>
<speed>2.9</speed>
<course>104.4</course>
<desc>Speed 2.9 km/h Distance 2.07 km</desc>
<time>2010-02-24T17:38:21.61</time>
<name>1967</name>
</trkpt>
<trkpt lat="48.933613" lon="8.647480">
<ele>367.5</ele>
<speed>2.8</speed>
<course>124.7</course>
<desc>Speed 2.8 km/h Distance 2.07 km</desc>
<time>2010-02-24T17:38:22.61</time>
<name>1968</name>
</trkpt>
<trkpt lat="48.933605" lon="8.647498">
<ele>367.5</ele>
<speed>5.1</speed>
<course>116.9</course>
<desc>Speed 5.1 km/h Distance 2.07 km</desc>
<time>2010-02-24T17:38:23.61</time>
<name>1969</name>
</trkpt>
<trkpt lat="48.933600" lon="8.647513">
<ele>367.5</ele>
<speed>3.7</speed>
<course>113.7</course>
<desc>Speed 3.7 km/h Distance 2.08 km</desc>
<time>2010-02-24T17:38:24.61</time>
<name>1970</name>
</trkpt>
<trkpt lat="48.933597" lon="8.647525">
<ele>367.0</ele>
<speed>2.9</speed>
<course>100.7</course>
<desc>Speed 2.9 km/h Distance 2.08 km</desc>
<time>2010-02-24T17:38:25.61</time>
<name>1971</name>
</trkpt>
<trkpt lat="48.933595" lon="8.647538">
<ele>367.0</ele>
<speed>3.3</speed>
<course>90.0</course>
<desc>Speed 3.3 km/h Distance 2.08 km</desc>
<time>2010-02-24T17:38:26.61</time>
<name>1972</name>
</trkpt>
<trkpt lat="48.933595" lon="8.647552">
<ele>366.5</ele>
<speed>3.2</speed>
<course>99.6</course>
<desc>Speed 3.2 km/h Distance 2.08 km</desc>
<time>2010-02-24T17:38:27.61</time>
<name>1973</name>
</trkpt>
<trkpt lat="48.933593" lon="8.647567">
<ele>366.5</ele>
<speed>3.3</speed>
<course>77.7</course>
<desc>Speed 3.3 km/h Distance 2.08 km</desc>
<time>2010-02-24T17:38:28.61</time>
<name>1974</name>
</trkpt>
<trkpt lat="48.933595" lon="8.647578">
<ele>366.5</ele>
<speed>2.9</speed>
<course>79.3</course>
<desc>Speed 2.9 km/h Distance 2.08 km</desc>
<time>2010-02-24T17:38:30.62</time>
<name>1975</name>
</trkpt>
<trkpt lat="48.933597" lon="8.647592">
<ele>366.0</ele>
<speed>3.0</speed>
<course>69.1</course>
<desc>Speed 3.0 km/h Distance 2.08 km</desc>
<time>2010-02-24T17:38:31.61</time>
<name>1976</name>
</trkpt>
<trkpt lat="48.933600" lon="8.647605">
<ele>366.0</ele>
<speed>3.4</speed>
<course>71.3</course>
<desc>Speed 3.4 km/h Distance 2.08 km</desc>
<time>2010-02-24T17:38:32.61</time>
<name>1977</name>
</trkpt>
<trkpt lat="48.933603" lon="8.647620">
<ele>366.0</ele>
<speed>4.0</speed>
<course>63.1</course>
<desc>Speed 4.0 km/h Distance 2.08 km</desc>
<time>2010-02-24T17:38:33.61</time>
<name>1978</name>
</trkpt>
<trkpt lat="48.933608" lon="8.647635">
<ele>366.0</ele>
<speed>4.1</speed>
<course>63.1</course>
<desc>Speed 4.1 km/h Distance 2.08 km</desc>
<time>2010-02-24T17:38:34.61</time>
<name>1979</name>
</trkpt>
<trkpt lat="48.933613" lon="8.647650">
<ele>366.0</ele>
<speed>4.0</speed>
<course>56.7</course>
<desc>Speed 4.0 km/h Distance 2.09 km</desc>
<time>2010-02-24T17:38:35.61</time>
<name>1980</name>
</trkpt>
<trkpt lat="48.933618" lon="8.647662">
<ele>366.0</ele>
<speed>3.7</speed>
<course>60.3</course>
<desc>Speed 3.7 km/h Distance 2.09 km</desc>
<time>2010-02-24T17:38:36.61</time>
<name>1981</name>
</trkpt>
<trkpt lat="48.933623" lon="8.647675">
<ele>366.0</ele>
<speed>3.6</speed>
<course>57.1</course>
<desc>Speed 3.6 km/h Distance 2.09 km</desc>
<time>2010-02-24T17:38:37.61</time>
<name>1982</name>
</trkpt>
<trkpt lat="48.933628" lon="8.647687">
<ele>366.0</ele>
<speed>3.7</speed>
<course>80.4</course>
<desc>Speed 3.7 km/h Distance 2.09 km</desc>
<time>2010-02-24T17:38:38.61</time>
<name>1983</name>
</trkpt>
<trkpt lat="48.933630" lon="8.647702">
<ele>366.0</ele>
<speed>3.6</speed>
<course>66.5</course>
<desc>Speed 3.6 km/h Distance 2.09 km</desc>
<time>2010-02-24T17:38:39.61</time>
<name>1984</name>
</trkpt>
<trkpt lat="48.933633" lon="8.647713">
<ele>366.0</ele>
<speed>3.2</speed>
<course>69.1</course>
<desc>Speed 3.2 km/h Distance 2.09 km</desc>
<time>2010-02-24T17:38:40.61</time>
<name>1985</name>
</trkpt>
<trkpt lat="48.933637" lon="8.647727">
<ele>366.0</ele>
<speed>3.1</speed>
<course>52.7</course>
<desc>Speed 3.1 km/h Distance 2.09 km</desc>
<time>2010-02-24T17:38:41.61</time>
<name>1986</name>
</trkpt>
<trkpt lat="48.933643" lon="8.647740">
<ele>366.0</ele>
<speed>4.6</speed>
<course>55.9</course>
<desc>Speed 4.6 km/h Distance 2.09 km</desc>
<time>2010-02-24T17:38:42.61</time>
<name>1987</name>
</trkpt>
<trkpt lat="48.933650" lon="8.647755">
<ele>366.0</ele>
<speed>3.8</speed>
<course>99.6</course>
<desc>Speed 3.8 km/h Distance 2.09 km</desc>
<time>2010-02-24T17:38:43.61</time>
<name>1988</name>
</trkpt>
<trkpt lat="48.933648" lon="8.647770">
<ele>366.0</ele>
<speed>3.5</speed>
<course>114.6</course>
<desc>Speed 3.5 km/h Distance 2.10 km</desc>
<time>2010-02-24T17:38:44.61</time>
<name>1989</name>
</trkpt>
<trkpt lat="48.933643" lon="8.647787">
<ele>365.5</ele>
<speed>4.2</speed>
<course>132.6</course>
<desc>Speed 4.2 km/h Distance 2.10 km</desc>
<time>2010-02-24T17:38:45.61</time>
<name>1990</name>
</trkpt>
<trkpt lat="48.933638" lon="8.647795">
<ele>365.0</ele>
<speed>3.1</speed>
<course>104.4</course>
<desc>Speed 3.1 km/h Distance 2.10 km</desc>
<time>2010-02-24T17:38:46.61</time>
<name>1991</name>
</trkpt>
<trkpt lat="48.933637" lon="8.647805">
<ele>364.5</ele>
<speed>1.7</speed>
<course>90.0</course>
<desc>Speed 1.7 km/h Distance 2.10 km</desc>
<time>2010-02-24T17:38:47.61</time>
<name>1992</name>
</trkpt>
<trkpt lat="48.933637" lon="8.647820">
<ele>365.0</ele>
<speed>3.5</speed>
<course>108.7</course>
<desc>Speed 3.5 km/h Distance 2.10 km</desc>
<time>2010-02-24T17:38:48.61</time>
<name>1993</name>
</trkpt>
<trkpt lat="48.933633" lon="8.647835">
<ele>364.5</ele>
<speed>2.8</speed>
<course>130.9</course>
<desc>Speed 2.8 km/h Distance 2.10 km</desc>
<time>2010-02-24T17:38:49.61</time>
<name>1994</name>
</trkpt>
<trkpt lat="48.933627" lon="8.647847">
<ele>364.0</ele>
<speed>2.9</speed>
<course>107.1</course>
<desc>Speed 2.9 km/h Distance 2.10 km</desc>
<time>2010-02-24T17:38:50.61</time>
<name>1995</name>
</trkpt>
<trkpt lat="48.933625" lon="8.647855">
<ele>363.5</ele>
<speed>1.9</speed>
<course>140.6</course>
<desc>Speed 1.9 km/h Distance 2.10 km</desc>
<time>2010-02-24T17:38:51.61</time>
<name>1996</name>
</trkpt>
<trkpt lat="48.933618" lon="8.647863">
<ele>363.0</ele>
<speed>2.5</speed>
<course>121.4</course>
<desc>Speed 2.5 km/h Distance 2.10 km</desc>
<time>2010-02-24T17:38:52.61</time>
<name>1997</name>
</trkpt>
<trkpt lat="48.933615" lon="8.647872">
<ele>363.0</ele>
<speed>1.9</speed>
<course>52.8</course>
<desc>Speed 1.9 km/h Distance 2.10 km</desc>
<time>2010-02-24T17:38:53.61</time>
<name>1998</name>
</trkpt>
<trkpt lat="48.933620" lon="8.647882">
<ele>362.5</ele>
<speed>3.1</speed>
<course>52.8</course>
<desc>Speed 3.1 km/h Distance 2.11 km</desc>
<time>2010-02-24T17:38:54.61</time>
<name>1999</name>
</trkpt>
<trkpt lat="48.933625" lon="8.647892">
<ele>362.5</ele>
<speed>3.9</speed>
<course>77.7</course>
<desc>Speed 3.9 km/h Distance 2.11 km</desc>
<time>2010-02-24T17:38:55.61</time>
<name>2000</name>
</trkpt>
<trkpt lat="48.933627" lon="8.647903">
<ele>362.5</ele>
<speed>2.8</speed>
<course>52.8</course>
<desc>Speed 2.8 km/h Distance 2.11 km</desc>
<time>2010-02-24T17:38:56.61</time>
<name>2001</name>
</trkpt>
<trkpt lat="48.933632" lon="8.647913">
<ele>362.5</ele>
<speed>3.5</speed>
<course>71.4</course>
<desc>Speed 3.5 km/h Distance 2.11 km</desc>
<time>2010-02-24T17:38:57.61</time>
<name>2002</name>
</trkpt>
<trkpt lat="48.933635" lon="8.647928">
<ele>362.5</ele>
<speed>4.0</speed>
<course>71.3</course>
<desc>Speed 4.0 km/h Distance 2.11 km</desc>
<time>2010-02-24T17:38:58.61</time>
<name>2003</name>
</trkpt>
<trkpt lat="48.933638" lon="8.647943">
<ele>362.5</ele>
<speed>4.4</speed>
<course>81.3</course>
<desc>Speed 4.4 km/h Distance 2.11 km</desc>
<time>2010-02-24T17:38:59.61</time>
<name>2004</name>
</trkpt>
<trkpt lat="48.933640" lon="8.647960">
<ele>363.0</ele>
<speed>4.0</speed>
<course>63.1</course>
<desc>Speed 4.0 km/h Distance 2.11 km</desc>
<time>2010-02-24T17:39:00.61</time>
<name>2005</name>
</trkpt>
<trkpt lat="48.933645" lon="8.647975">
<ele>363.0</ele>
<speed>4.0</speed>
<course>71.3</course>
<desc>Speed 4.0 km/h Distance 2.11 km</desc>
<time>2010-02-24T17:39:01.61</time>
<name>2006</name>
</trkpt>
<trkpt lat="48.933648" lon="8.647990">
<ele>363.0</ele>
<speed>3.9</speed>
<course>71.3</course>
<desc>Speed 3.9 km/h Distance 2.11 km</desc>
<time>2010-02-24T17:39:02.61</time>
<name>2007</name>
</trkpt>
<trkpt lat="48.933652" lon="8.648005">
<ele>363.0</ele>
<speed>4.1</speed>
<course>73.0</course>
<desc>Speed 4.1 km/h Distance 2.12 km</desc>
<time>2010-02-24T17:39:03.61</time>
<name>2008</name>
</trkpt>
<trkpt lat="48.933655" lon="8.648022">
<ele>363.5</ele>
<speed>4.4</speed>
<course>73.0</course>
<desc>Speed 4.4 km/h Distance 2.12 km</desc>
<time>2010-02-24T17:39:04.61</time>
<name>2009</name>
</trkpt>
<trkpt lat="48.933658" lon="8.648038">
<ele>363.5</ele>
<speed>4.1</speed>
<course>90.0</course>
<desc>Speed 4.1 km/h Distance 2.12 km</desc>
<time>2010-02-24T17:39:05.61</time>
<name>2010</name>
</trkpt>
<trkpt lat="48.933658" lon="8.648053">
<ele>363.5</ele>
<speed>3.5</speed>
<course>63.0</course>
<desc>Speed 3.5 km/h Distance 2.12 km</desc>
<time>2010-02-24T17:39:06.61</time>
<name>2011</name>
</trkpt>
<trkpt lat="48.933663" lon="8.648068">
<ele>363.5</ele>
<speed>4.1</speed>
<course>58.6</course>
<desc>Speed 4.1 km/h Distance 2.12 km</desc>
<time>2010-02-24T17:39:07.61</time>
<name>2012</name>
</trkpt>
<trkpt lat="48.933670" lon="8.648085">
<ele>363.5</ele>
<speed>5.1</speed>
<course>66.5</course>
<desc>Speed 5.1 km/h Distance 2.12 km</desc>
<time>2010-02-24T17:39:08.61</time>
<name>2013</name>
</trkpt>
<trkpt lat="48.933673" lon="8.648097">
<ele>363.5</ele>
<speed>3.5</speed>
<course>71.3</course>
<desc>Speed 3.5 km/h Distance 2.12 km</desc>
<time>2010-02-24T17:39:09.61</time>
<name>2014</name>
</trkpt>
<trkpt lat="48.933677" lon="8.648112">
<ele>364.0</ele>
<speed>4.2</speed>
<course>65.5</course>
<desc>Speed 4.2 km/h Distance 2.12 km</desc>
<time>2010-02-24T17:39:10.61</time>
<name>2015</name>
</trkpt>
<trkpt lat="48.933682" lon="8.648128">
<ele>364.0</ele>
<speed>4.3</speed>
<course>67.4</course>
<desc>Speed 4.3 km/h Distance 2.12 km</desc>
<time>2010-02-24T17:39:11.61</time>
<name>2016</name>
</trkpt>
<trkpt lat="48.933687" lon="8.648147">
<ele>364.0</ele>
<speed>4.5</speed>
<course>80.4</course>
<desc>Speed 4.5 km/h Distance 2.13 km</desc>
<time>2010-02-24T17:39:12.61</time>
<name>2017</name>
</trkpt>
<trkpt lat="48.933688" lon="8.648162">
<ele>364.0</ele>
<speed>4.1</speed>
<course>90.0</course>
<desc>Speed 4.1 km/h Distance 2.13 km</desc>
<time>2010-02-24T17:39:13.61</time>
<name>2018</name>
</trkpt>
<trkpt lat="48.933688" lon="8.648177">
<ele>364.5</ele>
<speed>3.5</speed>
<course>90.0</course>
<desc>Speed 3.5 km/h Distance 2.13 km</desc>
<time>2010-02-24T17:39:14.61</time>
<name>2019</name>
</trkpt>
<trkpt lat="48.933688" lon="8.648193">
<ele>365.0</ele>
<speed>3.9</speed>
<course>81.3</course>
<desc>Speed 3.9 km/h Distance 2.13 km</desc>
<time>2010-02-24T17:39:15.61</time>
<name>2020</name>
</trkpt>
<trkpt lat="48.933690" lon="8.648210">
<ele>365.0</ele>
<speed>4.3</speed>
<course>69.2</course>
<desc>Speed 4.3 km/h Distance 2.13 km</desc>
<time>2010-02-24T17:39:16.61</time>
<name>2021</name>
</trkpt>
<trkpt lat="48.933695" lon="8.648230">
<ele>365.5</ele>
<speed>4.2</speed>
<course>98.7</course>
<desc>Speed 4.2 km/h Distance 2.13 km</desc>
<time>2010-02-24T17:39:17.61</time>
<name>2022</name>
</trkpt>
<trkpt lat="48.933693" lon="8.648247">
<ele>365.5</ele>
<speed>4.3</speed>
<course>106.9</course>
<desc>Speed 4.3 km/h Distance 2.13 km</desc>
<time>2010-02-24T17:39:18.61</time>
<name>2023</name>
</trkpt>
<trkpt lat="48.933690" lon="8.648263">
<ele>366.0</ele>
<speed>4.3</speed>
<course>105.5</course>
<desc>Speed 4.3 km/h Distance 2.14 km</desc>
<time>2010-02-24T17:39:19.61</time>
<name>2024</name>
</trkpt>
<trkpt lat="48.933687" lon="8.648282">
<ele>366.0</ele>
<speed>4.9</speed>
<course>105.5</course>
<desc>Speed 4.9 km/h Distance 2.14 km</desc>
<time>2010-02-24T17:39:20.61</time>
<name>2025</name>
</trkpt>
<trkpt lat="48.933683" lon="8.648300">
<ele>366.0</ele>
<speed>4.9</speed>
<course>98.7</course>
<desc>Speed 4.9 km/h Distance 2.14 km</desc>
<time>2010-02-24T17:39:21.61</time>
<name>2026</name>
</trkpt>
<trkpt lat="48.933682" lon="8.648317">
<ele>366.5</ele>
<speed>4.0</speed>
<course>110.9</course>
<desc>Speed 4.0 km/h Distance 2.14 km</desc>
<time>2010-02-24T17:39:22.61</time>
<name>2027</name>
</trkpt>
<trkpt lat="48.933678" lon="8.648330">
<ele>366.5</ele>
<speed>3.7</speed>
<course>106.9</course>
<desc>Speed 3.7 km/h Distance 2.14 km</desc>
<time>2010-02-24T17:39:23.61</time>
<name>2028</name>
</trkpt>
<trkpt lat="48.933675" lon="8.648347">
<ele>366.5</ele>
<speed>4.6</speed>
<course>127.2</course>
<desc>Speed 4.6 km/h Distance 2.14 km</desc>
<time>2010-02-24T17:39:24.61</time>
<name>2029</name>
</trkpt>
<trkpt lat="48.933670" lon="8.648357">
<ele>367.0</ele>
<speed>3.0</speed>
<course>98.7</course>
<desc>Speed 3.0 km/h Distance 2.14 km</desc>
<time>2010-02-24T17:39:25.61</time>
<name>2030</name>
</trkpt>
<trkpt lat="48.933668" lon="8.648373">
<ele>367.0</ele>
<speed>3.5</speed>
<course>121.3</course>
<desc>Speed 3.5 km/h Distance 2.14 km</desc>
<time>2010-02-24T17:39:26.61</time>
<name>2031</name>
</trkpt>
<trkpt lat="48.933662" lon="8.648390">
<ele>367.5</ele>
<speed>5.0</speed>
<course>100.7</course>
<desc>Speed 5.0 km/h Distance 2.14 km</desc>
<time>2010-02-24T17:39:27.61</time>
<name>2032</name>
</trkpt>
<trkpt lat="48.933660" lon="8.648403">
<ele>367.5</ele>
<speed>3.7</speed>
<course>110.9</course>
<desc>Speed 3.7 km/h Distance 2.15 km</desc>
<time>2010-02-24T17:39:28.61</time>
<name>2033</name>
</trkpt>
<trkpt lat="48.933658" lon="8.648410">
<ele>367.5</ele>
<speed>1.8</speed>
<course>110.9</course>
<desc>Speed 1.8 km/h Distance 2.15 km</desc>
<time>2010-02-24T17:39:29.61</time>
<name>2034</name>
</trkpt>
<trkpt lat="48.933658" lon="8.648412">
<ele>367.5</ele>
<speed>0.3</speed>
<course>12.6</course>
<desc>Speed 0.3 km/h Distance 2.15 km</desc>
<time>2010-02-24T17:39:30.61</time>
<name>2035</name>
</trkpt>
<trkpt lat="48.933660" lon="8.648412">
<ele>367.5</ele>
<speed>0.1</speed>
<course>90.0</course>
<desc>Speed 0.1 km/h Distance 2.15 km</desc>
<time>2010-02-24T17:39:31.61</time>
<name>2036</name>
</trkpt>
<trkpt lat="48.933660" lon="8.648413">
<ele>367.5</ele>
<speed>0.1</speed>
<course>12.6</course>
<desc>Speed 0.1 km/h Distance 2.15 km</desc>
<time>2010-02-24T17:39:32.61</time>
<name>2037</name>
</trkpt>
<trkpt lat="48.933662" lon="8.648413">
<ele>367.5</ele>
<speed>0.2</speed>
<course>12.6</course>
<desc>Speed 0.2 km/h Distance 2.15 km</desc>
<time>2010-02-24T17:39:33.61</time>
<name>2038</name>
</trkpt>
<trkpt lat="48.933662" lon="8.648413">
<ele>367.5</ele>
<speed>0.2</speed>
<course>90.0</course>
<desc>Speed 0.2 km/h Distance 2.15 km</desc>
<time>2010-02-24T17:39:34.61</time>
<name>2039</name>
</trkpt>
<trkpt lat="48.933662" lon="8.648415">
<ele>367.5</ele>
<speed>0.3</speed>
<course>12.6</course>
<desc>Speed 0.3 km/h Distance 2.15 km</desc>
<time>2010-02-24T17:39:35.61</time>
<name>2040</name>
</trkpt>
<trkpt lat="48.933663" lon="8.648415">
<ele>367.5</ele>
<speed>0.1</speed>
<course>12.6</course>
<desc>Speed 0.1 km/h Distance 2.15 km</desc>
<time>2010-02-24T17:39:36.61</time>
<name>2041</name>
</trkpt>
<trkpt lat="48.933663" lon="8.648415">
<ele>367.5</ele>
<speed>0.2</speed>
<course>12.6</course>
<desc>Speed 0.2 km/h Distance 2.15 km</desc>
<time>2010-02-24T17:39:37.61</time>
<name>2042</name>
</trkpt>
<trkpt lat="48.933663" lon="8.648415">
<ele>367.5</ele>
<speed>0.1</speed>
<course>0.0</course>
<desc>Speed 0.1 km/h Distance 2.15 km</desc>
<time>2010-02-24T17:39:38.61</time>
<name>2043</name>
</trkpt>
<trkpt lat="48.933665" lon="8.648415">
<ele>367.5</ele>
<speed>0.1</speed>
<course>0.0</course>
<desc>Speed 0.1 km/h Distance 2.15 km</desc>
<time>2010-02-24T17:39:39.61</time>
<name>2044</name>
</trkpt>
<trkpt lat="48.933665" lon="8.648415">
<ele>367.5</ele>
<speed>0.0</speed>
<course>0.0</course>
<desc>Speed 0.0 km/h Distance 2.15 km</desc>
<time>2010-02-24T17:39:40.61</time>
<name>2045</name>
</trkpt>
<trkpt lat="48.933665" lon="8.648415">
<ele>367.5</ele>
<speed>0.1</speed>
<course>128.1</course>
<desc>Speed 0.1 km/h Distance 2.15 km</desc>
<time>2010-02-24T17:39:41.61</time>
<name>2046</name>
</trkpt>
<trkpt lat="48.933663" lon="8.648418">
<ele>367.5</ele>
<speed>2.7</speed>
<course>123.3</course>
<desc>Speed 2.7 km/h Distance 2.15 km</desc>
<time>2010-02-24T17:39:42.61</time>
<name>2047</name>
</trkpt>
<trkpt lat="48.933658" lon="8.648430">
<ele>367.5</ele>
<speed>3.4</speed>
<course>113.6</course>
<desc>Speed 3.4 km/h Distance 2.15 km</desc>
<time>2010-02-24T17:39:43.61</time>
<name>2048</name>
</trkpt>
<trkpt lat="48.933655" lon="8.648442">
<ele>367.5</ele>
<speed>3.2</speed>
<course>100.8</course>
<desc>Speed 3.2 km/h Distance 2.15 km</desc>
<time>2010-02-24T17:39:44.61</time>
<name>2049</name>
</trkpt>
<trkpt lat="48.933653" lon="8.648455">
<ele>368.0</ele>
<speed>2.9</speed>
<course>110.9</course>
<desc>Speed 2.9 km/h Distance 2.15 km</desc>
<time>2010-02-24T17:39:45.61</time>
<name>2050</name>
</trkpt>
<trkpt lat="48.933652" lon="8.648462">
<ele>368.0</ele>
<speed>2.3</speed>
<course>58.6</course>
<desc>Speed 2.3 km/h Distance 2.15 km</desc>
<time>2010-02-24T17:39:46.61</time>
<name>2051</name>
</trkpt>
<trkpt lat="48.933655" lon="8.648470">
<ele>368.0</ele>
<speed>1.4</speed>
<course>20.9</course>
<desc>Speed 1.4 km/h Distance 2.15 km</desc>
<time>2010-02-24T17:39:47.61</time>
<name>2052</name>
</trkpt>
<trkpt lat="48.933667" lon="8.648477">
<ele>369.0</ele>
<speed>0.3</speed>
<course>18.8</course>
<desc>Speed 0.3 km/h Distance 2.15 km</desc>
<time>2010-02-24T17:39:48.61</time>
<name>2053</name>
</trkpt>
<trkpt lat="48.933673" lon="8.648480">
<ele>369.5</ele>
<speed>0.1</speed>
<course>26.4</course>
<desc>Speed 0.1 km/h Distance 2.15 km</desc>
<time>2010-02-24T17:39:49.61</time>
<name>2054</name>
</trkpt>
<trkpt lat="48.933680" lon="8.648485">
<ele>370.0</ele>
<speed>0.0</speed>
<course>18.8</course>
<desc>Speed 0.0 km/h Distance 2.16 km</desc>
<time>2010-02-24T17:39:50.61</time>
<name>2055</name>
</trkpt>
<trkpt lat="48.933687" lon="8.648488">
<ele>370.5</ele>
<speed>0.0</speed>
<course>51.9</course>
<desc>Speed 0.0 km/h Distance 2.16 km</desc>
<time>2010-02-24T17:39:51.61</time>
<name>2056</name>
</trkpt>
<trkpt lat="48.933688" lon="8.648492">
<ele>371.0</ele>
<speed>0.2</speed>
<course>12.6</course>
<desc>Speed 0.2 km/h Distance 2.16 km</desc>
<time>2010-02-24T17:39:52.61</time>
<name>2057</name>
</trkpt>
<trkpt lat="48.933690" lon="8.648492">
<ele>371.0</ele>
<speed>0.1</speed>
<course>12.6</course>
<desc>Speed 0.1 km/h Distance 2.16 km</desc>
<time>2010-02-24T17:39:53.61</time>
<name>2058</name>
</trkpt>
<trkpt lat="48.933690" lon="8.648492">
<ele>371.0</ele>
<speed>0.2</speed>
<course>37.2</course>
<desc>Speed 0.2 km/h Distance 2.16 km</desc>
<time>2010-02-24T17:39:54.61</time>
<name>2059</name>
</trkpt>
<trkpt lat="48.933692" lon="8.648493">
<ele>371.0</ele>
<speed>0.5</speed>
<course>12.6</course>
<desc>Speed 0.5 km/h Distance 2.16 km</desc>
<time>2010-02-24T17:39:55.61</time>
<name>2060</name>
</trkpt>
<trkpt lat="48.933693" lon="8.648493">
<ele>371.0</ele>
<speed>0.2</speed>
<course>12.6</course>
<desc>Speed 0.2 km/h Distance 2.16 km</desc>
<time>2010-02-24T17:39:56.61</time>
<name>2061</name>
</trkpt>
<trkpt lat="48.933693" lon="8.648493">
<ele>371.0</ele>
<speed>0.1</speed>
<course>12.6</course>
<desc>Speed 0.1 km/h Distance 2.16 km</desc>
<time>2010-02-24T17:39:57.61</time>
<name>2062</name>
</trkpt>
<trkpt lat="48.933693" lon="8.648493">
<ele>371.0</ele>
<speed>0.2</speed>
<course>142.8</course>
<desc>Speed 0.2 km/h Distance 2.16 km</desc>
<time>2010-02-24T17:39:58.61</time>
<name>2063</name>
</trkpt>
<trkpt lat="48.933692" lon="8.648495">
<ele>371.5</ele>
<speed>0.1</speed>
<course>75.8</course>
<desc>Speed 0.1 km/h Distance 2.16 km</desc>
<time>2010-02-24T17:39:59.61</time>
<name>2064</name>
</trkpt>
<trkpt lat="48.933693" lon="8.648505">
<ele>371.5</ele>
<speed>1.8</speed>
<course>73.1</course>
<desc>Speed 1.8 km/h Distance 2.16 km</desc>
<time>2010-02-24T17:40:00.61</time>
<name>2065</name>
</trkpt>
<trkpt lat="48.933697" lon="8.648522">
<ele>372.0</ele>
<speed>3.1</speed>
<course>119.8</course>
<desc>Speed 3.1 km/h Distance 2.16 km</desc>
<time>2010-02-24T17:40:01.61</time>
<name>2066</name>
</trkpt>
<trkpt lat="48.933692" lon="8.648535">
<ele>372.5</ele>
<speed>3.3</speed>
<course>90.0</course>
<desc>Speed 3.3 km/h Distance 2.16 km</desc>
<time>2010-02-24T17:40:02.61</time>
<name>2067</name>
</trkpt>
<trkpt lat="48.933692" lon="8.648552">
<ele>373.0</ele>
<speed>4.0</speed>
<course>106.9</course>
<desc>Speed 4.0 km/h Distance 2.16 km</desc>
<time>2010-02-24T17:40:03.61</time>
<name>2068</name>
</trkpt>
<trkpt lat="48.933688" lon="8.648568">
<ele>373.0</ele>
<speed>4.1</speed>
<course>116.9</course>
<desc>Speed 4.1 km/h Distance 2.16 km</desc>
<time>2010-02-24T17:40:04.61</time>
<name>2069</name>
</trkpt>
<trkpt lat="48.933682" lon="8.648588">
<ele>373.0</ele>
<speed>3.7</speed>
<course>105.5</course>
<desc>Speed 3.7 km/h Distance 2.16 km</desc>
<time>2010-02-24T17:40:05.61</time>
<name>2070</name>
</trkpt>
<trkpt lat="48.933678" lon="8.648607">
<ele>373.5</ele>
<speed>4.5</speed>
<course>116.9</course>
<desc>Speed 4.5 km/h Distance 2.17 km</desc>
<time>2010-02-24T17:40:06.61</time>
<name>2071</name>
</trkpt>
<trkpt lat="48.933672" lon="8.648627">
<ele>374.0</ele>
<speed>4.9</speed>
<course>105.5</course>
<desc>Speed 4.9 km/h Distance 2.17 km</desc>
<time>2010-02-24T17:40:07.61</time>
<name>2072</name>
</trkpt>
<trkpt lat="48.933668" lon="8.648645">
<ele>374.0</ele>
<speed>5.6</speed>
<course>106.9</course>
<desc>Speed 5.6 km/h Distance 2.17 km</desc>
<time>2010-02-24T17:40:08.61</time>
<name>2073</name>
</trkpt>
<trkpt lat="48.933665" lon="8.648662">
<ele>374.5</ele>
<speed>4.8</speed>
<course>97.9</course>
<desc>Speed 4.8 km/h Distance 2.17 km</desc>
<time>2010-02-24T17:40:09.61</time>
<name>2074</name>
</trkpt>
<trkpt lat="48.933663" lon="8.648680">
<ele>374.5</ele>
<speed>4.9</speed>
<course>117.0</course>
<desc>Speed 4.9 km/h Distance 2.17 km</desc>
<time>2010-02-24T17:40:10.61</time>
<name>2075</name>
</trkpt>
<trkpt lat="48.933658" lon="8.648695">
<ele>374.5</ele>
<speed>4.9</speed>
<course>114.6</course>
<desc>Speed 4.9 km/h Distance 2.17 km</desc>
<time>2010-02-24T17:40:11.61</time>
<name>2076</name>
</trkpt>
<trkpt lat="48.933653" lon="8.648712">
<ele>375.0</ele>
<speed>4.2</speed>
<course>105.5</course>
<desc>Speed 4.2 km/h Distance 2.17 km</desc>
<time>2010-02-24T17:40:12.61</time>
<name>2077</name>
</trkpt>
<trkpt lat="48.933650" lon="8.648730">
<ele>375.0</ele>
<speed>4.9</speed>
<course>114.6</course>
<desc>Speed 4.9 km/h Distance 2.18 km</desc>
<time>2010-02-24T17:40:13.61</time>
<name>2078</name>
</trkpt>
<trkpt lat="48.933645" lon="8.648747">
<ele>375.0</ele>
<speed>4.5</speed>
<course>124.1</course>
<desc>Speed 4.5 km/h Distance 2.18 km</desc>
<time>2010-02-24T17:40:14.61</time>
<name>2079</name>
</trkpt>
<trkpt lat="48.933638" lon="8.648762">
<ele>375.0</ele>
<speed>4.2</speed>
<course>123.9</course>
<desc>Speed 4.2 km/h Distance 2.18 km</desc>
<time>2010-02-24T17:40:15.61</time>
<name>2080</name>
</trkpt>
<trkpt lat="48.933632" lon="8.648777">
<ele>375.0</ele>
<speed>4.0</speed>
<course>114.5</course>
<desc>Speed 4.0 km/h Distance 2.18 km</desc>
<time>2010-02-24T17:40:16.61</time>
<name>2081</name>
</trkpt>
<trkpt lat="48.933627" lon="8.648793">
<ele>375.5</ele>
<speed>4.1</speed>
<course>119.0</course>
<desc>Speed 4.1 km/h Distance 2.18 km</desc>
<time>2010-02-24T17:40:17.61</time>
<name>2082</name>
</trkpt>
<trkpt lat="48.933620" lon="8.648812">
<ele>375.5</ele>
<speed>4.7</speed>
<course>119.0</course>
<desc>Speed 4.7 km/h Distance 2.18 km</desc>
<time>2010-02-24T17:40:18.61</time>
<name>2083</name>
</trkpt>
<trkpt lat="48.933613" lon="8.648830">
<ele>376.0</ele>
<speed>4.2</speed>
<course>121.4</course>
<desc>Speed 4.2 km/h Distance 2.18 km</desc>
<time>2010-02-24T17:40:19.61</time>
<name>2084</name>
</trkpt>
<trkpt lat="48.933607" lon="8.648847">
<ele>376.0</ele>
<speed>4.8</speed>
<course>121.4</course>
<desc>Speed 4.8 km/h Distance 2.19 km</desc>
<time>2010-02-24T17:40:20.61</time>
<name>2085</name>
</trkpt>
<trkpt lat="48.933600" lon="8.648863">
<ele>376.0</ele>
<speed>4.6</speed>
<course>108.7</course>
<desc>Speed 4.6 km/h Distance 2.19 km</desc>
<time>2010-02-24T17:40:21.61</time>
<name>2086</name>
</trkpt>
<trkpt lat="48.933597" lon="8.648878">
<ele>376.0</ele>
<speed>3.9</speed>
<course>116.9</course>
<desc>Speed 3.9 km/h Distance 2.19 km</desc>
<time>2010-02-24T17:40:22.61</time>
<name>2087</name>
</trkpt>
<trkpt lat="48.933592" lon="8.648893">
<ele>376.5</ele>
<speed>4.0</speed>
<course>113.4</course>
<desc>Speed 4.0 km/h Distance 2.19 km</desc>
<time>2010-02-24T17:40:23.61</time>
<name>2088</name>
</trkpt>
<trkpt lat="48.933588" lon="8.648905">
<ele>376.5</ele>
<speed>3.3</speed>
<course>114.5</course>
<desc>Speed 3.3 km/h Distance 2.19 km</desc>
<time>2010-02-24T17:40:24.61</time>
<name>2089</name>
</trkpt>
<trkpt lat="48.933583" lon="8.648922">
<ele>376.5</ele>
<speed>4.4</speed>
<course>112.5</course>
<desc>Speed 4.4 km/h Distance 2.19 km</desc>
<time>2010-02-24T17:40:25.61</time>
<name>2090</name>
</trkpt>
<trkpt lat="48.933578" lon="8.648940">
<ele>376.5</ele>
<speed>4.6</speed>
<course>114.5</course>
<desc>Speed 4.6 km/h Distance 2.19 km</desc>
<time>2010-02-24T17:40:26.61</time>
<name>2091</name>
</trkpt>
<trkpt lat="48.933573" lon="8.648957">
<ele>377.0</ele>
<speed>5.0</speed>
<course>119.7</course>
<desc>Speed 5.0 km/h Distance 2.19 km</desc>
<time>2010-02-24T17:40:27.61</time>
<name>2092</name>
</trkpt>
<trkpt lat="48.933568" lon="8.648970">
<ele>377.0</ele>
<speed>3.7</speed>
<course>123.3</course>
<desc>Speed 3.7 km/h Distance 2.20 km</desc>
<time>2010-02-24T17:40:28.61</time>
<name>2093</name>
</trkpt>
<trkpt lat="48.933563" lon="8.648982">
<ele>377.0</ele>
<speed>4.0</speed>
<course>123.3</course>
<desc>Speed 4.0 km/h Distance 2.20 km</desc>
<time>2010-02-24T17:40:29.61</time>
<name>2094</name>
</trkpt>
<trkpt lat="48.933558" lon="8.648993">
<ele>377.0</ele>
<speed>3.8</speed>
<course>90.0</course>
<desc>Speed 3.8 km/h Distance 2.20 km</desc>
<time>2010-02-24T17:40:30.61</time>
<name>2095</name>
</trkpt>
<trkpt lat="48.933558" lon="8.648997">
<ele>377.0</ele>
<speed>0.9</speed>
<course>90.0</course>
<desc>Speed 0.9 km/h Distance 2.20 km</desc>
<time>2010-02-24T17:40:31.61</time>
<name>2096</name>
</trkpt>
<trkpt lat="48.933558" lon="8.648997">
<ele>377.0</ele>
<speed>0.4</speed>
<course>142.8</course>
<desc>Speed 0.4 km/h Distance 2.20 km</desc>
<time>2010-02-24T17:40:32.61</time>
<name>2097</name>
</trkpt>
<trkpt lat="48.933557" lon="8.648998">
<ele>377.0</ele>
<speed>0.1</speed>
<course>150.8</course>
<desc>Speed 0.1 km/h Distance 2.20 km</desc>
<time>2010-02-24T17:40:33.61</time>
<name>2098</name>
</trkpt>
<trkpt lat="48.933555" lon="8.649000">
<ele>377.5</ele>
<speed>0.6</speed>
<course>110.8</course>
<desc>Speed 0.6 km/h Distance 2.20 km</desc>
<time>2010-02-24T17:40:34.61</time>
<name>2099</name>
</trkpt>
<trkpt lat="48.933552" lon="8.649013">
<ele>377.0</ele>
<speed>3.5</speed>
<course>130.9</course>
<desc>Speed 3.5 km/h Distance 2.20 km</desc>
<time>2010-02-24T17:40:35.61</time>
<name>2100</name>
</trkpt>
<trkpt lat="48.933545" lon="8.649025">
<ele>377.0</ele>
<speed>4.1</speed>
<course>137.4</course>
<desc>Speed 4.1 km/h Distance 2.20 km</desc>
<time>2010-02-24T17:40:36.61</time>
<name>2101</name>
</trkpt>
<trkpt lat="48.933537" lon="8.649037">
<ele>377.5</ele>
<speed>4.7</speed>
<course>124.0</course>
<desc>Speed 4.7 km/h Distance 2.20 km</desc>
<time>2010-02-24T17:40:37.61</time>
<name>2102</name>
</trkpt>
<trkpt lat="48.933530" lon="8.649052">
<ele>377.5</ele>
<speed>4.5</speed>
<course>119.7</course>
<desc>Speed 4.5 km/h Distance 2.20 km</desc>
<time>2010-02-24T17:40:38.61</time>
<name>2103</name>
</trkpt>
<trkpt lat="48.933525" lon="8.649065">
<ele>377.5</ele>
<speed>3.7</speed>
<course>127.3</course>
<desc>Speed 3.7 km/h Distance 2.20 km</desc>
<time>2010-02-24T17:40:39.61</time>
<name>2104</name>
</trkpt>
<trkpt lat="48.933518" lon="8.649078">
<ele>377.5</ele>
<speed>4.2</speed>
<course>119.7</course>
<desc>Speed 4.2 km/h Distance 2.20 km</desc>
<time>2010-02-24T17:40:40.61</time>
<name>2105</name>
</trkpt>
<trkpt lat="48.933513" lon="8.649092">
<ele>377.5</ele>
<speed>4.1</speed>
<course>108.7</course>
<desc>Speed 4.1 km/h Distance 2.21 km</desc>
<time>2010-02-24T17:40:41.61</time>
<name>2106</name>
</trkpt>
<trkpt lat="48.933510" lon="8.649107">
<ele>377.5</ele>
<speed>4.1</speed>
<course>110.9</course>
<desc>Speed 4.1 km/h Distance 2.21 km</desc>
<time>2010-02-24T17:40:42.61</time>
<name>2107</name>
</trkpt>
<trkpt lat="48.933507" lon="8.649120">
<ele>378.0</ele>
<speed>4.0</speed>
<course>116.9</course>
<desc>Speed 4.0 km/h Distance 2.21 km</desc>
<time>2010-02-24T17:40:43.61</time>
<name>2108</name>
</trkpt>
<trkpt lat="48.933502" lon="8.649135">
<ele>378.0</ele>
<speed>4.2</speed>
<course>119.7</course>
<desc>Speed 4.2 km/h Distance 2.21 km</desc>
<time>2010-02-24T17:40:44.61</time>
<name>2109</name>
</trkpt>
<trkpt lat="48.933497" lon="8.649148">
<ele>378.5</ele>
<speed>4.6</speed>
<course>108.6</course>
<desc>Speed 4.6 km/h Distance 2.21 km</desc>
<time>2010-02-24T17:40:45.61</time>
<name>2110</name>
</trkpt>
<trkpt lat="48.933493" lon="8.649163">
<ele>378.5</ele>
<speed>3.8</speed>
<course>107.1</course>
<desc>Speed 3.8 km/h Distance 2.21 km</desc>
<time>2010-02-24T17:40:46.61</time>
<name>2111</name>
</trkpt>
<trkpt lat="48.933492" lon="8.649172">
<ele>378.5</ele>
<speed>2.4</speed>
<course>119.8</course>
<desc>Speed 2.4 km/h Distance 2.21 km</desc>
<time>2010-02-24T17:40:47.61</time>
<name>2112</name>
</trkpt>
<trkpt lat="48.933487" lon="8.649185">
<ele>378.5</ele>
<speed>3.7</speed>
<course>119.7</course>
<desc>Speed 3.7 km/h Distance 2.21 km</desc>
<time>2010-02-24T17:40:48.61</time>
<name>2113</name>
</trkpt>
<trkpt lat="48.933482" lon="8.649198">
<ele>378.5</ele>
<speed>4.1</speed>
<course>119.7</course>
<desc>Speed 4.1 km/h Distance 2.21 km</desc>
<time>2010-02-24T17:40:49.61</time>
<name>2114</name>
</trkpt>
<trkpt lat="48.933477" lon="8.649212">
<ele>379.0</ele>
<speed>3.6</speed>
<course>110.8</course>
<desc>Speed 3.6 km/h Distance 2.22 km</desc>
<time>2010-02-24T17:40:50.61</time>
<name>2115</name>
</trkpt>
<trkpt lat="48.933473" lon="8.649225">
<ele>379.0</ele>
<speed>3.6</speed>
<course>116.9</course>
<desc>Speed 3.6 km/h Distance 2.22 km</desc>
<time>2010-02-24T17:40:51.61</time>
<name>2116</name>
</trkpt>
<trkpt lat="48.933468" lon="8.649240">
<ele>379.0</ele>
<speed>4.1</speed>
<course>124.1</course>
<desc>Speed 4.1 km/h Distance 2.22 km</desc>
<time>2010-02-24T17:40:52.61</time>
<name>2117</name>
</trkpt>
<trkpt lat="48.933462" lon="8.649255">
<ele>379.5</ele>
<speed>4.8</speed>
<course>110.9</course>
<desc>Speed 4.8 km/h Distance 2.22 km</desc>
<time>2010-02-24T17:40:53.61</time>
<name>2118</name>
</trkpt>
<trkpt lat="48.933458" lon="8.649268">
<ele>379.5</ele>
<speed>3.6</speed>
<course>104.4</course>
<desc>Speed 3.6 km/h Distance 2.22 km</desc>
<time>2010-02-24T17:40:54.61</time>
<name>2119</name>
</trkpt>
<trkpt lat="48.933457" lon="8.649278">
<ele>379.0</ele>
<speed>2.3</speed>
<course>113.5</course>
<desc>Speed 2.3 km/h Distance 2.22 km</desc>
<time>2010-02-24T17:40:55.61</time>
<name>2120</name>
</trkpt>
<trkpt lat="48.933453" lon="8.649290">
<ele>379.0</ele>
<speed>2.8</speed>
<course>119.0</course>
<desc>Speed 2.8 km/h Distance 2.22 km</desc>
<time>2010-02-24T17:40:56.61</time>
<name>2121</name>
</trkpt>
<trkpt lat="48.933447" lon="8.649308">
<ele>379.0</ele>
<speed>4.4</speed>
<course>116.9</course>
<desc>Speed 4.4 km/h Distance 2.22 km</desc>
<time>2010-02-24T17:40:57.61</time>
<name>2122</name>
</trkpt>
<trkpt lat="48.933442" lon="8.649323">
<ele>379.0</ele>
<speed>3.7</speed>
<course>115.1</course>
<desc>Speed 3.7 km/h Distance 2.22 km</desc>
<time>2010-02-24T17:40:58.61</time>
<name>2123</name>
</trkpt>
<trkpt lat="48.933435" lon="8.649345">
<ele>379.0</ele>
<speed>4.7</speed>
<course>110.8</course>
<desc>Speed 4.7 km/h Distance 2.23 km</desc>
<time>2010-02-24T17:40:59.61</time>
<name>2124</name>
</trkpt>
<trkpt lat="48.933430" lon="8.649365">
<ele>379.0</ele>
<speed>4.7</speed>
<course>124.1</course>
<desc>Speed 4.7 km/h Distance 2.23 km</desc>
<time>2010-02-24T17:41:00.61</time>
<name>2125</name>
</trkpt>
<trkpt lat="48.933423" lon="8.649380">
<ele>379.0</ele>
<speed>2.6</speed>
<course>119.7</course>
<desc>Speed 2.6 km/h Distance 2.23 km</desc>
<time>2010-02-24T17:41:01.61</time>
<name>2126</name>
</trkpt>
<trkpt lat="48.933418" lon="8.649393">
<ele>379.0</ele>
<speed>3.3</speed>
<course>127.4</course>
<desc>Speed 3.3 km/h Distance 2.23 km</desc>
<time>2010-02-24T17:41:02.61</time>
<name>2127</name>
</trkpt>
<trkpt lat="48.933413" lon="8.649403">
<ele>379.0</ele>
<speed>2.8</speed>
<course>104.2</course>
<desc>Speed 2.8 km/h Distance 2.23 km</desc>
<time>2010-02-24T17:41:03.61</time>
<name>2128</name>
</trkpt>
<trkpt lat="48.933412" lon="8.649413">
<ele>378.5</ele>
<speed>2.6</speed>
<course>127.2</course>
<desc>Speed 2.6 km/h Distance 2.23 km</desc>
<time>2010-02-24T17:41:04.61</time>
<name>2129</name>
</trkpt>
<trkpt lat="48.933407" lon="8.649423">
<ele>378.5</ele>
<speed>3.4</speed>
<course>127.2</course>
<desc>Speed 3.4 km/h Distance 2.23 km</desc>
<time>2010-02-24T17:41:05.61</time>
<name>2130</name>
</trkpt>
<trkpt lat="48.933400" lon="8.649437">
<ele>378.0</ele>
<speed>3.7</speed>
<course>106.9</course>
<desc>Speed 3.7 km/h Distance 2.23 km</desc>
<time>2010-02-24T17:41:06.61</time>
<name>2131</name>
</trkpt>
<trkpt lat="48.933397" lon="8.649453">
<ele>378.0</ele>
<speed>3.9</speed>
<course>116.9</course>
<desc>Speed 3.9 km/h Distance 2.24 km</desc>
<time>2010-02-24T17:41:07.61</time>
<name>2132</name>
</trkpt>
<trkpt lat="48.933392" lon="8.649468">
<ele>377.5</ele>
<speed>4.0</speed>
<course>99.6</course>
<desc>Speed 4.0 km/h Distance 2.24 km</desc>
<time>2010-02-24T17:41:08.61</time>
<name>2133</name>
</trkpt>
<trkpt lat="48.933390" lon="8.649483">
<ele>377.5</ele>
<speed>3.8</speed>
<course>108.7</course>
<desc>Speed 3.8 km/h Distance 2.24 km</desc>
<time>2010-02-24T17:41:09.61</time>
<name>2134</name>
</trkpt>
<trkpt lat="48.933387" lon="8.649498">
<ele>377.5</ele>
<speed>3.5</speed>
<course>102.3</course>
<desc>Speed 3.5 km/h Distance 2.24 km</desc>
<time>2010-02-24T17:41:10.61</time>
<name>2135</name>
</trkpt>
<trkpt lat="48.933385" lon="8.649510">
<ele>377.0</ele>
<speed>3.0</speed>
<course>124.7</course>
<desc>Speed 3.0 km/h Distance 2.24 km</desc>
<time>2010-02-24T17:41:11.61</time>
<name>2136</name>
</trkpt>
<trkpt lat="48.933377" lon="8.649528">
<ele>377.5</ele>
<speed>4.6</speed>
<course>112.5</course>
<desc>Speed 4.6 km/h Distance 2.24 km</desc>
<time>2010-02-24T17:41:12.61</time>
<name>2137</name>
</trkpt>
<trkpt lat="48.933372" lon="8.649547">
<ele>377.5</ele>
<speed>4.8</speed>
<course>106.9</course>
<desc>Speed 4.8 km/h Distance 2.24 km</desc>
<time>2010-02-24T17:41:13.61</time>
<name>2138</name>
</trkpt>
<trkpt lat="48.933368" lon="8.649563">
<ele>377.5</ele>
<speed>4.2</speed>
<course>100.7</course>
<desc>Speed 4.2 km/h Distance 2.24 km</desc>
<time>2010-02-24T17:41:14.61</time>
<name>2139</name>
</trkpt>
<trkpt lat="48.933367" lon="8.649577">
<ele>377.0</ele>
<speed>3.1</speed>
<course>90.0</course>
<desc>Speed 3.1 km/h Distance 2.25 km</desc>
<time>2010-02-24T17:41:15.61</time>
<name>2140</name>
</trkpt>
<trkpt lat="48.933367" lon="8.649587">
<ele>376.5</ele>
<speed>2.1</speed>
<course>75.9</course>
<desc>Speed 2.1 km/h Distance 2.25 km</desc>
<time>2010-02-24T17:41:16.61</time>
<name>2141</name>
</trkpt>
<trkpt lat="48.933368" lon="8.649597">
<ele>375.5</ele>
<speed>2.1</speed>
<course>90.0</course>
<desc>Speed 2.1 km/h Distance 2.25 km</desc>
<time>2010-02-24T17:41:17.61</time>
<name>2142</name>
</trkpt>
<trkpt lat="48.933368" lon="8.649608">
<ele>375.0</ele>
<speed>2.5</speed>
<course>99.6</course>
<desc>Speed 2.5 km/h Distance 2.25 km</desc>
<time>2010-02-24T17:41:18.61</time>
<name>2143</name>
</trkpt>
<trkpt lat="48.933367" lon="8.649623">
<ele>375.0</ele>
<speed>3.3</speed>
<course>106.9</course>
<desc>Speed 3.3 km/h Distance 2.25 km</desc>
<time>2010-02-24T17:41:19.61</time>
<name>2144</name>
</trkpt>
<trkpt lat="48.933363" lon="8.649640">
<ele>375.0</ele>
<speed>4.0</speed>
<course>105.4</course>
<desc>Speed 4.0 km/h Distance 2.25 km</desc>
<time>2010-02-24T17:41:20.61</time>
<name>2145</name>
</trkpt>
<trkpt lat="48.933360" lon="8.649658">
<ele>375.0</ele>
<speed>4.2</speed>
<course>99.6</course>
<desc>Speed 4.2 km/h Distance 2.25 km</desc>
<time>2010-02-24T17:41:21.61</time>
<name>2146</name>
</trkpt>
<trkpt lat="48.933358" lon="8.649673">
<ele>374.5</ele>
<speed>3.7</speed>
<course>105.5</course>
<desc>Speed 3.7 km/h Distance 2.25 km</desc>
<time>2010-02-24T17:41:22.61</time>
<name>2147</name>
</trkpt>
<trkpt lat="48.933355" lon="8.649692">
<ele>374.5</ele>
<speed>4.1</speed>
<course>90.0</course>
<desc>Speed 4.1 km/h Distance 2.25 km</desc>
<time>2010-02-24T17:41:23.61</time>
<name>2148</name>
</trkpt>
<trkpt lat="48.933355" lon="8.649710">
<ele>374.5</ele>
<speed>4.5</speed>
<course>100.7</course>
<desc>Speed 4.5 km/h Distance 2.26 km</desc>
<time>2010-02-24T17:41:24.61</time>
<name>2149</name>
</trkpt>
<trkpt lat="48.933353" lon="8.649723">
<ele>374.0</ele>
<speed>3.2</speed>
<course>100.7</course>
<desc>Speed 3.2 km/h Distance 2.26 km</desc>
<time>2010-02-24T17:41:25.61</time>
<name>2150</name>
</trkpt>
<trkpt lat="48.933352" lon="8.649737">
<ele>373.0</ele>
<speed>3.6</speed>
<course>66.5</course>
<desc>Speed 3.6 km/h Distance 2.26 km</desc>
<time>2010-02-24T17:41:26.61</time>
<name>2151</name>
</trkpt>
<trkpt lat="48.933355" lon="8.649748">
<ele>372.5</ele>
<speed>3.1</speed>
<course>60.3</course>
<desc>Speed 3.1 km/h Distance 2.26 km</desc>
<time>2010-02-24T17:41:27.61</time>
<name>2152</name>
</trkpt>
<trkpt lat="48.933360" lon="8.649762">
<ele>372.0</ele>
<speed>3.7</speed>
<course>99.6</course>
<desc>Speed 3.7 km/h Distance 2.26 km</desc>
<time>2010-02-24T17:41:28.61</time>
<name>2153</name>
</trkpt>
<trkpt lat="48.933358" lon="8.649777">
<ele>371.0</ele>
<speed>3.3</speed>
<course>77.8</course>
<desc>Speed 3.3 km/h Distance 2.26 km</desc>
<time>2010-02-24T17:41:29.61</time>
<name>2154</name>
</trkpt>
<trkpt lat="48.933360" lon="8.649788">
<ele>370.5</ele>
<speed>3.0</speed>
<course>99.6</course>
<desc>Speed 3.0 km/h Distance 2.26 km</desc>
<time>2010-02-24T17:41:30.61</time>
<name>2155</name>
</trkpt>
<trkpt lat="48.933358" lon="8.649803">
<ele>370.0</ele>
<speed>3.6</speed>
<course>74.6</course>
<desc>Speed 3.6 km/h Distance 2.26 km</desc>
<time>2010-02-24T17:41:31.61</time>
<name>2156</name>
</trkpt>
<trkpt lat="48.933362" lon="8.649822">
<ele>370.0</ele>
<speed>4.6</speed>
<course>80.4</course>
<desc>Speed 4.6 km/h Distance 2.26 km</desc>
<time>2010-02-24T17:41:32.61</time>
<name>2157</name>
</trkpt>
<trkpt lat="48.933363" lon="8.649837">
<ele>370.0</ele>
<speed>3.9</speed>
<course>132.4</course>
<desc>Speed 3.9 km/h Distance 2.27 km</desc>
<time>2010-02-24T17:41:33.61</time>
<name>2158</name>
</trkpt>
<trkpt lat="48.933353" lon="8.649853">
<ele>368.5</ele>
<speed>4.1</speed>
<course>119.7</course>
<desc>Speed 4.1 km/h Distance 2.27 km</desc>
<time>2010-02-24T17:41:34.61</time>
<name>2159</name>
</trkpt>
<trkpt lat="48.933348" lon="8.649867">
<ele>367.5</ele>
<speed>2.8</speed>
<course>113.5</course>
<desc>Speed 2.8 km/h Distance 2.27 km</desc>
<time>2010-02-24T17:41:35.61</time>
<name>2160</name>
</trkpt>
<trkpt lat="48.933345" lon="8.649878">
<ele>367.0</ele>
<speed>2.9</speed>
<course>75.8</course>
<desc>Speed 2.9 km/h Distance 2.27 km</desc>
<time>2010-02-24T17:41:36.61</time>
<name>2161</name>
</trkpt>
<trkpt lat="48.933347" lon="8.649888">
<ele>367.0</ele>
<speed>2.1</speed>
<course>75.6</course>
<desc>Speed 2.1 km/h Distance 2.27 km</desc>
<time>2010-02-24T17:41:37.61</time>
<name>2162</name>
</trkpt>
<trkpt lat="48.933348" lon="8.649898">
<ele>366.0</ele>
<speed>2.5</speed>
<course>12.6</course>
<desc>Speed 2.5 km/h Distance 2.27 km</desc>
<time>2010-02-24T17:41:38.61</time>
<name>2163</name>
</trkpt>
<trkpt lat="48.933350" lon="8.649898">
<ele>366.0</ele>
<speed>0.7</speed>
<course>47.8</course>
<desc>Speed 0.7 km/h Distance 2.27 km</desc>
<time>2010-02-24T17:41:39.61</time>
<name>2164</name>
</trkpt>
<trkpt lat="48.933355" lon="8.649907">
<ele>365.5</ele>
<speed>3.0</speed>
<course>127.2</course>
<desc>Speed 3.0 km/h Distance 2.27 km</desc>
<time>2010-02-24T17:41:40.61</time>
<name>2165</name>
</trkpt>
<trkpt lat="48.933350" lon="8.649917">
<ele>365.0</ele>
<speed>2.1</speed>
<course>123.1</course>
<desc>Speed 2.1 km/h Distance 2.27 km</desc>
<time>2010-02-24T17:41:41.61</time>
<name>2166</name>
</trkpt>
<trkpt lat="48.933345" lon="8.649928">
<ele>364.5</ele>
<speed>1.7</speed>
<course>130.2</course>
<desc>Speed 1.7 km/h Distance 2.27 km</desc>
<time>2010-02-24T17:41:42.61</time>
<name>2167</name>
</trkpt>
<trkpt lat="48.933337" lon="8.649943">
<ele>364.5</ele>
<speed>2.7</speed>
<course>135.5</course>
<desc>Speed 2.7 km/h Distance 2.27 km</desc>
<time>2010-02-24T17:41:43.61</time>
<name>2168</name>
</trkpt>
<trkpt lat="48.933330" lon="8.649953">
<ele>363.5</ele>
<speed>2.8</speed>
<course>131.1</course>
<desc>Speed 2.8 km/h Distance 2.28 km</desc>
<time>2010-02-24T17:41:44.61</time>
<name>2169</name>
</trkpt>
<trkpt lat="48.933323" lon="8.649965">
<ele>362.5</ele>
<speed>2.7</speed>
<course>104.4</course>
<desc>Speed 2.7 km/h Distance 2.28 km</desc>
<time>2010-02-24T17:41:45.61</time>
<name>2170</name>
</trkpt>
<trkpt lat="48.933322" lon="8.649975">
<ele>361.0</ele>
<speed>2.6</speed>
<course>40.4</course>
<desc>Speed 2.6 km/h Distance 2.28 km</desc>
<time>2010-02-24T17:41:46.61</time>
<name>2171</name>
</trkpt>
<trkpt lat="48.933338" lon="8.649997">
<ele>362.5</ele>
<speed>7.2</speed>
<course>49.7</course>
<desc>Speed 7.2 km/h Distance 2.28 km</desc>
<time>2010-02-24T17:41:47.61</time>
<name>2172</name>
</trkpt>
<trkpt lat="48.933347" lon="8.650012">
<ele>362.0</ele>
<speed>3.6</speed>
<course>90.0</course>
<desc>Speed 3.6 km/h Distance 2.28 km</desc>
<time>2010-02-24T17:41:48.61</time>
<name>2173</name>
</trkpt>
<trkpt lat="48.933347" lon="8.650025">
<ele>362.0</ele>
<speed>3.0</speed>
<course>79.2</course>
<desc>Speed 3.0 km/h Distance 2.28 km</desc>
<time>2010-02-24T17:41:49.61</time>
<name>2174</name>
</trkpt>
<trkpt lat="48.933348" lon="8.650038">
<ele>361.5</ele>
<speed>2.7</speed>
<course>42.6</course>
<desc>Speed 2.7 km/h Distance 2.28 km</desc>
<time>2010-02-24T17:41:50.61</time>
<name>2175</name>
</trkpt>
<trkpt lat="48.933357" lon="8.650050">
<ele>362.0</ele>
<speed>3.7</speed>
<course>37.2</course>
<desc>Speed 3.7 km/h Distance 2.28 km</desc>
<time>2010-02-24T17:41:51.61</time>
<name>2176</name>
</trkpt>
<trkpt lat="48.933368" lon="8.650063">
<ele>362.5</ele>
<speed>4.8</speed>
<course>29.8</course>
<desc>Speed 4.8 km/h Distance 2.29 km</desc>
<time>2010-02-24T17:41:52.61</time>
<name>2177</name>
</trkpt>
<trkpt lat="48.933382" lon="8.650075">
<ele>363.0</ele>
<speed>4.5</speed>
<course>25.2</course>
<desc>Speed 4.5 km/h Distance 2.29 km</desc>
<time>2010-02-24T17:41:53.61</time>
<name>2178</name>
</trkpt>
<trkpt lat="48.933393" lon="8.650083">
<ele>363.0</ele>
<speed>4.3</speed>
<course>33.2</course>
<desc>Speed 4.3 km/h Distance 2.29 km</desc>
<time>2010-02-24T17:41:54.61</time>
<name>2179</name>
</trkpt>
<trkpt lat="48.933403" lon="8.650093">
<ele>363.0</ele>
<speed>3.7</speed>
<course>49.7</course>
<desc>Speed 3.7 km/h Distance 2.29 km</desc>
<time>2010-02-24T17:41:55.61</time>
<name>2180</name>
</trkpt>
<trkpt lat="48.933412" lon="8.650108">
<ele>362.5</ele>
<speed>3.7</speed>
<course>82.1</course>
<desc>Speed 3.7 km/h Distance 2.29 km</desc>
<time>2010-02-24T17:41:56.61</time>
<name>2181</name>
</trkpt>
<trkpt lat="48.933413" lon="8.650127">
<ele>362.0</ele>
<speed>3.9</speed>
<course>65.4</course>
<desc>Speed 3.9 km/h Distance 2.29 km</desc>
<time>2010-02-24T17:41:57.61</time>
<name>2182</name>
</trkpt>
<trkpt lat="48.933418" lon="8.650143">
<ele>362.0</ele>
<speed>4.4</speed>
<course>123.3</course>
<desc>Speed 4.4 km/h Distance 2.29 km</desc>
<time>2010-02-24T17:41:58.61</time>
<name>2183</name>
</trkpt>
<trkpt lat="48.933413" lon="8.650155">
<ele>360.5</ele>
<speed>3.6</speed>
<course>52.8</course>
<desc>Speed 3.6 km/h Distance 2.30 km</desc>
<time>2010-02-24T17:41:59.61</time>
<name>2184</name>
</trkpt>
<trkpt lat="48.933420" lon="8.650168">
<ele>361.0</ele>
<speed>4.4</speed>
<course>46.6</course>
<desc>Speed 4.4 km/h Distance 2.30 km</desc>
<time>2010-02-24T17:42:00.61</time>
<name>2185</name>
</trkpt>
<trkpt lat="48.933428" lon="8.650182">
<ele>361.5</ele>
<speed>3.7</speed>
<course>49.9</course>
<desc>Speed 3.7 km/h Distance 2.30 km</desc>
<time>2010-02-24T17:42:01.61</time>
<name>2186</name>
</trkpt>
<trkpt lat="48.933437" lon="8.650197">
<ele>361.5</ele>
<speed>4.1</speed>
<course>80.4</course>
<desc>Speed 4.1 km/h Distance 2.30 km</desc>
<time>2010-02-24T17:42:02.61</time>
<name>2187</name>
</trkpt>
<trkpt lat="48.933438" lon="8.650212">
<ele>361.0</ele>
<speed>3.4</speed>
<course>141.9</course>
<desc>Speed 3.4 km/h Distance 2.30 km</desc>
<time>2010-02-24T17:42:03.61</time>
<name>2188</name>
</trkpt>
<trkpt lat="48.933430" lon="8.650222">
<ele>359.5</ele>
<speed>4.1</speed>
<course>79.2</course>
<desc>Speed 4.1 km/h Distance 2.30 km</desc>
<time>2010-02-24T17:42:04.61</time>
<name>2189</name>
</trkpt>
<trkpt lat="48.933432" lon="8.650235">
<ele>359.5</ele>
<speed>3.0</speed>
<course>47.6</course>
<desc>Speed 3.0 km/h Distance 2.30 km</desc>
<time>2010-02-24T17:42:05.61</time>
<name>2190</name>
</trkpt>
<trkpt lat="48.933442" lon="8.650252">
<ele>360.0</ele>
<speed>5.1</speed>
<course>52.7</course>
<desc>Speed 5.1 km/h Distance 2.30 km</desc>
<time>2010-02-24T17:42:06.61</time>
<name>2191</name>
</trkpt>
<trkpt lat="48.933448" lon="8.650265">
<ele>359.5</ele>
<speed>3.5</speed>
<course>53.0</course>
<desc>Speed 3.5 km/h Distance 2.31 km</desc>
<time>2010-02-24T17:42:07.61</time>
<name>2192</name>
</trkpt>
<trkpt lat="48.933452" lon="8.650272">
<ele>360.0</ele>
<speed>2.1</speed>
<course>21.5</course>
<desc>Speed 2.1 km/h Distance 2.31 km</desc>
<time>2010-02-24T17:42:08.61</time>
<name>2193</name>
</trkpt>
<trkpt lat="48.933460" lon="8.650277">
<ele>360.5</ele>
<speed>1.1</speed>
<course>25.6</course>
<desc>Speed 1.1 km/h Distance 2.31 km</desc>
<time>2010-02-24T17:42:09.61</time>
<name>2194</name>
</trkpt>
<trkpt lat="48.933467" lon="8.650282">
<ele>361.0</ele>
<speed>0.2</speed>
<course>7.4</course>
<desc>Speed 0.2 km/h Distance 2.31 km</desc>
<time>2010-02-24T17:42:10.61</time>
<name>2195</name>
</trkpt>
<trkpt lat="48.933473" lon="8.650282">
<ele>362.0</ele>
<speed>0.3</speed>
<course>12.6</course>
<desc>Speed 0.3 km/h Distance 2.31 km</desc>
<time>2010-02-24T17:42:11.61</time>
<name>2196</name>
</trkpt>
<trkpt lat="48.933475" lon="8.650282">
<ele>362.5</ele>
<speed>0.2</speed>
<course>18.8</course>
<desc>Speed 0.2 km/h Distance 2.31 km</desc>
<time>2010-02-24T17:42:12.61</time>
<name>2197</name>
</trkpt>
<trkpt lat="48.933478" lon="8.650283">
<ele>362.5</ele>
<speed>0.3</speed>
<course>52.6</course>
<desc>Speed 0.3 km/h Distance 2.31 km</desc>
<time>2010-02-24T17:42:13.61</time>
<name>2198</name>
</trkpt>
<trkpt lat="48.933483" lon="8.650293">
<ele>363.0</ele>
<speed>1.5</speed>
<course>42.6</course>
<desc>Speed 1.5 km/h Distance 2.31 km</desc>
<time>2010-02-24T17:42:14.61</time>
<name>2199</name>
</trkpt>
<trkpt lat="48.933492" lon="8.650305">
<ele>362.5</ele>
<speed>2.8</speed>
<course>47.6</course>
<desc>Speed 2.8 km/h Distance 2.31 km</desc>
<time>2010-02-24T17:42:15.61</time>
<name>2200</name>
</trkpt>
<trkpt lat="48.933502" lon="8.650322">
<ele>364.0</ele>
<speed>2.8</speed>
<course>39.4</course>
<desc>Speed 2.8 km/h Distance 2.31 km</desc>
<time>2010-02-24T17:42:16.61</time>
<name>2201</name>
</trkpt>
<trkpt lat="48.933515" lon="8.650338">
<ele>365.5</ele>
<speed>3.6</speed>
<course>79.2</course>
<desc>Speed 3.6 km/h Distance 2.32 km</desc>
<time>2010-02-24T17:42:17.61</time>
<name>2202</name>
</trkpt>
<trkpt lat="48.933517" lon="8.650352">
<ele>366.0</ele>
<speed>3.4</speed>
<course>66.5</course>
<desc>Speed 3.4 km/h Distance 2.32 km</desc>
<time>2010-02-24T17:42:18.61</time>
<name>2203</name>
</trkpt>
<trkpt lat="48.933520" lon="8.650363">
<ele>366.0</ele>
<speed>3.0</speed>
<course>52.7</course>
<desc>Speed 3.0 km/h Distance 2.32 km</desc>
<time>2010-02-24T17:42:19.61</time>
<name>2204</name>
</trkpt>
<trkpt lat="48.933527" lon="8.650377">
<ele>366.5</ele>
<speed>3.6</speed>
<course>79.3</course>
<desc>Speed 3.6 km/h Distance 2.32 km</desc>
<time>2010-02-24T17:42:20.61</time>
<name>2205</name>
</trkpt>
<trkpt lat="48.933528" lon="8.650390">
<ele>366.5</ele>
<speed>3.3</speed>
<course>66.5</course>
<desc>Speed 3.3 km/h Distance 2.32 km</desc>
<time>2010-02-24T17:42:21.61</time>
<name>2206</name>
</trkpt>
<trkpt lat="48.933532" lon="8.650402">
<ele>366.5</ele>
<speed>3.1</speed>
<course>157.8</course>
<desc>Speed 3.1 km/h Distance 2.32 km</desc>
<time>2010-02-24T17:42:22.61</time>
<name>2207</name>
</trkpt>
<trkpt lat="48.933527" lon="8.650405">
<ele>367.5</ele>
<speed>3.2</speed>
<course>135.5</course>
<desc>Speed 3.2 km/h Distance 2.32 km</desc>
<time>2010-02-24T17:42:23.61</time>
<name>2208</name>
</trkpt>
<trkpt lat="48.933520" lon="8.650415">
<ele>367.0</ele>
<speed>3.9</speed>
<course>117.0</course>
<desc>Speed 3.9 km/h Distance 2.32 km</desc>
<time>2010-02-24T17:42:24.61</time>
<name>2209</name>
</trkpt>
<trkpt lat="48.933517" lon="8.650425">
<ele>365.5</ele>
<speed>4.2</speed>
<course>154.0</course>
<desc>Speed 4.2 km/h Distance 2.32 km</desc>
<time>2010-02-24T17:42:25.61</time>
<name>2210</name>
</trkpt>
<trkpt lat="48.933503" lon="8.650435">
<ele>364.5</ele>
<speed>5.3</speed>
<course>150.6</course>
<desc>Speed 5.3 km/h Distance 2.32 km</desc>
<time>2010-02-24T17:42:26.61</time>
<name>2211</name>
</trkpt>
<trkpt lat="48.933492" lon="8.650445">
<ele>363.5</ele>
<speed>5.4</speed>
<course>39.4</course>
<desc>Speed 5.4 km/h Distance 2.33 km</desc>
<time>2010-02-24T17:42:27.61</time>
<name>2212</name>
</trkpt>
<trkpt lat="48.933498" lon="8.650453">
<ele>362.0</ele>
<speed>3.2</speed>
<course>150.6</course>
<desc>Speed 3.2 km/h Distance 2.33 km</desc>
<time>2010-02-24T17:42:28.61</time>
<name>2213</name>
</trkpt>
<trkpt lat="48.933487" lon="8.650463">
<ele>362.5</ele>
<speed>5.4</speed>
<course>141.9</course>
<desc>Speed 5.4 km/h Distance 2.33 km</desc>
<time>2010-02-24T17:42:29.61</time>
<name>2214</name>
</trkpt>
<trkpt lat="48.933478" lon="8.650473">
<ele>361.5</ele>
<speed>3.9</speed>
<course>113.5</course>
<desc>Speed 3.9 km/h Distance 2.33 km</desc>
<time>2010-02-24T17:42:30.61</time>
<name>2215</name>
</trkpt>
<trkpt lat="48.933475" lon="8.650485">
<ele>361.0</ele>
<speed>3.1</speed>
<course>73.1</course>
<desc>Speed 3.1 km/h Distance 2.33 km</desc>
<time>2010-02-24T17:42:31.61</time>
<name>2216</name>
</trkpt>
<trkpt lat="48.933478" lon="8.650502">
<ele>361.0</ele>
<speed>4.0</speed>
<course>43.1</course>
<desc>Speed 4.0 km/h Distance 2.33 km</desc>
<time>2010-02-24T17:42:32.61</time>
<name>2217</name>
</trkpt>
<trkpt lat="48.933490" lon="8.650518">
<ele>362.0</ele>
<speed>5.1</speed>
<course>113.6</course>
<desc>Speed 5.1 km/h Distance 2.33 km</desc>
<time>2010-02-24T17:42:33.61</time>
<name>2218</name>
</trkpt>
<trkpt lat="48.933487" lon="8.650530">
<ele>361.5</ele>
<speed>3.3</speed>
<course>69.1</course>
<desc>Speed 3.3 km/h Distance 2.33 km</desc>
<time>2010-02-24T17:42:34.61</time>
<name>2219</name>
</trkpt>
<trkpt lat="48.933490" lon="8.650543">
<ele>361.5</ele>
<speed>3.2</speed>
<course>47.6</course>
<desc>Speed 3.2 km/h Distance 2.34 km</desc>
<time>2010-02-24T17:42:35.61</time>
<name>2220</name>
</trkpt>
<trkpt lat="48.933500" lon="8.650560">
<ele>361.5</ele>
<speed>4.4</speed>
<course>55.4</course>
<desc>Speed 4.4 km/h Distance 2.34 km</desc>
<time>2010-02-24T17:42:36.61</time>
<name>2221</name>
</trkpt>
<trkpt lat="48.933508" lon="8.650578">
<ele>361.5</ele>
<speed>4.5</speed>
<course>110.7</course>
<desc>Speed 4.5 km/h Distance 2.34 km</desc>
<time>2010-02-24T17:42:37.61</time>
<name>2222</name>
</trkpt>
<trkpt lat="48.933505" lon="8.650592">
<ele>361.0</ele>
<speed>3.7</speed>
<course>137.4</course>
<desc>Speed 3.7 km/h Distance 2.34 km</desc>
<time>2010-02-24T17:42:38.61</time>
<name>2223</name>
</trkpt>
<trkpt lat="48.933497" lon="8.650603">
<ele>361.0</ele>
<speed>4.6</speed>
<course>119.7</course>
<desc>Speed 4.6 km/h Distance 2.34 km</desc>
<time>2010-02-24T17:42:39.61</time>
<name>2224</name>
</trkpt>
<trkpt lat="48.933492" lon="8.650617">
<ele>361.0</ele>
<speed>3.7</speed>
<course>123.3</course>
<desc>Speed 3.7 km/h Distance 2.34 km</desc>
<time>2010-02-24T17:42:40.61</time>
<name>2225</name>
</trkpt>
<trkpt lat="48.933487" lon="8.650628">
<ele>360.0</ele>
<speed>4.3</speed>
<course>132.2</course>
<desc>Speed 4.3 km/h Distance 2.34 km</desc>
<time>2010-02-24T17:42:41.61</time>
<name>2226</name>
</trkpt>
<trkpt lat="48.933482" lon="8.650637">
<ele>359.0</ele>
<speed>3.6</speed>
<course>39.4</course>
<desc>Speed 3.6 km/h Distance 2.34 km</desc>
<time>2010-02-24T17:42:42.61</time>
<name>2227</name>
</trkpt>
<trkpt lat="48.933495" lon="8.650653">
<ele>360.0</ele>
<speed>4.5</speed>
<course>74.5</course>
<desc>Speed 4.5 km/h Distance 2.35 km</desc>
<time>2010-02-24T17:42:43.61</time>
<name>2228</name>
</trkpt>
<trkpt lat="48.933498" lon="8.650672">
<ele>360.5</ele>
<speed>5.4</speed>
<course>73.1</course>
<desc>Speed 5.4 km/h Distance 2.35 km</desc>
<time>2010-02-24T17:42:44.61</time>
<name>2229</name>
</trkpt>
<trkpt lat="48.933502" lon="8.650688">
<ele>361.0</ele>
<speed>3.9</speed>
<course>90.0</course>
<desc>Speed 3.9 km/h Distance 2.35 km</desc>
<time>2010-02-24T17:42:45.61</time>
<name>2230</name>
</trkpt>
<trkpt lat="48.933502" lon="8.650700">
<ele>361.0</ele>
<speed>2.9</speed>
<course>69.2</course>
<desc>Speed 2.9 km/h Distance 2.35 km</desc>
<time>2010-02-24T17:42:46.61</time>
<name>2231</name>
</trkpt>
<trkpt lat="48.933505" lon="8.650713">
<ele>361.5</ele>
<speed>3.2</speed>
<course>90.0</course>
<desc>Speed 3.2 km/h Distance 2.35 km</desc>
<time>2010-02-24T17:42:47.61</time>
<name>2232</name>
</trkpt>
<trkpt lat="48.933505" lon="8.650727">
<ele>362.0</ele>
<speed>3.2</speed>
<course>100.7</course>
<desc>Speed 3.2 km/h Distance 2.35 km</desc>
<time>2010-02-24T17:42:48.61</time>
<name>2233</name>
</trkpt>
<trkpt lat="48.933503" lon="8.650740">
<ele>361.5</ele>
<speed>4.0</speed>
<course>63.1</course>
<desc>Speed 4.0 km/h Distance 2.35 km</desc>
<time>2010-02-24T17:42:49.61</time>
<name>2234</name>
</trkpt>
<trkpt lat="48.933508" lon="8.650755">
<ele>360.5</ele>
<speed>3.0</speed>
<course>36.2</course>
<desc>Speed 3.0 km/h Distance 2.35 km</desc>
<time>2010-02-24T17:42:50.61</time>
<name>2235</name>
</trkpt>
<trkpt lat="48.933523" lon="8.650772">
<ele>361.0</ele>
<speed>4.0</speed>
<course>33.3</course>
<desc>Speed 4.0 km/h Distance 2.36 km</desc>
<time>2010-02-24T17:42:51.61</time>
<name>2236</name>
</trkpt>
<trkpt lat="48.933543" lon="8.650792">
<ele>361.0</ele>
<speed>3.5</speed>
<course>63.1</course>
<desc>Speed 3.5 km/h Distance 2.36 km</desc>
<time>2010-02-24T17:42:52.61</time>
<name>2237</name>
</trkpt>
<trkpt lat="48.933548" lon="8.650807">
<ele>361.0</ele>
<speed>4.5</speed>
<course>41.3</course>
<desc>Speed 4.5 km/h Distance 2.36 km</desc>
<time>2010-02-24T17:42:53.61</time>
<name>2238</name>
</trkpt>
<trkpt lat="48.933558" lon="8.650820">
<ele>361.0</ele>
<speed>4.8</speed>
<course>45.9</course>
<desc>Speed 4.8 km/h Distance 2.36 km</desc>
<time>2010-02-24T17:42:54.61</time>
<name>2239</name>
</trkpt>
<trkpt lat="48.933570" lon="8.650838">
<ele>361.0</ele>
<speed>3.9</speed>
<course>58.7</course>
<desc>Speed 3.9 km/h Distance 2.36 km</desc>
<time>2010-02-24T17:42:55.61</time>
<name>2240</name>
</trkpt>
<trkpt lat="48.933577" lon="8.650855">
<ele>361.5</ele>
<speed>4.5</speed>
<course>33.3</course>
<desc>Speed 4.5 km/h Distance 2.36 km</desc>
<time>2010-02-24T17:42:56.61</time>
<name>2241</name>
</trkpt>
<trkpt lat="48.933598" lon="8.650877">
<ele>362.0</ele>
<speed>4.2</speed>
<course>90.0</course>
<desc>Speed 4.2 km/h Distance 2.37 km</desc>
<time>2010-02-24T17:42:57.61</time>
<name>2242</name>
</trkpt>
<trkpt lat="48.933598" lon="8.650897">
<ele>361.5</ele>
<speed>4.2</speed>
<course>73.1</course>
<desc>Speed 4.2 km/h Distance 2.37 km</desc>
<time>2010-02-24T17:42:58.61</time>
<name>2243</name>
</trkpt>
<trkpt lat="48.933602" lon="8.650913">
<ele>361.5</ele>
<speed>3.9</speed>
<course>69.2</course>
<desc>Speed 3.9 km/h Distance 2.37 km</desc>
<time>2010-02-24T17:42:59.61</time>
<name>2244</name>
</trkpt>
<trkpt lat="48.933605" lon="8.650927">
<ele>361.5</ele>
<speed>3.5</speed>
<course>75.6</course>
<desc>Speed 3.5 km/h Distance 2.37 km</desc>
<time>2010-02-24T17:43:00.61</time>
<name>2245</name>
</trkpt>
<trkpt lat="48.933607" lon="8.650937">
<ele>361.0</ele>
<speed>2.2</speed>
<course>33.2</course>
<desc>Speed 2.2 km/h Distance 2.37 km</desc>
<time>2010-02-24T17:43:01.61</time>
<name>2246</name>
</trkpt>
<trkpt lat="48.933612" lon="8.650942">
<ele>361.0</ele>
<speed>1.6</speed>
<course>75.9</course>
<desc>Speed 1.6 km/h Distance 2.37 km</desc>
<time>2010-02-24T17:43:02.61</time>
<name>2247</name>
</trkpt>
<trkpt lat="48.933613" lon="8.650952">
<ele>361.0</ele>
<speed>2.3</speed>
<course>63.0</course>
<desc>Speed 2.3 km/h Distance 2.37 km</desc>
<time>2010-02-24T17:43:03.61</time>
<name>2248</name>
</trkpt>
<trkpt lat="48.933617" lon="8.650962">
<ele>360.5</ele>
<speed>2.4</speed>
<course>42.6</course>
<desc>Speed 2.4 km/h Distance 2.37 km</desc>
<time>2010-02-24T17:43:04.61</time>
<name>2249</name>
</trkpt>
<trkpt lat="48.933642" lon="8.650997">
<ele>360.5</ele>
<speed>3.7</speed>
<course>55.9</course>
<desc>Speed 3.7 km/h Distance 2.38 km</desc>
<time>2010-02-24T17:43:06.61</time>
<name>2250</name>
</trkpt>
<trkpt lat="48.933648" lon="8.651012">
<ele>360.5</ele>
<speed>3.6</speed>
<course>90.0</course>
<desc>Speed 3.6 km/h Distance 2.38 km</desc>
<time>2010-02-24T17:43:07.61</time>
<name>2251</name>
</trkpt>
<trkpt lat="48.933648" lon="8.651027">
<ele>361.0</ele>
<speed>3.7</speed>
<course>33.3</course>
<desc>Speed 3.7 km/h Distance 2.38 km</desc>
<time>2010-02-24T17:43:08.61</time>
<name>2252</name>
</trkpt>
<trkpt lat="48.933670" lon="8.651048">
<ele>361.5</ele>
<speed>3.8</speed>
<course>58.7</course>
<desc>Speed 3.8 km/h Distance 2.38 km</desc>
<time>2010-02-24T17:43:09.61</time>
<name>2253</name>
</trkpt>
<trkpt lat="48.933677" lon="8.651065">
<ele>361.0</ele>
<speed>2.8</speed>
<course>66.5</course>
<desc>Speed 2.8 km/h Distance 2.39 km</desc>
<time>2010-02-24T17:43:10.61</time>
<name>2254</name>
</trkpt>
<trkpt lat="48.933680" lon="8.651077">
<ele>360.5</ele>
<speed>3.0</speed>
<course>81.3</course>
<desc>Speed 3.0 km/h Distance 2.39 km</desc>
<time>2010-02-24T17:43:11.61</time>
<name>2255</name>
</trkpt>
<trkpt lat="48.933682" lon="8.651093">
<ele>360.5</ele>
<speed>3.6</speed>
<course>31.1</course>
<desc>Speed 3.6 km/h Distance 2.39 km</desc>
<time>2010-02-24T17:43:12.61</time>
<name>2256</name>
</trkpt>
<trkpt lat="48.933702" lon="8.651112">
<ele>361.0</ele>
<speed>2.1</speed>
<course>7.7</course>
<desc>Speed 2.1 km/h Distance 2.39 km</desc>
<time>2010-02-24T17:43:13.61</time>
<name>2257</name>
</trkpt>
<trkpt lat="48.933710" lon="8.651113">
<ele>360.5</ele>
<speed>1.8</speed>
<course>47.8</course>
<desc>Speed 1.8 km/h Distance 2.39 km</desc>
<time>2010-02-24T17:43:14.61</time>
<name>2258</name>
</trkpt>
<trkpt lat="48.933715" lon="8.651122">
<ele>360.0</ele>
<speed>2.0</speed>
<course>66.4</course>
<desc>Speed 2.0 km/h Distance 2.39 km</desc>
<time>2010-02-24T17:43:15.61</time>
<name>2259</name>
</trkpt>
<trkpt lat="48.933718" lon="8.651133">
<ele>360.0</ele>
<speed>2.4</speed>
<course>98.7</course>
<desc>Speed 2.4 km/h Distance 2.39 km</desc>
<time>2010-02-24T17:43:16.61</time>
<name>2260</name>
</trkpt>
<trkpt lat="48.933717" lon="8.651150">
<ele>360.5</ele>
<speed>3.7</speed>
<course>38.1</course>
<desc>Speed 3.7 km/h Distance 2.39 km</desc>
<time>2010-02-24T17:43:17.61</time>
<name>2261</name>
</trkpt>
<trkpt lat="48.933725" lon="8.651160">
<ele>361.0</ele>
<speed>2.7</speed>
<course>22.8</course>
<desc>Speed 2.7 km/h Distance 2.39 km</desc>
<time>2010-02-24T17:43:18.61</time>
<name>2262</name>
</trkpt>
<trkpt lat="48.933767" lon="8.651187">
<ele>361.0</ele>
<speed>2.7</speed>
<course>77.7</course>
<desc>Speed 2.7 km/h Distance 2.40 km</desc>
<time>2010-02-24T17:43:20.61</time>
<name>2263</name>
</trkpt>
<trkpt lat="48.933768" lon="8.651198">
<ele>361.0</ele>
<speed>2.3</speed>
<course>102.3</course>
<desc>Speed 2.3 km/h Distance 2.40 km</desc>
<time>2010-02-24T17:43:21.61</time>
<name>2264</name>
</trkpt>
<trkpt lat="48.933767" lon="8.651210">
<ele>360.5</ele>
<speed>2.8</speed>
<course>42.6</course>
<desc>Speed 2.8 km/h Distance 2.40 km</desc>
<time>2010-02-24T17:43:22.61</time>
<name>2265</name>
</trkpt>
<trkpt lat="48.933775" lon="8.651222">
<ele>360.5</ele>
<speed>2.7</speed>
<course>90.0</course>
<desc>Speed 2.7 km/h Distance 2.40 km</desc>
<time>2010-02-24T17:43:23.61</time>
<name>2266</name>
</trkpt>
<trkpt lat="48.933775" lon="8.651230">
<ele>360.5</ele>
<speed>2.0</speed>
<course>33.4</course>
<desc>Speed 2.0 km/h Distance 2.40 km</desc>
<time>2010-02-24T17:43:24.61</time>
<name>2267</name>
</trkpt>
<trkpt lat="48.933788" lon="8.651243">
<ele>360.5</ele>
<speed>2.4</speed>
<course>104.1</course>
<desc>Speed 2.4 km/h Distance 2.41 km</desc>
<time>2010-02-24T17:43:25.61</time>
<name>2268</name>
</trkpt>
<trkpt lat="48.933787" lon="8.651253">
<ele>360.5</ele>
<speed>2.7</speed>
<course>44.5</course>
<desc>Speed 2.7 km/h Distance 2.41 km</desc>
<time>2010-02-24T17:43:26.61</time>
<name>2269</name>
</trkpt>
<trkpt lat="48.933793" lon="8.651263">
<ele>359.5</ele>
<speed>2.5</speed>
<course>21.5</course>
<desc>Speed 2.5 km/h Distance 2.41 km</desc>
<time>2010-02-24T17:43:27.61</time>
<name>2270</name>
</trkpt>
<trkpt lat="48.933810" lon="8.651273">
<ele>359.0</ele>
<speed>3.6</speed>
<course>63.0</course>
<desc>Speed 3.6 km/h Distance 2.41 km</desc>
<time>2010-02-24T17:43:28.61</time>
<name>2271</name>
</trkpt>
<trkpt lat="48.933813" lon="8.651283">
<ele>359.0</ele>
<speed>2.6</speed>
<course>55.3</course>
<desc>Speed 2.6 km/h Distance 2.41 km</desc>
<time>2010-02-24T17:43:29.61</time>
<name>2272</name>
</trkpt>
<trkpt lat="48.933822" lon="8.651302">
<ele>360.0</ele>
<speed>3.1</speed>
<course>90.0</course>
<desc>Speed 3.1 km/h Distance 2.41 km</desc>
<time>2010-02-24T17:43:30.61</time>
<name>2273</name>
</trkpt>
<trkpt lat="48.933822" lon="8.651312">
<ele>359.5</ele>
<speed>2.1</speed>
<course>90.0</course>
<desc>Speed 2.1 km/h Distance 2.41 km</desc>
<time>2010-02-24T17:43:31.61</time>
<name>2274</name>
</trkpt>
<trkpt lat="48.933822" lon="8.651320">
<ele>358.5</ele>
<speed>1.8</speed>
<course>116.6</course>
<desc>Speed 1.8 km/h Distance 2.41 km</desc>
<time>2010-02-24T17:43:32.61</time>
<name>2275</name>
</trkpt>
<trkpt lat="48.933820" lon="8.651325">
<ele>358.0</ele>
<speed>0.9</speed>
<course>33.2</course>
<desc>Speed 0.9 km/h Distance 2.41 km</desc>
<time>2010-02-24T17:43:33.61</time>
<name>2276</name>
</trkpt>
<trkpt lat="48.933827" lon="8.651332">
<ele>358.5</ele>
<speed>0.6</speed>
<course>9.7</course>
<desc>Speed 0.6 km/h Distance 2.41 km</desc>
<time>2010-02-24T17:43:34.61</time>
<name>2277</name>
</trkpt>
<trkpt lat="48.933840" lon="8.651335">
<ele>359.5</ele>
<speed>0.1</speed>
<course>14.9</course>
<desc>Speed 0.1 km/h Distance 2.42 km</desc>
<time>2010-02-24T17:43:35.61</time>
<name>2278</name>
</trkpt>
<trkpt lat="48.933848" lon="8.651338">
<ele>360.0</ele>
<speed>0.3</speed>
<course>4.4</course>
<desc>Speed 0.3 km/h Distance 2.42 km</desc>
<time>2010-02-24T17:43:36.61</time>
<name>2279</name>
</trkpt>
<trkpt lat="48.933858" lon="8.651340">
<ele>359.5</ele>
<speed>0.0</speed>
<course>0.0</course>
<desc>Speed 0.0 km/h Distance 2.42 km</desc>
<time>2010-02-24T17:43:37.61</time>
<name>2280</name>
</trkpt>
<trkpt lat="48.933867" lon="8.651340">
<ele>359.0</ele>
<speed>0.1</speed>
<course>0.0</course>
<desc>Speed 0.1 km/h Distance 2.42 km</desc>
<time>2010-02-24T17:43:38.61</time>
<name>2281</name>
</trkpt>
<trkpt lat="48.933888" lon="8.651340">
<ele>359.5</ele>
<speed>0.7</speed>
<course>62.6</course>
<desc>Speed 0.7 km/h Distance 2.42 km</desc>
<time>2010-02-24T17:43:40.65</time>
<name>2282</name>
</trkpt>
<trkpt lat="48.933890" lon="8.651345">
<ele>360.0</ele>
<speed>0.9</speed>
<course>17.5</course>
<desc>Speed 0.9 km/h Distance 2.42 km</desc>
<time>2010-02-24T17:43:41.65</time>
<name>2283</name>
</trkpt>
<trkpt lat="48.933897" lon="8.651348">
<ele>360.5</ele>
<speed>0.1</speed>
<course>20.8</course>
<desc>Speed 0.1 km/h Distance 2.42 km</desc>
<time>2010-02-24T17:43:42.65</time>
<name>2284</name>
</trkpt>
<trkpt lat="48.933905" lon="8.651353">
<ele>361.5</ele>
<speed>0.1</speed>
<course>0.0</course>
<desc>Speed 0.1 km/h Distance 2.42 km</desc>
<time>2010-02-24T17:43:43.65</time>
<name>2285</name>
</trkpt>
<trkpt lat="48.933912" lon="8.651353">
<ele>361.0</ele>
<speed>0.0</speed>
<course>62.6</course>
<desc>Speed 0.0 km/h Distance 2.42 km</desc>
<time>2010-02-24T17:43:44.65</time>
<name>2286</name>
</trkpt>
<trkpt lat="48.933913" lon="8.651358">
<ele>362.0</ele>
<speed>0.3</speed>
<course>11.8</course>
<desc>Speed 0.3 km/h Distance 2.42 km</desc>
<time>2010-02-24T17:43:45.65</time>
<name>2287</name>
</trkpt>
<trkpt lat="48.933950" lon="8.651370">
<ele>362.0</ele>
<speed>1.2</speed>
<course>113.5</course>
<desc>Speed 1.2 km/h Distance 2.43 km</desc>
<time>2010-02-24T17:43:47.65</time>
<name>2288</name>
</trkpt>
<trkpt lat="48.933947" lon="8.651382">
<ele>362.0</ele>
<speed>2.0</speed>
<course>53.0</course>
<desc>Speed 2.0 km/h Distance 2.43 km</desc>
<time>2010-02-24T17:43:48.65</time>
<name>2289</name>
</trkpt>
<trkpt lat="48.933950" lon="8.651388">
<ele>361.5</ele>
<speed>2.2</speed>
<course>72.9</course>
<desc>Speed 2.2 km/h Distance 2.43 km</desc>
<time>2010-02-24T17:43:49.65</time>
<name>2290</name>
</trkpt>
<trkpt lat="48.933952" lon="8.651397">
<ele>361.5</ele>
<speed>2.2</speed>
<course>40.9</course>
<desc>Speed 2.2 km/h Distance 2.43 km</desc>
<time>2010-02-24T17:43:50.65</time>
<name>2291</name>
</trkpt>
<trkpt lat="48.933957" lon="8.651403">
<ele>360.5</ele>
<speed>2.1</speed>
<course>33.2</course>
<desc>Speed 2.1 km/h Distance 2.43 km</desc>
<time>2010-02-24T17:43:51.65</time>
<name>2292</name>
</trkpt>
<trkpt lat="48.933965" lon="8.651412">
<ele>360.5</ele>
<speed>3.5</speed>
<course>97.9</course>
<desc>Speed 3.5 km/h Distance 2.43 km</desc>
<time>2010-02-24T17:43:52.65</time>
<name>2293</name>
</trkpt>
<trkpt lat="48.933963" lon="8.651430">
<ele>361.0</ele>
<speed>3.6</speed>
<course>102.3</course>
<desc>Speed 3.6 km/h Distance 2.43 km</desc>
<time>2010-02-24T17:43:53.65</time>
<name>2294</name>
</trkpt>
<trkpt lat="48.933962" lon="8.651442">
<ele>360.5</ele>
<speed>3.0</speed>
<course>141.0</course>
<desc>Speed 3.0 km/h Distance 2.43 km</desc>
<time>2010-02-24T17:43:54.65</time>
<name>2295</name>
</trkpt>
<trkpt lat="48.933955" lon="8.651450">
<ele>360.0</ele>
<speed>3.7</speed>
<course>134.6</course>
<desc>Speed 3.7 km/h Distance 2.44 km</desc>
<time>2010-02-24T17:43:55.65</time>
<name>2296</name>
</trkpt>
<trkpt lat="48.933937" lon="8.651478">
<ele>360.5</ele>
<speed>4.8</speed>
<course>138.2</course>
<desc>Speed 4.8 km/h Distance 2.44 km</desc>
<time>2010-02-24T17:43:56.65</time>
<name>2297</name>
</trkpt>
<trkpt lat="48.933918" lon="8.651503">
<ele>361.0</ele>
<speed>4.4</speed>
<course>127.3</course>
<desc>Speed 4.4 km/h Distance 2.44 km</desc>
<time>2010-02-24T17:43:57.65</time>
<name>2298</name>
</trkpt>
<trkpt lat="48.933907" lon="8.651527">
<ele>361.0</ele>
<speed>3.4</speed>
<course>127.3</course>
<desc>Speed 3.4 km/h Distance 2.44 km</desc>
<time>2010-02-24T17:43:58.65</time>
<name>2299</name>
</trkpt>
<trkpt lat="48.933897" lon="8.651547">
<ele>361.5</ele>
<speed>3.4</speed>
<course>121.4</course>
<desc>Speed 3.4 km/h Distance 2.45 km</desc>
<time>2010-02-24T17:43:59.65</time>
<name>2300</name>
</trkpt>
<trkpt lat="48.933890" lon="8.651563">
<ele>361.5</ele>
<speed>3.6</speed>
<course>135.5</course>
<desc>Speed 3.6 km/h Distance 2.45 km</desc>
<time>2010-02-24T17:44:00.65</time>
<name>2301</name>
</trkpt>
<trkpt lat="48.933880" lon="8.651578">
<ele>361.0</ele>
<speed>4.1</speed>
<course>49.1</course>
<desc>Speed 4.1 km/h Distance 2.45 km</desc>
<time>2010-02-24T17:44:01.65</time>
<name>2302</name>
</trkpt>
<trkpt lat="48.933887" lon="8.651590">
<ele>360.5</ele>
<speed>3.7</speed>
<course>124.9</course>
<desc>Speed 3.7 km/h Distance 2.45 km</desc>
<time>2010-02-24T17:44:02.65</time>
<name>2303</name>
</trkpt>
<trkpt lat="48.933868" lon="8.651630">
<ele>360.5</ele>
<speed>4.4</speed>
<course>116.9</course>
<desc>Speed 4.4 km/h Distance 2.45 km</desc>
<time>2010-02-24T17:44:04.14</time>
<name>2304</name>
</trkpt>
<trkpt lat="48.933863" lon="8.651645">
<ele>360.5</ele>
<speed>3.1</speed>
<course>106.9</course>
<desc>Speed 3.1 km/h Distance 2.45 km</desc>
<time>2010-02-24T17:44:05.14</time>
<name>2305</name>
</trkpt>
<trkpt lat="48.933860" lon="8.651662">
<ele>360.5</ele>
<speed>3.0</speed>
<course>123.1</course>
<desc>Speed 3.0 km/h Distance 2.46 km</desc>
<time>2010-02-24T17:44:06.14</time>
<name>2306</name>
</trkpt>
<trkpt lat="48.933855" lon="8.651673">
<ele>361.0</ele>
<speed>2.2</speed>
<course>48.4</course>
<desc>Speed 2.2 km/h Distance 2.46 km</desc>
<time>2010-02-24T17:44:07.14</time>
<name>2307</name>
</trkpt>
<trkpt lat="48.933867" lon="8.651693">
<ele>361.5</ele>
<speed>3.4</speed>
<course>48.4</course>
<desc>Speed 3.4 km/h Distance 2.46 km</desc>
<time>2010-02-24T17:44:08.15</time>
<name>2308</name>
</trkpt>
<trkpt lat="48.933867" lon="8.651693">
<ele>361.5</ele>
<speed>3.4</speed>
<course>64.6</course>
<desc>Speed 3.4 km/h Distance 2.46 km</desc>
<time>2010-02-24T17:44:08.65</time>
<name>2309</name>
</trkpt>
<trkpt lat="48.933875" lon="8.651720">
<ele>362.0</ele>
<speed>3.0</speed>
<course>90.0</course>
<desc>Speed 3.0 km/h Distance 2.46 km</desc>
<time>2010-02-24T17:44:10.14</time>
<name>2310</name>
</trkpt>
<trkpt lat="48.933875" lon="8.651727">
<ele>362.0</ele>
<speed>1.6</speed>
<course>90.0</course>
<desc>Speed 1.6 km/h Distance 2.46 km</desc>
<time>2010-02-24T17:44:11.15</time>
<name>2311</name>
</trkpt>
<trkpt lat="48.933875" lon="8.651727">
<ele>362.0</ele>
<speed>1.6</speed>
<course>108.1</course>
<desc>Speed 1.6 km/h Distance 2.46 km</desc>
<time>2010-02-24T17:44:11.65</time>
<name>2312</name>
</trkpt>
<trkpt lat="48.933870" lon="8.651750">
<ele>361.5</ele>
<speed>2.6</speed>
<course>110.9</course>
<desc>Speed 2.6 km/h Distance 2.46 km</desc>
<time>2010-02-24T17:44:13.14</time>
<name>2313</name>
</trkpt>
<trkpt lat="48.933868" lon="8.651757">
<ele>360.5</ele>
<speed>1.7</speed>
<course>106.7</course>
<desc>Speed 1.7 km/h Distance 2.46 km</desc>
<time>2010-02-24T17:44:14.14</time>
<name>2314</name>
</trkpt>
<trkpt lat="48.933867" lon="8.651765">
<ele>360.0</ele>
<speed>1.9</speed>
<course>110.8</course>
<desc>Speed 1.9 km/h Distance 2.46 km</desc>
<time>2010-02-24T17:44:15.14</time>
<name>2315</name>
</trkpt>
<trkpt lat="48.933863" lon="8.651778">
<ele>359.5</ele>
<speed>3.2</speed>
<course>75.8</course>
<desc>Speed 3.2 km/h Distance 2.47 km</desc>
<time>2010-02-24T17:44:16.14</time>
<name>2316</name>
</trkpt>
<trkpt lat="48.933865" lon="8.651788">
<ele>359.0</ele>
<speed>2.1</speed>
<course>31.7</course>
<desc>Speed 2.1 km/h Distance 2.47 km</desc>
<time>2010-02-24T17:44:17.14</time>
<name>2317</name>
</trkpt>
<trkpt lat="48.933893" lon="8.651815">
<ele>358.0</ele>
<speed>2.2</speed>
<course>100.7</course>
<desc>Speed 2.2 km/h Distance 2.47 km</desc>
<time>2010-02-24T17:44:19.14</time>
<name>2318</name>
</trkpt>
<trkpt lat="48.933892" lon="8.651828">
<ele>357.5</ele>
<speed>3.0</speed>
<course>102.3</course>
<desc>Speed 3.0 km/h Distance 2.47 km</desc>
<time>2010-02-24T17:44:20.14</time>
<name>2319</name>
</trkpt>
<trkpt lat="48.933890" lon="8.651840">
<ele>356.5</ele>
<speed>3.0</speed>
<course>104.4</course>
<desc>Speed 3.0 km/h Distance 2.47 km</desc>
<time>2010-02-24T17:44:21.14</time>
<name>2320</name>
</trkpt>
<trkpt lat="48.933888" lon="8.651850">
<ele>355.5</ele>
<speed>3.0</speed>
<course>106.9</course>
<desc>Speed 3.0 km/h Distance 2.47 km</desc>
<time>2010-02-24T17:44:22.14</time>
<name>2321</name>
</trkpt>
<trkpt lat="48.933885" lon="8.651867">
<ele>355.0</ele>
<speed>3.7</speed>
<course>90.0</course>
<desc>Speed 3.7 km/h Distance 2.47 km</desc>
<time>2010-02-24T17:44:23.14</time>
<name>2322</name>
</trkpt>
<trkpt lat="48.933885" lon="8.651878">
<ele>353.5</ele>
<speed>3.5</speed>
<course>116.9</course>
<desc>Speed 3.5 km/h Distance 2.47 km</desc>
<time>2010-02-24T17:44:24.14</time>
<name>2323</name>
</trkpt>
<trkpt lat="48.933880" lon="8.651893">
<ele>353.0</ele>
<speed>3.9</speed>
<course>73.1</course>
<desc>Speed 3.9 km/h Distance 2.48 km</desc>
<time>2010-02-24T17:44:25.14</time>
<name>2324</name>
</trkpt>
<trkpt lat="48.933883" lon="8.651910">
<ele>353.0</ele>
<speed>4.1</speed>
<course>73.0</course>
<desc>Speed 4.1 km/h Distance 2.48 km</desc>
<time>2010-02-24T17:44:26.14</time>
<name>2325</name>
</trkpt>
<trkpt lat="48.933887" lon="8.651927">
<ele>353.0</ele>
<speed>3.7</speed>
<course>98.6</course>
<desc>Speed 3.7 km/h Distance 2.48 km</desc>
<time>2010-02-24T17:44:27.14</time>
<name>2326</name>
</trkpt>
<trkpt lat="48.933885" lon="8.651943">
<ele>353.0</ele>
<speed>3.5</speed>
<course>90.0</course>
<desc>Speed 3.5 km/h Distance 2.48 km</desc>
<time>2010-02-24T17:44:28.14</time>
<name>2327</name>
</trkpt>
<trkpt lat="48.933885" lon="8.651962">
<ele>353.5</ele>
<speed>4.0</speed>
<course>80.4</course>
<desc>Speed 4.0 km/h Distance 2.48 km</desc>
<time>2010-02-24T17:44:29.14</time>
<name>2328</name>
</trkpt>
<trkpt lat="48.933887" lon="8.651977">
<ele>354.0</ele>
<speed>2.8</speed>
<course>26.7</course>
<desc>Speed 2.8 km/h Distance 2.48 km</desc>
<time>2010-02-24T17:44:30.14</time>
<name>2329</name>
</trkpt>
<trkpt lat="48.933943" lon="8.652020">
<ele>354.5</ele>
<speed>3.5</speed>
<course>26.7</course>
<desc>Speed 3.5 km/h Distance 2.49 km</desc>
<time>2010-02-24T17:44:32.16</time>
<name>2330</name>
</trkpt>
<trkpt lat="48.933943" lon="8.652020">
<ele>354.5</ele>
<speed>3.5</speed>
<course>94.4</course>
<desc>Speed 3.5 km/h Distance 2.49 km</desc>
<time>2010-02-24T17:44:32.65</time>
<name>2331</name>
</trkpt>
<trkpt lat="48.933942" lon="8.652053">
<ele>354.0</ele>
<speed>3.1</speed>
<course>105.5</course>
<desc>Speed 3.1 km/h Distance 2.49 km</desc>
<time>2010-02-24T17:44:34.13</time>
<name>2332</name>
</trkpt>
<trkpt lat="48.933938" lon="8.652072">
<ele>354.0</ele>
<speed>3.6</speed>
<course>69.2</course>
<desc>Speed 3.6 km/h Distance 2.49 km</desc>
<time>2010-02-24T17:44:35.16</time>
<name>2333</name>
</trkpt>
<trkpt lat="48.933943" lon="8.652092">
<ele>354.5</ele>
<speed>0.9</speed>
<course>27.0</course>
<desc>Speed 0.9 km/h Distance 2.49 km</desc>
<time>2010-02-24T17:44:37.13</time>
<name>2334</name>
</trkpt>
<trkpt lat="48.933952" lon="8.652098">
<ele>355.0</ele>
<speed>1.5</speed>
<course>1.9</course>
<desc>Speed 1.5 km/h Distance 2.50 km</desc>
<time>2010-02-24T17:44:38.13</time>
<name>2335</name>
</trkpt>
<trkpt lat="48.933967" lon="8.652100">
<ele>356.0</ele>
<speed>0.9</speed>
<course>6.5</course>
<desc>Speed 0.9 km/h Distance 2.50 km</desc>
<time>2010-02-24T17:44:39.13</time>
<name>2336</name>
</trkpt>
<trkpt lat="48.933985" lon="8.652103">
<ele>357.0</ele>
<speed>2.0</speed>
<course>12.2</course>
<desc>Speed 2.0 km/h Distance 2.50 km</desc>
<time>2010-02-24T17:44:40.13</time>
<name>2337</name>
</trkpt>
<trkpt lat="48.934000" lon="8.652108">
<ele>358.5</ele>
<speed>0.7</speed>
<course>40.9</course>
<desc>Speed 0.7 km/h Distance 2.50 km</desc>
<time>2010-02-24T17:44:41.13</time>
<name>2338</name>
</trkpt>
<trkpt lat="48.934005" lon="8.652115">
<ele>358.5</ele>
<speed>1.0</speed>
<course>44.5</course>
<desc>Speed 1.0 km/h Distance 2.50 km</desc>
<time>2010-02-24T17:44:42.14</time>
<name>2339</name>
</trkpt>
<trkpt lat="48.934008" lon="8.652120">
<ele>359.5</ele>
<speed>0.2</speed>
<course>128.1</course>
<desc>Speed 0.2 km/h Distance 2.50 km</desc>
<time>2010-02-24T17:44:43.13</time>
<name>2340</name>
</trkpt>
<trkpt lat="48.934007" lon="8.652123">
<ele>359.5</ele>
<speed>0.1</speed>
<course>121.4</course>
<desc>Speed 0.1 km/h Distance 2.50 km</desc>
<time>2010-02-24T17:44:44.13</time>
<name>2341</name>
</trkpt>
<trkpt lat="48.934003" lon="8.652132">
<ele>359.0</ele>
<speed>2.6</speed>
<course>63.0</course>
<desc>Speed 2.6 km/h Distance 2.50 km</desc>
<time>2010-02-24T17:44:45.13</time>
<name>2342</name>
</trkpt>
<trkpt lat="48.934007" lon="8.652142">
<ele>358.5</ele>
<speed>2.1</speed>
<course>81.3</course>
<desc>Speed 2.1 km/h Distance 2.50 km</desc>
<time>2010-02-24T17:44:46.13</time>
<name>2343</name>
</trkpt>
<trkpt lat="48.934008" lon="8.652158">
<ele>358.5</ele>
<speed>3.7</speed>
<course>82.8</course>
<desc>Speed 3.7 km/h Distance 2.51 km</desc>
<time>2010-02-24T17:44:47.13</time>
<name>2344</name>
</trkpt>
<trkpt lat="48.934010" lon="8.652178">
<ele>358.5</ele>
<speed>4.2</speed>
<course>43.3</course>
<desc>Speed 4.2 km/h Distance 2.51 km</desc>
<time>2010-02-24T17:44:48.13</time>
<name>2345</name>
</trkpt>
<trkpt lat="48.934022" lon="8.652195">
<ele>358.0</ele>
<speed>3.9</speed>
<course>120.3</course>
<desc>Speed 3.9 km/h Distance 2.51 km</desc>
<time>2010-02-24T17:44:49.13</time>
<name>2346</name>
</trkpt>
<trkpt lat="48.934013" lon="8.652217">
<ele>358.5</ele>
<speed>4.0</speed>
<course>112.1</course>
<desc>Speed 4.0 km/h Distance 2.51 km</desc>
<time>2010-02-24T17:44:50.13</time>
<name>2347</name>
</trkpt>
<trkpt lat="48.934007" lon="8.652242">
<ele>358.5</ele>
<speed>4.4</speed>
<course>118.5</course>
<desc>Speed 4.4 km/h Distance 2.51 km</desc>
<time>2010-02-24T17:44:51.13</time>
<name>2348</name>
</trkpt>
<trkpt lat="48.933998" lon="8.652265">
<ele>358.5</ele>
<speed>4.3</speed>
<course>113.5</course>
<desc>Speed 4.3 km/h Distance 2.51 km</desc>
<time>2010-02-24T17:44:52.13</time>
<name>2349</name>
</trkpt>
<trkpt lat="48.933992" lon="8.652288">
<ele>358.5</ele>
<speed>3.7</speed>
<course>90.0</course>
<desc>Speed 3.7 km/h Distance 2.52 km</desc>
<time>2010-02-24T17:44:53.13</time>
<name>2350</name>
</trkpt>
<trkpt lat="48.933992" lon="8.652307">
<ele>358.0</ele>
<speed>3.5</speed>
<course>98.7</course>
<desc>Speed 3.5 km/h Distance 2.52 km</desc>
<time>2010-02-24T17:44:54.13</time>
<name>2351</name>
</trkpt>
<trkpt lat="48.933990" lon="8.652323">
<ele>358.0</ele>
<speed>3.9</speed>
<course>90.0</course>
<desc>Speed 3.9 km/h Distance 2.52 km</desc>
<time>2010-02-24T17:44:55.13</time>
<name>2352</name>
</trkpt>
<trkpt lat="48.933990" lon="8.652342">
<ele>358.0</ele>
<speed>3.7</speed>
<course>104.2</course>
<desc>Speed 3.7 km/h Distance 2.52 km</desc>
<time>2010-02-24T17:44:56.13</time>
<name>2353</name>
</trkpt>
<trkpt lat="48.933987" lon="8.652362">
<ele>358.0</ele>
<speed>3.6</speed>
<course>110.8</course>
<desc>Speed 3.6 km/h Distance 2.52 km</desc>
<time>2010-02-24T17:44:57.13</time>
<name>2354</name>
</trkpt>
<trkpt lat="48.933982" lon="8.652382">
<ele>358.0</ele>
<speed>4.0</speed>
<course>98.7</course>
<desc>Speed 4.0 km/h Distance 2.52 km</desc>
<time>2010-02-24T17:44:58.13</time>
<name>2355</name>
</trkpt>
<trkpt lat="48.933980" lon="8.652398">
<ele>358.0</ele>
<speed>3.8</speed>
<course>90.0</course>
<desc>Speed 3.8 km/h Distance 2.52 km</desc>
<time>2010-02-24T17:44:59.13</time>
<name>2356</name>
</trkpt>
<trkpt lat="48.933980" lon="8.652418">
<ele>358.0</ele>
<speed>4.2</speed>
<course>79.2</course>
<desc>Speed 4.2 km/h Distance 2.53 km</desc>
<time>2010-02-24T17:45:00.12</time>
<name>2357</name>
</trkpt>
<trkpt lat="48.933982" lon="8.652432">
<ele>357.5</ele>
<speed>3.1</speed>
<course>113.6</course>
<desc>Speed 3.1 km/h Distance 2.53 km</desc>
<time>2010-02-24T17:45:01.12</time>
<name>2358</name>
</trkpt>
<trkpt lat="48.933978" lon="8.652443">
<ele>356.5</ele>
<speed>3.2</speed>
<course>80.4</course>
<desc>Speed 3.2 km/h Distance 2.53 km</desc>
<time>2010-02-24T17:45:02.12</time>
<name>2359</name>
</trkpt>
<trkpt lat="48.933980" lon="8.652458">
<ele>356.5</ele>
<speed>4.0</speed>
<course>97.2</course>
<desc>Speed 4.0 km/h Distance 2.53 km</desc>
<time>2010-02-24T17:45:03.12</time>
<name>2360</name>
</trkpt>
<trkpt lat="48.933978" lon="8.652478">
<ele>357.0</ele>
<speed>4.6</speed>
<course>104.2</course>
<desc>Speed 4.6 km/h Distance 2.53 km</desc>
<time>2010-02-24T17:45:04.12</time>
<name>2361</name>
</trkpt>
<trkpt lat="48.933975" lon="8.652498">
<ele>357.0</ele>
<speed>3.7</speed>
<course>81.3</course>
<desc>Speed 3.7 km/h Distance 2.53 km</desc>
<time>2010-02-24T17:45:05.12</time>
<name>2362</name>
</trkpt>
<trkpt lat="48.933977" lon="8.652515">
<ele>357.0</ele>
<speed>4.0</speed>
<course>90.0</course>
<desc>Speed 4.0 km/h Distance 2.53 km</desc>
<time>2010-02-24T17:45:06.12</time>
<name>2363</name>
</trkpt>
<trkpt lat="48.933977" lon="8.652532">
<ele>357.0</ele>
<speed>3.9</speed>
<course>71.3</course>
<desc>Speed 3.9 km/h Distance 2.53 km</desc>
<time>2010-02-24T17:45:07.12</time>
<name>2364</name>
</trkpt>
<trkpt lat="48.933980" lon="8.652547">
<ele>357.0</ele>
<speed>3.6</speed>
<course>82.1</course>
<desc>Speed 3.6 km/h Distance 2.54 km</desc>
<time>2010-02-24T17:45:08.12</time>
<name>2365</name>
</trkpt>
<trkpt lat="48.933982" lon="8.652565">
<ele>357.0</ele>
<speed>4.0</speed>
<course>105.5</course>
<desc>Speed 4.0 km/h Distance 2.54 km</desc>
<time>2010-02-24T17:45:09.12</time>
<name>2366</name>
</trkpt>
<trkpt lat="48.933978" lon="8.652583">
<ele>356.5</ele>
<speed>3.5</speed>
<course>73.0</course>
<desc>Speed 3.5 km/h Distance 2.54 km</desc>
<time>2010-02-24T17:45:10.12</time>
<name>2367</name>
</trkpt>
<trkpt lat="48.933982" lon="8.652600">
<ele>356.5</ele>
<speed>3.5</speed>
<course>77.7</course>
<desc>Speed 3.5 km/h Distance 2.54 km</desc>
<time>2010-02-24T17:45:11.13</time>
<name>2368</name>
</trkpt>
<trkpt lat="48.933983" lon="8.652612">
<ele>356.0</ele>
<speed>2.7</speed>
<course>90.0</course>
<desc>Speed 2.7 km/h Distance 2.54 km</desc>
<time>2010-02-24T17:45:12.12</time>
<name>2369</name>
</trkpt>
<trkpt lat="48.933983" lon="8.652625">
<ele>355.5</ele>
<speed>2.7</speed>
<course>69.2</course>
<desc>Speed 2.7 km/h Distance 2.54 km</desc>
<time>2010-02-24T17:45:13.12</time>
<name>2370</name>
</trkpt>
<trkpt lat="48.933987" lon="8.652638">
<ele>355.0</ele>
<speed>3.0</speed>
<course>81.4</course>
<desc>Speed 3.0 km/h Distance 2.54 km</desc>
<time>2010-02-24T17:45:14.12</time>
<name>2371</name>
</trkpt>
<trkpt lat="48.933988" lon="8.652655">
<ele>355.0</ele>
<speed>3.6</speed>
<course>77.8</course>
<desc>Speed 3.6 km/h Distance 2.54 km</desc>
<time>2010-02-24T17:45:15.12</time>
<name>2372</name>
</trkpt>
<trkpt lat="48.933990" lon="8.652667">
<ele>354.5</ele>
<speed>2.8</speed>
<course>66.5</course>
<desc>Speed 2.8 km/h Distance 2.54 km</desc>
<time>2010-02-24T17:45:16.12</time>
<name>2373</name>
</trkpt>
<trkpt lat="48.933993" lon="8.652678">
<ele>354.0</ele>
<speed>2.7</speed>
<course>71.3</course>
<desc>Speed 2.7 km/h Distance 2.55 km</desc>
<time>2010-02-24T17:45:17.12</time>
<name>2374</name>
</trkpt>
<trkpt lat="48.933997" lon="8.652693">
<ele>353.5</ele>
<speed>3.1</speed>
<course>80.4</course>
<desc>Speed 3.1 km/h Distance 2.55 km</desc>
<time>2010-02-24T17:45:18.12</time>
<name>2375</name>
</trkpt>
<trkpt lat="48.933998" lon="8.652708">
<ele>353.5</ele>
<speed>2.9</speed>
<course>35.6</course>
<desc>Speed 2.9 km/h Distance 2.55 km</desc>
<time>2010-02-24T17:45:19.12</time>
<name>2376</name>
</trkpt>
<trkpt lat="48.934035" lon="8.652748">
<ele>353.0</ele>
<speed>3.3</speed>
<course>103.2</course>
<desc>Speed 3.3 km/h Distance 2.55 km</desc>
<time>2010-02-24T17:45:21.11</time>
<name>2377</name>
</trkpt>
<trkpt lat="48.934032" lon="8.652770">
<ele>352.5</ele>
<speed>3.7</speed>
<course>113.5</course>
<desc>Speed 3.7 km/h Distance 2.55 km</desc>
<time>2010-02-24T17:45:22.11</time>
<name>2378</name>
</trkpt>
<trkpt lat="48.934025" lon="8.652793">
<ele>353.0</ele>
<speed>4.2</speed>
<course>81.4</course>
<desc>Speed 4.2 km/h Distance 2.56 km</desc>
<time>2010-02-24T17:45:23.11</time>
<name>2379</name>
</trkpt>
<trkpt lat="48.934027" lon="8.652810">
<ele>352.5</ele>
<speed>3.7</speed>
<course>106.9</course>
<desc>Speed 3.7 km/h Distance 2.56 km</desc>
<time>2010-02-24T17:45:24.11</time>
<name>2380</name>
</trkpt>
<trkpt lat="48.934023" lon="8.652827">
<ele>352.5</ele>
<speed>3.3</speed>
<course>106.9</course>
<desc>Speed 3.3 km/h Distance 2.56 km</desc>
<time>2010-02-24T17:45:25.11</time>
<name>2381</name>
</trkpt>
<trkpt lat="48.934020" lon="8.652843">
<ele>352.5</ele>
<speed>3.2</speed>
<course>38.6</course>
<desc>Speed 3.2 km/h Distance 2.56 km</desc>
<time>2010-02-24T17:45:26.11</time>
<name>2382</name>
</trkpt>
<trkpt lat="48.934043" lon="8.652872">
<ele>353.0</ele>
<speed>1.9</speed>
<course>114.5</course>
<desc>Speed 1.9 km/h Distance 2.56 km</desc>
<time>2010-02-24T17:45:28.11</time>
<name>2383</name>
</trkpt>
<trkpt lat="48.934038" lon="8.652888">
<ele>353.5</ele>
<speed>3.3</speed>
<course>104.2</course>
<desc>Speed 3.3 km/h Distance 2.56 km</desc>
<time>2010-02-24T17:45:29.11</time>
<name>2384</name>
</trkpt>
<trkpt lat="48.934035" lon="8.652908">
<ele>353.5</ele>
<speed>4.1</speed>
<course>79.3</course>
<desc>Speed 4.1 km/h Distance 2.57 km</desc>
<time>2010-02-24T17:45:30.11</time>
<name>2385</name>
</trkpt>
<trkpt lat="48.934037" lon="8.652922">
<ele>353.5</ele>
<speed>3.2</speed>
<course>23.8</course>
<desc>Speed 3.2 km/h Distance 2.57 km</desc>
<time>2010-02-24T17:45:31.11</time>
<name>2386</name>
</trkpt>
<trkpt lat="48.934203" lon="8.653033">
<ele>360.5</ele>
<speed>4.0</speed>
<course>97.2</course>
<desc>Speed 4.0 km/h Distance 2.59 km</desc>
<time>2010-02-24T17:45:34.11</time>
<name>2387</name>
</trkpt>
<trkpt lat="48.934202" lon="8.653053">
<ele>360.5</ele>
<speed>4.4</speed>
<course>81.3</course>
<desc>Speed 4.4 km/h Distance 2.59 km</desc>
<time>2010-02-24T17:45:35.11</time>
<name>2388</name>
</trkpt>
<trkpt lat="48.934203" lon="8.653070">
<ele>360.0</ele>
<speed>4.1</speed>
<course>49.7</course>
<desc>Speed 4.1 km/h Distance 2.59 km</desc>
<time>2010-02-24T17:45:36.11</time>
<name>2389</name>
</trkpt>
<trkpt lat="48.934212" lon="8.653085">
<ele>360.0</ele>
<speed>3.8</speed>
<course>81.3</course>
<desc>Speed 3.8 km/h Distance 2.59 km</desc>
<time>2010-02-24T17:45:37.11</time>
<name>2390</name>
</trkpt>
<trkpt lat="48.934213" lon="8.653102">
<ele>360.0</ele>
<speed>4.2</speed>
<course>48.4</course>
<desc>Speed 4.2 km/h Distance 2.59 km</desc>
<time>2010-02-24T17:45:38.11</time>
<name>2391</name>
</trkpt>
<trkpt lat="48.934225" lon="8.653122">
<ele>360.0</ele>
<speed>4.5</speed>
<course>43.1</course>
<desc>Speed 4.5 km/h Distance 2.59 km</desc>
<time>2010-02-24T17:45:39.11</time>
<name>2392</name>
</trkpt>
<trkpt lat="48.934237" lon="8.653138">
<ele>359.5</ele>
<speed>3.9</speed>
<course>80.4</course>
<desc>Speed 3.9 km/h Distance 2.60 km</desc>
<time>2010-02-24T17:45:40.11</time>
<name>2393</name>
</trkpt>
<trkpt lat="48.934238" lon="8.653153">
<ele>359.0</ele>
<speed>3.3</speed>
<course>81.3</course>
<desc>Speed 3.3 km/h Distance 2.60 km</desc>
<time>2010-02-24T17:45:41.11</time>
<name>2394</name>
</trkpt>
<trkpt lat="48.934240" lon="8.653170">
<ele>359.5</ele>
<speed>4.1</speed>
<course>81.3</course>
<desc>Speed 4.1 km/h Distance 2.60 km</desc>
<time>2010-02-24T17:45:42.11</time>
<name>2395</name>
</trkpt>
<trkpt lat="48.934242" lon="8.653187">
<ele>359.5</ele>
<speed>4.0</speed>
<course>90.0</course>
<desc>Speed 4.0 km/h Distance 2.60 km</desc>
<time>2010-02-24T17:45:43.11</time>
<name>2396</name>
</trkpt>
<trkpt lat="48.934242" lon="8.653205">
<ele>359.5</ele>
<speed>4.4</speed>
<course>74.5</course>
<desc>Speed 4.4 km/h Distance 2.60 km</desc>
<time>2010-02-24T17:45:44.11</time>
<name>2397</name>
</trkpt>
<trkpt lat="48.934245" lon="8.653223">
<ele>359.5</ele>
<speed>4.2</speed>
<course>98.7</course>
<desc>Speed 4.2 km/h Distance 2.60 km</desc>
<time>2010-02-24T17:45:45.11</time>
<name>2398</name>
</trkpt>
<trkpt lat="48.934243" lon="8.653240">
<ele>359.5</ele>
<speed>4.0</speed>
<course>80.4</course>
<desc>Speed 4.0 km/h Distance 2.60 km</desc>
<time>2010-02-24T17:45:46.11</time>
<name>2399</name>
</trkpt>
<trkpt lat="48.934245" lon="8.653255">
<ele>359.0</ele>
<speed>3.4</speed>
<course>63.0</course>
<desc>Speed 3.4 km/h Distance 2.61 km</desc>
<time>2010-02-24T17:45:47.10</time>
<name>2400</name>
</trkpt>
<trkpt lat="48.934248" lon="8.653265">
<ele>358.5</ele>
<speed>3.0</speed>
<course>56.7</course>
<desc>Speed 3.0 km/h Distance 2.61 km</desc>
<time>2010-02-24T17:45:48.10</time>
<name>2401</name>
</trkpt>
<trkpt lat="48.934253" lon="8.653277">
<ele>357.5</ele>
<speed>2.9</speed>
<course>90.0</course>
<desc>Speed 2.9 km/h Distance 2.61 km</desc>
<time>2010-02-24T17:45:49.10</time>
<name>2402</name>
</trkpt>
<trkpt lat="48.934253" lon="8.653295">
<ele>357.0</ele>
<speed>3.6</speed>
<course>63.1</course>
<desc>Speed 3.6 km/h Distance 2.61 km</desc>
<time>2010-02-24T17:45:50.10</time>
<name>2403</name>
</trkpt>
<trkpt lat="48.934258" lon="8.653310">
<ele>357.0</ele>
<speed>3.5</speed>
<course>114.6</course>
<desc>Speed 3.5 km/h Distance 2.61 km</desc>
<time>2010-02-24T17:45:51.10</time>
<name>2404</name>
</trkpt>
<trkpt lat="48.934253" lon="8.653327">
<ele>356.5</ele>
<speed>2.8</speed>
<course>135.5</course>
<desc>Speed 2.8 km/h Distance 2.61 km</desc>
<time>2010-02-24T17:45:52.10</time>
<name>2405</name>
</trkpt>
<trkpt lat="48.934243" lon="8.653342">
<ele>356.0</ele>
<speed>3.7</speed>
<course>52.8</course>
<desc>Speed 3.7 km/h Distance 2.61 km</desc>
<time>2010-02-24T17:45:53.10</time>
<name>2406</name>
</trkpt>
<trkpt lat="48.934255" lon="8.653365">
<ele>358.0</ele>
<speed>6.2</speed>
<course>98.7</course>
<desc>Speed 6.2 km/h Distance 2.61 km</desc>
<time>2010-02-24T17:45:54.10</time>
<name>2407</name>
</trkpt>
<trkpt lat="48.934253" lon="8.653382">
<ele>358.0</ele>
<speed>3.2</speed>
<course>124.1</course>
<desc>Speed 3.2 km/h Distance 2.62 km</desc>
<time>2010-02-24T17:45:55.10</time>
<name>2408</name>
</trkpt>
<trkpt lat="48.934247" lon="8.653397">
<ele>358.0</ele>
<speed>2.5</speed>
<course>99.6</course>
<desc>Speed 2.5 km/h Distance 2.62 km</desc>
<time>2010-02-24T17:45:56.10</time>
<name>2409</name>
</trkpt>
<trkpt lat="48.934245" lon="8.653412">
<ele>358.0</ele>
<speed>3.1</speed>
<course>90.0</course>
<desc>Speed 3.1 km/h Distance 2.62 km</desc>
<time>2010-02-24T17:45:57.10</time>
<name>2410</name>
</trkpt>
<trkpt lat="48.934245" lon="8.653422">
<ele>357.5</ele>
<speed>2.8</speed>
<course>66.5</course>
<desc>Speed 2.8 km/h Distance 2.62 km</desc>
<time>2010-02-24T17:45:58.10</time>
<name>2411</name>
</trkpt>
<trkpt lat="48.934248" lon="8.653433">
<ele>357.0</ele>
<speed>3.1</speed>
<course>71.3</course>
<desc>Speed 3.1 km/h Distance 2.62 km</desc>
<time>2010-02-24T17:45:59.10</time>
<name>2412</name>
</trkpt>
<trkpt lat="48.934252" lon="8.653448">
<ele>357.0</ele>
<speed>4.0</speed>
<course>146.6</course>
<desc>Speed 4.0 km/h Distance 2.62 km</desc>
<time>2010-02-24T17:46:00.10</time>
<name>2413</name>
</trkpt>
<trkpt lat="48.934238" lon="8.653462">
<ele>356.0</ele>
<speed>8.1</speed>
<course>66.5</course>
<desc>Speed 8.1 km/h Distance 2.62 km</desc>
<time>2010-02-24T17:46:02.10</time>
<name>2414</name>
</trkpt>
<trkpt lat="48.934242" lon="8.653473">
<ele>356.0</ele>
<speed>3.6</speed>
<course>69.1</course>
<desc>Speed 3.6 km/h Distance 2.62 km</desc>
<time>2010-02-24T17:46:03.10</time>
<name>2415</name>
</trkpt>
<trkpt lat="48.934245" lon="8.653487">
<ele>356.0</ele>
<speed>3.2</speed>
<course>16.3</course>
<desc>Speed 3.2 km/h Distance 2.62 km</desc>
<time>2010-02-24T17:46:04.09</time>
<name>2416</name>
</trkpt>
<trkpt lat="48.934260" lon="8.653493">
<ele>355.5</ele>
<speed>1.7</speed>
<course>56.9</course>
<desc>Speed 1.7 km/h Distance 2.63 km</desc>
<time>2010-02-24T17:46:05.09</time>
<name>2417</name>
</trkpt>
<trkpt lat="48.934265" lon="8.653505">
<ele>355.5</ele>
<speed>3.6</speed>
<course>52.7</course>
<desc>Speed 3.6 km/h Distance 2.63 km</desc>
<time>2010-02-24T17:46:06.09</time>
<name>2418</name>
</trkpt>
<trkpt lat="48.934272" lon="8.653518">
<ele>355.5</ele>
<speed>3.7</speed>
<course>102.3</course>
<desc>Speed 3.7 km/h Distance 2.63 km</desc>
<time>2010-02-24T17:46:07.13</time>
<name>2419</name>
</trkpt>
<trkpt lat="48.934270" lon="8.653530">
<ele>355.5</ele>
<speed>2.4</speed>
<course>43.1</course>
<desc>Speed 2.4 km/h Distance 2.63 km</desc>
<time>2010-02-24T17:46:08.09</time>
<name>2420</name>
</trkpt>
<trkpt lat="48.934282" lon="8.653547">
<ele>356.0</ele>
<speed>6.2</speed>
<course>113.6</course>
<desc>Speed 6.2 km/h Distance 2.63 km</desc>
<time>2010-02-24T17:46:09.09</time>
<name>2421</name>
</trkpt>
<trkpt lat="48.934278" lon="8.653558">
<ele>355.5</ele>
<speed>3.0</speed>
<course>69.1</course>
<desc>Speed 3.0 km/h Distance 2.63 km</desc>
<time>2010-02-24T17:46:10.12</time>
<name>2422</name>
</trkpt>
<trkpt lat="48.934282" lon="8.653572">
<ele>355.0</ele>
<speed>3.3</speed>
<course>69.1</course>
<desc>Speed 3.3 km/h Distance 2.63 km</desc>
<time>2010-02-24T17:46:11.10</time>
<name>2423</name>
</trkpt>
<trkpt lat="48.934285" lon="8.653585">
<ele>354.5</ele>
<speed>3.9</speed>
<course>80.4</course>
<desc>Speed 3.9 km/h Distance 2.63 km</desc>
<time>2010-02-24T17:46:12.09</time>
<name>2424</name>
</trkpt>
<trkpt lat="48.934287" lon="8.653600">
<ele>354.0</ele>
<speed>3.3</speed>
<course>79.3</course>
<desc>Speed 3.3 km/h Distance 2.64 km</desc>
<time>2010-02-24T17:46:13.12</time>
<name>2425</name>
</trkpt>
<trkpt lat="48.934288" lon="8.653613">
<ele>354.0</ele>
<speed>3.4</speed>
<course>60.3</course>
<desc>Speed 3.4 km/h Distance 2.64 km</desc>
<time>2010-02-24T17:46:14.09</time>
<name>2426</name>
</trkpt>
<trkpt lat="48.934293" lon="8.653627">
<ele>353.5</ele>
<speed>3.6</speed>
<course>65.5</course>
<desc>Speed 3.6 km/h Distance 2.64 km</desc>
<time>2010-02-24T17:46:15.09</time>
<name>2427</name>
</trkpt>
<trkpt lat="48.934298" lon="8.653643">
<ele>354.0</ele>
<speed>4.1</speed>
<course>73.1</course>
<desc>Speed 4.1 km/h Distance 2.64 km</desc>
<time>2010-02-24T17:46:16.09</time>
<name>2428</name>
</trkpt>
<trkpt lat="48.934302" lon="8.653660">
<ele>354.0</ele>
<speed>4.0</speed>
<course>20.2</course>
<desc>Speed 4.0 km/h Distance 2.64 km</desc>
<time>2010-02-24T17:46:17.09</time>
<name>2429</name>
</trkpt>
<trkpt lat="48.934370" lon="8.653698">
<ele>354.0</ele>
<speed>2.5</speed>
<course>16.6</course>
<desc>Speed 2.5 km/h Distance 2.65 km</desc>
<time>2010-02-24T17:46:19.09</time>
<name>2430</name>
</trkpt>
<trkpt lat="48.934443" lon="8.653732">
<ele>353.5</ele>
<speed>2.6</speed>
<course>17.8</course>
<desc>Speed 2.6 km/h Distance 2.66 km</desc>
<time>2010-02-24T17:46:21.09</time>
<name>2431</name>
</trkpt>
<trkpt lat="48.934512" lon="8.653765">
<ele>354.0</ele>
<speed>1.9</speed>
<course>28.6</course>
<desc>Speed 1.9 km/h Distance 2.66 km</desc>
<time>2010-02-24T17:46:23.09</time>
<name>2432</name>
</trkpt>
<trkpt lat="48.934522" lon="8.653773">
<ele>353.0</ele>
<speed>1.8</speed>
<course>32.2</course>
<desc>Speed 1.8 km/h Distance 2.67 km</desc>
<time>2010-02-24T17:46:24.09</time>
<name>2433</name>
</trkpt>
<trkpt lat="48.934562" lon="8.653812">
<ele>355.0</ele>
<speed>4.2</speed>
<course>32.5</course>
<desc>Speed 4.2 km/h Distance 2.67 km</desc>
<time>2010-02-24T17:46:26.09</time>
<name>2434</name>
</trkpt>
<trkpt lat="48.934617" lon="8.653865">
<ele>358.5</ele>
<speed>3.5</speed>
<course>35.3</course>
<desc>Speed 3.5 km/h Distance 2.68 km</desc>
<time>2010-02-24T17:46:28.08</time>
<name>2435</name>
</trkpt>
<trkpt lat="48.934638" lon="8.653888">
<ele>360.0</ele>
<speed>3.5</speed>
<course>41.8</course>
<desc>Speed 3.5 km/h Distance 2.68 km</desc>
<time>2010-02-24T17:46:29.08</time>
<name>2436</name>
</trkpt>
<trkpt lat="48.934657" lon="8.653913">
<ele>362.0</ele>
<speed>4.0</speed>
<course>124.0</course>
<desc>Speed 4.0 km/h Distance 2.68 km</desc>
<time>2010-02-24T17:46:30.08</time>
<name>2437</name>
</trkpt>
<trkpt lat="48.934650" lon="8.653928">
<ele>361.5</ele>
<speed>3.5</speed>
<course>98.7</course>
<desc>Speed 3.5 km/h Distance 2.69 km</desc>
<time>2010-02-24T17:46:31.08</time>
<name>2438</name>
</trkpt>
<trkpt lat="48.934648" lon="8.653945">
<ele>361.0</ele>
<speed>3.7</speed>
<course>112.6</course>
<desc>Speed 3.7 km/h Distance 2.69 km</desc>
<time>2010-02-24T17:46:32.08</time>
<name>2439</name>
</trkpt>
<trkpt lat="48.934643" lon="8.653963">
<ele>361.0</ele>
<speed>4.2</speed>
<course>114.6</course>
<desc>Speed 4.2 km/h Distance 2.69 km</desc>
<time>2010-02-24T17:46:33.08</time>
<name>2440</name>
</trkpt>
<trkpt lat="48.934638" lon="8.653980">
<ele>361.0</ele>
<speed>4.1</speed>
<course>110.8</course>
<desc>Speed 4.1 km/h Distance 2.69 km</desc>
<time>2010-02-24T17:46:34.08</time>
<name>2441</name>
</trkpt>
<trkpt lat="48.934633" lon="8.654000">
<ele>361.0</ele>
<speed>4.3</speed>
<course>119.0</course>
<desc>Speed 4.3 km/h Distance 2.69 km</desc>
<time>2010-02-24T17:46:35.08</time>
<name>2442</name>
</trkpt>
<trkpt lat="48.934627" lon="8.654018">
<ele>361.0</ele>
<speed>4.5</speed>
<course>104.2</course>
<desc>Speed 4.5 km/h Distance 2.69 km</desc>
<time>2010-02-24T17:46:36.08</time>
<name>2443</name>
</trkpt>
<trkpt lat="48.934623" lon="8.654038">
<ele>360.5</ele>
<speed>4.2</speed>
<course>114.5</course>
<desc>Speed 4.2 km/h Distance 2.69 km</desc>
<time>2010-02-24T17:46:37.08</time>
<name>2444</name>
</trkpt>
<trkpt lat="48.934618" lon="8.654055">
<ele>360.5</ele>
<speed>3.9</speed>
<course>81.4</course>
<desc>Speed 3.9 km/h Distance 2.70 km</desc>
<time>2010-02-24T17:46:38.08</time>
<name>2445</name>
</trkpt>
<trkpt lat="48.934620" lon="8.654072">
<ele>360.0</ele>
<speed>3.7</speed>
<course>106.9</course>
<desc>Speed 3.7 km/h Distance 2.70 km</desc>
<time>2010-02-24T17:46:39.08</time>
<name>2446</name>
</trkpt>
<trkpt lat="48.934617" lon="8.654088">
<ele>359.5</ele>
<speed>4.0</speed>
<course>105.5</course>
<desc>Speed 4.0 km/h Distance 2.70 km</desc>
<time>2010-02-24T17:46:40.07</time>
<name>2447</name>
</trkpt>
<trkpt lat="48.934613" lon="8.654107">
<ele>359.5</ele>
<speed>4.2</speed>
<course>99.6</course>
<desc>Speed 4.2 km/h Distance 2.70 km</desc>
<time>2010-02-24T17:46:41.08</time>
<name>2448</name>
</trkpt>
<trkpt lat="48.934612" lon="8.654122">
<ele>359.0</ele>
<speed>3.7</speed>
<course>105.5</course>
<desc>Speed 3.7 km/h Distance 2.70 km</desc>
<time>2010-02-24T17:46:42.07</time>
<name>2449</name>
</trkpt>
<trkpt lat="48.934608" lon="8.654140">
<ele>359.0</ele>
<speed>4.6</speed>
<course>97.9</course>
<desc>Speed 4.6 km/h Distance 2.70 km</desc>
<time>2010-02-24T17:46:43.07</time>
<name>2450</name>
</trkpt>
<trkpt lat="48.934607" lon="8.654158">
<ele>359.5</ele>
<speed>4.5</speed>
<course>105.5</course>
<desc>Speed 4.5 km/h Distance 2.70 km</desc>
<time>2010-02-24T17:46:44.07</time>
<name>2451</name>
</trkpt>
<trkpt lat="48.934603" lon="8.654177">
<ele>359.0</ele>
<speed>4.0</speed>
<course>97.9</course>
<desc>Speed 4.0 km/h Distance 2.70 km</desc>
<time>2010-02-24T17:46:45.07</time>
<name>2452</name>
</trkpt>
<trkpt lat="48.934602" lon="8.654195">
<ele>359.0</ele>
<speed>4.0</speed>
<course>90.0</course>
<desc>Speed 4.0 km/h Distance 2.71 km</desc>
<time>2010-02-24T17:46:46.07</time>
<name>2453</name>
</trkpt>
<trkpt lat="48.934602" lon="8.654212">
<ele>359.0</ele>
<speed>3.6</speed>
<course>112.5</course>
<desc>Speed 3.6 km/h Distance 2.71 km</desc>
<time>2010-02-24T17:46:47.07</time>
<name>2454</name>
</trkpt>
<trkpt lat="48.934597" lon="8.654230">
<ele>358.5</ele>
<speed>4.5</speed>
<course>104.2</course>
<desc>Speed 4.5 km/h Distance 2.71 km</desc>
<time>2010-02-24T17:46:48.07</time>
<name>2455</name>
</trkpt>
<trkpt lat="48.934593" lon="8.654250">
<ele>358.5</ele>
<speed>4.6</speed>
<course>106.9</course>
<desc>Speed 4.6 km/h Distance 2.71 km</desc>
<time>2010-02-24T17:46:49.07</time>
<name>2456</name>
</trkpt>
<trkpt lat="48.934590" lon="8.654267">
<ele>358.5</ele>
<speed>4.1</speed>
<course>106.9</course>
<desc>Speed 4.1 km/h Distance 2.71 km</desc>
<time>2010-02-24T17:46:50.07</time>
<name>2457</name>
</trkpt>
<trkpt lat="48.934587" lon="8.654283">
<ele>359.0</ele>
<speed>4.2</speed>
<course>112.6</course>
<desc>Speed 4.2 km/h Distance 2.71 km</desc>
<time>2010-02-24T17:46:51.07</time>
<name>2458</name>
</trkpt>
<trkpt lat="48.934582" lon="8.654302">
<ele>359.0</ele>
<speed>4.2</speed>
<course>113.7</course>
<desc>Speed 4.2 km/h Distance 2.71 km</desc>
<time>2010-02-24T17:46:52.07</time>
<name>2459</name>
</trkpt>
<trkpt lat="48.934578" lon="8.654313">
<ele>359.0</ele>
<speed>3.2</speed>
<course>123.3</course>
<desc>Speed 3.2 km/h Distance 2.72 km</desc>
<time>2010-02-24T17:46:53.07</time>
<name>2460</name>
</trkpt>
<trkpt lat="48.934573" lon="8.654325">
<ele>359.5</ele>
<speed>3.0</speed>
<course>90.0</course>
<desc>Speed 3.0 km/h Distance 2.72 km</desc>
<time>2010-02-24T17:46:54.06</time>
<name>2461</name>
</trkpt>
<trkpt lat="48.934573" lon="8.654328">
<ele>359.5</ele>
<speed>0.5</speed>
<course>90.0</course>
<desc>Speed 0.5 km/h Distance 2.72 km</desc>
<time>2010-02-24T17:46:55.06</time>
<name>2462</name>
</trkpt>
<trkpt lat="48.934573" lon="8.654328">
<ele>359.5</ele>
<speed>0.3</speed>
<course>90.0</course>
<desc>Speed 0.3 km/h Distance 2.72 km</desc>
<time>2010-02-24T17:46:56.06</time>
<name>2463</name>
</trkpt>
<trkpt lat="48.934573" lon="8.654328">
<ele>359.5</ele>
<speed>0.4</speed>
<course>0.0</course>
<desc>Speed 0.4 km/h Distance 2.72 km</desc>
<time>2010-02-24T17:46:57.06</time>
<name>2464</name>
</trkpt>
<trkpt lat="48.934575" lon="8.654328">
<ele>359.5</ele>
<speed>0.2</speed>
<course>0.0</course>
<desc>Speed 0.2 km/h Distance 2.72 km</desc>
<time>2010-02-24T17:46:58.06</time>
<name>2465</name>
</trkpt>
<trkpt lat="48.934575" lon="8.654328">
<ele>359.5</ele>
<speed>0.2</speed>
<course>90.0</course>
<desc>Speed 0.2 km/h Distance 2.72 km</desc>
<time>2010-02-24T17:46:59.06</time>
<name>2466</name>
</trkpt>
<trkpt lat="48.934575" lon="8.654340">
<ele>360.0</ele>
<speed>2.2</speed>
<course>117.0</course>
<desc>Speed 2.2 km/h Distance 2.72 km</desc>
<time>2010-02-24T17:47:00.06</time>
<name>2467</name>
</trkpt>
<trkpt lat="48.934572" lon="8.654350">
<ele>360.0</ele>
<speed>3.0</speed>
<course>104.4</course>
<desc>Speed 3.0 km/h Distance 2.72 km</desc>
<time>2010-02-24T17:47:01.09</time>
<name>2468</name>
</trkpt>
<trkpt lat="48.934570" lon="8.654360">
<ele>360.0</ele>
<speed>3.1</speed>
<course>108.7</course>
<desc>Speed 3.1 km/h Distance 2.72 km</desc>
<time>2010-02-24T17:47:02.06</time>
<name>2469</name>
</trkpt>
<trkpt lat="48.934567" lon="8.654375">
<ele>360.0</ele>
<speed>3.7</speed>
<course>122.4</course>
<desc>Speed 3.7 km/h Distance 2.72 km</desc>
<time>2010-02-24T17:47:03.05</time>
<name>2470</name>
</trkpt>
<trkpt lat="48.934558" lon="8.654395">
<ele>360.5</ele>
<speed>3.2</speed>
<course>113.5</course>
<desc>Speed 3.2 km/h Distance 2.72 km</desc>
<time>2010-02-24T17:47:04.06</time>
<name>2471</name>
</trkpt>
<trkpt lat="48.934555" lon="8.654407">
<ele>360.5</ele>
<speed>3.0</speed>
<course>110.9</course>
<desc>Speed 3.0 km/h Distance 2.72 km</desc>
<time>2010-02-24T17:47:05.06</time>
<name>2472</name>
</trkpt>
<trkpt lat="48.934552" lon="8.654420">
<ele>361.0</ele>
<speed>2.5</speed>
<course>117.4</course>
<desc>Speed 2.5 km/h Distance 2.72 km</desc>
<time>2010-02-24T17:47:06.06</time>
<name>2473</name>
</trkpt>
<trkpt lat="48.934550" lon="8.654425">
<ele>361.5</ele>
<speed>0.5</speed>
<course>63.0</course>
<desc>Speed 0.5 km/h Distance 2.72 km</desc>
<time>2010-02-24T17:47:07.06</time>
<name>2474</name>
</trkpt>
<trkpt lat="48.934553" lon="8.654435">
<ele>362.5</ele>
<speed>0.1</speed>
<course>12.6</course>
<desc>Speed 0.1 km/h Distance 2.73 km</desc>
<time>2010-02-24T17:47:08.06</time>
<name>2475</name>
</trkpt>
<trkpt lat="48.934555" lon="8.654437">
<ele>362.5</ele>
<speed>0.2</speed>
<course>37.2</course>
<desc>Speed 0.2 km/h Distance 2.73 km</desc>
<time>2010-02-24T17:47:09.06</time>
<name>2476</name>
</trkpt>
<trkpt lat="48.934557" lon="8.654438">
<ele>362.5</ele>
<speed>0.2</speed>
<course>12.6</course>
<desc>Speed 0.2 km/h Distance 2.73 km</desc>
<time>2010-02-24T17:47:10.05</time>
<name>2477</name>
</trkpt>
<trkpt lat="48.934558" lon="8.654438">
<ele>362.5</ele>
<speed>0.1</speed>
<course>29.2</course>
<desc>Speed 0.1 km/h Distance 2.73 km</desc>
<time>2010-02-24T17:47:11.06</time>
<name>2478</name>
</trkpt>
<trkpt lat="48.934560" lon="8.654438">
<ele>362.5</ele>
<speed>0.4</speed>
<course>34.1</course>
<desc>Speed 0.4 km/h Distance 2.73 km</desc>
<time>2010-02-24T17:47:12.05</time>
<name>2479</name>
</trkpt>
<trkpt lat="48.934565" lon="8.654443">
<ele>363.0</ele>
<speed>1.0</speed>
<course>77.8</course>
<desc>Speed 1.0 km/h Distance 2.73 km</desc>
<time>2010-02-24T17:47:13.05</time>
<name>2480</name>
</trkpt>
<trkpt lat="48.934567" lon="8.654455">
<ele>363.0</ele>
<speed>2.6</speed>
<course>80.4</course>
<desc>Speed 2.6 km/h Distance 2.73 km</desc>
<time>2010-02-24T17:47:14.05</time>
<name>2481</name>
</trkpt>
<trkpt lat="48.934568" lon="8.654470">
<ele>363.0</ele>
<speed>3.6</speed>
<course>99.6</course>
<desc>Speed 3.6 km/h Distance 2.73 km</desc>
<time>2010-02-24T17:47:15.05</time>
<name>2482</name>
</trkpt>
<trkpt lat="48.934567" lon="8.654485">
<ele>362.5</ele>
<speed>3.5</speed>
<course>105.5</course>
<desc>Speed 3.5 km/h Distance 2.73 km</desc>
<time>2010-02-24T17:47:16.05</time>
<name>2483</name>
</trkpt>
<trkpt lat="48.934563" lon="8.654503">
<ele>362.0</ele>
<speed>4.0</speed>
<course>116.9</course>
<desc>Speed 4.0 km/h Distance 2.73 km</desc>
<time>2010-02-24T17:47:17.05</time>
<name>2484</name>
</trkpt>
<trkpt lat="48.934555" lon="8.654528">
<ele>362.5</ele>
<speed>3.8</speed>
<course>112.5</course>
<desc>Speed 3.8 km/h Distance 2.73 km</desc>
<time>2010-02-24T17:47:18.05</time>
<name>2485</name>
</trkpt>
<trkpt lat="48.934550" lon="8.654547">
<ele>362.5</ele>
<speed>3.8</speed>
<course>110.9</course>
<desc>Speed 3.8 km/h Distance 2.73 km</desc>
<time>2010-02-24T17:47:19.05</time>
<name>2486</name>
</trkpt>
<trkpt lat="48.934545" lon="8.654567">
<ele>362.0</ele>
<speed>4.0</speed>
<course>110.9</course>
<desc>Speed 4.0 km/h Distance 2.74 km</desc>
<time>2010-02-24T17:47:20.05</time>
<name>2487</name>
</trkpt>
<trkpt lat="48.934542" lon="8.654580">
<ele>361.5</ele>
<speed>3.5</speed>
<course>116.9</course>
<desc>Speed 3.5 km/h Distance 2.74 km</desc>
<time>2010-02-24T17:47:21.05</time>
<name>2488</name>
</trkpt>
<trkpt lat="48.934535" lon="8.654600">
<ele>362.0</ele>
<speed>3.6</speed>
<course>110.9</course>
<desc>Speed 3.6 km/h Distance 2.74 km</desc>
<time>2010-02-24T17:47:22.05</time>
<name>2489</name>
</trkpt>
<trkpt lat="48.934532" lon="8.654613">
<ele>361.5</ele>
<speed>3.3</speed>
<course>127.3</course>
<desc>Speed 3.3 km/h Distance 2.74 km</desc>
<time>2010-02-24T17:47:23.05</time>
<name>2490</name>
</trkpt>
<trkpt lat="48.934520" lon="8.654637">
<ele>361.5</ele>
<speed>4.5</speed>
<course>105.5</course>
<desc>Speed 4.5 km/h Distance 2.74 km</desc>
<time>2010-02-24T17:47:24.05</time>
<name>2491</name>
</trkpt>
<trkpt lat="48.934517" lon="8.654655">
<ele>361.0</ele>
<speed>4.7</speed>
<course>104.2</course>
<desc>Speed 4.7 km/h Distance 2.74 km</desc>
<time>2010-02-24T17:47:25.05</time>
<name>2492</name>
</trkpt>
<trkpt lat="48.934513" lon="8.654675">
<ele>361.0</ele>
<speed>4.4</speed>
<course>97.9</course>
<desc>Speed 4.4 km/h Distance 2.75 km</desc>
<time>2010-02-24T17:47:26.04</time>
<name>2493</name>
</trkpt>
<trkpt lat="48.934512" lon="8.654693">
<ele>360.5</ele>
<speed>4.0</speed>
<course>97.9</course>
<desc>Speed 4.0 km/h Distance 2.75 km</desc>
<time>2010-02-24T17:47:27.04</time>
<name>2494</name>
</trkpt>
<trkpt lat="48.934510" lon="8.654712">
<ele>361.0</ele>
<speed>4.6</speed>
<course>104.2</course>
<desc>Speed 4.6 km/h Distance 2.75 km</desc>
<time>2010-02-24T17:47:28.04</time>
<name>2495</name>
</trkpt>
<trkpt lat="48.934507" lon="8.654732">
<ele>360.5</ele>
<speed>4.8</speed>
<course>107.0</course>
<desc>Speed 4.8 km/h Distance 2.75 km</desc>
<time>2010-02-24T17:47:29.04</time>
<name>2496</name>
</trkpt>
<trkpt lat="48.934503" lon="8.654748">
<ele>360.0</ele>
<speed>4.1</speed>
<course>105.5</course>
<desc>Speed 4.1 km/h Distance 2.75 km</desc>
<time>2010-02-24T17:47:30.04</time>
<name>2497</name>
</trkpt>
<trkpt lat="48.934500" lon="8.654767">
<ele>360.0</ele>
<speed>4.0</speed>
<course>110.8</course>
<desc>Speed 4.0 km/h Distance 2.75 km</desc>
<time>2010-02-24T17:47:31.04</time>
<name>2498</name>
</trkpt>
<trkpt lat="48.934495" lon="8.654787">
<ele>360.0</ele>
<speed>4.2</speed>
<course>97.9</course>
<desc>Speed 4.2 km/h Distance 2.75 km</desc>
<time>2010-02-24T17:47:32.04</time>
<name>2499</name>
</trkpt>
<trkpt lat="48.934493" lon="8.654805">
<ele>360.0</ele>
<speed>4.5</speed>
<course>97.9</course>
<desc>Speed 4.5 km/h Distance 2.75 km</desc>
<time>2010-02-24T17:47:33.04</time>
<name>2500</name>
</trkpt>
<trkpt lat="48.934492" lon="8.654823">
<ele>360.0</ele>
<speed>4.4</speed>
<course>103.2</course>
<desc>Speed 4.4 km/h Distance 2.76 km</desc>
<time>2010-02-24T17:47:34.04</time>
<name>2501</name>
</trkpt>
<trkpt lat="48.934488" lon="8.654845">
<ele>360.0</ele>
<speed>4.7</speed>
<course>116.9</course>
<desc>Speed 4.7 km/h Distance 2.76 km</desc>
<time>2010-02-24T17:47:35.04</time>
<name>2502</name>
</trkpt>
<trkpt lat="48.934482" lon="8.654865">
<ele>359.5</ele>
<speed>4.4</speed>
<course>124.6</course>
<desc>Speed 4.4 km/h Distance 2.76 km</desc>
<time>2010-02-24T17:47:36.04</time>
<name>2503</name>
</trkpt>
<trkpt lat="48.934473" lon="8.654883">
<ele>360.0</ele>
<speed>4.5</speed>
<course>124.7</course>
<desc>Speed 4.5 km/h Distance 2.76 km</desc>
<time>2010-02-24T17:47:37.04</time>
<name>2504</name>
</trkpt>
<trkpt lat="48.934465" lon="8.654902">
<ele>360.0</ele>
<speed>3.9</speed>
<course>127.3</course>
<desc>Speed 3.9 km/h Distance 2.76 km</desc>
<time>2010-02-24T17:47:38.04</time>
<name>2505</name>
</trkpt>
<trkpt lat="48.934457" lon="8.654918">
<ele>360.0</ele>
<speed>3.9</speed>
<course>119.0</course>
<desc>Speed 3.9 km/h Distance 2.76 km</desc>
<time>2010-02-24T17:47:39.04</time>
<name>2506</name>
</trkpt>
<trkpt lat="48.934450" lon="8.654937">
<ele>360.5</ele>
<speed>3.6</speed>
<course>108.7</course>
<desc>Speed 3.6 km/h Distance 2.77 km</desc>
<time>2010-02-24T17:47:40.04</time>
<name>2507</name>
</trkpt>
<trkpt lat="48.934447" lon="8.654952">
<ele>360.5</ele>
<speed>3.7</speed>
<course>102.3</course>
<desc>Speed 3.7 km/h Distance 2.77 km</desc>
<time>2010-02-24T17:47:41.04</time>
<name>2508</name>
</trkpt>
<trkpt lat="48.934445" lon="8.654963">
<ele>360.5</ele>
<speed>3.0</speed>
<course>90.0</course>
<desc>Speed 3.0 km/h Distance 2.77 km</desc>
<time>2010-02-24T17:47:42.04</time>
<name>2509</name>
</trkpt>
<trkpt lat="48.934445" lon="8.654977">
<ele>360.5</ele>
<speed>2.9</speed>
<course>119.0</course>
<desc>Speed 2.9 km/h Distance 2.77 km</desc>
<time>2010-02-24T17:47:43.03</time>
<name>2510</name>
</trkpt>
<trkpt lat="48.934438" lon="8.654995">
<ele>361.0</ele>
<speed>3.7</speed>
<course>115.1</course>
<desc>Speed 3.7 km/h Distance 2.77 km</desc>
<time>2010-02-24T17:47:44.03</time>
<name>2511</name>
</trkpt>
<trkpt lat="48.934432" lon="8.655017">
<ele>361.0</ele>
<speed>4.4</speed>
<course>105.5</course>
<desc>Speed 4.4 km/h Distance 2.77 km</desc>
<time>2010-02-24T17:47:45.03</time>
<name>2512</name>
</trkpt>
<trkpt lat="48.934428" lon="8.655035">
<ele>361.0</ele>
<speed>4.6</speed>
<course>114.6</course>
<desc>Speed 4.6 km/h Distance 2.77 km</desc>
<time>2010-02-24T17:47:46.03</time>
<name>2513</name>
</trkpt>
<trkpt lat="48.934423" lon="8.655052">
<ele>361.0</ele>
<speed>4.6</speed>
<course>106.9</course>
<desc>Speed 4.6 km/h Distance 2.77 km</desc>
<time>2010-02-24T17:47:47.03</time>
<name>2514</name>
</trkpt>
<trkpt lat="48.934420" lon="8.655068">
<ele>360.5</ele>
<speed>4.5</speed>
<course>110.8</course>
<desc>Speed 4.5 km/h Distance 2.78 km</desc>
<time>2010-02-24T17:47:48.03</time>
<name>2515</name>
</trkpt>
<trkpt lat="48.934415" lon="8.655088">
<ele>361.0</ele>
<speed>4.8</speed>
<course>90.0</course>
<desc>Speed 4.8 km/h Distance 2.78 km</desc>
<time>2010-02-24T17:47:49.03</time>
<name>2516</name>
</trkpt>
<trkpt lat="48.934415" lon="8.655108">
<ele>361.5</ele>
<speed>4.9</speed>
<course>119.0</course>
<desc>Speed 4.9 km/h Distance 2.78 km</desc>
<time>2010-02-24T17:47:50.03</time>
<name>2517</name>
</trkpt>
<trkpt lat="48.934408" lon="8.655127">
<ele>361.5</ele>
<speed>5.1</speed>
<course>119.0</course>
<desc>Speed 5.1 km/h Distance 2.78 km</desc>
<time>2010-02-24T17:47:51.03</time>
<name>2518</name>
</trkpt>
<trkpt lat="48.934402" lon="8.655145">
<ele>361.5</ele>
<speed>4.9</speed>
<course>114.6</course>
<desc>Speed 4.9 km/h Distance 2.78 km</desc>
<time>2010-02-24T17:47:52.03</time>
<name>2519</name>
</trkpt>
<trkpt lat="48.934397" lon="8.655162">
<ele>361.5</ele>
<speed>4.4</speed>
<course>124.7</course>
<desc>Speed 4.4 km/h Distance 2.78 km</desc>
<time>2010-02-24T17:47:53.03</time>
<name>2520</name>
</trkpt>
<trkpt lat="48.934388" lon="8.655180">
<ele>361.5</ele>
<speed>4.6</speed>
<course>127.3</course>
<desc>Speed 4.6 km/h Distance 2.79 km</desc>
<time>2010-02-24T17:47:54.03</time>
<name>2521</name>
</trkpt>
<trkpt lat="48.934380" lon="8.655197">
<ele>361.5</ele>
<speed>4.5</speed>
<course>119.0</course>
<desc>Speed 4.5 km/h Distance 2.79 km</desc>
<time>2010-02-24T17:47:55.03</time>
<name>2522</name>
</trkpt>
<trkpt lat="48.934373" lon="8.655215">
<ele>361.5</ele>
<speed>3.9</speed>
<course>105.5</course>
<desc>Speed 3.9 km/h Distance 2.79 km</desc>
<time>2010-02-24T17:47:56.03</time>
<name>2523</name>
</trkpt>
<trkpt lat="48.934370" lon="8.655233">
<ele>362.0</ele>
<speed>4.7</speed>
<course>106.9</course>
<desc>Speed 4.7 km/h Distance 2.79 km</desc>
<time>2010-02-24T17:47:57.03</time>
<name>2524</name>
</trkpt>
<trkpt lat="48.934367" lon="8.655250">
<ele>362.0</ele>
<speed>4.2</speed>
<course>119.0</course>
<desc>Speed 4.2 km/h Distance 2.79 km</desc>
<time>2010-02-24T17:47:58.02</time>
<name>2525</name>
</trkpt>
<trkpt lat="48.934360" lon="8.655268">
<ele>362.5</ele>
<speed>4.8</speed>
<course>112.5</course>
<desc>Speed 4.8 km/h Distance 2.79 km</desc>
<time>2010-02-24T17:47:59.02</time>
<name>2526</name>
</trkpt>
<trkpt lat="48.934355" lon="8.655287">
<ele>363.0</ele>
<speed>4.5</speed>
<course>116.9</course>
<desc>Speed 4.5 km/h Distance 2.79 km</desc>
<time>2010-02-24T17:48:00.02</time>
<name>2527</name>
</trkpt>
<trkpt lat="48.934350" lon="8.655302">
<ele>363.0</ele>
<speed>4.0</speed>
<course>108.7</course>
<desc>Speed 4.0 km/h Distance 2.80 km</desc>
<time>2010-02-24T17:48:01.02</time>
<name>2528</name>
</trkpt>
<trkpt lat="48.934347" lon="8.655317">
<ele>362.5</ele>
<speed>3.9</speed>
<course>105.5</course>
<desc>Speed 3.9 km/h Distance 2.80 km</desc>
<time>2010-02-24T17:48:02.02</time>
<name>2529</name>
</trkpt>
<trkpt lat="48.934343" lon="8.655335">
<ele>362.5</ele>
<speed>4.6</speed>
<course>105.5</course>
<desc>Speed 4.6 km/h Distance 2.80 km</desc>
<time>2010-02-24T17:48:03.02</time>
<name>2530</name>
</trkpt>
<trkpt lat="48.934340" lon="8.655353">
<ele>362.5</ele>
<speed>4.4</speed>
<course>114.6</course>
<desc>Speed 4.4 km/h Distance 2.80 km</desc>
<time>2010-02-24T17:48:04.02</time>
<name>2531</name>
</trkpt>
<trkpt lat="48.934335" lon="8.655370">
<ele>362.5</ele>
<speed>4.2</speed>
<course>106.9</course>
<desc>Speed 4.2 km/h Distance 2.80 km</desc>
<time>2010-02-24T17:48:05.02</time>
<name>2532</name>
</trkpt>
<trkpt lat="48.934332" lon="8.655387">
<ele>362.5</ele>
<speed>3.7</speed>
<course>106.9</course>
<desc>Speed 3.7 km/h Distance 2.80 km</desc>
<time>2010-02-24T17:48:06.02</time>
<name>2533</name>
</trkpt>
<trkpt lat="48.934328" lon="8.655403">
<ele>362.5</ele>
<speed>4.3</speed>
<course>110.8</course>
<desc>Speed 4.3 km/h Distance 2.80 km</desc>
<time>2010-02-24T17:48:07.02</time>
<name>2534</name>
</trkpt>
<trkpt lat="48.934323" lon="8.655423">
<ele>362.5</ele>
<speed>5.1</speed>
<course>105.5</course>
<desc>Speed 5.1 km/h Distance 2.80 km</desc>
<time>2010-02-24T17:48:08.02</time>
<name>2535</name>
</trkpt>
<trkpt lat="48.934320" lon="8.655442">
<ele>362.5</ele>
<speed>4.4</speed>
<course>97.2</course>
<desc>Speed 4.4 km/h Distance 2.81 km</desc>
<time>2010-02-24T17:48:09.02</time>
<name>2536</name>
</trkpt>
<trkpt lat="48.934318" lon="8.655462">
<ele>362.5</ele>
<speed>4.4</speed>
<course>104.2</course>
<desc>Speed 4.4 km/h Distance 2.81 km</desc>
<time>2010-02-24T17:48:10.02</time>
<name>2537</name>
</trkpt>
<trkpt lat="48.934315" lon="8.655482">
<ele>362.5</ele>
<speed>4.5</speed>
<course>104.2</course>
<desc>Speed 4.5 km/h Distance 2.81 km</desc>
<time>2010-02-24T17:48:11.03</time>
<name>2538</name>
</trkpt>
<trkpt lat="48.934312" lon="8.655502">
<ele>362.5</ele>
<speed>4.1</speed>
<course>109.4</course>
<desc>Speed 4.1 km/h Distance 2.81 km</desc>
<time>2010-02-24T17:48:12.02</time>
<name>2539</name>
</trkpt>
<trkpt lat="48.934307" lon="8.655523">
<ele>362.5</ele>
<speed>4.7</speed>
<course>97.9</course>
<desc>Speed 4.7 km/h Distance 2.81 km</desc>
<time>2010-02-24T17:48:13.01</time>
<name>2540</name>
</trkpt>
<trkpt lat="48.934305" lon="8.655542">
<ele>362.0</ele>
<speed>4.5</speed>
<course>97.9</course>
<desc>Speed 4.5 km/h Distance 2.81 km</desc>
<time>2010-02-24T17:48:14.01</time>
<name>2541</name>
</trkpt>
<trkpt lat="48.934303" lon="8.655560">
<ele>362.0</ele>
<speed>4.3</speed>
<course>82.8</course>
<desc>Speed 4.3 km/h Distance 2.81 km</desc>
<time>2010-02-24T17:48:15.01</time>
<name>2542</name>
</trkpt>
<trkpt lat="48.934305" lon="8.655580">
<ele>362.5</ele>
<speed>4.3</speed>
<course>90.0</course>
<desc>Speed 4.3 km/h Distance 2.82 km</desc>
<time>2010-02-24T17:48:16.01</time>
<name>2543</name>
</trkpt>
<trkpt lat="48.934305" lon="8.655598">
<ele>362.5</ele>
<speed>4.1</speed>
<course>98.7</course>
<desc>Speed 4.1 km/h Distance 2.82 km</desc>
<time>2010-02-24T17:48:17.01</time>
<name>2544</name>
</trkpt>
<trkpt lat="48.934303" lon="8.655615">
<ele>362.0</ele>
<speed>4.0</speed>
<course>90.0</course>
<desc>Speed 4.0 km/h Distance 2.82 km</desc>
<time>2010-02-24T17:48:18.01</time>
<name>2545</name>
</trkpt>
<trkpt lat="48.934303" lon="8.655632">
<ele>362.0</ele>
<speed>4.4</speed>
<course>97.2</course>
<desc>Speed 4.4 km/h Distance 2.82 km</desc>
<time>2010-02-24T17:48:19.01</time>
<name>2546</name>
</trkpt>
<trkpt lat="48.934302" lon="8.655652">
<ele>362.0</ele>
<speed>4.7</speed>
<course>90.0</course>
<desc>Speed 4.7 km/h Distance 2.82 km</desc>
<time>2010-02-24T17:48:20.01</time>
<name>2547</name>
</trkpt>
<trkpt lat="48.934302" lon="8.655673">
<ele>362.5</ele>
<speed>4.5</speed>
<course>96.2</course>
<desc>Speed 4.5 km/h Distance 2.82 km</desc>
<time>2010-02-24T17:48:21.01</time>
<name>2548</name>
</trkpt>
<trkpt lat="48.934300" lon="8.655697">
<ele>362.5</ele>
<speed>4.8</speed>
<course>97.2</course>
<desc>Speed 4.8 km/h Distance 2.82 km</desc>
<time>2010-02-24T17:48:22.01</time>
<name>2549</name>
</trkpt>
<trkpt lat="48.934298" lon="8.655717">
<ele>362.5</ele>
<speed>4.9</speed>
<course>98.6</course>
<desc>Speed 4.9 km/h Distance 2.83 km</desc>
<time>2010-02-24T17:48:23.01</time>
<name>2550</name>
</trkpt>
<trkpt lat="48.934297" lon="8.655733">
<ele>362.5</ele>
<speed>4.0</speed>
<course>105.5</course>
<desc>Speed 4.0 km/h Distance 2.83 km</desc>
<time>2010-02-24T17:48:24.00</time>
<name>2551</name>
</trkpt>
<trkpt lat="48.934293" lon="8.655752">
<ele>362.5</ele>
<speed>4.2</speed>
<course>105.5</course>
<desc>Speed 4.2 km/h Distance 2.83 km</desc>
<time>2010-02-24T17:48:25.01</time>
<name>2552</name>
</trkpt>
<trkpt lat="48.934290" lon="8.655770">
<ele>362.5</ele>
<speed>3.7</speed>
<course>99.6</course>
<desc>Speed 3.7 km/h Distance 2.83 km</desc>
<time>2010-02-24T17:48:26.03</time>
<name>2553</name>
</trkpt>
<trkpt lat="48.934288" lon="8.655785">
<ele>362.5</ele>
<speed>4.1</speed>
<course>54.2</course>
<desc>Speed 4.1 km/h Distance 2.83 km</desc>
<time>2010-02-24T17:48:27.00</time>
<name>2554</name>
</trkpt>
<trkpt lat="48.934303" lon="8.655817">
<ele>362.0</ele>
<speed>10.2</speed>
<course>113.5</course>
<desc>Speed 10.2 km/h Distance 2.83 km</desc>
<time>2010-02-24T17:48:28.00</time>
<name>2555</name>
</trkpt>
<trkpt lat="48.934297" lon="8.655840">
<ele>362.0</ele>
<speed>5.5</speed>
<course>105.5</course>
<desc>Speed 5.5 km/h Distance 2.84 km</desc>
<time>2010-02-24T17:48:29.00</time>
<name>2556</name>
</trkpt>
<trkpt lat="48.934293" lon="8.655858">
<ele>361.5</ele>
<speed>4.5</speed>
<course>97.9</course>
<desc>Speed 4.5 km/h Distance 2.84 km</desc>
<time>2010-02-24T17:48:29.99</time>
<name>2557</name>
</trkpt>
<trkpt lat="48.934292" lon="8.655877">
<ele>361.5</ele>
<speed>4.4</speed>
<course>116.9</course>
<desc>Speed 4.4 km/h Distance 2.84 km</desc>
<time>2010-02-24T17:48:30.99</time>
<name>2558</name>
</trkpt>
<trkpt lat="48.934285" lon="8.655897">
<ele>362.0</ele>
<speed>4.2</speed>
<course>102.3</course>
<desc>Speed 4.2 km/h Distance 2.84 km</desc>
<time>2010-02-24T17:48:31.99</time>
<name>2559</name>
</trkpt>
<trkpt lat="48.934282" lon="8.655920">
<ele>362.0</ele>
<speed>4.6</speed>
<course>112.6</course>
<desc>Speed 4.6 km/h Distance 2.84 km</desc>
<time>2010-02-24T17:48:32.99</time>
<name>2560</name>
</trkpt>
<trkpt lat="48.934277" lon="8.655938">
<ele>362.0</ele>
<speed>3.9</speed>
<course>117.0</course>
<desc>Speed 3.9 km/h Distance 2.84 km</desc>
<time>2010-02-24T17:48:33.99</time>
<name>2561</name>
</trkpt>
<trkpt lat="48.934273" lon="8.655948">
<ele>362.0</ele>
<speed>2.0</speed>
<course>127.0</course>
<desc>Speed 2.0 km/h Distance 2.84 km</desc>
<time>2010-02-24T17:48:34.99</time>
<name>2562</name>
</trkpt>
<trkpt lat="48.934270" lon="8.655955">
<ele>362.5</ele>
<speed>1.0</speed>
<course>150.8</course>
<desc>Speed 1.0 km/h Distance 2.85 km</desc>
<time>2010-02-24T17:48:35.99</time>
<name>2563</name>
</trkpt>
<trkpt lat="48.934268" lon="8.655957">
<ele>362.5</ele>
<speed>0.2</speed>
<course>90.0</course>
<desc>Speed 0.2 km/h Distance 2.85 km</desc>
<time>2010-02-24T17:48:37.00</time>
<name>2564</name>
</trkpt>
<trkpt lat="48.934268" lon="8.655963">
<ele>362.5</ele>
<speed>0.9</speed>
<course>110.7</course>
<desc>Speed 0.9 km/h Distance 2.85 km</desc>
<time>2010-02-24T17:48:37.99</time>
<name>2565</name>
</trkpt>
<trkpt lat="48.934265" lon="8.655977">
<ele>362.5</ele>
<speed>3.3</speed>
<course>106.9</course>
<desc>Speed 3.3 km/h Distance 2.85 km</desc>
<time>2010-02-24T17:48:39.00</time>
<name>2566</name>
</trkpt>
<trkpt lat="48.934262" lon="8.655993">
<ele>362.5</ele>
<speed>4.0</speed>
<course>99.6</course>
<desc>Speed 4.0 km/h Distance 2.85 km</desc>
<time>2010-02-24T17:48:39.98</time>
<name>2567</name>
</trkpt>
<trkpt lat="48.934260" lon="8.656008">
<ele>362.5</ele>
<speed>3.9</speed>
<course>110.8</course>
<desc>Speed 3.9 km/h Distance 2.85 km</desc>
<time>2010-02-24T17:48:40.98</time>
<name>2568</name>
</trkpt>
<trkpt lat="48.934255" lon="8.656028">
<ele>362.5</ele>
<speed>5.0</speed>
<course>105.5</course>
<desc>Speed 5.0 km/h Distance 2.85 km</desc>
<time>2010-02-24T17:48:41.98</time>
<name>2569</name>
</trkpt>
<trkpt lat="48.934252" lon="8.656047">
<ele>362.5</ele>
<speed>4.7</speed>
<course>112.5</course>
<desc>Speed 4.7 km/h Distance 2.85 km</desc>
<time>2010-02-24T17:48:42.99</time>
<name>2570</name>
</trkpt>
<trkpt lat="48.934247" lon="8.656065">
<ele>362.0</ele>
<speed>4.8</speed>
<course>114.6</course>
<desc>Speed 4.8 km/h Distance 2.85 km</desc>
<time>2010-02-24T17:48:43.99</time>
<name>2571</name>
</trkpt>
<trkpt lat="48.934242" lon="8.656082">
<ele>362.0</ele>
<speed>4.5</speed>
<course>157.3</course>
<desc>Speed 4.5 km/h Distance 2.86 km</desc>
<time>2010-02-24T17:48:44.98</time>
<name>2572</name>
</trkpt>
<trkpt lat="48.934223" lon="8.656093">
<ele>361.5</ele>
<speed>8.2</speed>
<course>108.7</course>
<desc>Speed 8.2 km/h Distance 2.86 km</desc>
<time>2010-02-24T17:48:45.98</time>
<name>2573</name>
</trkpt>
<trkpt lat="48.934220" lon="8.656108">
<ele>361.5</ele>
<speed>3.6</speed>
<course>99.6</course>
<desc>Speed 3.6 km/h Distance 2.86 km</desc>
<time>2010-02-24T17:48:46.98</time>
<name>2574</name>
</trkpt>
<trkpt lat="48.934218" lon="8.656123">
<ele>361.5</ele>
<speed>3.5</speed>
<course>106.9</course>
<desc>Speed 3.5 km/h Distance 2.86 km</desc>
<time>2010-02-24T17:48:47.98</time>
<name>2575</name>
</trkpt>
<trkpt lat="48.934215" lon="8.656140">
<ele>361.5</ele>
<speed>4.0</speed>
<course>99.6</course>
<desc>Speed 4.0 km/h Distance 2.86 km</desc>
<time>2010-02-24T17:48:48.98</time>
<name>2576</name>
</trkpt>
<trkpt lat="48.934213" lon="8.656155">
<ele>361.5</ele>
<speed>3.5</speed>
<course>99.6</course>
<desc>Speed 3.5 km/h Distance 2.86 km</desc>
<time>2010-02-24T17:48:49.98</time>
<name>2577</name>
</trkpt>
<trkpt lat="48.934212" lon="8.656170">
<ele>361.5</ele>
<speed>3.5</speed>
<course>114.6</course>
<desc>Speed 3.5 km/h Distance 2.86 km</desc>
<time>2010-02-24T17:48:50.98</time>
<name>2578</name>
</trkpt>
<trkpt lat="48.934207" lon="8.656187">
<ele>361.5</ele>
<speed>4.8</speed>
<course>128.1</course>
<desc>Speed 4.8 km/h Distance 2.86 km</desc>
<time>2010-02-24T17:48:51.98</time>
<name>2579</name>
</trkpt>
<trkpt lat="48.934205" lon="8.656190">
<ele>361.0</ele>
<speed>1.2</speed>
<course>53.0</course>
<desc>Speed 1.2 km/h Distance 2.86 km</desc>
<time>2010-02-24T17:48:52.98</time>
<name>2580</name>
</trkpt>
<trkpt lat="48.934208" lon="8.656197">
<ele>361.0</ele>
<speed>1.1</speed>
<course>100.8</course>
<desc>Speed 1.1 km/h Distance 2.87 km</desc>
<time>2010-02-24T17:48:54.01</time>
<name>2581</name>
</trkpt>
<trkpt lat="48.934207" lon="8.656210">
<ele>361.0</ele>
<speed>3.7</speed>
<course>110.9</course>
<desc>Speed 3.7 km/h Distance 2.87 km</desc>
<time>2010-02-24T17:48:54.98</time>
<name>2582</name>
</trkpt>
<trkpt lat="48.934203" lon="8.656223">
<ele>360.5</ele>
<speed>4.2</speed>
<course>99.6</course>
<desc>Speed 4.2 km/h Distance 2.87 km</desc>
<time>2010-02-24T17:48:55.98</time>
<name>2583</name>
</trkpt>
<trkpt lat="48.934202" lon="8.656238">
<ele>360.0</ele>
<speed>4.4</speed>
<course>90.0</course>
<desc>Speed 4.4 km/h Distance 2.87 km</desc>
<time>2010-02-24T17:48:56.98</time>
<name>2584</name>
</trkpt>
<trkpt lat="48.934202" lon="8.656253">
<ele>360.0</ele>
<speed>4.6</speed>
<course>99.6</course>
<desc>Speed 4.6 km/h Distance 2.87 km</desc>
<time>2010-02-24T17:48:57.98</time>
<name>2585</name>
</trkpt>
<trkpt lat="48.934200" lon="8.656268">
<ele>359.5</ele>
<speed>4.1</speed>
<course>108.7</course>
<desc>Speed 4.1 km/h Distance 2.87 km</desc>
<time>2010-02-24T17:48:58.98</time>
<name>2586</name>
</trkpt>
<trkpt lat="48.934197" lon="8.656283">
<ele>359.5</ele>
<speed>4.2</speed>
<course>123.1</course>
<desc>Speed 4.2 km/h Distance 2.87 km</desc>
<time>2010-02-24T17:48:59.98</time>
<name>2587</name>
</trkpt>
<trkpt lat="48.934192" lon="8.656295">
<ele>359.0</ele>
<speed>4.2</speed>
<course>127.3</course>
<desc>Speed 4.2 km/h Distance 2.87 km</desc>
<time>2010-02-24T17:49:00.98</time>
<name>2588</name>
</trkpt>
<trkpt lat="48.934185" lon="8.656308">
<ele>359.0</ele>
<speed>4.7</speed>
<course>137.4</course>
<desc>Speed 4.7 km/h Distance 2.87 km</desc>
<time>2010-02-24T17:49:01.98</time>
<name>2589</name>
</trkpt>
<trkpt lat="48.934177" lon="8.656320">
<ele>359.0</ele>
<speed>4.1</speed>
<course>135.5</course>
<desc>Speed 4.1 km/h Distance 2.88 km</desc>
<time>2010-02-24T17:49:02.98</time>
<name>2590</name>
</trkpt>
<trkpt lat="48.934170" lon="8.656330">
<ele>358.5</ele>
<speed>3.1</speed>
<course>156.2</course>
<desc>Speed 3.1 km/h Distance 2.88 km</desc>
<time>2010-02-24T17:49:03.98</time>
<name>2591</name>
</trkpt>
<trkpt lat="48.934165" lon="8.656333">
<ele>358.5</ele>
<speed>1.8</speed>
<course>167.4</course>
<desc>Speed 1.8 km/h Distance 2.88 km</desc>
<time>2010-02-24T17:49:04.98</time>
<name>2592</name>
</trkpt>
<trkpt lat="48.934163" lon="8.656333">
<ele>358.5</ele>
<speed>0.8</speed>
<course>167.4</course>
<desc>Speed 0.8 km/h Distance 2.88 km</desc>
<time>2010-02-24T17:49:05.98</time>
<name>2593</name>
</trkpt>
<trkpt lat="48.934163" lon="8.656333">
<ele>358.5</ele>
<speed>0.2</speed>
<course>180.0</course>
<desc>Speed 0.2 km/h Distance 2.88 km</desc>
<time>2010-02-24T17:49:06.98</time>
<name>2594</name>
</trkpt>
<trkpt lat="48.934162" lon="8.656333">
<ele>358.5</ele>
<speed>0.6</speed>
<course>180.0</course>
<desc>Speed 0.6 km/h Distance 2.88 km</desc>
<time>2010-02-24T17:49:07.98</time>
<name>2595</name>
</trkpt>
<trkpt lat="48.934162" lon="8.656333">
<ele>358.5</ele>
<speed>0.2</speed>
<course>90.0</course>
<desc>Speed 0.2 km/h Distance 2.88 km</desc>
<time>2010-02-24T17:49:08.98</time>
<name>2596</name>
</trkpt>
<trkpt lat="48.934162" lon="8.656335">
<ele>358.5</ele>
<speed>0.3</speed>
<course>90.0</course>
<desc>Speed 0.3 km/h Distance 2.88 km</desc>
<time>2010-02-24T17:49:09.98</time>
<name>2597</name>
</trkpt>
<trkpt lat="48.934162" lon="8.656335">
<ele>358.5</ele>
<speed>0.3</speed>
<course>136.5</course>
<desc>Speed 0.3 km/h Distance 2.88 km</desc>
<time>2010-02-24T17:49:10.99</time>
<name>2598</name>
</trkpt>
<trkpt lat="48.934158" lon="8.656340">
<ele>358.0</ele>
<speed>1.6</speed>
<course>167.4</course>
<desc>Speed 1.6 km/h Distance 2.88 km</desc>
<time>2010-02-24T17:49:11.98</time>
<name>2599</name>
</trkpt>
<trkpt lat="48.934155" lon="8.656342">
<ele>358.0</ele>
<speed>2.1</speed>
<course>90.0</course>
<desc>Speed 2.1 km/h Distance 2.88 km</desc>
<time>2010-02-24T17:49:12.98</time>
<name>2600</name>
</trkpt>
<trkpt lat="48.934155" lon="8.656343">
<ele>358.0</ele>
<speed>0.3</speed>
<course>90.0</course>
<desc>Speed 0.3 km/h Distance 2.88 km</desc>
<time>2010-02-24T17:49:13.98</time>
<name>2601</name>
</trkpt>
<trkpt lat="48.934155" lon="8.656343">
<ele>358.0</ele>
<speed>0.3</speed>
<course>90.0</course>
<desc>Speed 0.3 km/h Distance 2.88 km</desc>
<time>2010-02-24T17:49:14.97</time>
<name>2602</name>
</trkpt>
<trkpt lat="48.934155" lon="8.656343">
<ele>358.0</ele>
<speed>0.1</speed>
<course>90.0</course>
<desc>Speed 0.1 km/h Distance 2.88 km</desc>
<time>2010-02-24T17:49:15.97</time>
<name>2603</name>
</trkpt>
<trkpt lat="48.934155" lon="8.656343">
<ele>358.5</ele>
<speed>0.4</speed>
<course>12.6</course>
<desc>Speed 0.4 km/h Distance 2.88 km</desc>
<time>2010-02-24T17:49:16.97</time>
<name>2604</name>
</trkpt>
<trkpt lat="48.934157" lon="8.656343">
<ele>358.5</ele>
<speed>0.0</speed>
<course>12.6</course>
<desc>Speed 0.0 km/h Distance 2.88 km</desc>
<time>2010-02-24T17:49:17.98</time>
<name>2605</name>
</trkpt>
<trkpt lat="48.934157" lon="8.656343">
<ele>358.5</ele>
<speed>0.3</speed>
<course>12.6</course>
<desc>Speed 0.3 km/h Distance 2.88 km</desc>
<time>2010-02-24T17:49:18.98</time>
<name>2606</name>
</trkpt>
<trkpt lat="48.934157" lon="8.656343">
<ele>358.0</ele>
<speed>0.3</speed>
<course>90.0</course>
<desc>Speed 0.3 km/h Distance 2.88 km</desc>
<time>2010-02-24T17:49:19.97</time>
<name>2607</name>
</trkpt>
<trkpt lat="48.934157" lon="8.656345">
<ele>358.5</ele>
<speed>0.7</speed>
<course>90.0</course>
<desc>Speed 0.7 km/h Distance 2.88 km</desc>
<time>2010-02-24T17:49:20.97</time>
<name>2608</name>
</trkpt>
<trkpt lat="48.934157" lon="8.656345">
<ele>358.0</ele>
<speed>0.6</speed>
<course>167.4</course>
<desc>Speed 0.6 km/h Distance 2.88 km</desc>
<time>2010-02-24T17:49:21.97</time>
<name>2609</name>
</trkpt>
<trkpt lat="48.934155" lon="8.656345">
<ele>358.0</ele>
<speed>0.1</speed>
<course>167.4</course>
<desc>Speed 0.1 km/h Distance 2.88 km</desc>
<time>2010-02-24T17:49:22.97</time>
<name>2610</name>
</trkpt>
<trkpt lat="48.934155" lon="8.656345">
<ele>358.0</ele>
<speed>0.3</speed>
<course>167.4</course>
<desc>Speed 0.3 km/h Distance 2.88 km</desc>
<time>2010-02-24T17:49:23.97</time>
<name>2611</name>
</trkpt>
<trkpt lat="48.934155" lon="8.656345">
<ele>358.0</ele>
<speed>0.4</speed>
<course>167.4</course>
<desc>Speed 0.4 km/h Distance 2.88 km</desc>
<time>2010-02-24T17:49:24.97</time>
<name>2612</name>
</trkpt>
<trkpt lat="48.934155" lon="8.656345">
<ele>358.0</ele>
<speed>0.4</speed>
<course>110.9</course>
<desc>Speed 0.4 km/h Distance 2.88 km</desc>
<time>2010-02-24T17:49:25.97</time>
<name>2613</name>
</trkpt>
<trkpt lat="48.934153" lon="8.656352">
<ele>358.0</ele>
<speed>1.5</speed>
<course>117.4</course>
<desc>Speed 1.5 km/h Distance 2.88 km</desc>
<time>2010-02-24T17:49:26.97</time>
<name>2614</name>
</trkpt>
<trkpt lat="48.934152" lon="8.656357">
<ele>357.5</ele>
<speed>1.3</speed>
<course>121.4</course>
<desc>Speed 1.3 km/h Distance 2.88 km</desc>
<time>2010-02-24T17:49:27.97</time>
<name>2615</name>
</trkpt>
<trkpt lat="48.934148" lon="8.656365">
<ele>357.5</ele>
<speed>1.8</speed>
<course>90.0</course>
<desc>Speed 1.8 km/h Distance 2.88 km</desc>
<time>2010-02-24T17:49:28.97</time>
<name>2616</name>
</trkpt>
<trkpt lat="48.934148" lon="8.656370">
<ele>357.0</ele>
<speed>1.0</speed>
<course>123.1</course>
<desc>Speed 1.0 km/h Distance 2.88 km</desc>
<time>2010-02-24T17:49:29.97</time>
<name>2617</name>
</trkpt>
<trkpt lat="48.934143" lon="8.656382">
<ele>357.0</ele>
<speed>3.3</speed>
<course>122.9</course>
<desc>Speed 3.3 km/h Distance 2.88 km</desc>
<time>2010-02-24T17:49:30.97</time>
<name>2618</name>
</trkpt>
<trkpt lat="48.934138" lon="8.656393">
<ele>357.0</ele>
<speed>3.3</speed>
<course>127.3</course>
<desc>Speed 3.3 km/h Distance 2.88 km</desc>
<time>2010-02-24T17:49:31.97</time>
<name>2619</name>
</trkpt>
<trkpt lat="48.934130" lon="8.656410">
<ele>356.5</ele>
<speed>3.1</speed>
<course>113.5</course>
<desc>Speed 3.1 km/h Distance 2.88 km</desc>
<time>2010-02-24T17:49:32.97</time>
<name>2620</name>
</trkpt>
<trkpt lat="48.934127" lon="8.656422">
<ele>356.5</ele>
<speed>3.0</speed>
<course>119.7</course>
<desc>Speed 3.0 km/h Distance 2.89 km</desc>
<time>2010-02-24T17:49:33.97</time>
<name>2621</name>
</trkpt>
<trkpt lat="48.934122" lon="8.656435">
<ele>356.5</ele>
<speed>2.8</speed>
<course>127.3</course>
<desc>Speed 2.8 km/h Distance 2.89 km</desc>
<time>2010-02-24T17:49:34.96</time>
<name>2622</name>
</trkpt>
<trkpt lat="48.934115" lon="8.656448">
<ele>356.5</ele>
<speed>3.1</speed>
<course>131.1</course>
<desc>Speed 3.1 km/h Distance 2.89 km</desc>
<time>2010-02-24T17:49:35.96</time>
<name>2623</name>
</trkpt>
<trkpt lat="48.934108" lon="8.656460">
<ele>356.5</ele>
<speed>2.6</speed>
<course>117.0</course>
<desc>Speed 2.6 km/h Distance 2.89 km</desc>
<time>2010-02-24T17:49:36.97</time>
<name>2624</name>
</trkpt>
<trkpt lat="48.934105" lon="8.656470">
<ele>356.0</ele>
<speed>2.3</speed>
<course>117.4</course>
<desc>Speed 2.3 km/h Distance 2.89 km</desc>
<time>2010-02-24T17:49:37.97</time>
<name>2625</name>
</trkpt>
<trkpt lat="48.934103" lon="8.656475">
<ele>355.5</ele>
<speed>0.7</speed>
<course>117.4</course>
<desc>Speed 0.7 km/h Distance 2.89 km</desc>
<time>2010-02-24T17:49:38.97</time>
<name>2626</name>
</trkpt>
<trkpt lat="48.934102" lon="8.656480">
<ele>355.0</ele>
<speed>1.1</speed>
<course>130.9</course>
<desc>Speed 1.1 km/h Distance 2.89 km</desc>
<time>2010-02-24T17:49:39.97</time>
<name>2627</name>
</trkpt>
<trkpt lat="48.934095" lon="8.656492">
<ele>354.5</ele>
<speed>3.1</speed>
<course>107.1</course>
<desc>Speed 3.1 km/h Distance 2.89 km</desc>
<time>2010-02-24T17:49:40.96</time>
<name>2628</name>
</trkpt>
<trkpt lat="48.934093" lon="8.656500">
<ele>354.0</ele>
<speed>2.3</speed>
<course>117.0</course>
<desc>Speed 2.3 km/h Distance 2.89 km</desc>
<time>2010-02-24T17:49:41.96</time>
<name>2629</name>
</trkpt>
<trkpt lat="48.934090" lon="8.656510">
<ele>353.5</ele>
<speed>2.5</speed>
<course>110.9</course>
<desc>Speed 2.5 km/h Distance 2.89 km</desc>
<time>2010-02-24T17:49:42.96</time>
<name>2630</name>
</trkpt>
<trkpt lat="48.934088" lon="8.656517">
<ele>352.5</ele>
<speed>1.7</speed>
<course>33.7</course>
<desc>Speed 1.7 km/h Distance 2.89 km</desc>
<time>2010-02-24T17:49:43.96</time>
<name>2631</name>
</trkpt>
<trkpt lat="48.934092" lon="8.656520">
<ele>351.5</ele>
<speed>1.9</speed>
<course>90.0</course>
<desc>Speed 1.9 km/h Distance 2.89 km</desc>
<time>2010-02-24T17:49:44.96</time>
<name>2632</name>
</trkpt>
<trkpt lat="48.934092" lon="8.656522">
<ele>351.5</ele>
<speed>0.7</speed>
<course>139.1</course>
<desc>Speed 0.7 km/h Distance 2.89 km</desc>
<time>2010-02-24T17:49:45.96</time>
<name>2633</name>
</trkpt>
<trkpt lat="48.934087" lon="8.656528">
<ele>350.5</ele>
<speed>2.1</speed>
<course>123.1</course>
<desc>Speed 2.1 km/h Distance 2.90 km</desc>
<time>2010-02-24T17:49:46.98</time>
<name>2634</name>
</trkpt>
<trkpt lat="48.934082" lon="8.656540">
<ele>349.5</ele>
<speed>3.2</speed>
<course>127.3</course>
<desc>Speed 3.2 km/h Distance 2.90 km</desc>
<time>2010-02-24T17:49:47.95</time>
<name>2635</name>
</trkpt>
<trkpt lat="48.934075" lon="8.656553">
<ele>349.5</ele>
<speed>3.3</speed>
<course>130.9</course>
<desc>Speed 3.3 km/h Distance 2.90 km</desc>
<time>2010-02-24T17:49:48.95</time>
<name>2636</name>
</trkpt>
<trkpt lat="48.934068" lon="8.656565">
<ele>349.0</ele>
<speed>2.9</speed>
<course>110.8</course>
<desc>Speed 2.9 km/h Distance 2.90 km</desc>
<time>2010-02-24T17:49:49.96</time>
<name>2637</name>
</trkpt>
<trkpt lat="48.934065" lon="8.656578">
<ele>349.0</ele>
<speed>3.9</speed>
<course>116.9</course>
<desc>Speed 3.9 km/h Distance 2.90 km</desc>
<time>2010-02-24T17:49:50.96</time>
<name>2638</name>
</trkpt>
<trkpt lat="48.934060" lon="8.656593">
<ele>348.5</ele>
<speed>3.9</speed>
<course>121.3</course>
<desc>Speed 3.9 km/h Distance 2.90 km</desc>
<time>2010-02-24T17:49:51.98</time>
<name>2639</name>
</trkpt>
<trkpt lat="48.934053" lon="8.656610">
<ele>348.5</ele>
<speed>4.3</speed>
<course>137.4</course>
<desc>Speed 4.3 km/h Distance 2.90 km</desc>
<time>2010-02-24T17:49:52.95</time>
<name>2640</name>
</trkpt>
<trkpt lat="48.934045" lon="8.656622">
<ele>348.0</ele>
<speed>3.1</speed>
<course>139.8</course>
<desc>Speed 3.1 km/h Distance 2.90 km</desc>
<time>2010-02-24T17:49:53.95</time>
<name>2641</name>
</trkpt>
<trkpt lat="48.934033" lon="8.656637">
<ele>347.0</ele>
<speed>4.5</speed>
<course>129.1</course>
<desc>Speed 4.5 km/h Distance 2.91 km</desc>
<time>2010-02-24T17:49:54.97</time>
<name>2642</name>
</trkpt>
<trkpt lat="48.934020" lon="8.656662">
<ele>348.0</ele>
<speed>3.0</speed>
<course>99.6</course>
<desc>Speed 3.0 km/h Distance 2.91 km</desc>
<time>2010-02-24T17:49:55.94</time>
<name>2643</name>
</trkpt>
<trkpt lat="48.934018" lon="8.656677">
<ele>348.0</ele>
<speed>3.0</speed>
<course>110.8</course>
<desc>Speed 3.0 km/h Distance 2.91 km</desc>
<time>2010-02-24T17:49:56.97</time>
<name>2644</name>
</trkpt>
<trkpt lat="48.934015" lon="8.656690">
<ele>347.5</ele>
<speed>2.4</speed>
<course>135.5</course>
<desc>Speed 2.4 km/h Distance 2.91 km</desc>
<time>2010-02-24T17:49:57.95</time>
<name>2645</name>
</trkpt>
<trkpt lat="48.934005" lon="8.656705">
<ele>346.5</ele>
<speed>4.2</speed>
<course>151.4</course>
<desc>Speed 4.2 km/h Distance 2.91 km</desc>
<time>2010-02-24T17:49:58.95</time>
<name>2646</name>
</trkpt>
<trkpt lat="48.933995" lon="8.656713">
<ele>345.0</ele>
<speed>4.5</speed>
<course>151.8</course>
<desc>Speed 4.5 km/h Distance 2.91 km</desc>
<time>2010-02-24T17:49:59.98</time>
<name>2647</name>
</trkpt>
<trkpt lat="48.933977" lon="8.656728">
<ele>344.5</ele>
<speed>4.4</speed>
<course>148.9</course>
<desc>Speed 4.4 km/h Distance 2.91 km</desc>
<time>2010-02-24T17:50:00.95</time>
<name>2648</name>
</trkpt>
<trkpt lat="48.933957" lon="8.656747">
<ele>343.5</ele>
<speed>4.9</speed>
<course>90.0</course>
<desc>Speed 4.9 km/h Distance 2.92 km</desc>
<time>2010-02-24T17:50:01.95</time>
<name>2649</name>
</trkpt>
<trkpt lat="48.933957" lon="8.656765">
<ele>344.0</ele>
<speed>3.6</speed>
<course>146.5</course>
<desc>Speed 3.6 km/h Distance 2.92 km</desc>
<time>2010-02-24T17:50:02.95</time>
<name>2650</name>
</trkpt>
<trkpt lat="48.933948" lon="8.656773">
<ele>343.5</ele>
<speed>3.9</speed>
<course>140.3</course>
<desc>Speed 3.9 km/h Distance 2.92 km</desc>
<time>2010-02-24T17:50:03.95</time>
<name>2651</name>
</trkpt>
<trkpt lat="48.933942" lon="8.656782">
<ele>342.5</ele>
<speed>3.7</speed>
<course>127.0</course>
<desc>Speed 3.7 km/h Distance 2.92 km</desc>
<time>2010-02-24T17:50:04.95</time>
<name>2652</name>
</trkpt>
<trkpt lat="48.933938" lon="8.656788">
<ele>341.5</ele>
<speed>2.5</speed>
<course>90.0</course>
<desc>Speed 2.5 km/h Distance 2.92 km</desc>
<time>2010-02-24T17:50:05.95</time>
<name>2653</name>
</trkpt>
<trkpt lat="48.933938" lon="8.656792">
<ele>340.5</ele>
<speed>1.5</speed>
<course>12.6</course>
<desc>Speed 1.5 km/h Distance 2.92 km</desc>
<time>2010-02-24T17:50:06.94</time>
<name>2654</name>
</trkpt>
<trkpt lat="48.933943" lon="8.656793">
<ele>340.0</ele>
<speed>0.6</speed>
<course>146.3</course>
<desc>Speed 0.6 km/h Distance 2.92 km</desc>
<time>2010-02-24T17:50:07.94</time>
<name>2655</name>
</trkpt>
<trkpt lat="48.933940" lon="8.656797">
<ele>339.0</ele>
<speed>1.9</speed>
<course>157.8</course>
<desc>Speed 1.9 km/h Distance 2.92 km</desc>
<time>2010-02-24T17:50:08.94</time>
<name>2656</name>
</trkpt>
<trkpt lat="48.933935" lon="8.656800">
<ele>338.0</ele>
<speed>2.0</speed>
<course>152.1</course>
<desc>Speed 2.0 km/h Distance 2.92 km</desc>
<time>2010-02-24T17:50:09.94</time>
<name>2657</name>
</trkpt>
<trkpt lat="48.933927" lon="8.656807">
<ele>337.0</ele>
<speed>2.8</speed>
<course>159.2</course>
<desc>Speed 2.8 km/h Distance 2.92 km</desc>
<time>2010-02-24T17:50:10.96</time>
<name>2658</name>
</trkpt>
<trkpt lat="48.933918" lon="8.656812">
<ele>336.5</ele>
<speed>2.1</speed>
<course>180.0</course>
<desc>Speed 2.1 km/h Distance 2.93 km</desc>
<time>2010-02-24T17:50:11.94</time>
<name>2659</name>
</trkpt>
<trkpt lat="48.933913" lon="8.656812">
<ele>336.0</ele>
<speed>2.2</speed>
<course>140.6</course>
<desc>Speed 2.2 km/h Distance 2.93 km</desc>
<time>2010-02-24T17:50:12.94</time>
<name>2660</name>
</trkpt>
<trkpt lat="48.933900" lon="8.656828">
<ele>337.5</ele>
<speed>0.8</speed>
<course>146.3</course>
<desc>Speed 0.8 km/h Distance 2.93 km</desc>
<time>2010-02-24T17:50:13.94</time>
<name>2661</name>
</trkpt>
<trkpt lat="48.933897" lon="8.656832">
<ele>337.0</ele>
<speed>1.8</speed>
<course>127.2</course>
<desc>Speed 1.8 km/h Distance 2.93 km</desc>
<time>2010-02-24T17:50:14.94</time>
<name>2662</name>
</trkpt>
<trkpt lat="48.933892" lon="8.656842">
<ele>336.5</ele>
<speed>2.2</speed>
<course>130.3</course>
<desc>Speed 2.2 km/h Distance 2.93 km</desc>
<time>2010-02-24T17:50:15.94</time>
<name>2663</name>
</trkpt>
<trkpt lat="48.933883" lon="8.656857">
<ele>336.5</ele>
<speed>2.4</speed>
<course>132.4</course>
<desc>Speed 2.4 km/h Distance 2.93 km</desc>
<time>2010-02-24T17:50:16.94</time>
<name>2664</name>
</trkpt>
<trkpt lat="48.933873" lon="8.656873">
<ele>336.5</ele>
<speed>2.0</speed>
<course>77.8</course>
<desc>Speed 2.0 km/h Distance 2.93 km</desc>
<time>2010-02-24T17:50:17.93</time>
<name>2665</name>
</trkpt>
<trkpt lat="48.933875" lon="8.656885">
<ele>335.0</ele>
<speed>2.9</speed>
<course>132.2</course>
<desc>Speed 2.9 km/h Distance 2.93 km</desc>
<time>2010-02-24T17:50:18.93</time>
<name>2666</name>
</trkpt>
<trkpt lat="48.933870" lon="8.656893">
<ele>334.5</ele>
<speed>2.3</speed>
<course>146.7</course>
<desc>Speed 2.3 km/h Distance 2.93 km</desc>
<time>2010-02-24T17:50:19.93</time>
<name>2667</name>
</trkpt>
<trkpt lat="48.933855" lon="8.656908">
<ele>335.0</ele>
<speed>2.1</speed>
<course>90.0</course>
<desc>Speed 2.1 km/h Distance 2.94 km</desc>
<time>2010-02-24T17:50:20.93</time>
<name>2668</name>
</trkpt>
<trkpt lat="48.933855" lon="8.656913">
<ele>335.0</ele>
<speed>0.9</speed>
<course>110.9</course>
<desc>Speed 0.9 km/h Distance 2.94 km</desc>
<time>2010-02-24T17:50:21.93</time>
<name>2669</name>
</trkpt>
<trkpt lat="48.933853" lon="8.656920">
<ele>335.0</ele>
<speed>2.2</speed>
<course>119.7</course>
<desc>Speed 2.2 km/h Distance 2.94 km</desc>
<time>2010-02-24T17:50:22.94</time>
<name>2670</name>
</trkpt>
<trkpt lat="48.933848" lon="8.656933">
<ele>335.5</ele>
<speed>1.9</speed>
<course>63.4</course>
<desc>Speed 1.9 km/h Distance 2.94 km</desc>
<time>2010-02-24T17:50:23.93</time>
<name>2671</name>
</trkpt>
<trkpt lat="48.933850" lon="8.656938">
<ele>335.5</ele>
<speed>1.1</speed>
<course>53.0</course>
<desc>Speed 1.1 km/h Distance 2.94 km</desc>
<time>2010-02-24T17:50:24.93</time>
<name>2672</name>
</trkpt>
<trkpt lat="48.933853" lon="8.656945">
<ele>335.5</ele>
<speed>0.8</speed>
<course>117.4</course>
<desc>Speed 0.8 km/h Distance 2.94 km</desc>
<time>2010-02-24T17:50:25.94</time>
<name>2673</name>
</trkpt>
<trkpt lat="48.933852" lon="8.656950">
<ele>334.0</ele>
<speed>0.9</speed>
<course>130.9</course>
<desc>Speed 0.9 km/h Distance 2.94 km</desc>
<time>2010-02-24T17:50:26.94</time>
<name>2674</name>
</trkpt>
<trkpt lat="48.933845" lon="8.656962">
<ele>333.5</ele>
<speed>2.0</speed>
<course>113.5</course>
<desc>Speed 2.0 km/h Distance 2.94 km</desc>
<time>2010-02-24T17:50:27.94</time>
<name>2675</name>
</trkpt>
<trkpt lat="48.933842" lon="8.656973">
<ele>334.0</ele>
<speed>1.3</speed>
<course>146.8</course>
<desc>Speed 1.3 km/h Distance 2.94 km</desc>
<time>2010-02-24T17:50:28.94</time>
<name>2676</name>
</trkpt>
<trkpt lat="48.933832" lon="8.656983">
<ele>333.5</ele>
<speed>2.1</speed>
<course>127.0</course>
<desc>Speed 2.1 km/h Distance 2.94 km</desc>
<time>2010-02-24T17:50:29.94</time>
<name>2677</name>
</trkpt>
<trkpt lat="48.933828" lon="8.656990">
<ele>332.5</ele>
<speed>1.4</speed>
<course>127.6</course>
<desc>Speed 1.4 km/h Distance 2.94 km</desc>
<time>2010-02-24T17:50:30.93</time>
<name>2678</name>
</trkpt>
<trkpt lat="48.933823" lon="8.657000">
<ele>332.0</ele>
<speed>1.7</speed>
<course>132.6</course>
<desc>Speed 1.7 km/h Distance 2.94 km</desc>
<time>2010-02-24T17:50:31.93</time>
<name>2679</name>
</trkpt>
<trkpt lat="48.933818" lon="8.657008">
<ele>331.5</ele>
<speed>1.4</speed>
<course>117.0</course>
<desc>Speed 1.4 km/h Distance 2.95 km</desc>
<time>2010-02-24T17:50:32.93</time>
<name>2680</name>
</trkpt>
<trkpt lat="48.933815" lon="8.657018">
<ele>331.0</ele>
<speed>1.9</speed>
<course>117.4</course>
<desc>Speed 1.9 km/h Distance 2.95 km</desc>
<time>2010-02-24T17:50:33.93</time>
<name>2681</name>
</trkpt>
<trkpt lat="48.933813" lon="8.657023">
<ele>330.5</ele>
<speed>1.5</speed>
<course>117.0</course>
<desc>Speed 1.5 km/h Distance 2.95 km</desc>
<time>2010-02-24T17:50:34.93</time>
<name>2682</name>
</trkpt>
<trkpt lat="48.933810" lon="8.657033">
<ele>331.0</ele>
<speed>1.7</speed>
<course>128.1</course>
<desc>Speed 1.7 km/h Distance 2.95 km</desc>
<time>2010-02-24T17:50:35.93</time>
<name>2683</name>
</trkpt>
<trkpt lat="48.933808" lon="8.657037">
<ele>330.5</ele>
<speed>1.1</speed>
<course>139.1</course>
<desc>Speed 1.1 km/h Distance 2.95 km</desc>
<time>2010-02-24T17:50:36.93</time>
<name>2684</name>
</trkpt>
<trkpt lat="48.933803" lon="8.657043">
<ele>330.5</ele>
<speed>2.8</speed>
<course>135.5</course>
<desc>Speed 2.8 km/h Distance 2.95 km</desc>
<time>2010-02-24T17:50:37.93</time>
<name>2685</name>
</trkpt>
<trkpt lat="48.933793" lon="8.657058">
<ele>330.0</ele>
<speed>1.7</speed>
<course>122.4</course>
<desc>Speed 1.7 km/h Distance 2.95 km</desc>
<time>2010-02-24T17:50:38.93</time>
<name>2686</name>
</trkpt>
<trkpt lat="48.933785" lon="8.657078">
<ele>329.0</ele>
<speed>1.4</speed>
<course>110.9</course>
<desc>Speed 1.4 km/h Distance 2.95 km</desc>
<time>2010-02-24T17:50:39.93</time>
<name>2687</name>
</trkpt>
<trkpt lat="48.933783" lon="8.657085">
<ele>328.5</ele>
<speed>1.4</speed>
<course>132.2</course>
<desc>Speed 1.4 km/h Distance 2.95 km</desc>
<time>2010-02-24T17:50:40.93</time>
<name>2688</name>
</trkpt>
<trkpt lat="48.933778" lon="8.657093">
<ele>328.0</ele>
<speed>2.6</speed>
<course>51.9</course>
<desc>Speed 2.6 km/h Distance 2.95 km</desc>
<time>2010-02-24T17:50:41.93</time>
<name>2689</name>
</trkpt>
<trkpt lat="48.933780" lon="8.657097">
<ele>329.0</ele>
<speed>0.5</speed>
<course>135.5</course>
<desc>Speed 0.5 km/h Distance 2.95 km</desc>
<time>2010-02-24T17:50:42.93</time>
<name>2690</name>
</trkpt>
<trkpt lat="48.933777" lon="8.657102">
<ele>328.0</ele>
<speed>1.2</speed>
<course>90.0</course>
<desc>Speed 1.2 km/h Distance 2.95 km</desc>
<time>2010-02-24T17:50:43.93</time>
<name>2691</name>
</trkpt>
<trkpt lat="48.933777" lon="8.657108">
<ele>327.5</ele>
<speed>0.9</speed>
<course>110.8</course>
<desc>Speed 0.9 km/h Distance 2.95 km</desc>
<time>2010-02-24T17:50:44.93</time>
<name>2692</name>
</trkpt>
<trkpt lat="48.933773" lon="8.657122">
<ele>326.5</ele>
<speed>1.7</speed>
<course>62.6</course>
<desc>Speed 1.7 km/h Distance 2.96 km</desc>
<time>2010-02-24T17:50:45.93</time>
<name>2693</name>
</trkpt>
<trkpt lat="48.933775" lon="8.657127">
<ele>326.0</ele>
<speed>1.3</speed>
<course>90.0</course>
<desc>Speed 1.3 km/h Distance 2.96 km</desc>
<time>2010-02-24T17:50:46.93</time>
<name>2694</name>
</trkpt>
<trkpt lat="48.933775" lon="8.657128">
<ele>326.0</ele>
<speed>0.6</speed>
<course>90.0</course>
<desc>Speed 0.6 km/h Distance 2.96 km</desc>
<time>2010-02-24T17:50:47.93</time>
<name>2695</name>
</trkpt>
<trkpt lat="48.933775" lon="8.657135">
<ele>325.5</ele>
<speed>0.8</speed>
<course>135.5</course>
<desc>Speed 0.8 km/h Distance 2.96 km</desc>
<time>2010-02-24T17:50:48.93</time>
<name>2696</name>
</trkpt>
<trkpt lat="48.933772" lon="8.657140">
<ele>325.5</ele>
<speed>0.6</speed>
<course>135.2</course>
<desc>Speed 0.6 km/h Distance 2.96 km</desc>
<time>2010-02-24T17:50:49.93</time>
<name>2697</name>
</trkpt>
<trkpt lat="48.933765" lon="8.657150">
<ele>326.5</ele>
<speed>0.6</speed>
<course>137.4</course>
<desc>Speed 0.6 km/h Distance 2.96 km</desc>
<time>2010-02-24T17:50:50.93</time>
<name>2698</name>
</trkpt>
<trkpt lat="48.933757" lon="8.657162">
<ele>326.0</ele>
<speed>0.8</speed>
<course>142.5</course>
<desc>Speed 0.8 km/h Distance 2.96 km</desc>
<time>2010-02-24T17:50:51.92</time>
<name>2699</name>
</trkpt>
<trkpt lat="48.933747" lon="8.657173">
<ele>325.5</ele>
<speed>0.4</speed>
<course>130.9</course>
<desc>Speed 0.4 km/h Distance 2.96 km</desc>
<time>2010-02-24T17:50:52.92</time>
<name>2700</name>
</trkpt>
<trkpt lat="48.933740" lon="8.657185">
<ele>325.5</ele>
<speed>1.4</speed>
<course>146.7</course>
<desc>Speed 1.4 km/h Distance 2.96 km</desc>
<time>2010-02-24T17:50:53.92</time>
<name>2701</name>
</trkpt>
<trkpt lat="48.933728" lon="8.657197">
<ele>325.0</ele>
<speed>3.9</speed>
<course>113.6</course>
<desc>Speed 3.9 km/h Distance 2.96 km</desc>
<time>2010-02-24T17:50:54.92</time>
<name>2702</name>
</trkpt>
<trkpt lat="48.933725" lon="8.657208">
<ele>324.0</ele>
<speed>1.7</speed>
<course>102.3</course>
<desc>Speed 1.7 km/h Distance 2.96 km</desc>
<time>2010-02-24T17:50:55.92</time>
<name>2703</name>
</trkpt>
<trkpt lat="48.933723" lon="8.657220">
<ele>322.5</ele>
<speed>1.7</speed>
<course>132.4</course>
<desc>Speed 1.7 km/h Distance 2.96 km</desc>
<time>2010-02-24T17:50:56.92</time>
<name>2704</name>
</trkpt>
<trkpt lat="48.933713" lon="8.657237">
<ele>322.0</ele>
<speed>2.2</speed>
<course>130.2</course>
<desc>Speed 2.2 km/h Distance 2.97 km</desc>
<time>2010-02-24T17:50:57.92</time>
<name>2705</name>
</trkpt>
<trkpt lat="48.933705" lon="8.657252">
<ele>320.5</ele>
<speed>1.5</speed>
<course>117.0</course>
<desc>Speed 1.5 km/h Distance 2.97 km</desc>
<time>2010-02-24T17:50:58.92</time>
<name>2706</name>
</trkpt>
<trkpt lat="48.933702" lon="8.657262">
<ele>320.0</ele>
<speed>1.8</speed>
<course>140.6</course>
<desc>Speed 1.8 km/h Distance 2.97 km</desc>
<time>2010-02-24T17:50:59.92</time>
<name>2707</name>
</trkpt>
<trkpt lat="48.933688" lon="8.657278">
<ele>320.0</ele>
<speed>1.4</speed>
<course>146.3</course>
<desc>Speed 1.4 km/h Distance 2.97 km</desc>
<time>2010-02-24T17:51:00.92</time>
<name>2708</name>
</trkpt>
<trkpt lat="48.933685" lon="8.657282">
<ele>319.5</ele>
<speed>1.4</speed>
<course>135.5</course>
<desc>Speed 1.4 km/h Distance 2.97 km</desc>
<time>2010-02-24T17:51:01.92</time>
<name>2709</name>
</trkpt>
<trkpt lat="48.933682" lon="8.657287">
<ele>320.5</ele>
<speed>0.5</speed>
<course>127.0</course>
<desc>Speed 0.5 km/h Distance 2.97 km</desc>
<time>2010-02-24T17:51:02.92</time>
<name>2710</name>
</trkpt>
<trkpt lat="48.933678" lon="8.657293">
<ele>321.0</ele>
<speed>0.2</speed>
<course>63.4</course>
<desc>Speed 0.2 km/h Distance 2.97 km</desc>
<time>2010-02-24T17:51:03.92</time>
<name>2711</name>
</trkpt>
<trkpt lat="48.933680" lon="8.657298">
<ele>322.0</ele>
<speed>0.2</speed>
<course>142.8</course>
<desc>Speed 0.2 km/h Distance 2.97 km</desc>
<time>2010-02-24T17:51:04.92</time>
<name>2712</name>
</trkpt>
<trkpt lat="48.933678" lon="8.657300">
<ele>322.0</ele>
<speed>0.3</speed>
<course>12.6</course>
<desc>Speed 0.3 km/h Distance 2.97 km</desc>
<time>2010-02-24T17:51:05.92</time>
<name>2713</name>
</trkpt>
<trkpt lat="48.933680" lon="8.657300">
<ele>322.0</ele>
<speed>0.6</speed>
<course>106.7</course>
<desc>Speed 0.6 km/h Distance 2.97 km</desc>
<time>2010-02-24T17:51:06.92</time>
<name>2714</name>
</trkpt>
<trkpt lat="48.933678" lon="8.657308">
<ele>322.0</ele>
<speed>1.7</speed>
<course>12.6</course>
<desc>Speed 1.7 km/h Distance 2.97 km</desc>
<time>2010-02-24T17:51:07.92</time>
<name>2715</name>
</trkpt>
<trkpt lat="48.933680" lon="8.657308">
<ele>322.0</ele>
<speed>0.5</speed>
<course>69.2</course>
<desc>Speed 0.5 km/h Distance 2.97 km</desc>
<time>2010-02-24T17:51:08.92</time>
<name>2716</name>
</trkpt>
<trkpt lat="48.933683" lon="8.657322">
<ele>322.5</ele>
<speed>1.1</speed>
<course>12.6</course>
<desc>Speed 1.1 km/h Distance 2.97 km</desc>
<time>2010-02-24T17:51:09.92</time>
<name>2717</name>
</trkpt>
<trkpt lat="48.933687" lon="8.657323">
<ele>322.5</ele>
<speed>0.5</speed>
<course>146.3</course>
<desc>Speed 0.5 km/h Distance 2.98 km</desc>
<time>2010-02-24T17:51:10.92</time>
<name>2718</name>
</trkpt>
<trkpt lat="48.933683" lon="8.657327">
<ele>322.5</ele>
<speed>0.5</speed>
<course>106.9</course>
<desc>Speed 0.5 km/h Distance 2.98 km</desc>
<time>2010-02-24T17:51:11.92</time>
<name>2719</name>
</trkpt>
<trkpt lat="48.933682" lon="8.657335">
<ele>322.5</ele>
<speed>0.7</speed>
<course>18.8</course>
<desc>Speed 0.7 km/h Distance 2.98 km</desc>
<time>2010-02-24T17:51:12.91</time>
<name>2720</name>
</trkpt>
<trkpt lat="48.933685" lon="8.657337">
<ele>322.5</ele>
<speed>0.1</speed>
<course>90.0</course>
<desc>Speed 0.1 km/h Distance 2.98 km</desc>
<time>2010-02-24T17:51:13.92</time>
<name>2721</name>
</trkpt>
<trkpt lat="48.933685" lon="8.657355">
<ele>323.5</ele>
<speed>1.6</speed>
<course>142.8</course>
<desc>Speed 1.6 km/h Distance 2.98 km</desc>
<time>2010-02-24T17:51:14.91</time>
<name>2722</name>
</trkpt>
<trkpt lat="48.933683" lon="8.657357">
<ele>324.0</ele>
<speed>0.4</speed>
<course>104.2</course>
<desc>Speed 0.4 km/h Distance 2.98 km</desc>
<time>2010-02-24T17:51:15.91</time>
<name>2723</name>
</trkpt>
<trkpt lat="48.933682" lon="8.657367">
<ele>322.5</ele>
<speed>1.7</speed>
<course>117.0</course>
<desc>Speed 1.7 km/h Distance 2.98 km</desc>
<time>2010-02-24T17:51:16.92</time>
<name>2724</name>
</trkpt>
<trkpt lat="48.933678" lon="8.657377">
<ele>323.0</ele>
<speed>0.9</speed>
<course>0.0</course>
<desc>Speed 0.9 km/h Distance 2.98 km</desc>
<time>2010-02-24T17:51:17.91</time>
<name>2725</name>
</trkpt>
<trkpt lat="48.933682" lon="8.657377">
<ele>323.5</ele>
<speed>1.0</speed>
<course>145.9</course>
<desc>Speed 1.0 km/h Distance 2.98 km</desc>
<time>2010-02-24T17:51:18.91</time>
<name>2726</name>
</trkpt>
<trkpt lat="48.933677" lon="8.657382">
<ele>323.5</ele>
<speed>1.7</speed>
<course>84.9</course>
<desc>Speed 1.7 km/h Distance 2.98 km</desc>
<time>2010-02-24T17:51:19.91</time>
<name>2727</name>
</trkpt>
<trkpt lat="48.933678" lon="8.657410">
<ele>325.0</ele>
<speed>2.1</speed>
<course>109.4</course>
<desc>Speed 2.1 km/h Distance 2.98 km</desc>
<time>2010-02-24T17:51:20.94</time>
<name>2728</name>
</trkpt>
<trkpt lat="48.933673" lon="8.657432">
<ele>326.0</ele>
<speed>1.5</speed>
<course>120.3</course>
<desc>Speed 1.5 km/h Distance 2.98 km</desc>
<time>2010-02-24T17:51:21.91</time>
<name>2729</name>
</trkpt>
<trkpt lat="48.933665" lon="8.657453">
<ele>328.5</ele>
<speed>1.4</speed>
<course>150.1</course>
<desc>Speed 1.4 km/h Distance 2.99 km</desc>
<time>2010-02-24T17:51:22.91</time>
<name>2730</name>
</trkpt>
<trkpt lat="48.933638" lon="8.657477">
<ele>328.0</ele>
<speed>0.9</speed>
<course>90.0</course>
<desc>Speed 0.9 km/h Distance 2.99 km</desc>
<time>2010-02-24T17:51:24.93</time>
<name>2731</name>
</trkpt>
<trkpt lat="48.933638" lon="8.657480">
<ele>327.0</ele>
<speed>0.9</speed>
<course>12.6</course>
<desc>Speed 0.9 km/h Distance 2.99 km</desc>
<time>2010-02-24T17:51:25.90</time>
<name>2732</name>
</trkpt>
<trkpt lat="48.933643" lon="8.657482">
<ele>327.0</ele>
<speed>0.9</speed>
<course>61.5</course>
<desc>Speed 0.9 km/h Distance 2.99 km</desc>
<time>2010-02-24T17:51:26.93</time>
<name>2733</name>
</trkpt>
<trkpt lat="48.933652" lon="8.657505">
<ele>328.0</ele>
<speed>5.0</speed>
<course>90.0</course>
<desc>Speed 5.0 km/h Distance 2.99 km</desc>
<time>2010-02-24T17:51:27.90</time>
<name>2734</name>
</trkpt>
<trkpt lat="48.933652" lon="8.657520">
<ele>329.0</ele>
<speed>1.1</speed>
<course>105.5</course>
<desc>Speed 1.1 km/h Distance 2.99 km</desc>
<time>2010-02-24T17:51:28.90</time>
<name>2735</name>
</trkpt>
<trkpt lat="48.933648" lon="8.657538">
<ele>331.5</ele>
<speed>1.1</speed>
<course>90.0</course>
<desc>Speed 1.1 km/h Distance 3.00 km</desc>
<time>2010-02-24T17:51:29.93</time>
<name>2736</name>
</trkpt>
<trkpt lat="48.933648" lon="8.657540">
<ele>331.5</ele>
<speed>0.7</speed>
<course>72.9</course>
<desc>Speed 0.7 km/h Distance 3.00 km</desc>
<time>2010-02-24T17:51:30.90</time>
<name>2737</name>
</trkpt>
<trkpt lat="48.933650" lon="8.657548">
<ele>332.5</ele>
<speed>0.8</speed>
<course>90.0</course>
<desc>Speed 0.8 km/h Distance 3.00 km</desc>
<time>2010-02-24T17:51:31.90</time>
<name>2738</name>
</trkpt>
<trkpt lat="48.933650" lon="8.657558">
<ele>332.5</ele>
<speed>0.9</speed>
<course>104.4</course>
<desc>Speed 0.9 km/h Distance 3.00 km</desc>
<time>2010-02-24T17:51:32.90</time>
<name>2739</name>
</trkpt>
<trkpt lat="48.933648" lon="8.657568">
<ele>334.5</ele>
<speed>0.4</speed>
<course>149.7</course>
<desc>Speed 0.4 km/h Distance 3.00 km</desc>
<time>2010-02-24T17:51:33.90</time>
<name>2740</name>
</trkpt>
<trkpt lat="48.933633" lon="8.657582">
<ele>334.0</ele>
<speed>0.5</speed>
<course>62.6</course>
<desc>Speed 0.5 km/h Distance 3.00 km</desc>
<time>2010-02-24T17:51:34.90</time>
<name>2741</name>
</trkpt>
<trkpt lat="48.933635" lon="8.657587">
<ele>333.5</ele>
<speed>0.7</speed>
<course>90.0</course>
<desc>Speed 0.7 km/h Distance 3.00 km</desc>
<time>2010-02-24T17:51:35.92</time>
<name>2742</name>
</trkpt>
<trkpt lat="48.933635" lon="8.657588">
<ele>334.0</ele>
<speed>0.2</speed>
<course>128.1</course>
<desc>Speed 0.2 km/h Distance 3.00 km</desc>
<time>2010-02-24T17:51:36.90</time>
<name>2743</name>
</trkpt>
<trkpt lat="48.933633" lon="8.657592">
<ele>334.0</ele>
<speed>0.8</speed>
<course>146.3</course>
<desc>Speed 0.8 km/h Distance 3.00 km</desc>
<time>2010-02-24T17:51:37.90</time>
<name>2744</name>
</trkpt>
<trkpt lat="48.933630" lon="8.657595">
<ele>334.0</ele>
<speed>0.5</speed>
<course>147.7</course>
<desc>Speed 0.5 km/h Distance 3.00 km</desc>
<time>2010-02-24T17:51:38.90</time>
<name>2745</name>
</trkpt>
<trkpt lat="48.933625" lon="8.657600">
<ele>334.0</ele>
<speed>0.6</speed>
<course>146.3</course>
<desc>Speed 0.6 km/h Distance 3.00 km</desc>
<time>2010-02-24T17:51:39.90</time>
<name>2746</name>
</trkpt>
<trkpt lat="48.933618" lon="8.657607">
<ele>334.5</ele>
<speed>0.4</speed>
<course>90.0</course>
<desc>Speed 0.4 km/h Distance 3.00 km</desc>
<time>2010-02-24T17:51:40.93</time>
<name>2747</name>
</trkpt>
<trkpt lat="48.933618" lon="8.657608">
<ele>334.5</ele>
<speed>0.6</speed>
<course>90.0</course>
<desc>Speed 0.6 km/h Distance 3.00 km</desc>
<time>2010-02-24T17:51:41.90</time>
<name>2748</name>
</trkpt>
<trkpt lat="48.933618" lon="8.657608">
<ele>335.0</ele>
<speed>0.7</speed>
<course>142.8</course>
<desc>Speed 0.7 km/h Distance 3.00 km</desc>
<time>2010-02-24T17:51:42.90</time>
<name>2749</name>
</trkpt>
<trkpt lat="48.933617" lon="8.657610">
<ele>335.0</ele>
<speed>0.7</speed>
<course>58.9</course>
<desc>Speed 0.7 km/h Distance 3.00 km</desc>
<time>2010-02-24T17:51:43.90</time>
<name>2750</name>
</trkpt>
<trkpt lat="48.933620" lon="8.657618">
<ele>334.5</ele>
<speed>1.0</speed>
<course>7.4</course>
<desc>Speed 1.0 km/h Distance 3.00 km</desc>
<time>2010-02-24T17:51:44.90</time>
<name>2751</name>
</trkpt>
<trkpt lat="48.933627" lon="8.657620">
<ele>334.0</ele>
<speed>1.4</speed>
<course>53.9</course>
<desc>Speed 1.4 km/h Distance 3.00 km</desc>
<time>2010-02-24T17:51:45.90</time>
<name>2752</name>
</trkpt>
<trkpt lat="48.933628" lon="8.657623">
<ele>333.0</ele>
<speed>1.2</speed>
<course>41.4</course>
<desc>Speed 1.2 km/h Distance 3.00 km</desc>
<time>2010-02-24T17:51:46.90</time>
<name>2753</name>
</trkpt>
<trkpt lat="48.933633" lon="8.657630">
<ele>332.0</ele>
<speed>1.3</speed>
<course>106.7</course>
<desc>Speed 1.3 km/h Distance 3.01 km</desc>
<time>2010-02-24T17:51:47.90</time>
<name>2754</name>
</trkpt>
<trkpt lat="48.933632" lon="8.657638">
<ele>331.5</ele>
<speed>0.8</speed>
<course>130.9</course>
<desc>Speed 0.8 km/h Distance 3.01 km</desc>
<time>2010-02-24T17:51:48.90</time>
<name>2755</name>
</trkpt>
<trkpt lat="48.933625" lon="8.657650">
<ele>331.5</ele>
<speed>0.5</speed>
<course>63.0</course>
<desc>Speed 0.5 km/h Distance 3.01 km</desc>
<time>2010-02-24T17:51:49.89</time>
<name>2756</name>
</trkpt>
<trkpt lat="48.933628" lon="8.657660">
<ele>333.5</ele>
<speed>0.6</speed>
<course>116.6</course>
<desc>Speed 0.6 km/h Distance 3.01 km</desc>
<time>2010-02-24T17:51:50.89</time>
<name>2757</name>
</trkpt>
<trkpt lat="48.933627" lon="8.657665">
<ele>332.0</ele>
<speed>0.8</speed>
<course>131.4</course>
<desc>Speed 0.8 km/h Distance 3.01 km</desc>
<time>2010-02-24T17:51:51.89</time>
<name>2758</name>
</trkpt>
<trkpt lat="48.933608" lon="8.657697">
<ele>334.5</ele>
<speed>1.7</speed>
<course>104.4</course>
<desc>Speed 1.7 km/h Distance 3.01 km</desc>
<time>2010-02-24T17:51:53.94</time>
<name>2759</name>
</trkpt>
<trkpt lat="48.933607" lon="8.657707">
<ele>336.0</ele>
<speed>1.2</speed>
<course>5.0</course>
<desc>Speed 1.2 km/h Distance 3.01 km</desc>
<time>2010-02-24T17:51:54.89</time>
<name>2760</name>
</trkpt>
<trkpt lat="48.933615" lon="8.657708">
<ele>336.0</ele>
<speed>2.8</speed>
<course>53.0</course>
<desc>Speed 2.8 km/h Distance 3.01 km</desc>
<time>2010-02-24T17:51:55.89</time>
<name>2761</name>
</trkpt>
<trkpt lat="48.933618" lon="8.657715">
<ele>336.0</ele>
<speed>1.0</speed>
<course>146.3</course>
<desc>Speed 1.0 km/h Distance 3.01 km</desc>
<time>2010-02-24T17:51:56.90</time>
<name>2762</name>
</trkpt>
<trkpt lat="48.933615" lon="8.657718">
<ele>336.0</ele>
<speed>0.6</speed>
<course>114.6</course>
<desc>Speed 0.6 km/h Distance 3.01 km</desc>
<time>2010-02-24T17:51:57.94</time>
<name>2763</name>
</trkpt>
<trkpt lat="48.933610" lon="8.657735">
<ele>334.5</ele>
<speed>2.8</speed>
<course>158.0</course>
<desc>Speed 2.8 km/h Distance 3.02 km</desc>
<time>2010-02-24T17:51:58.89</time>
<name>2764</name>
</trkpt>
<trkpt lat="48.933588" lon="8.657748">
<ele>335.0</ele>
<speed>1.2</speed>
<course>121.4</course>
<desc>Speed 1.2 km/h Distance 3.02 km</desc>
<time>2010-02-24T17:51:59.89</time>
<name>2765</name>
</trkpt>
<trkpt lat="48.933585" lon="8.657757">
<ele>335.0</ele>
<speed>1.3</speed>
<course>145.3</course>
<desc>Speed 1.3 km/h Distance 3.02 km</desc>
<time>2010-02-24T17:52:00.92</time>
<name>2766</name>
</trkpt>
<trkpt lat="48.933553" lon="8.657790">
<ele>335.0</ele>
<speed>1.5</speed>
<course>127.3</course>
<desc>Speed 1.5 km/h Distance 3.02 km</desc>
<time>2010-02-24T17:52:02.91</time>
<name>2767</name>
</trkpt>
<trkpt lat="48.933547" lon="8.657803">
<ele>335.5</ele>
<speed>1.7</speed>
<course>110.9</course>
<desc>Speed 1.7 km/h Distance 3.02 km</desc>
<time>2010-02-24T17:52:03.91</time>
<name>2768</name>
</trkpt>
<trkpt lat="48.933542" lon="8.657823">
<ele>336.0</ele>
<speed>3.1</speed>
<course>122.3</course>
<desc>Speed 3.1 km/h Distance 3.03 km</desc>
<time>2010-02-24T17:52:04.88</time>
<name>2769</name>
</trkpt>
<trkpt lat="48.933533" lon="8.657843">
<ele>336.5</ele>
<speed>3.1</speed>
<course>75.9</course>
<desc>Speed 3.1 km/h Distance 3.03 km</desc>
<time>2010-02-24T17:52:05.91</time>
<name>2770</name>
</trkpt>
<trkpt lat="48.933535" lon="8.657853">
<ele>336.5</ele>
<speed>1.5</speed>
<course>53.9</course>
<desc>Speed 1.5 km/h Distance 3.03 km</desc>
<time>2010-02-24T17:52:06.92</time>
<name>2771</name>
</trkpt>
<trkpt lat="48.933537" lon="8.657857">
<ele>337.0</ele>
<speed>1.0</speed>
<course>62.6</course>
<desc>Speed 1.0 km/h Distance 3.03 km</desc>
<time>2010-02-24T17:52:07.91</time>
<name>2772</name>
</trkpt>
<trkpt lat="48.933538" lon="8.657862">
<ele>337.0</ele>
<speed>0.6</speed>
<course>12.6</course>
<desc>Speed 0.6 km/h Distance 3.03 km</desc>
<time>2010-02-24T17:52:08.88</time>
<name>2773</name>
</trkpt>
<trkpt lat="48.933542" lon="8.657863">
<ele>338.0</ele>
<speed>2.0</speed>
<course>143.4</course>
<desc>Speed 2.0 km/h Distance 3.03 km</desc>
<time>2010-02-24T17:52:09.91</time>
<name>2774</name>
</trkpt>
<trkpt lat="48.933528" lon="8.657878">
<ele>339.0</ele>
<speed>0.6</speed>
<course>82.8</course>
<desc>Speed 0.6 km/h Distance 3.03 km</desc>
<time>2010-02-24T17:52:10.89</time>
<name>2775</name>
</trkpt>
<trkpt lat="48.933530" lon="8.657898">
<ele>341.0</ele>
<speed>1.5</speed>
<course>98.6</course>
<desc>Speed 1.5 km/h Distance 3.03 km</desc>
<time>2010-02-24T17:52:11.88</time>
<name>2776</name>
</trkpt>
<trkpt lat="48.933528" lon="8.657915">
<ele>339.5</ele>
<speed>3.0</speed>
<course>8.1</course>
<desc>Speed 3.0 km/h Distance 3.03 km</desc>
<time>2010-02-24T17:52:12.93</time>
<name>2777</name>
</trkpt>
<trkpt lat="48.933533" lon="8.657915">
<ele>340.0</ele>
<speed>1.5</speed>
<course>116.9</course>
<desc>Speed 1.5 km/h Distance 3.03 km</desc>
<time>2010-02-24T17:52:13.93</time>
<name>2778</name>
</trkpt>
<trkpt lat="48.933528" lon="8.657930">
<ele>340.5</ele>
<speed>1.0</speed>
<course>156.3</course>
<desc>Speed 1.0 km/h Distance 3.04 km</desc>
<time>2010-02-24T17:52:14.88</time>
<name>2779</name>
</trkpt>
<trkpt lat="48.933508" lon="8.657943">
<ele>341.5</ele>
<speed>1.6</speed>
<course>128.1</course>
<desc>Speed 1.6 km/h Distance 3.04 km</desc>
<time>2010-02-24T17:52:16.88</time>
<name>2780</name>
</trkpt>
<trkpt lat="48.933507" lon="8.657947">
<ele>342.0</ele>
<speed>1.0</speed>
<course>33.2</course>
<desc>Speed 1.0 km/h Distance 3.04 km</desc>
<time>2010-02-24T17:52:17.88</time>
<name>2781</name>
</trkpt>
<trkpt lat="48.933513" lon="8.657953">
<ele>341.5</ele>
<speed>0.9</speed>
<course>113.5</course>
<desc>Speed 0.9 km/h Distance 3.04 km</desc>
<time>2010-02-24T17:52:18.91</time>
<name>2782</name>
</trkpt>
<trkpt lat="48.933510" lon="8.657965">
<ele>342.5</ele>
<speed>0.8</speed>
<course>121.8</course>
<desc>Speed 0.8 km/h Distance 3.04 km</desc>
<time>2010-02-24T17:52:19.88</time>
<name>2783</name>
</trkpt>
<trkpt lat="48.933507" lon="8.657973">
<ele>342.0</ele>
<speed>2.1</speed>
<course>115.2</course>
<desc>Speed 2.1 km/h Distance 3.04 km</desc>
<time>2010-02-24T17:52:20.90</time>
<name>2784</name>
</trkpt>
<trkpt lat="48.933485" lon="8.658043">
<ele>343.0</ele>
<speed>1.7</speed>
<course>26.4</course>
<desc>Speed 1.7 km/h Distance 3.05 km</desc>
<time>2010-02-24T17:52:22.88</time>
<name>2785</name>
</trkpt>
<trkpt lat="48.933492" lon="8.658048">
<ele>342.5</ele>
<speed>0.6</speed>
<course>90.0</course>
<desc>Speed 0.6 km/h Distance 3.05 km</desc>
<time>2010-02-24T17:52:23.90</time>
<name>2786</name>
</trkpt>
<trkpt lat="48.933492" lon="8.658052">
<ele>342.5</ele>
<speed>0.3</speed>
<course>7.7</course>
<desc>Speed 0.3 km/h Distance 3.05 km</desc>
<time>2010-02-24T17:52:24.90</time>
<name>2787</name>
</trkpt>
<trkpt lat="48.933500" lon="8.658053">
<ele>342.5</ele>
<speed>2.4</speed>
<course>58.6</course>
<desc>Speed 2.4 km/h Distance 3.05 km</desc>
<time>2010-02-24T17:52:25.87</time>
<name>2788</name>
</trkpt>
<trkpt lat="48.933503" lon="8.658062">
<ele>342.5</ele>
<speed>0.4</speed>
<course>127.2</course>
<desc>Speed 0.4 km/h Distance 3.05 km</desc>
<time>2010-02-24T17:52:26.88</time>
<name>2789</name>
</trkpt>
<trkpt lat="48.933498" lon="8.658072">
<ele>341.5</ele>
<speed>1.1</speed>
<course>90.0</course>
<desc>Speed 1.1 km/h Distance 3.05 km</desc>
<time>2010-02-24T17:52:27.92</time>
<name>2790</name>
</trkpt>
<trkpt lat="48.933498" lon="8.658080">
<ele>341.5</ele>
<speed>1.4</speed>
<course>113.5</course>
<desc>Speed 1.4 km/h Distance 3.05 km</desc>
<time>2010-02-24T17:52:28.87</time>
<name>2791</name>
</trkpt>
<trkpt lat="48.933495" lon="8.658092">
<ele>341.0</ele>
<speed>0.4</speed>
<course>146.8</course>
<desc>Speed 0.4 km/h Distance 3.05 km</desc>
<time>2010-02-24T17:52:29.89</time>
<name>2792</name>
</trkpt>
<trkpt lat="48.933488" lon="8.658098">
<ele>340.5</ele>
<speed>0.6</speed>
<course>110.8</course>
<desc>Speed 0.6 km/h Distance 3.05 km</desc>
<time>2010-02-24T17:52:30.90</time>
<name>2793</name>
</trkpt>
<trkpt lat="48.933485" lon="8.658112">
<ele>341.0</ele>
<speed>2.2</speed>
<course>135.5</course>
<desc>Speed 2.2 km/h Distance 3.05 km</desc>
<time>2010-02-24T17:52:31.91</time>
<name>2794</name>
</trkpt>
<trkpt lat="48.933482" lon="8.658117">
<ele>341.5</ele>
<speed>2.2</speed>
<course>53.0</course>
<desc>Speed 2.2 km/h Distance 3.05 km</desc>
<time>2010-02-24T17:52:32.87</time>
<name>2795</name>
</trkpt>
<trkpt lat="48.933485" lon="8.658123">
<ele>341.0</ele>
<speed>0.5</speed>
<course>63.1</course>
<desc>Speed 0.5 km/h Distance 3.05 km</desc>
<time>2010-02-24T17:52:33.90</time>
<name>2796</name>
</trkpt>
<trkpt lat="48.933490" lon="8.658138">
<ele>340.0</ele>
<speed>0.9</speed>
<course>114.6</course>
<desc>Speed 0.9 km/h Distance 3.06 km</desc>
<time>2010-02-24T17:52:34.92</time>
<name>2797</name>
</trkpt>
<trkpt lat="48.933480" lon="8.658172">
<ele>339.5</ele>
<speed>0.4</speed>
<course>134.1</course>
<desc>Speed 0.4 km/h Distance 3.06 km</desc>
<time>2010-02-24T17:52:36.89</time>
<name>2798</name>
</trkpt>
<trkpt lat="48.933468" lon="8.658190">
<ele>339.0</ele>
<speed>2.2</speed>
<course>138.6</course>
<desc>Speed 2.2 km/h Distance 3.06 km</desc>
<time>2010-02-24T17:52:37.92</time>
<name>2799</name>
</trkpt>
<trkpt lat="48.933458" lon="8.658203">
<ele>339.5</ele>
<speed>1.4</speed>
<course>135.5</course>
<desc>Speed 1.4 km/h Distance 3.06 km</desc>
<time>2010-02-24T17:52:38.87</time>
<name>2800</name>
</trkpt>
<trkpt lat="48.933448" lon="8.658218">
<ele>340.5</ele>
<speed>0.6</speed>
<course>141.0</course>
<desc>Speed 0.6 km/h Distance 3.06 km</desc>
<time>2010-02-24T17:52:39.87</time>
<name>2801</name>
</trkpt>
<trkpt lat="48.933427" lon="8.658245">
<ele>341.0</ele>
<speed>0.8</speed>
<course>62.6</course>
<desc>Speed 0.8 km/h Distance 3.07 km</desc>
<time>2010-02-24T17:52:41.87</time>
<name>2802</name>
</trkpt>
<trkpt lat="48.933428" lon="8.658250">
<ele>341.0</ele>
<speed>0.7</speed>
<course>146.8</course>
<desc>Speed 0.7 km/h Distance 3.07 km</desc>
<time>2010-02-24T17:52:42.89</time>
<name>2803</name>
</trkpt>
<trkpt lat="48.933423" lon="8.658255">
<ele>341.5</ele>
<speed>0.2</speed>
<course>132.6</course>
<desc>Speed 0.2 km/h Distance 3.07 km</desc>
<time>2010-02-24T17:52:43.89</time>
<name>2804</name>
</trkpt>
<trkpt lat="48.933418" lon="8.658263">
<ele>342.5</ele>
<speed>1.2</speed>
<course>110.9</course>
<desc>Speed 1.2 km/h Distance 3.07 km</desc>
<time>2010-02-24T17:52:44.87</time>
<name>2805</name>
</trkpt>
<trkpt lat="48.933417" lon="8.658270">
<ele>342.5</ele>
<speed>0.6</speed>
<course>135.5</course>
<desc>Speed 0.6 km/h Distance 3.07 km</desc>
<time>2010-02-24T17:52:45.87</time>
<name>2806</name>
</trkpt>
<trkpt lat="48.933413" lon="8.658275">
<ele>342.5</ele>
<speed>0.7</speed>
<course>123.1</course>
<desc>Speed 0.7 km/h Distance 3.07 km</desc>
<time>2010-02-24T17:52:46.87</time>
<name>2807</name>
</trkpt>
<trkpt lat="48.933408" lon="8.658287">
<ele>342.0</ele>
<speed>0.8</speed>
<course>140.6</course>
<desc>Speed 0.8 km/h Distance 3.07 km</desc>
<time>2010-02-24T17:52:47.90</time>
<name>2808</name>
</trkpt>
<trkpt lat="48.933402" lon="8.658295">
<ele>342.5</ele>
<speed>0.4</speed>
<course>146.8</course>
<desc>Speed 0.4 km/h Distance 3.07 km</desc>
<time>2010-02-24T17:52:48.89</time>
<name>2809</name>
</trkpt>
<trkpt lat="48.933392" lon="8.658305">
<ele>343.5</ele>
<speed>0.4</speed>
<course>144.0</course>
<desc>Speed 0.4 km/h Distance 3.07 km</desc>
<time>2010-02-24T17:52:49.86</time>
<name>2810</name>
</trkpt>
<trkpt lat="48.933377" lon="8.658322">
<ele>343.0</ele>
<speed>0.1</speed>
<course>134.1</course>
<desc>Speed 0.1 km/h Distance 3.08 km</desc>
<time>2010-02-24T17:52:50.87</time>
<name>2811</name>
</trkpt>
<trkpt lat="48.933365" lon="8.658340">
<ele>342.5</ele>
<speed>1.0</speed>
<course>127.2</course>
<desc>Speed 1.0 km/h Distance 3.08 km</desc>
<time>2010-02-24T17:52:51.87</time>
<name>2812</name>
</trkpt>
<trkpt lat="48.933360" lon="8.658350">
<ele>342.0</ele>
<speed>0.3</speed>
<course>146.3</course>
<desc>Speed 0.3 km/h Distance 3.08 km</desc>
<time>2010-02-24T17:52:52.87</time>
<name>2813</name>
</trkpt>
<trkpt lat="48.933357" lon="8.658353">
<ele>342.0</ele>
<speed>0.4</speed>
<course>154.6</course>
<desc>Speed 0.4 km/h Distance 3.08 km</desc>
<time>2010-02-24T17:52:53.87</time>
<name>2814</name>
</trkpt>
<trkpt lat="48.933352" lon="8.658357">
<ele>342.0</ele>
<speed>0.3</speed>
<course>157.8</course>
<desc>Speed 0.3 km/h Distance 3.08 km</desc>
<time>2010-02-24T17:52:54.87</time>
<name>2815</name>
</trkpt>
<trkpt lat="48.933347" lon="8.658360">
<ele>342.0</ele>
<speed>0.4</speed>
<course>155.2</course>
<desc>Speed 0.4 km/h Distance 3.08 km</desc>
<time>2010-02-24T17:52:55.86</time>
<name>2816</name>
</trkpt>
<trkpt lat="48.933340" lon="8.658365">
<ele>342.0</ele>
<speed>0.4</speed>
<course>161.8</course>
<desc>Speed 0.4 km/h Distance 3.08 km</desc>
<time>2010-02-24T17:52:56.87</time>
<name>2817</name>
</trkpt>
<trkpt lat="48.933330" lon="8.658370">
<ele>342.0</ele>
<speed>0.3</speed>
<course>135.5</course>
<desc>Speed 0.3 km/h Distance 3.08 km</desc>
<time>2010-02-24T17:52:57.89</time>
<name>2818</name>
</trkpt>
<trkpt lat="48.933327" lon="8.658375">
<ele>342.0</ele>
<speed>1.5</speed>
<course>167.4</course>
<desc>Speed 1.5 km/h Distance 3.08 km</desc>
<time>2010-02-24T17:52:58.86</time>
<name>2819</name>
</trkpt>
<trkpt lat="48.933325" lon="8.658377">
<ele>342.0</ele>
<speed>0.4</speed>
<course>139.1</course>
<desc>Speed 0.4 km/h Distance 3.08 km</desc>
<time>2010-02-24T17:52:59.88</time>
<name>2820</name>
</trkpt>
<trkpt lat="48.933320" lon="8.658383">
<ele>342.5</ele>
<speed>1.0</speed>
<course>154.4</course>
<desc>Speed 1.0 km/h Distance 3.08 km</desc>
<time>2010-02-24T17:53:00.88</time>
<name>2821</name>
</trkpt>
<trkpt lat="48.933313" lon="8.658388">
<ele>342.5</ele>
<speed>0.5</speed>
<course>131.1</course>
<desc>Speed 0.5 km/h Distance 3.08 km</desc>
<time>2010-02-24T17:53:01.86</time>
<name>2822</name>
</trkpt>
<trkpt lat="48.933307" lon="8.658400">
<ele>343.5</ele>
<speed>1.5</speed>
<course>117.0</course>
<desc>Speed 1.5 km/h Distance 3.08 km</desc>
<time>2010-02-24T17:53:02.88</time>
<name>2823</name>
</trkpt>
<trkpt lat="48.933303" lon="8.658410">
<ele>344.0</ele>
<speed>1.0</speed>
<course>135.5</course>
<desc>Speed 1.0 km/h Distance 3.09 km</desc>
<time>2010-02-24T17:53:03.86</time>
<name>2824</name>
</trkpt>
<trkpt lat="48.933300" lon="8.658415">
<ele>344.0</ele>
<speed>0.5</speed>
<course>161.2</course>
<desc>Speed 0.5 km/h Distance 3.09 km</desc>
<time>2010-02-24T17:53:04.86</time>
<name>2825</name>
</trkpt>
<trkpt lat="48.933293" lon="8.658418">
<ele>343.5</ele>
<speed>0.3</speed>
<course>153.6</course>
<desc>Speed 0.3 km/h Distance 3.09 km</desc>
<time>2010-02-24T17:53:05.89</time>
<name>2826</name>
</trkpt>
<trkpt lat="48.933287" lon="8.658423">
<ele>344.0</ele>
<speed>0.1</speed>
<course>156.2</course>
<desc>Speed 0.1 km/h Distance 3.09 km</desc>
<time>2010-02-24T17:53:06.86</time>
<name>2827</name>
</trkpt>
<trkpt lat="48.933277" lon="8.658430">
<ele>344.0</ele>
<speed>0.3</speed>
<course>161.8</course>
<desc>Speed 0.3 km/h Distance 3.09 km</desc>
<time>2010-02-24T17:53:07.86</time>
<name>2828</name>
</trkpt>
<trkpt lat="48.933267" lon="8.658435">
<ele>344.5</ele>
<speed>0.3</speed>
<course>161.8</course>
<desc>Speed 0.3 km/h Distance 3.09 km</desc>
<time>2010-02-24T17:53:08.86</time>
<name>2829</name>
</trkpt>
<trkpt lat="48.933267" lon="8.658435">
<ele>344.5</ele>
<speed>0.3</speed>
<course>159.1</course>
<desc>Speed 0.3 km/h Distance 3.09 km</desc>
<time>2010-02-24T17:53:09.86</time>
<name>2830</name>
</trkpt>
<trkpt lat="48.933255" lon="8.658442">
<ele>344.5</ele>
<speed>0.2</speed>
<course>157.0</course>
<desc>Speed 0.2 km/h Distance 3.09 km</desc>
<time>2010-02-24T17:53:10.88</time>
<name>2831</name>
</trkpt>
<trkpt lat="48.933252" lon="8.658443">
<ele>344.5</ele>
<speed>0.3</speed>
<course>157.8</course>
<desc>Speed 0.3 km/h Distance 3.09 km</desc>
<time>2010-02-24T17:53:11.85</time>
<name>2832</name>
</trkpt>
<trkpt lat="48.933247" lon="8.658447">
<ele>344.5</ele>
<speed>0.3</speed>
<course>203.8</course>
<desc>Speed 0.3 km/h Distance 3.09 km</desc>
<time>2010-02-24T17:53:12.85</time>
<name>2833</name>
</trkpt>
<trkpt lat="48.933242" lon="8.658443">
<ele>345.5</ele>
<speed>0.3</speed>
<course>167.4</course>
<desc>Speed 0.3 km/h Distance 3.09 km</desc>
<time>2010-02-24T17:53:13.85</time>
<name>2834</name>
</trkpt>
<trkpt lat="48.933240" lon="8.658445">
<ele>345.0</ele>
<speed>0.3</speed>
<course>177.8</course>
<desc>Speed 0.3 km/h Distance 3.09 km</desc>
<time>2010-02-24T17:53:14.85</time>
<name>2835</name>
</trkpt>
<trkpt lat="48.933228" lon="8.658445">
<ele>344.5</ele>
<speed>1.4</speed>
<course>177.8</course>
<desc>Speed 1.4 km/h Distance 3.09 km</desc>
<time>2010-02-24T17:53:15.89</time>
<name>2836</name>
</trkpt>
<trkpt lat="48.933228" lon="8.658445">
<ele>344.5</ele>
<speed>0.1</speed>
<course>158.5</course>
<desc>Speed 0.1 km/h Distance 3.09 km</desc>
<time>2010-02-24T17:53:16.85</time>
<name>2837</name>
</trkpt>
<trkpt lat="48.933220" lon="8.658450">
<ele>344.5</ele>
<speed>0.5</speed>
<course>158.5</course>
<desc>Speed 0.5 km/h Distance 3.10 km</desc>
<time>2010-02-24T17:53:17.85</time>
<name>2838</name>
</trkpt>
<trkpt lat="48.933212" lon="8.658455">
<ele>344.5</ele>
<speed>0.2</speed>
<course>146.3</course>
<desc>Speed 0.2 km/h Distance 3.10 km</desc>
<time>2010-02-24T17:53:18.88</time>
<name>2839</name>
</trkpt>
<trkpt lat="48.933208" lon="8.658458">
<ele>344.5</ele>
<speed>0.3</speed>
<course>167.4</course>
<desc>Speed 0.3 km/h Distance 3.10 km</desc>
<time>2010-02-24T17:53:19.85</time>
<name>2840</name>
</trkpt>
<trkpt lat="48.933207" lon="8.658460">
<ele>345.0</ele>
<speed>0.4</speed>
<course>167.4</course>
<desc>Speed 0.4 km/h Distance 3.10 km</desc>
<time>2010-02-24T17:53:20.85</time>
<name>2841</name>
</trkpt>
<trkpt lat="48.933203" lon="8.658462">
<ele>345.0</ele>
<speed>0.2</speed>
<course>61.7</course>
<desc>Speed 0.2 km/h Distance 3.10 km</desc>
<time>2010-02-24T17:53:21.88</time>
<name>2842</name>
</trkpt>
<trkpt lat="48.933205" lon="8.658467">
<ele>344.5</ele>
<speed>0.3</speed>
<course>167.4</course>
<desc>Speed 0.3 km/h Distance 3.10 km</desc>
<time>2010-02-24T17:53:22.87</time>
<name>2843</name>
</trkpt>
<trkpt lat="48.933203" lon="8.658468">
<ele>344.5</ele>
<speed>0.4</speed>
<course>167.4</course>
<desc>Speed 0.4 km/h Distance 3.10 km</desc>
<time>2010-02-24T17:53:23.85</time>
<name>2844</name>
</trkpt>
<trkpt lat="48.933203" lon="8.658470">
<ele>344.5</ele>
<speed>0.3</speed>
<course>167.4</course>
<desc>Speed 0.3 km/h Distance 3.10 km</desc>
<time>2010-02-24T17:53:24.87</time>
<name>2845</name>
</trkpt>
<trkpt lat="48.933202" lon="8.658470">
<ele>344.5</ele>
<speed>0.3</speed>
<course>90.0</course>
<desc>Speed 0.3 km/h Distance 3.10 km</desc>
<time>2010-02-24T17:53:25.87</time>
<name>2846</name>
</trkpt>
<trkpt lat="48.933202" lon="8.658475">
<ele>344.5</ele>
<speed>0.2</speed>
<course>167.4</course>
<desc>Speed 0.2 km/h Distance 3.10 km</desc>
<time>2010-02-24T17:53:26.84</time>
<name>2847</name>
</trkpt>
<trkpt lat="48.933200" lon="8.658475">
<ele>344.5</ele>
<speed>0.3</speed>
<course>69.5</course>
<desc>Speed 0.3 km/h Distance 3.10 km</desc>
<time>2010-02-24T17:53:27.87</time>
<name>2848</name>
</trkpt>
<trkpt lat="48.933202" lon="8.658482">
<ele>344.5</ele>
<speed>0.3</speed>
<course>90.0</course>
<desc>Speed 0.3 km/h Distance 3.10 km</desc>
<time>2010-02-24T17:53:28.84</time>
<name>2849</name>
</trkpt>
<trkpt lat="48.933202" lon="8.658483">
<ele>344.5</ele>
<speed>0.3</speed>
<course>90.0</course>
<desc>Speed 0.3 km/h Distance 3.10 km</desc>
<time>2010-02-24T17:53:29.84</time>
<name>2850</name>
</trkpt>
<trkpt lat="48.933202" lon="8.658487">
<ele>344.5</ele>
<speed>0.4</speed>
<course>90.0</course>
<desc>Speed 0.4 km/h Distance 3.10 km</desc>
<time>2010-02-24T17:53:30.84</time>
<name>2851</name>
</trkpt>
<trkpt lat="48.933202" lon="8.658487">
<ele>344.5</ele>
<speed>0.4</speed>
<course>90.0</course>
<desc>Speed 0.4 km/h Distance 3.10 km</desc>
<time>2010-02-24T17:53:31.84</time>
<name>2852</name>
</trkpt>
<trkpt lat="48.933202" lon="8.658487">
<ele>344.5</ele>
<speed>0.3</speed>
<course>167.4</course>
<desc>Speed 0.3 km/h Distance 3.10 km</desc>
<time>2010-02-24T17:53:32.87</time>
<name>2853</name>
</trkpt>
<trkpt lat="48.933200" lon="8.658487">
<ele>344.5</ele>
<speed>0.3</speed>
<course>90.0</course>
<desc>Speed 0.3 km/h Distance 3.10 km</desc>
<time>2010-02-24T17:53:33.89</time>
<name>2854</name>
</trkpt>
<trkpt lat="48.933200" lon="8.658488">
<ele>344.5</ele>
<speed>0.2</speed>
<course>90.0</course>
<desc>Speed 0.2 km/h Distance 3.10 km</desc>
<time>2010-02-24T17:53:34.84</time>
<name>2855</name>
</trkpt>
<trkpt lat="48.933200" lon="8.658488">
<ele>344.5</ele>
<speed>0.2</speed>
<course>90.0</course>
<desc>Speed 0.2 km/h Distance 3.10 km</desc>
<time>2010-02-24T17:53:35.86</time>
<name>2856</name>
</trkpt>
<trkpt lat="48.933200" lon="8.658488">
<ele>344.5</ele>
<speed>0.3</speed>
<course>73.3</course>
<desc>Speed 0.3 km/h Distance 3.10 km</desc>
<time>2010-02-24T17:53:36.87</time>
<name>2857</name>
</trkpt>
<trkpt lat="48.933202" lon="8.658497">
<ele>344.5</ele>
<speed>1.3</speed>
<course>90.0</course>
<desc>Speed 1.3 km/h Distance 3.10 km</desc>
<time>2010-02-24T17:53:37.84</time>
<name>2858</name>
</trkpt>
<trkpt lat="48.933202" lon="8.658503">
<ele>344.5</ele>
<speed>1.7</speed>
<course>127.0</course>
<desc>Speed 1.7 km/h Distance 3.10 km</desc>
<time>2010-02-24T17:53:38.87</time>
<name>2859</name>
</trkpt>
<trkpt lat="48.933198" lon="8.658510">
<ele>344.5</ele>
<speed>1.7</speed>
<course>139.1</course>
<desc>Speed 1.7 km/h Distance 3.10 km</desc>
<time>2010-02-24T17:53:39.84</time>
<name>2860</name>
</trkpt>
<trkpt lat="48.933193" lon="8.658517">
<ele>344.0</ele>
<speed>2.1</speed>
<course>90.0</course>
<desc>Speed 2.1 km/h Distance 3.10 km</desc>
<time>2010-02-24T17:53:40.84</time>
<name>2861</name>
</trkpt>
<trkpt lat="48.933193" lon="8.658527">
<ele>343.5</ele>
<speed>1.3</speed>
<course>113.6</course>
<desc>Speed 1.3 km/h Distance 3.10 km</desc>
<time>2010-02-24T17:53:41.87</time>
<name>2862</name>
</trkpt>
<trkpt lat="48.933190" lon="8.658538">
<ele>342.5</ele>
<speed>2.0</speed>
<course>155.2</course>
<desc>Speed 2.0 km/h Distance 3.10 km</desc>
<time>2010-02-24T17:53:42.84</time>
<name>2863</name>
</trkpt>
<trkpt lat="48.933183" lon="8.658543">
<ele>341.0</ele>
<speed>2.8</speed>
<course>97.2</course>
<desc>Speed 2.8 km/h Distance 3.11 km</desc>
<time>2010-02-24T17:53:43.84</time>
<name>2864</name>
</trkpt>
<trkpt lat="48.933182" lon="8.658563">
<ele>338.5</ele>
<speed>1.7</speed>
<course>110.9</course>
<desc>Speed 1.7 km/h Distance 3.11 km</desc>
<time>2010-02-24T17:53:44.84</time>
<name>2865</name>
</trkpt>
<trkpt lat="48.933180" lon="8.658570">
<ele>337.5</ele>
<speed>1.4</speed>
<course>124.1</course>
<desc>Speed 1.4 km/h Distance 3.11 km</desc>
<time>2010-02-24T17:53:45.84</time>
<name>2866</name>
</trkpt>
<trkpt lat="48.933173" lon="8.658585">
<ele>336.0</ele>
<speed>2.8</speed>
<course>109.4</course>
<desc>Speed 2.8 km/h Distance 3.11 km</desc>
<time>2010-02-24T17:53:46.84</time>
<name>2867</name>
</trkpt>
<trkpt lat="48.933168" lon="8.658607">
<ele>334.5</ele>
<speed>2.4</speed>
<course>105.0</course>
<desc>Speed 2.4 km/h Distance 3.11 km</desc>
<time>2010-02-24T17:53:47.84</time>
<name>2868</name>
</trkpt>
<trkpt lat="48.933163" lon="8.658635">
<ele>333.5</ele>
<speed>2.7</speed>
<course>140.6</course>
<desc>Speed 2.7 km/h Distance 3.11 km</desc>
<time>2010-02-24T17:53:48.86</time>
<name>2869</name>
</trkpt>
<trkpt lat="48.933157" lon="8.658643">
<ele>333.5</ele>
<speed>2.1</speed>
<course>73.1</course>
<desc>Speed 2.1 km/h Distance 3.11 km</desc>
<time>2010-02-24T17:53:49.84</time>
<name>2870</name>
</trkpt>
<trkpt lat="48.933158" lon="8.658652">
<ele>333.5</ele>
<speed>1.7</speed>
<course>110.9</course>
<desc>Speed 1.7 km/h Distance 3.11 km</desc>
<time>2010-02-24T17:53:50.87</time>
<name>2871</name>
</trkpt>
<trkpt lat="48.933157" lon="8.658658">
<ele>333.5</ele>
<speed>2.7</speed>
<course>33.7</course>
<desc>Speed 2.7 km/h Distance 3.11 km</desc>
<time>2010-02-24T17:53:51.86</time>
<name>2872</name>
</trkpt>
<trkpt lat="48.933163" lon="8.658665">
<ele>334.0</ele>
<speed>2.8</speed>
<course>154.8</course>
<desc>Speed 2.8 km/h Distance 3.12 km</desc>
<time>2010-02-24T17:53:52.84</time>
<name>2873</name>
</trkpt>
<trkpt lat="48.933152" lon="8.658673">
<ele>334.0</ele>
<speed>4.4</speed>
<course>104.1</course>
<desc>Speed 4.4 km/h Distance 3.12 km</desc>
<time>2010-02-24T17:53:53.84</time>
<name>2874</name>
</trkpt>
<trkpt lat="48.933150" lon="8.658683">
<ele>334.0</ele>
<speed>1.2</speed>
<course>59.6</course>
<desc>Speed 1.2 km/h Distance 3.12 km</desc>
<time>2010-02-24T17:53:54.89</time>
<name>2875</name>
</trkpt>
<trkpt lat="48.933158" lon="8.658705">
<ele>333.5</ele>
<speed>2.6</speed>
<course>104.2</course>
<desc>Speed 2.6 km/h Distance 3.12 km</desc>
<time>2010-02-24T17:53:55.84</time>
<name>2876</name>
</trkpt>
<trkpt lat="48.933155" lon="8.658725">
<ele>333.0</ele>
<speed>2.2</speed>
<course>110.9</course>
<desc>Speed 2.2 km/h Distance 3.12 km</desc>
<time>2010-02-24T17:53:56.84</time>
<name>2877</name>
</trkpt>
<trkpt lat="48.933153" lon="8.658732">
<ele>332.0</ele>
<speed>1.5</speed>
<course>90.0</course>
<desc>Speed 1.5 km/h Distance 3.12 km</desc>
<time>2010-02-24T17:53:57.92</time>
<name>2878</name>
</trkpt>
<trkpt lat="48.933153" lon="8.658737">
<ele>332.0</ele>
<speed>1.5</speed>
<course>33.7</course>
<desc>Speed 1.5 km/h Distance 3.12 km</desc>
<time>2010-02-24T17:53:58.83</time>
<name>2879</name>
</trkpt>
<trkpt lat="48.933157" lon="8.658740">
<ele>332.0</ele>
<speed>1.4</speed>
<course>27.9</course>
<desc>Speed 1.4 km/h Distance 3.12 km</desc>
<time>2010-02-24T17:53:59.83</time>
<name>2880</name>
</trkpt>
<trkpt lat="48.933165" lon="8.658747">
<ele>332.0</ele>
<speed>1.1</speed>
<course>77.7</course>
<desc>Speed 1.1 km/h Distance 3.12 km</desc>
<time>2010-02-24T17:54:00.83</time>
<name>2881</name>
</trkpt>
<trkpt lat="48.933167" lon="8.658758">
<ele>331.0</ele>
<speed>2.0</speed>
<course>51.8</course>
<desc>Speed 2.0 km/h Distance 3.12 km</desc>
<time>2010-02-24T17:54:01.84</time>
<name>2882</name>
</trkpt>
<trkpt lat="48.933192" lon="8.658807">
<ele>333.0</ele>
<speed>2.7</speed>
<course>139.1</course>
<desc>Speed 2.7 km/h Distance 3.13 km</desc>
<time>2010-02-24T17:54:03.86</time>
<name>2883</name>
</trkpt>
<trkpt lat="48.933187" lon="8.658813">
<ele>333.0</ele>
<speed>3.0</speed>
<course>103.2</course>
<desc>Speed 3.0 km/h Distance 3.13 km</desc>
<time>2010-02-24T17:54:04.83</time>
<name>2884</name>
</trkpt>
<trkpt lat="48.933183" lon="8.658835">
<ele>330.5</ele>
<speed>2.3</speed>
<course>62.6</course>
<desc>Speed 2.3 km/h Distance 3.13 km</desc>
<time>2010-02-24T17:54:05.86</time>
<name>2885</name>
</trkpt>
<trkpt lat="48.933185" lon="8.658840">
<ele>331.0</ele>
<speed>1.7</speed>
<course>167.4</course>
<desc>Speed 1.7 km/h Distance 3.13 km</desc>
<time>2010-02-24T17:54:06.83</time>
<name>2886</name>
</trkpt>
<trkpt lat="48.933183" lon="8.658842">
<ele>331.5</ele>
<speed>1.5</speed>
<course>90.0</course>
<desc>Speed 1.5 km/h Distance 3.13 km</desc>
<time>2010-02-24T17:54:07.83</time>
<name>2887</name>
</trkpt>
<trkpt lat="48.933183" lon="8.658847">
<ele>331.0</ele>
<speed>1.2</speed>
<course>102.3</course>
<desc>Speed 1.2 km/h Distance 3.13 km</desc>
<time>2010-02-24T17:54:08.91</time>
<name>2888</name>
</trkpt>
<trkpt lat="48.933182" lon="8.658858">
<ele>331.5</ele>
<speed>2.8</speed>
<course>73.0</course>
<desc>Speed 2.8 km/h Distance 3.13 km</desc>
<time>2010-02-24T17:54:09.82</time>
<name>2889</name>
</trkpt>
<trkpt lat="48.933185" lon="8.658875">
<ele>332.0</ele>
<speed>2.9</speed>
<course>102.3</course>
<desc>Speed 2.9 km/h Distance 3.13 km</desc>
<time>2010-02-24T17:54:10.84</time>
<name>2890</name>
</trkpt>
<trkpt lat="48.933183" lon="8.658887">
<ele>332.0</ele>
<speed>2.0</speed>
<course>104.4</course>
<desc>Speed 2.0 km/h Distance 3.14 km</desc>
<time>2010-02-24T17:54:11.83</time>
<name>2891</name>
</trkpt>
<trkpt lat="48.933182" lon="8.658897">
<ele>331.0</ele>
<speed>2.7</speed>
<course>110.9</course>
<desc>Speed 2.7 km/h Distance 3.14 km</desc>
<time>2010-02-24T17:54:12.83</time>
<name>2892</name>
</trkpt>
<trkpt lat="48.933180" lon="8.658903">
<ele>330.5</ele>
<speed>2.0</speed>
<course>69.2</course>
<desc>Speed 2.0 km/h Distance 3.14 km</desc>
<time>2010-02-24T17:54:13.83</time>
<name>2893</name>
</trkpt>
<trkpt lat="48.933183" lon="8.658917">
<ele>330.0</ele>
<speed>2.6</speed>
<course>146.8</course>
<desc>Speed 2.6 km/h Distance 3.14 km</desc>
<time>2010-02-24T17:54:14.88</time>
<name>2894</name>
</trkpt>
<trkpt lat="48.933175" lon="8.658925">
<ele>330.0</ele>
<speed>4.1</speed>
<course>27.8</course>
<desc>Speed 4.1 km/h Distance 3.14 km</desc>
<time>2010-02-24T17:54:15.84</time>
<name>2895</name>
</trkpt>
<trkpt lat="48.933192" lon="8.658938">
<ele>330.0</ele>
<speed>7.0</speed>
<course>23.8</course>
<desc>Speed 7.0 km/h Distance 3.14 km</desc>
<time>2010-02-24T17:54:16.82</time>
<name>2896</name>
</trkpt>
<trkpt lat="48.933212" lon="8.658952">
<ele>330.0</ele>
<speed>7.8</speed>
<course>42.9</course>
<desc>Speed 7.8 km/h Distance 3.14 km</desc>
<time>2010-02-24T17:54:17.87</time>
<name>2897</name>
</trkpt>
<trkpt lat="48.933240" lon="8.658992">
<ele>331.5</ele>
<speed>2.1</speed>
<course>33.3</course>
<desc>Speed 2.1 km/h Distance 3.15 km</desc>
<time>2010-02-24T17:54:19.82</time>
<name>2898</name>
</trkpt>
<trkpt lat="48.933263" lon="8.659015">
<ele>331.0</ele>
<speed>4.1</speed>
<course>130.1</course>
<desc>Speed 4.1 km/h Distance 3.15 km</desc>
<time>2010-02-24T17:54:21.84</time>
<name>2899</name>
</trkpt>
<trkpt lat="48.933255" lon="8.659030">
<ele>331.0</ele>
<speed>3.2</speed>
<course>21.9</course>
<desc>Speed 3.2 km/h Distance 3.15 km</desc>
<time>2010-02-24T17:54:22.82</time>
<name>2900</name>
</trkpt>
<trkpt lat="48.933367" lon="8.659098">
<ele>334.5</ele>
<speed>4.0</speed>
<course>22.0</course>
<desc>Speed 4.0 km/h Distance 3.17 km</desc>
<time>2010-02-24T17:54:25.82</time>
<name>2901</name>
</trkpt>
<trkpt lat="48.933432" lon="8.659138">
<ele>335.0</ele>
<speed>4.4</speed>
<course>140.6</course>
<desc>Speed 4.4 km/h Distance 3.17 km</desc>
<time>2010-02-24T17:54:27.83</time>
<name>2902</name>
</trkpt>
<trkpt lat="48.933425" lon="8.659147">
<ele>335.0</ele>
<speed>3.5</speed>
<course>84.6</course>
<desc>Speed 3.5 km/h Distance 3.17 km</desc>
<time>2010-02-24T17:54:28.83</time>
<name>2903</name>
</trkpt>
<trkpt lat="48.933427" lon="8.659173">
<ele>335.0</ele>
<speed>4.5</speed>
<course>30.8</course>
<desc>Speed 4.5 km/h Distance 3.18 km</desc>
<time>2010-02-24T17:54:29.83</time>
<name>2904</name>
</trkpt>
<trkpt lat="48.933480" lon="8.659222">
<ele>335.0</ele>
<speed>3.2</speed>
<course>16.2</course>
<desc>Speed 3.2 km/h Distance 3.18 km</desc>
<time>2010-02-24T17:54:31.83</time>
<name>2905</name>
</trkpt>
<trkpt lat="48.933552" lon="8.659253">
<ele>331.0</ele>
<speed>3.1</speed>
<course>27.9</course>
<desc>Speed 3.1 km/h Distance 3.19 km</desc>
<time>2010-02-24T17:54:33.85</time>
<name>2906</name>
</trkpt>
<trkpt lat="48.933603" lon="8.659295">
<ele>327.5</ele>
<speed>3.9</speed>
<course>114.6</course>
<desc>Speed 3.9 km/h Distance 3.20 km</desc>
<time>2010-02-24T17:54:35.82</time>
<name>2907</name>
</trkpt>
<trkpt lat="48.933598" lon="8.659312">
<ele>326.5</ele>
<speed>4.2</speed>
<course>97.9</course>
<desc>Speed 4.2 km/h Distance 3.20 km</desc>
<time>2010-02-24T17:54:36.83</time>
<name>2908</name>
</trkpt>
<trkpt lat="48.933597" lon="8.659330">
<ele>325.0</ele>
<speed>4.6</speed>
<course>37.2</course>
<desc>Speed 4.6 km/h Distance 3.20 km</desc>
<time>2010-02-24T17:54:37.82</time>
<name>2909</name>
</trkpt>
<trkpt lat="48.933607" lon="8.659342">
<ele>324.0</ele>
<speed>3.3</speed>
<course>21.9</course>
<desc>Speed 3.3 km/h Distance 3.20 km</desc>
<time>2010-02-24T17:54:38.82</time>
<name>2910</name>
</trkpt>
<trkpt lat="48.933628" lon="8.659355">
<ele>323.5</ele>
<speed>2.7</speed>
<course>19.0</course>
<desc>Speed 2.7 km/h Distance 3.20 km</desc>
<time>2010-02-24T17:54:39.82</time>
<name>2911</name>
</trkpt>
<trkpt lat="48.933695" lon="8.659390">
<ele>323.0</ele>
<speed>3.0</speed>
<course>100.8</course>
<desc>Speed 3.0 km/h Distance 3.21 km</desc>
<time>2010-02-24T17:54:41.82</time>
<name>2912</name>
</trkpt>
<trkpt lat="48.933693" lon="8.659403">
<ele>322.5</ele>
<speed>2.6</speed>
<course>97.2</course>
<desc>Speed 2.6 km/h Distance 3.21 km</desc>
<time>2010-02-24T17:54:42.82</time>
<name>2913</name>
</trkpt>
<trkpt lat="48.933692" lon="8.659423">
<ele>322.0</ele>
<speed>3.8</speed>
<course>61.7</course>
<desc>Speed 3.8 km/h Distance 3.21 km</desc>
<time>2010-02-24T17:54:43.84</time>
<name>2914</name>
</trkpt>
<trkpt lat="48.933702" lon="8.659452">
<ele>322.0</ele>
<speed>2.2</speed>
<course>50.6</course>
<desc>Speed 2.2 km/h Distance 3.22 km</desc>
<time>2010-02-24T17:54:44.82</time>
<name>2915</name>
</trkpt>
<trkpt lat="48.933735" lon="8.659513">
<ele>323.5</ele>
<speed>3.4</speed>
<course>35.8</course>
<desc>Speed 3.4 km/h Distance 3.22 km</desc>
<time>2010-02-24T17:54:46.84</time>
<name>2916</name>
</trkpt>
<trkpt lat="48.933768" lon="8.659550">
<ele>324.0</ele>
<speed>2.5</speed>
<course>41.9</course>
<desc>Speed 2.5 km/h Distance 3.23 km</desc>
<time>2010-02-24T17:54:48.82</time>
<name>2917</name>
</trkpt>
<trkpt lat="48.933773" lon="8.659557">
<ele>323.5</ele>
<speed>3.1</speed>
<course>135.5</course>
<desc>Speed 3.1 km/h Distance 3.23 km</desc>
<time>2010-02-24T17:54:49.82</time>
<name>2918</name>
</trkpt>
<trkpt lat="48.933767" lon="8.659567">
<ele>322.5</ele>
<speed>3.5</speed>
<course>124.1</course>
<desc>Speed 3.5 km/h Distance 3.23 km</desc>
<time>2010-02-24T17:54:50.82</time>
<name>2919</name>
</trkpt>
<trkpt lat="48.933760" lon="8.659582">
<ele>322.5</ele>
<speed>4.1</speed>
<course>150.0</course>
<desc>Speed 4.1 km/h Distance 3.23 km</desc>
<time>2010-02-24T17:54:51.82</time>
<name>2920</name>
</trkpt>
<trkpt lat="48.933747" lon="8.659593">
<ele>322.5</ele>
<speed>6.1</speed>
<course>110.8</course>
<desc>Speed 6.1 km/h Distance 3.23 km</desc>
<time>2010-02-24T17:54:52.85</time>
<name>2921</name>
</trkpt>
<trkpt lat="48.933743" lon="8.659607">
<ele>320.5</ele>
<speed>4.2</speed>
<course>52.7</course>
<desc>Speed 4.2 km/h Distance 3.23 km</desc>
<time>2010-02-24T17:54:53.82</time>
<name>2922</name>
</trkpt>
<trkpt lat="48.933753" lon="8.659627">
<ele>321.0</ele>
<speed>3.2</speed>
<course>69.2</course>
<desc>Speed 3.2 km/h Distance 3.24 km</desc>
<time>2010-02-24T17:54:54.81</time>
<name>2923</name>
</trkpt>
<trkpt lat="48.933757" lon="8.659640">
<ele>322.0</ele>
<speed>2.3</speed>
<course>113.5</course>
<desc>Speed 2.3 km/h Distance 3.24 km</desc>
<time>2010-02-24T17:54:55.84</time>
<name>2924</name>
</trkpt>
<trkpt lat="48.933753" lon="8.659652">
<ele>322.0</ele>
<speed>3.7</speed>
<course>71.3</course>
<desc>Speed 3.7 km/h Distance 3.24 km</desc>
<time>2010-02-24T17:54:56.81</time>
<name>2925</name>
</trkpt>
<trkpt lat="48.933757" lon="8.659667">
<ele>322.5</ele>
<speed>3.5</speed>
<course>43.3</course>
<desc>Speed 3.5 km/h Distance 3.24 km</desc>
<time>2010-02-24T17:54:57.81</time>
<name>2926</name>
</trkpt>
<trkpt lat="48.933768" lon="8.659683">
<ele>324.0</ele>
<speed>2.6</speed>
<course>53.0</course>
<desc>Speed 2.6 km/h Distance 3.24 km</desc>
<time>2010-02-24T17:54:58.82</time>
<name>2927</name>
</trkpt>
<trkpt lat="48.933772" lon="8.659690">
<ele>323.5</ele>
<speed>1.3</speed>
<course>90.0</course>
<desc>Speed 1.3 km/h Distance 3.24 km</desc>
<time>2010-02-24T17:54:59.81</time>
<name>2928</name>
</trkpt>
<trkpt lat="48.933772" lon="8.659698">
<ele>324.0</ele>
<speed>2.4</speed>
<course>44.5</course>
<desc>Speed 2.4 km/h Distance 3.24 km</desc>
<time>2010-02-24T17:55:00.81</time>
<name>2929</name>
</trkpt>
<trkpt lat="48.933778" lon="8.659708">
<ele>324.5</ele>
<speed>1.4</speed>
<course>52.8</course>
<desc>Speed 1.4 km/h Distance 3.24 km</desc>
<time>2010-02-24T17:55:01.84</time>
<name>2930</name>
</trkpt>
<trkpt lat="48.933783" lon="8.659718">
<ele>323.5</ele>
<speed>3.2</speed>
<course>40.2</course>
<desc>Speed 3.2 km/h Distance 3.24 km</desc>
<time>2010-02-24T17:55:02.81</time>
<name>2931</name>
</trkpt>
<trkpt lat="48.933795" lon="8.659733">
<ele>323.0</ele>
<speed>3.0</speed>
<course>100.8</course>
<desc>Speed 3.0 km/h Distance 3.25 km</desc>
<time>2010-02-24T17:55:03.81</time>
<name>2932</name>
</trkpt>
<trkpt lat="48.933793" lon="8.659747">
<ele>322.0</ele>
<speed>3.6</speed>
<course>32.1</course>
<desc>Speed 3.6 km/h Distance 3.25 km</desc>
<time>2010-02-24T17:55:04.81</time>
<name>2933</name>
</trkpt>
<trkpt lat="48.933830" lon="8.659782">
<ele>324.0</ele>
<speed>0.9</speed>
<course>90.0</course>
<desc>Speed 0.9 km/h Distance 3.25 km</desc>
<time>2010-02-24T17:55:06.81</time>
<name>2934</name>
</trkpt>
<trkpt lat="48.933830" lon="8.659783">
<ele>324.0</ele>
<speed>0.4</speed>
<course>21.5</course>
<desc>Speed 0.4 km/h Distance 3.25 km</desc>
<time>2010-02-24T17:55:07.81</time>
<name>2935</name>
</trkpt>
<trkpt lat="48.933838" lon="8.659788">
<ele>324.0</ele>
<speed>2.3</speed>
<course>25.4</course>
<desc>Speed 2.3 km/h Distance 3.25 km</desc>
<time>2010-02-24T17:55:08.80</time>
<name>2936</name>
</trkpt>
<trkpt lat="48.933843" lon="8.659792">
<ele>323.5</ele>
<speed>0.6</speed>
<course>34.1</course>
<desc>Speed 0.6 km/h Distance 3.25 km</desc>
<time>2010-02-24T17:55:09.81</time>
<name>2937</name>
</trkpt>
<trkpt lat="48.933848" lon="8.659797">
<ele>322.0</ele>
<speed>1.0</speed>
<course>77.8</course>
<desc>Speed 1.0 km/h Distance 3.25 km</desc>
<time>2010-02-24T17:55:10.82</time>
<name>2938</name>
</trkpt>
<trkpt lat="48.933850" lon="8.659808">
<ele>320.5</ele>
<speed>4.1</speed>
<course>106.7</course>
<desc>Speed 4.1 km/h Distance 3.25 km</desc>
<time>2010-02-24T17:55:11.81</time>
<name>2939</name>
</trkpt>
<trkpt lat="48.933848" lon="8.659817">
<ele>320.0</ele>
<speed>2.6</speed>
<course>56.1</course>
<desc>Speed 2.6 km/h Distance 3.25 km</desc>
<time>2010-02-24T17:55:12.81</time>
<name>2940</name>
</trkpt>
<trkpt lat="48.933855" lon="8.659832">
<ele>321.5</ele>
<speed>3.6</speed>
<course>66.5</course>
<desc>Speed 3.6 km/h Distance 3.26 km</desc>
<time>2010-02-24T17:55:13.81</time>
<name>2941</name>
</trkpt>
<trkpt lat="48.933858" lon="8.659843">
<ele>321.0</ele>
<speed>2.5</speed>
<course>38.1</course>
<desc>Speed 2.5 km/h Distance 3.26 km</desc>
<time>2010-02-24T17:55:14.80</time>
<name>2942</name>
</trkpt>
<trkpt lat="48.933867" lon="8.659853">
<ele>320.0</ele>
<speed>2.0</speed>
<course>90.0</course>
<desc>Speed 2.0 km/h Distance 3.26 km</desc>
<time>2010-02-24T17:55:15.80</time>
<name>2943</name>
</trkpt>
<trkpt lat="48.933867" lon="8.659865">
<ele>318.5</ele>
<speed>1.9</speed>
<course>90.0</course>
<desc>Speed 1.9 km/h Distance 3.26 km</desc>
<time>2010-02-24T17:55:16.80</time>
<name>2944</name>
</trkpt>
<trkpt lat="48.933867" lon="8.659873">
<ele>317.0</ele>
<speed>2.3</speed>
<course>44.5</course>
<desc>Speed 2.3 km/h Distance 3.26 km</desc>
<time>2010-02-24T17:55:17.80</time>
<name>2945</name>
</trkpt>
<trkpt lat="48.933870" lon="8.659878">
<ele>315.5</ele>
<speed>1.8</speed>
<course>52.8</course>
<desc>Speed 1.8 km/h Distance 3.26 km</desc>
<time>2010-02-24T17:55:18.80</time>
<name>2946</name>
</trkpt>
<trkpt lat="48.933875" lon="8.659888">
<ele>315.0</ele>
<speed>1.4</speed>
<course>15.5</course>
<desc>Speed 1.4 km/h Distance 3.26 km</desc>
<time>2010-02-24T17:55:19.80</time>
<name>2947</name>
</trkpt>
<trkpt lat="48.933895" lon="8.659897">
<ele>313.5</ele>
<speed>0.7</speed>
<course>56.3</course>
<desc>Speed 0.7 km/h Distance 3.26 km</desc>
<time>2010-02-24T17:55:20.82</time>
<name>2948</name>
</trkpt>
<trkpt lat="48.933907" lon="8.659923">
<ele>312.5</ele>
<speed>1.6</speed>
<course>90.0</course>
<desc>Speed 1.6 km/h Distance 3.27 km</desc>
<time>2010-02-24T17:55:22.80</time>
<name>2949</name>
</trkpt>
<trkpt lat="48.933907" lon="8.659930">
<ele>312.0</ele>
<speed>2.4</speed>
<course>110.9</course>
<desc>Speed 2.4 km/h Distance 3.27 km</desc>
<time>2010-02-24T17:55:23.83</time>
<name>2950</name>
</trkpt>
<trkpt lat="48.933905" lon="8.659937">
<ele>311.0</ele>
<speed>0.7</speed>
<course>47.4</course>
<desc>Speed 0.7 km/h Distance 3.27 km</desc>
<time>2010-02-24T17:55:24.80</time>
<name>2951</name>
</trkpt>
<trkpt lat="48.933910" lon="8.659945">
<ele>312.5</ele>
<speed>0.3</speed>
<course>32.3</course>
<desc>Speed 0.3 km/h Distance 3.27 km</desc>
<time>2010-02-24T17:55:25.80</time>
<name>2952</name>
</trkpt>
<trkpt lat="48.933915" lon="8.659950">
<ele>311.5</ele>
<speed>1.1</speed>
<course>40.9</course>
<desc>Speed 1.1 km/h Distance 3.27 km</desc>
<time>2010-02-24T17:55:26.83</time>
<name>2953</name>
</trkpt>
<trkpt lat="48.933920" lon="8.659957">
<ele>310.0</ele>
<speed>1.3</speed>
<course>26.2</course>
<desc>Speed 1.3 km/h Distance 3.27 km</desc>
<time>2010-02-24T17:55:27.80</time>
<name>2954</name>
</trkpt>
<trkpt lat="48.933960" lon="8.659987">
<ele>312.0</ele>
<speed>1.2</speed>
<course>13.2</course>
<desc>Speed 1.2 km/h Distance 3.27 km</desc>
<time>2010-02-24T17:55:29.80</time>
<name>2955</name>
</trkpt>
<trkpt lat="48.934007" lon="8.660003">
<ele>310.0</ele>
<speed>1.8</speed>
<course>2.7</course>
<desc>Speed 1.8 km/h Distance 3.28 km</desc>
<time>2010-02-24T17:55:31.80</time>
<name>2956</name>
</trkpt>
<trkpt lat="48.934027" lon="8.660005">
<ele>310.0</ele>
<speed>0.6</speed>
<course>10.8</course>
<desc>Speed 0.6 km/h Distance 3.28 km</desc>
<time>2010-02-24T17:55:32.80</time>
<name>2957</name>
</trkpt>
<trkpt lat="48.934078" lon="8.660020">
<ele>309.5</ele>
<speed>0.8</speed>
<course>7.7</course>
<desc>Speed 0.8 km/h Distance 3.29 km</desc>
<time>2010-02-24T17:55:34.80</time>
<name>2958</name>
</trkpt>
<trkpt lat="48.934095" lon="8.660023">
<ele>307.5</ele>
<speed>3.6</speed>
<course>13.6</course>
<desc>Speed 3.6 km/h Distance 3.29 km</desc>
<time>2010-02-24T17:55:35.80</time>
<name>2959</name>
</trkpt>
<trkpt lat="48.934113" lon="8.660030">
<ele>306.0</ele>
<speed>2.2</speed>
<course>90.0</course>
<desc>Speed 2.2 km/h Distance 3.29 km</desc>
<time>2010-02-24T17:55:36.80</time>
<name>2960</name>
</trkpt>
<trkpt lat="48.934113" lon="8.660035">
<ele>305.0</ele>
<speed>1.6</speed>
<course>33.7</course>
<desc>Speed 1.6 km/h Distance 3.29 km</desc>
<time>2010-02-24T17:55:37.80</time>
<name>2961</name>
</trkpt>
<trkpt lat="48.934117" lon="8.660038">
<ele>305.5</ele>
<speed>0.3</speed>
<course>26.4</course>
<desc>Speed 0.3 km/h Distance 3.29 km</desc>
<time>2010-02-24T17:55:38.80</time>
<name>2962</name>
</trkpt>
<trkpt lat="48.934123" lon="8.660043">
<ele>306.0</ele>
<speed>0.6</speed>
<course>14.9</course>
<desc>Speed 0.6 km/h Distance 3.29 km</desc>
<time>2010-02-24T17:55:39.79</time>
<name>2963</name>
</trkpt>
<trkpt lat="48.934132" lon="8.660047">
<ele>306.5</ele>
<speed>0.6</speed>
<course>63.0</course>
<desc>Speed 0.6 km/h Distance 3.29 km</desc>
<time>2010-02-24T17:55:40.79</time>
<name>2964</name>
</trkpt>
<trkpt lat="48.934135" lon="8.660057">
<ele>307.0</ele>
<speed>1.5</speed>
<course>53.0</course>
<desc>Speed 1.5 km/h Distance 3.29 km</desc>
<time>2010-02-24T17:55:41.79</time>
<name>2965</name>
</trkpt>
<trkpt lat="48.934138" lon="8.660063">
<ele>305.0</ele>
<speed>0.8</speed>
<course>23.4</course>
<desc>Speed 0.8 km/h Distance 3.30 km</desc>
<time>2010-02-24T17:55:42.79</time>
<name>2966</name>
</trkpt>
<trkpt lat="48.934148" lon="8.660070">
<ele>303.5</ele>
<speed>2.0</speed>
<course>13.5</course>
<desc>Speed 2.0 km/h Distance 3.30 km</desc>
<time>2010-02-24T17:55:43.79</time>
<name>2967</name>
</trkpt>
<trkpt lat="48.934162" lon="8.660075">
<ele>303.0</ele>
<speed>1.9</speed>
<course>9.0</course>
<desc>Speed 1.9 km/h Distance 3.30 km</desc>
<time>2010-02-24T17:55:44.79</time>
<name>2968</name>
</trkpt>
<trkpt lat="48.934175" lon="8.660078">
<ele>302.0</ele>
<speed>2.4</speed>
<course>58.6</course>
<desc>Speed 2.4 km/h Distance 3.30 km</desc>
<time>2010-02-24T17:55:45.79</time>
<name>2969</name>
</trkpt>
<trkpt lat="48.934178" lon="8.660087">
<ele>300.5</ele>
<speed>0.9</speed>
<course>73.1</course>
<desc>Speed 0.9 km/h Distance 3.30 km</desc>
<time>2010-02-24T17:55:46.79</time>
<name>2970</name>
</trkpt>
<trkpt lat="48.934180" lon="8.660095">
<ele>300.0</ele>
<speed>1.0</speed>
<course>75.8</course>
<desc>Speed 1.0 km/h Distance 3.30 km</desc>
<time>2010-02-24T17:55:47.79</time>
<name>2971</name>
</trkpt>
<trkpt lat="48.934182" lon="8.660105">
<ele>299.0</ele>
<speed>1.8</speed>
<course>16.3</course>
<desc>Speed 1.8 km/h Distance 3.30 km</desc>
<time>2010-02-24T17:55:48.79</time>
<name>2972</name>
</trkpt>
<trkpt lat="48.934197" lon="8.660112">
<ele>299.0</ele>
<speed>5.1</speed>
<course>9.6</course>
<desc>Speed 5.1 km/h Distance 3.30 km</desc>
<time>2010-02-24T17:55:49.79</time>
<name>2973</name>
</trkpt>
<trkpt lat="48.934205" lon="8.660113">
<ele>298.0</ele>
<speed>2.9</speed>
<course>14.9</course>
<desc>Speed 2.9 km/h Distance 3.30 km</desc>
<time>2010-02-24T17:55:50.79</time>
<name>2974</name>
</trkpt>
<trkpt lat="48.934222" lon="8.660120">
<ele>297.5</ele>
<speed>4.9</speed>
<course>7.7</course>
<desc>Speed 4.9 km/h Distance 3.31 km</desc>
<time>2010-02-24T17:55:51.79</time>
<name>2975</name>
</trkpt>
<trkpt lat="48.934230" lon="8.660122">
<ele>295.5</ele>
<speed>1.9</speed>
<course>90.0</course>
<desc>Speed 1.9 km/h Distance 3.31 km</desc>
<time>2010-02-24T17:55:52.79</time>
<name>2976</name>
</trkpt>
<trkpt lat="48.934230" lon="8.660128">
<ele>294.0</ele>
<speed>1.2</speed>
<course>32.3</course>
<desc>Speed 1.2 km/h Distance 3.31 km</desc>
<time>2010-02-24T17:55:53.79</time>
<name>2977</name>
</trkpt>
<trkpt lat="48.934235" lon="8.660133">
<ele>292.5</ele>
<speed>1.5</speed>
<course>23.8</course>
<desc>Speed 1.5 km/h Distance 3.31 km</desc>
<time>2010-02-24T17:55:54.79</time>
<name>2978</name>
</trkpt>
<trkpt lat="48.934240" lon="8.660137">
<ele>291.5</ele>
<speed>1.2</speed>
<course>90.0</course>
<desc>Speed 1.2 km/h Distance 3.31 km</desc>
<time>2010-02-24T17:55:55.80</time>
<name>2979</name>
</trkpt>
<trkpt lat="48.934240" lon="8.660148">
<ele>292.0</ele>
<speed>1.9</speed>
<course>71.3</course>
<desc>Speed 1.9 km/h Distance 3.31 km</desc>
<time>2010-02-24T17:55:56.82</time>
<name>2980</name>
</trkpt>
<trkpt lat="48.934243" lon="8.660163">
<ele>292.5</ele>
<speed>3.1</speed>
<course>104.4</course>
<desc>Speed 3.1 km/h Distance 3.31 km</desc>
<time>2010-02-24T17:55:57.82</time>
<name>2981</name>
</trkpt>
<trkpt lat="48.934242" lon="8.660173">
<ele>293.0</ele>
<speed>0.4</speed>
<course>75.6</course>
<desc>Speed 0.4 km/h Distance 3.31 km</desc>
<time>2010-02-24T17:55:58.82</time>
<name>2982</name>
</trkpt>
<trkpt lat="48.934243" lon="8.660183">
<ele>294.0</ele>
<speed>0.5</speed>
<course>40.9</course>
<desc>Speed 0.5 km/h Distance 3.31 km</desc>
<time>2010-02-24T17:55:59.82</time>
<name>2983</name>
</trkpt>
<trkpt lat="48.934248" lon="8.660190">
<ele>294.5</ele>
<speed>0.5</speed>
<course>90.0</course>
<desc>Speed 0.5 km/h Distance 3.31 km</desc>
<time>2010-02-24T17:56:00.82</time>
<name>2984</name>
</trkpt>
<trkpt lat="48.934248" lon="8.660192">
<ele>294.0</ele>
<speed>0.7</speed>
<course>62.6</course>
<desc>Speed 0.7 km/h Distance 3.31 km</desc>
<time>2010-02-24T17:56:01.82</time>
<name>2985</name>
</trkpt>
<trkpt lat="48.934250" lon="8.660197">
<ele>292.0</ele>
<speed>1.0</speed>
<course>18.8</course>
<desc>Speed 1.0 km/h Distance 3.31 km</desc>
<time>2010-02-24T17:56:02.82</time>
<name>2986</name>
</trkpt>
<trkpt lat="48.934257" lon="8.660200">
<ele>290.5</ele>
<speed>1.9</speed>
<course>90.0</course>
<desc>Speed 1.9 km/h Distance 3.31 km</desc>
<time>2010-02-24T17:56:03.82</time>
<name>2987</name>
</trkpt>
<trkpt lat="48.934257" lon="8.660202">
<ele>291.0</ele>
<speed>0.1</speed>
<course>52.8</course>
<desc>Speed 0.1 km/h Distance 3.31 km</desc>
<time>2010-02-24T17:56:04.82</time>
<name>2988</name>
</trkpt>
<trkpt lat="48.934262" lon="8.660212">
<ele>291.5</ele>
<speed>2.7</speed>
<course>90.0</course>
<desc>Speed 2.7 km/h Distance 3.32 km</desc>
<time>2010-02-24T17:56:05.86</time>
<name>2989</name>
</trkpt>
<trkpt lat="48.934262" lon="8.660218">
<ele>291.0</ele>
<speed>0.9</speed>
<course>56.7</course>
<desc>Speed 0.9 km/h Distance 3.32 km</desc>
<time>2010-02-24T17:56:06.85</time>
<name>2990</name>
</trkpt>
<trkpt lat="48.934267" lon="8.660230">
<ele>291.5</ele>
<speed>2.2</speed>
<course>90.0</course>
<desc>Speed 2.2 km/h Distance 3.32 km</desc>
<time>2010-02-24T17:56:07.85</time>
<name>2991</name>
</trkpt>
<trkpt lat="48.934267" lon="8.660240">
<ele>291.5</ele>
<speed>1.4</speed>
<course>90.0</course>
<desc>Speed 1.4 km/h Distance 3.32 km</desc>
<time>2010-02-24T17:56:08.85</time>
<name>2992</name>
</trkpt>
<trkpt lat="48.934267" lon="8.660250">
<ele>291.0</ele>
<speed>0.9</speed>
<course>37.2</course>
<desc>Speed 0.9 km/h Distance 3.32 km</desc>
<time>2010-02-24T17:56:09.85</time>
<name>2993</name>
</trkpt>
<trkpt lat="48.934268" lon="8.660252">
<ele>291.0</ele>
<speed>0.5</speed>
<course>7.7</course>
<desc>Speed 0.5 km/h Distance 3.32 km</desc>
<time>2010-02-24T17:56:10.85</time>
<name>2994</name>
</trkpt>
<trkpt lat="48.934285" lon="8.660255">
<ele>289.5</ele>
<speed>1.2</speed>
<course>33.2</course>
<desc>Speed 1.2 km/h Distance 3.32 km</desc>
<time>2010-02-24T17:56:11.85</time>
<name>2995</name>
</trkpt>
<trkpt lat="48.934290" lon="8.660260">
<ele>290.5</ele>
<speed>0.5</speed>
<course>44.5</course>
<desc>Speed 0.5 km/h Distance 3.32 km</desc>
<time>2010-02-24T17:56:12.85</time>
<name>2996</name>
</trkpt>
<trkpt lat="48.934293" lon="8.660265">
<ele>290.0</ele>
<speed>0.9</speed>
<course>33.4</course>
<desc>Speed 0.9 km/h Distance 3.32 km</desc>
<time>2010-02-24T17:56:13.85</time>
<name>2997</name>
</trkpt>
<trkpt lat="48.934307" lon="8.660278">
<ele>291.0</ele>
<speed>0.9</speed>
<course>62.6</course>
<desc>Speed 0.9 km/h Distance 3.32 km</desc>
<time>2010-02-24T17:56:14.85</time>
<name>2998</name>
</trkpt>
<trkpt lat="48.934308" lon="8.660283">
<ele>291.5</ele>
<speed>0.5</speed>
<course>23.8</course>
<desc>Speed 0.5 km/h Distance 3.32 km</desc>
<time>2010-02-24T17:56:15.85</time>
<name>2999</name>
</trkpt>
<trkpt lat="48.934313" lon="8.660287">
<ele>290.0</ele>
<speed>1.8</speed>
<course>5.0</course>
<desc>Speed 1.8 km/h Distance 3.32 km</desc>
<time>2010-02-24T17:56:16.85</time>
<name>3000</name>
</trkpt>
<trkpt lat="48.934322" lon="8.660288">
<ele>288.5</ele>
<speed>2.0</speed>
<course>41.4</course>
<desc>Speed 2.0 km/h Distance 3.33 km</desc>
<time>2010-02-24T17:56:17.85</time>
<name>3001</name>
</trkpt>
<trkpt lat="48.934327" lon="8.660295">
<ele>288.0</ele>
<speed>1.0</speed>
<course>27.9</course>
<desc>Speed 1.0 km/h Distance 3.33 km</desc>
<time>2010-02-24T17:56:18.85</time>
<name>3002</name>
</trkpt>
<trkpt lat="48.934335" lon="8.660302">
<ele>287.5</ele>
<speed>1.1</speed>
<course>29.4</course>
<desc>Speed 1.1 km/h Distance 3.33 km</desc>
<time>2010-02-24T17:56:19.85</time>
<name>3003</name>
</trkpt>
<trkpt lat="48.934347" lon="8.660312">
<ele>288.5</ele>
<speed>0.9</speed>
<course>16.4</course>
<desc>Speed 0.9 km/h Distance 3.33 km</desc>
<time>2010-02-24T17:56:20.85</time>
<name>3004</name>
</trkpt>
<trkpt lat="48.934380" lon="8.660327">
<ele>287.5</ele>
<speed>1.3</speed>
<course>90.0</course>
<desc>Speed 1.3 km/h Distance 3.33 km</desc>
<time>2010-02-24T17:56:22.85</time>
<name>3005</name>
</trkpt>
<trkpt lat="48.934380" lon="8.660328">
<ele>288.0</ele>
<speed>0.3</speed>
<course>33.4</course>
<desc>Speed 0.3 km/h Distance 3.33 km</desc>
<time>2010-02-24T17:56:23.85</time>
<name>3006</name>
</trkpt>
<trkpt lat="48.934393" lon="8.660342">
<ele>290.5</ele>
<speed>4.3</speed>
<course>73.1</course>
<desc>Speed 4.3 km/h Distance 3.33 km</desc>
<time>2010-02-24T17:56:24.85</time>
<name>3007</name>
</trkpt>
<trkpt lat="48.934395" lon="8.660350">
<ele>290.5</ele>
<speed>2.0</speed>
<course>47.1</course>
<desc>Speed 2.0 km/h Distance 3.34 km</desc>
<time>2010-02-24T17:56:25.85</time>
<name>3008</name>
</trkpt>
<trkpt lat="48.934400" lon="8.660358">
<ele>290.5</ele>
<speed>1.6</speed>
<course>47.8</course>
<desc>Speed 1.6 km/h Distance 3.34 km</desc>
<time>2010-02-24T17:56:26.85</time>
<name>3009</name>
</trkpt>
<trkpt lat="48.934405" lon="8.660367">
<ele>290.5</ele>
<speed>2.3</speed>
<course>27.9</course>
<desc>Speed 2.3 km/h Distance 3.34 km</desc>
<time>2010-02-24T17:56:27.85</time>
<name>3010</name>
</trkpt>
<trkpt lat="48.934413" lon="8.660373">
<ele>290.0</ele>
<speed>2.0</speed>
<course>15.2</course>
<desc>Speed 2.0 km/h Distance 3.34 km</desc>
<time>2010-02-24T17:56:28.85</time>
<name>3011</name>
</trkpt>
<trkpt lat="48.934433" lon="8.660382">
<ele>290.0</ele>
<speed>1.7</speed>
<course>27.9</course>
<desc>Speed 1.7 km/h Distance 3.34 km</desc>
<time>2010-02-24T17:56:29.85</time>
<name>3012</name>
</trkpt>
<trkpt lat="48.934477" lon="8.660417">
<ele>294.0</ele>
<speed>1.9</speed>
<course>20.9</course>
<desc>Speed 1.9 km/h Distance 3.35 km</desc>
<time>2010-02-24T17:56:31.85</time>
<name>3013</name>
</trkpt>
<trkpt lat="48.934488" lon="8.660423">
<ele>293.5</ele>
<speed>1.8</speed>
<course>53.0</course>
<desc>Speed 1.8 km/h Distance 3.35 km</desc>
<time>2010-02-24T17:56:32.85</time>
<name>3014</name>
</trkpt>
<trkpt lat="48.934492" lon="8.660430">
<ele>292.5</ele>
<speed>1.0</speed>
<course>33.3</course>
<desc>Speed 1.0 km/h Distance 3.35 km</desc>
<time>2010-02-24T17:56:33.85</time>
<name>3015</name>
</trkpt>
<trkpt lat="48.934507" lon="8.660445">
<ele>294.5</ele>
<speed>1.5</speed>
<course>132.9</course>
<desc>Speed 1.5 km/h Distance 3.35 km</desc>
<time>2010-02-24T17:56:34.85</time>
<name>3016</name>
</trkpt>
<trkpt lat="48.934502" lon="8.660453">
<ele>294.5</ele>
<speed>2.3</speed>
<course>90.0</course>
<desc>Speed 2.3 km/h Distance 3.35 km</desc>
<time>2010-02-24T17:56:35.85</time>
<name>3017</name>
</trkpt>
<trkpt lat="48.934502" lon="8.660462">
<ele>294.0</ele>
<speed>1.8</speed>
<course>90.0</course>
<desc>Speed 1.8 km/h Distance 3.35 km</desc>
<time>2010-02-24T17:56:36.85</time>
<name>3018</name>
</trkpt>
<trkpt lat="48.934502" lon="8.660470">
<ele>292.5</ele>
<speed>1.6</speed>
<course>147.7</course>
<desc>Speed 1.6 km/h Distance 3.35 km</desc>
<time>2010-02-24T17:56:37.85</time>
<name>3019</name>
</trkpt>
<trkpt lat="48.934497" lon="8.660475">
<ele>291.5</ele>
<speed>2.4</speed>
<course>136.5</course>
<desc>Speed 2.4 km/h Distance 3.35 km</desc>
<time>2010-02-24T17:56:38.85</time>
<name>3020</name>
</trkpt>
<trkpt lat="48.934493" lon="8.660480">
<ele>290.5</ele>
<speed>2.2</speed>
<course>77.7</course>
<desc>Speed 2.2 km/h Distance 3.35 km</desc>
<time>2010-02-24T17:56:39.85</time>
<name>3021</name>
</trkpt>
<trkpt lat="48.934495" lon="8.660492">
<ele>291.0</ele>
<speed>1.6</speed>
<course>72.9</course>
<desc>Speed 1.6 km/h Distance 3.35 km</desc>
<time>2010-02-24T17:56:40.85</time>
<name>3022</name>
</trkpt>
<trkpt lat="48.934497" lon="8.660500">
<ele>291.0</ele>
<speed>1.8</speed>
<course>27.5</course>
<desc>Speed 1.8 km/h Distance 3.35 km</desc>
<time>2010-02-24T17:56:41.85</time>
<name>3023</name>
</trkpt>
<trkpt lat="48.934505" lon="8.660507">
<ele>291.5</ele>
<speed>1.7</speed>
<course>26.0</course>
<desc>Speed 1.7 km/h Distance 3.36 km</desc>
<time>2010-02-24T17:56:42.85</time>
<name>3024</name>
</trkpt>
<trkpt lat="48.934518" lon="8.660517">
<ele>292.0</ele>
<speed>2.6</speed>
<course>9.0</course>
<desc>Speed 2.6 km/h Distance 3.36 km</desc>
<time>2010-02-24T17:56:43.85</time>
<name>3025</name>
</trkpt>
<trkpt lat="48.934532" lon="8.660520">
<ele>292.5</ele>
<speed>0.1</speed>
<course>14.0</course>
<desc>Speed 0.1 km/h Distance 3.36 km</desc>
<time>2010-02-24T17:56:44.85</time>
<name>3026</name>
</trkpt>
<trkpt lat="48.934593" lon="8.660543">
<ele>294.0</ele>
<speed>2.3</speed>
<course>14.9</course>
<desc>Speed 2.3 km/h Distance 3.37 km</desc>
<time>2010-02-24T17:56:46.85</time>
<name>3027</name>
</trkpt>
<trkpt lat="48.934638" lon="8.660562">
<ele>294.0</ele>
<speed>2.1</speed>
<course>20.1</course>
<desc>Speed 2.1 km/h Distance 3.37 km</desc>
<time>2010-02-24T17:56:48.85</time>
<name>3028</name>
</trkpt>
<trkpt lat="48.934653" lon="8.660570">
<ele>294.0</ele>
<speed>3.2</speed>
<course>72.9</course>
<desc>Speed 3.2 km/h Distance 3.37 km</desc>
<time>2010-02-24T17:56:49.85</time>
<name>3029</name>
</trkpt>
<trkpt lat="48.934655" lon="8.660578">
<ele>294.5</ele>
<speed>0.3</speed>
<course>21.5</course>
<desc>Speed 0.3 km/h Distance 3.37 km</desc>
<time>2010-02-24T17:56:50.85</time>
<name>3030</name>
</trkpt>
<trkpt lat="48.934747" lon="8.660633">
<ele>306.5</ele>
<speed>4.8</speed>
<course>16.0</course>
<desc>Speed 4.8 km/h Distance 3.38 km</desc>
<time>2010-02-24T17:56:53.85</time>
<name>3031</name>
</trkpt>
<trkpt lat="48.934773" lon="8.660645">
<ele>309.5</ele>
<speed>2.7</speed>
<course>90.0</course>
<desc>Speed 2.7 km/h Distance 3.39 km</desc>
<time>2010-02-24T17:56:54.85</time>
<name>3032</name>
</trkpt>
<trkpt lat="48.934773" lon="8.660648">
<ele>310.0</ele>
<speed>0.4</speed>
<course>37.2</course>
<desc>Speed 0.4 km/h Distance 3.39 km</desc>
<time>2010-02-24T17:56:55.85</time>
<name>3033</name>
</trkpt>
<trkpt lat="48.934775" lon="8.660650">
<ele>310.5</ele>
<speed>0.3</speed>
<course>5.0</course>
<desc>Speed 0.3 km/h Distance 3.39 km</desc>
<time>2010-02-24T17:56:56.85</time>
<name>3034</name>
</trkpt>
<trkpt lat="48.934783" lon="8.660652">
<ele>310.0</ele>
<speed>1.3</speed>
<course>9.0</course>
<desc>Speed 1.3 km/h Distance 3.39 km</desc>
<time>2010-02-24T17:56:57.85</time>
<name>3035</name>
</trkpt>
<trkpt lat="48.934797" lon="8.660655">
<ele>309.5</ele>
<speed>1.7</speed>
<course>10.2</course>
<desc>Speed 1.7 km/h Distance 3.39 km</desc>
<time>2010-02-24T17:56:58.85</time>
<name>3036</name>
</trkpt>
<trkpt lat="48.934815" lon="8.660660">
<ele>309.5</ele>
<speed>1.9</speed>
<course>51.9</course>
<desc>Speed 1.9 km/h Distance 3.39 km</desc>
<time>2010-02-24T17:56:59.85</time>
<name>3037</name>
</trkpt>
<trkpt lat="48.934817" lon="8.660663">
<ele>310.0</ele>
<speed>0.6</speed>
<course>19.1</course>
<desc>Speed 0.6 km/h Distance 3.39 km</desc>
<time>2010-02-24T17:57:00.85</time>
<name>3038</name>
</trkpt>
<trkpt lat="48.934845" lon="8.660678">
<ele>312.5</ele>
<speed>0.5</speed>
<course>12.6</course>
<desc>Speed 0.5 km/h Distance 3.40 km</desc>
<time>2010-02-24T17:57:02.85</time>
<name>3039</name>
</trkpt>
<trkpt lat="48.934850" lon="8.660680">
<ele>311.5</ele>
<speed>1.8</speed>
<course>5.0</course>
<desc>Speed 1.8 km/h Distance 3.40 km</desc>
<time>2010-02-24T17:57:03.85</time>
<name>3040</name>
</trkpt>
<trkpt lat="48.934858" lon="8.660680">
<ele>309.5</ele>
<speed>2.4</speed>
<course>0.0</course>
<desc>Speed 2.4 km/h Distance 3.40 km</desc>
<time>2010-02-24T17:57:04.85</time>
<name>3041</name>
</trkpt>
<trkpt lat="48.934863" lon="8.660680">
<ele>309.5</ele>
<speed>0.7</speed>
<course>0.0</course>
<desc>Speed 0.7 km/h Distance 3.40 km</desc>
<time>2010-02-24T17:57:05.85</time>
<name>3042</name>
</trkpt>
<trkpt lat="48.934868" lon="8.660680">
<ele>309.0</ele>
<speed>1.7</speed>
<course>12.6</course>
<desc>Speed 1.7 km/h Distance 3.40 km</desc>
<time>2010-02-24T17:57:06.85</time>
<name>3043</name>
</trkpt>
<trkpt lat="48.934873" lon="8.660682">
<ele>307.0</ele>
<speed>2.2</speed>
<course>5.0</course>
<desc>Speed 2.2 km/h Distance 3.40 km</desc>
<time>2010-02-24T17:57:07.85</time>
<name>3044</name>
</trkpt>
<trkpt lat="48.934882" lon="8.660683">
<ele>306.0</ele>
<speed>2.8</speed>
<course>1.2</course>
<desc>Speed 2.8 km/h Distance 3.40 km</desc>
<time>2010-02-24T17:57:08.85</time>
<name>3045</name>
</trkpt>
<trkpt lat="48.934895" lon="8.660683">
<ele>305.5</ele>
<speed>3.1</speed>
<course>0.0</course>
<desc>Speed 3.1 km/h Distance 3.40 km</desc>
<time>2010-02-24T17:57:09.85</time>
<name>3046</name>
</trkpt>
<trkpt lat="48.934913" lon="8.660683">
<ele>305.0</ele>
<speed>2.8</speed>
<course>2.2</course>
<desc>Speed 2.8 km/h Distance 3.40 km</desc>
<time>2010-02-24T17:57:10.85</time>
<name>3047</name>
</trkpt>
<trkpt lat="48.934937" lon="8.660685">
<ele>304.5</ele>
<speed>2.8</speed>
<course>0.0</course>
<desc>Speed 2.8 km/h Distance 3.41 km</desc>
<time>2010-02-24T17:57:11.85</time>
<name>3048</name>
</trkpt>
<trkpt lat="48.934942" lon="8.660685">
<ele>303.5</ele>
<speed>2.7</speed>
<course>0.0</course>
<desc>Speed 2.7 km/h Distance 3.41 km</desc>
<time>2010-02-24T17:57:12.85</time>
<name>3049</name>
</trkpt>
<trkpt lat="48.934948" lon="8.660685">
<ele>302.5</ele>
<speed>2.2</speed>
<course>12.6</course>
<desc>Speed 2.2 km/h Distance 3.41 km</desc>
<time>2010-02-24T17:57:13.85</time>
<name>3050</name>
</trkpt>
<trkpt lat="48.934952" lon="8.660687">
<ele>302.5</ele>
<speed>1.4</speed>
<course>1.2</course>
<desc>Speed 1.4 km/h Distance 3.41 km</desc>
<time>2010-02-24T17:57:14.85</time>
<name>3051</name>
</trkpt>
<trkpt lat="48.934958" lon="8.660687">
<ele>301.5</ele>
<speed>2.6</speed>
<course>11.2</course>
<desc>Speed 2.6 km/h Distance 3.41 km</desc>
<time>2010-02-24T17:57:15.85</time>
<name>3052</name>
</trkpt>
<trkpt lat="48.934970" lon="8.660690">
<ele>301.5</ele>
<speed>4.4</speed>
<course>0.9</course>
<desc>Speed 4.4 km/h Distance 3.41 km</desc>
<time>2010-02-24T17:57:16.85</time>
<name>3053</name>
</trkpt>
<trkpt lat="48.935050" lon="8.660692">
<ele>299.0</ele>
<speed>2.2</speed>
<course>12.6</course>
<desc>Speed 2.2 km/h Distance 3.42 km</desc>
<time>2010-02-24T17:57:18.85</time>
<name>3054</name>
</trkpt>
<trkpt lat="48.935055" lon="8.660693">
<ele>298.5</ele>
<speed>1.6</speed>
<course>12.6</course>
<desc>Speed 1.6 km/h Distance 3.42 km</desc>
<time>2010-02-24T17:57:19.85</time>
<name>3055</name>
</trkpt>
<trkpt lat="48.935057" lon="8.660693">
<ele>297.5</ele>
<speed>1.2</speed>
<course>347.4</course>
<desc>Speed 1.2 km/h Distance 3.42 km</desc>
<time>2010-02-24T17:57:20.85</time>
<name>3056</name>
</trkpt>
<trkpt lat="48.935062" lon="8.660692">
<ele>297.0</ele>
<speed>1.7</speed>
<course>0.0</course>
<desc>Speed 1.7 km/h Distance 3.42 km</desc>
<time>2010-02-24T17:57:21.85</time>
<name>3057</name>
</trkpt>
<trkpt lat="48.935070" lon="8.660692">
<ele>296.0</ele>
<speed>2.1</speed>
<course>7.4</course>
<desc>Speed 2.1 km/h Distance 3.42 km</desc>
<time>2010-02-24T17:57:22.85</time>
<name>3058</name>
</trkpt>
<trkpt lat="48.935077" lon="8.660693">
<ele>294.5</ele>
<speed>1.2</speed>
<course>12.6</course>
<desc>Speed 1.2 km/h Distance 3.42 km</desc>
<time>2010-02-24T17:57:23.85</time>
<name>3059</name>
</trkpt>
<trkpt lat="48.935078" lon="8.660693">
<ele>294.5</ele>
<speed>0.8</speed>
<course>5.3</course>
<desc>Speed 0.8 km/h Distance 3.42 km</desc>
<time>2010-02-24T17:57:24.85</time>
<name>3060</name>
</trkpt>
<trkpt lat="48.935092" lon="8.660695">
<ele>294.0</ele>
<speed>1.6</speed>
<course>10.9</course>
<desc>Speed 1.6 km/h Distance 3.42 km</desc>
<time>2010-02-24T17:57:25.85</time>
<name>3061</name>
</trkpt>
<trkpt lat="48.935120" lon="8.660703">
<ele>298.5</ele>
<speed>0.7</speed>
<course>10.9</course>
<desc>Speed 0.7 km/h Distance 3.43 km</desc>
<time>2010-02-24T17:57:27.85</time>
<name>3062</name>
</trkpt>
<trkpt lat="48.935120" lon="8.660703">
<ele>299.0</ele>
<speed>0.6</speed>
<course>23.8</course>
<desc>Speed 0.6 km/h Distance 3.43 km</desc>
<time>2010-02-24T17:57:28.85</time>
<name>3063</name>
</trkpt>
<trkpt lat="48.935125" lon="8.660707">
<ele>298.0</ele>
<speed>1.6</speed>
<course>1.2</course>
<desc>Speed 1.6 km/h Distance 3.43 km</desc>
<time>2010-02-24T17:57:29.85</time>
<name>3064</name>
</trkpt>
<trkpt lat="48.935138" lon="8.660707">
<ele>296.5</ele>
<speed>1.4</speed>
<course>32.3</course>
<desc>Speed 1.4 km/h Distance 3.43 km</desc>
<time>2010-02-24T17:57:30.85</time>
<name>3065</name>
</trkpt>
<trkpt lat="48.935143" lon="8.660712">
<ele>296.0</ele>
<speed>1.3</speed>
<course>77.7</course>
<desc>Speed 1.3 km/h Distance 3.43 km</desc>
<time>2010-02-24T17:57:31.85</time>
<name>3066</name>
</trkpt>
<trkpt lat="48.935147" lon="8.660735">
<ele>296.0</ele>
<speed>6.0</speed>
<course>106.7</course>
<desc>Speed 6.0 km/h Distance 3.43 km</desc>
<time>2010-02-24T17:57:32.85</time>
<name>3067</name>
</trkpt>
<trkpt lat="48.935145" lon="8.660743">
<ele>295.5</ele>
<speed>2.4</speed>
<course>104.1</course>
<desc>Speed 2.4 km/h Distance 3.43 km</desc>
<time>2010-02-24T17:57:33.85</time>
<name>3068</name>
</trkpt>
<trkpt lat="48.935143" lon="8.660753">
<ele>295.0</ele>
<speed>2.7</speed>
<course>150.6</course>
<desc>Speed 2.7 km/h Distance 3.43 km</desc>
<time>2010-02-24T17:57:34.85</time>
<name>3069</name>
</trkpt>
<trkpt lat="48.935132" lon="8.660763">
<ele>295.0</ele>
<speed>5.2</speed>
<course>137.4</course>
<desc>Speed 5.2 km/h Distance 3.43 km</desc>
<time>2010-02-24T17:57:35.85</time>
<name>3070</name>
</trkpt>
<trkpt lat="48.935123" lon="8.660775">
<ele>294.5</ele>
<speed>4.5</speed>
<course>90.0</course>
<desc>Speed 4.5 km/h Distance 3.44 km</desc>
<time>2010-02-24T17:57:36.85</time>
<name>3071</name>
</trkpt>
<trkpt lat="48.935123" lon="8.660787">
<ele>294.0</ele>
<speed>1.9</speed>
<course>139.1</course>
<desc>Speed 1.9 km/h Distance 3.44 km</desc>
<time>2010-02-24T17:57:37.85</time>
<name>3072</name>
</trkpt>
<trkpt lat="48.935118" lon="8.660793">
<ele>294.0</ele>
<speed>3.2</speed>
<course>132.6</course>
<desc>Speed 3.2 km/h Distance 3.44 km</desc>
<time>2010-02-24T17:57:38.85</time>
<name>3073</name>
</trkpt>
<trkpt lat="48.935113" lon="8.660802">
<ele>293.5</ele>
<speed>3.6</speed>
<course>117.0</course>
<desc>Speed 3.6 km/h Distance 3.44 km</desc>
<time>2010-02-24T17:57:39.85</time>
<name>3074</name>
</trkpt>
<trkpt lat="48.935110" lon="8.660812">
<ele>293.0</ele>
<speed>4.1</speed>
<course>132.2</course>
<desc>Speed 4.1 km/h Distance 3.44 km</desc>
<time>2010-02-24T17:57:40.85</time>
<name>3075</name>
</trkpt>
<trkpt lat="48.935105" lon="8.660820">
<ele>292.5</ele>
<speed>3.6</speed>
<course>90.0</course>
<desc>Speed 3.6 km/h Distance 3.44 km</desc>
<time>2010-02-24T17:57:41.85</time>
<name>3076</name>
</trkpt>
<trkpt lat="48.935105" lon="8.660828">
<ele>291.5</ele>
<speed>2.2</speed>
<course>110.9</course>
<desc>Speed 2.2 km/h Distance 3.44 km</desc>
<time>2010-02-24T17:57:42.85</time>
<name>3077</name>
</trkpt>
<trkpt lat="48.935103" lon="8.660835">
<ele>290.5</ele>
<speed>2.6</speed>
<course>127.6</course>
<desc>Speed 2.6 km/h Distance 3.44 km</desc>
<time>2010-02-24T17:57:43.85</time>
<name>3078</name>
</trkpt>
<trkpt lat="48.935100" lon="8.660842">
<ele>289.0</ele>
<speed>1.7</speed>
<course>69.1</course>
<desc>Speed 1.7 km/h Distance 3.44 km</desc>
<time>2010-02-24T17:57:44.85</time>
<name>3079</name>
</trkpt>
<trkpt lat="48.935102" lon="8.660848">
<ele>288.0</ele>
<speed>1.2</speed>
<course>113.5</course>
<desc>Speed 1.2 km/h Distance 3.44 km</desc>
<time>2010-02-24T17:57:45.85</time>
<name>3080</name>
</trkpt>
<trkpt lat="48.935098" lon="8.660860">
<ele>287.0</ele>
<speed>2.3</speed>
<course>116.9</course>
<desc>Speed 2.3 km/h Distance 3.44 km</desc>
<time>2010-02-24T17:57:46.85</time>
<name>3081</name>
</trkpt>
<trkpt lat="48.935093" lon="8.660875">
<ele>286.5</ele>
<speed>3.7</speed>
<course>121.4</course>
<desc>Speed 3.7 km/h Distance 3.44 km</desc>
<time>2010-02-24T17:57:47.85</time>
<name>3082</name>
</trkpt>
<trkpt lat="48.935090" lon="8.660883">
<ele>285.0</ele>
<speed>2.2</speed>
<course>121.4</course>
<desc>Speed 2.2 km/h Distance 3.44 km</desc>
<time>2010-02-24T17:57:48.85</time>
<name>3083</name>
</trkpt>
<trkpt lat="48.935087" lon="8.660892">
<ele>283.5</ele>
<speed>2.4</speed>
<course>29.4</course>
<desc>Speed 2.4 km/h Distance 3.45 km</desc>
<time>2010-02-24T17:57:49.85</time>
<name>3084</name>
</trkpt>
<trkpt lat="48.935098" lon="8.660902">
<ele>283.5</ele>
<speed>2.3</speed>
<course>39.1</course>
<desc>Speed 2.3 km/h Distance 3.45 km</desc>
<time>2010-02-24T17:57:50.85</time>
<name>3085</name>
</trkpt>
<trkpt lat="48.935133" lon="8.660945">
<ele>290.5</ele>
<speed>2.2</speed>
<course>141.6</course>
<desc>Speed 2.2 km/h Distance 3.45 km</desc>
<time>2010-02-24T17:57:52.85</time>
<name>3086</name>
</trkpt>
<trkpt lat="48.935125" lon="8.660955">
<ele>290.0</ele>
<speed>3.5</speed>
<course>135.5</course>
<desc>Speed 3.5 km/h Distance 3.45 km</desc>
<time>2010-02-24T17:57:53.85</time>
<name>3087</name>
</trkpt>
<trkpt lat="48.935118" lon="8.660965">
<ele>288.0</ele>
<speed>2.5</speed>
<course>137.5</course>
<desc>Speed 2.5 km/h Distance 3.45 km</desc>
<time>2010-02-24T17:57:54.85</time>
<name>3088</name>
</trkpt>
<trkpt lat="48.935110" lon="8.660977">
<ele>287.0</ele>
<speed>3.2</speed>
<course>142.5</course>
<desc>Speed 3.2 km/h Distance 3.46 km</desc>
<time>2010-02-24T17:57:55.85</time>
<name>3089</name>
</trkpt>
<trkpt lat="48.935100" lon="8.660988">
<ele>286.5</ele>
<speed>3.1</speed>
<course>130.9</course>
<desc>Speed 3.1 km/h Distance 3.46 km</desc>
<time>2010-02-24T17:57:56.85</time>
<name>3090</name>
</trkpt>
<trkpt lat="48.935093" lon="8.661000">
<ele>286.5</ele>
<speed>2.2</speed>
<course>69.1</course>
<desc>Speed 2.2 km/h Distance 3.46 km</desc>
<time>2010-02-24T17:57:57.85</time>
<name>3091</name>
</trkpt>
<trkpt lat="48.935095" lon="8.661007">
<ele>285.5</ele>
<speed>0.9</speed>
<course>51.9</course>
<desc>Speed 0.9 km/h Distance 3.46 km</desc>
<time>2010-02-24T17:57:58.85</time>
<name>3092</name>
</trkpt>
<trkpt lat="48.935097" lon="8.661010">
<ele>284.0</ele>
<speed>0.9</speed>
<course>117.4</course>
<desc>Speed 0.9 km/h Distance 3.46 km</desc>
<time>2010-02-24T17:57:59.85</time>
<name>3093</name>
</trkpt>
<trkpt lat="48.935095" lon="8.661015">
<ele>284.0</ele>
<speed>0.8</speed>
<course>7.4</course>
<desc>Speed 0.8 km/h Distance 3.46 km</desc>
<time>2010-02-24T17:58:00.85</time>
<name>3094</name>
</trkpt>
<trkpt lat="48.935102" lon="8.661017">
<ele>283.5</ele>
<speed>0.7</speed>
<course>4.7</course>
<desc>Speed 0.7 km/h Distance 3.46 km</desc>
<time>2010-02-24T17:58:01.85</time>
<name>3095</name>
</trkpt>
<trkpt lat="48.935113" lon="8.661018">
<ele>283.5</ele>
<speed>0.4</speed>
<course>90.0</course>
<desc>Speed 0.4 km/h Distance 3.46 km</desc>
<time>2010-02-24T17:58:02.85</time>
<name>3096</name>
</trkpt>
<trkpt lat="48.935113" lon="8.661023">
<ele>283.0</ele>
<speed>0.7</speed>
<course>140.6</course>
<desc>Speed 0.7 km/h Distance 3.46 km</desc>
<time>2010-02-24T17:58:03.85</time>
<name>3097</name>
</trkpt>
<trkpt lat="48.935107" lon="8.661032">
<ele>282.5</ele>
<speed>3.7</speed>
<course>37.2</course>
<desc>Speed 3.7 km/h Distance 3.46 km</desc>
<time>2010-02-24T17:58:04.85</time>
<name>3098</name>
</trkpt>
<trkpt lat="48.935108" lon="8.661033">
<ele>282.5</ele>
<speed>1.9</speed>
<course>45.5</course>
<desc>Speed 1.9 km/h Distance 3.46 km</desc>
<time>2010-02-24T17:58:05.85</time>
<name>3099</name>
</trkpt>
<trkpt lat="48.935112" lon="8.661038">
<ele>282.5</ele>
<speed>2.7</speed>
<course>16.0</course>
<desc>Speed 2.7 km/h Distance 3.46 km</desc>
<time>2010-02-24T17:58:06.85</time>
<name>3100</name>
</trkpt>
<trkpt lat="48.935123" lon="8.661043">
<ele>282.0</ele>
<speed>1.7</speed>
<course>13.6</course>
<desc>Speed 1.7 km/h Distance 3.46 km</desc>
<time>2010-02-24T17:58:07.85</time>
<name>3101</name>
</trkpt>
<trkpt lat="48.935142" lon="8.661050">
<ele>281.5</ele>
<speed>1.0</speed>
<course>21.0</course>
<desc>Speed 1.0 km/h Distance 3.47 km</desc>
<time>2010-02-24T17:58:08.85</time>
<name>3102</name>
</trkpt>
<trkpt lat="48.935162" lon="8.661062">
<ele>280.0</ele>
<speed>4.2</speed>
<course>54.3</course>
<desc>Speed 4.2 km/h Distance 3.47 km</desc>
<time>2010-02-24T17:58:09.97</time>
<name>3103</name>
</trkpt>
<trkpt lat="48.935190" lon="8.661122">
<ele>285.0</ele>
<speed>1.7</speed>
<course>38.1</course>
<desc>Speed 1.7 km/h Distance 3.47 km</desc>
<time>2010-02-24T17:58:11.93</time>
<name>3104</name>
</trkpt>
<trkpt lat="48.935198" lon="8.661132">
<ele>283.0</ele>
<speed>3.2</speed>
<course>44.5</course>
<desc>Speed 3.2 km/h Distance 3.48 km</desc>
<time>2010-02-24T17:58:12.93</time>
<name>3105</name>
</trkpt>
<trkpt lat="48.935208" lon="8.661147">
<ele>280.5</ele>
<speed>3.3</speed>
<course>24.7</course>
<desc>Speed 3.3 km/h Distance 3.48 km</desc>
<time>2010-02-24T17:58:13.93</time>
<name>3106</name>
</trkpt>
<trkpt lat="48.935225" lon="8.661158">
<ele>281.5</ele>
<speed>3.3</speed>
<course>132.6</course>
<desc>Speed 3.3 km/h Distance 3.48 km</desc>
<time>2010-02-24T17:58:14.93</time>
<name>3107</name>
</trkpt>
<trkpt lat="48.935220" lon="8.661167">
<ele>281.0</ele>
<speed>3.0</speed>
<course>40.9</course>
<desc>Speed 3.0 km/h Distance 3.48 km</desc>
<time>2010-02-24T17:58:15.93</time>
<name>3108</name>
</trkpt>
<trkpt lat="48.935225" lon="8.661173">
<ele>280.5</ele>
<speed>2.7</speed>
<course>28.3</course>
<desc>Speed 2.7 km/h Distance 3.48 km</desc>
<time>2010-02-24T17:58:16.93</time>
<name>3109</name>
</trkpt>
<trkpt lat="48.935233" lon="8.661180">
<ele>281.0</ele>
<speed>2.8</speed>
<course>27.2</course>
<desc>Speed 2.8 km/h Distance 3.48 km</desc>
<time>2010-02-24T17:58:17.93</time>
<name>3110</name>
</trkpt>
<trkpt lat="48.935248" lon="8.661192">
<ele>280.5</ele>
<speed>2.7</speed>
<course>72.9</course>
<desc>Speed 2.7 km/h Distance 3.48 km</desc>
<time>2010-02-24T17:58:18.93</time>
<name>3111</name>
</trkpt>
<trkpt lat="48.935250" lon="8.661200">
<ele>280.0</ele>
<speed>3.8</speed>
<course>38.2</course>
<desc>Speed 3.8 km/h Distance 3.48 km</desc>
<time>2010-02-24T17:58:19.93</time>
<name>3112</name>
</trkpt>
<trkpt lat="48.935267" lon="8.661220">
<ele>284.5</ele>
<speed>3.6</speed>
<course>18.1</course>
<desc>Speed 3.6 km/h Distance 3.49 km</desc>
<time>2010-02-24T17:58:20.93</time>
<name>3113</name>
</trkpt>
<trkpt lat="48.935280" lon="8.661227">
<ele>284.0</ele>
<speed>3.3</speed>
<course>135.5</course>
<desc>Speed 3.3 km/h Distance 3.49 km</desc>
<time>2010-02-24T17:58:21.93</time>
<name>3114</name>
</trkpt>
<trkpt lat="48.935277" lon="8.661232">
<ele>283.5</ele>
<speed>3.1</speed>
<course>90.0</course>
<desc>Speed 3.1 km/h Distance 3.49 km</desc>
<time>2010-02-24T17:58:22.93</time>
<name>3115</name>
</trkpt>
<trkpt lat="48.935277" lon="8.661238">
<ele>283.0</ele>
<speed>2.8</speed>
<course>23.8</course>
<desc>Speed 2.8 km/h Distance 3.49 km</desc>
<time>2010-02-24T17:58:23.93</time>
<name>3116</name>
</trkpt>
<trkpt lat="48.935287" lon="8.661245">
<ele>284.0</ele>
<speed>0.2</speed>
<course>69.1</course>
<desc>Speed 0.2 km/h Distance 3.49 km</desc>
<time>2010-02-24T17:58:24.93</time>
<name>3117</name>
</trkpt>
<trkpt lat="48.935288" lon="8.661252">
<ele>284.5</ele>
<speed>0.7</speed>
<course>52.7</course>
<desc>Speed 0.7 km/h Distance 3.49 km</desc>
<time>2010-02-24T17:58:25.93</time>
<name>3118</name>
</trkpt>
<trkpt lat="48.935295" lon="8.661265">
<ele>285.5</ele>
<speed>2.0</speed>
<course>104.2</course>
<desc>Speed 2.0 km/h Distance 3.49 km</desc>
<time>2010-02-24T17:58:26.93</time>
<name>3119</name>
</trkpt>
<trkpt lat="48.935292" lon="8.661285">
<ele>287.5</ele>
<speed>1.9</speed>
<course>117.4</course>
<desc>Speed 1.9 km/h Distance 3.49 km</desc>
<time>2010-02-24T17:58:27.93</time>
<name>3120</name>
</trkpt>
<trkpt lat="48.935290" lon="8.661290">
<ele>288.5</ele>
<speed>0.7</speed>
<course>37.2</course>
<desc>Speed 0.7 km/h Distance 3.49 km</desc>
<time>2010-02-24T17:58:28.93</time>
<name>3121</name>
</trkpt>
<trkpt lat="48.935292" lon="8.661292">
<ele>288.0</ele>
<speed>0.3</speed>
<course>22.2</course>
<desc>Speed 0.3 km/h Distance 3.49 km</desc>
<time>2010-02-24T17:58:29.93</time>
<name>3122</name>
</trkpt>
<trkpt lat="48.935297" lon="8.661295">
<ele>288.5</ele>
<speed>0.1</speed>
<course>21.5</course>
<desc>Speed 0.1 km/h Distance 3.50 km</desc>
<time>2010-02-24T17:58:30.93</time>
<name>3123</name>
</trkpt>
<trkpt lat="48.935305" lon="8.661300">
<ele>290.0</ele>
<speed>0.4</speed>
<course>352.6</course>
<desc>Speed 0.4 km/h Distance 3.50 km</desc>
<time>2010-02-24T17:58:31.93</time>
<name>3124</name>
</trkpt>
<trkpt lat="48.935312" lon="8.661298">
<ele>289.5</ele>
<speed>1.8</speed>
<course>12.6</course>
<desc>Speed 1.8 km/h Distance 3.50 km</desc>
<time>2010-02-24T17:58:32.93</time>
<name>3125</name>
</trkpt>
<trkpt lat="48.935315" lon="8.661298">
<ele>289.5</ele>
<speed>0.2</speed>
<course>90.0</course>
<desc>Speed 0.2 km/h Distance 3.50 km</desc>
<time>2010-02-24T17:58:34.11</time>
<name>3126</name>
</trkpt>
<trkpt lat="48.935315" lon="8.661300">
<ele>289.5</ele>
<speed>0.9</speed>
<course>90.0</course>
<desc>Speed 0.9 km/h Distance 3.50 km</desc>
<time>2010-02-24T17:58:34.94</time>
<name>3127</name>
</trkpt>
<trkpt lat="48.935315" lon="8.661302">
<ele>290.0</ele>
<speed>0.4</speed>
<course>62.6</course>
<desc>Speed 0.4 km/h Distance 3.50 km</desc>
<time>2010-02-24T17:58:35.94</time>
<name>3128</name>
</trkpt>
<trkpt lat="48.935317" lon="8.661307">
<ele>290.0</ele>
<speed>0.2</speed>
<course>42.6</course>
<desc>Speed 0.2 km/h Distance 3.50 km</desc>
<time>2010-02-24T17:58:36.96</time>
<name>3129</name>
</trkpt>
<trkpt lat="48.935325" lon="8.661318">
<ele>292.0</ele>
<speed>1.5</speed>
<course>47.8</course>
<desc>Speed 1.5 km/h Distance 3.50 km</desc>
<time>2010-02-24T17:58:37.94</time>
<name>3130</name>
</trkpt>
<trkpt lat="48.935330" lon="8.661327">
<ele>294.0</ele>
<speed>0.9</speed>
<course>38.1</course>
<desc>Speed 0.9 km/h Distance 3.50 km</desc>
<time>2010-02-24T17:58:38.94</time>
<name>3131</name>
</trkpt>
<trkpt lat="48.935338" lon="8.661337">
<ele>296.0</ele>
<speed>0.1</speed>
<course>36.9</course>
<desc>Speed 0.1 km/h Distance 3.50 km</desc>
<time>2010-02-24T17:58:39.94</time>
<name>3132</name>
</trkpt>
<trkpt lat="48.935350" lon="8.661350">
<ele>299.0</ele>
<speed>0.3</speed>
<course>29.2</course>
<desc>Speed 0.3 km/h Distance 3.50 km</desc>
<time>2010-02-24T17:58:40.94</time>
<name>3133</name>
</trkpt>
<trkpt lat="48.935352" lon="8.661352">
<ele>299.5</ele>
<speed>0.1</speed>
<course>37.2</course>
<desc>Speed 0.1 km/h Distance 3.50 km</desc>
<time>2010-02-24T17:58:41.94</time>
<name>3134</name>
</trkpt>
<trkpt lat="48.935353" lon="8.661353">
<ele>300.0</ele>
<speed>0.3</speed>
<course>51.9</course>
<desc>Speed 0.3 km/h Distance 3.50 km</desc>
<time>2010-02-24T17:58:43.12</time>
<name>3135</name>
</trkpt>
<trkpt lat="48.935355" lon="8.661357">
<ele>300.0</ele>
<speed>0.3</speed>
<course>29.2</course>
<desc>Speed 0.3 km/h Distance 3.50 km</desc>
<time>2010-02-24T17:58:44.01</time>
<name>3136</name>
</trkpt>
<trkpt lat="48.935357" lon="8.661358">
<ele>300.5</ele>
<speed>0.5</speed>
<course>12.6</course>
<desc>Speed 0.5 km/h Distance 3.50 km</desc>
<time>2010-02-24T17:58:44.97</time>
<name>3137</name>
</trkpt>
<trkpt lat="48.935360" lon="8.661360">
<ele>301.0</ele>
<speed>0.3</speed>
<course>0.0</course>
<desc>Speed 0.3 km/h Distance 3.50 km</desc>
<time>2010-02-24T17:58:45.97</time>
<name>3138</name>
</trkpt>
<trkpt lat="48.935363" lon="8.661360">
<ele>301.5</ele>
<speed>0.2</speed>
<course>26.4</course>
<desc>Speed 0.2 km/h Distance 3.50 km</desc>
<time>2010-02-24T17:58:46.99</time>
<name>3139</name>
</trkpt>
<trkpt lat="48.935370" lon="8.661365">
<ele>302.5</ele>
<speed>1.0</speed>
<course>33.2</course>
<desc>Speed 1.0 km/h Distance 3.51 km</desc>
<time>2010-02-24T17:58:47.97</time>
<name>3140</name>
</trkpt>
<trkpt lat="48.935380" lon="8.661375">
<ele>305.0</ele>
<speed>1.2</speed>
<course>11.6</course>
<desc>Speed 1.2 km/h Distance 3.51 km</desc>
<time>2010-02-24T17:58:48.97</time>
<name>3141</name>
</trkpt>
<trkpt lat="48.935390" lon="8.661378">
<ele>306.0</ele>
<speed>0.8</speed>
<course>12.6</course>
<desc>Speed 0.8 km/h Distance 3.51 km</desc>
<time>2010-02-24T17:58:49.97</time>
<name>3142</name>
</trkpt>
<trkpt lat="48.935395" lon="8.661380">
<ele>306.5</ele>
<speed>0.1</speed>
<course>128.1</course>
<desc>Speed 0.1 km/h Distance 3.51 km</desc>
<time>2010-02-24T17:58:50.98</time>
<name>3143</name>
</trkpt>
<trkpt lat="48.935393" lon="8.661383">
<ele>306.5</ele>
<speed>0.3</speed>
<course>12.6</course>
<desc>Speed 0.3 km/h Distance 3.51 km</desc>
<time>2010-02-24T17:58:51.99</time>
<name>3144</name>
</trkpt>
<trkpt lat="48.935395" lon="8.661383">
<ele>306.5</ele>
<speed>0.3</speed>
<course>44.5</course>
<desc>Speed 0.3 km/h Distance 3.51 km</desc>
<time>2010-02-24T17:58:52.99</time>
<name>3145</name>
</trkpt>
<trkpt lat="48.935398" lon="8.661388">
<ele>307.0</ele>
<speed>0.5</speed>
<course>51.9</course>
<desc>Speed 0.5 km/h Distance 3.51 km</desc>
<time>2010-02-24T17:58:53.99</time>
<name>3146</name>
</trkpt>
<trkpt lat="48.935400" lon="8.661392">
<ele>307.0</ele>
<speed>1.2</speed>
<course>40.9</course>
<desc>Speed 1.2 km/h Distance 3.51 km</desc>
<time>2010-02-24T17:58:54.99</time>
<name>3147</name>
</trkpt>
<trkpt lat="48.935405" lon="8.661398">
<ele>307.5</ele>
<speed>0.9</speed>
<course>12.6</course>
<desc>Speed 0.9 km/h Distance 3.51 km</desc>
<time>2010-02-24T17:58:55.99</time>
<name>3148</name>
</trkpt>
<trkpt lat="48.935408" lon="8.661400">
<ele>307.5</ele>
<speed>0.3</speed>
<course>41.9</course>
<desc>Speed 0.3 km/h Distance 3.51 km</desc>
<time>2010-02-24T17:58:57.01</time>
<name>3149</name>
</trkpt>
<trkpt lat="48.935413" lon="8.661407">
<ele>307.5</ele>
<speed>1.0</speed>
<course>15.5</course>
<desc>Speed 1.0 km/h Distance 3.51 km</desc>
<time>2010-02-24T17:58:58.02</time>
<name>3150</name>
</trkpt>
<trkpt lat="48.935425" lon="8.661412">
<ele>308.0</ele>
<speed>0.3</speed>
<course>90.0</course>
<desc>Speed 0.3 km/h Distance 3.51 km</desc>
<time>2010-02-24T17:58:59.02</time>
<name>3151</name>
</trkpt>
<trkpt lat="48.935425" lon="8.661417">
<ele>307.5</ele>
<speed>0.7</speed>
<course>147.7</course>
<desc>Speed 0.7 km/h Distance 3.51 km</desc>
<time>2010-02-24T17:59:00.02</time>
<name>3152</name>
</trkpt>
<trkpt lat="48.935420" lon="8.661422">
<ele>309.5</ele>
<speed>2.8</speed>
<course>18.2</course>
<desc>Speed 2.8 km/h Distance 3.51 km</desc>
<time>2010-02-24T17:59:01.02</time>
<name>3153</name>
</trkpt>
<trkpt lat="48.935430" lon="8.661427">
<ele>309.5</ele>
<speed>6.0</speed>
<course>37.2</course>
<desc>Speed 6.0 km/h Distance 3.52 km</desc>
<time>2010-02-24T17:59:02.02</time>
<name>3154</name>
</trkpt>
<trkpt lat="48.935432" lon="8.661428">
<ele>310.0</ele>
<speed>0.3</speed>
<course>12.6</course>
<desc>Speed 0.3 km/h Distance 3.52 km</desc>
<time>2010-02-24T17:59:03.02</time>
<name>3155</name>
</trkpt>
<trkpt lat="48.935437" lon="8.661430">
<ele>310.0</ele>
<speed>1.8</speed>
<course>133.6</course>
<desc>Speed 1.8 km/h Distance 3.52 km</desc>
<time>2010-02-24T17:59:04.02</time>
<name>3156</name>
</trkpt>
<trkpt lat="48.935428" lon="8.661443">
<ele>310.5</ele>
<speed>3.7</speed>
<course>37.2</course>
<desc>Speed 3.7 km/h Distance 3.52 km</desc>
<time>2010-02-24T17:59:05.02</time>
<name>3157</name>
</trkpt>
<trkpt lat="48.935430" lon="8.661445">
<ele>310.5</ele>
<speed>0.3</speed>
<course>90.0</course>
<desc>Speed 0.3 km/h Distance 3.52 km</desc>
<time>2010-02-24T17:59:06.02</time>
<name>3158</name>
</trkpt>
<trkpt lat="48.935430" lon="8.661447">
<ele>310.5</ele>
<speed>0.3</speed>
<course>37.2</course>
<desc>Speed 0.3 km/h Distance 3.52 km</desc>
<time>2010-02-24T17:59:07.02</time>
<name>3159</name>
</trkpt>
<trkpt lat="48.935432" lon="8.661448">
<ele>311.0</ele>
<speed>0.2</speed>
<course>167.4</course>
<desc>Speed 0.2 km/h Distance 3.52 km</desc>
<time>2010-02-24T17:59:08.02</time>
<name>3160</name>
</trkpt>
<trkpt lat="48.935430" lon="8.661448">
<ele>311.0</ele>
<speed>0.6</speed>
<course>297.4</course>
<desc>Speed 0.6 km/h Distance 3.52 km</desc>
<time>2010-02-24T17:59:09.02</time>
<name>3161</name>
</trkpt>
<trkpt lat="48.935432" lon="8.661443">
<ele>311.0</ele>
<speed>1.9</speed>
<course>12.6</course>
<desc>Speed 1.9 km/h Distance 3.52 km</desc>
<time>2010-02-24T17:59:10.02</time>
<name>3162</name>
</trkpt>
<trkpt lat="48.935435" lon="8.661443">
<ele>311.0</ele>
<speed>1.7</speed>
<course>51.9</course>
<desc>Speed 1.7 km/h Distance 3.52 km</desc>
<time>2010-02-24T17:59:11.02</time>
<name>3163</name>
</trkpt>
<trkpt lat="48.935437" lon="8.661447">
<ele>311.0</ele>
<speed>1.0</speed>
<course>12.6</course>
<desc>Speed 1.0 km/h Distance 3.52 km</desc>
<time>2010-02-24T17:59:12.02</time>
<name>3164</name>
</trkpt>
<trkpt lat="48.935442" lon="8.661448">
<ele>311.5</ele>
<speed>1.4</speed>
<course>66.4</course>
<desc>Speed 1.4 km/h Distance 3.52 km</desc>
<time>2010-02-24T17:59:13.02</time>
<name>3165</name>
</trkpt>
<trkpt lat="48.935445" lon="8.661460">
<ele>310.0</ele>
<speed>2.1</speed>
<course>31.6</course>
<desc>Speed 2.1 km/h Distance 3.52 km</desc>
<time>2010-02-24T17:59:14.02</time>
<name>3166</name>
</trkpt>
<trkpt lat="48.935448" lon="8.661463">
<ele>310.5</ele>
<speed>1.3</speed>
<course>21.5</course>
<desc>Speed 1.3 km/h Distance 3.52 km</desc>
<time>2010-02-24T17:59:15.02</time>
<name>3167</name>
</trkpt>
<trkpt lat="48.935457" lon="8.661468">
<ele>310.0</ele>
<speed>2.0</speed>
<course>22.2</course>
<desc>Speed 2.0 km/h Distance 3.52 km</desc>
<time>2010-02-24T17:59:16.02</time>
<name>3168</name>
</trkpt>
<trkpt lat="48.935462" lon="8.661472">
<ele>310.0</ele>
<speed>2.0</speed>
<course>32.3</course>
<desc>Speed 2.0 km/h Distance 3.52 km</desc>
<time>2010-02-24T17:59:17.02</time>
<name>3169</name>
</trkpt>
<trkpt lat="48.935467" lon="8.661477">
<ele>310.5</ele>
<speed>0.5</speed>
<course>49.1</course>
<desc>Speed 0.5 km/h Distance 3.52 km</desc>
<time>2010-02-24T17:59:18.02</time>
<name>3170</name>
</trkpt>
<trkpt lat="48.935473" lon="8.661488">
<ele>311.0</ele>
<speed>0.4</speed>
<course>75.6</course>
<desc>Speed 0.4 km/h Distance 3.52 km</desc>
<time>2010-02-24T17:59:19.02</time>
<name>3171</name>
</trkpt>
<trkpt lat="48.935475" lon="8.661498">
<ele>311.5</ele>
<speed>0.4</speed>
<course>270.0</course>
<desc>Speed 0.4 km/h Distance 3.53 km</desc>
<time>2010-02-24T17:59:20.02</time>
<name>3172</name>
</trkpt>
<trkpt lat="48.935475" lon="8.661497">
<ele>311.5</ele>
<speed>0.9</speed>
<course>213.2</course>
<desc>Speed 0.9 km/h Distance 3.53 km</desc>
<time>2010-02-24T17:59:21.02</time>
<name>3173</name>
</trkpt>
<trkpt lat="48.935470" lon="8.661492">
<ele>311.5</ele>
<speed>3.2</speed>
<course>90.0</course>
<desc>Speed 3.2 km/h Distance 3.53 km</desc>
<time>2010-02-24T17:59:22.02</time>
<name>3174</name>
</trkpt>
<trkpt lat="48.935470" lon="8.661493">
<ele>311.5</ele>
<speed>0.3</speed>
<course>180.0</course>
<desc>Speed 0.3 km/h Distance 3.53 km</desc>
<time>2010-02-24T17:59:23.02</time>
<name>3175</name>
</trkpt>
<trkpt lat="48.935468" lon="8.661493">
<ele>312.0</ele>
<speed>0.4</speed>
<course>90.0</course>
<desc>Speed 0.4 km/h Distance 3.53 km</desc>
<time>2010-02-24T17:59:24.02</time>
<name>3176</name>
</trkpt>
<trkpt lat="48.935468" lon="8.661497">
<ele>312.0</ele>
<speed>0.4</speed>
<course>200.6</course>
<desc>Speed 0.4 km/h Distance 3.53 km</desc>
<time>2010-02-24T17:59:25.02</time>
<name>3177</name>
</trkpt>
<trkpt lat="48.935457" lon="8.661490">
<ele>312.5</ele>
<speed>0.8</speed>
<course>72.9</course>
<desc>Speed 0.8 km/h Distance 3.53 km</desc>
<time>2010-02-24T17:59:26.02</time>
<name>3178</name>
</trkpt>
<trkpt lat="48.935458" lon="8.661498">
<ele>313.5</ele>
<speed>0.1</speed>
<course>231.9</course>
<desc>Speed 0.1 km/h Distance 3.53 km</desc>
<time>2010-02-24T17:59:27.02</time>
<name>3179</name>
</trkpt>
<trkpt lat="48.935457" lon="8.661495">
<ele>313.5</ele>
<speed>0.4</speed>
<course>0.0</course>
<desc>Speed 0.4 km/h Distance 3.53 km</desc>
<time>2010-02-24T17:59:28.02</time>
<name>3180</name>
</trkpt>
<trkpt lat="48.935458" lon="8.661495">
<ele>313.5</ele>
<speed>0.7</speed>
<course>270.0</course>
<desc>Speed 0.7 km/h Distance 3.53 km</desc>
<time>2010-02-24T17:59:29.02</time>
<name>3181</name>
</trkpt>
<trkpt lat="48.935458" lon="8.661493">
<ele>313.5</ele>
<speed>0.7</speed>
<course>297.4</course>
<desc>Speed 0.7 km/h Distance 3.53 km</desc>
<time>2010-02-24T17:59:30.02</time>
<name>3182</name>
</trkpt>
<trkpt lat="48.935460" lon="8.661488">
<ele>313.5</ele>
<speed>0.3</speed>
<course>279.6</course>
<desc>Speed 0.3 km/h Distance 3.53 km</desc>
<time>2010-02-24T17:59:31.15</time>
<name>3183</name>
</trkpt>
<trkpt lat="48.935462" lon="8.661473">
<ele>314.0</ele>
<speed>0.2</speed>
<course>293.6</course>
<desc>Speed 0.2 km/h Distance 3.53 km</desc>
<time>2010-02-24T17:59:32.04</time>
<name>3184</name>
</trkpt>
<trkpt lat="48.935465" lon="8.661462">
<ele>314.5</ele>
<speed>0.4</speed>
<course>308.1</course>
<desc>Speed 0.4 km/h Distance 3.53 km</desc>
<time>2010-02-24T17:59:33.04</time>
<name>3185</name>
</trkpt>
<trkpt lat="48.935467" lon="8.661458">
<ele>314.5</ele>
<speed>0.5</speed>
<course>296.6</course>
<desc>Speed 0.5 km/h Distance 3.53 km</desc>
<time>2010-02-24T17:59:34.04</time>
<name>3186</name>
</trkpt>
<trkpt lat="48.935468" lon="8.661453">
<ele>314.5</ele>
<speed>0.5</speed>
<course>312.6</course>
<desc>Speed 0.5 km/h Distance 3.53 km</desc>
<time>2010-02-24T17:59:35.04</time>
<name>3187</name>
</trkpt>
<trkpt lat="48.935473" lon="8.661445">
<ele>314.5</ele>
<speed>1.5</speed>
<course>307.6</course>
<desc>Speed 1.5 km/h Distance 3.53 km</desc>
<time>2010-02-24T17:59:36.04</time>
<name>3188</name>
</trkpt>
<trkpt lat="48.935477" lon="8.661438">
<ele>314.5</ele>
<speed>1.4</speed>
<course>290.9</course>
<desc>Speed 1.4 km/h Distance 3.53 km</desc>
<time>2010-02-24T17:59:37.04</time>
<name>3189</name>
</trkpt>
<trkpt lat="48.935478" lon="8.661432">
<ele>314.5</ele>
<speed>1.6</speed>
<course>347.4</course>
<desc>Speed 1.6 km/h Distance 3.53 km</desc>
<time>2010-02-24T17:59:38.04</time>
<name>3190</name>
</trkpt>
<trkpt lat="48.935483" lon="8.661430">
<ele>314.5</ele>
<speed>1.3</speed>
<course>334.6</course>
<desc>Speed 1.3 km/h Distance 3.54 km</desc>
<time>2010-02-24T17:59:39.04</time>
<name>3191</name>
</trkpt>
<trkpt lat="48.935488" lon="8.661427">
<ele>313.0</ele>
<speed>2.3</speed>
<course>350.4</course>
<desc>Speed 2.3 km/h Distance 3.54 km</desc>
<time>2010-02-24T17:59:40.04</time>
<name>3192</name>
</trkpt>
<trkpt lat="48.935497" lon="8.661425">
<ele>312.5</ele>
<speed>3.3</speed>
<course>9.6</course>
<desc>Speed 3.3 km/h Distance 3.54 km</desc>
<time>2010-02-24T17:59:41.04</time>
<name>3193</name>
</trkpt>
<trkpt lat="48.935505" lon="8.661427">
<ele>312.0</ele>
<speed>2.4</speed>
<course>14.9</course>
<desc>Speed 2.4 km/h Distance 3.54 km</desc>
<time>2010-02-24T17:59:42.04</time>
<name>3194</name>
</trkpt>
<trkpt lat="48.935513" lon="8.661430">
<ele>311.0</ele>
<speed>2.6</speed>
<course>18.2</course>
<desc>Speed 2.6 km/h Distance 3.54 km</desc>
<time>2010-02-24T17:59:43.04</time>
<name>3195</name>
</trkpt>
<trkpt lat="48.935523" lon="8.661435">
<ele>310.5</ele>
<speed>3.0</speed>
<course>27.5</course>
<desc>Speed 3.0 km/h Distance 3.54 km</desc>
<time>2010-02-24T17:59:44.04</time>
<name>3196</name>
</trkpt>
<trkpt lat="48.935532" lon="8.661442">
<ele>310.0</ele>
<speed>1.7</speed>
<course>29.8</course>
<desc>Speed 1.7 km/h Distance 3.54 km</desc>
<time>2010-02-24T17:59:45.04</time>
<name>3197</name>
</trkpt>
<trkpt lat="48.935545" lon="8.661453">
<ele>309.0</ele>
<speed>2.9</speed>
<course>48.7</course>
<desc>Speed 2.9 km/h Distance 3.54 km</desc>
<time>2010-02-24T17:59:46.04</time>
<name>3198</name>
</trkpt>
<trkpt lat="48.935552" lon="8.661465">
<ele>309.0</ele>
<speed>1.8</speed>
<course>33.2</course>
<desc>Speed 1.8 km/h Distance 3.54 km</desc>
<time>2010-02-24T17:59:47.04</time>
<name>3199</name>
</trkpt>
<trkpt lat="48.935562" lon="8.661475">
<ele>309.0</ele>
<speed>2.2</speed>
<course>12.6</course>
<desc>Speed 2.2 km/h Distance 3.54 km</desc>
<time>2010-02-24T17:59:48.04</time>
<name>3200</name>
</trkpt>
<trkpt lat="48.935572" lon="8.661478">
<ele>308.5</ele>
<speed>3.0</speed>
<course>9.5</course>
<desc>Speed 3.0 km/h Distance 3.55 km</desc>
<time>2010-02-24T17:59:49.04</time>
<name>3201</name>
</trkpt>
<trkpt lat="48.935583" lon="8.661482">
<ele>307.5</ele>
<speed>3.1</speed>
<course>32.3</course>
<desc>Speed 3.1 km/h Distance 3.55 km</desc>
<time>2010-02-24T17:59:50.04</time>
<name>3202</name>
</trkpt>
<trkpt lat="48.935588" lon="8.661487">
<ele>306.5</ele>
<speed>1.7</speed>
<course>180.0</course>
<desc>Speed 1.7 km/h Distance 3.55 km</desc>
<time>2010-02-24T17:59:51.04</time>
<name>3203</name>
</trkpt>
<trkpt lat="48.935583" lon="8.661487">
<ele>306.5</ele>
<speed>2.8</speed>
<course>28.6</course>
<desc>Speed 2.8 km/h Distance 3.55 km</desc>
<time>2010-02-24T17:59:52.03</time>
<name>3204</name>
</trkpt>
<trkpt lat="48.935593" lon="8.661495">
<ele>306.0</ele>
<speed>2.0</speed>
<course>10.3</course>
<desc>Speed 2.0 km/h Distance 3.55 km</desc>
<time>2010-02-24T17:59:53.04</time>
<name>3205</name>
</trkpt>
<trkpt lat="48.935600" lon="8.661497">
<ele>305.0</ele>
<speed>1.1</speed>
<course>13.8</course>
<desc>Speed 1.1 km/h Distance 3.55 km</desc>
<time>2010-02-24T17:59:54.04</time>
<name>3206</name>
</trkpt>
<trkpt lat="48.935608" lon="8.661500">
<ele>304.0</ele>
<speed>1.5</speed>
<course>33.2</course>
<desc>Speed 1.5 km/h Distance 3.55 km</desc>
<time>2010-02-24T17:59:55.04</time>
<name>3207</name>
</trkpt>
<trkpt lat="48.935615" lon="8.661507">
<ele>303.5</ele>
<speed>2.2</speed>
<course>33.2</course>
<desc>Speed 2.2 km/h Distance 3.55 km</desc>
<time>2010-02-24T17:59:56.04</time>
<name>3208</name>
</trkpt>
<trkpt lat="48.935623" lon="8.661515">
<ele>303.0</ele>
<speed>3.3</speed>
<course>58.6</course>
<desc>Speed 3.3 km/h Distance 3.55 km</desc>
<time>2010-02-24T17:59:57.04</time>
<name>3209</name>
</trkpt>
<trkpt lat="48.935627" lon="8.661523">
<ele>302.0</ele>
<speed>1.0</speed>
<course>33.7</course>
<desc>Speed 1.0 km/h Distance 3.55 km</desc>
<time>2010-02-24T17:59:58.04</time>
<name>3210</name>
</trkpt>
<trkpt lat="48.935633" lon="8.661530">
<ele>300.5</ele>
<speed>1.5</speed>
<course>26.4</course>
<desc>Speed 1.5 km/h Distance 3.56 km</desc>
<time>2010-02-24T17:59:59.04</time>
<name>3211</name>
</trkpt>
<trkpt lat="48.935647" lon="8.661540">
<ele>300.0</ele>
<speed>3.2</speed>
<course>22.2</course>
<desc>Speed 3.2 km/h Distance 3.56 km</desc>
<time>2010-02-24T18:00:00.04</time>
<name>3212</name>
</trkpt>
<trkpt lat="48.935652" lon="8.661543">
<ele>299.0</ele>
<speed>2.1</speed>
<course>33.2</course>
<desc>Speed 2.1 km/h Distance 3.56 km</desc>
<time>2010-02-24T18:00:01.04</time>
<name>3213</name>
</trkpt>
<trkpt lat="48.935658" lon="8.661550">
<ele>297.5</ele>
<speed>2.3</speed>
<course>33.7</course>
<desc>Speed 2.3 km/h Distance 3.56 km</desc>
<time>2010-02-24T18:00:02.04</time>
<name>3214</name>
</trkpt>
<trkpt lat="48.935665" lon="8.661557">
<ele>297.0</ele>
<speed>2.7</speed>
<course>23.7</course>
<desc>Speed 2.7 km/h Distance 3.56 km</desc>
<time>2010-02-24T18:00:03.04</time>
<name>3215</name>
</trkpt>
<trkpt lat="48.935680" lon="8.661567">
<ele>297.0</ele>
<speed>2.9</speed>
<course>33.1</course>
<desc>Speed 2.9 km/h Distance 3.56 km</desc>
<time>2010-02-24T18:00:04.04</time>
<name>3216</name>
</trkpt>
<trkpt lat="48.935692" lon="8.661578">
<ele>297.0</ele>
<speed>3.4</speed>
<course>22.6</course>
<desc>Speed 3.4 km/h Distance 3.56 km</desc>
<time>2010-02-24T18:00:05.04</time>
<name>3217</name>
</trkpt>
<trkpt lat="48.935710" lon="8.661590">
<ele>298.0</ele>
<speed>3.9</speed>
<course>18.1</course>
<desc>Speed 3.9 km/h Distance 3.56 km</desc>
<time>2010-02-24T18:00:06.04</time>
<name>3218</name>
</trkpt>
<trkpt lat="48.935723" lon="8.661597">
<ele>298.0</ele>
<speed>3.7</speed>
<course>20.1</course>
<desc>Speed 3.7 km/h Distance 3.57 km</desc>
<time>2010-02-24T18:00:07.04</time>
<name>3219</name>
</trkpt>
<trkpt lat="48.935738" lon="8.661605">
<ele>298.0</ele>
<speed>3.2</speed>
<course>18.1</course>
<desc>Speed 3.2 km/h Distance 3.57 km</desc>
<time>2010-02-24T18:00:08.04</time>
<name>3220</name>
</trkpt>
<trkpt lat="48.935752" lon="8.661612">
<ele>298.0</ele>
<speed>3.0</speed>
<course>9.7</course>
<desc>Speed 3.0 km/h Distance 3.57 km</desc>
<time>2010-02-24T18:00:09.04</time>
<name>3221</name>
</trkpt>
<trkpt lat="48.935765" lon="8.661615">
<ele>297.5</ele>
<speed>3.7</speed>
<course>25.2</course>
<desc>Speed 3.7 km/h Distance 3.57 km</desc>
<time>2010-02-24T18:00:10.04</time>
<name>3222</name>
</trkpt>
<trkpt lat="48.935777" lon="8.661623">
<ele>297.5</ele>
<speed>3.1</speed>
<course>44.3</course>
<desc>Speed 3.1 km/h Distance 3.57 km</desc>
<time>2010-02-24T18:00:11.04</time>
<name>3223</name>
</trkpt>
<trkpt lat="48.935783" lon="8.661633">
<ele>297.5</ele>
<speed>2.9</speed>
<course>33.2</course>
<desc>Speed 2.9 km/h Distance 3.57 km</desc>
<time>2010-02-24T18:00:12.04</time>
<name>3224</name>
</trkpt>
<trkpt lat="48.935790" lon="8.661640">
<ele>297.0</ele>
<speed>2.5</speed>
<course>27.9</course>
<desc>Speed 2.5 km/h Distance 3.57 km</desc>
<time>2010-02-24T18:00:13.04</time>
<name>3225</name>
</trkpt>
<trkpt lat="48.935798" lon="8.661647">
<ele>296.5</ele>
<speed>2.5</speed>
<course>14.9</course>
<desc>Speed 2.5 km/h Distance 3.58 km</desc>
<time>2010-02-24T18:00:14.04</time>
<name>3226</name>
</trkpt>
<trkpt lat="48.935807" lon="8.661650">
<ele>296.0</ele>
<speed>2.2</speed>
<course>23.8</course>
<desc>Speed 2.2 km/h Distance 3.58 km</desc>
<time>2010-02-24T18:00:15.04</time>
<name>3227</name>
</trkpt>
<trkpt lat="48.935817" lon="8.661657">
<ele>296.0</ele>
<speed>3.1</speed>
<course>9.6</course>
<desc>Speed 3.1 km/h Distance 3.58 km</desc>
<time>2010-02-24T18:00:16.04</time>
<name>3228</name>
</trkpt>
<trkpt lat="48.935825" lon="8.661658">
<ele>295.5</ele>
<speed>2.2</speed>
<course>20.1</course>
<desc>Speed 2.2 km/h Distance 3.58 km</desc>
<time>2010-02-24T18:00:17.04</time>
<name>3229</name>
</trkpt>
<trkpt lat="48.935840" lon="8.661667">
<ele>297.0</ele>
<speed>5.8</speed>
<course>12.6</course>
<desc>Speed 5.8 km/h Distance 3.58 km</desc>
<time>2010-02-24T18:00:18.04</time>
<name>3230</name>
</trkpt>
<trkpt lat="48.935847" lon="8.661668">
<ele>297.0</ele>
<speed>2.4</speed>
<course>7.4</course>
<desc>Speed 2.4 km/h Distance 3.58 km</desc>
<time>2010-02-24T18:00:19.04</time>
<name>3231</name>
</trkpt>
<trkpt lat="48.935853" lon="8.661668">
<ele>296.5</ele>
<speed>1.9</speed>
<course>26.4</course>
<desc>Speed 1.9 km/h Distance 3.58 km</desc>
<time>2010-02-24T18:00:20.04</time>
<name>3232</name>
</trkpt>
<trkpt lat="48.935860" lon="8.661673">
<ele>296.5</ele>
<speed>1.5</speed>
<course>45.5</course>
<desc>Speed 1.5 km/h Distance 3.58 km</desc>
<time>2010-02-24T18:00:21.04</time>
<name>3233</name>
</trkpt>
<trkpt lat="48.935863" lon="8.661678">
<ele>296.5</ele>
<speed>1.5</speed>
<course>34.1</course>
<desc>Speed 1.5 km/h Distance 3.58 km</desc>
<time>2010-02-24T18:00:22.04</time>
<name>3234</name>
</trkpt>
<trkpt lat="48.935868" lon="8.661683">
<ele>296.5</ele>
<speed>2.3</speed>
<course>34.1</course>
<desc>Speed 2.3 km/h Distance 3.58 km</desc>
<time>2010-02-24T18:00:23.04</time>
<name>3235</name>
</trkpt>
<trkpt lat="48.935868" lon="8.661683">
<ele>295.0</ele>
<speed>0.8</speed>
<course>7.4</course>
<desc>Speed 0.8 km/h Distance 3.58 km</desc>
<time>2010-02-24T18:00:24.04</time>
<name>3236</name>
</trkpt>
<trkpt lat="48.935875" lon="8.661685">
<ele>294.0</ele>
<speed>1.1</speed>
<course>25.4</course>
<desc>Speed 1.1 km/h Distance 3.58 km</desc>
<time>2010-02-24T18:00:25.04</time>
<name>3237</name>
</trkpt>
<trkpt lat="48.935880" lon="8.661688">
<ele>294.0</ele>
<speed>1.7</speed>
<course>18.8</course>
<desc>Speed 1.7 km/h Distance 3.59 km</desc>
<time>2010-02-24T18:00:26.04</time>
<name>3238</name>
</trkpt>
<trkpt lat="48.935887" lon="8.661692">
<ele>293.5</ele>
<speed>2.2</speed>
<course>14.9</course>
<desc>Speed 2.2 km/h Distance 3.59 km</desc>
<time>2010-02-24T18:00:27.04</time>
<name>3239</name>
</trkpt>
<trkpt lat="48.935895" lon="8.661695">
<ele>293.5</ele>
<speed>2.1</speed>
<course>18.2</course>
<desc>Speed 2.1 km/h Distance 3.59 km</desc>
<time>2010-02-24T18:00:28.04</time>
<name>3240</name>
</trkpt>
<trkpt lat="48.935905" lon="8.661700">
<ele>293.0</ele>
<speed>2.8</speed>
<course>16.5</course>
<desc>Speed 2.8 km/h Distance 3.59 km</desc>
<time>2010-02-24T18:00:29.04</time>
<name>3241</name>
</trkpt>
<trkpt lat="48.935938" lon="8.661715">
<ele>294.0</ele>
<speed>3.7</speed>
<course>3.9</course>
<desc>Speed 3.7 km/h Distance 3.59 km</desc>
<time>2010-02-24T18:00:31.04</time>
<name>3242</name>
</trkpt>
<trkpt lat="48.935952" lon="8.661715">
<ele>293.0</ele>
<speed>2.6</speed>
<course>9.6</course>
<desc>Speed 2.6 km/h Distance 3.59 km</desc>
<time>2010-02-24T18:00:32.04</time>
<name>3243</name>
</trkpt>
<trkpt lat="48.935960" lon="8.661717">
<ele>292.5</ele>
<speed>3.5</speed>
<course>14.9</course>
<desc>Speed 3.5 km/h Distance 3.59 km</desc>
<time>2010-02-24T18:00:33.04</time>
<name>3244</name>
</trkpt>
<trkpt lat="48.935972" lon="8.661722">
<ele>292.5</ele>
<speed>3.7</speed>
<course>12.6</course>
<desc>Speed 3.7 km/h Distance 3.60 km</desc>
<time>2010-02-24T18:00:34.04</time>
<name>3245</name>
</trkpt>
<trkpt lat="48.935982" lon="8.661725">
<ele>291.0</ele>
<speed>2.5</speed>
<course>18.2</course>
<desc>Speed 2.5 km/h Distance 3.60 km</desc>
<time>2010-02-24T18:00:35.04</time>
<name>3246</name>
</trkpt>
<trkpt lat="48.935992" lon="8.661730">
<ele>290.0</ele>
<speed>2.5</speed>
<course>11.2</course>
<desc>Speed 2.5 km/h Distance 3.60 km</desc>
<time>2010-02-24T18:00:36.04</time>
<name>3247</name>
</trkpt>
<trkpt lat="48.936003" lon="8.661733">
<ele>289.5</ele>
<speed>3.4</speed>
<course>15.3</course>
<desc>Speed 3.4 km/h Distance 3.60 km</desc>
<time>2010-02-24T18:00:37.04</time>
<name>3248</name>
</trkpt>
<trkpt lat="48.936023" lon="8.661742">
<ele>291.5</ele>
<speed>2.9</speed>
<course>23.8</course>
<desc>Speed 2.9 km/h Distance 3.60 km</desc>
<time>2010-02-24T18:00:38.04</time>
<name>3249</name>
</trkpt>
<trkpt lat="48.936033" lon="8.661748">
<ele>290.5</ele>
<speed>3.6</speed>
<course>20.9</course>
<desc>Speed 3.6 km/h Distance 3.60 km</desc>
<time>2010-02-24T18:00:39.04</time>
<name>3250</name>
</trkpt>
<trkpt lat="48.936045" lon="8.661755">
<ele>290.0</ele>
<speed>3.4</speed>
<course>20.6</course>
<desc>Speed 3.4 km/h Distance 3.60 km</desc>
<time>2010-02-24T18:00:40.04</time>
<name>3251</name>
</trkpt>
<trkpt lat="48.936057" lon="8.661762">
<ele>288.5</ele>
<speed>3.1</speed>
<course>12.6</course>
<desc>Speed 3.1 km/h Distance 3.61 km</desc>
<time>2010-02-24T18:00:41.04</time>
<name>3252</name>
</trkpt>
<trkpt lat="48.936067" lon="8.661765">
<ele>287.5</ele>
<speed>4.0</speed>
<course>18.8</course>
<desc>Speed 4.0 km/h Distance 3.61 km</desc>
<time>2010-02-24T18:00:42.04</time>
<name>3253</name>
</trkpt>
<trkpt lat="48.936073" lon="8.661768">
<ele>287.0</ele>
<speed>3.1</speed>
<course>14.9</course>
<desc>Speed 3.1 km/h Distance 3.61 km</desc>
<time>2010-02-24T18:00:43.04</time>
<name>3254</name>
</trkpt>
<trkpt lat="48.936090" lon="8.661775">
<ele>287.0</ele>
<speed>3.1</speed>
<course>33.7</course>
<desc>Speed 3.1 km/h Distance 3.61 km</desc>
<time>2010-02-24T18:00:44.04</time>
<name>3255</name>
</trkpt>
<trkpt lat="48.936097" lon="8.661782">
<ele>286.5</ele>
<speed>2.5</speed>
<course>12.6</course>
<desc>Speed 2.5 km/h Distance 3.61 km</desc>
<time>2010-02-24T18:00:45.04</time>
<name>3256</name>
</trkpt>
<trkpt lat="48.936107" lon="8.661785">
<ele>286.5</ele>
<speed>3.5</speed>
<course>17.6</course>
<desc>Speed 3.5 km/h Distance 3.61 km</desc>
<time>2010-02-24T18:00:46.04</time>
<name>3257</name>
</trkpt>
<trkpt lat="48.936117" lon="8.661790">
<ele>286.5</ele>
<speed>2.6</speed>
<course>14.9</course>
<desc>Speed 2.6 km/h Distance 3.61 km</desc>
<time>2010-02-24T18:00:47.04</time>
<name>3258</name>
</trkpt>
<trkpt lat="48.936128" lon="8.661795">
<ele>286.5</ele>
<speed>3.1</speed>
<course>11.2</course>
<desc>Speed 3.1 km/h Distance 3.61 km</desc>
<time>2010-02-24T18:00:48.04</time>
<name>3259</name>
</trkpt>
<trkpt lat="48.936140" lon="8.661798">
<ele>286.0</ele>
<speed>3.3</speed>
<course>23.8</course>
<desc>Speed 3.3 km/h Distance 3.62 km</desc>
<time>2010-02-24T18:00:49.04</time>
<name>3260</name>
</trkpt>
<trkpt lat="48.936150" lon="8.661805">
<ele>286.0</ele>
<speed>3.2</speed>
<course>23.8</course>
<desc>Speed 3.2 km/h Distance 3.62 km</desc>
<time>2010-02-24T18:00:50.04</time>
<name>3261</name>
</trkpt>
<trkpt lat="48.936160" lon="8.661812">
<ele>286.0</ele>
<speed>3.5</speed>
<course>37.5</course>
<desc>Speed 3.5 km/h Distance 3.62 km</desc>
<time>2010-02-24T18:00:51.04</time>
<name>3262</name>
</trkpt>
<trkpt lat="48.936170" lon="8.661823">
<ele>286.5</ele>
<speed>4.8</speed>
<course>32.3</course>
<desc>Speed 4.8 km/h Distance 3.62 km</desc>
<time>2010-02-24T18:00:52.04</time>
<name>3263</name>
</trkpt>
<trkpt lat="48.936175" lon="8.661828">
<ele>285.5</ele>
<speed>2.2</speed>
<course>37.5</course>
<desc>Speed 2.2 km/h Distance 3.62 km</desc>
<time>2010-02-24T18:00:53.04</time>
<name>3264</name>
</trkpt>
<trkpt lat="48.936185" lon="8.661840">
<ele>287.0</ele>
<speed>4.8</speed>
<course>23.8</course>
<desc>Speed 4.8 km/h Distance 3.62 km</desc>
<time>2010-02-24T18:00:54.04</time>
<name>3265</name>
</trkpt>
<trkpt lat="48.936195" lon="8.661847">
<ele>288.0</ele>
<speed>4.1</speed>
<course>29.4</course>
<desc>Speed 4.1 km/h Distance 3.62 km</desc>
<time>2010-02-24T18:00:55.04</time>
<name>3266</name>
</trkpt>
<trkpt lat="48.936207" lon="8.661857">
<ele>288.5</ele>
<speed>3.6</speed>
<course>23.4</course>
<desc>Speed 3.6 km/h Distance 3.62 km</desc>
<time>2010-02-24T18:00:56.04</time>
<name>3267</name>
</trkpt>
<trkpt lat="48.936217" lon="8.661863">
<ele>288.5</ele>
<speed>3.0</speed>
<course>37.3</course>
<desc>Speed 3.0 km/h Distance 3.63 km</desc>
<time>2010-02-24T18:00:57.04</time>
<name>3268</name>
</trkpt>
<trkpt lat="48.936227" lon="8.661875">
<ele>289.0</ele>
<speed>3.9</speed>
<course>49.1</course>
<desc>Speed 3.9 km/h Distance 3.63 km</desc>
<time>2010-02-24T18:00:58.04</time>
<name>3269</name>
</trkpt>
<trkpt lat="48.936233" lon="8.661887">
<ele>289.5</ele>
<speed>2.8</speed>
<course>39.4</course>
<desc>Speed 2.8 km/h Distance 3.63 km</desc>
<time>2010-02-24T18:00:59.04</time>
<name>3270</name>
</trkpt>
<trkpt lat="48.936240" lon="8.661895">
<ele>289.5</ele>
<speed>3.2</speed>
<course>33.2</course>
<desc>Speed 3.2 km/h Distance 3.63 km</desc>
<time>2010-02-24T18:01:00.04</time>
<name>3271</name>
</trkpt>
<trkpt lat="48.936248" lon="8.661903">
<ele>289.5</ele>
<speed>3.2</speed>
<course>39.4</course>
<desc>Speed 3.2 km/h Distance 3.63 km</desc>
<time>2010-02-24T18:01:01.04</time>
<name>3272</name>
</trkpt>
<trkpt lat="48.936255" lon="8.661912">
<ele>290.0</ele>
<speed>3.1</speed>
<course>46.6</course>
<desc>Speed 3.1 km/h Distance 3.63 km</desc>
<time>2010-02-24T18:01:02.04</time>
<name>3273</name>
</trkpt>
<trkpt lat="48.936263" lon="8.661925">
<ele>290.0</ele>
<speed>3.8</speed>
<course>52.8</course>
<desc>Speed 3.8 km/h Distance 3.63 km</desc>
<time>2010-02-24T18:01:03.04</time>
<name>3274</name>
</trkpt>
<trkpt lat="48.936268" lon="8.661935">
<ele>290.5</ele>
<speed>3.2</speed>
<course>33.4</course>
<desc>Speed 3.2 km/h Distance 3.63 km</desc>
<time>2010-02-24T18:01:04.04</time>
<name>3275</name>
</trkpt>
<trkpt lat="48.936280" lon="8.661947">
<ele>291.0</ele>
<speed>3.6</speed>
<course>15.5</course>
<desc>Speed 3.6 km/h Distance 3.63 km</desc>
<time>2010-02-24T18:01:05.04</time>
<name>3276</name>
</trkpt>
<trkpt lat="48.936292" lon="8.661952">
<ele>290.5</ele>
<speed>3.7</speed>
<course>16.6</course>
<desc>Speed 3.7 km/h Distance 3.64 km</desc>
<time>2010-02-24T18:01:06.04</time>
<name>3277</name>
</trkpt>
<trkpt lat="48.936307" lon="8.661958">
<ele>290.5</ele>
<speed>4.1</speed>
<course>11.2</course>
<desc>Speed 4.1 km/h Distance 3.64 km</desc>
<time>2010-02-24T18:01:07.04</time>
<name>3278</name>
</trkpt>
<trkpt lat="48.936318" lon="8.661962">
<ele>290.5</ele>
<speed>4.1</speed>
<course>10.4</course>
<desc>Speed 4.1 km/h Distance 3.64 km</desc>
<time>2010-02-24T18:01:08.04</time>
<name>3279</name>
</trkpt>
<trkpt lat="48.936330" lon="8.661965">
<ele>291.0</ele>
<speed>3.9</speed>
<course>9.6</course>
<desc>Speed 3.9 km/h Distance 3.64 km</desc>
<time>2010-02-24T18:01:09.04</time>
<name>3280</name>
</trkpt>
<trkpt lat="48.936338" lon="8.661967">
<ele>291.0</ele>
<speed>1.7</speed>
<course>9.6</course>
<desc>Speed 1.7 km/h Distance 3.64 km</desc>
<time>2010-02-24T18:01:10.04</time>
<name>3281</name>
</trkpt>
<trkpt lat="48.936347" lon="8.661968">
<ele>291.5</ele>
<speed>1.0</speed>
<course>0.0</course>
<desc>Speed 1.0 km/h Distance 3.64 km</desc>
<time>2010-02-24T18:01:11.04</time>
<name>3282</name>
</trkpt>
<trkpt lat="48.936358" lon="8.661968">
<ele>291.0</ele>
<speed>2.9</speed>
<course>9.0</course>
<desc>Speed 2.9 km/h Distance 3.64 km</desc>
<time>2010-02-24T18:01:12.04</time>
<name>3283</name>
</trkpt>
<trkpt lat="48.936372" lon="8.661972">
<ele>291.0</ele>
<speed>3.0</speed>
<course>3.8</course>
<desc>Speed 3.0 km/h Distance 3.65 km</desc>
<time>2010-02-24T18:01:13.04</time>
<name>3284</name>
</trkpt>
<trkpt lat="48.936387" lon="8.661973">
<ele>291.0</ele>
<speed>3.5</speed>
<course>351.8</course>
<desc>Speed 3.5 km/h Distance 3.65 km</desc>
<time>2010-02-24T18:01:14.04</time>
<name>3285</name>
</trkpt>
<trkpt lat="48.936403" lon="8.661970">
<ele>291.0</ele>
<speed>3.4</speed>
<course>349.7</course>
<desc>Speed 3.4 km/h Distance 3.65 km</desc>
<time>2010-02-24T18:01:15.04</time>
<name>3286</name>
</trkpt>
<trkpt lat="48.936417" lon="8.661967">
<ele>291.0</ele>
<speed>4.0</speed>
<course>350.3</course>
<desc>Speed 4.0 km/h Distance 3.65 km</desc>
<time>2010-02-24T18:01:16.04</time>
<name>3287</name>
</trkpt>
<trkpt lat="48.936430" lon="8.661963">
<ele>291.5</ele>
<speed>4.4</speed>
<course>351.0</course>
<desc>Speed 4.4 km/h Distance 3.65 km</desc>
<time>2010-02-24T18:01:17.04</time>
<name>3288</name>
</trkpt>
<trkpt lat="48.936443" lon="8.661960">
<ele>291.0</ele>
<speed>4.6</speed>
<course>351.0</course>
<desc>Speed 4.6 km/h Distance 3.65 km</desc>
<time>2010-02-24T18:01:18.04</time>
<name>3289</name>
</trkpt>
<trkpt lat="48.936457" lon="8.661957">
<ele>291.0</ele>
<speed>4.1</speed>
<course>355.3</course>
<desc>Speed 4.1 km/h Distance 3.65 km</desc>
<time>2010-02-24T18:01:19.04</time>
<name>3290</name>
</trkpt>
<trkpt lat="48.936468" lon="8.661955">
<ele>291.0</ele>
<speed>3.4</speed>
<course>346.5</course>
<desc>Speed 3.4 km/h Distance 3.66 km</desc>
<time>2010-02-24T18:01:20.04</time>
<name>3291</name>
</trkpt>
<trkpt lat="48.936482" lon="8.661950">
<ele>290.5</ele>
<speed>3.3</speed>
<course>344.5</course>
<desc>Speed 3.3 km/h Distance 3.66 km</desc>
<time>2010-02-24T18:01:21.04</time>
<name>3292</name>
</trkpt>
<trkpt lat="48.936493" lon="8.661945">
<ele>291.0</ele>
<speed>3.9</speed>
<course>344.5</course>
<desc>Speed 3.9 km/h Distance 3.66 km</desc>
<time>2010-02-24T18:01:22.04</time>
<name>3293</name>
</trkpt>
<trkpt lat="48.936505" lon="8.661940">
<ele>291.0</ele>
<speed>4.1</speed>
<course>1.2</course>
<desc>Speed 4.1 km/h Distance 3.66 km</desc>
<time>2010-02-24T18:01:23.04</time>
<name>3294</name>
</trkpt>
<trkpt lat="48.936518" lon="8.661940">
<ele>291.0</ele>
<speed>3.7</speed>
<course>0.0</course>
<desc>Speed 3.7 km/h Distance 3.66 km</desc>
<time>2010-02-24T18:01:24.04</time>
<name>3295</name>
</trkpt>
<trkpt lat="48.936535" lon="8.661940">
<ele>290.5</ele>
<speed>4.4</speed>
<course>351.9</course>
<desc>Speed 4.4 km/h Distance 3.66 km</desc>
<time>2010-02-24T18:01:25.04</time>
<name>3296</name>
</trkpt>
<trkpt lat="48.936550" lon="8.661937">
<ele>290.5</ele>
<speed>4.2</speed>
<course>349.6</course>
<desc>Speed 4.2 km/h Distance 3.67 km</desc>
<time>2010-02-24T18:01:26.04</time>
<name>3297</name>
</trkpt>
<trkpt lat="48.936562" lon="8.661933">
<ele>290.5</ele>
<speed>2.9</speed>
<course>346.5</course>
<desc>Speed 2.9 km/h Distance 3.67 km</desc>
<time>2010-02-24T18:01:27.04</time>
<name>3298</name>
</trkpt>
<trkpt lat="48.936575" lon="8.661928">
<ele>291.0</ele>
<speed>3.9</speed>
<course>4.4</course>
<desc>Speed 3.9 km/h Distance 3.67 km</desc>
<time>2010-02-24T18:01:28.04</time>
<name>3299</name>
</trkpt>
<trkpt lat="48.936585" lon="8.661928">
<ele>291.0</ele>
<speed>2.3</speed>
<course>27.9</course>
<desc>Speed 2.3 km/h Distance 3.67 km</desc>
<time>2010-02-24T18:01:29.04</time>
<name>3300</name>
</trkpt>
<trkpt lat="48.936593" lon="8.661935">
<ele>291.0</ele>
<speed>3.5</speed>
<course>33.2</course>
<desc>Speed 3.5 km/h Distance 3.67 km</desc>
<time>2010-02-24T18:01:30.04</time>
<name>3301</name>
</trkpt>
<trkpt lat="48.936602" lon="8.661943">
<ele>291.0</ele>
<speed>3.9</speed>
<course>42.6</course>
<desc>Speed 3.9 km/h Distance 3.67 km</desc>
<time>2010-02-24T18:01:31.04</time>
<name>3302</name>
</trkpt>
<trkpt lat="48.936610" lon="8.661955">
<ele>291.0</ele>
<speed>3.8</speed>
<course>47.4</course>
<desc>Speed 3.8 km/h Distance 3.67 km</desc>
<time>2010-02-24T18:01:32.04</time>
<name>3303</name>
</trkpt>
<trkpt lat="48.936615" lon="8.661963">
<ele>291.5</ele>
<speed>2.7</speed>
<course>28.6</course>
<desc>Speed 2.7 km/h Distance 3.67 km</desc>
<time>2010-02-24T18:01:33.04</time>
<name>3304</name>
</trkpt>
<trkpt lat="48.936625" lon="8.661972">
<ele>291.5</ele>
<speed>3.9</speed>
<course>33.7</course>
<desc>Speed 3.9 km/h Distance 3.67 km</desc>
<time>2010-02-24T18:01:34.04</time>
<name>3305</name>
</trkpt>
<trkpt lat="48.936632" lon="8.661978">
<ele>292.0</ele>
<speed>3.3</speed>
<course>46.4</course>
<desc>Speed 3.3 km/h Distance 3.68 km</desc>
<time>2010-02-24T18:01:35.04</time>
<name>3306</name>
</trkpt>
<trkpt lat="48.936640" lon="8.661992">
<ele>292.5</ele>
<speed>4.0</speed>
<course>49.1</course>
<desc>Speed 4.0 km/h Distance 3.68 km</desc>
<time>2010-02-24T18:01:36.04</time>
<name>3307</name>
</trkpt>
<trkpt lat="48.936647" lon="8.662003">
<ele>292.5</ele>
<speed>3.5</speed>
<course>25.2</course>
<desc>Speed 3.5 km/h Distance 3.68 km</desc>
<time>2010-02-24T18:01:37.04</time>
<name>3308</name>
</trkpt>
<trkpt lat="48.936658" lon="8.662012">
<ele>292.5</ele>
<speed>3.3</speed>
<course>27.9</course>
<desc>Speed 3.3 km/h Distance 3.68 km</desc>
<time>2010-02-24T18:01:38.04</time>
<name>3309</name>
</trkpt>
<trkpt lat="48.936667" lon="8.662018">
<ele>293.0</ele>
<speed>3.0</speed>
<course>28.6</course>
<desc>Speed 3.0 km/h Distance 3.68 km</desc>
<time>2010-02-24T18:01:39.04</time>
<name>3310</name>
</trkpt>
<trkpt lat="48.936677" lon="8.662027">
<ele>293.5</ele>
<speed>3.7</speed>
<course>33.7</course>
<desc>Speed 3.7 km/h Distance 3.68 km</desc>
<time>2010-02-24T18:01:40.04</time>
<name>3311</name>
</trkpt>
<trkpt lat="48.936683" lon="8.662033">
<ele>293.5</ele>
<speed>2.4</speed>
<course>17.5</course>
<desc>Speed 2.4 km/h Distance 3.68 km</desc>
<time>2010-02-24T18:01:41.04</time>
<name>3312</name>
</trkpt>
<trkpt lat="48.936690" lon="8.662037">
<ele>293.0</ele>
<speed>1.7</speed>
<course>27.9</course>
<desc>Speed 1.7 km/h Distance 3.68 km</desc>
<time>2010-02-24T18:01:42.04</time>
<name>3313</name>
</trkpt>
<trkpt lat="48.936698" lon="8.662043">
<ele>293.0</ele>
<speed>2.7</speed>
<course>23.8</course>
<desc>Speed 2.7 km/h Distance 3.68 km</desc>
<time>2010-02-24T18:01:43.04</time>
<name>3314</name>
</trkpt>
<trkpt lat="48.936708" lon="8.662050">
<ele>293.0</ele>
<speed>3.0</speed>
<course>20.8</course>
<desc>Speed 3.0 km/h Distance 3.69 km</desc>
<time>2010-02-24T18:01:44.04</time>
<name>3315</name>
</trkpt>
<trkpt lat="48.936717" lon="8.662055">
<ele>292.5</ele>
<speed>3.2</speed>
<course>38.1</course>
<desc>Speed 3.2 km/h Distance 3.69 km</desc>
<time>2010-02-24T18:01:45.04</time>
<name>3316</name>
</trkpt>
<trkpt lat="48.936725" lon="8.662065">
<ele>292.0</ele>
<speed>3.0</speed>
<course>63.2</course>
<desc>Speed 3.0 km/h Distance 3.69 km</desc>
<time>2010-02-24T18:01:46.04</time>
<name>3317</name>
</trkpt>
<trkpt lat="48.936728" lon="8.662075">
<ele>292.0</ele>
<speed>2.9</speed>
<course>44.5</course>
<desc>Speed 2.9 km/h Distance 3.69 km</desc>
<time>2010-02-24T18:01:47.04</time>
<name>3318</name>
</trkpt>
<trkpt lat="48.936735" lon="8.662085">
<ele>292.0</ele>
<speed>3.0</speed>
<course>41.4</course>
<desc>Speed 3.0 km/h Distance 3.69 km</desc>
<time>2010-02-24T18:01:48.04</time>
<name>3319</name>
</trkpt>
<trkpt lat="48.936740" lon="8.662092">
<ele>290.5</ele>
<speed>1.7</speed>
<course>27.9</course>
<desc>Speed 1.7 km/h Distance 3.69 km</desc>
<time>2010-02-24T18:01:49.04</time>
<name>3320</name>
</trkpt>
<trkpt lat="48.936748" lon="8.662098">
<ele>290.5</ele>
<speed>3.5</speed>
<course>6.6</course>
<desc>Speed 3.5 km/h Distance 3.69 km</desc>
<time>2010-02-24T18:01:50.04</time>
<name>3321</name>
</trkpt>
<trkpt lat="48.936758" lon="8.662100">
<ele>290.5</ele>
<speed>2.3</speed>
<course>7.7</course>
<desc>Speed 2.3 km/h Distance 3.69 km</desc>
<time>2010-02-24T18:01:51.04</time>
<name>3322</name>
</trkpt>
<trkpt lat="48.936767" lon="8.662102">
<ele>290.0</ele>
<speed>3.3</speed>
<course>12.6</course>
<desc>Speed 3.3 km/h Distance 3.69 km</desc>
<time>2010-02-24T18:01:52.04</time>
<name>3323</name>
</trkpt>
<trkpt lat="48.936777" lon="8.662105">
<ele>290.0</ele>
<speed>3.5</speed>
<course>355.6</course>
<desc>Speed 3.5 km/h Distance 3.69 km</desc>
<time>2010-02-24T18:01:53.04</time>
<name>3324</name>
</trkpt>
<trkpt lat="48.936787" lon="8.662103">
<ele>289.5</ele>
<speed>3.9</speed>
<course>355.6</course>
<desc>Speed 3.9 km/h Distance 3.70 km</desc>
<time>2010-02-24T18:01:54.04</time>
<name>3325</name>
</trkpt>
<trkpt lat="48.936797" lon="8.662102">
<ele>289.5</ele>
<speed>3.3</speed>
<course>4.4</course>
<desc>Speed 3.3 km/h Distance 3.70 km</desc>
<time>2010-02-24T18:01:55.04</time>
<name>3326</name>
</trkpt>
<trkpt lat="48.936807" lon="8.662103">
<ele>289.5</ele>
<speed>3.7</speed>
<course>4.7</course>
<desc>Speed 3.7 km/h Distance 3.70 km</desc>
<time>2010-02-24T18:01:56.04</time>
<name>3327</name>
</trkpt>
<trkpt lat="48.936818" lon="8.662105">
<ele>289.5</ele>
<speed>3.6</speed>
<course>16.6</course>
<desc>Speed 3.6 km/h Distance 3.70 km</desc>
<time>2010-02-24T18:01:57.04</time>
<name>3328</name>
</trkpt>
<trkpt lat="48.936833" lon="8.662112">
<ele>291.5</ele>
<speed>5.3</speed>
<course>4.7</course>
<desc>Speed 5.3 km/h Distance 3.70 km</desc>
<time>2010-02-24T18:01:58.04</time>
<name>3329</name>
</trkpt>
<trkpt lat="48.936845" lon="8.662113">
<ele>291.5</ele>
<speed>3.4</speed>
<course>13.5</course>
<desc>Speed 3.4 km/h Distance 3.70 km</desc>
<time>2010-02-24T18:01:59.04</time>
<name>3330</name>
</trkpt>
<trkpt lat="48.936858" lon="8.662118">
<ele>291.5</ele>
<speed>3.9</speed>
<course>11.2</course>
<desc>Speed 3.9 km/h Distance 3.70 km</desc>
<time>2010-02-24T18:02:00.04</time>
<name>3331</name>
</trkpt>
<trkpt lat="48.936870" lon="8.662122">
<ele>292.0</ele>
<speed>3.9</speed>
<course>4.7</course>
<desc>Speed 3.9 km/h Distance 3.71 km</desc>
<time>2010-02-24T18:02:01.04</time>
<name>3332</name>
</trkpt>
<trkpt lat="48.936882" lon="8.662123">
<ele>292.0</ele>
<speed>3.7</speed>
<course>0.0</course>
<desc>Speed 3.7 km/h Distance 3.71 km</desc>
<time>2010-02-24T18:02:02.04</time>
<name>3333</name>
</trkpt>
<trkpt lat="48.936893" lon="8.662123">
<ele>291.5</ele>
<speed>3.6</speed>
<course>353.7</course>
<desc>Speed 3.6 km/h Distance 3.71 km</desc>
<time>2010-02-24T18:02:03.04</time>
<name>3334</name>
</trkpt>
<trkpt lat="48.936905" lon="8.662122">
<ele>292.0</ele>
<speed>3.9</speed>
<course>3.8</course>
<desc>Speed 3.9 km/h Distance 3.71 km</desc>
<time>2010-02-24T18:02:04.04</time>
<name>3335</name>
</trkpt>
<trkpt lat="48.936920" lon="8.662122">
<ele>292.0</ele>
<speed>4.4</speed>
<course>9.0</course>
<desc>Speed 4.4 km/h Distance 3.71 km</desc>
<time>2010-02-24T18:02:05.04</time>
<name>3336</name>
</trkpt>
<trkpt lat="48.936933" lon="8.662125">
<ele>292.0</ele>
<speed>4.1</speed>
<course>4.7</course>
<desc>Speed 4.1 km/h Distance 3.71 km</desc>
<time>2010-02-24T18:02:06.04</time>
<name>3337</name>
</trkpt>
<trkpt lat="48.936945" lon="8.662127">
<ele>292.0</ele>
<speed>3.6</speed>
<course>4.7</course>
<desc>Speed 3.6 km/h Distance 3.71 km</desc>
<time>2010-02-24T18:02:07.04</time>
<name>3338</name>
</trkpt>
<trkpt lat="48.936957" lon="8.662128">
<ele>292.0</ele>
<speed>3.4</speed>
<course>6.3</course>
<desc>Speed 3.4 km/h Distance 3.72 km</desc>
<time>2010-02-24T18:02:08.04</time>
<name>3339</name>
</trkpt>
<trkpt lat="48.936968" lon="8.662130">
<ele>292.0</ele>
<speed>4.2</speed>
<course>11.2</course>
<desc>Speed 4.2 km/h Distance 3.72 km</desc>
<time>2010-02-24T18:02:09.04</time>
<name>3340</name>
</trkpt>
<trkpt lat="48.936980" lon="8.662133">
<ele>292.0</ele>
<speed>4.0</speed>
<course>11.2</course>
<desc>Speed 4.0 km/h Distance 3.72 km</desc>
<time>2010-02-24T18:02:10.04</time>
<name>3341</name>
</trkpt>
<trkpt lat="48.936992" lon="8.662137">
<ele>292.0</ele>
<speed>4.2</speed>
<course>11.2</course>
<desc>Speed 4.2 km/h Distance 3.72 km</desc>
<time>2010-02-24T18:02:11.04</time>
<name>3342</name>
</trkpt>
<trkpt lat="48.937003" lon="8.662140">
<ele>292.5</ele>
<speed>3.6</speed>
<course>12.6</course>
<desc>Speed 3.6 km/h Distance 3.72 km</desc>
<time>2010-02-24T18:02:12.04</time>
<name>3343</name>
</trkpt>
<trkpt lat="48.937013" lon="8.662143">
<ele>292.5</ele>
<speed>3.9</speed>
<course>9.5</course>
<desc>Speed 3.9 km/h Distance 3.72 km</desc>
<time>2010-02-24T18:02:13.04</time>
<name>3344</name>
</trkpt>
<trkpt lat="48.937025" lon="8.662147">
<ele>292.5</ele>
<speed>4.3</speed>
<course>17.6</course>
<desc>Speed 4.3 km/h Distance 3.72 km</desc>
<time>2010-02-24T18:02:14.04</time>
<name>3345</name>
</trkpt>
<trkpt lat="48.937035" lon="8.662152">
<ele>293.0</ele>
<speed>3.6</speed>
<course>5.0</course>
<desc>Speed 3.6 km/h Distance 3.72 km</desc>
<time>2010-02-24T18:02:15.04</time>
<name>3346</name>
</trkpt>
<trkpt lat="48.937043" lon="8.662153">
<ele>292.5</ele>
<speed>2.9</speed>
<course>14.9</course>
<desc>Speed 2.9 km/h Distance 3.72 km</desc>
<time>2010-02-24T18:02:16.04</time>
<name>3347</name>
</trkpt>
<trkpt lat="48.937052" lon="8.662157">
<ele>292.0</ele>
<speed>2.7</speed>
<course>27.9</course>
<desc>Speed 2.7 km/h Distance 3.73 km</desc>
<time>2010-02-24T18:02:17.04</time>
<name>3348</name>
</trkpt>
<trkpt lat="48.937060" lon="8.662163">
<ele>292.0</ele>
<speed>3.2</speed>
<course>12.6</course>
<desc>Speed 3.2 km/h Distance 3.73 km</desc>
<time>2010-02-24T18:02:18.04</time>
<name>3349</name>
</trkpt>
<trkpt lat="48.937070" lon="8.662167">
<ele>291.5</ele>
<speed>3.1</speed>
<course>352.6</course>
<desc>Speed 3.1 km/h Distance 3.73 km</desc>
<time>2010-02-24T18:02:19.04</time>
<name>3350</name>
</trkpt>
<trkpt lat="48.937077" lon="8.662165">
<ele>290.5</ele>
<speed>1.8</speed>
<course>7.4</course>
<desc>Speed 1.8 km/h Distance 3.73 km</desc>
<time>2010-02-24T18:02:20.04</time>
<name>3351</name>
</trkpt>
<trkpt lat="48.937083" lon="8.662165">
<ele>291.0</ele>
<speed>2.0</speed>
<course>320.6</course>
<desc>Speed 2.0 km/h Distance 3.73 km</desc>
<time>2010-02-24T18:02:21.04</time>
<name>3352</name>
</trkpt>
<trkpt lat="48.937090" lon="8.662157">
<ele>291.0</ele>
<speed>2.6</speed>
<course>336.2</course>
<desc>Speed 2.6 km/h Distance 3.73 km</desc>
<time>2010-02-24T18:02:22.04</time>
<name>3353</name>
</trkpt>
<trkpt lat="48.937095" lon="8.662153">
<ele>290.5</ele>
<speed>2.1</speed>
<course>345.1</course>
<desc>Speed 2.1 km/h Distance 3.73 km</desc>
<time>2010-02-24T18:02:23.04</time>
<name>3354</name>
</trkpt>
<trkpt lat="48.937103" lon="8.662150">
<ele>290.5</ele>
<speed>2.6</speed>
<course>345.1</course>
<desc>Speed 2.6 km/h Distance 3.73 km</desc>
<time>2010-02-24T18:02:24.04</time>
<name>3355</name>
</trkpt>
<trkpt lat="48.937112" lon="8.662147">
<ele>290.5</ele>
<speed>2.4</speed>
<course>0.0</course>
<desc>Speed 2.4 km/h Distance 3.73 km</desc>
<time>2010-02-24T18:02:25.04</time>
<name>3356</name>
</trkpt>
<trkpt lat="48.937117" lon="8.662147">
<ele>290.5</ele>
<speed>1.1</speed>
<course>37.2</course>
<desc>Speed 1.1 km/h Distance 3.73 km</desc>
<time>2010-02-24T18:02:26.04</time>
<name>3357</name>
</trkpt>
<trkpt lat="48.937118" lon="8.662148">
<ele>291.0</ele>
<speed>0.4</speed>
<course>12.6</course>
<desc>Speed 0.4 km/h Distance 3.73 km</desc>
<time>2010-02-24T18:02:27.04</time>
<name>3358</name>
</trkpt>
<trkpt lat="48.937120" lon="8.662148">
<ele>291.5</ele>
<speed>0.4</speed>
<course>12.6</course>
<desc>Speed 0.4 km/h Distance 3.73 km</desc>
<time>2010-02-24T18:02:28.04</time>
<name>3359</name>
</trkpt>
<trkpt lat="48.937125" lon="8.662150">
<ele>293.0</ele>
<speed>0.1</speed>
<course>37.2</course>
<desc>Speed 0.1 km/h Distance 3.73 km</desc>
<time>2010-02-24T18:02:29.04</time>
<name>3360</name>
</trkpt>
<trkpt lat="48.937127" lon="8.662152">
<ele>293.0</ele>
<speed>0.1</speed>
<course>7.4</course>
<desc>Speed 0.1 km/h Distance 3.73 km</desc>
<time>2010-02-24T18:02:30.04</time>
<name>3361</name>
</trkpt>
<trkpt lat="48.937133" lon="8.662152">
<ele>294.0</ele>
<speed>1.5</speed>
<course>315.2</course>
<desc>Speed 1.5 km/h Distance 3.74 km</desc>
<time>2010-02-24T18:02:31.04</time>
<name>3362</name>
</trkpt>
<trkpt lat="48.937140" lon="8.662142">
<ele>296.0</ele>
<speed>3.6</speed>
<course>347.4</course>
<desc>Speed 3.6 km/h Distance 3.74 km</desc>
<time>2010-02-24T18:02:32.04</time>
<name>3363</name>
</trkpt>
<trkpt lat="48.937150" lon="8.662138">
<ele>296.0</ele>
<speed>3.4</speed>
<course>0.0</course>
<desc>Speed 3.4 km/h Distance 3.74 km</desc>
<time>2010-02-24T18:02:33.04</time>
<name>3364</name>
</trkpt>
<trkpt lat="48.937160" lon="8.662138">
<ele>296.0</ele>
<speed>3.4</speed>
<course>0.0</course>
<desc>Speed 3.4 km/h Distance 3.74 km</desc>
<time>2010-02-24T18:02:34.04</time>
<name>3365</name>
</trkpt>
<trkpt lat="48.937170" lon="8.662138">
<ele>296.0</ele>
<speed>2.8</speed>
<course>9.6</course>
<desc>Speed 2.8 km/h Distance 3.74 km</desc>
<time>2010-02-24T18:02:35.04</time>
<name>3366</name>
</trkpt>
<trkpt lat="48.937178" lon="8.662140">
<ele>296.0</ele>
<speed>3.1</speed>
<course>355.3</course>
<desc>Speed 3.1 km/h Distance 3.74 km</desc>
<time>2010-02-24T18:02:36.04</time>
<name>3367</name>
</trkpt>
<trkpt lat="48.937190" lon="8.662138">
<ele>296.0</ele>
<speed>3.5</speed>
<course>341.8</course>
<desc>Speed 3.5 km/h Distance 3.74 km</desc>
<time>2010-02-24T18:02:37.04</time>
<name>3368</name>
</trkpt>
<trkpt lat="48.937200" lon="8.662133">
<ele>296.5</ele>
<speed>3.5</speed>
<course>349.6</course>
<desc>Speed 3.5 km/h Distance 3.74 km</desc>
<time>2010-02-24T18:02:38.04</time>
<name>3369</name>
</trkpt>
<trkpt lat="48.937212" lon="8.662130">
<ele>296.5</ele>
<speed>4.0</speed>
<course>353.4</course>
<desc>Speed 4.0 km/h Distance 3.74 km</desc>
<time>2010-02-24T18:02:39.04</time>
<name>3370</name>
</trkpt>
<trkpt lat="48.937222" lon="8.662128">
<ele>297.0</ele>
<speed>3.6</speed>
<course>355.6</course>
<desc>Speed 3.6 km/h Distance 3.75 km</desc>
<time>2010-02-24T18:02:40.04</time>
<name>3371</name>
</trkpt>
<trkpt lat="48.937232" lon="8.662127">
<ele>297.0</ele>
<speed>3.8</speed>
<course>4.4</course>
<desc>Speed 3.8 km/h Distance 3.75 km</desc>
<time>2010-02-24T18:02:41.04</time>
<name>3372</name>
</trkpt>
<trkpt lat="48.937242" lon="8.662127">
<ele>297.0</ele>
<speed>3.7</speed>
<course>351.0</course>
<desc>Speed 3.7 km/h Distance 3.75 km</desc>
<time>2010-02-24T18:02:42.04</time>
<name>3373</name>
</trkpt>
<trkpt lat="48.937255" lon="8.662123">
<ele>297.5</ele>
<speed>4.2</speed>
<course>338.5</course>
<desc>Speed 4.2 km/h Distance 3.75 km</desc>
<time>2010-02-24T18:02:43.04</time>
<name>3374</name>
</trkpt>
<trkpt lat="48.937263" lon="8.662118">
<ele>297.5</ele>
<speed>3.3</speed>
<course>5.0</course>
<desc>Speed 3.3 km/h Distance 3.75 km</desc>
<time>2010-02-24T18:02:44.04</time>
<name>3375</name>
</trkpt>
<trkpt lat="48.937272" lon="8.662118">
<ele>297.5</ele>
<speed>2.4</speed>
<course>12.6</course>
<desc>Speed 2.4 km/h Distance 3.75 km</desc>
<time>2010-02-24T18:02:45.04</time>
<name>3376</name>
</trkpt>
<trkpt lat="48.937282" lon="8.662122">
<ele>297.5</ele>
<speed>3.6</speed>
<course>12.6</course>
<desc>Speed 3.6 km/h Distance 3.75 km</desc>
<time>2010-02-24T18:02:46.04</time>
<name>3377</name>
</trkpt>
<trkpt lat="48.937292" lon="8.662125">
<ele>298.0</ele>
<speed>3.7</speed>
<course>12.6</course>
<desc>Speed 3.7 km/h Distance 3.75 km</desc>
<time>2010-02-24T18:02:47.04</time>
<name>3378</name>
</trkpt>
<trkpt lat="48.937302" lon="8.662128">
<ele>298.0</ele>
<speed>3.6</speed>
<course>5.3</course>
<desc>Speed 3.6 km/h Distance 3.75 km</desc>
<time>2010-02-24T18:02:48.04</time>
<name>3379</name>
</trkpt>
<trkpt lat="48.937315" lon="8.662130">
<ele>298.0</ele>
<speed>3.8</speed>
<course>6.6</course>
<desc>Speed 3.8 km/h Distance 3.76 km</desc>
<time>2010-02-24T18:02:49.04</time>
<name>3380</name>
</trkpt>
<trkpt lat="48.937325" lon="8.662132">
<ele>298.0</ele>
<speed>3.7</speed>
<course>0.0</course>
<desc>Speed 3.7 km/h Distance 3.76 km</desc>
<time>2010-02-24T18:02:50.04</time>
<name>3381</name>
</trkpt>
<trkpt lat="48.937335" lon="8.662132">
<ele>298.0</ele>
<speed>3.6</speed>
<course>4.7</course>
<desc>Speed 3.6 km/h Distance 3.76 km</desc>
<time>2010-02-24T18:02:51.04</time>
<name>3382</name>
</trkpt>
<trkpt lat="48.937347" lon="8.662133">
<ele>298.0</ele>
<speed>3.8</speed>
<course>341.8</course>
<desc>Speed 3.8 km/h Distance 3.76 km</desc>
<time>2010-02-24T18:02:52.04</time>
<name>3383</name>
</trkpt>
<trkpt lat="48.937357" lon="8.662128">
<ele>298.0</ele>
<speed>3.7</speed>
<course>338.5</course>
<desc>Speed 3.7 km/h Distance 3.76 km</desc>
<time>2010-02-24T18:02:53.04</time>
<name>3384</name>
</trkpt>
<trkpt lat="48.937365" lon="8.662123">
<ele>297.5</ele>
<speed>3.2</speed>
<course>332.1</course>
<desc>Speed 3.2 km/h Distance 3.76 km</desc>
<time>2010-02-24T18:02:54.04</time>
<name>3385</name>
</trkpt>
<trkpt lat="48.937373" lon="8.662117">
<ele>297.5</ele>
<speed>3.7</speed>
<course>334.8</course>
<desc>Speed 3.7 km/h Distance 3.76 km</desc>
<time>2010-02-24T18:02:55.04</time>
<name>3386</name>
</trkpt>
<trkpt lat="48.937385" lon="8.662108">
<ele>297.0</ele>
<speed>4.0</speed>
<course>341.8</course>
<desc>Speed 4.0 km/h Distance 3.76 km</desc>
<time>2010-02-24T18:02:56.04</time>
<name>3387</name>
</trkpt>
<trkpt lat="48.937395" lon="8.662103">
<ele>297.0</ele>
<speed>4.0</speed>
<course>341.8</course>
<desc>Speed 4.0 km/h Distance 3.77 km</desc>
<time>2010-02-24T18:02:57.04</time>
<name>3388</name>
</trkpt>
<trkpt lat="48.937405" lon="8.662098">
<ele>297.0</ele>
<speed>4.1</speed>
<course>341.8</course>
<desc>Speed 4.1 km/h Distance 3.77 km</desc>
<time>2010-02-24T18:02:58.04</time>
<name>3389</name>
</trkpt>
<trkpt lat="48.937415" lon="8.662093">
<ele>296.5</ele>
<speed>4.1</speed>
<course>355.3</course>
<desc>Speed 4.1 km/h Distance 3.77 km</desc>
<time>2010-02-24T18:02:59.04</time>
<name>3390</name>
</trkpt>
<trkpt lat="48.937427" lon="8.662092">
<ele>296.5</ele>
<speed>3.9</speed>
<course>0.0</course>
<desc>Speed 3.9 km/h Distance 3.77 km</desc>
<time>2010-02-24T18:03:00.04</time>
<name>3391</name>
</trkpt>
<trkpt lat="48.937438" lon="8.662092">
<ele>296.0</ele>
<speed>4.1</speed>
<course>0.0</course>
<desc>Speed 4.1 km/h Distance 3.77 km</desc>
<time>2010-02-24T18:03:01.04</time>
<name>3392</name>
</trkpt>
<trkpt lat="48.937452" lon="8.662092">
<ele>296.0</ele>
<speed>4.2</speed>
<course>347.4</course>
<desc>Speed 4.2 km/h Distance 3.77 km</desc>
<time>2010-02-24T18:03:02.04</time>
<name>3393</name>
</trkpt>
<trkpt lat="48.937462" lon="8.662088">
<ele>296.5</ele>
<speed>3.5</speed>
<course>355.0</course>
<desc>Speed 3.5 km/h Distance 3.77 km</desc>
<time>2010-02-24T18:03:03.04</time>
<name>3394</name>
</trkpt>
<trkpt lat="48.937470" lon="8.662087">
<ele>296.0</ele>
<speed>3.4</speed>
<course>355.3</course>
<desc>Speed 3.4 km/h Distance 3.77 km</desc>
<time>2010-02-24T18:03:04.04</time>
<name>3395</name>
</trkpt>
<trkpt lat="48.937482" lon="8.662085">
<ele>296.0</ele>
<speed>4.1</speed>
<course>350.5</course>
<desc>Speed 4.1 km/h Distance 3.78 km</desc>
<time>2010-02-24T18:03:05.04</time>
<name>3396</name>
</trkpt>
<trkpt lat="48.937493" lon="8.662082">
<ele>296.0</ele>
<speed>3.9</speed>
<course>342.4</course>
<desc>Speed 3.9 km/h Distance 3.78 km</desc>
<time>2010-02-24T18:03:06.04</time>
<name>3397</name>
</trkpt>
<trkpt lat="48.937503" lon="8.662077">
<ele>295.5</ele>
<speed>4.2</speed>
<course>336.2</course>
<desc>Speed 4.2 km/h Distance 3.78 km</desc>
<time>2010-02-24T18:03:07.04</time>
<name>3398</name>
</trkpt>
<trkpt lat="48.937513" lon="8.662070">
<ele>296.0</ele>
<speed>4.2</speed>
<course>341.8</course>
<desc>Speed 4.2 km/h Distance 3.78 km</desc>
<time>2010-02-24T18:03:08.04</time>
<name>3399</name>
</trkpt>
<trkpt lat="48.937523" lon="8.662065">
<ele>296.0</ele>
<speed>4.0</speed>
<course>339.8</course>
<desc>Speed 4.0 km/h Distance 3.78 km</desc>
<time>2010-02-24T18:03:09.04</time>
<name>3400</name>
</trkpt>
<trkpt lat="48.937535" lon="8.662058">
<ele>295.5</ele>
<speed>4.2</speed>
<course>347.4</course>
<desc>Speed 4.2 km/h Distance 3.78 km</desc>
<time>2010-02-24T18:03:10.04</time>
<name>3401</name>
</trkpt>
<trkpt lat="48.937545" lon="8.662055">
<ele>295.0</ele>
<speed>4.1</speed>
<course>350.5</course>
<desc>Speed 4.1 km/h Distance 3.78 km</desc>
<time>2010-02-24T18:03:11.04</time>
<name>3402</name>
</trkpt>
<trkpt lat="48.937557" lon="8.662052">
<ele>295.0</ele>
<speed>4.1</speed>
<course>336.2</course>
<desc>Speed 4.1 km/h Distance 3.78 km</desc>
<time>2010-02-24T18:03:12.04</time>
<name>3403</name>
</trkpt>
<trkpt lat="48.937567" lon="8.662045">
<ele>294.5</ele>
<speed>3.9</speed>
<course>338.5</course>
<desc>Speed 3.9 km/h Distance 3.79 km</desc>
<time>2010-02-24T18:03:13.04</time>
<name>3404</name>
</trkpt>
<trkpt lat="48.937575" lon="8.662040">
<ele>294.0</ele>
<speed>3.2</speed>
<course>336.2</course>
<desc>Speed 3.2 km/h Distance 3.79 km</desc>
<time>2010-02-24T18:03:14.04</time>
<name>3405</name>
</trkpt>
<trkpt lat="48.937585" lon="8.662033">
<ele>293.5</ele>
<speed>3.5</speed>
<course>355.0</course>
<desc>Speed 3.5 km/h Distance 3.79 km</desc>
<time>2010-02-24T18:03:15.04</time>
<name>3406</name>
</trkpt>
<trkpt lat="48.937593" lon="8.662032">
<ele>293.0</ele>
<speed>2.9</speed>
<course>355.0</course>
<desc>Speed 2.9 km/h Distance 3.79 km</desc>
<time>2010-02-24T18:03:16.04</time>
<name>3407</name>
</trkpt>
<trkpt lat="48.937602" lon="8.662030">
<ele>292.5</ele>
<speed>3.2</speed>
<course>347.4</course>
<desc>Speed 3.2 km/h Distance 3.79 km</desc>
<time>2010-02-24T18:03:17.04</time>
<name>3408</name>
</trkpt>
<trkpt lat="48.937612" lon="8.662027">
<ele>292.0</ele>
<speed>3.2</speed>
<course>352.3</course>
<desc>Speed 3.2 km/h Distance 3.79 km</desc>
<time>2010-02-24T18:03:18.04</time>
<name>3409</name>
</trkpt>
<trkpt lat="48.937620" lon="8.662025">
<ele>291.0</ele>
<speed>3.4</speed>
<course>338.5</course>
<desc>Speed 3.4 km/h Distance 3.79 km</desc>
<time>2010-02-24T18:03:19.04</time>
<name>3410</name>
</trkpt>
<trkpt lat="48.937628" lon="8.662020">
<ele>290.0</ele>
<speed>2.9</speed>
<course>347.4</course>
<desc>Speed 2.9 km/h Distance 3.79 km</desc>
<time>2010-02-24T18:03:20.04</time>
<name>3411</name>
</trkpt>
<trkpt lat="48.937638" lon="8.662017">
<ele>290.0</ele>
<speed>3.8</speed>
<course>347.4</course>
<desc>Speed 3.8 km/h Distance 3.79 km</desc>
<time>2010-02-24T18:03:21.04</time>
<name>3412</name>
</trkpt>
<trkpt lat="48.937648" lon="8.662013">
<ele>290.0</ele>
<speed>3.9</speed>
<course>342.4</course>
<desc>Speed 3.9 km/h Distance 3.79 km</desc>
<time>2010-02-24T18:03:22.04</time>
<name>3413</name>
</trkpt>
<trkpt lat="48.937658" lon="8.662008">
<ele>290.0</ele>
<speed>3.6</speed>
<course>347.4</course>
<desc>Speed 3.6 km/h Distance 3.80 km</desc>
<time>2010-02-24T18:03:23.04</time>
<name>3414</name>
</trkpt>
<trkpt lat="48.937668" lon="8.662005">
<ele>290.5</ele>
<speed>3.2</speed>
<course>346.0</course>
<desc>Speed 3.2 km/h Distance 3.80 km</desc>
<time>2010-02-24T18:03:24.04</time>
<name>3415</name>
</trkpt>
<trkpt lat="48.937682" lon="8.662000">
<ele>291.0</ele>
<speed>3.5</speed>
<course>352.5</course>
<desc>Speed 3.5 km/h Distance 3.80 km</desc>
<time>2010-02-24T18:03:25.04</time>
<name>3416</name>
</trkpt>
<trkpt lat="48.937693" lon="8.661998">
<ele>291.5</ele>
<speed>3.3</speed>
<course>347.4</course>
<desc>Speed 3.3 km/h Distance 3.80 km</desc>
<time>2010-02-24T18:03:26.04</time>
<name>3417</name>
</trkpt>
<trkpt lat="48.937703" lon="8.661995">
<ele>291.5</ele>
<speed>3.9</speed>
<course>331.4</course>
<desc>Speed 3.9 km/h Distance 3.80 km</desc>
<time>2010-02-24T18:03:27.04</time>
<name>3418</name>
</trkpt>
<trkpt lat="48.937713" lon="8.661987">
<ele>292.0</ele>
<speed>4.2</speed>
<course>334.8</course>
<desc>Speed 4.2 km/h Distance 3.80 km</desc>
<time>2010-02-24T18:03:28.04</time>
<name>3419</name>
</trkpt>
<trkpt lat="48.937725" lon="8.661978">
<ele>292.0</ele>
<speed>4.0</speed>
<course>331.4</course>
<desc>Speed 4.0 km/h Distance 3.80 km</desc>
<time>2010-02-24T18:03:29.04</time>
<name>3420</name>
</trkpt>
<trkpt lat="48.937735" lon="8.661970">
<ele>293.0</ele>
<speed>4.2</speed>
<course>336.2</course>
<desc>Speed 4.2 km/h Distance 3.81 km</desc>
<time>2010-02-24T18:03:30.04</time>
<name>3421</name>
</trkpt>
<trkpt lat="48.937745" lon="8.661963">
<ele>294.0</ele>
<speed>3.3</speed>
<course>345.1</course>
<desc>Speed 3.3 km/h Distance 3.81 km</desc>
<time>2010-02-24T18:03:31.04</time>
<name>3422</name>
</trkpt>
<trkpt lat="48.937753" lon="8.661960">
<ele>294.0</ele>
<speed>2.4</speed>
<course>12.6</course>
<desc>Speed 2.4 km/h Distance 3.81 km</desc>
<time>2010-02-24T18:03:32.04</time>
<name>3423</name>
</trkpt>
<trkpt lat="48.937755" lon="8.661960">
<ele>294.0</ele>
<speed>0.4</speed>
<course>257.8</course>
<desc>Speed 0.4 km/h Distance 3.81 km</desc>
<time>2010-02-24T18:03:33.04</time>
<name>3424</name>
</trkpt>
<trkpt lat="48.937753" lon="8.661948">
<ele>296.5</ele>
<speed>1.9</speed>
<course>322.8</course>
<desc>Speed 1.9 km/h Distance 3.81 km</desc>
<time>2010-02-24T18:03:34.04</time>
<name>3425</name>
</trkpt>
<trkpt lat="48.937755" lon="8.661947">
<ele>297.0</ele>
<speed>0.6</speed>
<course>257.8</course>
<desc>Speed 0.6 km/h Distance 3.81 km</desc>
<time>2010-02-24T18:03:35.04</time>
<name>3426</name>
</trkpt>
<trkpt lat="48.937753" lon="8.661935">
<ele>298.5</ele>
<speed>1.6</speed>
<course>37.2</course>
<desc>Speed 1.6 km/h Distance 3.81 km</desc>
<time>2010-02-24T18:03:36.04</time>
<name>3427</name>
</trkpt>
<trkpt lat="48.937755" lon="8.661937">
<ele>298.5</ele>
<speed>0.2</speed>
<course>90.0</course>
<desc>Speed 0.2 km/h Distance 3.81 km</desc>
<time>2010-02-24T18:03:37.04</time>
<name>3428</name>
</trkpt>
<trkpt lat="48.937755" lon="8.661938">
<ele>299.0</ele>
<speed>0.3</speed>
<course>12.6</course>
<desc>Speed 0.3 km/h Distance 3.81 km</desc>
<time>2010-02-24T18:03:38.04</time>
<name>3429</name>
</trkpt>
<trkpt lat="48.937757" lon="8.661938">
<ele>299.0</ele>
<speed>0.3</speed>
<course>12.6</course>
<desc>Speed 0.3 km/h Distance 3.81 km</desc>
<time>2010-02-24T18:03:39.04</time>
<name>3430</name>
</trkpt>
<trkpt lat="48.937757" lon="8.661938">
<ele>299.0</ele>
<speed>0.3</speed>
<course>90.0</course>
<desc>Speed 0.3 km/h Distance 3.81 km</desc>
<time>2010-02-24T18:03:40.04</time>
<name>3431</name>
</trkpt>
<trkpt lat="48.937757" lon="8.661940">
<ele>298.5</ele>
<speed>0.3</speed>
<course>90.0</course>
<desc>Speed 0.3 km/h Distance 3.81 km</desc>
<time>2010-02-24T18:03:41.04</time>
<name>3432</name>
</trkpt>
<trkpt lat="48.937757" lon="8.661940">
<ele>298.5</ele>
<speed>0.3</speed>
<course>90.0</course>
<desc>Speed 0.3 km/h Distance 3.81 km</desc>
<time>2010-02-24T18:03:42.04</time>
<name>3433</name>
</trkpt>
<trkpt lat="48.937757" lon="8.661940">
<ele>298.5</ele>
<speed>0.4</speed>
<course>90.0</course>
<desc>Speed 0.4 km/h Distance 3.81 km</desc>
<time>2010-02-24T18:03:43.04</time>
<name>3434</name>
</trkpt>
<trkpt lat="48.937757" lon="8.661940">
<ele>298.0</ele>
<speed>0.2</speed>
<course>90.0</course>
<desc>Speed 0.2 km/h Distance 3.81 km</desc>
<time>2010-02-24T18:03:44.04</time>
<name>3435</name>
</trkpt>
<trkpt lat="48.937757" lon="8.661940">
<ele>298.0</ele>
<speed>0.9</speed>
<course>90.0</course>
<desc>Speed 0.9 km/h Distance 3.81 km</desc>
<time>2010-02-24T18:03:45.04</time>
<name>3436</name>
</trkpt>
<trkpt lat="48.937757" lon="8.661942">
<ele>297.5</ele>
<speed>0.4</speed>
<course>12.6</course>
<desc>Speed 0.4 km/h Distance 3.81 km</desc>
<time>2010-02-24T18:03:46.04</time>
<name>3437</name>
</trkpt>
<trkpt lat="48.937758" lon="8.661942">
<ele>297.5</ele>
<speed>0.2</speed>
<course>12.6</course>
<desc>Speed 0.2 km/h Distance 3.81 km</desc>
<time>2010-02-24T18:03:47.04</time>
<name>3438</name>
</trkpt>
<trkpt lat="48.937760" lon="8.661942">
<ele>297.5</ele>
<speed>0.4</speed>
<course>12.6</course>
<desc>Speed 0.4 km/h Distance 3.81 km</desc>
<time>2010-02-24T18:03:48.04</time>
<name>3439</name>
</trkpt>
<trkpt lat="48.937762" lon="8.661943">
<ele>297.5</ele>
<speed>0.2</speed>
<course>12.6</course>
<desc>Speed 0.2 km/h Distance 3.81 km</desc>
<time>2010-02-24T18:03:49.04</time>
<name>3440</name>
</trkpt>
<trkpt lat="48.937762" lon="8.661942">
<ele>298.0</ele>
<speed>0.3</speed>
<course>0.0</course>
<desc>Speed 0.3 km/h Distance 3.81 km</desc>
<time>2010-02-24T18:03:50.04</time>
<name>3441</name>
</trkpt>
<trkpt lat="48.937763" lon="8.661942">
<ele>298.0</ele>
<speed>0.2</speed>
<course>0.0</course>
<desc>Speed 0.2 km/h Distance 3.81 km</desc>
<time>2010-02-24T18:03:51.54</time>
<name>3442</name>
</trkpt>
<trkpt lat="48.937763" lon="8.661942">
<ele>298.0</ele>
<speed>0.2</speed>
<course>0.0</course>
<desc>Speed 0.2 km/h Distance 3.81 km</desc>
<time>2010-02-24T18:03:52.04</time>
<name>3443</name>
</trkpt>
<trkpt lat="48.937763" lon="8.661942">
<ele>298.0</ele>
<speed>0.3</speed>
<course>0.0</course>
<desc>Speed 0.3 km/h Distance 3.81 km</desc>
<time>2010-02-24T18:03:53.54</time>
<name>3444</name>
</trkpt>
<trkpt lat="48.937763" lon="8.661942">
<ele>297.5</ele>
<speed>0.3</speed>
<course>0.0</course>
<desc>Speed 0.3 km/h Distance 3.81 km</desc>
<time>2010-02-24T18:03:54.53</time>
<name>3445</name>
</trkpt>
<trkpt lat="48.937763" lon="8.661942">
<ele>297.5</ele>
<speed>0.3</speed>
<course>44.5</course>
<desc>Speed 0.3 km/h Distance 3.81 km</desc>
<time>2010-02-24T18:03:55.53</time>
<name>3446</name>
</trkpt>
<trkpt lat="48.937767" lon="8.661947">
<ele>297.0</ele>
<speed>1.3</speed>
<course>90.0</course>
<desc>Speed 1.3 km/h Distance 3.81 km</desc>
<time>2010-02-24T18:03:56.53</time>
<name>3447</name>
</trkpt>
<trkpt lat="48.937767" lon="8.661950">
<ele>297.0</ele>
<speed>1.3</speed>
<course>90.0</course>
<desc>Speed 1.3 km/h Distance 3.81 km</desc>
<time>2010-02-24T18:03:57.53</time>
<name>3448</name>
</trkpt>
<trkpt lat="48.937767" lon="8.661957">
<ele>296.5</ele>
<speed>1.5</speed>
<course>90.0</course>
<desc>Speed 1.5 km/h Distance 3.81 km</desc>
<time>2010-02-24T18:03:58.53</time>
<name>3449</name>
</trkpt>
<trkpt lat="48.937767" lon="8.661960">
<ele>296.5</ele>
<speed>0.6</speed>
<course>29.2</course>
<desc>Speed 0.6 km/h Distance 3.81 km</desc>
<time>2010-02-24T18:03:59.53</time>
<name>3450</name>
</trkpt>
<trkpt lat="48.937768" lon="8.661962">
<ele>296.5</ele>
<speed>0.3</speed>
<course>90.0</course>
<desc>Speed 0.3 km/h Distance 3.81 km</desc>
<time>2010-02-24T18:04:00.53</time>
<name>3451</name>
</trkpt>
<trkpt lat="48.937768" lon="8.661963">
<ele>296.0</ele>
<speed>0.3</speed>
<course>51.9</course>
<desc>Speed 0.3 km/h Distance 3.81 km</desc>
<time>2010-02-24T18:04:01.53</time>
<name>3452</name>
</trkpt>
<trkpt lat="48.937770" lon="8.661967">
<ele>296.0</ele>
<speed>0.5</speed>
<course>90.0</course>
<desc>Speed 0.5 km/h Distance 3.81 km</desc>
<time>2010-02-24T18:04:02.52</time>
<name>3453</name>
</trkpt>
<trkpt lat="48.937770" lon="8.661968">
<ele>296.0</ele>
<speed>0.2</speed>
<course>90.0</course>
<desc>Speed 0.2 km/h Distance 3.81 km</desc>
<time>2010-02-24T18:04:03.55</time>
<name>3454</name>
</trkpt>
<trkpt lat="48.937770" lon="8.661968">
<ele>296.0</ele>
<speed>0.2</speed>
<course>12.6</course>
<desc>Speed 0.2 km/h Distance 3.81 km</desc>
<time>2010-02-24T18:04:04.04</time>
<name>3455</name>
</trkpt>
<trkpt lat="48.937773" lon="8.661970">
<ele>296.0</ele>
<speed>0.2</speed>
<course>12.6</course>
<desc>Speed 0.2 km/h Distance 3.81 km</desc>
<time>2010-02-24T18:04:05.52</time>
<name>3456</name>
</trkpt>
<trkpt lat="48.937773" lon="8.661972">
<ele>296.0</ele>
<speed>0.3</speed>
<course>12.6</course>
<desc>Speed 0.3 km/h Distance 3.81 km</desc>
<time>2010-02-24T18:04:06.54</time>
<name>3457</name>
</trkpt>
<trkpt lat="48.937773" lon="8.661972">
<ele>296.0</ele>
<speed>0.3</speed>
<course>29.2</course>
<desc>Speed 0.3 km/h Distance 3.81 km</desc>
<time>2010-02-24T18:04:07.04</time>
<name>3458</name>
</trkpt>
<trkpt lat="48.937775" lon="8.661973">
<ele>296.0</ele>
<speed>0.3</speed>
<course>29.2</course>
<desc>Speed 0.3 km/h Distance 3.81 km</desc>
<time>2010-02-24T18:04:08.52</time>
<name>3459</name>
</trkpt>
<trkpt lat="48.937775" lon="8.661973">
<ele>296.0</ele>
<speed>0.3</speed>
<course>29.2</course>
<desc>Speed 0.3 km/h Distance 3.81 km</desc>
<time>2010-02-24T18:04:09.53</time>
<name>3460</name>
</trkpt>
<trkpt lat="48.937775" lon="8.661973">
<ele>296.0</ele>
<speed>0.3</speed>
<course>90.0</course>
<desc>Speed 0.3 km/h Distance 3.81 km</desc>
<time>2010-02-24T18:04:10.53</time>
<name>3461</name>
</trkpt>
<trkpt lat="48.937775" lon="8.661975">
<ele>296.0</ele>
<speed>0.3</speed>
<course>90.0</course>
<desc>Speed 0.3 km/h Distance 3.81 km</desc>
<time>2010-02-24T18:04:11.52</time>
<name>3462</name>
</trkpt>
<trkpt lat="48.937775" lon="8.661975">
<ele>296.0</ele>
<speed>0.6</speed>
<course>90.0</course>
<desc>Speed 0.6 km/h Distance 3.81 km</desc>
<time>2010-02-24T18:04:12.52</time>
<name>3463</name>
</trkpt>
<trkpt lat="48.937775" lon="8.661978">
<ele>296.0</ele>
<speed>1.0</speed>
<course>44.5</course>
<desc>Speed 1.0 km/h Distance 3.81 km</desc>
<time>2010-02-24T18:04:13.52</time>
<name>3464</name>
</trkpt>
<trkpt lat="48.937778" lon="8.661983">
<ele>296.0</ele>
<speed>1.6</speed>
<course>75.8</course>
<desc>Speed 1.6 km/h Distance 3.82 km</desc>
<time>2010-02-24T18:04:14.52</time>
<name>3465</name>
</trkpt>
<trkpt lat="48.937780" lon="8.661993">
<ele>296.0</ele>
<speed>2.3</speed>
<course>69.5</course>
<desc>Speed 2.3 km/h Distance 3.82 km</desc>
<time>2010-02-24T18:04:15.52</time>
<name>3466</name>
</trkpt>
<trkpt lat="48.937782" lon="8.662000">
<ele>296.0</ele>
<speed>2.1</speed>
<course>106.7</course>
<desc>Speed 2.1 km/h Distance 3.82 km</desc>
<time>2010-02-24T18:04:16.52</time>
<name>3467</name>
</trkpt>
<trkpt lat="48.937780" lon="8.662008">
<ele>296.0</ele>
<speed>2.3</speed>
<course>90.0</course>
<desc>Speed 2.3 km/h Distance 3.82 km</desc>
<time>2010-02-24T18:04:17.52</time>
<name>3468</name>
</trkpt>
<trkpt lat="48.937780" lon="8.662017">
<ele>296.0</ele>
<speed>1.8</speed>
<course>66.5</course>
<desc>Speed 1.8 km/h Distance 3.82 km</desc>
<time>2010-02-24T18:04:18.52</time>
<name>3469</name>
</trkpt>
<trkpt lat="48.937783" lon="8.662028">
<ele>296.0</ele>
<speed>2.4</speed>
<course>66.5</course>
<desc>Speed 2.4 km/h Distance 3.82 km</desc>
<time>2010-02-24T18:04:19.54</time>
<name>3470</name>
</trkpt>
<trkpt lat="48.937783" lon="8.662028">
<ele>296.0</ele>
<speed>2.4</speed>
<course>63.2</course>
<desc>Speed 2.4 km/h Distance 3.82 km</desc>
<time>2010-02-24T18:04:20.04</time>
<name>3471</name>
</trkpt>
<trkpt lat="48.937790" lon="8.662048">
<ele>296.5</ele>
<speed>3.2</speed>
<course>41.9</course>
<desc>Speed 3.2 km/h Distance 3.82 km</desc>
<time>2010-02-24T18:04:21.52</time>
<name>3472</name>
</trkpt>
<trkpt lat="48.937795" lon="8.662055">
<ele>296.5</ele>
<speed>2.2</speed>
<course>90.0</course>
<desc>Speed 2.2 km/h Distance 3.82 km</desc>
<time>2010-02-24T18:04:22.52</time>
<name>3473</name>
</trkpt>
<trkpt lat="48.937795" lon="8.662060">
<ele>296.5</ele>
<speed>1.0</speed>
<course>270.0</course>
<desc>Speed 1.0 km/h Distance 3.82 km</desc>
<time>2010-02-24T18:04:23.52</time>
<name>3474</name>
</trkpt>
<trkpt lat="48.937795" lon="8.662058">
<ele>296.5</ele>
<speed>0.4</speed>
<course>270.0</course>
<desc>Speed 0.4 km/h Distance 3.82 km</desc>
<time>2010-02-24T18:04:24.52</time>
<name>3475</name>
</trkpt>
<trkpt lat="48.937795" lon="8.662058">
<ele>296.5</ele>
<speed>0.1</speed>
<course>12.6</course>
<desc>Speed 0.1 km/h Distance 3.82 km</desc>
<time>2010-02-24T18:04:25.51</time>
<name>3476</name>
</trkpt>
<trkpt lat="48.937797" lon="8.662058">
<ele>297.0</ele>
<speed>0.4</speed>
<course>12.6</course>
<desc>Speed 0.4 km/h Distance 3.82 km</desc>
<time>2010-02-24T18:04:26.51</time>
<name>3477</name>
</trkpt>
<trkpt lat="48.937797" lon="8.662058">
<ele>297.0</ele>
<speed>0.3</speed>
<course>12.6</course>
<desc>Speed 0.3 km/h Distance 3.82 km</desc>
<time>2010-02-24T18:04:27.51</time>
<name>3478</name>
</trkpt>
<trkpt lat="48.937798" lon="8.662058">
<ele>297.0</ele>
<speed>0.2</speed>
<course>12.6</course>
<desc>Speed 0.2 km/h Distance 3.82 km</desc>
<time>2010-02-24T18:04:28.51</time>
<name>3479</name>
</trkpt>
<trkpt lat="48.937798" lon="8.662058">
<ele>297.0</ele>
<speed>0.2</speed>
<course>12.6</course>
<desc>Speed 0.2 km/h Distance 3.82 km</desc>
<time>2010-02-24T18:04:29.50</time>
<name>3480</name>
</trkpt>
<trkpt lat="48.937798" lon="8.662058">
<ele>297.0</ele>
<speed>0.2</speed>
<course>12.6</course>
<desc>Speed 0.2 km/h Distance 3.82 km</desc>
<time>2010-02-24T18:04:30.50</time>
<name>3481</name>
</trkpt>
<trkpt lat="48.937798" lon="8.662058">
<ele>297.0</ele>
<speed>0.2</speed>
<course>270.0</course>
<desc>Speed 0.2 km/h Distance 3.82 km</desc>
<time>2010-02-24T18:04:31.50</time>
<name>3482</name>
</trkpt>
<trkpt lat="48.937798" lon="8.662057">
<ele>297.0</ele>
<speed>0.2</speed>
<course>270.0</course>
<desc>Speed 0.2 km/h Distance 3.82 km</desc>
<time>2010-02-24T18:04:32.50</time>
<name>3483</name>
</trkpt>
<trkpt lat="48.937798" lon="8.662057">
<ele>297.0</ele>
<speed>0.3</speed>
<course>270.0</course>
<desc>Speed 0.3 km/h Distance 3.82 km</desc>
<time>2010-02-24T18:04:33.51</time>
<name>3484</name>
</trkpt>
<trkpt lat="48.937798" lon="8.662057">
<ele>297.0</ele>
<speed>0.4</speed>
<course>270.0</course>
<desc>Speed 0.4 km/h Distance 3.82 km</desc>
<time>2010-02-24T18:04:34.50</time>
<name>3485</name>
</trkpt>
<trkpt lat="48.937798" lon="8.662057">
<ele>297.0</ele>
<speed>0.3</speed>
<course>270.0</course>
<desc>Speed 0.3 km/h Distance 3.82 km</desc>
<time>2010-02-24T18:04:35.51</time>
<name>3486</name>
</trkpt>
<trkpt lat="48.937798" lon="8.662057">
<ele>297.0</ele>
<speed>0.2</speed>
<course>270.0</course>
<desc>Speed 0.2 km/h Distance 3.82 km</desc>
<time>2010-02-24T18:04:36.53</time>
<name>3487</name>
</trkpt>
<trkpt lat="48.937798" lon="8.662055">
<ele>296.5</ele>
<speed>0.4</speed>
<course>270.0</course>
<desc>Speed 0.4 km/h Distance 3.82 km</desc>
<time>2010-02-24T18:04:37.51</time>
<name>3488</name>
</trkpt>
<trkpt lat="48.937798" lon="8.662055">
<ele>296.5</ele>
<speed>0.3</speed>
<course>270.0</course>
<desc>Speed 0.3 km/h Distance 3.82 km</desc>
<time>2010-02-24T18:04:38.50</time>
<name>3489</name>
</trkpt>
<trkpt lat="48.937798" lon="8.662055">
<ele>296.5</ele>
<speed>0.1</speed>
<course>270.0</course>
<desc>Speed 0.1 km/h Distance 3.82 km</desc>
<time>2010-02-24T18:04:39.51</time>
<name>3490</name>
</trkpt>
<trkpt lat="48.937798" lon="8.662053">
<ele>296.5</ele>
<speed>0.2</speed>
<course>90.0</course>
<desc>Speed 0.2 km/h Distance 3.82 km</desc>
<time>2010-02-24T18:04:40.50</time>
<name>3491</name>
</trkpt>
<trkpt lat="48.937798" lon="8.662063">
<ele>295.5</ele>
<speed>2.6</speed>
<course>33.2</course>
<desc>Speed 2.6 km/h Distance 3.82 km</desc>
<time>2010-02-24T18:04:41.50</time>
<name>3492</name>
</trkpt>
<trkpt lat="48.937803" lon="8.662068">
<ele>294.5</ele>
<speed>2.5</speed>
<course>73.3</course>
<desc>Speed 2.5 km/h Distance 3.82 km</desc>
<time>2010-02-24T18:04:42.50</time>
<name>3493</name>
</trkpt>
<trkpt lat="48.937805" lon="8.662077">
<ele>294.5</ele>
<speed>3.1</speed>
<course>47.8</course>
<desc>Speed 3.1 km/h Distance 3.82 km</desc>
<time>2010-02-24T18:04:43.50</time>
<name>3494</name>
</trkpt>
<trkpt lat="48.937810" lon="8.662085">
<ele>294.5</ele>
<speed>3.2</speed>
<course>39.7</course>
<desc>Speed 3.2 km/h Distance 3.82 km</desc>
<time>2010-02-24T18:04:44.50</time>
<name>3495</name>
</trkpt>
<trkpt lat="48.937817" lon="8.662093">
<ele>294.0</ele>
<speed>4.1</speed>
<course>33.7</course>
<desc>Speed 4.1 km/h Distance 3.83 km</desc>
<time>2010-02-24T18:04:45.50</time>
<name>3496</name>
</trkpt>
<trkpt lat="48.937823" lon="8.662100">
<ele>294.0</ele>
<speed>3.8</speed>
<course>39.4</course>
<desc>Speed 3.8 km/h Distance 3.83 km</desc>
<time>2010-02-24T18:04:46.50</time>
<name>3497</name>
</trkpt>
<trkpt lat="48.937830" lon="8.662108">
<ele>294.5</ele>
<speed>3.9</speed>
<course>27.9</course>
<desc>Speed 3.9 km/h Distance 3.83 km</desc>
<time>2010-02-24T18:04:47.50</time>
<name>3498</name>
</trkpt>
<trkpt lat="48.937838" lon="8.662115">
<ele>294.5</ele>
<speed>4.3</speed>
<course>48.9</course>
<desc>Speed 4.3 km/h Distance 3.83 km</desc>
<time>2010-02-24T18:04:48.50</time>
<name>3499</name>
</trkpt>
<trkpt lat="48.937845" lon="8.662127">
<ele>294.5</ele>
<speed>4.3</speed>
<course>33.7</course>
<desc>Speed 4.3 km/h Distance 3.83 km</desc>
<time>2010-02-24T18:04:49.50</time>
<name>3500</name>
</trkpt>
<trkpt lat="48.937852" lon="8.662133">
<ele>294.5</ele>
<speed>3.6</speed>
<course>38.1</course>
<desc>Speed 3.6 km/h Distance 3.83 km</desc>
<time>2010-02-24T18:04:50.50</time>
<name>3501</name>
</trkpt>
<trkpt lat="48.937860" lon="8.662143">
<ele>294.5</ele>
<speed>3.8</speed>
<course>27.5</course>
<desc>Speed 3.8 km/h Distance 3.83 km</desc>
<time>2010-02-24T18:04:51.50</time>
<name>3502</name>
</trkpt>
<trkpt lat="48.937868" lon="8.662150">
<ele>294.5</ele>
<speed>3.7</speed>
<course>33.2</course>
<desc>Speed 3.7 km/h Distance 3.83 km</desc>
<time>2010-02-24T18:04:52.52</time>
<name>3503</name>
</trkpt>
<trkpt lat="48.937877" lon="8.662158">
<ele>294.5</ele>
<speed>3.9</speed>
<course>44.3</course>
<desc>Speed 3.9 km/h Distance 3.83 km</desc>
<time>2010-02-24T18:04:53.50</time>
<name>3504</name>
</trkpt>
<trkpt lat="48.937883" lon="8.662168">
<ele>294.5</ele>
<speed>3.9</speed>
<course>27.5</course>
<desc>Speed 3.9 km/h Distance 3.84 km</desc>
<time>2010-02-24T18:04:54.50</time>
<name>3505</name>
</trkpt>
<trkpt lat="48.937892" lon="8.662175">
<ele>294.5</ele>
<speed>3.4</speed>
<course>33.2</course>
<desc>Speed 3.4 km/h Distance 3.84 km</desc>
<time>2010-02-24T18:04:55.50</time>
<name>3506</name>
</trkpt>
<trkpt lat="48.937898" lon="8.662182">
<ele>294.5</ele>
<speed>3.5</speed>
<course>21.5</course>
<desc>Speed 3.5 km/h Distance 3.84 km</desc>
<time>2010-02-24T18:04:56.50</time>
<name>3507</name>
</trkpt>
<trkpt lat="48.937907" lon="8.662187">
<ele>294.5</ele>
<speed>3.2</speed>
<course>49.1</course>
<desc>Speed 3.2 km/h Distance 3.84 km</desc>
<time>2010-02-24T18:04:57.50</time>
<name>3508</name>
</trkpt>
<trkpt lat="48.937913" lon="8.662198">
<ele>294.5</ele>
<speed>4.0</speed>
<course>49.1</course>
<desc>Speed 4.0 km/h Distance 3.84 km</desc>
<time>2010-02-24T18:04:58.49</time>
<name>3509</name>
</trkpt>
<trkpt lat="48.937920" lon="8.662210">
<ele>294.5</ele>
<speed>4.2</speed>
<course>52.7</course>
<desc>Speed 4.2 km/h Distance 3.84 km</desc>
<time>2010-02-24T18:04:59.49</time>
<name>3510</name>
</trkpt>
<trkpt lat="48.937927" lon="8.662223">
<ele>294.5</ele>
<speed>3.9</speed>
<course>60.3</course>
<desc>Speed 3.9 km/h Distance 3.84 km</desc>
<time>2010-02-24T18:05:00.49</time>
<name>3511</name>
</trkpt>
<trkpt lat="48.937932" lon="8.662237">
<ele>294.5</ele>
<speed>4.5</speed>
<course>56.1</course>
<desc>Speed 4.5 km/h Distance 3.84 km</desc>
<time>2010-02-24T18:05:01.49</time>
<name>3512</name>
</trkpt>
<trkpt lat="48.937938" lon="8.662252">
<ele>294.5</ele>
<speed>4.2</speed>
<course>52.8</course>
<desc>Speed 4.2 km/h Distance 3.84 km</desc>
<time>2010-02-24T18:05:02.49</time>
<name>3513</name>
</trkpt>
<trkpt lat="48.937945" lon="8.662265">
<ele>294.5</ele>
<speed>4.2</speed>
<course>56.9</course>
<desc>Speed 4.2 km/h Distance 3.85 km</desc>
<time>2010-02-24T18:05:03.49</time>
<name>3514</name>
</trkpt>
<trkpt lat="48.937950" lon="8.662277">
<ele>294.5</ele>
<speed>4.0</speed>
<course>39.4</course>
<desc>Speed 4.0 km/h Distance 3.85 km</desc>
<time>2010-02-24T18:05:04.49</time>
<name>3515</name>
</trkpt>
<trkpt lat="48.937957" lon="8.662285">
<ele>294.5</ele>
<speed>3.1</speed>
<course>56.9</course>
<desc>Speed 3.1 km/h Distance 3.85 km</desc>
<time>2010-02-24T18:05:05.49</time>
<name>3516</name>
</trkpt>
<trkpt lat="48.937962" lon="8.662297">
<ele>294.5</ele>
<speed>3.7</speed>
<course>40.9</course>
<desc>Speed 3.7 km/h Distance 3.85 km</desc>
<time>2010-02-24T18:05:06.48</time>
<name>3517</name>
</trkpt>
<trkpt lat="48.937967" lon="8.662303">
<ele>294.5</ele>
<speed>2.6</speed>
<course>39.4</course>
<desc>Speed 2.6 km/h Distance 3.85 km</desc>
<time>2010-02-24T18:05:07.49</time>
<name>3518</name>
</trkpt>
<trkpt lat="48.937973" lon="8.662312">
<ele>294.5</ele>
<speed>3.4</speed>
<course>49.1</course>
<desc>Speed 3.4 km/h Distance 3.85 km</desc>
<time>2010-02-24T18:05:08.48</time>
<name>3519</name>
</trkpt>
<trkpt lat="48.937980" lon="8.662323">
<ele>294.5</ele>
<speed>3.5</speed>
<course>49.1</course>
<desc>Speed 3.5 km/h Distance 3.85 km</desc>
<time>2010-02-24T18:05:09.49</time>
<name>3520</name>
</trkpt>
<trkpt lat="48.937987" lon="8.662335">
<ele>294.5</ele>
<speed>3.9</speed>
<course>40.9</course>
<desc>Speed 3.9 km/h Distance 3.85 km</desc>
<time>2010-02-24T18:05:10.50</time>
<name>3521</name>
</trkpt>
<trkpt lat="48.937992" lon="8.662342">
<ele>295.0</ele>
<speed>3.7</speed>
<course>52.7</course>
<desc>Speed 3.7 km/h Distance 3.85 km</desc>
<time>2010-02-24T18:05:11.51</time>
<name>3522</name>
</trkpt>
<trkpt lat="48.937998" lon="8.662355">
<ele>295.0</ele>
<speed>3.9</speed>
<course>39.7</course>
<desc>Speed 3.9 km/h Distance 3.85 km</desc>
<time>2010-02-24T18:05:12.48</time>
<name>3523</name>
</trkpt>
<trkpt lat="48.938005" lon="8.662363">
<ele>295.0</ele>
<speed>3.4</speed>
<course>39.4</course>
<desc>Speed 3.4 km/h Distance 3.86 km</desc>
<time>2010-02-24T18:05:13.49</time>
<name>3524</name>
</trkpt>
<trkpt lat="48.938012" lon="8.662372">
<ele>295.0</ele>
<speed>3.3</speed>
<course>39.4</course>
<desc>Speed 3.3 km/h Distance 3.86 km</desc>
<time>2010-02-24T18:05:14.49</time>
<name>3525</name>
</trkpt>
<trkpt lat="48.938018" lon="8.662380">
<ele>295.0</ele>
<speed>3.3</speed>
<course>38.1</course>
<desc>Speed 3.3 km/h Distance 3.86 km</desc>
<time>2010-02-24T18:05:15.49</time>
<name>3526</name>
</trkpt>
<trkpt lat="48.938027" lon="8.662390">
<ele>295.0</ele>
<speed>3.7</speed>
<course>44.5</course>
<desc>Speed 3.7 km/h Distance 3.86 km</desc>
<time>2010-02-24T18:05:16.49</time>
<name>3527</name>
</trkpt>
<trkpt lat="48.938033" lon="8.662400">
<ele>295.0</ele>
<speed>3.2</speed>
<course>33.7</course>
<desc>Speed 3.2 km/h Distance 3.86 km</desc>
<time>2010-02-24T18:05:17.49</time>
<name>3528</name>
</trkpt>
<trkpt lat="48.938040" lon="8.662407">
<ele>295.0</ele>
<speed>2.8</speed>
<course>24.8</course>
<desc>Speed 2.8 km/h Distance 3.86 km</desc>
<time>2010-02-24T18:05:18.48</time>
<name>3529</name>
</trkpt>
<trkpt lat="48.938047" lon="8.662412">
<ele>295.0</ele>
<speed>2.8</speed>
<course>53.0</course>
<desc>Speed 2.8 km/h Distance 3.86 km</desc>
<time>2010-02-24T18:05:19.48</time>
<name>3530</name>
</trkpt>
<trkpt lat="48.938050" lon="8.662418">
<ele>295.0</ele>
<speed>2.0</speed>
<course>20.8</course>
<desc>Speed 2.0 km/h Distance 3.86 km</desc>
<time>2010-02-24T18:05:20.48</time>
<name>3531</name>
</trkpt>
<trkpt lat="48.938058" lon="8.662423">
<ele>295.0</ele>
<speed>2.8</speed>
<course>40.9</course>
<desc>Speed 2.8 km/h Distance 3.86 km</desc>
<time>2010-02-24T18:05:21.48</time>
<name>3532</name>
</trkpt>
<trkpt lat="48.938063" lon="8.662430">
<ele>295.0</ele>
<speed>2.7</speed>
<course>47.8</course>
<desc>Speed 2.7 km/h Distance 3.86 km</desc>
<time>2010-02-24T18:05:22.51</time>
<name>3533</name>
</trkpt>
<trkpt lat="48.938068" lon="8.662438">
<ele>295.0</ele>
<speed>2.1</speed>
<course>33.2</course>
<desc>Speed 2.1 km/h Distance 3.86 km</desc>
<time>2010-02-24T18:05:23.48</time>
<name>3534</name>
</trkpt>
<trkpt lat="48.938077" lon="8.662447">
<ele>295.0</ele>
<speed>2.8</speed>
<course>28.6</course>
<desc>Speed 2.8 km/h Distance 3.87 km</desc>
<time>2010-02-24T18:05:24.48</time>
<name>3535</name>
</trkpt>
<trkpt lat="48.938087" lon="8.662455">
<ele>295.0</ele>
<speed>2.7</speed>
<course>44.6</course>
<desc>Speed 2.7 km/h Distance 3.87 km</desc>
<time>2010-02-24T18:05:25.48</time>
<name>3536</name>
</trkpt>
<trkpt lat="48.938097" lon="8.662470">
<ele>295.0</ele>
<speed>3.5</speed>
<course>40.9</course>
<desc>Speed 3.5 km/h Distance 3.87 km</desc>
<time>2010-02-24T18:05:26.50</time>
<name>3537</name>
</trkpt>
<trkpt lat="48.938102" lon="8.662477">
<ele>295.5</ele>
<speed>2.2</speed>
<course>341.2</course>
<desc>Speed 2.2 km/h Distance 3.87 km</desc>
<time>2010-02-24T18:05:27.48</time>
<name>3538</name>
</trkpt>
<trkpt lat="48.938105" lon="8.662475">
<ele>295.0</ele>
<speed>0.5</speed>
<course>7.4</course>
<desc>Speed 0.5 km/h Distance 3.87 km</desc>
<time>2010-02-24T18:05:28.48</time>
<name>3539</name>
</trkpt>
<trkpt lat="48.938112" lon="8.662477">
<ele>295.0</ele>
<speed>1.6</speed>
<course>20.8</course>
<desc>Speed 1.6 km/h Distance 3.87 km</desc>
<time>2010-02-24T18:05:29.50</time>
<name>3540</name>
</trkpt>
<trkpt lat="48.938120" lon="8.662482">
<ele>295.0</ele>
<speed>2.7</speed>
<course>7.4</course>
<desc>Speed 2.7 km/h Distance 3.87 km</desc>
<time>2010-02-24T18:05:30.47</time>
<name>3541</name>
</trkpt>
<trkpt lat="48.938127" lon="8.662483">
<ele>295.0</ele>
<speed>1.9</speed>
<course>1.2</course>
<desc>Speed 1.9 km/h Distance 3.87 km</desc>
<time>2010-02-24T18:05:31.48</time>
<name>3542</name>
</trkpt>
<trkpt lat="48.938133" lon="8.662483">
<ele>295.0</ele>
<speed>1.4</speed>
<course>0.0</course>
<desc>Speed 1.4 km/h Distance 3.87 km</desc>
<time>2010-02-24T18:05:32.47</time>
<name>3543</name>
</trkpt>
<trkpt lat="48.938137" lon="8.662483">
<ele>295.0</ele>
<speed>0.4</speed>
<course>12.6</course>
<desc>Speed 0.4 km/h Distance 3.87 km</desc>
<time>2010-02-24T18:05:33.47</time>
<name>3544</name>
</trkpt>
<trkpt lat="48.938138" lon="8.662483">
<ele>295.0</ele>
<speed>0.3</speed>
<course>90.0</course>
<desc>Speed 0.3 km/h Distance 3.87 km</desc>
<time>2010-02-24T18:05:34.47</time>
<name>3545</name>
</trkpt>
<trkpt lat="48.938138" lon="8.662485">
<ele>295.0</ele>
<speed>0.3</speed>
<course>33.7</course>
<desc>Speed 0.3 km/h Distance 3.87 km</desc>
<time>2010-02-24T18:05:35.47</time>
<name>3546</name>
</trkpt>
<trkpt lat="48.938142" lon="8.662488">
<ele>295.5</ele>
<speed>0.1</speed>
<course>37.2</course>
<desc>Speed 0.1 km/h Distance 3.87 km</desc>
<time>2010-02-24T18:05:36.47</time>
<name>3547</name>
</trkpt>
<trkpt lat="48.938143" lon="8.662490">
<ele>295.5</ele>
<speed>0.3</speed>
<course>29.2</course>
<desc>Speed 0.3 km/h Distance 3.87 km</desc>
<time>2010-02-24T18:05:37.49</time>
<name>3548</name>
</trkpt>
<trkpt lat="48.938145" lon="8.662492">
<ele>295.5</ele>
<speed>0.3</speed>
<course>29.2</course>
<desc>Speed 0.3 km/h Distance 3.87 km</desc>
<time>2010-02-24T18:05:38.49</time>
<name>3549</name>
</trkpt>
<trkpt lat="48.938147" lon="8.662493">
<ele>295.5</ele>
<speed>0.3</speed>
<course>12.6</course>
<desc>Speed 0.3 km/h Distance 3.87 km</desc>
<time>2010-02-24T18:05:39.47</time>
<name>3550</name>
</trkpt>
<trkpt lat="48.938148" lon="8.662493">
<ele>295.5</ele>
<speed>0.3</speed>
<course>90.0</course>
<desc>Speed 0.3 km/h Distance 3.87 km</desc>
<time>2010-02-24T18:05:40.47</time>
<name>3551</name>
</trkpt>
<trkpt lat="48.938148" lon="8.662495">
<ele>295.5</ele>
<speed>0.2</speed>
<course>90.0</course>
<desc>Speed 0.2 km/h Distance 3.87 km</desc>
<time>2010-02-24T18:05:41.49</time>
<name>3552</name>
</trkpt>
<trkpt lat="48.938148" lon="8.662497">
<ele>296.0</ele>
<speed>0.3</speed>
<course>37.2</course>
<desc>Speed 0.3 km/h Distance 3.87 km</desc>
<time>2010-02-24T18:05:42.47</time>
<name>3553</name>
</trkpt>
<trkpt lat="48.938150" lon="8.662498">
<ele>296.0</ele>
<speed>0.4</speed>
<course>37.2</course>
<desc>Speed 0.4 km/h Distance 3.88 km</desc>
<time>2010-02-24T18:05:43.46</time>
<name>3554</name>
</trkpt>
<trkpt lat="48.938150" lon="8.662498">
<ele>296.0</ele>
<speed>0.5</speed>
<course>12.6</course>
<desc>Speed 0.5 km/h Distance 3.88 km</desc>
<time>2010-02-24T18:05:44.47</time>
<name>3555</name>
</trkpt>
<trkpt lat="48.938153" lon="8.662498">
<ele>296.0</ele>
<speed>1.2</speed>
<course>21.5</course>
<desc>Speed 1.2 km/h Distance 3.88 km</desc>
<time>2010-02-24T18:05:45.49</time>
<name>3556</name>
</trkpt>
<trkpt lat="48.938162" lon="8.662503">
<ele>296.5</ele>
<speed>2.7</speed>
<course>7.7</course>
<desc>Speed 2.7 km/h Distance 3.88 km</desc>
<time>2010-02-24T18:05:46.46</time>
<name>3557</name>
</trkpt>
<trkpt lat="48.938170" lon="8.662505">
<ele>296.5</ele>
<speed>2.7</speed>
<course>23.4</course>
<desc>Speed 2.7 km/h Distance 3.88 km</desc>
<time>2010-02-24T18:05:47.48</time>
<name>3558</name>
</trkpt>
<trkpt lat="48.938180" lon="8.662512">
<ele>296.5</ele>
<speed>3.3</speed>
<course>7.4</course>
<desc>Speed 3.3 km/h Distance 3.88 km</desc>
<time>2010-02-24T18:05:48.46</time>
<name>3559</name>
</trkpt>
<trkpt lat="48.938187" lon="8.662513">
<ele>296.5</ele>
<speed>3.2</speed>
<course>21.5</course>
<desc>Speed 3.2 km/h Distance 3.88 km</desc>
<time>2010-02-24T18:05:49.46</time>
<name>3560</name>
</trkpt>
<trkpt lat="48.938195" lon="8.662518">
<ele>297.0</ele>
<speed>3.1</speed>
<course>18.2</course>
<desc>Speed 3.1 km/h Distance 3.88 km</desc>
<time>2010-02-24T18:05:50.47</time>
<name>3561</name>
</trkpt>
<trkpt lat="48.938205" lon="8.662523">
<ele>297.0</ele>
<speed>3.3</speed>
<course>26.4</course>
<desc>Speed 3.3 km/h Distance 3.88 km</desc>
<time>2010-02-24T18:05:51.46</time>
<name>3562</name>
</trkpt>
<trkpt lat="48.938212" lon="8.662528">
<ele>297.0</ele>
<speed>2.7</speed>
<course>58.6</course>
<desc>Speed 2.7 km/h Distance 3.88 km</desc>
<time>2010-02-24T18:05:52.46</time>
<name>3563</name>
</trkpt>
<trkpt lat="48.938215" lon="8.662537">
<ele>297.5</ele>
<speed>1.9</speed>
<course>51.9</course>
<desc>Speed 1.9 km/h Distance 3.88 km</desc>
<time>2010-02-24T18:05:53.46</time>
<name>3564</name>
</trkpt>
<trkpt lat="48.938217" lon="8.662540">
<ele>297.5</ele>
<speed>1.0</speed>
<course>352.6</course>
<desc>Speed 1.0 km/h Distance 3.88 km</desc>
<time>2010-02-24T18:05:54.46</time>
<name>3565</name>
</trkpt>
<trkpt lat="48.938223" lon="8.662538">
<ele>297.5</ele>
<speed>1.8</speed>
<course>12.6</course>
<desc>Speed 1.8 km/h Distance 3.88 km</desc>
<time>2010-02-24T18:05:55.46</time>
<name>3566</name>
</trkpt>
<trkpt lat="48.938228" lon="8.662540">
<ele>297.5</ele>
<speed>1.7</speed>
<course>18.8</course>
<desc>Speed 1.7 km/h Distance 3.88 km</desc>
<time>2010-02-24T18:05:56.45</time>
<name>3567</name>
</trkpt>
<trkpt lat="48.938232" lon="8.662542">
<ele>297.5</ele>
<speed>1.2</speed>
<course>355.6</course>
<desc>Speed 1.2 km/h Distance 3.89 km</desc>
<time>2010-02-24T18:05:57.45</time>
<name>3568</name>
</trkpt>
<trkpt lat="48.938242" lon="8.662540">
<ele>297.5</ele>
<speed>3.1</speed>
<course>18.8</course>
<desc>Speed 3.1 km/h Distance 3.89 km</desc>
<time>2010-02-24T18:05:58.45</time>
<name>3569</name>
</trkpt>
<trkpt lat="48.938248" lon="8.662543">
<ele>298.0</ele>
<speed>2.7</speed>
<course>14.9</course>
<desc>Speed 2.7 km/h Distance 3.89 km</desc>
<time>2010-02-24T18:05:59.45</time>
<name>3570</name>
</trkpt>
<trkpt lat="48.938257" lon="8.662547">
<ele>298.5</ele>
<speed>3.2</speed>
<course>27.9</course>
<desc>Speed 3.2 km/h Distance 3.89 km</desc>
<time>2010-02-24T18:06:00.45</time>
<name>3571</name>
</trkpt>
<trkpt lat="48.938265" lon="8.662553">
<ele>298.5</ele>
<speed>3.5</speed>
<course>12.6</course>
<desc>Speed 3.5 km/h Distance 3.89 km</desc>
<time>2010-02-24T18:06:01.45</time>
<name>3572</name>
</trkpt>
<trkpt lat="48.938270" lon="8.662555">
<ele>298.5</ele>
<speed>2.5</speed>
<course>44.5</course>
<desc>Speed 2.5 km/h Distance 3.89 km</desc>
<time>2010-02-24T18:06:02.45</time>
<name>3573</name>
</trkpt>
<trkpt lat="48.938273" lon="8.662560">
<ele>298.5</ele>
<speed>1.9</speed>
<course>53.0</course>
<desc>Speed 1.9 km/h Distance 3.89 km</desc>
<time>2010-02-24T18:06:03.46</time>
<name>3574</name>
</trkpt>
<trkpt lat="48.938277" lon="8.662567">
<ele>298.5</ele>
<speed>1.9</speed>
<course>40.9</course>
<desc>Speed 1.9 km/h Distance 3.89 km</desc>
<time>2010-02-24T18:06:04.46</time>
<name>3575</name>
</trkpt>
<trkpt lat="48.938282" lon="8.662573">
<ele>298.5</ele>
<speed>2.6</speed>
<course>47.8</course>
<desc>Speed 2.6 km/h Distance 3.89 km</desc>
<time>2010-02-24T18:06:05.46</time>
<name>3576</name>
</trkpt>
<trkpt lat="48.938287" lon="8.662582">
<ele>298.5</ele>
<speed>2.9</speed>
<course>41.9</course>
<desc>Speed 2.9 km/h Distance 3.89 km</desc>
<time>2010-02-24T18:06:06.46</time>
<name>3577</name>
</trkpt>
<trkpt lat="48.938292" lon="8.662588">
<ele>298.0</ele>
<speed>2.9</speed>
<course>41.9</course>
<desc>Speed 2.9 km/h Distance 3.89 km</desc>
<time>2010-02-24T18:06:07.46</time>
<name>3578</name>
</trkpt>
<trkpt lat="48.938297" lon="8.662595">
<ele>298.0</ele>
<speed>2.4</speed>
<course>44.5</course>
<desc>Speed 2.4 km/h Distance 3.89 km</desc>
<time>2010-02-24T18:06:08.46</time>
<name>3579</name>
</trkpt>
<trkpt lat="48.938303" lon="8.662605">
<ele>298.0</ele>
<speed>3.2</speed>
<course>52.8</course>
<desc>Speed 3.2 km/h Distance 3.89 km</desc>
<time>2010-02-24T18:06:09.46</time>
<name>3580</name>
</trkpt>
<trkpt lat="48.938308" lon="8.662615">
<ele>298.0</ele>
<speed>2.6</speed>
<course>39.4</course>
<desc>Speed 2.6 km/h Distance 3.90 km</desc>
<time>2010-02-24T18:06:10.46</time>
<name>3581</name>
</trkpt>
<trkpt lat="48.938315" lon="8.662623">
<ele>298.0</ele>
<speed>3.0</speed>
<course>75.6</course>
<desc>Speed 3.0 km/h Distance 3.90 km</desc>
<time>2010-02-24T18:06:11.45</time>
<name>3582</name>
</trkpt>
<trkpt lat="48.938317" lon="8.662633">
<ele>298.0</ele>
<speed>2.6</speed>
<course>51.9</course>
<desc>Speed 2.6 km/h Distance 3.90 km</desc>
<time>2010-02-24T18:06:12.45</time>
<name>3583</name>
</trkpt>
<trkpt lat="48.938318" lon="8.662637">
<ele>298.0</ele>
<speed>1.0</speed>
<course>23.8</course>
<desc>Speed 1.0 km/h Distance 3.90 km</desc>
<time>2010-02-24T18:06:13.45</time>
<name>3584</name>
</trkpt>
<trkpt lat="48.938323" lon="8.662640">
<ele>297.5</ele>
<speed>2.3</speed>
<course>5.0</course>
<desc>Speed 2.3 km/h Distance 3.90 km</desc>
<time>2010-02-24T18:06:14.45</time>
<name>3585</name>
</trkpt>
<trkpt lat="48.938332" lon="8.662640">
<ele>297.5</ele>
<speed>2.4</speed>
<course>5.0</course>
<desc>Speed 2.4 km/h Distance 3.90 km</desc>
<time>2010-02-24T18:06:15.45</time>
<name>3586</name>
</trkpt>
<trkpt lat="48.938340" lon="8.662642">
<ele>297.5</ele>
<speed>3.1</speed>
<course>7.4</course>
<desc>Speed 3.1 km/h Distance 3.90 km</desc>
<time>2010-02-24T18:06:16.45</time>
<name>3587</name>
</trkpt>
<trkpt lat="48.938347" lon="8.662643">
<ele>298.0</ele>
<speed>2.7</speed>
<course>18.8</course>
<desc>Speed 2.7 km/h Distance 3.90 km</desc>
<time>2010-02-24T18:06:17.45</time>
<name>3588</name>
</trkpt>
<trkpt lat="48.938353" lon="8.662647">
<ele>298.5</ele>
<speed>2.4</speed>
<course>347.4</course>
<desc>Speed 2.4 km/h Distance 3.90 km</desc>
<time>2010-02-24T18:06:18.45</time>
<name>3589</name>
</trkpt>
<trkpt lat="48.938358" lon="8.662645">
<ele>298.5</ele>
<speed>1.9</speed>
<course>352.3</course>
<desc>Speed 1.9 km/h Distance 3.90 km</desc>
<time>2010-02-24T18:06:19.45</time>
<name>3590</name>
</trkpt>
<trkpt lat="48.938367" lon="8.662643">
<ele>298.5</ele>
<speed>2.4</speed>
<course>25.4</course>
<desc>Speed 2.4 km/h Distance 3.90 km</desc>
<time>2010-02-24T18:06:20.45</time>
<name>3591</name>
</trkpt>
<trkpt lat="48.938372" lon="8.662647">
<ele>298.5</ele>
<speed>2.1</speed>
<course>5.0</course>
<desc>Speed 2.1 km/h Distance 3.90 km</desc>
<time>2010-02-24T18:06:21.45</time>
<name>3592</name>
</trkpt>
<trkpt lat="48.938380" lon="8.662647">
<ele>298.5</ele>
<speed>3.5</speed>
<course>0.0</course>
<desc>Speed 3.5 km/h Distance 3.90 km</desc>
<time>2010-02-24T18:06:22.45</time>
<name>3593</name>
</trkpt>
<trkpt lat="48.938388" lon="8.662647">
<ele>298.5</ele>
<speed>2.6</speed>
<course>0.0</course>
<desc>Speed 2.6 km/h Distance 3.91 km</desc>
<time>2010-02-24T18:06:23.45</time>
<name>3594</name>
</trkpt>
<trkpt lat="48.938397" lon="8.662647">
<ele>298.5</ele>
<speed>3.6</speed>
<course>5.0</course>
<desc>Speed 3.6 km/h Distance 3.91 km</desc>
<time>2010-02-24T18:06:24.45</time>
<name>3595</name>
</trkpt>
<trkpt lat="48.938405" lon="8.662648">
<ele>298.0</ele>
<speed>2.9</speed>
<course>5.0</course>
<desc>Speed 2.9 km/h Distance 3.91 km</desc>
<time>2010-02-24T18:06:25.45</time>
<name>3596</name>
</trkpt>
<trkpt lat="48.938413" lon="8.662648">
<ele>297.5</ele>
<speed>3.4</speed>
<course>353.4</course>
<desc>Speed 3.4 km/h Distance 3.91 km</desc>
<time>2010-02-24T18:06:26.45</time>
<name>3597</name>
</trkpt>
<trkpt lat="48.938423" lon="8.662647">
<ele>297.5</ele>
<speed>3.8</speed>
<course>116.6</course>
<desc>Speed 3.8 km/h Distance 3.91 km</desc>
<time>2010-02-24T18:06:27.45</time>
<name>3598</name>
</trkpt>
<trkpt lat="48.938422" lon="8.662652">
<ele>297.0</ele>
<speed>1.5</speed>
<course>128.1</course>
<desc>Speed 1.5 km/h Distance 3.91 km</desc>
<time>2010-02-24T18:06:28.44</time>
<name>3599</name>
</trkpt>
<trkpt lat="48.938420" lon="8.662655">
<ele>297.5</ele>
<speed>1.2</speed>
<course>290.9</course>
<desc>Speed 1.2 km/h Distance 3.91 km</desc>
<time>2010-02-24T18:06:29.44</time>
<name>3600</name>
</trkpt>
<trkpt lat="48.938422" lon="8.662648">
<ele>297.5</ele>
<speed>1.5</speed>
<course>312.2</course>
<desc>Speed 1.5 km/h Distance 3.91 km</desc>
<time>2010-02-24T18:06:30.44</time>
<name>3601</name>
</trkpt>
<trkpt lat="48.938427" lon="8.662640">
<ele>297.5</ele>
<speed>2.5</speed>
<course>347.4</course>
<desc>Speed 2.5 km/h Distance 3.91 km</desc>
<time>2010-02-24T18:06:31.44</time>
<name>3602</name>
</trkpt>
<trkpt lat="48.938432" lon="8.662638">
<ele>297.5</ele>
<speed>2.5</speed>
<course>341.2</course>
<desc>Speed 2.5 km/h Distance 3.91 km</desc>
<time>2010-02-24T18:06:32.44</time>
<name>3603</name>
</trkpt>
<trkpt lat="48.938438" lon="8.662635">
<ele>297.0</ele>
<speed>2.3</speed>
<course>352.3</course>
<desc>Speed 2.3 km/h Distance 3.91 km</desc>
<time>2010-02-24T18:06:33.44</time>
<name>3604</name>
</trkpt>
<trkpt lat="48.938447" lon="8.662633">
<ele>297.5</ele>
<speed>3.0</speed>
<course>2.2</course>
<desc>Speed 3.0 km/h Distance 3.91 km</desc>
<time>2010-02-24T18:06:34.44</time>
<name>3605</name>
</trkpt>
<trkpt lat="48.938458" lon="8.662633">
<ele>297.5</ele>
<speed>3.3</speed>
<course>351.9</course>
<desc>Speed 3.3 km/h Distance 3.92 km</desc>
<time>2010-02-24T18:06:35.44</time>
<name>3606</name>
</trkpt>
<trkpt lat="48.938468" lon="8.662632">
<ele>298.0</ele>
<speed>2.9</speed>
<course>288.7</course>
<desc>Speed 2.9 km/h Distance 3.92 km</desc>
<time>2010-02-24T18:06:36.46</time>
<name>3607</name>
</trkpt>
<trkpt lat="48.938472" lon="8.662617">
<ele>298.0</ele>
<speed>4.1</speed>
<course>356.1</course>
<desc>Speed 4.1 km/h Distance 3.92 km</desc>
<time>2010-02-24T18:06:37.44</time>
<name>3608</name>
</trkpt>
<trkpt lat="48.938485" lon="8.662615">
<ele>299.0</ele>
<speed>3.0</speed>
<course>320.6</course>
<desc>Speed 3.0 km/h Distance 3.92 km</desc>
<time>2010-02-24T18:06:38.44</time>
<name>3609</name>
</trkpt>
<trkpt lat="48.938492" lon="8.662607">
<ele>299.0</ele>
<speed>3.2</speed>
<course>327.7</course>
<desc>Speed 3.2 km/h Distance 3.92 km</desc>
<time>2010-02-24T18:06:39.44</time>
<name>3610</name>
</trkpt>
<trkpt lat="48.938497" lon="8.662602">
<ele>298.0</ele>
<speed>2.0</speed>
<course>322.5</course>
<desc>Speed 2.0 km/h Distance 3.92 km</desc>
<time>2010-02-24T18:06:40.44</time>
<name>3611</name>
</trkpt>
<trkpt lat="48.938507" lon="8.662590">
<ele>298.5</ele>
<speed>3.5</speed>
<course>290.5</course>
<desc>Speed 3.5 km/h Distance 3.92 km</desc>
<time>2010-02-24T18:06:41.44</time>
<name>3612</name>
</trkpt>
<trkpt lat="48.938508" lon="8.662583">
<ele>298.5</ele>
<speed>2.0</speed>
<course>0.0</course>
<desc>Speed 2.0 km/h Distance 3.92 km</desc>
<time>2010-02-24T18:06:42.44</time>
<name>3613</name>
</trkpt>
<trkpt lat="48.938513" lon="8.662583">
<ele>298.5</ele>
<speed>1.5</speed>
<course>21.5</course>
<desc>Speed 1.5 km/h Distance 3.92 km</desc>
<time>2010-02-24T18:06:43.44</time>
<name>3614</name>
</trkpt>
<trkpt lat="48.938522" lon="8.662588">
<ele>299.0</ele>
<speed>2.3</speed>
<course>0.0</course>
<desc>Speed 2.3 km/h Distance 3.92 km</desc>
<time>2010-02-24T18:06:44.44</time>
<name>3615</name>
</trkpt>
<trkpt lat="48.938530" lon="8.662588">
<ele>299.5</ele>
<speed>2.2</speed>
<course>12.6</course>
<desc>Speed 2.2 km/h Distance 3.92 km</desc>
<time>2010-02-24T18:06:45.46</time>
<name>3616</name>
</trkpt>
<trkpt lat="48.938540" lon="8.662592">
<ele>299.0</ele>
<speed>1.8</speed>
<course>353.4</course>
<desc>Speed 1.8 km/h Distance 3.93 km</desc>
<time>2010-02-24T18:06:46.43</time>
<name>3617</name>
</trkpt>
<trkpt lat="48.938550" lon="8.662590">
<ele>299.5</ele>
<speed>2.0</speed>
<course>303.5</course>
<desc>Speed 2.0 km/h Distance 3.93 km</desc>
<time>2010-02-24T18:06:47.43</time>
<name>3618</name>
</trkpt>
<trkpt lat="48.938567" lon="8.662552">
<ele>302.5</ele>
<speed>3.3</speed>
<course>336.2</course>
<desc>Speed 3.3 km/h Distance 3.93 km</desc>
<time>2010-02-24T18:06:49.43</time>
<name>3619</name>
</trkpt>
<trkpt lat="48.938577" lon="8.662545">
<ele>302.5</ele>
<speed>3.3</speed>
<course>3.7</course>
<desc>Speed 3.3 km/h Distance 3.93 km</desc>
<time>2010-02-24T18:06:50.43</time>
<name>3620</name>
</trkpt>
<trkpt lat="48.938595" lon="8.662547">
<ele>302.5</ele>
<speed>5.5</speed>
<course>355.6</course>
<desc>Speed 5.5 km/h Distance 3.93 km</desc>
<time>2010-02-24T18:06:51.43</time>
<name>3621</name>
</trkpt>
<trkpt lat="48.938605" lon="8.662545">
<ele>301.0</ele>
<speed>2.2</speed>
<course>326.8</course>
<desc>Speed 2.2 km/h Distance 3.93 km</desc>
<time>2010-02-24T18:06:52.43</time>
<name>3622</name>
</trkpt>
<trkpt lat="48.938613" lon="8.662537">
<ele>301.0</ele>
<speed>2.3</speed>
<course>345.1</course>
<desc>Speed 2.3 km/h Distance 3.94 km</desc>
<time>2010-02-24T18:06:53.43</time>
<name>3623</name>
</trkpt>
<trkpt lat="48.938625" lon="8.662532">
<ele>300.5</ele>
<speed>2.4</speed>
<course>344.5</course>
<desc>Speed 2.4 km/h Distance 3.94 km</desc>
<time>2010-02-24T18:06:54.43</time>
<name>3624</name>
</trkpt>
<trkpt lat="48.938637" lon="8.662527">
<ele>300.5</ele>
<speed>2.6</speed>
<course>338.5</course>
<desc>Speed 2.6 km/h Distance 3.94 km</desc>
<time>2010-02-24T18:06:55.43</time>
<name>3625</name>
</trkpt>
<trkpt lat="48.938645" lon="8.662522">
<ele>300.5</ele>
<speed>2.8</speed>
<course>4.4</course>
<desc>Speed 2.8 km/h Distance 3.94 km</desc>
<time>2010-02-24T18:06:56.43</time>
<name>3626</name>
</trkpt>
<trkpt lat="48.938655" lon="8.662523">
<ele>300.5</ele>
<speed>3.1</speed>
<course>347.4</course>
<desc>Speed 3.1 km/h Distance 3.94 km</desc>
<time>2010-02-24T18:06:57.46</time>
<name>3627</name>
</trkpt>
<trkpt lat="48.938665" lon="8.662520">
<ele>300.5</ele>
<speed>3.3</speed>
<course>354.7</course>
<desc>Speed 3.3 km/h Distance 3.94 km</desc>
<time>2010-02-24T18:06:58.43</time>
<name>3628</name>
</trkpt>
<trkpt lat="48.938678" lon="8.662518">
<ele>301.5</ele>
<speed>3.0</speed>
<course>336.2</course>
<desc>Speed 3.0 km/h Distance 3.94 km</desc>
<time>2010-02-24T18:06:59.43</time>
<name>3629</name>
</trkpt>
<trkpt lat="48.938688" lon="8.662512">
<ele>300.5</ele>
<speed>3.3</speed>
<course>12.3</course>
<desc>Speed 3.3 km/h Distance 3.94 km</desc>
<time>2010-02-24T18:07:00.43</time>
<name>3630</name>
</trkpt>
<trkpt lat="48.938708" lon="8.662518">
<ele>302.0</ele>
<speed>2.7</speed>
<course>336.2</course>
<desc>Speed 2.7 km/h Distance 3.95 km</desc>
<time>2010-02-24T18:07:01.43</time>
<name>3631</name>
</trkpt>
<trkpt lat="48.938713" lon="8.662515">
<ele>301.5</ele>
<speed>2.4</speed>
<course>345.1</course>
<desc>Speed 2.4 km/h Distance 3.95 km</desc>
<time>2010-02-24T18:07:02.45</time>
<name>3632</name>
</trkpt>
<trkpt lat="48.938722" lon="8.662512">
<ele>301.5</ele>
<speed>2.4</speed>
<course>290.9</course>
<desc>Speed 2.4 km/h Distance 3.95 km</desc>
<time>2010-02-24T18:07:03.43</time>
<name>3633</name>
</trkpt>
<trkpt lat="48.938725" lon="8.662498">
<ele>301.5</ele>
<speed>3.3</speed>
<course>277.9</course>
<desc>Speed 3.3 km/h Distance 3.95 km</desc>
<time>2010-02-24T18:07:04.43</time>
<name>3634</name>
</trkpt>
<trkpt lat="48.938727" lon="8.662480">
<ele>301.5</ele>
<speed>4.4</speed>
<course>0.0</course>
<desc>Speed 4.4 km/h Distance 3.95 km</desc>
<time>2010-02-24T18:07:05.43</time>
<name>3635</name>
</trkpt>
<trkpt lat="48.938733" lon="8.662480">
<ele>300.0</ele>
<speed>2.0</speed>
<course>313.6</course>
<desc>Speed 2.0 km/h Distance 3.95 km</desc>
<time>2010-02-24T18:07:06.43</time>
<name>3636</name>
</trkpt>
<trkpt lat="48.938742" lon="8.662467">
<ele>301.0</ele>
<speed>4.1</speed>
<course>4.4</course>
<desc>Speed 4.1 km/h Distance 3.95 km</desc>
<time>2010-02-24T18:07:07.43</time>
<name>3637</name>
</trkpt>
<trkpt lat="48.938752" lon="8.662468">
<ele>300.0</ele>
<speed>3.2</speed>
<course>349.6</course>
<desc>Speed 3.2 km/h Distance 3.95 km</desc>
<time>2010-02-24T18:07:08.43</time>
<name>3638</name>
</trkpt>
<trkpt lat="48.938763" lon="8.662465">
<ele>300.5</ele>
<speed>3.0</speed>
<course>12.6</course>
<desc>Speed 3.0 km/h Distance 3.96 km</desc>
<time>2010-02-24T18:07:09.43</time>
<name>3639</name>
</trkpt>
<trkpt lat="48.938772" lon="8.662468">
<ele>299.5</ele>
<speed>2.9</speed>
<course>349.6</course>
<desc>Speed 2.9 km/h Distance 3.96 km</desc>
<time>2010-02-24T18:07:10.43</time>
<name>3640</name>
</trkpt>
<trkpt lat="48.938783" lon="8.662465">
<ele>300.5</ele>
<speed>2.6</speed>
<course>90.0</course>
<desc>Speed 2.6 km/h Distance 3.96 km</desc>
<time>2010-02-24T18:07:11.42</time>
<name>3641</name>
</trkpt>
<trkpt lat="48.938783" lon="8.662467">
<ele>300.5</ele>
<speed>0.8</speed>
<course>325.9</course>
<desc>Speed 0.8 km/h Distance 3.96 km</desc>
<time>2010-02-24T18:07:12.42</time>
<name>3642</name>
</trkpt>
<trkpt lat="48.938788" lon="8.662462">
<ele>301.0</ele>
<speed>1.8</speed>
<course>23.0</course>
<desc>Speed 1.8 km/h Distance 3.96 km</desc>
<time>2010-02-24T18:07:13.42</time>
<name>3643</name>
</trkpt>
<trkpt lat="48.938792" lon="8.662463">
<ele>300.5</ele>
<speed>1.0</speed>
<course>9.6</course>
<desc>Speed 1.0 km/h Distance 3.96 km</desc>
<time>2010-02-24T18:07:14.42</time>
<name>3644</name>
</trkpt>
<trkpt lat="48.938800" lon="8.662465">
<ele>301.5</ele>
<speed>1.4</speed>
<course>2.8</course>
<desc>Speed 1.4 km/h Distance 3.96 km</desc>
<time>2010-02-24T18:07:15.42</time>
<name>3645</name>
</trkpt>
<trkpt lat="48.938817" lon="8.662467">
<ele>302.0</ele>
<speed>2.9</speed>
<course>9.5</course>
<desc>Speed 2.9 km/h Distance 3.96 km</desc>
<time>2010-02-24T18:07:16.42</time>
<name>3646</name>
</trkpt>
<trkpt lat="48.938835" lon="8.662472">
<ele>303.5</ele>
<speed>3.5</speed>
<course>338.5</course>
<desc>Speed 3.5 km/h Distance 3.96 km</desc>
<time>2010-02-24T18:07:17.42</time>
<name>3647</name>
</trkpt>
<trkpt lat="48.938843" lon="8.662467">
<ele>303.0</ele>
<speed>3.2</speed>
<course>333.6</course>
<desc>Speed 3.2 km/h Distance 3.96 km</desc>
<time>2010-02-24T18:07:18.45</time>
<name>3648</name>
</trkpt>
<trkpt lat="48.938850" lon="8.662462">
<ele>303.0</ele>
<speed>2.5</speed>
<course>334.6</course>
<desc>Speed 2.5 km/h Distance 3.97 km</desc>
<time>2010-02-24T18:07:19.42</time>
<name>3649</name>
</trkpt>
<trkpt lat="48.938855" lon="8.662458">
<ele>302.0</ele>
<speed>2.2</speed>
<course>12.6</course>
<desc>Speed 2.2 km/h Distance 3.97 km</desc>
<time>2010-02-24T18:07:20.42</time>
<name>3650</name>
</trkpt>
<trkpt lat="48.938865" lon="8.662462">
<ele>302.0</ele>
<speed>2.7</speed>
<course>334.6</course>
<desc>Speed 2.7 km/h Distance 3.97 km</desc>
<time>2010-02-24T18:07:21.42</time>
<name>3651</name>
</trkpt>
<trkpt lat="48.938870" lon="8.662458">
<ele>301.5</ele>
<speed>2.2</speed>
<course>347.4</course>
<desc>Speed 2.2 km/h Distance 3.97 km</desc>
<time>2010-02-24T18:07:22.42</time>
<name>3652</name>
</trkpt>
<trkpt lat="48.938875" lon="8.662457">
<ele>300.5</ele>
<speed>2.0</speed>
<course>315.5</course>
<desc>Speed 2.0 km/h Distance 3.97 km</desc>
<time>2010-02-24T18:07:23.42</time>
<name>3653</name>
</trkpt>
<trkpt lat="48.938878" lon="8.662452">
<ele>300.0</ele>
<speed>1.9</speed>
<course>341.2</course>
<desc>Speed 1.9 km/h Distance 3.97 km</desc>
<time>2010-02-24T18:07:24.41</time>
<name>3654</name>
</trkpt>
<trkpt lat="48.938888" lon="8.662447">
<ele>300.5</ele>
<speed>3.4</speed>
<course>1.2</course>
<desc>Speed 3.4 km/h Distance 3.97 km</desc>
<time>2010-02-24T18:07:25.44</time>
<name>3655</name>
</trkpt>
<trkpt lat="48.938895" lon="8.662447">
<ele>301.0</ele>
<speed>2.5</speed>
<course>355.0</course>
<desc>Speed 2.5 km/h Distance 3.97 km</desc>
<time>2010-02-24T18:07:26.41</time>
<name>3656</name>
</trkpt>
<trkpt lat="48.938903" lon="8.662445">
<ele>300.5</ele>
<speed>2.8</speed>
<course>1.2</course>
<desc>Speed 2.8 km/h Distance 3.97 km</desc>
<time>2010-02-24T18:07:27.41</time>
<name>3657</name>
</trkpt>
<trkpt lat="48.938910" lon="8.662445">
<ele>300.5</ele>
<speed>2.3</speed>
<course>1.2</course>
<desc>Speed 2.3 km/h Distance 3.97 km</desc>
<time>2010-02-24T18:07:28.44</time>
<name>3658</name>
</trkpt>
<trkpt lat="48.938917" lon="8.662445">
<ele>301.0</ele>
<speed>2.1</speed>
<course>347.4</course>
<desc>Speed 2.1 km/h Distance 3.97 km</desc>
<time>2010-02-24T18:07:29.41</time>
<name>3659</name>
</trkpt>
<trkpt lat="48.938923" lon="8.662443">
<ele>300.5</ele>
<speed>2.6</speed>
<course>353.7</course>
<desc>Speed 2.6 km/h Distance 3.97 km</desc>
<time>2010-02-24T18:07:30.41</time>
<name>3660</name>
</trkpt>
<trkpt lat="48.938935" lon="8.662442">
<ele>301.0</ele>
<speed>2.9</speed>
<course>347.4</course>
<desc>Speed 2.9 km/h Distance 3.98 km</desc>
<time>2010-02-24T18:07:31.41</time>
<name>3661</name>
</trkpt>
<trkpt lat="48.938945" lon="8.662438">
<ele>302.0</ele>
<speed>2.6</speed>
<course>335.2</course>
<desc>Speed 2.6 km/h Distance 3.98 km</desc>
<time>2010-02-24T18:07:32.41</time>
<name>3662</name>
</trkpt>
<trkpt lat="48.938952" lon="8.662433">
<ele>302.0</ele>
<speed>2.8</speed>
<course>0.0</course>
<desc>Speed 2.8 km/h Distance 3.98 km</desc>
<time>2010-02-24T18:07:33.41</time>
<name>3663</name>
</trkpt>
<trkpt lat="48.938958" lon="8.662433">
<ele>301.5</ele>
<speed>2.3</speed>
<course>14.9</course>
<desc>Speed 2.3 km/h Distance 3.98 km</desc>
<time>2010-02-24T18:07:34.41</time>
<name>3664</name>
</trkpt>
<trkpt lat="48.938967" lon="8.662437">
<ele>300.0</ele>
<speed>2.7</speed>
<course>7.4</course>
<desc>Speed 2.7 km/h Distance 3.98 km</desc>
<time>2010-02-24T18:07:35.43</time>
<name>3665</name>
</trkpt>
<trkpt lat="48.938973" lon="8.662437">
<ele>299.5</ele>
<speed>2.1</speed>
<course>345.1</course>
<desc>Speed 2.1 km/h Distance 3.98 km</desc>
<time>2010-02-24T18:07:36.41</time>
<name>3666</name>
</trkpt>
<trkpt lat="48.938982" lon="8.662433">
<ele>299.0</ele>
<speed>2.8</speed>
<course>42.6</course>
<desc>Speed 2.8 km/h Distance 3.98 km</desc>
<time>2010-02-24T18:07:37.41</time>
<name>3667</name>
</trkpt>
<trkpt lat="48.938990" lon="8.662445">
<ele>297.5</ele>
<speed>5.0</speed>
<course>0.0</course>
<desc>Speed 5.0 km/h Distance 3.98 km</desc>
<time>2010-02-24T18:07:38.41</time>
<name>3668</name>
</trkpt>
<trkpt lat="48.938998" lon="8.662445">
<ele>298.0</ele>
<speed>1.8</speed>
<course>21.5</course>
<desc>Speed 1.8 km/h Distance 3.98 km</desc>
<time>2010-02-24T18:07:39.41</time>
<name>3669</name>
</trkpt>
<trkpt lat="48.939007" lon="8.662450">
<ele>298.5</ele>
<speed>1.2</speed>
<course>297.4</course>
<desc>Speed 1.2 km/h Distance 3.98 km</desc>
<time>2010-02-24T18:07:40.41</time>
<name>3670</name>
</trkpt>
<trkpt lat="48.939008" lon="8.662445">
<ele>299.5</ele>
<speed>1.2</speed>
<course>322.8</course>
<desc>Speed 1.2 km/h Distance 3.98 km</desc>
<time>2010-02-24T18:07:41.41</time>
<name>3671</name>
</trkpt>
<trkpt lat="48.939010" lon="8.662443">
<ele>299.5</ele>
<speed>0.3</speed>
<course>14.0</course>
<desc>Speed 0.3 km/h Distance 3.98 km</desc>
<time>2010-02-24T18:07:42.41</time>
<name>3672</name>
</trkpt>
<trkpt lat="48.939023" lon="8.662448">
<ele>301.5</ele>
<speed>1.8</speed>
<course>332.1</course>
<desc>Speed 1.8 km/h Distance 3.99 km</desc>
<time>2010-02-24T18:07:43.41</time>
<name>3673</name>
</trkpt>
<trkpt lat="48.939032" lon="8.662442">
<ele>302.5</ele>
<speed>2.8</speed>
<course>12.6</course>
<desc>Speed 2.8 km/h Distance 3.99 km</desc>
<time>2010-02-24T18:07:44.41</time>
<name>3674</name>
</trkpt>
<trkpt lat="48.939042" lon="8.662445">
<ele>302.5</ele>
<speed>3.2</speed>
<course>350.4</course>
<desc>Speed 3.2 km/h Distance 3.99 km</desc>
<time>2010-02-24T18:07:45.40</time>
<name>3675</name>
</trkpt>
<trkpt lat="48.939050" lon="8.662443">
<ele>302.5</ele>
<speed>2.6</speed>
<course>14.9</course>
<desc>Speed 2.6 km/h Distance 3.99 km</desc>
<time>2010-02-24T18:07:46.40</time>
<name>3676</name>
</trkpt>
<trkpt lat="48.939058" lon="8.662447">
<ele>302.5</ele>
<speed>2.1</speed>
<course>12.6</course>
<desc>Speed 2.1 km/h Distance 3.99 km</desc>
<time>2010-02-24T18:07:47.40</time>
<name>3677</name>
</trkpt>
<trkpt lat="48.939068" lon="8.662450">
<ele>303.0</ele>
<speed>2.1</speed>
<course>0.0</course>
<desc>Speed 2.1 km/h Distance 3.99 km</desc>
<time>2010-02-24T18:07:48.40</time>
<name>3678</name>
</trkpt>
<trkpt lat="48.939078" lon="8.662450">
<ele>304.0</ele>
<speed>2.6</speed>
<course>16.3</course>
<desc>Speed 2.6 km/h Distance 3.99 km</desc>
<time>2010-02-24T18:07:49.40</time>
<name>3679</name>
</trkpt>
<trkpt lat="48.939093" lon="8.662457">
<ele>305.0</ele>
<speed>3.0</speed>
<course>26.4</course>
<desc>Speed 3.0 km/h Distance 3.99 km</desc>
<time>2010-02-24T18:07:50.40</time>
<name>3680</name>
</trkpt>
<trkpt lat="48.939107" lon="8.662467">
<ele>306.0</ele>
<speed>2.5</speed>
<course>310.9</course>
<desc>Speed 2.5 km/h Distance 4.00 km</desc>
<time>2010-02-24T18:07:51.40</time>
<name>3681</name>
</trkpt>
<trkpt lat="48.939113" lon="8.662455">
<ele>306.0</ele>
<speed>3.5</speed>
<course>7.7</course>
<desc>Speed 3.5 km/h Distance 4.00 km</desc>
<time>2010-02-24T18:07:52.39</time>
<name>3682</name>
</trkpt>
<trkpt lat="48.939122" lon="8.662457">
<ele>306.5</ele>
<speed>2.2</speed>
<course>25.4</course>
<desc>Speed 2.2 km/h Distance 4.00 km</desc>
<time>2010-02-24T18:07:53.40</time>
<name>3683</name>
</trkpt>
<trkpt lat="48.939127" lon="8.662460">
<ele>306.0</ele>
<speed>1.7</speed>
<course>18.8</course>
<desc>Speed 1.7 km/h Distance 4.00 km</desc>
<time>2010-02-24T18:07:54.39</time>
<name>3684</name>
</trkpt>
<trkpt lat="48.939133" lon="8.662463">
<ele>306.0</ele>
<speed>2.4</speed>
<course>33.2</course>
<desc>Speed 2.4 km/h Distance 4.00 km</desc>
<time>2010-02-24T18:07:55.40</time>
<name>3685</name>
</trkpt>
<trkpt lat="48.939140" lon="8.662470">
<ele>305.5</ele>
<speed>1.8</speed>
<course>27.5</course>
<desc>Speed 1.8 km/h Distance 4.00 km</desc>
<time>2010-02-24T18:07:56.39</time>
<name>3686</name>
</trkpt>
<trkpt lat="48.939148" lon="8.662477">
<ele>305.0</ele>
<speed>2.1</speed>
<course>27.9</course>
<desc>Speed 2.1 km/h Distance 4.00 km</desc>
<time>2010-02-24T18:07:57.42</time>
<name>3687</name>
</trkpt>
<trkpt lat="48.939157" lon="8.662483">
<ele>304.0</ele>
<speed>2.6</speed>
<course>21.5</course>
<desc>Speed 2.6 km/h Distance 4.00 km</desc>
<time>2010-02-24T18:07:58.39</time>
<name>3688</name>
</trkpt>
<trkpt lat="48.939165" lon="8.662488">
<ele>303.5</ele>
<speed>2.3</speed>
<course>8.1</course>
<desc>Speed 2.3 km/h Distance 4.00 km</desc>
<time>2010-02-24T18:07:59.39</time>
<name>3689</name>
</trkpt>
<trkpt lat="48.939175" lon="8.662490">
<ele>303.5</ele>
<speed>2.1</speed>
<course>4.7</course>
<desc>Speed 2.1 km/h Distance 4.00 km</desc>
<time>2010-02-24T18:08:00.39</time>
<name>3690</name>
</trkpt>
<trkpt lat="48.939187" lon="8.662492">
<ele>304.5</ele>
<speed>2.8</speed>
<course>12.6</course>
<desc>Speed 2.8 km/h Distance 4.01 km</desc>
<time>2010-02-24T18:08:01.39</time>
<name>3691</name>
</trkpt>
<trkpt lat="48.939192" lon="8.662493">
<ele>304.5</ele>
<speed>1.8</speed>
<course>4.4</course>
<desc>Speed 1.8 km/h Distance 4.01 km</desc>
<time>2010-02-24T18:08:02.42</time>
<name>3692</name>
</trkpt>
<trkpt lat="48.939202" lon="8.662493">
<ele>305.0</ele>
<speed>2.5</speed>
<course>0.0</course>
<desc>Speed 2.5 km/h Distance 4.01 km</desc>
<time>2010-02-24T18:08:03.39</time>
<name>3693</name>
</trkpt>
<trkpt lat="48.939210" lon="8.662493">
<ele>305.0</ele>
<speed>3.1</speed>
<course>14.9</course>
<desc>Speed 3.1 km/h Distance 4.01 km</desc>
<time>2010-02-24T18:08:04.39</time>
<name>3694</name>
</trkpt>
<trkpt lat="48.939222" lon="8.662498">
<ele>305.5</ele>
<speed>3.3</speed>
<course>12.6</course>
<desc>Speed 3.3 km/h Distance 4.01 km</desc>
<time>2010-02-24T18:08:05.39</time>
<name>3695</name>
</trkpt>
<trkpt lat="48.939232" lon="8.662502">
<ele>306.0</ele>
<speed>2.6</speed>
<course>11.2</course>
<desc>Speed 2.6 km/h Distance 4.01 km</desc>
<time>2010-02-24T18:08:06.39</time>
<name>3696</name>
</trkpt>
<trkpt lat="48.939243" lon="8.662505">
<ele>307.0</ele>
<speed>2.4</speed>
<course>12.6</course>
<desc>Speed 2.4 km/h Distance 4.01 km</desc>
<time>2010-02-24T18:08:07.39</time>
<name>3697</name>
</trkpt>
<trkpt lat="48.939253" lon="8.662508">
<ele>307.5</ele>
<speed>2.2</speed>
<course>1.2</course>
<desc>Speed 2.2 km/h Distance 4.01 km</desc>
<time>2010-02-24T18:08:08.39</time>
<name>3698</name>
</trkpt>
<trkpt lat="48.939260" lon="8.662508">
<ele>308.0</ele>
<speed>1.7</speed>
<course>12.6</course>
<desc>Speed 1.7 km/h Distance 4.01 km</desc>
<time>2010-02-24T18:08:09.40</time>
<name>3699</name>
</trkpt>
<trkpt lat="48.939262" lon="8.662508">
<ele>308.0</ele>
<speed>0.1</speed>
<course>12.6</course>
<desc>Speed 0.1 km/h Distance 4.01 km</desc>
<time>2010-02-24T18:08:10.40</time>
<name>3700</name>
</trkpt>
<trkpt lat="48.939263" lon="8.662508">
<ele>308.0</ele>
<speed>0.3</speed>
<course>49.1</course>
<desc>Speed 0.3 km/h Distance 4.01 km</desc>
<time>2010-02-24T18:08:11.39</time>
<name>3701</name>
</trkpt>
<trkpt lat="48.939270" lon="8.662520">
<ele>308.0</ele>
<speed>3.7</speed>
<course>270.0</course>
<desc>Speed 3.7 km/h Distance 4.02 km</desc>
<time>2010-02-24T18:08:12.39</time>
<name>3702</name>
</trkpt>
<trkpt lat="48.939270" lon="8.662513">
<ele>308.0</ele>
<speed>1.4</speed>
<course>341.2</course>
<desc>Speed 1.4 km/h Distance 4.02 km</desc>
<time>2010-02-24T18:08:13.39</time>
<name>3703</name>
</trkpt>
<trkpt lat="48.939273" lon="8.662512">
<ele>308.0</ele>
<speed>1.3</speed>
<course>346.2</course>
<desc>Speed 1.3 km/h Distance 4.02 km</desc>
<time>2010-02-24T18:08:14.39</time>
<name>3704</name>
</trkpt>
<trkpt lat="48.939282" lon="8.662508">
<ele>308.0</ele>
<speed>2.4</speed>
<course>9.5</course>
<desc>Speed 2.4 km/h Distance 4.02 km</desc>
<time>2010-02-24T18:08:15.39</time>
<name>3705</name>
</trkpt>
<trkpt lat="48.939293" lon="8.662512">
<ele>307.5</ele>
<speed>3.2</speed>
<course>7.4</course>
<desc>Speed 3.2 km/h Distance 4.02 km</desc>
<time>2010-02-24T18:08:16.39</time>
<name>3706</name>
</trkpt>
<trkpt lat="48.939300" lon="8.662513">
<ele>308.0</ele>
<speed>1.9</speed>
<course>14.9</course>
<desc>Speed 1.9 km/h Distance 4.02 km</desc>
<time>2010-02-24T18:08:17.39</time>
<name>3707</name>
</trkpt>
<trkpt lat="48.939312" lon="8.662518">
<ele>308.5</ele>
<speed>3.2</speed>
<course>5.0</course>
<desc>Speed 3.2 km/h Distance 4.02 km</desc>
<time>2010-02-24T18:08:18.39</time>
<name>3708</name>
</trkpt>
<trkpt lat="48.939320" lon="8.662518">
<ele>309.0</ele>
<speed>2.2</speed>
<course>5.0</course>
<desc>Speed 2.2 km/h Distance 4.02 km</desc>
<time>2010-02-24T18:08:19.39</time>
<name>3709</name>
</trkpt>
<trkpt lat="48.939328" lon="8.662518">
<ele>309.0</ele>
<speed>2.7</speed>
<course>326.3</course>
<desc>Speed 2.7 km/h Distance 4.02 km</desc>
<time>2010-02-24T18:08:20.39</time>
<name>3710</name>
</trkpt>
<trkpt lat="48.939335" lon="8.662512">
<ele>309.5</ele>
<speed>2.7</speed>
<course>262.8</course>
<desc>Speed 2.7 km/h Distance 4.02 km</desc>
<time>2010-02-24T18:08:21.39</time>
<name>3711</name>
</trkpt>
<trkpt lat="48.939333" lon="8.662492">
<ele>309.5</ele>
<speed>5.5</speed>
<course>335.2</course>
<desc>Speed 5.5 km/h Distance 4.03 km</desc>
<time>2010-02-24T18:08:22.39</time>
<name>3712</name>
</trkpt>
<trkpt lat="48.939340" lon="8.662487">
<ele>309.5</ele>
<speed>2.8</speed>
<course>44.5</course>
<desc>Speed 2.8 km/h Distance 4.03 km</desc>
<time>2010-02-24T18:08:23.39</time>
<name>3713</name>
</trkpt>
<trkpt lat="48.939343" lon="8.662492">
<ele>310.0</ele>
<speed>1.2</speed>
<course>37.2</course>
<desc>Speed 1.2 km/h Distance 4.03 km</desc>
<time>2010-02-24T18:08:24.39</time>
<name>3714</name>
</trkpt>
<trkpt lat="48.939345" lon="8.662493">
<ele>310.0</ele>
<speed>0.3</speed>
<course>341.2</course>
<desc>Speed 0.3 km/h Distance 4.03 km</desc>
<time>2010-02-24T18:08:25.38</time>
<name>3715</name>
</trkpt>
<trkpt lat="48.939352" lon="8.662490">
<ele>310.5</ele>
<speed>2.3</speed>
<course>7.4</course>
<desc>Speed 2.3 km/h Distance 4.03 km</desc>
<time>2010-02-24T18:08:26.39</time>
<name>3716</name>
</trkpt>
<trkpt lat="48.939358" lon="8.662492">
<ele>310.5</ele>
<speed>2.2</speed>
<course>12.6</course>
<desc>Speed 2.2 km/h Distance 4.03 km</desc>
<time>2010-02-24T18:08:27.38</time>
<name>3717</name>
</trkpt>
<trkpt lat="48.939360" lon="8.662492">
<ele>310.5</ele>
<speed>0.5</speed>
<course>351.9</course>
<desc>Speed 0.5 km/h Distance 4.03 km</desc>
<time>2010-02-24T18:08:28.38</time>
<name>3718</name>
</trkpt>
<trkpt lat="48.939365" lon="8.662490">
<ele>310.5</ele>
<speed>1.2</speed>
<course>0.0</course>
<desc>Speed 1.2 km/h Distance 4.03 km</desc>
<time>2010-02-24T18:08:29.38</time>
<name>3719</name>
</trkpt>
<trkpt lat="48.939375" lon="8.662490">
<ele>311.0</ele>
<speed>2.8</speed>
<course>347.4</course>
<desc>Speed 2.8 km/h Distance 4.03 km</desc>
<time>2010-02-24T18:08:31.38</time>
<name>3720</name>
</trkpt>
<trkpt lat="48.939385" lon="8.662487">
<ele>311.5</ele>
<speed>2.6</speed>
<course>347.4</course>
<desc>Speed 2.6 km/h Distance 4.03 km</desc>
<time>2010-02-24T18:08:32.38</time>
<name>3721</name>
</trkpt>
<trkpt lat="48.939395" lon="8.662483">
<ele>312.0</ele>
<speed>2.7</speed>
<course>333.6</course>
<desc>Speed 2.7 km/h Distance 4.03 km</desc>
<time>2010-02-24T18:08:33.38</time>
<name>3722</name>
</trkpt>
<trkpt lat="48.939402" lon="8.662478">
<ele>312.5</ele>
<speed>2.6</speed>
<course>338.5</course>
<desc>Speed 2.6 km/h Distance 4.03 km</desc>
<time>2010-02-24T18:08:34.38</time>
<name>3723</name>
</trkpt>
<trkpt lat="48.939410" lon="8.662473">
<ele>313.5</ele>
<speed>3.1</speed>
<course>0.0</course>
<desc>Speed 3.1 km/h Distance 4.03 km</desc>
<time>2010-02-24T18:08:35.38</time>
<name>3724</name>
</trkpt>
<trkpt lat="48.939420" lon="8.662473">
<ele>314.0</ele>
<speed>2.9</speed>
<course>345.1</course>
<desc>Speed 2.9 km/h Distance 4.04 km</desc>
<time>2010-02-24T18:08:36.37</time>
<name>3725</name>
</trkpt>
<trkpt lat="48.939428" lon="8.662470">
<ele>314.5</ele>
<speed>3.0</speed>
<course>39.4</course>
<desc>Speed 3.0 km/h Distance 4.04 km</desc>
<time>2010-02-24T18:08:37.37</time>
<name>3726</name>
</trkpt>
<trkpt lat="48.939435" lon="8.662478">
<ele>315.0</ele>
<speed>2.8</speed>
<course>270.0</course>
<desc>Speed 2.8 km/h Distance 4.04 km</desc>
<time>2010-02-24T18:08:38.38</time>
<name>3727</name>
</trkpt>
<trkpt lat="48.939435" lon="8.662475">
<ele>315.5</ele>
<speed>0.6</speed>
<course>12.6</course>
<desc>Speed 0.6 km/h Distance 4.04 km</desc>
<time>2010-02-24T18:08:39.38</time>
<name>3728</name>
</trkpt>
<trkpt lat="48.939438" lon="8.662477">
<ele>315.5</ele>
<speed>1.2</speed>
<course>337.8</course>
<desc>Speed 1.2 km/h Distance 4.04 km</desc>
<time>2010-02-24T18:08:40.37</time>
<name>3729</name>
</trkpt>
<trkpt lat="48.939443" lon="8.662473">
<ele>316.0</ele>
<speed>2.2</speed>
<course>347.4</course>
<desc>Speed 2.2 km/h Distance 4.04 km</desc>
<time>2010-02-24T18:08:41.37</time>
<name>3730</name>
</trkpt>
<trkpt lat="48.939453" lon="8.662470">
<ele>316.0</ele>
<speed>3.3</speed>
<course>334.6</course>
<desc>Speed 3.3 km/h Distance 4.04 km</desc>
<time>2010-02-24T18:08:42.37</time>
<name>3731</name>
</trkpt>
<trkpt lat="48.939458" lon="8.662467">
<ele>317.0</ele>
<speed>2.5</speed>
<course>51.9</course>
<desc>Speed 2.5 km/h Distance 4.04 km</desc>
<time>2010-02-24T18:08:43.37</time>
<name>3732</name>
</trkpt>
<trkpt lat="48.939460" lon="8.662470">
<ele>317.0</ele>
<speed>1.2</speed>
<course>178.8</course>
<desc>Speed 1.2 km/h Distance 4.04 km</desc>
<time>2010-02-24T18:08:44.37</time>
<name>3733</name>
</trkpt>
<trkpt lat="48.939453" lon="8.662470">
<ele>317.0</ele>
<speed>1.9</speed>
<course>221.4</course>
<desc>Speed 1.9 km/h Distance 4.04 km</desc>
<time>2010-02-24T18:08:45.37</time>
<name>3734</name>
</trkpt>
<trkpt lat="48.939448" lon="8.662463">
<ele>317.0</ele>
<speed>2.2</speed>
<course>301.1</course>
<desc>Speed 2.2 km/h Distance 4.04 km</desc>
<time>2010-02-24T18:08:46.37</time>
<name>3735</name>
</trkpt>
<trkpt lat="48.939452" lon="8.662455">
<ele>317.5</ele>
<speed>2.2</speed>
<course>341.2</course>
<desc>Speed 2.2 km/h Distance 4.04 km</desc>
<time>2010-02-24T18:08:47.37</time>
<name>3736</name>
</trkpt>
<trkpt lat="48.939455" lon="8.662453">
<ele>317.5</ele>
<speed>1.1</speed>
<course>308.1</course>
<desc>Speed 1.1 km/h Distance 4.04 km</desc>
<time>2010-02-24T18:08:48.37</time>
<name>3737</name>
</trkpt>
<trkpt lat="48.939457" lon="8.662450">
<ele>318.0</ele>
<speed>0.8</speed>
<course>157.0</course>
<desc>Speed 0.8 km/h Distance 4.04 km</desc>
<time>2010-02-24T18:08:49.37</time>
<name>3738</name>
</trkpt>
<trkpt lat="48.939453" lon="8.662452">
<ele>318.0</ele>
<speed>1.3</speed>
<course>172.6</course>
<desc>Speed 1.3 km/h Distance 4.04 km</desc>
<time>2010-02-24T18:08:50.37</time>
<name>3739</name>
</trkpt>
<trkpt lat="48.939447" lon="8.662452">
<ele>318.5</ele>
<speed>2.5</speed>
<course>255.6</course>
<desc>Speed 2.5 km/h Distance 4.04 km</desc>
<time>2010-02-24T18:08:51.36</time>
<name>3740</name>
</trkpt>
<trkpt lat="48.939445" lon="8.662442">
<ele>319.0</ele>
<speed>2.5</speed>
<course>347.4</course>
<desc>Speed 2.5 km/h Distance 4.05 km</desc>
<time>2010-02-24T18:08:52.36</time>
<name>3741</name>
</trkpt>
<trkpt lat="48.939450" lon="8.662440">
<ele>319.0</ele>
<speed>1.6</speed>
<course>5.0</course>
<desc>Speed 1.6 km/h Distance 4.05 km</desc>
<time>2010-02-24T18:08:53.37</time>
<name>3742</name>
</trkpt>
<trkpt lat="48.939458" lon="8.662440">
<ele>319.5</ele>
<speed>2.8</speed>
<course>25.4</course>
<desc>Speed 2.8 km/h Distance 4.05 km</desc>
<time>2010-02-24T18:08:54.37</time>
<name>3743</name>
</trkpt>
<trkpt lat="48.939463" lon="8.662443">
<ele>319.5</ele>
<speed>2.5</speed>
<course>5.0</course>
<desc>Speed 2.5 km/h Distance 4.05 km</desc>
<time>2010-02-24T18:08:55.37</time>
<name>3744</name>
</trkpt>
<trkpt lat="48.939472" lon="8.662443">
<ele>319.5</ele>
<speed>3.1</speed>
<course>0.0</course>
<desc>Speed 3.1 km/h Distance 4.05 km</desc>
<time>2010-02-24T18:08:56.37</time>
<name>3745</name>
</trkpt>
<trkpt lat="48.939482" lon="8.662443">
<ele>319.0</ele>
<speed>3.6</speed>
<course>317.5</course>
<desc>Speed 3.6 km/h Distance 4.05 km</desc>
<time>2010-02-24T18:08:57.37</time>
<name>3746</name>
</trkpt>
<trkpt lat="48.939490" lon="8.662432">
<ele>320.5</ele>
<speed>4.5</speed>
<course>11.6</course>
<desc>Speed 4.5 km/h Distance 4.05 km</desc>
<time>2010-02-24T18:08:58.36</time>
<name>3747</name>
</trkpt>
<trkpt lat="48.939500" lon="8.662435">
<ele>319.5</ele>
<speed>3.0</speed>
<course>344.0</course>
<desc>Speed 3.0 km/h Distance 4.05 km</desc>
<time>2010-02-24T18:08:59.36</time>
<name>3748</name>
</trkpt>
<trkpt lat="48.939512" lon="8.662430">
<ele>320.0</ele>
<speed>3.1</speed>
<course>4.7</course>
<desc>Speed 3.1 km/h Distance 4.05 km</desc>
<time>2010-02-24T18:09:00.36</time>
<name>3749</name>
</trkpt>
<trkpt lat="48.939523" lon="8.662432">
<ele>320.5</ele>
<speed>3.9</speed>
<course>14.0</course>
<desc>Speed 3.9 km/h Distance 4.05 km</desc>
<time>2010-02-24T18:09:01.36</time>
<name>3750</name>
</trkpt>
<trkpt lat="48.939537" lon="8.662437">
<ele>321.0</ele>
<speed>4.0</speed>
<course>18.1</course>
<desc>Speed 4.0 km/h Distance 4.06 km</desc>
<time>2010-02-24T18:09:02.36</time>
<name>3751</name>
</trkpt>
<trkpt lat="48.939550" lon="8.662443">
<ele>320.5</ele>
<speed>4.0</speed>
<course>13.5</course>
<desc>Speed 4.0 km/h Distance 4.06 km</desc>
<time>2010-02-24T18:09:03.36</time>
<name>3752</name>
</trkpt>
<trkpt lat="48.939563" lon="8.662448">
<ele>321.0</ele>
<speed>3.5</speed>
<course>15.5</course>
<desc>Speed 3.5 km/h Distance 4.06 km</desc>
<time>2010-02-24T18:09:04.35</time>
<name>3753</name>
</trkpt>
<trkpt lat="48.939575" lon="8.662453">
<ele>320.5</ele>
<speed>3.0</speed>
<course>33.2</course>
<desc>Speed 3.0 km/h Distance 4.06 km</desc>
<time>2010-02-24T18:09:05.36</time>
<name>3754</name>
</trkpt>
<trkpt lat="48.939583" lon="8.662462">
<ele>320.5</ele>
<speed>2.4</speed>
<course>7.4</course>
<desc>Speed 2.4 km/h Distance 4.06 km</desc>
<time>2010-02-24T18:09:06.36</time>
<name>3755</name>
</trkpt>
<trkpt lat="48.939590" lon="8.662462">
<ele>320.5</ele>
<speed>2.2</speed>
<course>355.0</course>
<desc>Speed 2.2 km/h Distance 4.06 km</desc>
<time>2010-02-24T18:09:07.35</time>
<name>3756</name>
</trkpt>
<trkpt lat="48.939605" lon="8.662460">
<ele>320.5</ele>
<speed>6.1</speed>
<course>351.2</course>
<desc>Speed 6.1 km/h Distance 4.06 km</desc>
<time>2010-02-24T18:09:08.35</time>
<name>3757</name>
</trkpt>
<trkpt lat="48.939620" lon="8.662457">
<ele>320.5</ele>
<speed>5.8</speed>
<course>347.4</course>
<desc>Speed 5.8 km/h Distance 4.07 km</desc>
<time>2010-02-24T18:09:09.35</time>
<name>3758</name>
</trkpt>
<trkpt lat="48.939630" lon="8.662453">
<ele>321.0</ele>
<speed>3.2</speed>
<course>342.5</course>
<desc>Speed 3.2 km/h Distance 4.07 km</desc>
<time>2010-02-24T18:09:10.36</time>
<name>3759</name>
</trkpt>
<trkpt lat="48.939637" lon="8.662450">
<ele>321.0</ele>
<speed>2.5</speed>
<course>355.6</course>
<desc>Speed 2.5 km/h Distance 4.07 km</desc>
<time>2010-02-24T18:09:11.37</time>
<name>3760</name>
</trkpt>
<trkpt lat="48.939647" lon="8.662448">
<ele>321.0</ele>
<speed>3.6</speed>
<course>0.0</course>
<desc>Speed 3.6 km/h Distance 4.07 km</desc>
<time>2010-02-24T18:09:12.35</time>
<name>3761</name>
</trkpt>
<trkpt lat="48.939655" lon="8.662448">
<ele>321.0</ele>
<speed>3.4</speed>
<course>352.3</course>
<desc>Speed 3.4 km/h Distance 4.07 km</desc>
<time>2010-02-24T18:09:13.35</time>
<name>3762</name>
</trkpt>
<trkpt lat="48.939663" lon="8.662447">
<ele>321.0</ele>
<speed>2.7</speed>
<course>347.4</course>
<desc>Speed 2.7 km/h Distance 4.07 km</desc>
<time>2010-02-24T18:09:14.35</time>
<name>3763</name>
</trkpt>
<trkpt lat="48.939673" lon="8.662443">
<ele>321.0</ele>
<speed>3.1</speed>
<course>320.6</course>
<desc>Speed 3.1 km/h Distance 4.07 km</desc>
<time>2010-02-24T18:09:15.36</time>
<name>3764</name>
</trkpt>
<trkpt lat="48.939680" lon="8.662435">
<ele>321.5</ele>
<speed>2.8</speed>
<course>320.6</course>
<desc>Speed 2.8 km/h Distance 4.07 km</desc>
<time>2010-02-24T18:09:16.35</time>
<name>3765</name>
</trkpt>
<trkpt lat="48.939687" lon="8.662427">
<ele>321.5</ele>
<speed>3.0</speed>
<course>2.2</course>
<desc>Speed 3.0 km/h Distance 4.07 km</desc>
<time>2010-02-24T18:09:17.35</time>
<name>3766</name>
</trkpt>
<trkpt lat="48.939698" lon="8.662427">
<ele>321.5</ele>
<speed>3.3</speed>
<course>7.7</course>
<desc>Speed 3.3 km/h Distance 4.07 km</desc>
<time>2010-02-24T18:09:18.36</time>
<name>3767</name>
</trkpt>
<trkpt lat="48.939707" lon="8.662428">
<ele>321.5</ele>
<speed>3.4</speed>
<course>9.6</course>
<desc>Speed 3.4 km/h Distance 4.08 km</desc>
<time>2010-02-24T18:09:19.36</time>
<name>3768</name>
</trkpt>
<trkpt lat="48.939715" lon="8.662430">
<ele>320.5</ele>
<speed>2.5</speed>
<course>7.7</course>
<desc>Speed 2.5 km/h Distance 4.08 km</desc>
<time>2010-02-24T18:09:20.35</time>
<name>3769</name>
</trkpt>
<trkpt lat="48.939723" lon="8.662432">
<ele>320.5</ele>
<speed>3.1</speed>
<course>348.8</course>
<desc>Speed 3.1 km/h Distance 4.08 km</desc>
<time>2010-02-24T18:09:21.35</time>
<name>3770</name>
</trkpt>
<trkpt lat="48.939735" lon="8.662428">
<ele>320.5</ele>
<speed>3.5</speed>
<course>341.8</course>
<desc>Speed 3.5 km/h Distance 4.08 km</desc>
<time>2010-02-24T18:09:22.35</time>
<name>3771</name>
</trkpt>
<trkpt lat="48.939745" lon="8.662423">
<ele>320.5</ele>
<speed>2.8</speed>
<course>4.7</course>
<desc>Speed 2.8 km/h Distance 4.08 km</desc>
<time>2010-02-24T18:09:23.35</time>
<name>3772</name>
</trkpt>
<trkpt lat="48.939757" lon="8.662425">
<ele>319.0</ele>
<speed>3.0</speed>
<course>4.4</course>
<desc>Speed 3.0 km/h Distance 4.08 km</desc>
<time>2010-02-24T18:09:24.35</time>
<name>3773</name>
</trkpt>
<trkpt lat="48.939767" lon="8.662427">
<ele>319.5</ele>
<speed>2.6</speed>
<course>9.6</course>
<desc>Speed 2.6 km/h Distance 4.08 km</desc>
<time>2010-02-24T18:09:25.35</time>
<name>3774</name>
</trkpt>
<trkpt lat="48.939775" lon="8.662428">
<ele>319.0</ele>
<speed>2.6</speed>
<course>355.6</course>
<desc>Speed 2.6 km/h Distance 4.08 km</desc>
<time>2010-02-24T18:09:26.35</time>
<name>3775</name>
</trkpt>
<trkpt lat="48.939785" lon="8.662427">
<ele>319.0</ele>
<speed>3.1</speed>
<course>2.2</course>
<desc>Speed 3.1 km/h Distance 4.08 km</desc>
<time>2010-02-24T18:09:27.35</time>
<name>3776</name>
</trkpt>
<trkpt lat="48.939797" lon="8.662427">
<ele>319.0</ele>
<speed>3.2</speed>
<course>353.7</course>
<desc>Speed 3.2 km/h Distance 4.09 km</desc>
<time>2010-02-24T18:09:28.35</time>
<name>3777</name>
</trkpt>
<trkpt lat="48.939808" lon="8.662425">
<ele>319.0</ele>
<speed>3.1</speed>
<course>355.6</course>
<desc>Speed 3.1 km/h Distance 4.09 km</desc>
<time>2010-02-24T18:09:29.35</time>
<name>3778</name>
</trkpt>
<trkpt lat="48.939818" lon="8.662423">
<ele>318.0</ele>
<speed>3.3</speed>
<course>355.3</course>
<desc>Speed 3.3 km/h Distance 4.09 km</desc>
<time>2010-02-24T18:09:30.35</time>
<name>3779</name>
</trkpt>
<trkpt lat="48.939830" lon="8.662422">
<ele>318.0</ele>
<speed>2.9</speed>
<course>11.6</course>
<desc>Speed 2.9 km/h Distance 4.09 km</desc>
<time>2010-02-24T18:09:31.35</time>
<name>3780</name>
</trkpt>
<trkpt lat="48.939840" lon="8.662425">
<ele>317.5</ele>
<speed>3.0</speed>
<course>14.9</course>
<desc>Speed 3.0 km/h Distance 4.09 km</desc>
<time>2010-02-24T18:09:32.35</time>
<name>3781</name>
</trkpt>
<trkpt lat="48.939848" lon="8.662428">
<ele>318.0</ele>
<speed>2.1</speed>
<course>352.6</course>
<desc>Speed 2.1 km/h Distance 4.09 km</desc>
<time>2010-02-24T18:09:33.35</time>
<name>3782</name>
</trkpt>
<trkpt lat="48.939855" lon="8.662427">
<ele>317.0</ele>
<speed>1.8</speed>
<course>8.1</course>
<desc>Speed 1.8 km/h Distance 4.09 km</desc>
<time>2010-02-24T18:09:34.34</time>
<name>3783</name>
</trkpt>
<trkpt lat="48.939860" lon="8.662427">
<ele>317.0</ele>
<speed>1.7</speed>
<course>26.4</course>
<desc>Speed 1.7 km/h Distance 4.09 km</desc>
<time>2010-02-24T18:09:35.35</time>
<name>3784</name>
</trkpt>
<trkpt lat="48.939867" lon="8.662432">
<ele>316.0</ele>
<speed>2.0</speed>
<course>7.4</course>
<desc>Speed 2.0 km/h Distance 4.09 km</desc>
<time>2010-02-24T18:09:36.35</time>
<name>3785</name>
</trkpt>
<trkpt lat="48.939873" lon="8.662433">
<ele>316.0</ele>
<speed>1.5</speed>
<course>12.6</course>
<desc>Speed 1.5 km/h Distance 4.09 km</desc>
<time>2010-02-24T18:09:37.34</time>
<name>3786</name>
</trkpt>
<trkpt lat="48.939875" lon="8.662433">
<ele>316.5</ele>
<speed>0.6</speed>
<course>12.6</course>
<desc>Speed 0.6 km/h Distance 4.09 km</desc>
<time>2010-02-24T18:09:38.35</time>
<name>3787</name>
</trkpt>
<trkpt lat="48.939875" lon="8.662433">
<ele>316.5</ele>
<speed>0.7</speed>
<course>12.6</course>
<desc>Speed 0.7 km/h Distance 4.09 km</desc>
<time>2010-02-24T18:09:39.34</time>
<name>3788</name>
</trkpt>
<trkpt lat="48.939875" lon="8.662433">
<ele>316.5</ele>
<speed>0.6</speed>
<course>12.6</course>
<desc>Speed 0.6 km/h Distance 4.09 km</desc>
<time>2010-02-24T18:09:40.34</time>
<name>3789</name>
</trkpt>
<trkpt lat="48.939875" lon="8.662433">
<ele>316.5</ele>
<speed>0.2</speed>
<course>322.8</course>
<desc>Speed 0.2 km/h Distance 4.09 km</desc>
<time>2010-02-24T18:09:41.34</time>
<name>3790</name>
</trkpt>
<trkpt lat="48.939877" lon="8.662432">
<ele>316.5</ele>
<speed>1.0</speed>
<course>13.5</course>
<desc>Speed 1.0 km/h Distance 4.10 km</desc>
<time>2010-02-24T18:09:42.34</time>
<name>3791</name>
</trkpt>
<trkpt lat="48.939890" lon="8.662437">
<ele>318.0</ele>
<speed>2.1</speed>
<course>352.3</course>
<desc>Speed 2.1 km/h Distance 4.10 km</desc>
<time>2010-02-24T18:09:43.34</time>
<name>3792</name>
</trkpt>
<trkpt lat="48.939898" lon="8.662435">
<ele>318.5</ele>
<speed>2.3</speed>
<course>12.6</course>
<desc>Speed 2.3 km/h Distance 4.10 km</desc>
<time>2010-02-24T18:09:44.34</time>
<name>3793</name>
</trkpt>
<trkpt lat="48.939903" lon="8.662437">
<ele>318.5</ele>
<speed>2.6</speed>
<course>5.0</course>
<desc>Speed 2.6 km/h Distance 4.10 km</desc>
<time>2010-02-24T18:09:45.34</time>
<name>3794</name>
</trkpt>
<trkpt lat="48.939912" lon="8.662438">
<ele>318.5</ele>
<speed>2.9</speed>
<course>355.0</course>
<desc>Speed 2.9 km/h Distance 4.10 km</desc>
<time>2010-02-24T18:09:46.34</time>
<name>3795</name>
</trkpt>
<trkpt lat="48.939920" lon="8.662437">
<ele>319.0</ele>
<speed>2.5</speed>
<course>352.6</course>
<desc>Speed 2.5 km/h Distance 4.10 km</desc>
<time>2010-02-24T18:09:47.34</time>
<name>3796</name>
</trkpt>
<trkpt lat="48.939927" lon="8.662435">
<ele>319.0</ele>
<speed>2.6</speed>
<course>0.0</course>
<desc>Speed 2.6 km/h Distance 4.10 km</desc>
<time>2010-02-24T18:09:48.33</time>
<name>3797</name>
</trkpt>
<trkpt lat="48.939938" lon="8.662435">
<ele>319.5</ele>
<speed>3.8</speed>
<course>12.6</course>
<desc>Speed 3.8 km/h Distance 4.10 km</desc>
<time>2010-02-24T18:09:49.34</time>
<name>3798</name>
</trkpt>
<trkpt lat="48.939943" lon="8.662437">
<ele>319.5</ele>
<speed>2.4</speed>
<course>347.4</course>
<desc>Speed 2.4 km/h Distance 4.10 km</desc>
<time>2010-02-24T18:09:50.34</time>
<name>3799</name>
</trkpt>
<trkpt lat="48.939950" lon="8.662435">
<ele>319.5</ele>
<speed>2.6</speed>
<course>352.3</course>
<desc>Speed 2.6 km/h Distance 4.10 km</desc>
<time>2010-02-24T18:09:51.34</time>
<name>3800</name>
</trkpt>
<trkpt lat="48.939958" lon="8.662433">
<ele>319.0</ele>
<speed>3.3</speed>
<course>349.7</course>
<desc>Speed 3.3 km/h Distance 4.10 km</desc>
<time>2010-02-24T18:09:52.34</time>
<name>3801</name>
</trkpt>
<trkpt lat="48.939965" lon="8.662432">
<ele>319.0</ele>
<speed>2.8</speed>
<course>18.8</course>
<desc>Speed 2.8 km/h Distance 4.11 km</desc>
<time>2010-02-24T18:09:53.34</time>
<name>3802</name>
</trkpt>
<trkpt lat="48.939972" lon="8.662435">
<ele>319.0</ele>
<speed>2.5</speed>
<course>346.2</course>
<desc>Speed 2.5 km/h Distance 4.11 km</desc>
<time>2010-02-24T18:09:54.33</time>
<name>3803</name>
</trkpt>
<trkpt lat="48.939980" lon="8.662432">
<ele>319.5</ele>
<speed>3.4</speed>
<course>341.8</course>
<desc>Speed 3.4 km/h Distance 4.11 km</desc>
<time>2010-02-24T18:09:55.34</time>
<name>3804</name>
</trkpt>
<trkpt lat="48.939990" lon="8.662427">
<ele>319.5</ele>
<speed>3.7</speed>
<course>353.4</course>
<desc>Speed 3.7 km/h Distance 4.11 km</desc>
<time>2010-02-24T18:09:56.34</time>
<name>3805</name>
</trkpt>
<trkpt lat="48.940000" lon="8.662425">
<ele>319.5</ele>
<speed>3.2</speed>
<course>352.6</course>
<desc>Speed 3.2 km/h Distance 4.11 km</desc>
<time>2010-02-24T18:09:57.34</time>
<name>3806</name>
</trkpt>
<trkpt lat="48.940007" lon="8.662423">
<ele>319.5</ele>
<speed>2.8</speed>
<course>0.0</course>
<desc>Speed 2.8 km/h Distance 4.11 km</desc>
<time>2010-02-24T18:09:58.33</time>
<name>3807</name>
</trkpt>
<trkpt lat="48.940017" lon="8.662423">
<ele>319.0</ele>
<speed>3.6</speed>
<course>346.2</course>
<desc>Speed 3.6 km/h Distance 4.11 km</desc>
<time>2010-02-24T18:09:59.33</time>
<name>3808</name>
</trkpt>
<trkpt lat="48.940025" lon="8.662420">
<ele>319.0</ele>
<speed>2.2</speed>
<course>345.1</course>
<desc>Speed 2.2 km/h Distance 4.11 km</desc>
<time>2010-02-24T18:10:00.33</time>
<name>3809</name>
</trkpt>
<trkpt lat="48.940033" lon="8.662417">
<ele>319.0</ele>
<speed>2.7</speed>
<course>347.4</course>
<desc>Speed 2.7 km/h Distance 4.11 km</desc>
<time>2010-02-24T18:10:01.33</time>
<name>3810</name>
</trkpt>
<trkpt lat="48.940043" lon="8.662413">
<ele>319.0</ele>
<speed>3.0</speed>
<course>330.6</course>
<desc>Speed 3.0 km/h Distance 4.11 km</desc>
<time>2010-02-24T18:10:02.33</time>
<name>3811</name>
</trkpt>
<trkpt lat="48.940055" lon="8.662403">
<ele>319.0</ele>
<speed>3.7</speed>
<course>338.5</course>
<desc>Speed 3.7 km/h Distance 4.12 km</desc>
<time>2010-02-24T18:10:03.33</time>
<name>3812</name>
</trkpt>
<trkpt lat="48.940063" lon="8.662398">
<ele>319.0</ele>
<speed>2.9</speed>
<course>345.1</course>
<desc>Speed 2.9 km/h Distance 4.12 km</desc>
<time>2010-02-24T18:10:04.33</time>
<name>3813</name>
</trkpt>
<trkpt lat="48.940072" lon="8.662395">
<ele>319.0</ele>
<speed>3.5</speed>
<course>342.4</course>
<desc>Speed 3.5 km/h Distance 4.12 km</desc>
<time>2010-02-24T18:10:05.33</time>
<name>3814</name>
</trkpt>
<trkpt lat="48.940082" lon="8.662390">
<ele>319.0</ele>
<speed>3.6</speed>
<course>349.6</course>
<desc>Speed 3.6 km/h Distance 4.12 km</desc>
<time>2010-02-24T18:10:06.33</time>
<name>3815</name>
</trkpt>
<trkpt lat="48.940093" lon="8.662387">
<ele>319.5</ele>
<speed>3.5</speed>
<course>345.1</course>
<desc>Speed 3.5 km/h Distance 4.12 km</desc>
<time>2010-02-24T18:10:07.33</time>
<name>3816</name>
</trkpt>
<trkpt lat="48.940102" lon="8.662383">
<ele>319.5</ele>
<speed>3.0</speed>
<course>347.4</course>
<desc>Speed 3.0 km/h Distance 4.12 km</desc>
<time>2010-02-24T18:10:08.33</time>
<name>3817</name>
</trkpt>
<trkpt lat="48.940112" lon="8.662380">
<ele>319.5</ele>
<speed>3.0</speed>
<course>333.6</course>
<desc>Speed 3.0 km/h Distance 4.12 km</desc>
<time>2010-02-24T18:10:09.33</time>
<name>3818</name>
</trkpt>
<trkpt lat="48.940118" lon="8.662375">
<ele>319.5</ele>
<speed>2.2</speed>
<course>293.5</course>
<desc>Speed 2.2 km/h Distance 4.12 km</desc>
<time>2010-02-24T18:10:10.33</time>
<name>3819</name>
</trkpt>
<trkpt lat="48.940122" lon="8.662363">
<ele>319.5</ele>
<speed>2.3</speed>
<course>293.5</course>
<desc>Speed 2.3 km/h Distance 4.12 km</desc>
<time>2010-02-24T18:10:11.34</time>
<name>3820</name>
</trkpt>
<trkpt lat="48.940122" lon="8.662363">
<ele>319.5</ele>
<speed>0.5</speed>
<course>293.5</course>
<desc>Speed 0.5 km/h Distance 4.12 km</desc>
<time>2010-02-24T18:10:12.32</time>
<name>3821</name>
</trkpt>
<trkpt lat="48.940122" lon="8.662363">
<ele>319.5</ele>
<speed>0.4</speed>
<course>290.9</course>
<desc>Speed 0.4 km/h Distance 4.12 km</desc>
<time>2010-02-24T18:10:13.33</time>
<name>3822</name>
</trkpt>
<trkpt lat="48.940123" lon="8.662357">
<ele>320.0</ele>
<speed>1.7</speed>
<course>327.7</course>
<desc>Speed 1.7 km/h Distance 4.12 km</desc>
<time>2010-02-24T18:10:14.32</time>
<name>3823</name>
</trkpt>
<trkpt lat="48.940128" lon="8.662352">
<ele>319.5</ele>
<speed>2.1</speed>
<course>326.8</course>
<desc>Speed 2.1 km/h Distance 4.13 km</desc>
<time>2010-02-24T18:10:15.32</time>
<name>3824</name>
</trkpt>
<trkpt lat="48.940133" lon="8.662347">
<ele>320.0</ele>
<speed>2.2</speed>
<course>333.6</course>
<desc>Speed 2.2 km/h Distance 4.13 km</desc>
<time>2010-02-24T18:10:16.32</time>
<name>3825</name>
</trkpt>
<trkpt lat="48.940140" lon="8.662342">
<ele>320.0</ele>
<speed>2.8</speed>
<course>342.5</course>
<desc>Speed 2.8 km/h Distance 4.13 km</desc>
<time>2010-02-24T18:10:17.33</time>
<name>3826</name>
</trkpt>
<trkpt lat="48.940147" lon="8.662338">
<ele>320.0</ele>
<speed>2.9</speed>
<course>7.4</course>
<desc>Speed 2.9 km/h Distance 4.13 km</desc>
<time>2010-02-24T18:10:18.32</time>
<name>3827</name>
</trkpt>
<trkpt lat="48.940153" lon="8.662340">
<ele>320.5</ele>
<speed>1.8</speed>
<course>355.0</course>
<desc>Speed 1.8 km/h Distance 4.13 km</desc>
<time>2010-02-24T18:10:19.32</time>
<name>3828</name>
</trkpt>
<trkpt lat="48.940162" lon="8.662338">
<ele>321.0</ele>
<speed>3.0</speed>
<course>352.6</course>
<desc>Speed 3.0 km/h Distance 4.13 km</desc>
<time>2010-02-24T18:10:20.31</time>
<name>3829</name>
</trkpt>
<trkpt lat="48.940168" lon="8.662337">
<ele>321.0</ele>
<speed>2.3</speed>
<course>355.0</course>
<desc>Speed 2.3 km/h Distance 4.13 km</desc>
<time>2010-02-24T18:10:21.32</time>
<name>3830</name>
</trkpt>
<trkpt lat="48.940177" lon="8.662335">
<ele>321.0</ele>
<speed>2.4</speed>
<course>0.0</course>
<desc>Speed 2.4 km/h Distance 4.13 km</desc>
<time>2010-02-24T18:10:22.32</time>
<name>3831</name>
</trkpt>
<trkpt lat="48.940187" lon="8.662335">
<ele>320.5</ele>
<speed>3.2</speed>
<course>326.8</course>
<desc>Speed 3.2 km/h Distance 4.13 km</desc>
<time>2010-02-24T18:10:23.32</time>
<name>3832</name>
</trkpt>
<trkpt lat="48.940193" lon="8.662328">
<ele>321.0</ele>
<speed>2.7</speed>
<course>352.6</course>
<desc>Speed 2.7 km/h Distance 4.13 km</desc>
<time>2010-02-24T18:10:24.32</time>
<name>3833</name>
</trkpt>
<trkpt lat="48.940200" lon="8.662327">
<ele>321.0</ele>
<speed>2.1</speed>
<course>342.5</course>
<desc>Speed 2.1 km/h Distance 4.13 km</desc>
<time>2010-02-24T18:10:25.32</time>
<name>3834</name>
</trkpt>
<trkpt lat="48.940207" lon="8.662323">
<ele>321.0</ele>
<speed>1.9</speed>
<course>352.6</course>
<desc>Speed 1.9 km/h Distance 4.13 km</desc>
<time>2010-02-24T18:10:26.32</time>
<name>3835</name>
</trkpt>
<trkpt lat="48.940213" lon="8.662322">
<ele>321.0</ele>
<speed>2.4</speed>
<course>336.2</course>
<desc>Speed 2.4 km/h Distance 4.13 km</desc>
<time>2010-02-24T18:10:27.32</time>
<name>3836</name>
</trkpt>
<trkpt lat="48.940223" lon="8.662315">
<ele>321.0</ele>
<speed>2.8</speed>
<course>326.8</course>
<desc>Speed 2.8 km/h Distance 4.14 km</desc>
<time>2010-02-24T18:10:28.32</time>
<name>3837</name>
</trkpt>
<trkpt lat="48.940232" lon="8.662307">
<ele>321.0</ele>
<speed>3.1</speed>
<course>338.5</course>
<desc>Speed 3.1 km/h Distance 4.14 km</desc>
<time>2010-02-24T18:10:29.32</time>
<name>3838</name>
</trkpt>
<trkpt lat="48.940240" lon="8.662302">
<ele>321.0</ele>
<speed>2.2</speed>
<course>6.3</course>
<desc>Speed 2.2 km/h Distance 4.14 km</desc>
<time>2010-02-24T18:10:30.32</time>
<name>3839</name>
</trkpt>
<trkpt lat="48.940252" lon="8.662303">
<ele>320.0</ele>
<speed>3.7</speed>
<course>346.2</course>
<desc>Speed 3.7 km/h Distance 4.14 km</desc>
<time>2010-02-24T18:10:31.32</time>
<name>3840</name>
</trkpt>
<trkpt lat="48.940260" lon="8.662300">
<ele>320.0</ele>
<speed>3.3</speed>
<course>338.5</course>
<desc>Speed 3.3 km/h Distance 4.14 km</desc>
<time>2010-02-24T18:10:32.32</time>
<name>3841</name>
</trkpt>
<trkpt lat="48.940268" lon="8.662295">
<ele>320.5</ele>
<speed>2.4</speed>
<course>317.4</course>
<desc>Speed 2.4 km/h Distance 4.14 km</desc>
<time>2010-02-24T18:10:33.31</time>
<name>3842</name>
</trkpt>
<trkpt lat="48.940277" lon="8.662283">
<ele>320.5</ele>
<speed>3.2</speed>
<course>319.1</course>
<desc>Speed 3.2 km/h Distance 4.14 km</desc>
<time>2010-02-24T18:10:34.32</time>
<name>3843</name>
</trkpt>
<trkpt lat="48.940282" lon="8.662277">
<ele>320.5</ele>
<speed>2.4</speed>
<course>332.1</course>
<desc>Speed 2.4 km/h Distance 4.14 km</desc>
<time>2010-02-24T18:10:35.31</time>
<name>3844</name>
</trkpt>
<trkpt lat="48.940290" lon="8.662270">
<ele>320.5</ele>
<speed>3.3</speed>
<course>336.2</course>
<desc>Speed 3.3 km/h Distance 4.14 km</desc>
<time>2010-02-24T18:10:36.31</time>
<name>3845</name>
</trkpt>
<trkpt lat="48.940295" lon="8.662267">
<ele>320.5</ele>
<speed>1.6</speed>
<course>330.8</course>
<desc>Speed 1.6 km/h Distance 4.15 km</desc>
<time>2010-02-24T18:10:37.31</time>
<name>3846</name>
</trkpt>
<trkpt lat="48.940297" lon="8.662265">
<ele>320.5</ele>
<speed>0.0</speed>
<course>270.0</course>
<desc>Speed 0.0 km/h Distance 4.15 km</desc>
<time>2010-02-24T18:10:38.31</time>
<name>3847</name>
</trkpt>
<trkpt lat="48.940297" lon="8.662260">
<ele>320.5</ele>
<speed>1.1</speed>
<course>308.1</course>
<desc>Speed 1.1 km/h Distance 4.15 km</desc>
<time>2010-02-24T18:10:39.30</time>
<name>3848</name>
</trkpt>
<trkpt lat="48.940298" lon="8.662257">
<ele>320.5</ele>
<speed>1.3</speed>
<course>320.6</course>
<desc>Speed 1.3 km/h Distance 4.15 km</desc>
<time>2010-02-24T18:10:40.31</time>
<name>3849</name>
</trkpt>
<trkpt lat="48.940305" lon="8.662248">
<ele>320.5</ele>
<speed>3.0</speed>
<course>347.4</course>
<desc>Speed 3.0 km/h Distance 4.15 km</desc>
<time>2010-02-24T18:10:41.30</time>
<name>3850</name>
</trkpt>
<trkpt lat="48.940310" lon="8.662247">
<ele>321.0</ele>
<speed>2.5</speed>
<course>353.4</course>
<desc>Speed 2.5 km/h Distance 4.15 km</desc>
<time>2010-02-24T18:10:42.30</time>
<name>3851</name>
</trkpt>
<trkpt lat="48.940320" lon="8.662245">
<ele>321.0</ele>
<speed>3.2</speed>
<course>352.6</course>
<desc>Speed 3.2 km/h Distance 4.15 km</desc>
<time>2010-02-24T18:10:43.30</time>
<name>3852</name>
</trkpt>
<trkpt lat="48.940327" lon="8.662243">
<ele>320.5</ele>
<speed>3.3</speed>
<course>29.2</course>
<desc>Speed 3.3 km/h Distance 4.15 km</desc>
<time>2010-02-24T18:10:44.30</time>
<name>3853</name>
</trkpt>
<trkpt lat="48.940328" lon="8.662245">
<ele>321.0</ele>
<speed>0.6</speed>
<course>270.0</course>
<desc>Speed 0.6 km/h Distance 4.15 km</desc>
<time>2010-02-24T18:10:45.31</time>
<name>3854</name>
</trkpt>
<trkpt lat="48.940328" lon="8.662243">
<ele>321.0</ele>
<speed>0.4</speed>
<course>62.6</course>
<desc>Speed 0.4 km/h Distance 4.15 km</desc>
<time>2010-02-24T18:10:46.31</time>
<name>3855</name>
</trkpt>
<trkpt lat="48.940330" lon="8.662248">
<ele>321.0</ele>
<speed>1.3</speed>
<course>352.6</course>
<desc>Speed 1.3 km/h Distance 4.15 km</desc>
<time>2010-02-24T18:10:47.31</time>
<name>3856</name>
</trkpt>
<trkpt lat="48.940337" lon="8.662247">
<ele>320.5</ele>
<speed>2.9</speed>
<course>342.4</course>
<desc>Speed 2.9 km/h Distance 4.15 km</desc>
<time>2010-02-24T18:10:48.31</time>
<name>3857</name>
</trkpt>
<trkpt lat="48.940347" lon="8.662242">
<ele>320.5</ele>
<speed>3.5</speed>
<course>336.2</course>
<desc>Speed 3.5 km/h Distance 4.15 km</desc>
<time>2010-02-24T18:10:49.30</time>
<name>3858</name>
</trkpt>
<trkpt lat="48.940357" lon="8.662235">
<ele>320.5</ele>
<speed>3.6</speed>
<course>346.0</course>
<desc>Speed 3.6 km/h Distance 4.15 km</desc>
<time>2010-02-24T18:10:50.31</time>
<name>3859</name>
</trkpt>
<trkpt lat="48.940370" lon="8.662230">
<ele>320.0</ele>
<speed>4.2</speed>
<course>355.3</course>
<desc>Speed 4.2 km/h Distance 4.15 km</desc>
<time>2010-02-24T18:10:51.31</time>
<name>3860</name>
</trkpt>
<trkpt lat="48.940382" lon="8.662228">
<ele>319.5</ele>
<speed>3.6</speed>
<course>332.1</course>
<desc>Speed 3.6 km/h Distance 4.16 km</desc>
<time>2010-02-24T18:10:52.31</time>
<name>3861</name>
</trkpt>
<trkpt lat="48.940390" lon="8.662222">
<ele>319.5</ele>
<speed>3.3</speed>
<course>347.4</course>
<desc>Speed 3.3 km/h Distance 4.16 km</desc>
<time>2010-02-24T18:10:53.31</time>
<name>3862</name>
</trkpt>
<trkpt lat="48.940395" lon="8.662220">
<ele>320.0</ele>
<speed>0.9</speed>
<course>341.2</course>
<desc>Speed 0.9 km/h Distance 4.16 km</desc>
<time>2010-02-24T18:10:54.30</time>
<name>3863</name>
</trkpt>
<trkpt lat="48.940398" lon="8.662218">
<ele>320.0</ele>
<speed>0.8</speed>
<course>326.3</course>
<desc>Speed 0.8 km/h Distance 4.16 km</desc>
<time>2010-02-24T18:10:55.30</time>
<name>3864</name>
</trkpt>
<trkpt lat="48.940405" lon="8.662212">
<ele>320.0</ele>
<speed>2.5</speed>
<course>345.1</course>
<desc>Speed 2.5 km/h Distance 4.16 km</desc>
<time>2010-02-24T18:10:56.31</time>
<name>3865</name>
</trkpt>
<trkpt lat="48.940413" lon="8.662208">
<ele>320.0</ele>
<speed>2.7</speed>
<course>338.5</course>
<desc>Speed 2.7 km/h Distance 4.16 km</desc>
<time>2010-02-24T18:10:57.31</time>
<name>3866</name>
</trkpt>
<trkpt lat="48.940422" lon="8.662203">
<ele>320.0</ele>
<speed>2.9</speed>
<course>338.5</course>
<desc>Speed 2.9 km/h Distance 4.16 km</desc>
<time>2010-02-24T18:10:58.30</time>
<name>3867</name>
</trkpt>
<trkpt lat="48.940430" lon="8.662198">
<ele>320.0</ele>
<speed>2.7</speed>
<course>326.3</course>
<desc>Speed 2.7 km/h Distance 4.16 km</desc>
<time>2010-02-24T18:10:59.30</time>
<name>3868</name>
</trkpt>
<trkpt lat="48.940433" lon="8.662195">
<ele>320.0</ele>
<speed>1.3</speed>
<course>326.3</course>
<desc>Speed 1.3 km/h Distance 4.16 km</desc>
<time>2010-02-24T18:11:00.30</time>
<name>3869</name>
</trkpt>
<trkpt lat="48.940433" lon="8.662195">
<ele>320.0</ele>
<speed>0.1</speed>
<course>12.6</course>
<desc>Speed 0.1 km/h Distance 4.16 km</desc>
<time>2010-02-24T18:11:01.30</time>
<name>3870</name>
</trkpt>
<trkpt lat="48.940435" lon="8.662195">
<ele>319.5</ele>
<speed>0.3</speed>
<course>347.4</course>
<desc>Speed 0.3 km/h Distance 4.16 km</desc>
<time>2010-02-24T18:11:02.30</time>
<name>3871</name>
</trkpt>
<trkpt lat="48.940438" lon="8.662193">
<ele>320.0</ele>
<speed>0.4</speed>
<course>330.8</course>
<desc>Speed 0.4 km/h Distance 4.16 km</desc>
<time>2010-02-24T18:11:03.30</time>
<name>3872</name>
</trkpt>
<trkpt lat="48.940440" lon="8.662192">
<ele>320.0</ele>
<speed>0.3</speed>
<course>341.2</course>
<desc>Speed 0.3 km/h Distance 4.16 km</desc>
<time>2010-02-24T18:11:04.30</time>
<name>3873</name>
</trkpt>
<trkpt lat="48.940443" lon="8.662190">
<ele>319.5</ele>
<speed>0.3</speed>
<course>347.4</course>
<desc>Speed 0.3 km/h Distance 4.16 km</desc>
<time>2010-02-24T18:11:05.30</time>
<name>3874</name>
</trkpt>
<trkpt lat="48.940447" lon="8.662188">
<ele>319.5</ele>
<speed>0.2</speed>
<course>37.2</course>
<desc>Speed 0.2 km/h Distance 4.16 km</desc>
<time>2010-02-24T18:11:06.30</time>
<name>3875</name>
</trkpt>
<trkpt lat="48.940448" lon="8.662190">
<ele>319.5</ele>
<speed>1.0</speed>
<course>341.2</course>
<desc>Speed 1.0 km/h Distance 4.16 km</desc>
<time>2010-02-24T18:11:07.30</time>
<name>3876</name>
</trkpt>
<trkpt lat="48.940455" lon="8.662187">
<ele>320.0</ele>
<speed>2.2</speed>
<course>332.1</course>
<desc>Speed 2.2 km/h Distance 4.17 km</desc>
<time>2010-02-24T18:11:08.30</time>
<name>3877</name>
</trkpt>
<trkpt lat="48.940463" lon="8.662180">
<ele>320.0</ele>
<speed>3.1</speed>
<course>326.8</course>
<desc>Speed 3.1 km/h Distance 4.17 km</desc>
<time>2010-02-24T18:11:09.30</time>
<name>3878</name>
</trkpt>
<trkpt lat="48.940473" lon="8.662170">
<ele>320.0</ele>
<speed>2.7</speed>
<course>319.1</course>
<desc>Speed 2.7 km/h Distance 4.17 km</desc>
<time>2010-02-24T18:11:10.30</time>
<name>3879</name>
</trkpt>
<trkpt lat="48.940478" lon="8.662163">
<ele>320.5</ele>
<speed>2.9</speed>
<course>326.8</course>
<desc>Speed 2.9 km/h Distance 4.17 km</desc>
<time>2010-02-24T18:11:11.30</time>
<name>3880</name>
</trkpt>
<trkpt lat="48.940488" lon="8.662153">
<ele>320.5</ele>
<speed>3.3</speed>
<course>326.8</course>
<desc>Speed 3.3 km/h Distance 4.17 km</desc>
<time>2010-02-24T18:11:12.30</time>
<name>3881</name>
</trkpt>
<trkpt lat="48.940497" lon="8.662145">
<ele>321.0</ele>
<speed>3.0</speed>
<course>336.2</course>
<desc>Speed 3.0 km/h Distance 4.17 km</desc>
<time>2010-02-24T18:11:13.29</time>
<name>3882</name>
</trkpt>
<trkpt lat="48.940507" lon="8.662138">
<ele>320.5</ele>
<speed>3.0</speed>
<course>334.8</course>
<desc>Speed 3.0 km/h Distance 4.17 km</desc>
<time>2010-02-24T18:11:14.29</time>
<name>3883</name>
</trkpt>
<trkpt lat="48.940518" lon="8.662130">
<ele>320.5</ele>
<speed>3.5</speed>
<course>349.6</course>
<desc>Speed 3.5 km/h Distance 4.17 km</desc>
<time>2010-02-24T18:11:15.30</time>
<name>3884</name>
</trkpt>
<trkpt lat="48.940530" lon="8.662127">
<ele>320.5</ele>
<speed>2.8</speed>
<course>346.5</course>
<desc>Speed 2.8 km/h Distance 4.17 km</desc>
<time>2010-02-24T18:11:16.29</time>
<name>3885</name>
</trkpt>
<trkpt lat="48.940543" lon="8.662122">
<ele>320.5</ele>
<speed>2.9</speed>
<course>341.9</course>
<desc>Speed 2.9 km/h Distance 4.18 km</desc>
<time>2010-02-24T18:11:17.29</time>
<name>3886</name>
</trkpt>
<trkpt lat="48.940557" lon="8.662115">
<ele>321.0</ele>
<speed>3.0</speed>
<course>336.5</course>
<desc>Speed 3.0 km/h Distance 4.18 km</desc>
<time>2010-02-24T18:11:18.29</time>
<name>3887</name>
</trkpt>
<trkpt lat="48.940572" lon="8.662105">
<ele>321.5</ele>
<speed>3.1</speed>
<course>345.1</course>
<desc>Speed 3.1 km/h Distance 4.18 km</desc>
<time>2010-02-24T18:11:19.29</time>
<name>3888</name>
</trkpt>
<trkpt lat="48.940583" lon="8.662100">
<ele>321.5</ele>
<speed>3.1</speed>
<course>348.3</course>
<desc>Speed 3.1 km/h Distance 4.18 km</desc>
<time>2010-02-24T18:11:20.29</time>
<name>3889</name>
</trkpt>
<trkpt lat="48.940598" lon="8.662095">
<ele>322.0</ele>
<speed>3.9</speed>
<course>348.3</course>
<desc>Speed 3.9 km/h Distance 4.18 km</desc>
<time>2010-02-24T18:11:21.29</time>
<name>3890</name>
</trkpt>
<trkpt lat="48.940613" lon="8.662090">
<ele>322.0</ele>
<speed>3.9</speed>
<course>334.8</course>
<desc>Speed 3.9 km/h Distance 4.18 km</desc>
<time>2010-02-24T18:11:22.29</time>
<name>3891</name>
</trkpt>
<trkpt lat="48.940625" lon="8.662082">
<ele>322.5</ele>
<speed>3.2</speed>
<course>326.6</course>
<desc>Speed 3.2 km/h Distance 4.19 km</desc>
<time>2010-02-24T18:11:23.29</time>
<name>3892</name>
</trkpt>
<trkpt lat="48.940635" lon="8.662072">
<ele>322.5</ele>
<speed>3.7</speed>
<course>322.5</course>
<desc>Speed 3.7 km/h Distance 4.19 km</desc>
<time>2010-02-24T18:11:24.29</time>
<name>3893</name>
</trkpt>
<trkpt lat="48.940645" lon="8.662060">
<ele>323.0</ele>
<speed>3.5</speed>
<course>345.1</course>
<desc>Speed 3.5 km/h Distance 4.19 km</desc>
<time>2010-02-24T18:11:25.29</time>
<name>3894</name>
</trkpt>
<trkpt lat="48.940653" lon="8.662057">
<ele>322.5</ele>
<speed>3.2</speed>
<course>355.6</course>
<desc>Speed 3.2 km/h Distance 4.19 km</desc>
<time>2010-02-24T18:11:26.29</time>
<name>3895</name>
</trkpt>
<trkpt lat="48.940663" lon="8.662055">
<ele>322.5</ele>
<speed>3.0</speed>
<course>344.5</course>
<desc>Speed 3.0 km/h Distance 4.19 km</desc>
<time>2010-02-24T18:11:27.29</time>
<name>3896</name>
</trkpt>
<trkpt lat="48.940675" lon="8.662050">
<ele>323.0</ele>
<speed>3.7</speed>
<course>336.6</course>
<desc>Speed 3.7 km/h Distance 4.19 km</desc>
<time>2010-02-24T18:11:28.29</time>
<name>3897</name>
</trkpt>
<trkpt lat="48.940685" lon="8.662043">
<ele>323.0</ele>
<speed>3.6</speed>
<course>346.5</course>
<desc>Speed 3.6 km/h Distance 4.19 km</desc>
<time>2010-02-24T18:11:29.29</time>
<name>3898</name>
</trkpt>
<trkpt lat="48.940698" lon="8.662038">
<ele>322.5</ele>
<speed>3.6</speed>
<course>344.5</course>
<desc>Speed 3.6 km/h Distance 4.19 km</desc>
<time>2010-02-24T18:11:30.28</time>
<name>3899</name>
</trkpt>
<trkpt lat="48.940710" lon="8.662033">
<ele>322.5</ele>
<speed>3.7</speed>
<course>344.0</course>
<desc>Speed 3.7 km/h Distance 4.20 km</desc>
<time>2010-02-24T18:11:31.29</time>
<name>3900</name>
</trkpt>
<trkpt lat="48.940722" lon="8.662028">
<ele>322.5</ele>
<speed>3.9</speed>
<course>339.1</course>
<desc>Speed 3.9 km/h Distance 4.20 km</desc>
<time>2010-02-24T18:11:32.28</time>
<name>3901</name>
</trkpt>
<trkpt lat="48.940733" lon="8.662022">
<ele>322.5</ele>
<speed>3.7</speed>
<course>341.8</course>
<desc>Speed 3.7 km/h Distance 4.20 km</desc>
<time>2010-02-24T18:11:33.28</time>
<name>3902</name>
</trkpt>
<trkpt lat="48.940743" lon="8.662017">
<ele>322.0</ele>
<speed>3.2</speed>
<course>338.5</course>
<desc>Speed 3.2 km/h Distance 4.20 km</desc>
<time>2010-02-24T18:11:34.28</time>
<name>3903</name>
</trkpt>
<trkpt lat="48.940752" lon="8.662012">
<ele>321.5</ele>
<speed>2.9</speed>
<course>355.3</course>
<desc>Speed 2.9 km/h Distance 4.20 km</desc>
<time>2010-02-24T18:11:35.28</time>
<name>3904</name>
</trkpt>
<trkpt lat="48.940763" lon="8.662010">
<ele>321.5</ele>
<speed>3.3</speed>
<course>355.6</course>
<desc>Speed 3.3 km/h Distance 4.20 km</desc>
<time>2010-02-24T18:11:36.28</time>
<name>3905</name>
</trkpt>
<trkpt lat="48.940773" lon="8.662008">
<ele>321.5</ele>
<speed>3.4</speed>
<course>356.1</course>
<desc>Speed 3.4 km/h Distance 4.20 km</desc>
<time>2010-02-24T18:11:37.28</time>
<name>3906</name>
</trkpt>
<trkpt lat="48.940787" lon="8.662007">
<ele>321.0</ele>
<speed>3.5</speed>
<course>349.6</course>
<desc>Speed 3.5 km/h Distance 4.20 km</desc>
<time>2010-02-24T18:11:38.28</time>
<name>3907</name>
</trkpt>
<trkpt lat="48.940798" lon="8.662003">
<ele>321.0</ele>
<speed>3.6</speed>
<course>339.1</course>
<desc>Speed 3.6 km/h Distance 4.21 km</desc>
<time>2010-02-24T18:11:39.28</time>
<name>3908</name>
</trkpt>
<trkpt lat="48.940810" lon="8.661997">
<ele>321.0</ele>
<speed>4.1</speed>
<course>11.2</course>
<desc>Speed 4.1 km/h Distance 4.21 km</desc>
<time>2010-02-24T18:11:40.28</time>
<name>3909</name>
</trkpt>
<trkpt lat="48.940827" lon="8.662002">
<ele>321.5</ele>
<speed>5.4</speed>
<course>0.0</course>
<desc>Speed 5.4 km/h Distance 4.21 km</desc>
<time>2010-02-24T18:11:41.28</time>
<name>3910</name>
</trkpt>
<trkpt lat="48.940838" lon="8.662002">
<ele>321.0</ele>
<speed>3.7</speed>
<course>350.5</course>
<desc>Speed 3.7 km/h Distance 4.21 km</desc>
<time>2010-02-24T18:11:42.28</time>
<name>3911</name>
</trkpt>
<trkpt lat="48.940850" lon="8.661998">
<ele>321.0</ele>
<speed>3.9</speed>
<course>355.6</course>
<desc>Speed 3.9 km/h Distance 4.21 km</desc>
<time>2010-02-24T18:11:43.28</time>
<name>3912</name>
</trkpt>
<trkpt lat="48.940860" lon="8.661997">
<ele>321.0</ele>
<speed>3.9</speed>
<course>339.2</course>
<desc>Speed 3.9 km/h Distance 4.21 km</desc>
<time>2010-02-24T18:11:44.28</time>
<name>3913</name>
</trkpt>
<trkpt lat="48.940868" lon="8.661992">
<ele>321.0</ele>
<speed>3.2</speed>
<course>355.0</course>
<desc>Speed 3.2 km/h Distance 4.21 km</desc>
<time>2010-02-24T18:11:45.28</time>
<name>3914</name>
</trkpt>
<trkpt lat="48.940877" lon="8.661990">
<ele>320.0</ele>
<speed>2.9</speed>
<course>332.1</course>
<desc>Speed 2.9 km/h Distance 4.22 km</desc>
<time>2010-02-24T18:11:46.28</time>
<name>3915</name>
</trkpt>
<trkpt lat="48.940885" lon="8.661983">
<ele>320.5</ele>
<speed>2.7</speed>
<course>8.1</course>
<desc>Speed 2.7 km/h Distance 4.22 km</desc>
<time>2010-02-24T18:11:47.28</time>
<name>3916</name>
</trkpt>
<trkpt lat="48.940890" lon="8.661985">
<ele>320.5</ele>
<speed>1.7</speed>
<course>37.2</course>
<desc>Speed 1.7 km/h Distance 4.22 km</desc>
<time>2010-02-24T18:11:48.28</time>
<name>3917</name>
</trkpt>
<trkpt lat="48.940892" lon="8.661987">
<ele>320.5</ele>
<speed>0.7</speed>
<course>0.0</course>
<desc>Speed 0.7 km/h Distance 4.22 km</desc>
<time>2010-02-24T18:11:49.28</time>
<name>3918</name>
</trkpt>
<trkpt lat="48.940893" lon="8.661987">
<ele>320.5</ele>
<speed>0.6</speed>
<course>270.0</course>
<desc>Speed 0.6 km/h Distance 4.22 km</desc>
<time>2010-02-24T18:11:50.27</time>
<name>3919</name>
</trkpt>
<trkpt lat="48.940893" lon="8.661985">
<ele>320.5</ele>
<speed>0.6</speed>
<course>180.0</course>
<desc>Speed 0.6 km/h Distance 4.22 km</desc>
<time>2010-02-24T18:11:51.27</time>
<name>3920</name>
</trkpt>
<trkpt lat="48.940892" lon="8.661985">
<ele>320.5</ele>
<speed>0.2</speed>
<course>90.0</course>
<desc>Speed 0.2 km/h Distance 4.22 km</desc>
<time>2010-02-24T18:11:52.27</time>
<name>3921</name>
</trkpt>
<trkpt lat="48.940892" lon="8.661987">
<ele>320.5</ele>
<speed>0.1</speed>
<course>324.5</course>
<desc>Speed 0.1 km/h Distance 4.22 km</desc>
<time>2010-02-24T18:11:53.27</time>
<name>3922</name>
</trkpt>
<trkpt lat="48.940912" lon="8.661965">
<ele>320.5</ele>
<speed>3.2</speed>
<course>5.0</course>
<desc>Speed 3.2 km/h Distance 4.22 km</desc>
<time>2010-02-24T18:11:55.27</time>
<name>3923</name>
</trkpt>
<trkpt lat="48.940920" lon="8.661965">
<ele>321.0</ele>
<speed>3.0</speed>
<course>9.6</course>
<desc>Speed 3.0 km/h Distance 4.22 km</desc>
<time>2010-02-24T18:11:56.27</time>
<name>3924</name>
</trkpt>
<trkpt lat="48.940928" lon="8.661967">
<ele>321.0</ele>
<speed>3.2</speed>
<course>350.4</course>
<desc>Speed 3.2 km/h Distance 4.22 km</desc>
<time>2010-02-24T18:11:57.27</time>
<name>3925</name>
</trkpt>
<trkpt lat="48.940937" lon="8.661965">
<ele>321.5</ele>
<speed>3.4</speed>
<course>0.0</course>
<desc>Speed 3.4 km/h Distance 4.22 km</desc>
<time>2010-02-24T18:11:58.27</time>
<name>3926</name>
</trkpt>
<trkpt lat="48.940942" lon="8.661965">
<ele>321.5</ele>
<speed>2.6</speed>
<course>345.1</course>
<desc>Speed 2.6 km/h Distance 4.22 km</desc>
<time>2010-02-24T18:11:59.27</time>
<name>3927</name>
</trkpt>
<trkpt lat="48.940950" lon="8.661962">
<ele>321.5</ele>
<speed>3.0</speed>
<course>341.2</course>
<desc>Speed 3.0 km/h Distance 4.22 km</desc>
<time>2010-02-24T18:12:00.27</time>
<name>3928</name>
</trkpt>
<trkpt lat="48.940957" lon="8.661958">
<ele>321.5</ele>
<speed>3.1</speed>
<course>353.4</course>
<desc>Speed 3.1 km/h Distance 4.23 km</desc>
<time>2010-02-24T18:12:01.27</time>
<name>3929</name>
</trkpt>
<trkpt lat="48.940967" lon="8.661957">
<ele>322.0</ele>
<speed>3.5</speed>
<course>345.1</course>
<desc>Speed 3.5 km/h Distance 4.23 km</desc>
<time>2010-02-24T18:12:02.27</time>
<name>3930</name>
</trkpt>
<trkpt lat="48.940975" lon="8.661953">
<ele>322.0</ele>
<speed>3.3</speed>
<course>348.8</course>
<desc>Speed 3.3 km/h Distance 4.23 km</desc>
<time>2010-02-24T18:12:03.27</time>
<name>3931</name>
</trkpt>
<trkpt lat="48.940987" lon="8.661950">
<ele>322.5</ele>
<speed>3.7</speed>
<course>349.6</course>
<desc>Speed 3.7 km/h Distance 4.23 km</desc>
<time>2010-02-24T18:12:04.27</time>
<name>3932</name>
</trkpt>
<trkpt lat="48.940998" lon="8.661947">
<ele>322.5</ele>
<speed>3.1</speed>
<course>355.6</course>
<desc>Speed 3.1 km/h Distance 4.23 km</desc>
<time>2010-02-24T18:12:05.27</time>
<name>3933</name>
</trkpt>
<trkpt lat="48.941008" lon="8.661945">
<ele>323.0</ele>
<speed>2.7</speed>
<course>320.6</course>
<desc>Speed 2.7 km/h Distance 4.23 km</desc>
<time>2010-02-24T18:12:06.26</time>
<name>3934</name>
</trkpt>
<trkpt lat="48.941015" lon="8.661937">
<ele>323.5</ele>
<speed>2.8</speed>
<course>326.3</course>
<desc>Speed 2.8 km/h Distance 4.23 km</desc>
<time>2010-02-24T18:12:07.26</time>
<name>3935</name>
</trkpt>
<trkpt lat="48.941022" lon="8.661930">
<ele>323.5</ele>
<speed>3.3</speed>
<course>326.5</course>
<desc>Speed 3.3 km/h Distance 4.23 km</desc>
<time>2010-02-24T18:12:08.27</time>
<name>3936</name>
</trkpt>
<trkpt lat="48.941030" lon="8.661922">
<ele>323.5</ele>
<speed>3.7</speed>
<course>352.3</course>
<desc>Speed 3.7 km/h Distance 4.23 km</desc>
<time>2010-02-24T18:12:09.27</time>
<name>3937</name>
</trkpt>
<trkpt lat="48.941038" lon="8.661920">
<ele>323.5</ele>
<speed>4.0</speed>
<course>352.3</course>
<desc>Speed 4.0 km/h Distance 4.24 km</desc>
<time>2010-02-24T18:12:10.27</time>
<name>3938</name>
</trkpt>
<trkpt lat="48.941047" lon="8.661918">
<ele>324.0</ele>
<speed>2.9</speed>
<course>18.8</course>
<desc>Speed 2.9 km/h Distance 4.24 km</desc>
<time>2010-02-24T18:12:11.27</time>
<name>3939</name>
</trkpt>
<trkpt lat="48.941053" lon="8.661922">
<ele>324.0</ele>
<speed>2.8</speed>
<course>18.8</course>
<desc>Speed 2.8 km/h Distance 4.24 km</desc>
<time>2010-02-24T18:12:12.26</time>
<name>3940</name>
</trkpt>
<trkpt lat="48.941057" lon="8.661923">
<ele>324.0</ele>
<speed>0.8</speed>
<course>270.0</course>
<desc>Speed 0.8 km/h Distance 4.24 km</desc>
<time>2010-02-24T18:12:13.26</time>
<name>3941</name>
</trkpt>
<trkpt lat="48.941057" lon="8.661922">
<ele>324.5</ele>
<speed>0.0</speed>
<course>308.1</course>
<desc>Speed 0.0 km/h Distance 4.24 km</desc>
<time>2010-02-24T18:12:14.26</time>
<name>3942</name>
</trkpt>
<trkpt lat="48.941058" lon="8.661918">
<ele>324.5</ele>
<speed>0.3</speed>
<course>270.0</course>
<desc>Speed 0.3 km/h Distance 4.24 km</desc>
<time>2010-02-24T18:12:15.26</time>
<name>3943</name>
</trkpt>
<trkpt lat="48.941058" lon="8.661917">
<ele>325.0</ele>
<speed>0.1</speed>
<course>326.8</course>
<desc>Speed 0.1 km/h Distance 4.24 km</desc>
<time>2010-02-24T18:12:16.26</time>
<name>3944</name>
</trkpt>
<trkpt lat="48.941065" lon="8.661910">
<ele>325.0</ele>
<speed>2.0</speed>
<course>326.8</course>
<desc>Speed 2.0 km/h Distance 4.24 km</desc>
<time>2010-02-24T18:12:17.26</time>
<name>3945</name>
</trkpt>
<trkpt lat="48.941073" lon="8.661902">
<ele>325.0</ele>
<speed>3.2</speed>
<course>336.2</course>
<desc>Speed 3.2 km/h Distance 4.24 km</desc>
<time>2010-02-24T18:12:18.26</time>
<name>3946</name>
</trkpt>
<trkpt lat="48.941083" lon="8.661895">
<ele>325.0</ele>
<speed>3.7</speed>
<course>342.5</course>
<desc>Speed 3.7 km/h Distance 4.24 km</desc>
<time>2010-02-24T18:12:19.26</time>
<name>3947</name>
</trkpt>
<trkpt lat="48.941090" lon="8.661892">
<ele>325.0</ele>
<speed>2.3</speed>
<course>346.2</course>
<desc>Speed 2.3 km/h Distance 4.24 km</desc>
<time>2010-02-24T18:12:20.26</time>
<name>3948</name>
</trkpt>
<trkpt lat="48.941098" lon="8.661888">
<ele>325.0</ele>
<speed>2.3</speed>
<course>90.0</course>
<desc>Speed 2.3 km/h Distance 4.24 km</desc>
<time>2010-02-24T18:12:21.26</time>
<name>3949</name>
</trkpt>
<trkpt lat="48.941098" lon="8.661893">
<ele>325.5</ele>
<speed>1.6</speed>
<course>90.0</course>
<desc>Speed 1.6 km/h Distance 4.24 km</desc>
<time>2010-02-24T18:12:22.26</time>
<name>3950</name>
</trkpt>
<trkpt lat="48.941098" lon="8.661892">
<ele>325.5</ele>
<speed>0.5</speed>
<course>330.8</course>
<desc>Speed 0.5 km/h Distance 4.24 km</desc>
<time>2010-02-24T18:12:23.25</time>
<name>3951</name>
</trkpt>
<trkpt lat="48.941100" lon="8.661890">
<ele>325.5</ele>
<speed>0.4</speed>
<course>330.8</course>
<desc>Speed 0.4 km/h Distance 4.24 km</desc>
<time>2010-02-24T18:12:24.26</time>
<name>3952</name>
</trkpt>
<trkpt lat="48.941100" lon="8.661890">
<ele>325.5</ele>
<speed>0.3</speed>
<course>330.8</course>
<desc>Speed 0.3 km/h Distance 4.24 km</desc>
<time>2010-02-24T18:12:25.26</time>
<name>3953</name>
</trkpt>
<trkpt lat="48.941100" lon="8.661890">
<ele>325.5</ele>
<speed>0.1</speed>
<course>231.9</course>
<desc>Speed 0.1 km/h Distance 4.24 km</desc>
<time>2010-02-24T18:12:26.26</time>
<name>3954</name>
</trkpt>
<trkpt lat="48.941098" lon="8.661887">
<ele>326.0</ele>
<speed>0.3</speed>
<course>231.9</course>
<desc>Speed 0.3 km/h Distance 4.24 km</desc>
<time>2010-02-24T18:12:27.25</time>
<name>3955</name>
</trkpt>
<trkpt lat="48.941098" lon="8.661887">
<ele>326.0</ele>
<speed>0.3</speed>
<course>231.9</course>
<desc>Speed 0.3 km/h Distance 4.24 km</desc>
<time>2010-02-24T18:12:28.25</time>
<name>3956</name>
</trkpt>
<trkpt lat="48.941098" lon="8.661887">
<ele>326.0</ele>
<speed>0.3</speed>
<course>29.2</course>
<desc>Speed 0.3 km/h Distance 4.24 km</desc>
<time>2010-02-24T18:12:29.26</time>
<name>3957</name>
</trkpt>
<trkpt lat="48.941100" lon="8.661888">
<ele>326.5</ele>
<speed>0.2</speed>
<course>167.4</course>
<desc>Speed 0.2 km/h Distance 4.24 km</desc>
<time>2010-02-24T18:12:30.25</time>
<name>3958</name>
</trkpt>
<trkpt lat="48.941098" lon="8.661888">
<ele>326.5</ele>
<speed>0.4</speed>
<course>167.4</course>
<desc>Speed 0.4 km/h Distance 4.24 km</desc>
<time>2010-02-24T18:12:31.25</time>
<name>3959</name>
</trkpt>
<trkpt lat="48.941098" lon="8.661888">
<ele>326.5</ele>
<speed>0.1</speed>
<course>167.4</course>
<desc>Speed 0.1 km/h Distance 4.24 km</desc>
<time>2010-02-24T18:12:32.25</time>
<name>3960</name>
</trkpt>
<trkpt lat="48.941098" lon="8.661888">
<ele>326.5</ele>
<speed>0.5</speed>
<course>180.0</course>
<desc>Speed 0.5 km/h Distance 4.24 km</desc>
<time>2010-02-24T18:12:33.25</time>
<name>3961</name>
</trkpt>
<trkpt lat="48.941097" lon="8.661888">
<ele>326.5</ele>
<speed>0.4</speed>
<course>180.0</course>
<desc>Speed 0.4 km/h Distance 4.24 km</desc>
<time>2010-02-24T18:12:34.25</time>
<name>3962</name>
</trkpt>
<trkpt lat="48.941097" lon="8.661888">
<ele>326.5</ele>
<speed>0.3</speed>
<course>180.0</course>
<desc>Speed 0.3 km/h Distance 4.24 km</desc>
<time>2010-02-24T18:12:35.25</time>
<name>3963</name>
</trkpt>
<trkpt lat="48.941097" lon="8.661888">
<ele>327.0</ele>
<speed>0.3</speed>
<course>270.0</course>
<desc>Speed 0.3 km/h Distance 4.24 km</desc>
<time>2010-02-24T18:12:36.25</time>
<name>3964</name>
</trkpt>
<trkpt lat="48.941097" lon="8.661880">
<ele>327.0</ele>
<speed>2.0</speed>
<course>326.3</course>
<desc>Speed 2.0 km/h Distance 4.24 km</desc>
<time>2010-02-24T18:12:37.25</time>
<name>3965</name>
</trkpt>
<trkpt lat="48.941100" lon="8.661877">
<ele>327.0</ele>
<speed>2.5</speed>
<course>5.0</course>
<desc>Speed 2.5 km/h Distance 4.25 km</desc>
<time>2010-02-24T18:12:38.25</time>
<name>3966</name>
</trkpt>
<trkpt lat="48.941108" lon="8.661877">
<ele>327.5</ele>
<speed>3.1</speed>
<course>0.0</course>
<desc>Speed 3.1 km/h Distance 4.25 km</desc>
<time>2010-02-24T18:12:39.24</time>
<name>3967</name>
</trkpt>
<trkpt lat="48.941113" lon="8.661877">
<ele>327.5</ele>
<speed>2.3</speed>
<course>355.6</course>
<desc>Speed 2.3 km/h Distance 4.25 km</desc>
<time>2010-02-24T18:12:40.25</time>
<name>3968</name>
</trkpt>
<trkpt lat="48.941123" lon="8.661875">
<ele>328.0</ele>
<speed>3.4</speed>
<course>341.8</course>
<desc>Speed 3.4 km/h Distance 4.25 km</desc>
<time>2010-02-24T18:12:41.25</time>
<name>3969</name>
</trkpt>
<trkpt lat="48.941133" lon="8.661870">
<ele>328.0</ele>
<speed>3.7</speed>
<course>352.6</course>
<desc>Speed 3.7 km/h Distance 4.25 km</desc>
<time>2010-02-24T18:12:42.25</time>
<name>3970</name>
</trkpt>
<trkpt lat="48.941140" lon="8.661868">
<ele>328.5</ele>
<speed>2.5</speed>
<course>7.7</course>
<desc>Speed 2.5 km/h Distance 4.25 km</desc>
<time>2010-02-24T18:12:43.24</time>
<name>3971</name>
</trkpt>
<trkpt lat="48.941148" lon="8.661870">
<ele>328.5</ele>
<speed>2.6</speed>
<course>319.1</course>
<desc>Speed 2.6 km/h Distance 4.25 km</desc>
<time>2010-02-24T18:12:44.25</time>
<name>3972</name>
</trkpt>
<trkpt lat="48.941153" lon="8.661863">
<ele>329.0</ele>
<speed>2.6</speed>
<course>345.1</course>
<desc>Speed 2.6 km/h Distance 4.25 km</desc>
<time>2010-02-24T18:12:45.25</time>
<name>3973</name>
</trkpt>
<trkpt lat="48.941162" lon="8.661860">
<ele>329.0</ele>
<speed>3.0</speed>
<course>336.2</course>
<desc>Speed 3.0 km/h Distance 4.25 km</desc>
<time>2010-02-24T18:12:46.24</time>
<name>3974</name>
</trkpt>
<trkpt lat="48.941172" lon="8.661853">
<ele>329.5</ele>
<speed>3.3</speed>
<course>345.1</course>
<desc>Speed 3.3 km/h Distance 4.25 km</desc>
<time>2010-02-24T18:12:47.24</time>
<name>3975</name>
</trkpt>
<trkpt lat="48.941180" lon="8.661850">
<ele>329.5</ele>
<speed>2.8</speed>
<course>346.2</course>
<desc>Speed 2.8 km/h Distance 4.25 km</desc>
<time>2010-02-24T18:12:48.24</time>
<name>3976</name>
</trkpt>
<trkpt lat="48.941188" lon="8.661847">
<ele>329.5</ele>
<speed>3.0</speed>
<course>339.2</course>
<desc>Speed 3.0 km/h Distance 4.26 km</desc>
<time>2010-02-24T18:12:49.24</time>
<name>3977</name>
</trkpt>
<trkpt lat="48.941197" lon="8.661842">
<ele>329.5</ele>
<speed>2.9</speed>
<course>347.4</course>
<desc>Speed 2.9 km/h Distance 4.26 km</desc>
<time>2010-02-24T18:12:50.24</time>
<name>3978</name>
</trkpt>
<trkpt lat="48.941207" lon="8.661838">
<ele>330.0</ele>
<speed>3.2</speed>
<course>355.6</course>
<desc>Speed 3.2 km/h Distance 4.26 km</desc>
<time>2010-02-24T18:12:51.24</time>
<name>3979</name>
</trkpt>
<trkpt lat="48.941217" lon="8.661837">
<ele>330.0</ele>
<speed>3.0</speed>
<course>350.4</course>
<desc>Speed 3.0 km/h Distance 4.26 km</desc>
<time>2010-02-24T18:12:52.24</time>
<name>3980</name>
</trkpt>
<trkpt lat="48.941225" lon="8.661835">
<ele>330.0</ele>
<speed>2.2</speed>
<course>350.4</course>
<desc>Speed 2.2 km/h Distance 4.26 km</desc>
<time>2010-02-24T18:12:53.24</time>
<name>3981</name>
</trkpt>
<trkpt lat="48.941233" lon="8.661833">
<ele>330.0</ele>
<speed>2.7</speed>
<course>355.6</course>
<desc>Speed 2.7 km/h Distance 4.26 km</desc>
<time>2010-02-24T18:12:54.24</time>
<name>3982</name>
</trkpt>
<trkpt lat="48.941243" lon="8.661832">
<ele>330.0</ele>
<speed>2.9</speed>
<course>355.0</course>
<desc>Speed 2.9 km/h Distance 4.26 km</desc>
<time>2010-02-24T18:12:55.24</time>
<name>3983</name>
</trkpt>
<trkpt lat="48.941252" lon="8.661830">
<ele>330.0</ele>
<speed>2.7</speed>
<course>354.7</course>
<desc>Speed 2.7 km/h Distance 4.26 km</desc>
<time>2010-02-24T18:12:56.24</time>
<name>3984</name>
</trkpt>
<trkpt lat="48.941265" lon="8.661828">
<ele>330.0</ele>
<speed>3.5</speed>
<course>342.4</course>
<desc>Speed 3.5 km/h Distance 4.26 km</desc>
<time>2010-02-24T18:12:57.24</time>
<name>3985</name>
</trkpt>
<trkpt lat="48.941275" lon="8.661823">
<ele>330.0</ele>
<speed>2.7</speed>
<course>327.7</course>
<desc>Speed 2.7 km/h Distance 4.27 km</desc>
<time>2010-02-24T18:12:58.24</time>
<name>3986</name>
</trkpt>
<trkpt lat="48.941280" lon="8.661818">
<ele>330.5</ele>
<speed>2.2</speed>
<course>270.0</course>
<desc>Speed 2.2 km/h Distance 4.27 km</desc>
<time>2010-02-24T18:12:59.24</time>
<name>3987</name>
</trkpt>
<trkpt lat="48.941280" lon="8.661813">
<ele>330.5</ele>
<speed>1.2</speed>
<course>29.2</course>
<desc>Speed 1.2 km/h Distance 4.27 km</desc>
<time>2010-02-24T18:13:00.23</time>
<name>3988</name>
</trkpt>
<trkpt lat="48.941282" lon="8.661815">
<ele>331.0</ele>
<speed>0.4</speed>
<course>315.5</course>
<desc>Speed 0.4 km/h Distance 4.27 km</desc>
<time>2010-02-24T18:13:01.24</time>
<name>3989</name>
</trkpt>
<trkpt lat="48.941285" lon="8.661810">
<ele>331.0</ele>
<speed>1.3</speed>
<course>347.4</course>
<desc>Speed 1.3 km/h Distance 4.27 km</desc>
<time>2010-02-24T18:13:02.24</time>
<name>3990</name>
</trkpt>
<trkpt lat="48.941290" lon="8.661808">
<ele>331.0</ele>
<speed>1.5</speed>
<course>12.6</course>
<desc>Speed 1.5 km/h Distance 4.27 km</desc>
<time>2010-02-24T18:13:03.24</time>
<name>3991</name>
</trkpt>
<trkpt lat="48.941293" lon="8.661808">
<ele>331.0</ele>
<speed>1.5</speed>
<course>355.6</course>
<desc>Speed 1.5 km/h Distance 4.27 km</desc>
<time>2010-02-24T18:13:04.23</time>
<name>3992</name>
</trkpt>
<trkpt lat="48.941303" lon="8.661807">
<ele>331.0</ele>
<speed>3.5</speed>
<course>355.0</course>
<desc>Speed 3.5 km/h Distance 4.27 km</desc>
<time>2010-02-24T18:13:05.23</time>
<name>3993</name>
</trkpt>
<trkpt lat="48.941312" lon="8.661805">
<ele>331.0</ele>
<speed>3.4</speed>
<course>0.0</course>
<desc>Speed 3.4 km/h Distance 4.27 km</desc>
<time>2010-02-24T18:13:06.23</time>
<name>3994</name>
</trkpt>
<trkpt lat="48.941320" lon="8.661805">
<ele>330.0</ele>
<speed>3.2</speed>
<course>337.8</course>
<desc>Speed 3.2 km/h Distance 4.27 km</desc>
<time>2010-02-24T18:13:07.23</time>
<name>3995</name>
</trkpt>
<trkpt lat="48.941325" lon="8.661802">
<ele>330.0</ele>
<speed>2.2</speed>
<course>7.7</course>
<desc>Speed 2.2 km/h Distance 4.27 km</desc>
<time>2010-02-24T18:13:08.23</time>
<name>3996</name>
</trkpt>
<trkpt lat="48.941333" lon="8.661803">
<ele>330.0</ele>
<speed>3.1</speed>
<course>5.0</course>
<desc>Speed 3.1 km/h Distance 4.27 km</desc>
<time>2010-02-24T18:13:09.23</time>
<name>3997</name>
</trkpt>
<trkpt lat="48.941342" lon="8.661805">
<ele>330.0</ele>
<speed>2.5</speed>
<course>7.4</course>
<desc>Speed 2.5 km/h Distance 4.27 km</desc>
<time>2010-02-24T18:13:10.23</time>
<name>3998</name>
</trkpt>
<trkpt lat="48.941348" lon="8.661807">
<ele>330.0</ele>
<speed>2.7</speed>
<course>7.7</course>
<desc>Speed 2.7 km/h Distance 4.27 km</desc>
<time>2010-02-24T18:13:11.24</time>
<name>3999</name>
</trkpt>
<trkpt lat="48.941357" lon="8.661808">
<ele>330.0</ele>
<speed>2.5</speed>
<course>345.1</course>
<desc>Speed 2.5 km/h Distance 4.28 km</desc>
<time>2010-02-24T18:13:12.23</time>
<name>4000</name>
</trkpt>
<trkpt lat="48.941365" lon="8.661805">
<ele>330.5</ele>
<speed>3.1</speed>
<course>355.0</course>
<desc>Speed 3.1 km/h Distance 4.28 km</desc>
<time>2010-02-24T18:13:13.23</time>
<name>4001</name>
</trkpt>
<trkpt lat="48.941373" lon="8.661803">
<ele>330.5</ele>
<speed>3.0</speed>
<course>344.0</course>
<desc>Speed 3.0 km/h Distance 4.28 km</desc>
<time>2010-02-24T18:13:14.23</time>
<name>4002</name>
</trkpt>
<trkpt lat="48.941385" lon="8.661798">
<ele>330.5</ele>
<speed>3.6</speed>
<course>345.1</course>
<desc>Speed 3.6 km/h Distance 4.28 km</desc>
<time>2010-02-24T18:13:15.23</time>
<name>4003</name>
</trkpt>
<trkpt lat="48.941393" lon="8.661795">
<ele>330.5</ele>
<speed>3.0</speed>
<course>355.6</course>
<desc>Speed 3.0 km/h Distance 4.28 km</desc>
<time>2010-02-24T18:13:16.23</time>
<name>4004</name>
</trkpt>
<trkpt lat="48.941403" lon="8.661793">
<ele>330.5</ele>
<speed>3.6</speed>
<course>4.4</course>
<desc>Speed 3.6 km/h Distance 4.28 km</desc>
<time>2010-02-24T18:13:17.23</time>
<name>4005</name>
</trkpt>
<trkpt lat="48.941413" lon="8.661793">
<ele>330.5</ele>
<speed>3.3</speed>
<course>349.6</course>
<desc>Speed 3.3 km/h Distance 4.28 km</desc>
<time>2010-02-24T18:13:18.23</time>
<name>4006</name>
</trkpt>
<trkpt lat="48.941425" lon="8.661790">
<ele>330.5</ele>
<speed>3.9</speed>
<course>350.3</course>
<desc>Speed 3.9 km/h Distance 4.28 km</desc>
<time>2010-02-24T18:13:19.22</time>
<name>4007</name>
</trkpt>
<trkpt lat="48.941438" lon="8.661787">
<ele>330.5</ele>
<speed>3.7</speed>
<course>344.0</course>
<desc>Speed 3.7 km/h Distance 4.28 km</desc>
<time>2010-02-24T18:13:20.22</time>
<name>4008</name>
</trkpt>
<trkpt lat="48.941450" lon="8.661782">
<ele>330.5</ele>
<speed>3.3</speed>
<course>336.2</course>
<desc>Speed 3.3 km/h Distance 4.29 km</desc>
<time>2010-02-24T18:13:21.23</time>
<name>4009</name>
</trkpt>
<trkpt lat="48.941460" lon="8.661775">
<ele>330.5</ele>
<speed>3.0</speed>
<course>347.4</course>
<desc>Speed 3.0 km/h Distance 4.29 km</desc>
<time>2010-02-24T18:13:22.22</time>
<name>4010</name>
</trkpt>
<trkpt lat="48.941470" lon="8.661772">
<ele>330.5</ele>
<speed>2.9</speed>
<course>342.4</course>
<desc>Speed 2.9 km/h Distance 4.29 km</desc>
<time>2010-02-24T18:13:23.22</time>
<name>4011</name>
</trkpt>
<trkpt lat="48.941480" lon="8.661767">
<ele>330.5</ele>
<speed>3.1</speed>
<course>355.3</course>
<desc>Speed 3.1 km/h Distance 4.29 km</desc>
<time>2010-02-24T18:13:24.22</time>
<name>4012</name>
</trkpt>
<trkpt lat="48.941492" lon="8.661765">
<ele>330.5</ele>
<speed>3.2</speed>
<course>341.8</course>
<desc>Speed 3.2 km/h Distance 4.29 km</desc>
<time>2010-02-24T18:13:25.22</time>
<name>4013</name>
</trkpt>
<trkpt lat="48.941502" lon="8.661760">
<ele>330.5</ele>
<speed>3.6</speed>
<course>352.3</course>
<desc>Speed 3.6 km/h Distance 4.29 km</desc>
<time>2010-02-24T18:13:26.22</time>
<name>4014</name>
</trkpt>
<trkpt lat="48.941510" lon="8.661758">
<ele>330.5</ele>
<speed>2.8</speed>
<course>345.1</course>
<desc>Speed 2.8 km/h Distance 4.29 km</desc>
<time>2010-02-24T18:13:27.22</time>
<name>4015</name>
</trkpt>
<trkpt lat="48.941518" lon="8.661755">
<ele>330.5</ele>
<speed>2.4</speed>
<course>341.8</course>
<desc>Speed 2.4 km/h Distance 4.29 km</desc>
<time>2010-02-24T18:13:28.22</time>
<name>4016</name>
</trkpt>
<trkpt lat="48.941528" lon="8.661750">
<ele>330.5</ele>
<speed>3.3</speed>
<course>6.6</course>
<desc>Speed 3.3 km/h Distance 4.30 km</desc>
<time>2010-02-24T18:13:29.22</time>
<name>4017</name>
</trkpt>
<trkpt lat="48.941538" lon="8.661752">
<ele>330.5</ele>
<speed>2.8</speed>
<course>4.7</course>
<desc>Speed 2.8 km/h Distance 4.30 km</desc>
<time>2010-02-24T18:13:30.22</time>
<name>4018</name>
</trkpt>
<trkpt lat="48.941550" lon="8.661752">
<ele>330.0</ele>
<speed>2.5</speed>
<course>5.3</course>
<desc>Speed 2.5 km/h Distance 4.30 km</desc>
<time>2010-02-24T18:13:31.22</time>
<name>4019</name>
</trkpt>
<trkpt lat="48.941563" lon="8.661753">
<ele>330.0</ele>
<speed>3.2</speed>
<course>341.8</course>
<desc>Speed 3.2 km/h Distance 4.30 km</desc>
<time>2010-02-24T18:13:32.22</time>
<name>4020</name>
</trkpt>
<trkpt lat="48.941573" lon="8.661748">
<ele>330.0</ele>
<speed>3.6</speed>
<course>355.3</course>
<desc>Speed 3.6 km/h Distance 4.30 km</desc>
<time>2010-02-24T18:13:33.22</time>
<name>4021</name>
</trkpt>
<trkpt lat="48.941585" lon="8.661747">
<ele>330.0</ele>
<speed>3.5</speed>
<course>353.4</course>
<desc>Speed 3.5 km/h Distance 4.30 km</desc>
<time>2010-02-24T18:13:34.22</time>
<name>4022</name>
</trkpt>
<trkpt lat="48.941595" lon="8.661745">
<ele>330.0</ele>
<speed>3.2</speed>
<course>1.2</course>
<desc>Speed 3.2 km/h Distance 4.30 km</desc>
<time>2010-02-24T18:13:35.22</time>
<name>4023</name>
</trkpt>
<trkpt lat="48.941608" lon="8.661745">
<ele>330.5</ele>
<speed>3.7</speed>
<course>16.0</course>
<desc>Speed 3.7 km/h Distance 4.30 km</desc>
<time>2010-02-24T18:13:36.22</time>
<name>4024</name>
</trkpt>
<trkpt lat="48.941620" lon="8.661750">
<ele>330.5</ele>
<speed>3.3</speed>
<course>20.2</course>
<desc>Speed 3.3 km/h Distance 4.31 km</desc>
<time>2010-02-24T18:13:37.22</time>
<name>4025</name>
</trkpt>
<trkpt lat="48.941632" lon="8.661757">
<ele>330.5</ele>
<speed>3.6</speed>
<course>90.0</course>
<desc>Speed 3.6 km/h Distance 4.31 km</desc>
<time>2010-02-24T18:13:38.22</time>
<name>4026</name>
</trkpt>
<trkpt lat="48.941632" lon="8.661762">
<ele>331.0</ele>
<speed>1.5</speed>
<course>290.8</course>
<desc>Speed 1.5 km/h Distance 4.31 km</desc>
<time>2010-02-24T18:13:39.21</time>
<name>4027</name>
</trkpt>
<trkpt lat="48.941637" lon="8.661742">
<ele>331.0</ele>
<speed>5.2</speed>
<course>12.6</course>
<desc>Speed 5.2 km/h Distance 4.31 km</desc>
<time>2010-02-24T18:13:40.22</time>
<name>4028</name>
</trkpt>
<trkpt lat="48.941638" lon="8.661742">
<ele>331.0</ele>
<speed>0.3</speed>
<course>297.0</course>
<desc>Speed 0.3 km/h Distance 4.31 km</desc>
<time>2010-02-24T18:13:41.22</time>
<name>4029</name>
</trkpt>
<trkpt lat="48.941642" lon="8.661732">
<ele>331.0</ele>
<speed>2.9</speed>
<course>297.4</course>
<desc>Speed 2.9 km/h Distance 4.31 km</desc>
<time>2010-02-24T18:13:42.21</time>
<name>4030</name>
</trkpt>
<trkpt lat="48.941643" lon="8.661727">
<ele>331.0</ele>
<speed>1.6</speed>
<course>301.4</course>
<desc>Speed 1.6 km/h Distance 4.31 km</desc>
<time>2010-02-24T18:13:43.21</time>
<name>4031</name>
</trkpt>
<trkpt lat="48.941647" lon="8.661718">
<ele>331.0</ele>
<speed>1.4</speed>
<course>307.0</course>
<desc>Speed 1.4 km/h Distance 4.31 km</desc>
<time>2010-02-24T18:13:44.21</time>
<name>4032</name>
</trkpt>
<trkpt lat="48.941650" lon="8.661712">
<ele>331.0</ele>
<speed>1.4</speed>
<course>334.4</course>
<desc>Speed 1.4 km/h Distance 4.31 km</desc>
<time>2010-02-24T18:13:45.21</time>
<name>4033</name>
</trkpt>
<trkpt lat="48.941657" lon="8.661707">
<ele>331.0</ele>
<speed>2.6</speed>
<course>337.0</course>
<desc>Speed 2.6 km/h Distance 4.31 km</desc>
<time>2010-02-24T18:13:46.21</time>
<name>4034</name>
</trkpt>
<trkpt lat="48.941667" lon="8.661700">
<ele>331.0</ele>
<speed>3.7</speed>
<course>352.3</course>
<desc>Speed 3.7 km/h Distance 4.31 km</desc>
<time>2010-02-24T18:13:47.21</time>
<name>4035</name>
</trkpt>
<trkpt lat="48.941675" lon="8.661698">
<ele>331.0</ele>
<speed>2.6</speed>
<course>347.4</course>
<desc>Speed 2.6 km/h Distance 4.31 km</desc>
<time>2010-02-24T18:13:48.21</time>
<name>4036</name>
</trkpt>
<trkpt lat="48.941680" lon="8.661697">
<ele>331.0</ele>
<speed>1.4</speed>
<course>347.4</course>
<desc>Speed 1.4 km/h Distance 4.32 km</desc>
<time>2010-02-24T18:13:49.21</time>
<name>4037</name>
</trkpt>
<trkpt lat="48.941683" lon="8.661695">
<ele>331.5</ele>
<speed>0.1</speed>
<course>337.8</course>
<desc>Speed 0.1 km/h Distance 4.32 km</desc>
<time>2010-02-24T18:13:50.21</time>
<name>4038</name>
</trkpt>
<trkpt lat="48.941688" lon="8.661692">
<ele>331.0</ele>
<speed>1.3</speed>
<course>352.3</course>
<desc>Speed 1.3 km/h Distance 4.32 km</desc>
<time>2010-02-24T18:13:51.21</time>
<name>4039</name>
</trkpt>
<trkpt lat="48.941697" lon="8.661690">
<ele>331.0</ele>
<speed>3.2</speed>
<course>347.4</course>
<desc>Speed 3.2 km/h Distance 4.32 km</desc>
<time>2010-02-24T18:13:52.21</time>
<name>4040</name>
</trkpt>
<trkpt lat="48.941707" lon="8.661687">
<ele>331.0</ele>
<speed>3.0</speed>
<course>4.7</course>
<desc>Speed 3.0 km/h Distance 4.32 km</desc>
<time>2010-02-24T18:13:53.21</time>
<name>4041</name>
</trkpt>
<trkpt lat="48.941718" lon="8.661687">
<ele>331.0</ele>
<speed>2.9</speed>
<course>0.0</course>
<desc>Speed 2.9 km/h Distance 4.32 km</desc>
<time>2010-02-24T18:13:54.21</time>
<name>4042</name>
</trkpt>
<trkpt lat="48.941728" lon="8.661687">
<ele>331.5</ele>
<speed>2.7</speed>
<course>341.8</course>
<desc>Speed 2.7 km/h Distance 4.32 km</desc>
<time>2010-02-24T18:13:55.21</time>
<name>4043</name>
</trkpt>
<trkpt lat="48.941738" lon="8.661682">
<ele>331.0</ele>
<speed>3.1</speed>
<course>0.0</course>
<desc>Speed 3.1 km/h Distance 4.32 km</desc>
<time>2010-02-24T18:13:56.20</time>
<name>4044</name>
</trkpt>
<trkpt lat="48.941745" lon="8.661682">
<ele>331.0</ele>
<speed>2.3</speed>
<course>352.6</course>
<desc>Speed 2.3 km/h Distance 4.32 km</desc>
<time>2010-02-24T18:13:57.20</time>
<name>4045</name>
</trkpt>
<trkpt lat="48.941752" lon="8.661680">
<ele>331.0</ele>
<speed>2.5</speed>
<course>352.6</course>
<desc>Speed 2.5 km/h Distance 4.32 km</desc>
<time>2010-02-24T18:13:58.20</time>
<name>4046</name>
</trkpt>
<trkpt lat="48.941758" lon="8.661678">
<ele>331.5</ele>
<speed>2.1</speed>
<course>341.2</course>
<desc>Speed 2.1 km/h Distance 4.32 km</desc>
<time>2010-02-24T18:13:59.20</time>
<name>4047</name>
</trkpt>
<trkpt lat="48.941765" lon="8.661675">
<ele>331.5</ele>
<speed>1.9</speed>
<course>345.1</course>
<desc>Speed 1.9 km/h Distance 4.32 km</desc>
<time>2010-02-24T18:14:00.20</time>
<name>4048</name>
</trkpt>
<trkpt lat="48.941773" lon="8.661672">
<ele>331.5</ele>
<speed>2.7</speed>
<course>345.1</course>
<desc>Speed 2.7 km/h Distance 4.33 km</desc>
<time>2010-02-24T18:14:01.20</time>
<name>4049</name>
</trkpt>
<trkpt lat="48.941782" lon="8.661668">
<ele>331.5</ele>
<speed>2.8</speed>
<course>5.0</course>
<desc>Speed 2.8 km/h Distance 4.33 km</desc>
<time>2010-02-24T18:14:02.20</time>
<name>4050</name>
</trkpt>
<trkpt lat="48.941790" lon="8.661668">
<ele>331.5</ele>
<speed>2.4</speed>
<course>312.6</course>
<desc>Speed 2.4 km/h Distance 4.33 km</desc>
<time>2010-02-24T18:14:03.20</time>
<name>4051</name>
</trkpt>
<trkpt lat="48.941795" lon="8.661660">
<ele>331.5</ele>
<speed>2.5</speed>
<course>345.1</course>
<desc>Speed 2.5 km/h Distance 4.33 km</desc>
<time>2010-02-24T18:14:04.20</time>
<name>4052</name>
</trkpt>
<trkpt lat="48.941803" lon="8.661657">
<ele>332.0</ele>
<speed>2.6</speed>
<course>0.0</course>
<desc>Speed 2.6 km/h Distance 4.33 km</desc>
<time>2010-02-24T18:14:05.20</time>
<name>4053</name>
</trkpt>
<trkpt lat="48.941813" lon="8.661657">
<ele>332.0</ele>
<speed>2.1</speed>
<course>341.2</course>
<desc>Speed 2.1 km/h Distance 4.33 km</desc>
<time>2010-02-24T18:14:06.20</time>
<name>4054</name>
</trkpt>
<trkpt lat="48.941820" lon="8.661653">
<ele>332.0</ele>
<speed>2.3</speed>
<course>4.4</course>
<desc>Speed 2.3 km/h Distance 4.33 km</desc>
<time>2010-02-24T18:14:07.20</time>
<name>4055</name>
</trkpt>
<trkpt lat="48.941830" lon="8.661653">
<ele>332.0</ele>
<speed>2.8</speed>
<course>345.1</course>
<desc>Speed 2.8 km/h Distance 4.33 km</desc>
<time>2010-02-24T18:14:08.20</time>
<name>4056</name>
</trkpt>
<trkpt lat="48.941838" lon="8.661650">
<ele>332.0</ele>
<speed>2.5</speed>
<course>355.0</course>
<desc>Speed 2.5 km/h Distance 4.33 km</desc>
<time>2010-02-24T18:14:09.20</time>
<name>4057</name>
</trkpt>
<trkpt lat="48.941847" lon="8.661648">
<ele>332.0</ele>
<speed>2.2</speed>
<course>0.0</course>
<desc>Speed 2.2 km/h Distance 4.33 km</desc>
<time>2010-02-24T18:14:10.20</time>
<name>4058</name>
</trkpt>
<trkpt lat="48.941858" lon="8.661648">
<ele>332.0</ele>
<speed>3.5</speed>
<course>7.7</course>
<desc>Speed 3.5 km/h Distance 4.34 km</desc>
<time>2010-02-24T18:14:11.21</time>
<name>4059</name>
</trkpt>
<trkpt lat="48.941867" lon="8.661650">
<ele>332.0</ele>
<speed>2.2</speed>
<course>14.9</course>
<desc>Speed 2.2 km/h Distance 4.34 km</desc>
<time>2010-02-24T18:14:12.20</time>
<name>4060</name>
</trkpt>
<trkpt lat="48.941875" lon="8.661653">
<ele>332.0</ele>
<speed>2.7</speed>
<course>1.2</course>
<desc>Speed 2.7 km/h Distance 4.34 km</desc>
<time>2010-02-24T18:14:13.20</time>
<name>4061</name>
</trkpt>
<trkpt lat="48.941882" lon="8.661653">
<ele>332.0</ele>
<speed>2.4</speed>
<course>5.0</course>
<desc>Speed 2.4 km/h Distance 4.34 km</desc>
<time>2010-02-24T18:14:14.19</time>
<name>4062</name>
</trkpt>
<trkpt lat="48.941890" lon="8.661653">
<ele>332.0</ele>
<speed>2.8</speed>
<course>7.4</course>
<desc>Speed 2.8 km/h Distance 4.34 km</desc>
<time>2010-02-24T18:14:15.20</time>
<name>4063</name>
</trkpt>
<trkpt lat="48.941897" lon="8.661653">
<ele>332.0</ele>
<speed>2.0</speed>
<course>290.8</course>
<desc>Speed 2.0 km/h Distance 4.34 km</desc>
<time>2010-02-24T18:14:16.20</time>
<name>4064</name>
</trkpt>
<trkpt lat="48.941900" lon="8.661640">
<ele>332.0</ele>
<speed>3.5</speed>
<course>6.6</course>
<desc>Speed 3.5 km/h Distance 4.34 km</desc>
<time>2010-02-24T18:14:17.20</time>
<name>4065</name>
</trkpt>
<trkpt lat="48.941910" lon="8.661642">
<ele>332.0</ele>
<speed>3.7</speed>
<course>7.4</course>
<desc>Speed 3.7 km/h Distance 4.34 km</desc>
<time>2010-02-24T18:14:18.19</time>
<name>4066</name>
</trkpt>
<trkpt lat="48.941917" lon="8.661642">
<ele>332.0</ele>
<speed>1.9</speed>
<course>355.0</course>
<desc>Speed 1.9 km/h Distance 4.34 km</desc>
<time>2010-02-24T18:14:19.19</time>
<name>4067</name>
</trkpt>
<trkpt lat="48.941925" lon="8.661640">
<ele>332.0</ele>
<speed>2.7</speed>
<course>345.1</course>
<desc>Speed 2.7 km/h Distance 4.34 km</desc>
<time>2010-02-24T18:14:20.19</time>
<name>4068</name>
</trkpt>
<trkpt lat="48.941933" lon="8.661637">
<ele>332.0</ele>
<speed>2.3</speed>
<course>12.6</course>
<desc>Speed 2.3 km/h Distance 4.34 km</desc>
<time>2010-02-24T18:14:21.19</time>
<name>4069</name>
</trkpt>
<trkpt lat="48.941943" lon="8.661640">
<ele>332.0</ele>
<speed>2.1</speed>
<course>352.3</course>
<desc>Speed 2.1 km/h Distance 4.35 km</desc>
<time>2010-02-24T18:14:22.19</time>
<name>4070</name>
</trkpt>
<trkpt lat="48.941952" lon="8.661638">
<ele>332.0</ele>
<speed>2.5</speed>
<course>7.4</course>
<desc>Speed 2.5 km/h Distance 4.35 km</desc>
<time>2010-02-24T18:14:23.19</time>
<name>4071</name>
</trkpt>
<trkpt lat="48.941958" lon="8.661640">
<ele>332.0</ele>
<speed>2.1</speed>
<course>23.8</course>
<desc>Speed 2.1 km/h Distance 4.35 km</desc>
<time>2010-02-24T18:14:24.19</time>
<name>4072</name>
</trkpt>
<trkpt lat="48.941963" lon="8.661643">
<ele>332.0</ele>
<speed>1.6</speed>
<course>352.6</course>
<desc>Speed 1.6 km/h Distance 4.35 km</desc>
<time>2010-02-24T18:14:25.19</time>
<name>4073</name>
</trkpt>
<trkpt lat="48.941970" lon="8.661642">
<ele>332.5</ele>
<speed>1.8</speed>
<course>5.0</course>
<desc>Speed 1.8 km/h Distance 4.35 km</desc>
<time>2010-02-24T18:14:26.19</time>
<name>4074</name>
</trkpt>
<trkpt lat="48.941978" lon="8.661643">
<ele>332.5</ele>
<speed>2.5</speed>
<course>5.0</course>
<desc>Speed 2.5 km/h Distance 4.35 km</desc>
<time>2010-02-24T18:14:27.19</time>
<name>4075</name>
</trkpt>
<trkpt lat="48.941987" lon="8.661645">
<ele>332.5</ele>
<speed>2.4</speed>
<course>355.6</course>
<desc>Speed 2.4 km/h Distance 4.35 km</desc>
<time>2010-02-24T18:14:28.19</time>
<name>4076</name>
</trkpt>
<trkpt lat="48.941997" lon="8.661643">
<ele>332.5</ele>
<speed>2.7</speed>
<course>4.7</course>
<desc>Speed 2.7 km/h Distance 4.35 km</desc>
<time>2010-02-24T18:14:29.19</time>
<name>4077</name>
</trkpt>
<trkpt lat="48.942008" lon="8.661645">
<ele>333.0</ele>
<speed>2.7</speed>
<course>5.0</course>
<desc>Speed 2.7 km/h Distance 4.35 km</desc>
<time>2010-02-24T18:14:30.19</time>
<name>4078</name>
</trkpt>
<trkpt lat="48.942017" lon="8.661647">
<ele>333.0</ele>
<speed>3.1</speed>
<course>352.3</course>
<desc>Speed 3.1 km/h Distance 4.35 km</desc>
<time>2010-02-24T18:14:31.19</time>
<name>4079</name>
</trkpt>
<trkpt lat="48.942025" lon="8.661645">
<ele>333.0</ele>
<speed>2.7</speed>
<course>4.4</course>
<desc>Speed 2.7 km/h Distance 4.35 km</desc>
<time>2010-02-24T18:14:32.19</time>
<name>4080</name>
</trkpt>
<trkpt lat="48.942035" lon="8.661647">
<ele>333.0</ele>
<speed>3.5</speed>
<course>10.3</course>
<desc>Speed 3.5 km/h Distance 4.36 km</desc>
<time>2010-02-24T18:14:33.19</time>
<name>4081</name>
</trkpt>
<trkpt lat="48.942042" lon="8.661648">
<ele>333.0</ele>
<speed>2.8</speed>
<course>355.3</course>
<desc>Speed 2.8 km/h Distance 4.36 km</desc>
<time>2010-02-24T18:14:34.19</time>
<name>4082</name>
</trkpt>
<trkpt lat="48.942053" lon="8.661647">
<ele>333.0</ele>
<speed>2.9</speed>
<course>347.4</course>
<desc>Speed 2.9 km/h Distance 4.36 km</desc>
<time>2010-02-24T18:14:35.19</time>
<name>4083</name>
</trkpt>
<trkpt lat="48.942058" lon="8.661645">
<ele>333.0</ele>
<speed>1.9</speed>
<course>12.6</course>
<desc>Speed 1.9 km/h Distance 4.36 km</desc>
<time>2010-02-24T18:14:36.18</time>
<name>4084</name>
</trkpt>
<trkpt lat="48.942063" lon="8.661647">
<ele>333.0</ele>
<speed>1.7</speed>
<course>1.2</course>
<desc>Speed 1.7 km/h Distance 4.36 km</desc>
<time>2010-02-24T18:14:37.19</time>
<name>4085</name>
</trkpt>
<trkpt lat="48.942070" lon="8.661647">
<ele>333.0</ele>
<speed>2.4</speed>
<course>18.8</course>
<desc>Speed 2.4 km/h Distance 4.36 km</desc>
<time>2010-02-24T18:14:38.19</time>
<name>4086</name>
</trkpt>
<trkpt lat="48.942077" lon="8.661650">
<ele>333.0</ele>
<speed>2.1</speed>
<course>0.0</course>
<desc>Speed 2.1 km/h Distance 4.36 km</desc>
<time>2010-02-24T18:14:39.19</time>
<name>4087</name>
</trkpt>
<trkpt lat="48.942083" lon="8.661650">
<ele>333.5</ele>
<speed>2.3</speed>
<course>355.0</course>
<desc>Speed 2.3 km/h Distance 4.36 km</desc>
<time>2010-02-24T18:14:40.18</time>
<name>4088</name>
</trkpt>
<trkpt lat="48.942092" lon="8.661648">
<ele>333.5</ele>
<speed>2.7</speed>
<course>5.0</course>
<desc>Speed 2.7 km/h Distance 4.36 km</desc>
<time>2010-02-24T18:14:41.18</time>
<name>4089</name>
</trkpt>
<trkpt lat="48.942100" lon="8.661648">
<ele>333.5</ele>
<speed>2.8</speed>
<course>12.6</course>
<desc>Speed 2.8 km/h Distance 4.36 km</desc>
<time>2010-02-24T18:14:42.18</time>
<name>4090</name>
</trkpt>
<trkpt lat="48.942107" lon="8.661650">
<ele>333.5</ele>
<speed>2.0</speed>
<course>18.8</course>
<desc>Speed 2.0 km/h Distance 4.36 km</desc>
<time>2010-02-24T18:14:43.18</time>
<name>4091</name>
</trkpt>
<trkpt lat="48.942113" lon="8.661653">
<ele>333.5</ele>
<speed>2.4</speed>
<course>7.7</course>
<desc>Speed 2.4 km/h Distance 4.36 km</desc>
<time>2010-02-24T18:14:44.18</time>
<name>4092</name>
</trkpt>
<trkpt lat="48.942122" lon="8.661655">
<ele>333.5</ele>
<speed>2.4</speed>
<course>7.7</course>
<desc>Speed 2.4 km/h Distance 4.37 km</desc>
<time>2010-02-24T18:14:45.18</time>
<name>4093</name>
</trkpt>
<trkpt lat="48.942130" lon="8.661657">
<ele>333.5</ele>
<speed>2.8</speed>
<course>5.0</course>
<desc>Speed 2.8 km/h Distance 4.37 km</desc>
<time>2010-02-24T18:14:46.18</time>
<name>4094</name>
</trkpt>
<trkpt lat="48.942138" lon="8.661658">
<ele>333.5</ele>
<speed>2.9</speed>
<course>355.0</course>
<desc>Speed 2.9 km/h Distance 4.37 km</desc>
<time>2010-02-24T18:14:47.18</time>
<name>4095</name>
</trkpt>
<trkpt lat="48.942147" lon="8.661657">
<ele>333.5</ele>
<speed>2.4</speed>
<course>0.0</course>
<desc>Speed 2.4 km/h Distance 4.37 km</desc>
<time>2010-02-24T18:14:48.18</time>
<name>4096</name>
</trkpt>
<trkpt lat="48.942157" lon="8.661657">
<ele>333.5</ele>
<speed>2.8</speed>
<course>4.4</course>
<desc>Speed 2.8 km/h Distance 4.37 km</desc>
<time>2010-02-24T18:14:49.18</time>
<name>4097</name>
</trkpt>
<trkpt lat="48.942167" lon="8.661658">
<ele>334.0</ele>
<speed>2.7</speed>
<course>7.7</course>
<desc>Speed 2.7 km/h Distance 4.37 km</desc>
<time>2010-02-24T18:14:50.18</time>
<name>4098</name>
</trkpt>
<trkpt lat="48.942175" lon="8.661660">
<ele>334.0</ele>
<speed>3.3</speed>
<course>5.0</course>
<desc>Speed 3.3 km/h Distance 4.37 km</desc>
<time>2010-02-24T18:14:51.18</time>
<name>4099</name>
</trkpt>
<trkpt lat="48.942183" lon="8.661662">
<ele>334.0</ele>
<speed>2.4</speed>
<course>26.4</course>
<desc>Speed 2.4 km/h Distance 4.37 km</desc>
<time>2010-02-24T18:14:52.18</time>
<name>4100</name>
</trkpt>
<trkpt lat="48.942190" lon="8.661667">
<ele>334.0</ele>
<speed>2.3</speed>
<course>17.5</course>
<desc>Speed 2.3 km/h Distance 4.37 km</desc>
<time>2010-02-24T18:14:53.18</time>
<name>4101</name>
</trkpt>
<trkpt lat="48.942197" lon="8.661670">
<ele>334.0</ele>
<speed>2.1</speed>
<course>4.7</course>
<desc>Speed 2.1 km/h Distance 4.37 km</desc>
<time>2010-02-24T18:14:54.18</time>
<name>4102</name>
</trkpt>
<trkpt lat="48.942208" lon="8.661672">
<ele>334.0</ele>
<speed>3.2</speed>
<course>12.6</course>
<desc>Speed 3.2 km/h Distance 4.38 km</desc>
<time>2010-02-24T18:14:55.18</time>
<name>4103</name>
</trkpt>
<trkpt lat="48.942218" lon="8.661675">
<ele>334.0</ele>
<speed>3.0</speed>
<course>7.7</course>
<desc>Speed 3.0 km/h Distance 4.38 km</desc>
<time>2010-02-24T18:14:56.17</time>
<name>4104</name>
</trkpt>
<trkpt lat="48.942227" lon="8.661677">
<ele>334.0</ele>
<speed>2.7</speed>
<course>8.1</course>
<desc>Speed 2.7 km/h Distance 4.38 km</desc>
<time>2010-02-24T18:14:57.17</time>
<name>4105</name>
</trkpt>
<trkpt lat="48.942232" lon="8.661678">
<ele>334.0</ele>
<speed>2.2</speed>
<course>1.2</course>
<desc>Speed 2.2 km/h Distance 4.38 km</desc>
<time>2010-02-24T18:14:58.18</time>
<name>4106</name>
</trkpt>
<trkpt lat="48.942238" lon="8.661678">
<ele>334.0</ele>
<speed>2.3</speed>
<course>349.7</course>
<desc>Speed 2.3 km/h Distance 4.38 km</desc>
<time>2010-02-24T18:14:59.17</time>
<name>4107</name>
</trkpt>
<trkpt lat="48.942245" lon="8.661677">
<ele>334.0</ele>
<speed>2.3</speed>
<course>0.0</course>
<desc>Speed 2.3 km/h Distance 4.38 km</desc>
<time>2010-02-24T18:15:00.17</time>
<name>4108</name>
</trkpt>
<trkpt lat="48.942248" lon="8.661677">
<ele>334.0</ele>
<speed>1.7</speed>
<course>44.5</course>
<desc>Speed 1.7 km/h Distance 4.38 km</desc>
<time>2010-02-24T18:15:01.17</time>
<name>4109</name>
</trkpt>
<trkpt lat="48.942252" lon="8.661682">
<ele>334.0</ele>
<speed>1.3</speed>
<course>90.0</course>
<desc>Speed 1.3 km/h Distance 4.38 km</desc>
<time>2010-02-24T18:15:02.17</time>
<name>4110</name>
</trkpt>
<trkpt lat="48.942252" lon="8.661688">
<ele>334.0</ele>
<speed>1.4</speed>
<course>90.0</course>
<desc>Speed 1.4 km/h Distance 4.38 km</desc>
<time>2010-02-24T18:15:03.17</time>
<name>4111</name>
</trkpt>
<trkpt lat="48.942252" lon="8.661690">
<ele>334.5</ele>
<speed>0.9</speed>
<course>37.2</course>
<desc>Speed 0.9 km/h Distance 4.38 km</desc>
<time>2010-02-24T18:15:04.17</time>
<name>4112</name>
</trkpt>
<trkpt lat="48.942253" lon="8.661692">
<ele>334.5</ele>
<speed>0.3</speed>
<course>90.0</course>
<desc>Speed 0.3 km/h Distance 4.38 km</desc>
<time>2010-02-24T18:15:05.17</time>
<name>4113</name>
</trkpt>
<trkpt lat="48.942253" lon="8.661693">
<ele>334.5</ele>
<speed>0.3</speed>
<course>37.2</course>
<desc>Speed 0.3 km/h Distance 4.38 km</desc>
<time>2010-02-24T18:15:06.17</time>
<name>4114</name>
</trkpt>
<trkpt lat="48.942255" lon="8.661695">
<ele>334.5</ele>
<speed>0.5</speed>
<course>336.2</course>
<desc>Speed 0.5 km/h Distance 4.38 km</desc>
<time>2010-02-24T18:15:07.17</time>
<name>4115</name>
</trkpt>
<trkpt lat="48.942260" lon="8.661692">
<ele>334.5</ele>
<speed>1.7</speed>
<course>1.2</course>
<desc>Speed 1.7 km/h Distance 4.38 km</desc>
<time>2010-02-24T18:15:08.17</time>
<name>4116</name>
</trkpt>
<trkpt lat="48.942267" lon="8.661692">
<ele>334.5</ele>
<speed>2.3</speed>
<course>12.6</course>
<desc>Speed 2.3 km/h Distance 4.38 km</desc>
<time>2010-02-24T18:15:09.17</time>
<name>4117</name>
</trkpt>
<trkpt lat="48.942277" lon="8.661695">
<ele>334.5</ele>
<speed>2.6</speed>
<course>27.9</course>
<desc>Speed 2.6 km/h Distance 4.38 km</desc>
<time>2010-02-24T18:15:10.17</time>
<name>4118</name>
</trkpt>
<trkpt lat="48.942285" lon="8.661702">
<ele>335.0</ele>
<speed>2.2</speed>
<course>4.7</course>
<desc>Speed 2.2 km/h Distance 4.39 km</desc>
<time>2010-02-24T18:15:11.17</time>
<name>4119</name>
</trkpt>
<trkpt lat="48.942297" lon="8.661703">
<ele>335.0</ele>
<speed>2.5</speed>
<course>9.0</course>
<desc>Speed 2.5 km/h Distance 4.39 km</desc>
<time>2010-02-24T18:15:12.16</time>
<name>4120</name>
</trkpt>
<trkpt lat="48.942310" lon="8.661707">
<ele>335.0</ele>
<speed>3.0</speed>
<course>0.0</course>
<desc>Speed 3.0 km/h Distance 4.39 km</desc>
<time>2010-02-24T18:15:13.17</time>
<name>4121</name>
</trkpt>
<trkpt lat="48.942320" lon="8.661707">
<ele>335.0</ele>
<speed>2.7</speed>
<course>355.6</course>
<desc>Speed 2.7 km/h Distance 4.39 km</desc>
<time>2010-02-24T18:15:14.17</time>
<name>4122</name>
</trkpt>
<trkpt lat="48.942330" lon="8.661705">
<ele>335.0</ele>
<speed>2.6</speed>
<course>336.2</course>
<desc>Speed 2.6 km/h Distance 4.39 km</desc>
<time>2010-02-24T18:15:15.16</time>
<name>4123</name>
</trkpt>
<trkpt lat="48.942340" lon="8.661698">
<ele>335.5</ele>
<speed>3.0</speed>
<course>1.2</course>
<desc>Speed 3.0 km/h Distance 4.39 km</desc>
<time>2010-02-24T18:15:16.17</time>
<name>4124</name>
</trkpt>
<trkpt lat="48.942347" lon="8.661698">
<ele>335.5</ele>
<speed>2.6</speed>
<course>4.7</course>
<desc>Speed 2.6 km/h Distance 4.39 km</desc>
<time>2010-02-24T18:15:17.16</time>
<name>4125</name>
</trkpt>
<trkpt lat="48.942358" lon="8.661700">
<ele>335.5</ele>
<speed>3.3</speed>
<course>4.4</course>
<desc>Speed 3.3 km/h Distance 4.39 km</desc>
<time>2010-02-24T18:15:18.16</time>
<name>4126</name>
</trkpt>
<trkpt lat="48.942368" lon="8.661702">
<ele>335.5</ele>
<speed>3.2</speed>
<course>0.0</course>
<desc>Speed 3.2 km/h Distance 4.39 km</desc>
<time>2010-02-24T18:15:19.17</time>
<name>4127</name>
</trkpt>
<trkpt lat="48.942377" lon="8.661702">
<ele>335.5</ele>
<speed>2.4</speed>
<course>12.6</course>
<desc>Speed 2.4 km/h Distance 4.40 km</desc>
<time>2010-02-24T18:15:20.16</time>
<name>4128</name>
</trkpt>
<trkpt lat="48.942387" lon="8.661705">
<ele>335.5</ele>
<speed>2.4</speed>
<course>27.5</course>
<desc>Speed 2.4 km/h Distance 4.40 km</desc>
<time>2010-02-24T18:15:21.16</time>
<name>4129</name>
</trkpt>
<trkpt lat="48.942395" lon="8.661712">
<ele>336.0</ele>
<speed>3.1</speed>
<course>25.6</course>
<desc>Speed 3.1 km/h Distance 4.40 km</desc>
<time>2010-02-24T18:15:22.16</time>
<name>4130</name>
</trkpt>
<trkpt lat="48.942402" lon="8.661717">
<ele>336.0</ele>
<speed>2.5</speed>
<course>352.6</course>
<desc>Speed 2.5 km/h Distance 4.40 km</desc>
<time>2010-02-24T18:15:23.16</time>
<name>4131</name>
</trkpt>
<trkpt lat="48.942408" lon="8.661715">
<ele>336.0</ele>
<speed>1.7</speed>
<course>327.7</course>
<desc>Speed 1.7 km/h Distance 4.40 km</desc>
<time>2010-02-24T18:15:24.16</time>
<name>4132</name>
</trkpt>
<trkpt lat="48.942413" lon="8.661710">
<ele>336.0</ele>
<speed>2.0</speed>
<course>347.4</course>
<desc>Speed 2.0 km/h Distance 4.40 km</desc>
<time>2010-02-24T18:15:25.16</time>
<name>4133</name>
</trkpt>
<trkpt lat="48.942418" lon="8.661708">
<ele>336.0</ele>
<speed>1.6</speed>
<course>12.6</course>
<desc>Speed 1.6 km/h Distance 4.40 km</desc>
<time>2010-02-24T18:15:26.16</time>
<name>4134</name>
</trkpt>
<trkpt lat="48.942428" lon="8.661712">
<ele>336.5</ele>
<speed>2.6</speed>
<course>5.0</course>
<desc>Speed 2.6 km/h Distance 4.40 km</desc>
<time>2010-02-24T18:15:27.16</time>
<name>4135</name>
</trkpt>
<trkpt lat="48.942437" lon="8.661713">
<ele>336.5</ele>
<speed>1.9</speed>
<course>4.4</course>
<desc>Speed 1.9 km/h Distance 4.40 km</desc>
<time>2010-02-24T18:15:28.16</time>
<name>4136</name>
</trkpt>
<trkpt lat="48.942447" lon="8.661715">
<ele>336.5</ele>
<speed>2.8</speed>
<course>14.9</course>
<desc>Speed 2.8 km/h Distance 4.40 km</desc>
<time>2010-02-24T18:15:29.16</time>
<name>4137</name>
</trkpt>
<trkpt lat="48.942455" lon="8.661718">
<ele>337.0</ele>
<speed>2.7</speed>
<course>5.0</course>
<desc>Speed 2.7 km/h Distance 4.40 km</desc>
<time>2010-02-24T18:15:30.16</time>
<name>4138</name>
</trkpt>
<trkpt lat="48.942463" lon="8.661718">
<ele>337.0</ele>
<speed>2.6</speed>
<course>7.4</course>
<desc>Speed 2.6 km/h Distance 4.41 km</desc>
<time>2010-02-24T18:15:31.16</time>
<name>4139</name>
</trkpt>
<trkpt lat="48.942470" lon="8.661718">
<ele>337.0</ele>
<speed>2.4</speed>
<course>18.8</course>
<desc>Speed 2.4 km/h Distance 4.41 km</desc>
<time>2010-02-24T18:15:32.15</time>
<name>4140</name>
</trkpt>
<trkpt lat="48.942477" lon="8.661722">
<ele>337.0</ele>
<speed>2.6</speed>
<course>18.1</course>
<desc>Speed 2.6 km/h Distance 4.41 km</desc>
<time>2010-02-24T18:15:33.15</time>
<name>4141</name>
</trkpt>
<trkpt lat="48.942490" lon="8.661728">
<ele>337.0</ele>
<speed>6.3</speed>
<course>4.4</course>
<desc>Speed 6.3 km/h Distance 4.41 km</desc>
<time>2010-02-24T18:15:34.15</time>
<name>4142</name>
</trkpt>
<trkpt lat="48.942500" lon="8.661730">
<ele>337.0</ele>
<speed>3.6</speed>
<course>23.8</course>
<desc>Speed 3.6 km/h Distance 4.41 km</desc>
<time>2010-02-24T18:15:35.16</time>
<name>4143</name>
</trkpt>
<trkpt lat="48.942505" lon="8.661733">
<ele>337.0</ele>
<speed>2.3</speed>
<course>5.0</course>
<desc>Speed 2.3 km/h Distance 4.41 km</desc>
<time>2010-02-24T18:15:36.15</time>
<name>4144</name>
</trkpt>
<trkpt lat="48.942513" lon="8.661735">
<ele>337.5</ele>
<speed>3.1</speed>
<course>5.0</course>
<desc>Speed 3.1 km/h Distance 4.41 km</desc>
<time>2010-02-24T18:15:37.15</time>
<name>4145</name>
</trkpt>
<trkpt lat="48.942522" lon="8.661737">
<ele>337.5</ele>
<speed>3.0</speed>
<course>22.2</course>
<desc>Speed 3.0 km/h Distance 4.41 km</desc>
<time>2010-02-24T18:15:38.15</time>
<name>4146</name>
</trkpt>
<trkpt lat="48.942527" lon="8.661740">
<ele>337.5</ele>
<speed>2.4</speed>
<course>33.2</course>
<desc>Speed 2.4 km/h Distance 4.41 km</desc>
<time>2010-02-24T18:15:39.15</time>
<name>4147</name>
</trkpt>
<trkpt lat="48.942535" lon="8.661748">
<ele>337.5</ele>
<speed>3.2</speed>
<course>38.1</course>
<desc>Speed 3.2 km/h Distance 4.41 km</desc>
<time>2010-02-24T18:15:40.15</time>
<name>4148</name>
</trkpt>
<trkpt lat="48.942543" lon="8.661758">
<ele>337.5</ele>
<speed>3.9</speed>
<course>33.2</course>
<desc>Speed 3.9 km/h Distance 4.42 km</desc>
<time>2010-02-24T18:15:41.15</time>
<name>4149</name>
</trkpt>
<trkpt lat="48.942552" lon="8.661767">
<ele>337.5</ele>
<speed>3.0</speed>
<course>39.4</course>
<desc>Speed 3.0 km/h Distance 4.42 km</desc>
<time>2010-02-24T18:15:42.15</time>
<name>4150</name>
</trkpt>
<trkpt lat="48.942558" lon="8.661775">
<ele>337.5</ele>
<speed>2.4</speed>
<course>69.2</course>
<desc>Speed 2.4 km/h Distance 4.42 km</desc>
<time>2010-02-24T18:15:43.15</time>
<name>4151</name>
</trkpt>
<trkpt lat="48.942562" lon="8.661788">
<ele>338.0</ele>
<speed>3.2</speed>
<course>4.1</course>
<desc>Speed 3.2 km/h Distance 4.42 km</desc>
<time>2010-02-24T18:15:44.15</time>
<name>4152</name>
</trkpt>
<trkpt lat="48.942578" lon="8.661790">
<ele>338.0</ele>
<speed>4.9</speed>
<course>63.0</course>
<desc>Speed 4.9 km/h Distance 4.42 km</desc>
<time>2010-02-24T18:15:45.15</time>
<name>4153</name>
</trkpt>
<trkpt lat="48.942582" lon="8.661800">
<ele>338.0</ele>
<speed>2.8</speed>
<course>56.7</course>
<desc>Speed 2.8 km/h Distance 4.42 km</desc>
<time>2010-02-24T18:15:46.15</time>
<name>4154</name>
</trkpt>
<trkpt lat="48.942587" lon="8.661812">
<ele>338.0</ele>
<speed>2.6</speed>
<course>52.4</course>
<desc>Speed 2.6 km/h Distance 4.42 km</desc>
<time>2010-02-24T18:15:47.15</time>
<name>4155</name>
</trkpt>
<trkpt lat="48.942592" lon="8.661822">
<ele>338.0</ele>
<speed>3.0</speed>
<course>26.4</course>
<desc>Speed 3.0 km/h Distance 4.42 km</desc>
<time>2010-02-24T18:15:48.15</time>
<name>4156</name>
</trkpt>
<trkpt lat="48.942598" lon="8.661827">
<ele>338.0</ele>
<speed>2.1</speed>
<course>47.1</course>
<desc>Speed 2.1 km/h Distance 4.42 km</desc>
<time>2010-02-24T18:15:49.15</time>
<name>4157</name>
</trkpt>
<trkpt lat="48.942603" lon="8.661835">
<ele>337.5</ele>
<speed>2.2</speed>
<course>40.9</course>
<desc>Speed 2.2 km/h Distance 4.42 km</desc>
<time>2010-02-24T18:15:50.15</time>
<name>4158</name>
</trkpt>
<trkpt lat="48.942608" lon="8.661842">
<ele>337.5</ele>
<speed>1.9</speed>
<course>72.9</course>
<desc>Speed 1.9 km/h Distance 4.43 km</desc>
<time>2010-02-24T18:15:51.15</time>
<name>4159</name>
</trkpt>
<trkpt lat="48.942610" lon="8.661850">
<ele>337.5</ele>
<speed>2.3</speed>
<course>53.0</course>
<desc>Speed 2.3 km/h Distance 4.43 km</desc>
<time>2010-02-24T18:15:52.14</time>
<name>4160</name>
</trkpt>
<trkpt lat="48.942613" lon="8.661857">
<ele>337.5</ele>
<speed>1.9</speed>
<course>41.9</course>
<desc>Speed 1.9 km/h Distance 4.43 km</desc>
<time>2010-02-24T18:15:53.14</time>
<name>4161</name>
</trkpt>
<trkpt lat="48.942618" lon="8.661863">
<ele>337.0</ele>
<speed>2.0</speed>
<course>69.1</course>
<desc>Speed 2.0 km/h Distance 4.43 km</desc>
<time>2010-02-24T18:15:54.14</time>
<name>4162</name>
</trkpt>
<trkpt lat="48.942620" lon="8.661870">
<ele>336.5</ele>
<speed>1.4</speed>
<course>132.2</course>
<desc>Speed 1.4 km/h Distance 4.43 km</desc>
<time>2010-02-24T18:15:55.14</time>
<name>4163</name>
</trkpt>
<trkpt lat="48.942615" lon="8.661878">
<ele>337.0</ele>
<speed>2.3</speed>
<course>132.2</course>
<desc>Speed 2.3 km/h Distance 4.43 km</desc>
<time>2010-02-24T18:15:56.14</time>
<name>4164</name>
</trkpt>
<trkpt lat="48.942615" lon="8.661878">
<ele>337.0</ele>
<speed>0.3</speed>
<course>12.6</course>
<desc>Speed 0.3 km/h Distance 4.43 km</desc>
<time>2010-02-24T18:15:57.14</time>
<name>4165</name>
</trkpt>
<trkpt lat="48.942618" lon="8.661878">
<ele>336.5</ele>
<speed>0.5</speed>
<course>12.6</course>
<desc>Speed 0.5 km/h Distance 4.43 km</desc>
<time>2010-02-24T18:15:58.14</time>
<name>4166</name>
</trkpt>
<trkpt lat="48.942618" lon="8.661878">
<ele>336.5</ele>
<speed>0.3</speed>
<course>51.9</course>
<desc>Speed 0.3 km/h Distance 4.43 km</desc>
<time>2010-02-24T18:15:59.14</time>
<name>4167</name>
</trkpt>
<trkpt lat="48.942620" lon="8.661882">
<ele>336.5</ele>
<speed>0.8</speed>
<course>69.5</course>
<desc>Speed 0.8 km/h Distance 4.43 km</desc>
<time>2010-02-24T18:16:00.14</time>
<name>4168</name>
</trkpt>
<trkpt lat="48.942622" lon="8.661888">
<ele>336.5</ele>
<speed>1.3</speed>
<course>33.7</course>
<desc>Speed 1.3 km/h Distance 4.43 km</desc>
<time>2010-02-24T18:16:01.14</time>
<name>4169</name>
</trkpt>
<trkpt lat="48.942625" lon="8.661892">
<ele>336.0</ele>
<speed>1.4</speed>
<course>77.7</course>
<desc>Speed 1.4 km/h Distance 4.43 km</desc>
<time>2010-02-24T18:16:02.14</time>
<name>4170</name>
</trkpt>
<trkpt lat="48.942627" lon="8.661903">
<ele>336.0</ele>
<speed>2.4</speed>
<course>33.7</course>
<desc>Speed 2.4 km/h Distance 4.43 km</desc>
<time>2010-02-24T18:16:03.13</time>
<name>4171</name>
</trkpt>
<trkpt lat="48.942633" lon="8.661910">
<ele>336.0</ele>
<speed>1.9</speed>
<course>41.9</course>
<desc>Speed 1.9 km/h Distance 4.43 km</desc>
<time>2010-02-24T18:16:04.13</time>
<name>4172</name>
</trkpt>
<trkpt lat="48.942638" lon="8.661917">
<ele>335.5</ele>
<speed>2.0</speed>
<course>75.9</course>
<desc>Speed 2.0 km/h Distance 4.43 km</desc>
<time>2010-02-24T18:16:05.14</time>
<name>4173</name>
</trkpt>
<trkpt lat="48.942640" lon="8.661927">
<ele>335.5</ele>
<speed>2.1</speed>
<course>63.0</course>
<desc>Speed 2.1 km/h Distance 4.43 km</desc>
<time>2010-02-24T18:16:06.14</time>
<name>4174</name>
</trkpt>
<trkpt lat="48.942643" lon="8.661937">
<ele>335.0</ele>
<speed>1.8</speed>
<course>47.4</course>
<desc>Speed 1.8 km/h Distance 4.43 km</desc>
<time>2010-02-24T18:16:07.13</time>
<name>4175</name>
</trkpt>
<trkpt lat="48.942648" lon="8.661945">
<ele>335.0</ele>
<speed>1.8</speed>
<course>52.4</course>
<desc>Speed 1.8 km/h Distance 4.44 km</desc>
<time>2010-02-24T18:16:08.13</time>
<name>4176</name>
</trkpt>
<trkpt lat="48.942652" lon="8.661952">
<ele>335.0</ele>
<speed>1.8</speed>
<course>69.5</course>
<desc>Speed 1.8 km/h Distance 4.44 km</desc>
<time>2010-02-24T18:16:09.13</time>
<name>4177</name>
</trkpt>
<trkpt lat="48.942653" lon="8.661958">
<ele>334.5</ele>
<speed>1.4</speed>
<course>63.0</course>
<desc>Speed 1.4 km/h Distance 4.44 km</desc>
<time>2010-02-24T18:16:10.13</time>
<name>4178</name>
</trkpt>
<trkpt lat="48.942657" lon="8.661968">
<ele>334.5</ele>
<speed>2.2</speed>
<course>73.1</course>
<desc>Speed 2.2 km/h Distance 4.44 km</desc>
<time>2010-02-24T18:16:11.14</time>
<name>4179</name>
</trkpt>
<trkpt lat="48.942658" lon="8.661977">
<ele>334.0</ele>
<speed>2.0</speed>
<course>33.7</course>
<desc>Speed 2.0 km/h Distance 4.44 km</desc>
<time>2010-02-24T18:16:12.13</time>
<name>4180</name>
</trkpt>
<trkpt lat="48.942665" lon="8.661983">
<ele>334.0</ele>
<speed>2.0</speed>
<course>90.0</course>
<desc>Speed 2.0 km/h Distance 4.44 km</desc>
<time>2010-02-24T18:16:13.13</time>
<name>4181</name>
</trkpt>
<trkpt lat="48.942665" lon="8.661993">
<ele>334.0</ele>
<speed>1.8</speed>
<course>62.6</course>
<desc>Speed 1.8 km/h Distance 4.44 km</desc>
<time>2010-02-24T18:16:14.13</time>
<name>4182</name>
</trkpt>
<trkpt lat="48.942667" lon="8.661998">
<ele>334.0</ele>
<speed>1.2</speed>
<course>48.9</course>
<desc>Speed 1.2 km/h Distance 4.44 km</desc>
<time>2010-02-24T18:16:15.13</time>
<name>4183</name>
</trkpt>
<trkpt lat="48.942673" lon="8.662010">
<ele>333.5</ele>
<speed>3.5</speed>
<course>32.3</course>
<desc>Speed 3.5 km/h Distance 4.44 km</desc>
<time>2010-02-24T18:16:16.13</time>
<name>4184</name>
</trkpt>
<trkpt lat="48.942678" lon="8.662015">
<ele>333.5</ele>
<speed>1.8</speed>
<course>44.5</course>
<desc>Speed 1.8 km/h Distance 4.44 km</desc>
<time>2010-02-24T18:16:17.13</time>
<name>4185</name>
</trkpt>
<trkpt lat="48.942682" lon="8.662020">
<ele>333.5</ele>
<speed>1.7</speed>
<course>58.6</course>
<desc>Speed 1.7 km/h Distance 4.44 km</desc>
<time>2010-02-24T18:16:18.13</time>
<name>4186</name>
</trkpt>
<trkpt lat="48.942685" lon="8.662028">
<ele>333.0</ele>
<speed>2.2</speed>
<course>52.4</course>
<desc>Speed 2.2 km/h Distance 4.44 km</desc>
<time>2010-02-24T18:16:19.13</time>
<name>4187</name>
</trkpt>
<trkpt lat="48.942688" lon="8.662035">
<ele>333.0</ele>
<speed>1.8</speed>
<course>33.2</course>
<desc>Speed 1.8 km/h Distance 4.44 km</desc>
<time>2010-02-24T18:16:20.13</time>
<name>4188</name>
</trkpt>
<trkpt lat="48.942697" lon="8.662043">
<ele>333.5</ele>
<speed>2.7</speed>
<course>43.5</course>
<desc>Speed 2.7 km/h Distance 4.44 km</desc>
<time>2010-02-24T18:16:21.13</time>
<name>4189</name>
</trkpt>
<trkpt lat="48.942700" lon="8.662048">
<ele>333.0</ele>
<speed>2.1</speed>
<course>32.3</course>
<desc>Speed 2.1 km/h Distance 4.45 km</desc>
<time>2010-02-24T18:16:22.12</time>
<name>4190</name>
</trkpt>
<trkpt lat="48.942705" lon="8.662053">
<ele>333.0</ele>
<speed>1.8</speed>
<course>46.5</course>
<desc>Speed 1.8 km/h Distance 4.45 km</desc>
<time>2010-02-24T18:16:23.12</time>
<name>4191</name>
</trkpt>
<trkpt lat="48.942713" lon="8.662067">
<ele>333.0</ele>
<speed>1.7</speed>
<course>44.5</course>
<desc>Speed 1.7 km/h Distance 4.45 km</desc>
<time>2010-02-24T18:16:24.12</time>
<name>4192</name>
</trkpt>
<trkpt lat="48.942717" lon="8.662072">
<ele>332.5</ele>
<speed>1.5</speed>
<course>58.6</course>
<desc>Speed 1.5 km/h Distance 4.45 km</desc>
<time>2010-02-24T18:16:25.12</time>
<name>4193</name>
</trkpt>
<trkpt lat="48.942720" lon="8.662080">
<ele>332.5</ele>
<speed>1.7</speed>
<course>63.4</course>
<desc>Speed 1.7 km/h Distance 4.45 km</desc>
<time>2010-02-24T18:16:26.12</time>
<name>4194</name>
</trkpt>
<trkpt lat="48.942722" lon="8.662085">
<ele>332.0</ele>
<speed>1.2</speed>
<course>69.1</course>
<desc>Speed 1.2 km/h Distance 4.45 km</desc>
<time>2010-02-24T18:16:27.12</time>
<name>4195</name>
</trkpt>
<trkpt lat="48.942723" lon="8.662092">
<ele>331.5</ele>
<speed>1.9</speed>
<course>47.1</course>
<desc>Speed 1.9 km/h Distance 4.45 km</desc>
<time>2010-02-24T18:16:28.12</time>
<name>4196</name>
</trkpt>
<trkpt lat="48.942728" lon="8.662100">
<ele>331.5</ele>
<speed>2.2</speed>
<course>44.5</course>
<desc>Speed 2.2 km/h Distance 4.45 km</desc>
<time>2010-02-24T18:16:29.12</time>
<name>4197</name>
</trkpt>
<trkpt lat="48.942735" lon="8.662110">
<ele>332.0</ele>
<speed>1.7</speed>
<course>41.9</course>
<desc>Speed 1.7 km/h Distance 4.45 km</desc>
<time>2010-02-24T18:16:30.12</time>
<name>4198</name>
</trkpt>
<trkpt lat="48.942740" lon="8.662117">
<ele>332.0</ele>
<speed>1.9</speed>
<course>41.9</course>
<desc>Speed 1.9 km/h Distance 4.45 km</desc>
<time>2010-02-24T18:16:31.12</time>
<name>4199</name>
</trkpt>
<trkpt lat="48.942745" lon="8.662123">
<ele>331.5</ele>
<speed>2.0</speed>
<course>90.0</course>
<desc>Speed 2.0 km/h Distance 4.45 km</desc>
<time>2010-02-24T18:16:32.12</time>
<name>4200</name>
</trkpt>
<trkpt lat="48.942745" lon="8.662132">
<ele>331.0</ele>
<speed>1.7</speed>
<course>58.6</course>
<desc>Speed 1.7 km/h Distance 4.45 km</desc>
<time>2010-02-24T18:16:33.11</time>
<name>4201</name>
</trkpt>
<trkpt lat="48.942748" lon="8.662140">
<ele>331.0</ele>
<speed>1.9</speed>
<course>47.8</course>
<desc>Speed 1.9 km/h Distance 4.45 km</desc>
<time>2010-02-24T18:16:34.12</time>
<name>4202</name>
</trkpt>
<trkpt lat="48.942753" lon="8.662148">
<ele>331.0</ele>
<speed>1.8</speed>
<course>75.8</course>
<desc>Speed 1.8 km/h Distance 4.46 km</desc>
<time>2010-02-24T18:16:35.12</time>
<name>4203</name>
</trkpt>
<trkpt lat="48.942755" lon="8.662158">
<ele>331.0</ele>
<speed>2.3</speed>
<course>53.5</course>
<desc>Speed 2.3 km/h Distance 4.46 km</desc>
<time>2010-02-24T18:16:36.12</time>
<name>4204</name>
</trkpt>
<trkpt lat="48.942758" lon="8.662165">
<ele>330.5</ele>
<speed>1.6</speed>
<course>73.1</course>
<desc>Speed 1.6 km/h Distance 4.46 km</desc>
<time>2010-02-24T18:16:37.12</time>
<name>4205</name>
</trkpt>
<trkpt lat="48.942760" lon="8.662173">
<ele>330.5</ele>
<speed>1.8</speed>
<course>53.0</course>
<desc>Speed 1.8 km/h Distance 4.46 km</desc>
<time>2010-02-24T18:16:38.11</time>
<name>4206</name>
</trkpt>
<trkpt lat="48.942763" lon="8.662180">
<ele>330.0</ele>
<speed>1.9</speed>
<course>69.2</course>
<desc>Speed 1.9 km/h Distance 4.46 km</desc>
<time>2010-02-24T18:16:39.11</time>
<name>4207</name>
</trkpt>
<trkpt lat="48.942767" lon="8.662193">
<ele>328.5</ele>
<speed>3.3</speed>
<course>56.7</course>
<desc>Speed 3.3 km/h Distance 4.46 km</desc>
<time>2010-02-24T18:16:40.11</time>
<name>4208</name>
</trkpt>
<trkpt lat="48.942772" lon="8.662205">
<ele>328.0</ele>
<speed>2.7</speed>
<course>44.5</course>
<desc>Speed 2.7 km/h Distance 4.46 km</desc>
<time>2010-02-24T18:16:41.11</time>
<name>4209</name>
</trkpt>
<trkpt lat="48.942775" lon="8.662210">
<ele>328.5</ele>
<speed>1.2</speed>
<course>53.0</course>
<desc>Speed 1.2 km/h Distance 4.46 km</desc>
<time>2010-02-24T18:16:42.11</time>
<name>4210</name>
</trkpt>
<trkpt lat="48.942778" lon="8.662217">
<ele>328.5</ele>
<speed>1.9</speed>
<course>58.6</course>
<desc>Speed 1.9 km/h Distance 4.46 km</desc>
<time>2010-02-24T18:16:43.11</time>
<name>4211</name>
</trkpt>
<trkpt lat="48.942782" lon="8.662225">
<ele>328.5</ele>
<speed>2.3</speed>
<course>47.1</course>
<desc>Speed 2.3 km/h Distance 4.46 km</desc>
<time>2010-02-24T18:16:44.11</time>
<name>4212</name>
</trkpt>
<trkpt lat="48.942787" lon="8.662233">
<ele>328.0</ele>
<speed>2.7</speed>
<course>32.3</course>
<desc>Speed 2.7 km/h Distance 4.46 km</desc>
<time>2010-02-24T18:16:45.11</time>
<name>4213</name>
</trkpt>
<trkpt lat="48.942792" lon="8.662238">
<ele>327.5</ele>
<speed>2.0</speed>
<course>33.7</course>
<desc>Speed 2.0 km/h Distance 4.46 km</desc>
<time>2010-02-24T18:16:46.11</time>
<name>4214</name>
</trkpt>
<trkpt lat="48.942795" lon="8.662242">
<ele>327.0</ele>
<speed>1.4</speed>
<course>40.9</course>
<desc>Speed 1.4 km/h Distance 4.46 km</desc>
<time>2010-02-24T18:16:47.11</time>
<name>4215</name>
</trkpt>
<trkpt lat="48.942800" lon="8.662248">
<ele>327.0</ele>
<speed>2.2</speed>
<course>58.6</course>
<desc>Speed 2.2 km/h Distance 4.46 km</desc>
<time>2010-02-24T18:16:48.11</time>
<name>4216</name>
</trkpt>
<trkpt lat="48.942803" lon="8.662257">
<ele>327.0</ele>
<speed>1.8</speed>
<course>62.6</course>
<desc>Speed 1.8 km/h Distance 4.46 km</desc>
<time>2010-02-24T18:16:49.11</time>
<name>4217</name>
</trkpt>
<trkpt lat="48.942805" lon="8.662262">
<ele>326.5</ele>
<speed>1.3</speed>
<course>56.7</course>
<desc>Speed 1.3 km/h Distance 4.47 km</desc>
<time>2010-02-24T18:16:50.11</time>
<name>4218</name>
</trkpt>
<trkpt lat="48.942810" lon="8.662273">
<ele>327.5</ele>
<speed>3.5</speed>
<course>75.9</course>
<desc>Speed 3.5 km/h Distance 4.47 km</desc>
<time>2010-02-24T18:16:51.11</time>
<name>4219</name>
</trkpt>
<trkpt lat="48.942812" lon="8.662283">
<ele>327.5</ele>
<speed>2.9</speed>
<course>69.8</course>
<desc>Speed 2.9 km/h Distance 4.47 km</desc>
<time>2010-02-24T18:16:52.10</time>
<name>4220</name>
</trkpt>
<trkpt lat="48.942813" lon="8.662290">
<ele>328.0</ele>
<speed>2.0</speed>
<course>63.4</course>
<desc>Speed 2.0 km/h Distance 4.47 km</desc>
<time>2010-02-24T18:16:53.11</time>
<name>4221</name>
</trkpt>
<trkpt lat="48.942815" lon="8.662295">
<ele>327.5</ele>
<speed>1.7</speed>
<course>32.3</course>
<desc>Speed 1.7 km/h Distance 4.47 km</desc>
<time>2010-02-24T18:16:54.10</time>
<name>4222</name>
</trkpt>
<trkpt lat="48.942820" lon="8.662300">
<ele>327.5</ele>
<speed>1.9</speed>
<course>58.9</course>
<desc>Speed 1.9 km/h Distance 4.47 km</desc>
<time>2010-02-24T18:16:55.11</time>
<name>4223</name>
</trkpt>
<trkpt lat="48.942823" lon="8.662308">
<ele>327.0</ele>
<speed>2.3</speed>
<course>77.7</course>
<desc>Speed 2.3 km/h Distance 4.47 km</desc>
<time>2010-02-24T18:16:56.10</time>
<name>4224</name>
</trkpt>
<trkpt lat="48.942825" lon="8.662320">
<ele>327.0</ele>
<speed>2.8</speed>
<course>58.6</course>
<desc>Speed 2.8 km/h Distance 4.47 km</desc>
<time>2010-02-24T18:16:57.10</time>
<name>4225</name>
</trkpt>
<trkpt lat="48.942828" lon="8.662328">
<ele>327.5</ele>
<speed>2.7</speed>
<course>41.9</course>
<desc>Speed 2.7 km/h Distance 4.47 km</desc>
<time>2010-02-24T18:16:58.10</time>
<name>4226</name>
</trkpt>
<trkpt lat="48.942833" lon="8.662335">
<ele>327.5</ele>
<speed>2.2</speed>
<course>59.2</course>
<desc>Speed 2.2 km/h Distance 4.47 km</desc>
<time>2010-02-24T18:16:59.10</time>
<name>4227</name>
</trkpt>
<trkpt lat="48.942837" lon="8.662343">
<ele>327.0</ele>
<speed>2.6</speed>
<course>69.5</course>
<desc>Speed 2.6 km/h Distance 4.47 km</desc>
<time>2010-02-24T18:17:00.10</time>
<name>4228</name>
</trkpt>
<trkpt lat="48.942838" lon="8.662350">
<ele>327.0</ele>
<speed>2.0</speed>
<course>41.4</course>
<desc>Speed 2.0 km/h Distance 4.47 km</desc>
<time>2010-02-24T18:17:01.10</time>
<name>4229</name>
</trkpt>
<trkpt lat="48.942843" lon="8.662357">
<ele>326.5</ele>
<speed>2.4</speed>
<course>52.4</course>
<desc>Speed 2.4 km/h Distance 4.47 km</desc>
<time>2010-02-24T18:17:02.10</time>
<name>4230</name>
</trkpt>
<trkpt lat="48.942847" lon="8.662363">
<ele>326.0</ele>
<speed>2.1</speed>
<course>40.9</course>
<desc>Speed 2.1 km/h Distance 4.47 km</desc>
<time>2010-02-24T18:17:03.10</time>
<name>4231</name>
</trkpt>
<trkpt lat="48.942852" lon="8.662370">
<ele>326.0</ele>
<speed>2.1</speed>
<course>52.8</course>
<desc>Speed 2.1 km/h Distance 4.48 km</desc>
<time>2010-02-24T18:17:04.10</time>
<name>4232</name>
</trkpt>
<trkpt lat="48.942857" lon="8.662380">
<ele>325.5</ele>
<speed>2.7</speed>
<course>38.1</course>
<desc>Speed 2.7 km/h Distance 4.48 km</desc>
<time>2010-02-24T18:17:05.09</time>
<name>4233</name>
</trkpt>
<trkpt lat="48.942865" lon="8.662390">
<ele>326.0</ele>
<speed>3.1</speed>
<course>39.4</course>
<desc>Speed 3.1 km/h Distance 4.48 km</desc>
<time>2010-02-24T18:17:06.10</time>
<name>4234</name>
</trkpt>
<trkpt lat="48.942872" lon="8.662398">
<ele>326.0</ele>
<speed>3.2</speed>
<course>58.6</course>
<desc>Speed 3.2 km/h Distance 4.48 km</desc>
<time>2010-02-24T18:17:07.10</time>
<name>4235</name>
</trkpt>
<trkpt lat="48.942875" lon="8.662407">
<ele>326.0</ele>
<speed>2.4</speed>
<course>77.7</course>
<desc>Speed 2.4 km/h Distance 4.48 km</desc>
<time>2010-02-24T18:17:08.09</time>
<name>4236</name>
</trkpt>
<trkpt lat="48.942877" lon="8.662418">
<ele>326.0</ele>
<speed>2.7</speed>
<course>69.1</course>
<desc>Speed 2.7 km/h Distance 4.48 km</desc>
<time>2010-02-24T18:17:09.10</time>
<name>4237</name>
</trkpt>
<trkpt lat="48.942878" lon="8.662425">
<ele>325.5</ele>
<speed>1.8</speed>
<course>52.4</course>
<desc>Speed 1.8 km/h Distance 4.48 km</desc>
<time>2010-02-24T18:17:10.09</time>
<name>4238</name>
</trkpt>
<trkpt lat="48.942883" lon="8.662435">
<ele>325.0</ele>
<speed>2.7</speed>
<course>55.9</course>
<desc>Speed 2.7 km/h Distance 4.48 km</desc>
<time>2010-02-24T18:17:11.10</time>
<name>4239</name>
</trkpt>
<trkpt lat="48.942890" lon="8.662450">
<ele>324.5</ele>
<speed>4.3</speed>
<course>49.7</course>
<desc>Speed 4.3 km/h Distance 4.48 km</desc>
<time>2010-02-24T18:17:12.10</time>
<name>4240</name>
</trkpt>
<trkpt lat="48.942898" lon="8.662465">
<ele>324.5</ele>
<speed>3.3</speed>
<course>66.5</course>
<desc>Speed 3.3 km/h Distance 4.48 km</desc>
<time>2010-02-24T18:17:13.09</time>
<name>4241</name>
</trkpt>
<trkpt lat="48.942902" lon="8.662477">
<ele>325.0</ele>
<speed>2.8</speed>
<course>39.4</course>
<desc>Speed 2.8 km/h Distance 4.48 km</desc>
<time>2010-02-24T18:17:14.09</time>
<name>4242</name>
</trkpt>
<trkpt lat="48.942908" lon="8.662485">
<ele>325.0</ele>
<speed>2.2</speed>
<course>40.9</course>
<desc>Speed 2.2 km/h Distance 4.49 km</desc>
<time>2010-02-24T18:17:15.09</time>
<name>4243</name>
</trkpt>
<trkpt lat="48.942913" lon="8.662492">
<ele>325.0</ele>
<speed>1.8</speed>
<course>58.6</course>
<desc>Speed 1.8 km/h Distance 4.49 km</desc>
<time>2010-02-24T18:17:16.09</time>
<name>4244</name>
</trkpt>
<trkpt lat="48.942917" lon="8.662500">
<ele>325.5</ele>
<speed>2.3</speed>
<course>58.6</course>
<desc>Speed 2.3 km/h Distance 4.49 km</desc>
<time>2010-02-24T18:17:17.09</time>
<name>4245</name>
</trkpt>
<trkpt lat="48.942920" lon="8.662508">
<ele>325.5</ele>
<speed>2.4</speed>
<course>39.4</course>
<desc>Speed 2.4 km/h Distance 4.49 km</desc>
<time>2010-02-24T18:17:18.09</time>
<name>4246</name>
</trkpt>
<trkpt lat="48.942927" lon="8.662517">
<ele>326.0</ele>
<speed>2.1</speed>
<course>12.6</course>
<desc>Speed 2.1 km/h Distance 4.49 km</desc>
<time>2010-02-24T18:17:19.09</time>
<name>4247</name>
</trkpt>
<trkpt lat="48.942937" lon="8.662520">
<ele>326.5</ele>
<speed>2.2</speed>
<course>167.4</course>
<desc>Speed 2.2 km/h Distance 4.49 km</desc>
<time>2010-02-24T18:17:20.09</time>
<name>4248</name>
</trkpt>
<trkpt lat="48.942933" lon="8.662522">
<ele>325.0</ele>
<speed>1.7</speed>
<course>43.5</course>
<desc>Speed 1.7 km/h Distance 4.49 km</desc>
<time>2010-02-24T18:17:21.09</time>
<name>4249</name>
</trkpt>
<trkpt lat="48.942937" lon="8.662527">
<ele>325.5</ele>
<speed>0.9</speed>
<course>43.5</course>
<desc>Speed 0.9 km/h Distance 4.49 km</desc>
<time>2010-02-24T18:17:22.09</time>
<name>4250</name>
</trkpt>
<trkpt lat="48.942940" lon="8.662532">
<ele>326.0</ele>
<speed>2.1</speed>
<course>38.4</course>
<desc>Speed 2.1 km/h Distance 4.49 km</desc>
<time>2010-02-24T18:17:23.09</time>
<name>4251</name>
</trkpt>
<trkpt lat="48.942948" lon="8.662542">
<ele>326.5</ele>
<speed>3.2</speed>
<course>39.4</course>
<desc>Speed 3.2 km/h Distance 4.49 km</desc>
<time>2010-02-24T18:17:24.09</time>
<name>4252</name>
</trkpt>
<trkpt lat="48.942955" lon="8.662550">
<ele>326.5</ele>
<speed>2.6</speed>
<course>39.4</course>
<desc>Speed 2.6 km/h Distance 4.49 km</desc>
<time>2010-02-24T18:17:25.08</time>
<name>4253</name>
</trkpt>
<trkpt lat="48.942962" lon="8.662558">
<ele>327.0</ele>
<speed>1.1</speed>
<course>36.2</course>
<desc>Speed 1.1 km/h Distance 4.49 km</desc>
<time>2010-02-24T18:17:26.09</time>
<name>4254</name>
</trkpt>
<trkpt lat="48.942977" lon="8.662575">
<ele>328.5</ele>
<speed>4.3</speed>
<course>33.3</course>
<desc>Speed 4.3 km/h Distance 4.50 km</desc>
<time>2010-02-24T18:17:27.08</time>
<name>4255</name>
</trkpt>
<trkpt lat="48.942992" lon="8.662590">
<ele>330.0</ele>
<speed>3.2</speed>
<course>35.8</course>
<desc>Speed 3.2 km/h Distance 4.50 km</desc>
<time>2010-02-24T18:17:28.09</time>
<name>4256</name>
</trkpt>
<trkpt lat="48.943008" lon="8.662608">
<ele>332.0</ele>
<speed>3.3</speed>
<course>25.1</course>
<desc>Speed 3.3 km/h Distance 4.50 km</desc>
<time>2010-02-24T18:17:29.08</time>
<name>4257</name>
</trkpt>
<trkpt lat="48.943032" lon="8.662625">
<ele>334.0</ele>
<speed>5.6</speed>
<course>38.3</course>
<desc>Speed 5.6 km/h Distance 4.50 km</desc>
<time>2010-02-24T18:17:30.08</time>
<name>4258</name>
</trkpt>
<trkpt lat="48.943048" lon="8.662645">
<ele>337.0</ele>
<speed>3.6</speed>
<course>30.9</course>
<desc>Speed 3.6 km/h Distance 4.51 km</desc>
<time>2010-02-24T18:17:31.08</time>
<name>4259</name>
</trkpt>
<trkpt lat="48.943067" lon="8.662662">
<ele>340.0</ele>
<speed>3.1</speed>
<course>42.6</course>
<desc>Speed 3.1 km/h Distance 4.51 km</desc>
<time>2010-02-24T18:17:32.08</time>
<name>4260</name>
</trkpt>
<trkpt lat="48.943075" lon="8.662673">
<ele>340.5</ele>
<speed>2.4</speed>
<course>46.5</course>
<desc>Speed 2.4 km/h Distance 4.51 km</desc>
<time>2010-02-24T18:17:33.08</time>
<name>4261</name>
</trkpt>
<trkpt lat="48.943083" lon="8.662687">
<ele>341.0</ele>
<speed>3.3</speed>
<course>73.3</course>
<desc>Speed 3.3 km/h Distance 4.51 km</desc>
<time>2010-02-24T18:17:34.08</time>
<name>4262</name>
</trkpt>
<trkpt lat="48.943085" lon="8.662695">
<ele>341.0</ele>
<speed>2.3</speed>
<course>90.0</course>
<desc>Speed 2.3 km/h Distance 4.51 km</desc>
<time>2010-02-24T18:17:35.08</time>
<name>4263</name>
</trkpt>
<trkpt lat="48.943085" lon="8.662703">
<ele>341.0</ele>
<speed>2.4</speed>
<course>73.3</course>
<desc>Speed 2.4 km/h Distance 4.51 km</desc>
<time>2010-02-24T18:17:36.08</time>
<name>4264</name>
</trkpt>
<trkpt lat="48.943087" lon="8.662712">
<ele>341.5</ele>
<speed>2.6</speed>
<course>52.8</course>
<desc>Speed 2.6 km/h Distance 4.51 km</desc>
<time>2010-02-24T18:17:37.08</time>
<name>4265</name>
</trkpt>
<trkpt lat="48.943092" lon="8.662722">
<ele>341.5</ele>
<speed>2.7</speed>
<course>55.9</course>
<desc>Speed 2.7 km/h Distance 4.51 km</desc>
<time>2010-02-24T18:17:38.08</time>
<name>4266</name>
</trkpt>
<trkpt lat="48.943098" lon="8.662737">
<ele>341.5</ele>
<speed>3.0</speed>
<course>58.7</course>
<desc>Speed 3.0 km/h Distance 4.52 km</desc>
<time>2010-02-24T18:17:39.08</time>
<name>4267</name>
</trkpt>
<trkpt lat="48.943105" lon="8.662753">
<ele>342.5</ele>
<speed>3.0</speed>
<course>52.7</course>
<desc>Speed 3.0 km/h Distance 4.52 km</desc>
<time>2010-02-24T18:17:40.08</time>
<name>4268</name>
</trkpt>
<trkpt lat="48.943113" lon="8.662770">
<ele>344.0</ele>
<speed>2.8</speed>
<course>60.3</course>
<desc>Speed 2.8 km/h Distance 4.52 km</desc>
<time>2010-02-24T18:17:41.08</time>
<name>4269</name>
</trkpt>
<trkpt lat="48.943118" lon="8.662783">
<ele>344.0</ele>
<speed>3.1</speed>
<course>71.4</course>
<desc>Speed 3.1 km/h Distance 4.52 km</desc>
<time>2010-02-24T18:17:42.08</time>
<name>4270</name>
</trkpt>
<trkpt lat="48.943122" lon="8.662798">
<ele>344.0</ele>
<speed>3.1</speed>
<course>77.7</course>
<desc>Speed 3.1 km/h Distance 4.52 km</desc>
<time>2010-02-24T18:17:43.08</time>
<name>4271</name>
</trkpt>
<trkpt lat="48.943123" lon="8.662810">
<ele>344.0</ele>
<speed>2.7</speed>
<course>77.7</course>
<desc>Speed 2.7 km/h Distance 4.52 km</desc>
<time>2010-02-24T18:17:44.07</time>
<name>4272</name>
</trkpt>
<trkpt lat="48.943125" lon="8.662822">
<ele>344.0</ele>
<speed>3.0</speed>
<course>100.7</course>
<desc>Speed 3.0 km/h Distance 4.52 km</desc>
<time>2010-02-24T18:17:45.07</time>
<name>4273</name>
</trkpt>
<trkpt lat="48.943123" lon="8.662835">
<ele>344.0</ele>
<speed>3.5</speed>
<course>106.9</course>
<desc>Speed 3.5 km/h Distance 4.52 km</desc>
<time>2010-02-24T18:17:46.07</time>
<name>4274</name>
</trkpt>
<trkpt lat="48.943120" lon="8.662852">
<ele>344.0</ele>
<speed>4.3</speed>
<course>114.6</course>
<desc>Speed 4.3 km/h Distance 4.52 km</desc>
<time>2010-02-24T18:17:47.07</time>
<name>4275</name>
</trkpt>
<trkpt lat="48.943115" lon="8.662868">
<ele>343.5</ele>
<speed>4.5</speed>
<course>108.7</course>
<desc>Speed 4.5 km/h Distance 4.53 km</desc>
<time>2010-02-24T18:17:48.07</time>
<name>4276</name>
</trkpt>
<trkpt lat="48.943112" lon="8.662883">
<ele>343.5</ele>
<speed>3.8</speed>
<course>99.6</course>
<desc>Speed 3.8 km/h Distance 4.53 km</desc>
<time>2010-02-24T18:17:49.07</time>
<name>4277</name>
</trkpt>
<trkpt lat="48.943110" lon="8.662898">
<ele>344.0</ele>
<speed>3.6</speed>
<course>100.8</course>
<desc>Speed 3.6 km/h Distance 4.53 km</desc>
<time>2010-02-24T18:17:50.07</time>
<name>4278</name>
</trkpt>
<trkpt lat="48.943108" lon="8.662912">
<ele>344.0</ele>
<speed>3.3</speed>
<course>113.5</course>
<desc>Speed 3.3 km/h Distance 4.53 km</desc>
<time>2010-02-24T18:17:51.07</time>
<name>4279</name>
</trkpt>
<trkpt lat="48.943105" lon="8.662923">
<ele>344.0</ele>
<speed>3.6</speed>
<course>110.9</course>
<desc>Speed 3.6 km/h Distance 4.53 km</desc>
<time>2010-02-24T18:17:52.07</time>
<name>4280</name>
</trkpt>
<trkpt lat="48.943102" lon="8.662937">
<ele>344.0</ele>
<speed>3.7</speed>
<course>110.9</course>
<desc>Speed 3.7 km/h Distance 4.53 km</desc>
<time>2010-02-24T18:17:53.07</time>
<name>4281</name>
</trkpt>
<trkpt lat="48.943098" lon="8.662950">
<ele>344.0</ele>
<speed>3.4</speed>
<course>113.5</course>
<desc>Speed 3.4 km/h Distance 4.53 km</desc>
<time>2010-02-24T18:17:54.07</time>
<name>4282</name>
</trkpt>
<trkpt lat="48.943095" lon="8.662962">
<ele>344.0</ele>
<speed>3.9</speed>
<course>123.3</course>
<desc>Speed 3.9 km/h Distance 4.53 km</desc>
<time>2010-02-24T18:17:55.07</time>
<name>4283</name>
</trkpt>
<trkpt lat="48.943090" lon="8.662973">
<ele>344.0</ele>
<speed>3.6</speed>
<course>137.7</course>
<desc>Speed 3.6 km/h Distance 4.53 km</desc>
<time>2010-02-24T18:17:56.07</time>
<name>4284</name>
</trkpt>
<trkpt lat="48.943082" lon="8.662985">
<ele>344.0</ele>
<speed>4.6</speed>
<course>127.4</course>
<desc>Speed 4.6 km/h Distance 4.54 km</desc>
<time>2010-02-24T18:17:57.07</time>
<name>4285</name>
</trkpt>
<trkpt lat="48.943077" lon="8.662995">
<ele>344.5</ele>
<speed>4.0</speed>
<course>123.1</course>
<desc>Speed 4.0 km/h Distance 4.54 km</desc>
<time>2010-02-24T18:17:58.07</time>
<name>4286</name>
</trkpt>
<trkpt lat="48.943072" lon="8.663007">
<ele>345.0</ele>
<speed>4.1</speed>
<course>123.3</course>
<desc>Speed 4.1 km/h Distance 4.54 km</desc>
<time>2010-02-24T18:17:59.07</time>
<name>4287</name>
</trkpt>
<trkpt lat="48.943067" lon="8.663018">
<ele>344.5</ele>
<speed>3.8</speed>
<course>119.7</course>
<desc>Speed 3.8 km/h Distance 4.54 km</desc>
<time>2010-02-24T18:18:00.10</time>
<name>4288</name>
</trkpt>
<trkpt lat="48.943062" lon="8.663032">
<ele>344.5</ele>
<speed>3.8</speed>
<course>90.0</course>
<desc>Speed 3.8 km/h Distance 4.54 km</desc>
<time>2010-02-24T18:18:01.10</time>
<name>4289</name>
</trkpt>
<trkpt lat="48.943062" lon="8.663042">
<ele>345.0</ele>
<speed>4.0</speed>
<course>117.0</course>
<desc>Speed 4.0 km/h Distance 4.54 km</desc>
<time>2010-02-24T18:18:02.10</time>
<name>4290</name>
</trkpt>
<trkpt lat="48.943058" lon="8.663052">
<ele>345.5</ele>
<speed>3.7</speed>
<course>140.6</course>
<desc>Speed 3.7 km/h Distance 4.54 km</desc>
<time>2010-02-24T18:18:03.10</time>
<name>4291</name>
</trkpt>
<trkpt lat="48.943052" lon="8.663060">
<ele>345.5</ele>
<speed>3.5</speed>
<course>140.6</course>
<desc>Speed 3.5 km/h Distance 4.54 km</desc>
<time>2010-02-24T18:18:04.10</time>
<name>4292</name>
</trkpt>
<trkpt lat="48.943045" lon="8.663068">
<ele>345.0</ele>
<speed>3.5</speed>
<course>135.5</course>
<desc>Speed 3.5 km/h Distance 4.54 km</desc>
<time>2010-02-24T18:18:05.10</time>
<name>4293</name>
</trkpt>
<trkpt lat="48.943038" lon="8.663078">
<ele>345.0</ele>
<speed>3.4</speed>
<course>135.5</course>
<desc>Speed 3.4 km/h Distance 4.54 km</desc>
<time>2010-02-24T18:18:06.10</time>
<name>4294</name>
</trkpt>
<trkpt lat="48.943032" lon="8.663088">
<ele>345.0</ele>
<speed>3.7</speed>
<course>132.2</course>
<desc>Speed 3.7 km/h Distance 4.55 km</desc>
<time>2010-02-24T18:18:07.10</time>
<name>4295</name>
</trkpt>
<trkpt lat="48.943027" lon="8.663097">
<ele>345.0</ele>
<speed>3.0</speed>
<course>132.2</course>
<desc>Speed 3.0 km/h Distance 4.55 km</desc>
<time>2010-02-24T18:18:08.10</time>
<name>4296</name>
</trkpt>
<trkpt lat="48.943022" lon="8.663105">
<ele>344.5</ele>
<speed>2.6</speed>
<course>127.6</course>
<desc>Speed 2.6 km/h Distance 4.55 km</desc>
<time>2010-02-24T18:18:09.10</time>
<name>4297</name>
</trkpt>
<trkpt lat="48.943018" lon="8.663112">
<ele>344.5</ele>
<speed>2.4</speed>
<course>127.3</course>
<desc>Speed 2.4 km/h Distance 4.55 km</desc>
<time>2010-02-24T18:18:10.10</time>
<name>4298</name>
</trkpt>
<trkpt lat="48.943012" lon="8.663125">
<ele>344.0</ele>
<speed>3.1</speed>
<course>100.8</course>
<desc>Speed 3.1 km/h Distance 4.55 km</desc>
<time>2010-02-24T18:18:11.10</time>
<name>4299</name>
</trkpt>
<trkpt lat="48.943010" lon="8.663138">
<ele>343.5</ele>
<speed>2.6</speed>
<course>127.3</course>
<desc>Speed 2.6 km/h Distance 4.55 km</desc>
<time>2010-02-24T18:18:12.10</time>
<name>4300</name>
</trkpt>
<trkpt lat="48.943003" lon="8.663152">
<ele>343.5</ele>
<speed>3.8</speed>
<course>102.3</course>
<desc>Speed 3.8 km/h Distance 4.55 km</desc>
<time>2010-02-24T18:18:13.10</time>
<name>4301</name>
</trkpt>
<trkpt lat="48.943002" lon="8.663163">
<ele>343.5</ele>
<speed>2.7</speed>
<course>113.5</course>
<desc>Speed 2.7 km/h Distance 4.55 km</desc>
<time>2010-02-24T18:18:14.10</time>
<name>4302</name>
</trkpt>
<trkpt lat="48.942998" lon="8.663175">
<ele>343.0</ele>
<speed>2.9</speed>
<course>117.0</course>
<desc>Speed 2.9 km/h Distance 4.55 km</desc>
<time>2010-02-24T18:18:15.10</time>
<name>4303</name>
</trkpt>
<trkpt lat="48.942995" lon="8.663185">
<ele>342.0</ele>
<speed>2.6</speed>
<course>110.7</course>
<desc>Speed 2.6 km/h Distance 4.55 km</desc>
<time>2010-02-24T18:18:16.10</time>
<name>4304</name>
</trkpt>
<trkpt lat="48.942992" lon="8.663198">
<ele>341.5</ele>
<speed>3.0</speed>
<course>72.9</course>
<desc>Speed 3.0 km/h Distance 4.55 km</desc>
<time>2010-02-24T18:18:17.10</time>
<name>4305</name>
</trkpt>
<trkpt lat="48.942993" lon="8.663207">
<ele>340.5</ele>
<speed>2.1</speed>
<course>113.6</course>
<desc>Speed 2.1 km/h Distance 4.56 km</desc>
<time>2010-02-24T18:18:18.10</time>
<name>4306</name>
</trkpt>
<trkpt lat="48.942990" lon="8.663218">
<ele>340.0</ele>
<speed>2.7</speed>
<course>61.0</course>
<desc>Speed 2.7 km/h Distance 4.56 km</desc>
<time>2010-02-24T18:18:19.10</time>
<name>4307</name>
</trkpt>
<trkpt lat="48.942997" lon="8.663237">
<ele>341.0</ele>
<speed>5.1</speed>
<course>63.1</course>
<desc>Speed 5.1 km/h Distance 4.56 km</desc>
<time>2010-02-24T18:18:20.10</time>
<name>4308</name>
</trkpt>
<trkpt lat="48.943002" lon="8.663252">
<ele>341.0</ele>
<speed>3.7</speed>
<course>77.7</course>
<desc>Speed 3.7 km/h Distance 4.56 km</desc>
<time>2010-02-24T18:18:21.10</time>
<name>4309</name>
</trkpt>
<trkpt lat="48.943003" lon="8.663263">
<ele>340.5</ele>
<speed>2.7</speed>
<course>79.3</course>
<desc>Speed 2.7 km/h Distance 4.56 km</desc>
<time>2010-02-24T18:18:22.10</time>
<name>4310</name>
</trkpt>
<trkpt lat="48.943005" lon="8.663277">
<ele>340.5</ele>
<speed>3.1</speed>
<course>90.0</course>
<desc>Speed 3.1 km/h Distance 4.56 km</desc>
<time>2010-02-24T18:18:23.10</time>
<name>4311</name>
</trkpt>
<trkpt lat="48.943005" lon="8.663287">
<ele>340.0</ele>
<speed>2.6</speed>
<course>90.0</course>
<desc>Speed 2.6 km/h Distance 4.56 km</desc>
<time>2010-02-24T18:18:24.10</time>
<name>4312</name>
</trkpt>
<trkpt lat="48.943005" lon="8.663300">
<ele>339.5</ele>
<speed>2.5</speed>
<course>90.0</course>
<desc>Speed 2.5 km/h Distance 4.56 km</desc>
<time>2010-02-24T18:18:25.10</time>
<name>4313</name>
</trkpt>
<trkpt lat="48.943005" lon="8.663313">
<ele>339.0</ele>
<speed>2.6</speed>
<course>77.7</course>
<desc>Speed 2.6 km/h Distance 4.56 km</desc>
<time>2010-02-24T18:18:26.10</time>
<name>4314</name>
</trkpt>
<trkpt lat="48.943007" lon="8.663325">
<ele>338.0</ele>
<speed>2.4</speed>
<course>90.0</course>
<desc>Speed 2.4 km/h Distance 4.56 km</desc>
<time>2010-02-24T18:18:27.10</time>
<name>4315</name>
</trkpt>
<trkpt lat="48.943007" lon="8.663335">
<ele>337.5</ele>
<speed>2.2</speed>
<course>102.3</course>
<desc>Speed 2.2 km/h Distance 4.56 km</desc>
<time>2010-02-24T18:18:28.10</time>
<name>4316</name>
</trkpt>
<trkpt lat="48.943005" lon="8.663347">
<ele>336.5</ele>
<speed>1.9</speed>
<course>62.6</course>
<desc>Speed 1.9 km/h Distance 4.57 km</desc>
<time>2010-02-24T18:18:29.10</time>
<name>4317</name>
</trkpt>
<trkpt lat="48.943007" lon="8.663352">
<ele>336.0</ele>
<speed>1.1</speed>
<course>41.4</course>
<desc>Speed 1.1 km/h Distance 4.57 km</desc>
<time>2010-02-24T18:18:30.10</time>
<name>4318</name>
</trkpt>
<trkpt lat="48.943012" lon="8.663358">
<ele>335.5</ele>
<speed>2.2</speed>
<course>90.0</course>
<desc>Speed 2.2 km/h Distance 4.57 km</desc>
<time>2010-02-24T18:18:31.10</time>
<name>4319</name>
</trkpt>
<trkpt lat="48.943012" lon="8.663368">
<ele>335.5</ele>
<speed>2.7</speed>
<course>77.7</course>
<desc>Speed 2.7 km/h Distance 4.57 km</desc>
<time>2010-02-24T18:18:32.10</time>
<name>4320</name>
</trkpt>
<trkpt lat="48.943013" lon="8.663380">
<ele>334.5</ele>
<speed>2.6</speed>
<course>77.7</course>
<desc>Speed 2.6 km/h Distance 4.57 km</desc>
<time>2010-02-24T18:18:33.10</time>
<name>4321</name>
</trkpt>
<trkpt lat="48.943015" lon="8.663392">
<ele>334.0</ele>
<speed>2.6</speed>
<course>52.7</course>
<desc>Speed 2.6 km/h Distance 4.57 km</desc>
<time>2010-02-24T18:18:34.10</time>
<name>4322</name>
</trkpt>
<trkpt lat="48.943023" lon="8.663408">
<ele>334.0</ele>
<speed>4.8</speed>
<course>135.5</course>
<desc>Speed 4.8 km/h Distance 4.57 km</desc>
<time>2010-02-24T18:18:35.10</time>
<name>4323</name>
</trkpt>
<trkpt lat="48.943017" lon="8.663418">
<ele>334.0</ele>
<speed>3.9</speed>
<course>77.7</course>
<desc>Speed 3.9 km/h Distance 4.57 km</desc>
<time>2010-02-24T18:18:36.10</time>
<name>4324</name>
</trkpt>
<trkpt lat="48.943018" lon="8.663430">
<ele>333.5</ele>
<speed>2.6</speed>
<course>63.0</course>
<desc>Speed 2.6 km/h Distance 4.57 km</desc>
<time>2010-02-24T18:18:37.10</time>
<name>4325</name>
</trkpt>
<trkpt lat="48.943022" lon="8.663440">
<ele>333.0</ele>
<speed>2.3</speed>
<course>66.5</course>
<desc>Speed 2.3 km/h Distance 4.57 km</desc>
<time>2010-02-24T18:18:38.10</time>
<name>4326</name>
</trkpt>
<trkpt lat="48.943025" lon="8.663452">
<ele>333.0</ele>
<speed>2.9</speed>
<course>90.0</course>
<desc>Speed 2.9 km/h Distance 4.57 km</desc>
<time>2010-02-24T18:18:39.10</time>
<name>4327</name>
</trkpt>
<trkpt lat="48.943025" lon="8.663465">
<ele>332.5</ele>
<speed>2.9</speed>
<course>53.0</course>
<desc>Speed 2.9 km/h Distance 4.58 km</desc>
<time>2010-02-24T18:18:40.10</time>
<name>4328</name>
</trkpt>
<trkpt lat="48.943032" lon="8.663478">
<ele>332.5</ele>
<speed>3.6</speed>
<course>60.3</course>
<desc>Speed 3.6 km/h Distance 4.58 km</desc>
<time>2010-02-24T18:18:41.10</time>
<name>4329</name>
</trkpt>
<trkpt lat="48.943037" lon="8.663492">
<ele>332.5</ele>
<speed>3.5</speed>
<course>60.3</course>
<desc>Speed 3.5 km/h Distance 4.58 km</desc>
<time>2010-02-24T18:18:42.10</time>
<name>4330</name>
</trkpt>
<trkpt lat="48.943042" lon="8.663505">
<ele>332.5</ele>
<speed>3.2</speed>
<course>33.5</course>
<desc>Speed 3.2 km/h Distance 4.58 km</desc>
<time>2010-02-24T18:18:43.10</time>
<name>4331</name>
</trkpt>
<trkpt lat="48.943050" lon="8.663513">
<ele>332.5</ele>
<speed>4.1</speed>
<course>49.1</course>
<desc>Speed 4.1 km/h Distance 4.58 km</desc>
<time>2010-02-24T18:18:44.10</time>
<name>4332</name>
</trkpt>
<trkpt lat="48.943057" lon="8.663525">
<ele>333.0</ele>
<speed>3.8</speed>
<course>71.3</course>
<desc>Speed 3.8 km/h Distance 4.58 km</desc>
<time>2010-02-24T18:18:45.10</time>
<name>4333</name>
</trkpt>
<trkpt lat="48.943060" lon="8.663540">
<ele>333.0</ele>
<speed>3.5</speed>
<course>69.2</course>
<desc>Speed 3.5 km/h Distance 4.58 km</desc>
<time>2010-02-24T18:18:46.10</time>
<name>4334</name>
</trkpt>
<trkpt lat="48.943063" lon="8.663553">
<ele>333.0</ele>
<speed>4.0</speed>
<course>73.1</course>
<desc>Speed 4.0 km/h Distance 4.58 km</desc>
<time>2010-02-24T18:18:47.10</time>
<name>4335</name>
</trkpt>
<trkpt lat="48.943067" lon="8.663570">
<ele>333.5</ele>
<speed>3.8</speed>
<course>71.4</course>
<desc>Speed 3.8 km/h Distance 4.58 km</desc>
<time>2010-02-24T18:18:48.10</time>
<name>4336</name>
</trkpt>
<trkpt lat="48.943070" lon="8.663585">
<ele>333.5</ele>
<speed>3.7</speed>
<course>57.6</course>
<desc>Speed 3.7 km/h Distance 4.59 km</desc>
<time>2010-02-24T18:18:49.10</time>
<name>4337</name>
</trkpt>
<trkpt lat="48.943078" lon="8.663605">
<ele>334.5</ele>
<speed>3.7</speed>
<course>81.3</course>
<desc>Speed 3.7 km/h Distance 4.59 km</desc>
<time>2010-02-24T18:18:50.10</time>
<name>4338</name>
</trkpt>
<trkpt lat="48.943080" lon="8.663622">
<ele>334.5</ele>
<speed>4.0</speed>
<course>71.3</course>
<desc>Speed 4.0 km/h Distance 4.59 km</desc>
<time>2010-02-24T18:18:51.10</time>
<name>4339</name>
</trkpt>
<trkpt lat="48.943083" lon="8.663637">
<ele>335.0</ele>
<speed>3.7</speed>
<course>73.1</course>
<desc>Speed 3.7 km/h Distance 4.59 km</desc>
<time>2010-02-24T18:18:52.10</time>
<name>4340</name>
</trkpt>
<trkpt lat="48.943087" lon="8.663653">
<ele>335.5</ele>
<speed>3.7</speed>
<course>80.4</course>
<desc>Speed 3.7 km/h Distance 4.59 km</desc>
<time>2010-02-24T18:18:53.10</time>
<name>4341</name>
</trkpt>
<trkpt lat="48.943088" lon="8.663668">
<ele>336.0</ele>
<speed>3.0</speed>
<course>56.9</course>
<desc>Speed 3.0 km/h Distance 4.59 km</desc>
<time>2010-02-24T18:18:54.10</time>
<name>4342</name>
</trkpt>
<trkpt lat="48.943093" lon="8.663680">
<ele>337.0</ele>
<speed>2.9</speed>
<course>69.1</course>
<desc>Speed 2.9 km/h Distance 4.59 km</desc>
<time>2010-02-24T18:18:55.10</time>
<name>4343</name>
</trkpt>
<trkpt lat="48.943097" lon="8.663693">
<ele>337.5</ele>
<speed>2.9</speed>
<course>48.9</course>
<desc>Speed 2.9 km/h Distance 4.59 km</desc>
<time>2010-02-24T18:18:56.10</time>
<name>4344</name>
</trkpt>
<trkpt lat="48.943103" lon="8.663705">
<ele>338.0</ele>
<speed>3.9</speed>
<course>60.3</course>
<desc>Speed 3.9 km/h Distance 4.60 km</desc>
<time>2010-02-24T18:18:57.10</time>
<name>4345</name>
</trkpt>
<trkpt lat="48.943108" lon="8.663718">
<ele>338.0</ele>
<speed>3.7</speed>
<course>60.3</course>
<desc>Speed 3.7 km/h Distance 4.60 km</desc>
<time>2010-02-24T18:18:58.10</time>
<name>4346</name>
</trkpt>
<trkpt lat="48.943113" lon="8.663732">
<ele>338.0</ele>
<speed>3.6</speed>
<course>77.7</course>
<desc>Speed 3.6 km/h Distance 4.60 km</desc>
<time>2010-02-24T18:18:59.10</time>
<name>4347</name>
</trkpt>
<trkpt lat="48.943115" lon="8.663743">
<ele>337.5</ele>
<speed>3.0</speed>
<course>60.3</course>
<desc>Speed 3.0 km/h Distance 4.60 km</desc>
<time>2010-02-24T18:19:00.10</time>
<name>4348</name>
</trkpt>
<trkpt lat="48.943120" lon="8.663757">
<ele>337.5</ele>
<speed>3.4</speed>
<course>49.1</course>
<desc>Speed 3.4 km/h Distance 4.60 km</desc>
<time>2010-02-24T18:19:01.10</time>
<name>4349</name>
</trkpt>
<trkpt lat="48.943127" lon="8.663768">
<ele>337.5</ele>
<speed>3.6</speed>
<course>71.3</course>
<desc>Speed 3.6 km/h Distance 4.60 km</desc>
<time>2010-02-24T18:19:02.10</time>
<name>4350</name>
</trkpt>
<trkpt lat="48.943130" lon="8.663783">
<ele>337.5</ele>
<speed>3.4</speed>
<course>60.3</course>
<desc>Speed 3.4 km/h Distance 4.60 km</desc>
<time>2010-02-24T18:19:03.10</time>
<name>4351</name>
</trkpt>
<trkpt lat="48.943135" lon="8.663797">
<ele>337.5</ele>
<speed>3.5</speed>
<course>50.9</course>
<desc>Speed 3.5 km/h Distance 4.60 km</desc>
<time>2010-02-24T18:19:04.10</time>
<name>4352</name>
</trkpt>
<trkpt lat="48.943148" lon="8.663822">
<ele>339.5</ele>
<speed>3.5</speed>
<course>60.3</course>
<desc>Speed 3.5 km/h Distance 4.61 km</desc>
<time>2010-02-24T18:19:05.10</time>
<name>4353</name>
</trkpt>
<trkpt lat="48.943153" lon="8.663835">
<ele>339.5</ele>
<speed>3.4</speed>
<course>52.8</course>
<desc>Speed 3.4 km/h Distance 4.61 km</desc>
<time>2010-02-24T18:19:06.10</time>
<name>4354</name>
</trkpt>
<trkpt lat="48.943160" lon="8.663848">
<ele>340.0</ele>
<speed>3.1</speed>
<course>38.4</course>
<desc>Speed 3.1 km/h Distance 4.61 km</desc>
<time>2010-02-24T18:19:07.10</time>
<name>4355</name>
</trkpt>
<trkpt lat="48.943168" lon="8.663858">
<ele>341.0</ele>
<speed>2.4</speed>
<course>42.6</course>
<desc>Speed 2.4 km/h Distance 4.61 km</desc>
<time>2010-02-24T18:19:08.10</time>
<name>4356</name>
</trkpt>
<trkpt lat="48.943177" lon="8.663870">
<ele>342.0</ele>
<speed>3.3</speed>
<course>49.1</course>
<desc>Speed 3.3 km/h Distance 4.61 km</desc>
<time>2010-02-24T18:19:09.10</time>
<name>4357</name>
</trkpt>
<trkpt lat="48.943183" lon="8.663882">
<ele>342.5</ele>
<speed>3.0</speed>
<course>42.6</course>
<desc>Speed 3.0 km/h Distance 4.61 km</desc>
<time>2010-02-24T18:19:10.10</time>
<name>4358</name>
</trkpt>
<trkpt lat="48.943192" lon="8.663893">
<ele>342.5</ele>
<speed>3.7</speed>
<course>33.2</course>
<desc>Speed 3.7 km/h Distance 4.61 km</desc>
<time>2010-02-24T18:19:11.10</time>
<name>4359</name>
</trkpt>
<trkpt lat="48.943202" lon="8.663903">
<ele>343.0</ele>
<speed>3.9</speed>
<course>69.3</course>
<desc>Speed 3.9 km/h Distance 4.61 km</desc>
<time>2010-02-24T18:19:12.10</time>
<name>4360</name>
</trkpt>
<trkpt lat="48.943205" lon="8.663917">
<ele>343.5</ele>
<speed>3.2</speed>
<course>49.1</course>
<desc>Speed 3.2 km/h Distance 4.62 km</desc>
<time>2010-02-24T18:19:13.10</time>
<name>4361</name>
</trkpt>
<trkpt lat="48.943212" lon="8.663928">
<ele>345.5</ele>
<speed>2.3</speed>
<course>39.4</course>
<desc>Speed 2.3 km/h Distance 4.62 km</desc>
<time>2010-02-24T18:19:14.10</time>
<name>4362</name>
</trkpt>
<trkpt lat="48.943218" lon="8.663937">
<ele>346.5</ele>
<speed>2.6</speed>
<course>42.6</course>
<desc>Speed 2.6 km/h Distance 4.62 km</desc>
<time>2010-02-24T18:19:15.10</time>
<name>4363</name>
</trkpt>
<trkpt lat="48.943227" lon="8.663948">
<ele>347.5</ele>
<speed>3.1</speed>
<course>37.5</course>
<desc>Speed 3.1 km/h Distance 4.62 km</desc>
<time>2010-02-24T18:19:16.10</time>
<name>4364</name>
</trkpt>
<trkpt lat="48.943237" lon="8.663960">
<ele>348.0</ele>
<speed>4.0</speed>
<course>49.8</course>
<desc>Speed 4.0 km/h Distance 4.62 km</desc>
<time>2010-02-24T18:19:17.10</time>
<name>4365</name>
</trkpt>
<trkpt lat="48.943245" lon="8.663975">
<ele>348.5</ele>
<speed>4.0</speed>
<course>67.5</course>
<desc>Speed 4.0 km/h Distance 4.62 km</desc>
<time>2010-02-24T18:19:18.10</time>
<name>4366</name>
</trkpt>
<trkpt lat="48.943250" lon="8.663993">
<ele>349.0</ele>
<speed>3.7</speed>
<course>73.0</course>
<desc>Speed 3.7 km/h Distance 4.62 km</desc>
<time>2010-02-24T18:19:19.10</time>
<name>4367</name>
</trkpt>
<trkpt lat="48.943253" lon="8.664010">
<ele>349.5</ele>
<speed>3.6</speed>
<course>66.3</course>
<desc>Speed 3.6 km/h Distance 4.62 km</desc>
<time>2010-02-24T18:19:20.10</time>
<name>4368</name>
</trkpt>
<trkpt lat="48.943257" lon="8.664022">
<ele>350.0</ele>
<speed>2.3</speed>
<course>63.0</course>
<desc>Speed 2.3 km/h Distance 4.63 km</desc>
<time>2010-02-24T18:19:21.10</time>
<name>4369</name>
</trkpt>
<trkpt lat="48.943260" lon="8.664032">
<ele>351.0</ele>
<speed>1.7</speed>
<course>117.4</course>
<desc>Speed 1.7 km/h Distance 4.63 km</desc>
<time>2010-02-24T18:19:22.10</time>
<name>4370</name>
</trkpt>
<trkpt lat="48.943258" lon="8.664037">
<ele>352.0</ele>
<speed>1.4</speed>
<course>90.0</course>
<desc>Speed 1.4 km/h Distance 4.63 km</desc>
<time>2010-02-24T18:19:23.10</time>
<name>4371</name>
</trkpt>
<trkpt lat="48.943258" lon="8.664047">
<ele>353.0</ele>
<speed>1.5</speed>
<course>90.0</course>
<desc>Speed 1.5 km/h Distance 4.63 km</desc>
<time>2010-02-24T18:19:24.10</time>
<name>4372</name>
</trkpt>
<trkpt lat="48.943258" lon="8.664057">
<ele>354.0</ele>
<speed>1.6</speed>
<course>90.0</course>
<desc>Speed 1.6 km/h Distance 4.63 km</desc>
<time>2010-02-24T18:19:25.10</time>
<name>4373</name>
</trkpt>
<trkpt lat="48.943258" lon="8.664068">
<ele>354.5</ele>
<speed>2.1</speed>
<course>100.8</course>
<desc>Speed 2.1 km/h Distance 4.63 km</desc>
<time>2010-02-24T18:19:26.10</time>
<name>4374</name>
</trkpt>
<trkpt lat="48.943257" lon="8.664082">
<ele>354.5</ele>
<speed>3.2</speed>
<course>102.3</course>
<desc>Speed 3.2 km/h Distance 4.63 km</desc>
<time>2010-02-24T18:19:27.10</time>
<name>4375</name>
</trkpt>
<trkpt lat="48.943255" lon="8.664093">
<ele>355.0</ele>
<speed>2.6</speed>
<course>113.5</course>
<desc>Speed 2.6 km/h Distance 4.63 km</desc>
<time>2010-02-24T18:19:28.10</time>
<name>4376</name>
</trkpt>
<trkpt lat="48.943252" lon="8.664105">
<ele>354.5</ele>
<speed>3.3</speed>
<course>123.3</course>
<desc>Speed 3.3 km/h Distance 4.63 km</desc>
<time>2010-02-24T18:19:29.10</time>
<name>4377</name>
</trkpt>
<trkpt lat="48.943247" lon="8.664117">
<ele>354.0</ele>
<speed>3.4</speed>
<course>102.3</course>
<desc>Speed 3.4 km/h Distance 4.63 km</desc>
<time>2010-02-24T18:19:30.10</time>
<name>4378</name>
</trkpt>
<trkpt lat="48.943245" lon="8.664128">
<ele>354.0</ele>
<speed>3.3</speed>
<course>113.5</course>
<desc>Speed 3.3 km/h Distance 4.63 km</desc>
<time>2010-02-24T18:19:31.10</time>
<name>4379</name>
</trkpt>
<trkpt lat="48.943242" lon="8.664140">
<ele>354.0</ele>
<speed>2.9</speed>
<course>152.1</course>
<desc>Speed 2.9 km/h Distance 4.63 km</desc>
<time>2010-02-24T18:19:32.10</time>
<name>4380</name>
</trkpt>
<trkpt lat="48.943233" lon="8.664147">
<ele>354.0</ele>
<speed>3.6</speed>
<course>110.9</course>
<desc>Speed 3.6 km/h Distance 4.64 km</desc>
<time>2010-02-24T18:19:33.10</time>
<name>4381</name>
</trkpt>
<trkpt lat="48.943230" lon="8.664160">
<ele>353.5</ele>
<speed>3.3</speed>
<course>90.0</course>
<desc>Speed 3.3 km/h Distance 4.64 km</desc>
<time>2010-02-24T18:19:34.10</time>
<name>4382</name>
</trkpt>
<trkpt lat="48.943230" lon="8.664172">
<ele>353.5</ele>
<speed>2.9</speed>
<course>100.8</course>
<desc>Speed 2.9 km/h Distance 4.64 km</desc>
<time>2010-02-24T18:19:35.10</time>
<name>4383</name>
</trkpt>
<trkpt lat="48.943228" lon="8.664185">
<ele>353.5</ele>
<speed>3.1</speed>
<course>77.7</course>
<desc>Speed 3.1 km/h Distance 4.64 km</desc>
<time>2010-02-24T18:19:36.10</time>
<name>4384</name>
</trkpt>
<trkpt lat="48.943230" lon="8.664197">
<ele>353.0</ele>
<speed>2.6</speed>
<course>121.4</course>
<desc>Speed 2.6 km/h Distance 4.64 km</desc>
<time>2010-02-24T18:19:37.10</time>
<name>4385</name>
</trkpt>
<trkpt lat="48.943227" lon="8.664205">
<ele>352.0</ele>
<speed>2.1</speed>
<course>90.0</course>
<desc>Speed 2.1 km/h Distance 4.64 km</desc>
<time>2010-02-24T18:19:38.10</time>
<name>4386</name>
</trkpt>
<trkpt lat="48.943227" lon="8.664213">
<ele>351.0</ele>
<speed>1.9</speed>
<course>90.0</course>
<desc>Speed 1.9 km/h Distance 4.64 km</desc>
<time>2010-02-24T18:19:39.10</time>
<name>4387</name>
</trkpt>
<trkpt lat="48.943227" lon="8.664228">
<ele>350.0</ele>
<speed>2.7</speed>
<course>90.0</course>
<desc>Speed 2.7 km/h Distance 4.64 km</desc>
<time>2010-02-24T18:19:40.10</time>
<name>4388</name>
</trkpt>
<trkpt lat="48.943227" lon="8.664242">
<ele>350.0</ele>
<speed>3.2</speed>
<course>99.6</course>
<desc>Speed 3.2 km/h Distance 4.64 km</desc>
<time>2010-02-24T18:19:41.10</time>
<name>4389</name>
</trkpt>
<trkpt lat="48.943225" lon="8.664257">
<ele>350.0</ele>
<speed>3.2</speed>
<course>84.6</course>
<desc>Speed 3.2 km/h Distance 4.64 km</desc>
<time>2010-02-24T18:19:42.10</time>
<name>4390</name>
</trkpt>
<trkpt lat="48.943227" lon="8.664283">
<ele>351.5</ele>
<speed>6.3</speed>
<course>121.4</course>
<desc>Speed 6.3 km/h Distance 4.65 km</desc>
<time>2010-02-24T18:19:43.10</time>
<name>4391</name>
</trkpt>
<trkpt lat="48.943223" lon="8.664292">
<ele>350.0</ele>
<speed>2.4</speed>
<course>98.7</course>
<desc>Speed 2.4 km/h Distance 4.65 km</desc>
<time>2010-02-24T18:19:44.10</time>
<name>4392</name>
</trkpt>
<trkpt lat="48.943222" lon="8.664308">
<ele>349.5</ele>
<speed>3.7</speed>
<course>63.0</course>
<desc>Speed 3.7 km/h Distance 4.65 km</desc>
<time>2010-02-24T18:19:45.10</time>
<name>4393</name>
</trkpt>
<trkpt lat="48.943225" lon="8.664318">
<ele>350.0</ele>
<speed>1.9</speed>
<course>90.0</course>
<desc>Speed 1.9 km/h Distance 4.65 km</desc>
<time>2010-02-24T18:19:46.10</time>
<name>4394</name>
</trkpt>
<trkpt lat="48.943225" lon="8.664328">
<ele>349.5</ele>
<speed>1.9</speed>
<course>99.6</course>
<desc>Speed 1.9 km/h Distance 4.65 km</desc>
<time>2010-02-24T18:19:47.10</time>
<name>4395</name>
</trkpt>
<trkpt lat="48.943223" lon="8.664343">
<ele>349.5</ele>
<speed>2.8</speed>
<course>90.0</course>
<desc>Speed 2.8 km/h Distance 4.65 km</desc>
<time>2010-02-24T18:19:48.10</time>
<name>4396</name>
</trkpt>
<trkpt lat="48.943223" lon="8.664368">
<ele>349.0</ele>
<speed>3.0</speed>
<course>112.1</course>
<desc>Speed 3.0 km/h Distance 4.65 km</desc>
<time>2010-02-24T18:19:49.10</time>
<name>4397</name>
</trkpt>
<trkpt lat="48.943217" lon="8.664393">
<ele>348.5</ele>
<speed>3.9</speed>
<course>112.1</course>
<desc>Speed 3.9 km/h Distance 4.65 km</desc>
<time>2010-02-24T18:19:50.10</time>
<name>4398</name>
</trkpt>
<trkpt lat="48.943210" lon="8.664418">
<ele>348.5</ele>
<speed>4.2</speed>
<course>95.4</course>
<desc>Speed 4.2 km/h Distance 4.66 km</desc>
<time>2010-02-24T18:19:51.10</time>
<name>4399</name>
</trkpt>
<trkpt lat="48.943208" lon="8.664445">
<ele>347.5</ele>
<speed>3.7</speed>
<course>106.9</course>
<desc>Speed 3.7 km/h Distance 4.66 km</desc>
<time>2010-02-24T18:19:52.10</time>
<name>4400</name>
</trkpt>
<trkpt lat="48.943205" lon="8.664462">
<ele>347.0</ele>
<speed>3.6</speed>
<course>121.3</course>
<desc>Speed 3.6 km/h Distance 4.66 km</desc>
<time>2010-02-24T18:19:53.10</time>
<name>4401</name>
</trkpt>
<trkpt lat="48.943198" lon="8.664478">
<ele>346.0</ele>
<speed>3.9</speed>
<course>100.7</course>
<desc>Speed 3.9 km/h Distance 4.66 km</desc>
<time>2010-02-24T18:19:54.10</time>
<name>4402</name>
</trkpt>
<trkpt lat="48.943197" lon="8.664492">
<ele>345.5</ele>
<speed>2.3</speed>
<course>90.0</course>
<desc>Speed 2.3 km/h Distance 4.66 km</desc>
<time>2010-02-24T18:19:55.10</time>
<name>4403</name>
</trkpt>
<trkpt lat="48.943197" lon="8.664507">
<ele>345.5</ele>
<speed>3.5</speed>
<course>98.7</course>
<desc>Speed 3.5 km/h Distance 4.66 km</desc>
<time>2010-02-24T18:19:56.10</time>
<name>4404</name>
</trkpt>
<trkpt lat="48.943195" lon="8.664523">
<ele>344.5</ele>
<speed>3.2</speed>
<course>90.0</course>
<desc>Speed 3.2 km/h Distance 4.66 km</desc>
<time>2010-02-24T18:19:57.10</time>
<name>4405</name>
</trkpt>
<trkpt lat="48.943195" lon="8.664545">
<ele>344.0</ele>
<speed>4.0</speed>
<course>99.6</course>
<desc>Speed 4.0 km/h Distance 4.67 km</desc>
<time>2010-02-24T18:19:58.10</time>
<name>4406</name>
</trkpt>
<trkpt lat="48.943193" lon="8.664560">
<ele>343.5</ele>
<speed>3.0</speed>
<course>127.3</course>
<desc>Speed 3.0 km/h Distance 4.67 km</desc>
<time>2010-02-24T18:19:59.10</time>
<name>4407</name>
</trkpt>
<trkpt lat="48.943185" lon="8.664577">
<ele>343.0</ele>
<speed>4.1</speed>
<course>82.8</course>
<desc>Speed 4.1 km/h Distance 4.67 km</desc>
<time>2010-02-24T18:20:00.10</time>
<name>4408</name>
</trkpt>
<trkpt lat="48.943187" lon="8.664597">
<ele>342.5</ele>
<speed>4.0</speed>
<course>90.0</course>
<desc>Speed 4.0 km/h Distance 4.67 km</desc>
<time>2010-02-24T18:20:01.10</time>
<name>4409</name>
</trkpt>
<trkpt lat="48.943187" lon="8.664620">
<ele>342.5</ele>
<speed>4.1</speed>
<course>90.0</course>
<desc>Speed 4.1 km/h Distance 4.67 km</desc>
<time>2010-02-24T18:20:02.10</time>
<name>4410</name>
</trkpt>
<trkpt lat="48.943187" lon="8.664635">
<ele>342.5</ele>
<speed>2.0</speed>
<course>79.3</course>
<desc>Speed 2.0 km/h Distance 4.67 km</desc>
<time>2010-02-24T18:20:03.10</time>
<name>4411</name>
</trkpt>
<trkpt lat="48.943188" lon="8.664648">
<ele>342.5</ele>
<speed>2.1</speed>
<course>90.0</course>
<desc>Speed 2.1 km/h Distance 4.67 km</desc>
<time>2010-02-24T18:20:04.10</time>
<name>4412</name>
</trkpt>
<trkpt lat="48.943188" lon="8.664672">
<ele>341.0</ele>
<speed>5.1</speed>
<course>33.7</course>
<desc>Speed 5.1 km/h Distance 4.68 km</desc>
<time>2010-02-24T18:20:05.10</time>
<name>4413</name>
</trkpt>
<trkpt lat="48.943192" lon="8.664675">
<ele>341.0</ele>
<speed>1.1</speed>
<course>33.1</course>
<desc>Speed 1.1 km/h Distance 4.68 km</desc>
<time>2010-02-24T18:20:06.10</time>
<name>4414</name>
</trkpt>
<trkpt lat="48.943203" lon="8.664687">
<ele>342.5</ele>
<speed>2.1</speed>
<course>69.1</course>
<desc>Speed 2.1 km/h Distance 4.68 km</desc>
<time>2010-02-24T18:20:07.10</time>
<name>4415</name>
</trkpt>
<trkpt lat="48.943207" lon="8.664700">
<ele>342.5</ele>
<speed>3.3</speed>
<course>69.2</course>
<desc>Speed 3.3 km/h Distance 4.68 km</desc>
<time>2010-02-24T18:20:08.10</time>
<name>4416</name>
</trkpt>
<trkpt lat="48.943210" lon="8.664713">
<ele>342.0</ele>
<speed>2.7</speed>
<course>75.6</course>
<desc>Speed 2.7 km/h Distance 4.68 km</desc>
<time>2010-02-24T18:20:09.10</time>
<name>4417</name>
</trkpt>
<trkpt lat="48.943212" lon="8.664723">
<ele>341.0</ele>
<speed>2.8</speed>
<course>58.6</course>
<desc>Speed 2.8 km/h Distance 4.68 km</desc>
<time>2010-02-24T18:20:10.10</time>
<name>4418</name>
</trkpt>
<trkpt lat="48.943215" lon="8.664732">
<ele>341.0</ele>
<speed>2.2</speed>
<course>127.0</course>
<desc>Speed 2.2 km/h Distance 4.68 km</desc>
<time>2010-02-24T18:20:11.10</time>
<name>4419</name>
</trkpt>
<trkpt lat="48.943212" lon="8.664738">
<ele>341.0</ele>
<speed>2.7</speed>
<course>32.3</course>
<desc>Speed 2.7 km/h Distance 4.68 km</desc>
<time>2010-02-24T18:20:12.10</time>
<name>4420</name>
</trkpt>
<trkpt lat="48.943217" lon="8.664743">
<ele>341.0</ele>
<speed>1.4</speed>
<course>0.0</course>
<desc>Speed 1.4 km/h Distance 4.68 km</desc>
<time>2010-02-24T18:20:13.10</time>
<name>4421</name>
</trkpt>
<trkpt lat="48.943222" lon="8.664743">
<ele>340.5</ele>
<speed>1.0</speed>
<course>90.0</course>
<desc>Speed 1.0 km/h Distance 4.68 km</desc>
<time>2010-02-24T18:20:14.10</time>
<name>4422</name>
</trkpt>
<trkpt lat="48.943222" lon="8.664748">
<ele>339.5</ele>
<speed>1.4</speed>
<course>110.5</course>
<desc>Speed 1.4 km/h Distance 4.68 km</desc>
<time>2010-02-24T18:20:15.10</time>
<name>4423</name>
</trkpt>
<trkpt lat="48.943220" lon="8.664755">
<ele>339.5</ele>
<speed>1.0</speed>
<course>5.0</course>
<desc>Speed 1.0 km/h Distance 4.68 km</desc>
<time>2010-02-24T18:20:16.10</time>
<name>4424</name>
</trkpt>
<trkpt lat="48.943228" lon="8.664755">
<ele>340.0</ele>
<speed>0.2</speed>
<course>7.4</course>
<desc>Speed 0.2 km/h Distance 4.68 km</desc>
<time>2010-02-24T18:20:17.10</time>
<name>4425</name>
</trkpt>
<trkpt lat="48.943235" lon="8.664757">
<ele>339.5</ele>
<speed>1.5</speed>
<course>52.4</course>
<desc>Speed 1.5 km/h Distance 4.69 km</desc>
<time>2010-02-24T18:20:18.10</time>
<name>4426</name>
</trkpt>
<trkpt lat="48.943238" lon="8.664763">
<ele>339.0</ele>
<speed>1.3</speed>
<course>39.0</course>
<desc>Speed 1.3 km/h Distance 4.69 km</desc>
<time>2010-02-24T18:20:19.10</time>
<name>4427</name>
</trkpt>
<trkpt lat="48.943245" lon="8.664772">
<ele>338.5</ele>
<speed>1.8</speed>
<course>69.1</course>
<desc>Speed 1.8 km/h Distance 4.69 km</desc>
<time>2010-02-24T18:20:20.10</time>
<name>4428</name>
</trkpt>
<trkpt lat="48.943247" lon="8.664778">
<ele>338.5</ele>
<speed>1.0</speed>
<course>32.6</course>
<desc>Speed 1.0 km/h Distance 4.69 km</desc>
<time>2010-02-24T18:20:21.10</time>
<name>4429</name>
</trkpt>
<trkpt lat="48.943253" lon="8.664785">
<ele>337.5</ele>
<speed>1.1</speed>
<course>52.4</course>
<desc>Speed 1.1 km/h Distance 4.69 km</desc>
<time>2010-02-24T18:20:22.10</time>
<name>4430</name>
</trkpt>
<trkpt lat="48.943258" lon="8.664795">
<ele>337.0</ele>
<speed>1.7</speed>
<course>38.1</course>
<desc>Speed 1.7 km/h Distance 4.69 km</desc>
<time>2010-02-24T18:20:23.10</time>
<name>4431</name>
</trkpt>
<trkpt lat="48.943267" lon="8.664805">
<ele>337.5</ele>
<speed>3.0</speed>
<course>65.5</course>
<desc>Speed 3.0 km/h Distance 4.69 km</desc>
<time>2010-02-24T18:20:24.10</time>
<name>4432</name>
</trkpt>
<trkpt lat="48.943272" lon="8.664822">
<ele>336.0</ele>
<speed>3.3</speed>
<course>49.8</course>
<desc>Speed 3.3 km/h Distance 4.69 km</desc>
<time>2010-02-24T18:20:25.10</time>
<name>4433</name>
</trkpt>
<trkpt lat="48.943280" lon="8.664837">
<ele>337.5</ele>
<speed>1.6</speed>
<course>33.2</course>
<desc>Speed 1.6 km/h Distance 4.69 km</desc>
<time>2010-02-24T18:20:26.10</time>
<name>4434</name>
</trkpt>
<trkpt lat="48.943288" lon="8.664845">
<ele>339.0</ele>
<speed>0.5</speed>
<course>33.2</course>
<desc>Speed 0.5 km/h Distance 4.69 km</desc>
<time>2010-02-24T18:20:27.13</time>
<name>4435</name>
</trkpt>
<trkpt lat="48.943298" lon="8.664855">
<ele>341.0</ele>
<speed>1.2</speed>
<course>22.2</course>
<desc>Speed 1.2 km/h Distance 4.70 km</desc>
<time>2010-02-24T18:20:28.13</time>
<name>4436</name>
</trkpt>
<trkpt lat="48.943303" lon="8.664858">
<ele>341.5</ele>
<speed>1.5</speed>
<course>25.2</course>
<desc>Speed 1.5 km/h Distance 4.70 km</desc>
<time>2010-02-24T18:20:29.13</time>
<name>4437</name>
</trkpt>
<trkpt lat="48.943315" lon="8.664867">
<ele>342.0</ele>
<speed>3.6</speed>
<course>13.8</course>
<desc>Speed 3.6 km/h Distance 4.70 km</desc>
<time>2010-02-24T18:20:30.13</time>
<name>4438</name>
</trkpt>
<trkpt lat="48.943323" lon="8.664870">
<ele>343.0</ele>
<speed>2.0</speed>
<course>11.6</course>
<desc>Speed 2.0 km/h Distance 4.70 km</desc>
<time>2010-02-24T18:20:31.13</time>
<name>4439</name>
</trkpt>
<trkpt lat="48.943333" lon="8.664873">
<ele>344.0</ele>
<speed>1.7</speed>
<course>18.2</course>
<desc>Speed 1.7 km/h Distance 4.70 km</desc>
<time>2010-02-24T18:20:32.13</time>
<name>4440</name>
</trkpt>
<trkpt lat="48.943343" lon="8.664878">
<ele>345.0</ele>
<speed>1.8</speed>
<course>11.2</course>
<desc>Speed 1.8 km/h Distance 4.70 km</desc>
<time>2010-02-24T18:20:33.13</time>
<name>4441</name>
</trkpt>
<trkpt lat="48.943355" lon="8.664882">
<ele>346.0</ele>
<speed>1.4</speed>
<course>10.8</course>
<desc>Speed 1.4 km/h Distance 4.70 km</desc>
<time>2010-02-24T18:20:34.13</time>
<name>4442</name>
</trkpt>
<trkpt lat="48.943372" lon="8.664887">
<ele>347.0</ele>
<speed>2.8</speed>
<course>9.0</course>
<desc>Speed 2.8 km/h Distance 4.70 km</desc>
<time>2010-02-24T18:20:35.13</time>
<name>4443</name>
</trkpt>
<trkpt lat="48.943385" lon="8.664890">
<ele>347.5</ele>
<speed>3.0</speed>
<course>14.9</course>
<desc>Speed 3.0 km/h Distance 4.71 km</desc>
<time>2010-02-24T18:20:36.13</time>
<name>4444</name>
</trkpt>
<trkpt lat="48.943393" lon="8.664893">
<ele>347.5</ele>
<speed>2.4</speed>
<course>10.3</course>
<desc>Speed 2.4 km/h Distance 4.71 km</desc>
<time>2010-02-24T18:20:37.13</time>
<name>4445</name>
</trkpt>
<trkpt lat="48.943400" lon="8.664895">
<ele>347.0</ele>
<speed>2.3</speed>
<course>20.8</course>
<desc>Speed 2.3 km/h Distance 4.71 km</desc>
<time>2010-02-24T18:20:38.13</time>
<name>4446</name>
</trkpt>
<trkpt lat="48.943408" lon="8.664900">
<ele>347.5</ele>
<speed>2.3</speed>
<course>11.2</course>
<desc>Speed 2.3 km/h Distance 4.71 km</desc>
<time>2010-02-24T18:20:39.13</time>
<name>4447</name>
</trkpt>
<trkpt lat="48.943420" lon="8.664903">
<ele>347.5</ele>
<speed>3.6</speed>
<course>354.7</course>
<desc>Speed 3.6 km/h Distance 4.71 km</desc>
<time>2010-02-24T18:20:40.13</time>
<name>4448</name>
</trkpt>
<trkpt lat="48.943433" lon="8.664902">
<ele>348.0</ele>
<speed>4.1</speed>
<course>8.1</course>
<desc>Speed 4.1 km/h Distance 4.71 km</desc>
<time>2010-02-24T18:20:41.13</time>
<name>4449</name>
</trkpt>
<trkpt lat="48.943443" lon="8.664903">
<ele>348.0</ele>
<speed>3.6</speed>
<course>12.6</course>
<desc>Speed 3.6 km/h Distance 4.71 km</desc>
<time>2010-02-24T18:20:42.13</time>
<name>4450</name>
</trkpt>
<trkpt lat="48.943453" lon="8.664907">
<ele>348.0</ele>
<speed>3.7</speed>
<course>18.8</course>
<desc>Speed 3.7 km/h Distance 4.71 km</desc>
<time>2010-02-24T18:20:43.13</time>
<name>4451</name>
</trkpt>
<trkpt lat="48.943463" lon="8.664912">
<ele>348.0</ele>
<speed>3.7</speed>
<course>26.4</course>
<desc>Speed 3.7 km/h Distance 4.71 km</desc>
<time>2010-02-24T18:20:44.13</time>
<name>4452</name>
</trkpt>
<trkpt lat="48.943470" lon="8.664917">
<ele>348.0</ele>
<speed>2.7</speed>
<course>33.2</course>
<desc>Speed 2.7 km/h Distance 4.72 km</desc>
<time>2010-02-24T18:20:45.13</time>
<name>4453</name>
</trkpt>
<trkpt lat="48.943478" lon="8.664925">
<ele>347.5</ele>
<speed>3.1</speed>
<course>44.5</course>
<desc>Speed 3.1 km/h Distance 4.72 km</desc>
<time>2010-02-24T18:20:46.13</time>
<name>4454</name>
</trkpt>
<trkpt lat="48.943485" lon="8.664935">
<ele>347.5</ele>
<speed>3.1</speed>
<course>36.9</course>
<desc>Speed 3.1 km/h Distance 4.72 km</desc>
<time>2010-02-24T18:20:47.13</time>
<name>4455</name>
</trkpt>
<trkpt lat="48.943497" lon="8.664948">
<ele>349.0</ele>
<speed>5.3</speed>
<course>73.0</course>
<desc>Speed 5.3 km/h Distance 4.72 km</desc>
<time>2010-02-24T18:20:48.13</time>
<name>4456</name>
</trkpt>
<trkpt lat="48.943500" lon="8.664965">
<ele>349.5</ele>
<speed>4.3</speed>
<course>69.1</course>
<desc>Speed 4.3 km/h Distance 4.72 km</desc>
<time>2010-02-24T18:20:49.13</time>
<name>4457</name>
</trkpt>
<trkpt lat="48.943503" lon="8.664978">
<ele>349.0</ele>
<speed>3.1</speed>
<course>60.3</course>
<desc>Speed 3.1 km/h Distance 4.72 km</desc>
<time>2010-02-24T18:20:50.13</time>
<name>4458</name>
</trkpt>
<trkpt lat="48.943508" lon="8.664992">
<ele>349.5</ele>
<speed>3.5</speed>
<course>71.3</course>
<desc>Speed 3.5 km/h Distance 4.72 km</desc>
<time>2010-02-24T18:20:51.13</time>
<name>4459</name>
</trkpt>
<trkpt lat="48.943512" lon="8.665007">
<ele>349.0</ele>
<speed>3.2</speed>
<course>69.2</course>
<desc>Speed 3.2 km/h Distance 4.72 km</desc>
<time>2010-02-24T18:20:52.13</time>
<name>4460</name>
</trkpt>
<trkpt lat="48.943515" lon="8.665020">
<ele>348.0</ele>
<speed>2.8</speed>
<course>81.3</course>
<desc>Speed 2.8 km/h Distance 4.72 km</desc>
<time>2010-02-24T18:20:53.13</time>
<name>4461</name>
</trkpt>
<trkpt lat="48.943517" lon="8.665037">
<ele>347.5</ele>
<speed>3.0</speed>
<course>82.1</course>
<desc>Speed 3.0 km/h Distance 4.73 km</desc>
<time>2010-02-24T18:20:54.13</time>
<name>4462</name>
</trkpt>
<trkpt lat="48.943518" lon="8.665055">
<ele>347.5</ele>
<speed>4.2</speed>
<course>67.5</course>
<desc>Speed 4.2 km/h Distance 4.73 km</desc>
<time>2010-02-24T18:20:55.13</time>
<name>4463</name>
</trkpt>
<trkpt lat="48.943523" lon="8.665073">
<ele>347.5</ele>
<speed>4.0</speed>
<course>82.1</course>
<desc>Speed 4.0 km/h Distance 4.73 km</desc>
<time>2010-02-24T18:20:56.13</time>
<name>4464</name>
</trkpt>
<trkpt lat="48.943525" lon="8.665092">
<ele>347.0</ele>
<speed>4.0</speed>
<course>81.3</course>
<desc>Speed 4.0 km/h Distance 4.73 km</desc>
<time>2010-02-24T18:20:57.13</time>
<name>4465</name>
</trkpt>
<trkpt lat="48.943527" lon="8.665108">
<ele>347.0</ele>
<speed>4.0</speed>
<course>108.6</course>
<desc>Speed 4.0 km/h Distance 4.73 km</desc>
<time>2010-02-24T18:20:58.13</time>
<name>4466</name>
</trkpt>
<trkpt lat="48.943523" lon="8.665123">
<ele>346.5</ele>
<speed>4.0</speed>
<course>100.7</course>
<desc>Speed 4.0 km/h Distance 4.73 km</desc>
<time>2010-02-24T18:20:59.13</time>
<name>4467</name>
</trkpt>
<trkpt lat="48.943522" lon="8.665137">
<ele>346.5</ele>
<speed>3.7</speed>
<course>121.3</course>
<desc>Speed 3.7 km/h Distance 4.73 km</desc>
<time>2010-02-24T18:21:00.13</time>
<name>4468</name>
</trkpt>
<trkpt lat="48.943515" lon="8.665153">
<ele>346.0</ele>
<speed>4.6</speed>
<course>98.6</course>
<desc>Speed 4.6 km/h Distance 4.73 km</desc>
<time>2010-02-24T18:21:01.13</time>
<name>4469</name>
</trkpt>
<trkpt lat="48.943513" lon="8.665170">
<ele>346.0</ele>
<speed>4.0</speed>
<course>106.9</course>
<desc>Speed 4.0 km/h Distance 4.74 km</desc>
<time>2010-02-24T18:21:02.13</time>
<name>4470</name>
</trkpt>
<trkpt lat="48.943510" lon="8.665187">
<ele>345.0</ele>
<speed>3.5</speed>
<course>116.9</course>
<desc>Speed 3.5 km/h Distance 4.74 km</desc>
<time>2010-02-24T18:21:03.13</time>
<name>4471</name>
</trkpt>
<trkpt lat="48.943505" lon="8.665202">
<ele>344.5</ele>
<speed>3.7</speed>
<course>108.7</course>
<desc>Speed 3.7 km/h Distance 4.74 km</desc>
<time>2010-02-24T18:21:04.13</time>
<name>4472</name>
</trkpt>
<trkpt lat="48.943502" lon="8.665217">
<ele>344.0</ele>
<speed>4.0</speed>
<course>121.3</course>
<desc>Speed 4.0 km/h Distance 4.74 km</desc>
<time>2010-02-24T18:21:05.13</time>
<name>4473</name>
</trkpt>
<trkpt lat="48.943495" lon="8.665233">
<ele>343.5</ele>
<speed>4.4</speed>
<course>114.5</course>
<desc>Speed 4.4 km/h Distance 4.74 km</desc>
<time>2010-02-24T18:21:06.13</time>
<name>4474</name>
</trkpt>
<trkpt lat="48.943490" lon="8.665250">
<ele>343.0</ele>
<speed>4.2</speed>
<course>114.5</course>
<desc>Speed 4.2 km/h Distance 4.74 km</desc>
<time>2010-02-24T18:21:07.13</time>
<name>4475</name>
</trkpt>
<trkpt lat="48.943485" lon="8.665267">
<ele>342.5</ele>
<speed>4.2</speed>
<course>127.3</course>
<desc>Speed 4.2 km/h Distance 4.74 km</desc>
<time>2010-02-24T18:21:08.13</time>
<name>4476</name>
</trkpt>
<trkpt lat="48.943478" lon="8.665280">
<ele>342.5</ele>
<speed>4.4</speed>
<course>121.3</course>
<desc>Speed 4.4 km/h Distance 4.74 km</desc>
<time>2010-02-24T18:21:09.13</time>
<name>4477</name>
</trkpt>
<trkpt lat="48.943472" lon="8.665297">
<ele>342.0</ele>
<speed>4.6</speed>
<course>116.9</course>
<desc>Speed 4.6 km/h Distance 4.75 km</desc>
<time>2010-02-24T18:21:10.13</time>
<name>4478</name>
</trkpt>
<trkpt lat="48.943467" lon="8.665312">
<ele>342.0</ele>
<speed>4.1</speed>
<course>119.7</course>
<desc>Speed 4.1 km/h Distance 4.75 km</desc>
<time>2010-02-24T18:21:11.13</time>
<name>4479</name>
</trkpt>
<trkpt lat="48.943462" lon="8.665325">
<ele>342.0</ele>
<speed>3.5</speed>
<course>107.0</course>
<desc>Speed 3.5 km/h Distance 4.75 km</desc>
<time>2010-02-24T18:21:12.13</time>
<name>4480</name>
</trkpt>
<trkpt lat="48.943458" lon="8.665342">
<ele>342.0</ele>
<speed>3.9</speed>
<course>97.2</course>
<desc>Speed 3.9 km/h Distance 4.75 km</desc>
<time>2010-02-24T18:21:13.13</time>
<name>4481</name>
</trkpt>
<trkpt lat="48.943457" lon="8.665362">
<ele>342.0</ele>
<speed>4.5</speed>
<course>97.9</course>
<desc>Speed 4.5 km/h Distance 4.75 km</desc>
<time>2010-02-24T18:21:14.13</time>
<name>4482</name>
</trkpt>
<trkpt lat="48.943455" lon="8.665380">
<ele>342.0</ele>
<speed>4.5</speed>
<course>106.9</course>
<desc>Speed 4.5 km/h Distance 4.75 km</desc>
<time>2010-02-24T18:21:15.13</time>
<name>4483</name>
</trkpt>
<trkpt lat="48.943452" lon="8.665397">
<ele>342.0</ele>
<speed>4.5</speed>
<course>121.3</course>
<desc>Speed 4.5 km/h Distance 4.75 km</desc>
<time>2010-02-24T18:21:16.13</time>
<name>4484</name>
</trkpt>
<trkpt lat="48.943445" lon="8.665413">
<ele>342.0</ele>
<speed>4.1</speed>
<course>105.5</course>
<desc>Speed 4.1 km/h Distance 4.76 km</desc>
<time>2010-02-24T18:21:17.13</time>
<name>4485</name>
</trkpt>
<trkpt lat="48.943442" lon="8.665432">
<ele>342.0</ele>
<speed>4.3</speed>
<course>112.6</course>
<desc>Speed 4.3 km/h Distance 4.76 km</desc>
<time>2010-02-24T18:21:18.13</time>
<name>4486</name>
</trkpt>
<trkpt lat="48.943437" lon="8.665450">
<ele>342.0</ele>
<speed>4.5</speed>
<course>98.7</course>
<desc>Speed 4.5 km/h Distance 4.76 km</desc>
<time>2010-02-24T18:21:19.13</time>
<name>4487</name>
</trkpt>
<trkpt lat="48.943435" lon="8.665467">
<ele>342.0</ele>
<speed>4.4</speed>
<course>90.0</course>
<desc>Speed 4.4 km/h Distance 4.76 km</desc>
<time>2010-02-24T18:21:20.13</time>
<name>4488</name>
</trkpt>
<trkpt lat="48.943435" lon="8.665485">
<ele>342.0</ele>
<speed>4.5</speed>
<course>98.7</course>
<desc>Speed 4.5 km/h Distance 4.76 km</desc>
<time>2010-02-24T18:21:21.13</time>
<name>4489</name>
</trkpt>
<trkpt lat="48.943433" lon="8.665502">
<ele>342.0</ele>
<speed>4.4</speed>
<course>114.6</course>
<desc>Speed 4.4 km/h Distance 4.76 km</desc>
<time>2010-02-24T18:21:22.13</time>
<name>4490</name>
</trkpt>
<trkpt lat="48.943428" lon="8.665518">
<ele>342.0</ele>
<speed>4.4</speed>
<course>121.4</course>
<desc>Speed 4.4 km/h Distance 4.76 km</desc>
<time>2010-02-24T18:21:23.13</time>
<name>4491</name>
</trkpt>
<trkpt lat="48.943422" lon="8.665535">
<ele>342.0</ele>
<speed>4.7</speed>
<course>108.6</course>
<desc>Speed 4.7 km/h Distance 4.76 km</desc>
<time>2010-02-24T18:21:24.13</time>
<name>4492</name>
</trkpt>
<trkpt lat="48.943418" lon="8.665550">
<ele>341.5</ele>
<speed>4.4</speed>
<course>121.3</course>
<desc>Speed 4.4 km/h Distance 4.77 km</desc>
<time>2010-02-24T18:21:25.13</time>
<name>4493</name>
</trkpt>
<trkpt lat="48.943412" lon="8.665567">
<ele>341.5</ele>
<speed>4.5</speed>
<course>116.9</course>
<desc>Speed 4.5 km/h Distance 4.77 km</desc>
<time>2010-02-24T18:21:26.13</time>
<name>4494</name>
</trkpt>
<trkpt lat="48.943407" lon="8.665582">
<ele>341.5</ele>
<speed>4.3</speed>
<course>124.1</course>
<desc>Speed 4.3 km/h Distance 4.77 km</desc>
<time>2010-02-24T18:21:27.13</time>
<name>4495</name>
</trkpt>
<trkpt lat="48.943400" lon="8.665597">
<ele>341.5</ele>
<speed>4.0</speed>
<course>124.0</course>
<desc>Speed 4.0 km/h Distance 4.77 km</desc>
<time>2010-02-24T18:21:28.13</time>
<name>4496</name>
</trkpt>
<trkpt lat="48.943393" lon="8.665612">
<ele>341.0</ele>
<speed>4.4</speed>
<course>124.0</course>
<desc>Speed 4.4 km/h Distance 4.77 km</desc>
<time>2010-02-24T18:21:29.13</time>
<name>4497</name>
</trkpt>
<trkpt lat="48.943387" lon="8.665627">
<ele>341.0</ele>
<speed>4.7</speed>
<course>130.2</course>
<desc>Speed 4.7 km/h Distance 4.77 km</desc>
<time>2010-02-24T18:21:30.13</time>
<name>4498</name>
</trkpt>
<trkpt lat="48.943378" lon="8.665642">
<ele>341.0</ele>
<speed>4.7</speed>
<course>124.1</course>
<desc>Speed 4.7 km/h Distance 4.77 km</desc>
<time>2010-02-24T18:21:31.13</time>
<name>4499</name>
</trkpt>
<trkpt lat="48.943372" lon="8.665657">
<ele>341.0</ele>
<speed>4.8</speed>
<course>112.6</course>
<desc>Speed 4.8 km/h Distance 4.78 km</desc>
<time>2010-02-24T18:21:32.13</time>
<name>4500</name>
</trkpt>
<trkpt lat="48.943367" lon="8.665675">
<ele>341.0</ele>
<speed>5.0</speed>
<course>114.6</course>
<desc>Speed 5.0 km/h Distance 4.78 km</desc>
<time>2010-02-24T18:21:33.13</time>
<name>4501</name>
</trkpt>
<trkpt lat="48.943362" lon="8.665692">
<ele>341.0</ele>
<speed>4.1</speed>
<course>100.8</course>
<desc>Speed 4.1 km/h Distance 4.78 km</desc>
<time>2010-02-24T18:21:34.13</time>
<name>4502</name>
</trkpt>
<trkpt lat="48.943360" lon="8.665705">
<ele>340.5</ele>
<speed>3.9</speed>
<course>119.7</course>
<desc>Speed 3.9 km/h Distance 4.78 km</desc>
<time>2010-02-24T18:21:35.13</time>
<name>4503</name>
</trkpt>
<trkpt lat="48.943355" lon="8.665718">
<ele>340.5</ele>
<speed>4.1</speed>
<course>124.1</course>
<desc>Speed 4.1 km/h Distance 4.78 km</desc>
<time>2010-02-24T18:21:36.13</time>
<name>4504</name>
</trkpt>
<trkpt lat="48.943348" lon="8.665733">
<ele>340.5</ele>
<speed>4.2</speed>
<course>116.9</course>
<desc>Speed 4.2 km/h Distance 4.78 km</desc>
<time>2010-02-24T18:21:37.13</time>
<name>4505</name>
</trkpt>
<trkpt lat="48.943343" lon="8.665748">
<ele>340.5</ele>
<speed>4.7</speed>
<course>121.3</course>
<desc>Speed 4.7 km/h Distance 4.78 km</desc>
<time>2010-02-24T18:21:38.13</time>
<name>4506</name>
</trkpt>
<trkpt lat="48.943337" lon="8.665765">
<ele>340.5</ele>
<speed>4.6</speed>
<course>131.3</course>
<desc>Speed 4.6 km/h Distance 4.78 km</desc>
<time>2010-02-24T18:21:39.13</time>
<name>4507</name>
</trkpt>
<trkpt lat="48.943330" lon="8.665777">
<ele>340.5</ele>
<speed>4.2</speed>
<course>99.6</course>
<desc>Speed 4.2 km/h Distance 4.79 km</desc>
<time>2010-02-24T18:21:40.13</time>
<name>4508</name>
</trkpt>
<trkpt lat="48.943328" lon="8.665792">
<ele>340.5</ele>
<speed>3.9</speed>
<course>108.7</course>
<desc>Speed 3.9 km/h Distance 4.79 km</desc>
<time>2010-02-24T18:21:41.13</time>
<name>4509</name>
</trkpt>
<trkpt lat="48.943325" lon="8.665807">
<ele>340.5</ele>
<speed>4.2</speed>
<course>113.5</course>
<desc>Speed 4.2 km/h Distance 4.79 km</desc>
<time>2010-02-24T18:21:42.13</time>
<name>4510</name>
</trkpt>
<trkpt lat="48.943322" lon="8.665818">
<ele>340.5</ele>
<speed>3.4</speed>
<course>90.0</course>
<desc>Speed 3.4 km/h Distance 4.79 km</desc>
<time>2010-02-24T18:21:43.13</time>
<name>4511</name>
</trkpt>
<trkpt lat="48.943322" lon="8.665828">
<ele>340.5</ele>
<speed>2.5</speed>
<course>58.6</course>
<desc>Speed 2.5 km/h Distance 4.79 km</desc>
<time>2010-02-24T18:21:44.13</time>
<name>4512</name>
</trkpt>
<trkpt lat="48.943325" lon="8.665837">
<ele>340.5</ele>
<speed>2.5</speed>
<course>40.9</course>
<desc>Speed 2.5 km/h Distance 4.79 km</desc>
<time>2010-02-24T18:21:45.13</time>
<name>4513</name>
</trkpt>
<trkpt lat="48.943330" lon="8.665843">
<ele>340.5</ele>
<speed>2.3</speed>
<course>40.9</course>
<desc>Speed 2.3 km/h Distance 4.79 km</desc>
<time>2010-02-24T18:21:46.13</time>
<name>4514</name>
</trkpt>
<trkpt lat="48.943335" lon="8.665850">
<ele>340.5</ele>
<speed>2.2</speed>
<course>41.4</course>
<desc>Speed 2.2 km/h Distance 4.79 km</desc>
<time>2010-02-24T18:21:47.13</time>
<name>4515</name>
</trkpt>
<trkpt lat="48.943340" lon="8.665857">
<ele>340.5</ele>
<speed>2.4</speed>
<course>25.6</course>
<desc>Speed 2.4 km/h Distance 4.79 km</desc>
<time>2010-02-24T18:21:48.13</time>
<name>4516</name>
</trkpt>
<trkpt lat="48.943347" lon="8.665862">
<ele>340.5</ele>
<speed>2.4</speed>
<course>44.5</course>
<desc>Speed 2.4 km/h Distance 4.79 km</desc>
<time>2010-02-24T18:21:49.13</time>
<name>4517</name>
</trkpt>
<trkpt lat="48.943350" lon="8.665867">
<ele>340.5</ele>
<speed>1.8</speed>
<course>21.5</course>
<desc>Speed 1.8 km/h Distance 4.79 km</desc>
<time>2010-02-24T18:21:50.13</time>
<name>4518</name>
</trkpt>
<trkpt lat="48.943358" lon="8.665872">
<ele>340.5</ele>
<speed>3.1</speed>
<course>18.8</course>
<desc>Speed 3.1 km/h Distance 4.79 km</desc>
<time>2010-02-24T18:21:51.13</time>
<name>4519</name>
</trkpt>
<trkpt lat="48.943365" lon="8.665875">
<ele>340.5</ele>
<speed>3.1</speed>
<course>16.0</course>
<desc>Speed 3.1 km/h Distance 4.80 km</desc>
<time>2010-02-24T18:21:52.13</time>
<name>4520</name>
</trkpt>
<trkpt lat="48.943372" lon="8.665878">
<ele>340.5</ele>
<speed>3.1</speed>
<course>12.6</course>
<desc>Speed 3.1 km/h Distance 4.80 km</desc>
<time>2010-02-24T18:21:53.13</time>
<name>4521</name>
</trkpt>
<trkpt lat="48.943375" lon="8.665880">
<ele>340.5</ele>
<speed>3.1</speed>
<course>18.8</course>
<desc>Speed 3.1 km/h Distance 4.80 km</desc>
<time>2010-02-24T18:21:54.13</time>
<name>4522</name>
</trkpt>
<trkpt lat="48.943378" lon="8.665882">
<ele>340.5</ele>
<speed>3.1</speed>
<course>51.9</course>
<desc>Speed 3.1 km/h Distance 4.80 km</desc>
<time>2010-02-24T18:21:55.13</time>
<name>4523</name>
</trkpt>
<trkpt lat="48.943380" lon="8.665885">
<ele>340.5</ele>
<speed>3.1</speed>
<course>30.3</course>
<desc>Speed 3.1 km/h Distance 4.80 km</desc>
<time>2010-02-24T18:21:56.13</time>
<name>4524</name>
</trkpt>
<trkpt lat="48.943395" lon="8.665898">
<ele>340.5</ele>
<speed>3.5</speed>
<course>36.9</course>
<desc>Speed 3.5 km/h Distance 4.80 km</desc>
<time>2010-02-24T18:21:57.13</time>
<name>4525</name>
</trkpt>
<trkpt lat="48.943407" lon="8.665912">
<ele>340.5</ele>
<speed>3.3</speed>
<course>42.0</course>
<desc>Speed 3.3 km/h Distance 4.80 km</desc>
<time>2010-02-24T18:21:58.13</time>
<name>4526</name>
</trkpt>
<trkpt lat="48.943420" lon="8.665930">
<ele>340.5</ele>
<speed>4.0</speed>
<course>44.5</course>
<desc>Speed 4.0 km/h Distance 4.80 km</desc>
<time>2010-02-24T18:21:59.13</time>
<name>4527</name>
</trkpt>
<trkpt lat="48.943430" lon="8.665945">
<ele>340.5</ele>
<speed>1.8</speed>
<course>32.6</course>
<desc>Speed 1.8 km/h Distance 4.80 km</desc>
<time>2010-02-24T18:22:00.13</time>
<name>4528</name>
</trkpt>
<trkpt lat="48.943437" lon="8.665952">
<ele>340.5</ele>
<speed>1.0</speed>
<course>52.6</course>
<desc>Speed 1.0 km/h Distance 4.81 km</desc>
<time>2010-02-24T18:22:01.13</time>
<name>4529</name>
</trkpt>
<trkpt lat="48.943442" lon="8.665962">
<ele>340.5</ele>
<speed>1.2</speed>
<course>65.5</course>
<desc>Speed 1.2 km/h Distance 4.81 km</desc>
<time>2010-02-24T18:22:02.13</time>
<name>4530</name>
</trkpt>
<trkpt lat="48.943447" lon="8.665978">
<ele>340.5</ele>
<speed>3.1</speed>
<course>90.0</course>
<desc>Speed 3.1 km/h Distance 4.81 km</desc>
<time>2010-02-24T18:22:03.13</time>
<name>4531</name>
</trkpt>
<trkpt lat="48.943447" lon="8.665998">
<ele>340.5</ele>
<speed>4.7</speed>
<course>90.0</course>
<desc>Speed 4.7 km/h Distance 4.81 km</desc>
<time>2010-02-24T18:22:04.13</time>
<name>4532</name>
</trkpt>
<trkpt lat="48.943447" lon="8.666020">
<ele>340.5</ele>
<speed>5.3</speed>
<course>103.2</course>
<desc>Speed 5.3 km/h Distance 4.81 km</desc>
<time>2010-02-24T18:22:05.13</time>
<name>4533</name>
</trkpt>
<trkpt lat="48.943443" lon="8.666042">
<ele>340.5</ele>
<speed>5.4</speed>
<course>97.9</course>
<desc>Speed 5.4 km/h Distance 4.81 km</desc>
<time>2010-02-24T18:22:06.13</time>
<name>4534</name>
</trkpt>
<trkpt lat="48.943442" lon="8.666060">
<ele>340.5</ele>
<speed>4.8</speed>
<course>104.2</course>
<desc>Speed 4.8 km/h Distance 4.81 km</desc>
<time>2010-02-24T18:22:07.13</time>
<name>4535</name>
</trkpt>
<trkpt lat="48.943438" lon="8.666080">
<ele>340.5</ele>
<speed>4.5</speed>
<course>127.3</course>
<desc>Speed 4.5 km/h Distance 4.82 km</desc>
<time>2010-02-24T18:22:08.13</time>
<name>4536</name>
</trkpt>
<trkpt lat="48.943430" lon="8.666097">
<ele>340.5</ele>
<speed>4.9</speed>
<course>119.7</course>
<desc>Speed 4.9 km/h Distance 4.82 km</desc>
<time>2010-02-24T18:22:09.13</time>
<name>4537</name>
</trkpt>
<trkpt lat="48.943425" lon="8.666110">
<ele>340.5</ele>
<speed>3.5</speed>
<course>135.5</course>
<desc>Speed 3.5 km/h Distance 4.82 km</desc>
<time>2010-02-24T18:22:10.13</time>
<name>4538</name>
</trkpt>
<trkpt lat="48.943422" lon="8.666115">
<ele>340.5</ele>
<speed>1.3</speed>
<course>37.2</course>
<desc>Speed 1.3 km/h Distance 4.82 km</desc>
<time>2010-02-24T18:22:11.13</time>
<name>4539</name>
</trkpt>
<trkpt lat="48.943423" lon="8.666117">
<ele>340.5</ele>
<speed>0.1</speed>
<course>157.0</course>
<desc>Speed 0.1 km/h Distance 4.82 km</desc>
<time>2010-02-24T18:22:12.13</time>
<name>4540</name>
</trkpt>
<trkpt lat="48.943420" lon="8.666118">
<ele>340.5</ele>
<speed>1.4</speed>
<course>217.2</course>
<desc>Speed 1.4 km/h Distance 4.82 km</desc>
<time>2010-02-24T18:22:13.13</time>
<name>4541</name>
</trkpt>
<trkpt lat="48.943418" lon="8.666117">
<ele>340.5</ele>
<speed>1.2</speed>
<course>242.6</course>
<desc>Speed 1.2 km/h Distance 4.82 km</desc>
<time>2010-02-24T18:22:14.13</time>
<name>4542</name>
</trkpt>
<trkpt lat="48.943417" lon="8.666112">
<ele>340.5</ele>
<speed>1.7</speed>
<course>315.5</course>
<desc>Speed 1.7 km/h Distance 4.82 km</desc>
<time>2010-02-24T18:22:15.13</time>
<name>4543</name>
</trkpt>
<trkpt lat="48.943423" lon="8.666102">
<ele>340.5</ele>
<speed>2.2</speed>
<course>157.0</course>
<desc>Speed 2.2 km/h Distance 4.82 km</desc>
<time>2010-02-24T18:22:16.13</time>
<name>4544</name>
</trkpt>
<trkpt lat="48.943420" lon="8.666103">
<ele>340.5</ele>
<speed>2.1</speed>
<course>180.0</course>
<desc>Speed 2.1 km/h Distance 4.82 km</desc>
<time>2010-02-24T18:22:17.13</time>
<name>4545</name>
</trkpt>
<trkpt lat="48.943415" lon="8.666103">
<ele>340.5</ele>
<speed>2.3</speed>
<course>150.8</course>
<desc>Speed 2.3 km/h Distance 4.82 km</desc>
<time>2010-02-24T18:22:18.13</time>
<name>4546</name>
</trkpt>
<trkpt lat="48.943413" lon="8.666105">
<ele>340.5</ele>
<speed>1.8</speed>
<course>202.2</course>
<desc>Speed 1.8 km/h Distance 4.82 km</desc>
<time>2010-02-24T18:22:19.13</time>
<name>4547</name>
</trkpt>
<trkpt lat="48.943408" lon="8.666102">
<ele>340.5</ele>
<speed>1.5</speed>
<course>213.7</course>
<desc>Speed 1.5 km/h Distance 4.82 km</desc>
<time>2010-02-24T18:22:20.13</time>
<name>4548</name>
</trkpt>
<trkpt lat="48.943405" lon="8.666098">
<ele>340.5</ele>
<speed>1.5</speed>
<course>209.2</course>
<desc>Speed 1.5 km/h Distance 4.82 km</desc>
<time>2010-02-24T18:22:21.13</time>
<name>4549</name>
</trkpt>
<trkpt lat="48.943403" lon="8.666097">
<ele>340.5</ele>
<speed>1.5</speed>
<course>221.4</course>
<desc>Speed 1.5 km/h Distance 4.82 km</desc>
<time>2010-02-24T18:22:22.13</time>
<name>4550</name>
</trkpt>
<trkpt lat="48.943398" lon="8.666090">
<ele>340.5</ele>
<speed>1.5</speed>
<course>110.8</course>
<desc>Speed 1.5 km/h Distance 4.82 km</desc>
<time>2010-02-24T18:22:23.13</time>
<name>4551</name>
</trkpt>
<trkpt lat="48.943378" lon="8.666170">
<ele>340.5</ele>
<speed>9.5</speed>
<course>113.5</course>
<desc>Speed 9.5 km/h Distance 4.83 km</desc>
<time>2010-02-24T18:22:25.13</time>
<name>4552</name>
</trkpt>
<trkpt lat="48.943372" lon="8.666193">
<ele>340.5</ele>
<speed>9.5</speed>
<course>119.0</course>
<desc>Speed 9.5 km/h Distance 4.83 km</desc>
<time>2010-02-24T18:22:26.13</time>
<name>4553</name>
</trkpt>
<trkpt lat="48.943365" lon="8.666212">
<ele>340.5</ele>
<speed>9.5</speed>
<course>130.3</course>
<desc>Speed 9.5 km/h Distance 4.83 km</desc>
<time>2010-02-24T18:22:27.13</time>
<name>4554</name>
</trkpt>
<trkpt lat="48.943357" lon="8.666227">
<ele>340.5</ele>
<speed>9.5</speed>
<course>131.1</course>
<desc>Speed 9.5 km/h Distance 4.83 km</desc>
<time>2010-02-24T18:22:28.13</time>
<name>4555</name>
</trkpt>
<trkpt lat="48.943350" lon="8.666238">
<ele>340.5</ele>
<speed>9.5</speed>
<course>0.0</course>
<desc>Speed 9.5 km/h Distance 4.84 km</desc>
<time>2010-02-24T18:22:29.13</time>
<name>4556</name>
</trkpt>
<trkpt lat="48.943357" lon="8.666238">
<ele>340.5</ele>
<speed>1.0</speed>
<course>12.6</course>
<desc>Speed 1.0 km/h Distance 4.84 km</desc>
<time>2010-02-24T18:22:31.13</time>
<name>4557</name>
</trkpt>
<trkpt lat="48.943365" lon="8.666242">
<ele>340.5</ele>
<speed>1.3</speed>
<course>102.3</course>
<desc>Speed 1.3 km/h Distance 4.84 km</desc>
<time>2010-02-24T18:22:32.13</time>
<name>4558</name>
</trkpt>
<trkpt lat="48.943363" lon="8.666253">
<ele>340.5</ele>
<speed>1.4</speed>
<course>107.1</course>
<desc>Speed 1.4 km/h Distance 4.84 km</desc>
<time>2010-02-24T18:22:33.13</time>
<name>4559</name>
</trkpt>
<trkpt lat="48.943362" lon="8.666262">
<ele>340.5</ele>
<speed>0.2</speed>
<course>1.2</course>
<desc>Speed 0.2 km/h Distance 4.84 km</desc>
<time>2010-02-24T18:22:34.13</time>
<name>4560</name>
</trkpt>
<trkpt lat="48.943368" lon="8.666262">
<ele>340.5</ele>
<speed>1.3</speed>
<course>28.6</course>
<desc>Speed 1.3 km/h Distance 4.84 km</desc>
<time>2010-02-24T18:22:35.13</time>
<name>4561</name>
</trkpt>
<trkpt lat="48.943378" lon="8.666270">
<ele>340.5</ele>
<speed>0.8</speed>
<course>117.0</course>
<desc>Speed 0.8 km/h Distance 4.84 km</desc>
<time>2010-02-24T18:22:36.13</time>
<name>4562</name>
</trkpt>
<trkpt lat="48.943375" lon="8.666280">
<ele>340.5</ele>
<speed>3.1</speed>
<course>132.9</course>
<desc>Speed 3.1 km/h Distance 4.84 km</desc>
<time>2010-02-24T18:22:37.13</time>
<name>4563</name>
</trkpt>
<trkpt lat="48.943370" lon="8.666288">
<ele>340.5</ele>
<speed>3.0</speed>
<course>135.5</course>
<desc>Speed 3.0 km/h Distance 4.84 km</desc>
<time>2010-02-24T18:22:38.13</time>
<name>4564</name>
</trkpt>
<trkpt lat="48.943363" lon="8.666298">
<ele>340.5</ele>
<speed>4.6</speed>
<course>127.3</course>
<desc>Speed 4.6 km/h Distance 4.84 km</desc>
<time>2010-02-24T18:22:39.13</time>
<name>4565</name>
</trkpt>
<trkpt lat="48.943355" lon="8.666315">
<ele>340.5</ele>
<speed>4.9</speed>
<course>130.2</course>
<desc>Speed 4.9 km/h Distance 4.85 km</desc>
<time>2010-02-24T18:22:40.13</time>
<name>4566</name>
</trkpt>
<trkpt lat="48.943347" lon="8.666330">
<ele>340.5</ele>
<speed>5.1</speed>
<course>121.4</course>
<desc>Speed 5.1 km/h Distance 4.85 km</desc>
<time>2010-02-24T18:22:41.13</time>
<name>4567</name>
</trkpt>
<trkpt lat="48.943340" lon="8.666347">
<ele>340.5</ele>
<speed>4.6</speed>
<course>131.3</course>
<desc>Speed 4.6 km/h Distance 4.85 km</desc>
<time>2010-02-24T18:22:42.13</time>
<name>4568</name>
</trkpt>
<trkpt lat="48.943333" lon="8.666358">
<ele>340.5</ele>
<speed>4.6</speed>
<course>132.6</course>
<desc>Speed 4.6 km/h Distance 4.85 km</desc>
<time>2010-02-24T18:22:43.13</time>
<name>4569</name>
</trkpt>
<trkpt lat="48.943328" lon="8.666367">
<ele>340.0</ele>
<speed>3.3</speed>
<course>146.8</course>
<desc>Speed 3.3 km/h Distance 4.85 km</desc>
<time>2010-02-24T18:22:44.13</time>
<name>4570</name>
</trkpt>
<trkpt lat="48.943320" lon="8.666375">
<ele>340.0</ele>
<speed>4.0</speed>
<course>141.6</course>
<desc>Speed 4.0 km/h Distance 4.85 km</desc>
<time>2010-02-24T18:22:45.13</time>
<name>4571</name>
</trkpt>
<trkpt lat="48.943312" lon="8.666385">
<ele>340.0</ele>
<speed>4.2</speed>
<course>127.3</course>
<desc>Speed 4.2 km/h Distance 4.85 km</desc>
<time>2010-02-24T18:22:46.13</time>
<name>4572</name>
</trkpt>
<trkpt lat="48.943305" lon="8.666398">
<ele>340.0</ele>
<speed>3.7</speed>
<course>90.0</course>
<desc>Speed 3.7 km/h Distance 4.85 km</desc>
<time>2010-02-24T18:22:47.43</time>
<name>4573</name>
</trkpt>
<trkpt lat="48.943305" lon="8.666405">
<ele>339.5</ele>
<speed>1.7</speed>
<course>110.5</course>
<desc>Speed 1.7 km/h Distance 4.85 km</desc>
<time>2010-02-24T18:22:48.15</time>
<name>4574</name>
</trkpt>
<trkpt lat="48.943303" lon="8.666412">
<ele>339.5</ele>
<speed>1.8</speed>
<course>110.5</course>
<desc>Speed 1.8 km/h Distance 4.85 km</desc>
<time>2010-02-24T18:22:49.15</time>
<name>4575</name>
</trkpt>
</trkseg>
</trk>
</gpx>
